<?xml version="1.0" encoding="UTF-8" standalone="no" ?>
<gpx xmlns="http://www.topografix.com/GPX/1/1" xmlns:xsi="http://www.w3.org/2001/XMLSchema-instance" xsi:schemaLocation="http://www.topografix.com/GPX/1/1 http://www.topografix.com/GPX/1/1/gpx.xsd" version="1.1" creator="VisuGPX - https://www.visugpx.com">
  <metadata>
    <name>Bougainville </name>
  </metadata>
  <trk>
    <name><![CDATA[Bougainville _1]]></name>
    <trkseg>
      <trkpt lat="49.87111" lon="2.04238">
        <ele>111.1</ele>
        <time>2023-05-31T12:00:25Z</time>
      </trkpt>
      <trkpt lat="49.87112" lon="2.0424">
        <ele>111.1</ele>
        <time>2023-05-31T12:00:26Z</time>
      </trkpt>
      <trkpt lat="49.87112" lon="2.04241">
        <ele>111</ele>
        <time>2023-05-31T12:00:27Z</time>
      </trkpt>
      <trkpt lat="49.87112" lon="2.04242">
        <ele>111</ele>
        <time>2023-05-31T12:00:29Z</time>
      </trkpt>
      <trkpt lat="49.87112" lon="2.04244">
        <ele>111</ele>
        <time>2023-05-31T12:00:30Z</time>
      </trkpt>
      <trkpt lat="49.87114" lon="2.04247">
        <ele>110.9</ele>
        <time>2023-05-31T12:00:31Z</time>
      </trkpt>
      <trkpt lat="49.87115" lon="2.04248">
        <ele>110.9</ele>
        <time>2023-05-31T12:00:33Z</time>
      </trkpt>
      <trkpt lat="49.87116" lon="2.0425">
        <ele>110.8</ele>
        <time>2023-05-31T12:00:34Z</time>
      </trkpt>
      <trkpt lat="49.87117" lon="2.04252">
        <ele>110.8</ele>
        <time>2023-05-31T12:00:36Z</time>
      </trkpt>
      <trkpt lat="49.87118" lon="2.04252">
        <ele>110.7</ele>
        <time>2023-05-31T12:00:37Z</time>
      </trkpt>
      <trkpt lat="49.87119" lon="2.04254">
        <ele>110.7</ele>
        <time>2023-05-31T12:00:38Z</time>
      </trkpt>
      <trkpt lat="49.87119" lon="2.04255">
        <ele>110.7</ele>
        <time>2023-05-31T12:00:39Z</time>
      </trkpt>
      <trkpt lat="49.8712" lon="2.04256">
        <ele>110.6</ele>
        <time>2023-05-31T12:00:40Z</time>
      </trkpt>
      <trkpt lat="49.87121" lon="2.04257">
        <ele>110.6</ele>
        <time>2023-05-31T12:00:42Z</time>
      </trkpt>
      <trkpt lat="49.87122" lon="2.04259">
        <ele>110.6</ele>
        <time>2023-05-31T12:00:43Z</time>
      </trkpt>
      <trkpt lat="49.87123" lon="2.0426">
        <ele>110.5</ele>
        <time>2023-05-31T12:00:44Z</time>
      </trkpt>
      <trkpt lat="49.87124" lon="2.0426">
        <ele>110.5</ele>
        <time>2023-05-31T12:00:45Z</time>
      </trkpt>
      <trkpt lat="49.87125" lon="2.04261">
        <ele>110.4</ele>
        <time>2023-05-31T12:00:46Z</time>
      </trkpt>
      <trkpt lat="49.87125" lon="2.04262">
        <ele>110.4</ele>
        <time>2023-05-31T12:00:47Z</time>
      </trkpt>
      <trkpt lat="49.87126" lon="2.04262">
        <ele>110.4</ele>
        <time>2023-05-31T12:00:48Z</time>
      </trkpt>
      <trkpt lat="49.87127" lon="2.04263">
        <ele>110.4</ele>
        <time>2023-05-31T12:00:50Z</time>
      </trkpt>
      <trkpt lat="49.87128" lon="2.04263">
        <ele>110.3</ele>
        <time>2023-05-31T12:00:51Z</time>
      </trkpt>
      <trkpt lat="49.87128" lon="2.04264">
        <ele>110.3</ele>
        <time>2023-05-31T12:00:52Z</time>
      </trkpt>
      <trkpt lat="49.87129" lon="2.04264">
        <ele>110.3</ele>
        <time>2023-05-31T12:00:53Z</time>
      </trkpt>
      <trkpt lat="49.87129" lon="2.04265">
        <ele>110.3</ele>
        <time>2023-05-31T12:00:54Z</time>
      </trkpt>
      <trkpt lat="49.8713" lon="2.04266">
        <ele>110.2</ele>
        <time>2023-05-31T12:00:55Z</time>
      </trkpt>
      <trkpt lat="49.87131" lon="2.04267">
        <ele>110.2</ele>
        <time>2023-05-31T12:00:56Z</time>
      </trkpt>
      <trkpt lat="49.87132" lon="2.04268">
        <ele>110.2</ele>
        <time>2023-05-31T12:00:57Z</time>
      </trkpt>
      <trkpt lat="49.87133" lon="2.04268">
        <ele>110.1</ele>
        <time>2023-05-31T12:00:59Z</time>
      </trkpt>
      <trkpt lat="49.87133" lon="2.04269">
        <ele>110.1</ele>
        <time>2023-05-31T12:01:00Z</time>
      </trkpt>
      <trkpt lat="49.87135" lon="2.04271">
        <ele>110.1</ele>
        <time>2023-05-31T12:01:01Z</time>
      </trkpt>
      <trkpt lat="49.87136" lon="2.04272">
        <ele>110</ele>
        <time>2023-05-31T12:01:02Z</time>
      </trkpt>
      <trkpt lat="49.87137" lon="2.04274">
        <ele>110</ele>
        <time>2023-05-31T12:01:03Z</time>
      </trkpt>
      <trkpt lat="49.87138" lon="2.04275">
        <ele>109.9</ele>
        <time>2023-05-31T12:01:04Z</time>
      </trkpt>
      <trkpt lat="49.87139" lon="2.04278">
        <ele>109.8</ele>
        <time>2023-05-31T12:01:05Z</time>
      </trkpt>
      <trkpt lat="49.8714" lon="2.04279">
        <ele>109.8</ele>
        <time>2023-05-31T12:01:07Z</time>
      </trkpt>
      <trkpt lat="49.8714" lon="2.0428">
        <ele>109.8</ele>
        <time>2023-05-31T12:01:08Z</time>
      </trkpt>
      <trkpt lat="49.87142" lon="2.04282">
        <ele>109.7</ele>
        <time>2023-05-31T12:01:09Z</time>
      </trkpt>
      <trkpt lat="49.87143" lon="2.04282">
        <ele>109.6</ele>
        <time>2023-05-31T12:01:10Z</time>
      </trkpt>
      <trkpt lat="49.87144" lon="2.04283">
        <ele>109.6</ele>
        <time>2023-05-31T12:01:11Z</time>
      </trkpt>
      <trkpt lat="49.87146" lon="2.04282">
        <ele>109.5</ele>
        <time>2023-05-31T12:01:12Z</time>
      </trkpt>
      <trkpt lat="49.87147" lon="2.04282">
        <ele>109.5</ele>
        <time>2023-05-31T12:01:13Z</time>
      </trkpt>
      <trkpt lat="49.87148" lon="2.04281">
        <ele>109.5</ele>
        <time>2023-05-31T12:01:14Z</time>
      </trkpt>
      <trkpt lat="49.8715" lon="2.04281">
        <ele>109.4</ele>
        <time>2023-05-31T12:01:15Z</time>
      </trkpt>
      <trkpt lat="49.87151" lon="2.04281">
        <ele>109.3</ele>
        <time>2023-05-31T12:01:17Z</time>
      </trkpt>
      <trkpt lat="49.87151" lon="2.04281">
        <ele>109.3</ele>
        <time>2023-05-31T12:01:18Z</time>
      </trkpt>
      <trkpt lat="49.87153" lon="2.04284">
        <ele>109.2</ele>
        <time>2023-05-31T12:01:20Z</time>
      </trkpt>
      <trkpt lat="49.87153" lon="2.04285">
        <ele>109.2</ele>
        <time>2023-05-31T12:01:21Z</time>
      </trkpt>
      <trkpt lat="49.87154" lon="2.04286">
        <ele>109.1</ele>
        <time>2023-05-31T12:01:22Z</time>
      </trkpt>
      <trkpt lat="49.87154" lon="2.04288">
        <ele>109.1</ele>
        <time>2023-05-31T12:01:23Z</time>
      </trkpt>
      <trkpt lat="49.87155" lon="2.0429">
        <ele>109</ele>
        <time>2023-05-31T12:01:24Z</time>
      </trkpt>
      <trkpt lat="49.87156" lon="2.04292">
        <ele>109</ele>
        <time>2023-05-31T12:01:25Z</time>
      </trkpt>
      <trkpt lat="49.87156" lon="2.04293">
        <ele>108.9</ele>
        <time>2023-05-31T12:01:26Z</time>
      </trkpt>
      <trkpt lat="49.87157" lon="2.04295">
        <ele>108.9</ele>
        <time>2023-05-31T12:01:28Z</time>
      </trkpt>
      <trkpt lat="49.87157" lon="2.04296">
        <ele>108.8</ele>
        <time>2023-05-31T12:01:29Z</time>
      </trkpt>
      <trkpt lat="49.87158" lon="2.04297">
        <ele>108.8</ele>
        <time>2023-05-31T12:01:30Z</time>
      </trkpt>
      <trkpt lat="49.87158" lon="2.04298">
        <ele>108.8</ele>
        <time>2023-05-31T12:01:31Z</time>
      </trkpt>
      <trkpt lat="49.87159" lon="2.043">
        <ele>108.7</ele>
        <time>2023-05-31T12:01:32Z</time>
      </trkpt>
      <trkpt lat="49.87159" lon="2.04301">
        <ele>108.7</ele>
        <time>2023-05-31T12:01:34Z</time>
      </trkpt>
      <trkpt lat="49.8716" lon="2.04302">
        <ele>108.7</ele>
        <time>2023-05-31T12:01:35Z</time>
      </trkpt>
      <trkpt lat="49.8716" lon="2.04304">
        <ele>108.6</ele>
        <time>2023-05-31T12:01:36Z</time>
      </trkpt>
      <trkpt lat="49.87161" lon="2.04305">
        <ele>108.6</ele>
        <time>2023-05-31T12:01:38Z</time>
      </trkpt>
      <trkpt lat="49.8716" lon="2.04306">
        <ele>108.5</ele>
        <time>2023-05-31T12:01:39Z</time>
      </trkpt>
      <trkpt lat="49.87161" lon="2.04307">
        <ele>108.5</ele>
        <time>2023-05-31T12:01:40Z</time>
      </trkpt>
      <trkpt lat="49.87161" lon="2.04308">
        <ele>108.5</ele>
        <time>2023-05-31T12:01:41Z</time>
      </trkpt>
      <trkpt lat="49.87161" lon="2.04309">
        <ele>108.4</ele>
        <time>2023-05-31T12:01:42Z</time>
      </trkpt>
      <trkpt lat="49.87162" lon="2.04311">
        <ele>108.4</ele>
        <time>2023-05-31T12:01:44Z</time>
      </trkpt>
      <trkpt lat="49.87162" lon="2.04312">
        <ele>108.4</ele>
        <time>2023-05-31T12:01:45Z</time>
      </trkpt>
      <trkpt lat="49.87162" lon="2.04313">
        <ele>108.3</ele>
        <time>2023-05-31T12:01:46Z</time>
      </trkpt>
      <trkpt lat="49.87163" lon="2.04315">
        <ele>108.3</ele>
        <time>2023-05-31T12:01:47Z</time>
      </trkpt>
      <trkpt lat="49.87163" lon="2.04317">
        <ele>108.2</ele>
        <time>2023-05-31T12:01:48Z</time>
      </trkpt>
      <trkpt lat="49.87163" lon="2.04319">
        <ele>108.2</ele>
        <time>2023-05-31T12:01:49Z</time>
      </trkpt>
      <trkpt lat="49.87164" lon="2.04322">
        <ele>108.1</ele>
        <time>2023-05-31T12:01:51Z</time>
      </trkpt>
      <trkpt lat="49.87164" lon="2.04324">
        <ele>108.1</ele>
        <time>2023-05-31T12:01:52Z</time>
      </trkpt>
      <trkpt lat="49.87164" lon="2.04326">
        <ele>108</ele>
        <time>2023-05-31T12:01:53Z</time>
      </trkpt>
      <trkpt lat="49.87163" lon="2.0433">
        <ele>107.9</ele>
        <time>2023-05-31T12:01:54Z</time>
      </trkpt>
      <trkpt lat="49.87163" lon="2.04332">
        <ele>107.9</ele>
        <time>2023-05-31T12:01:55Z</time>
      </trkpt>
      <trkpt lat="49.87163" lon="2.04334">
        <ele>107.8</ele>
        <time>2023-05-31T12:01:56Z</time>
      </trkpt>
      <trkpt lat="49.87164" lon="2.04337">
        <ele>107.7</ele>
        <time>2023-05-31T12:01:57Z</time>
      </trkpt>
      <trkpt lat="49.87164" lon="2.04339">
        <ele>107.7</ele>
        <time>2023-05-31T12:01:58Z</time>
      </trkpt>
      <trkpt lat="49.87164" lon="2.04341">
        <ele>107.6</ele>
        <time>2023-05-31T12:02:00Z</time>
      </trkpt>
      <trkpt lat="49.87164" lon="2.04343">
        <ele>107.6</ele>
        <time>2023-05-31T12:02:01Z</time>
      </trkpt>
      <trkpt lat="49.87165" lon="2.04345">
        <ele>107.5</ele>
        <time>2023-05-31T12:02:02Z</time>
      </trkpt>
      <trkpt lat="49.87165" lon="2.04348">
        <ele>107.4</ele>
        <time>2023-05-31T12:02:04Z</time>
      </trkpt>
      <trkpt lat="49.87166" lon="2.04351">
        <ele>107.4</ele>
        <time>2023-05-31T12:02:05Z</time>
      </trkpt>
      <trkpt lat="49.87166" lon="2.04352">
        <ele>107.3</ele>
        <time>2023-05-31T12:02:06Z</time>
      </trkpt>
      <trkpt lat="49.87167" lon="2.04353">
        <ele>107.3</ele>
        <time>2023-05-31T12:02:07Z</time>
      </trkpt>
      <trkpt lat="49.87168" lon="2.04356">
        <ele>107.2</ele>
        <time>2023-05-31T12:02:09Z</time>
      </trkpt>
      <trkpt lat="49.87168" lon="2.04357">
        <ele>107.2</ele>
        <time>2023-05-31T12:02:10Z</time>
      </trkpt>
      <trkpt lat="49.87169" lon="2.04359">
        <ele>107.1</ele>
        <time>2023-05-31T12:02:11Z</time>
      </trkpt>
      <trkpt lat="49.87169" lon="2.0436">
        <ele>107.1</ele>
        <time>2023-05-31T12:02:13Z</time>
      </trkpt>
      <trkpt lat="49.8717" lon="2.04362">
        <ele>107</ele>
        <time>2023-05-31T12:02:14Z</time>
      </trkpt>
      <trkpt lat="49.8717" lon="2.04363">
        <ele>107</ele>
        <time>2023-05-31T12:02:15Z</time>
      </trkpt>
      <trkpt lat="49.87171" lon="2.04364">
        <ele>106.9</ele>
        <time>2023-05-31T12:02:16Z</time>
      </trkpt>
      <trkpt lat="49.87172" lon="2.04366">
        <ele>106.9</ele>
        <time>2023-05-31T12:02:17Z</time>
      </trkpt>
      <trkpt lat="49.87172" lon="2.04367">
        <ele>106.8</ele>
        <time>2023-05-31T12:02:18Z</time>
      </trkpt>
      <trkpt lat="49.87173" lon="2.04368">
        <ele>106.8</ele>
        <time>2023-05-31T12:02:19Z</time>
      </trkpt>
      <trkpt lat="49.87174" lon="2.04369">
        <ele>106.7</ele>
        <time>2023-05-31T12:02:20Z</time>
      </trkpt>
      <trkpt lat="49.87175" lon="2.04371">
        <ele>106.7</ele>
        <time>2023-05-31T12:02:22Z</time>
      </trkpt>
      <trkpt lat="49.87175" lon="2.04372">
        <ele>106.6</ele>
        <time>2023-05-31T12:02:23Z</time>
      </trkpt>
      <trkpt lat="49.87175" lon="2.04374">
        <ele>106.6</ele>
        <time>2023-05-31T12:02:24Z</time>
      </trkpt>
      <trkpt lat="49.87176" lon="2.04377">
        <ele>106.5</ele>
        <time>2023-05-31T12:02:25Z</time>
      </trkpt>
      <trkpt lat="49.87176" lon="2.04379">
        <ele>106.4</ele>
        <time>2023-05-31T12:02:27Z</time>
      </trkpt>
      <trkpt lat="49.87177" lon="2.0438">
        <ele>106.4</ele>
        <time>2023-05-31T12:02:28Z</time>
      </trkpt>
      <trkpt lat="49.87177" lon="2.04381">
        <ele>106.4</ele>
        <time>2023-05-31T12:02:29Z</time>
      </trkpt>
      <trkpt lat="49.87178" lon="2.04383">
        <ele>106.3</ele>
        <time>2023-05-31T12:02:30Z</time>
      </trkpt>
      <trkpt lat="49.87178" lon="2.04385">
        <ele>106.3</ele>
        <time>2023-05-31T12:02:31Z</time>
      </trkpt>
      <trkpt lat="49.87178" lon="2.04386">
        <ele>106.2</ele>
        <time>2023-05-31T12:02:32Z</time>
      </trkpt>
      <trkpt lat="49.87179" lon="2.04387">
        <ele>106.2</ele>
        <time>2023-05-31T12:02:33Z</time>
      </trkpt>
      <trkpt lat="49.8718" lon="2.04387">
        <ele>106.1</ele>
        <time>2023-05-31T12:02:34Z</time>
      </trkpt>
      <trkpt lat="49.87181" lon="2.04388">
        <ele>106.1</ele>
        <time>2023-05-31T12:02:35Z</time>
      </trkpt>
      <trkpt lat="49.87182" lon="2.04389">
        <ele>106</ele>
        <time>2023-05-31T12:02:37Z</time>
      </trkpt>
      <trkpt lat="49.87183" lon="2.04389">
        <ele>106</ele>
        <time>2023-05-31T12:02:38Z</time>
      </trkpt>
      <trkpt lat="49.87184" lon="2.0439">
        <ele>105.9</ele>
        <time>2023-05-31T12:02:39Z</time>
      </trkpt>
      <trkpt lat="49.87185" lon="2.04391">
        <ele>105.9</ele>
        <time>2023-05-31T12:02:40Z</time>
      </trkpt>
      <trkpt lat="49.87186" lon="2.04392">
        <ele>105.9</ele>
        <time>2023-05-31T12:02:42Z</time>
      </trkpt>
      <trkpt lat="49.87186" lon="2.04393">
        <ele>105.8</ele>
        <time>2023-05-31T12:02:43Z</time>
      </trkpt>
      <trkpt lat="49.87187" lon="2.04394">
        <ele>105.8</ele>
        <time>2023-05-31T12:02:44Z</time>
      </trkpt>
      <trkpt lat="49.87187" lon="2.04395">
        <ele>105.7</ele>
        <time>2023-05-31T12:02:45Z</time>
      </trkpt>
      <trkpt lat="49.87189" lon="2.04396">
        <ele>105.7</ele>
        <time>2023-05-31T12:02:46Z</time>
      </trkpt>
      <trkpt lat="49.87189" lon="2.04397">
        <ele>105.6</ele>
        <time>2023-05-31T12:02:48Z</time>
      </trkpt>
      <trkpt lat="49.8719" lon="2.04398">
        <ele>105.6</ele>
        <time>2023-05-31T12:02:49Z</time>
      </trkpt>
      <trkpt lat="49.87189" lon="2.04398">
        <ele>105.6</ele>
        <time>2023-05-31T12:02:50Z</time>
      </trkpt>
      <trkpt lat="49.87189" lon="2.04399">
        <ele>105.5</ele>
        <time>2023-05-31T12:02:51Z</time>
      </trkpt>
      <trkpt lat="49.87189" lon="2.04399">
        <ele>105.5</ele>
        <time>2023-05-31T12:02:52Z</time>
      </trkpt>
      <trkpt lat="49.87189" lon="2.04401">
        <ele>105.5</ele>
        <time>2023-05-31T12:02:54Z</time>
      </trkpt>
      <trkpt lat="49.87189" lon="2.04402">
        <ele>105.4</ele>
        <time>2023-05-31T12:02:56Z</time>
      </trkpt>
      <trkpt lat="49.87189" lon="2.04402">
        <ele>105.4</ele>
        <time>2023-05-31T12:02:57Z</time>
      </trkpt>
      <trkpt lat="49.87189" lon="2.04403">
        <ele>105.4</ele>
        <time>2023-05-31T12:02:58Z</time>
      </trkpt>
      <trkpt lat="49.87189" lon="2.04404">
        <ele>105.4</ele>
        <time>2023-05-31T12:02:59Z</time>
      </trkpt>
      <trkpt lat="49.87189" lon="2.04406">
        <ele>105.3</ele>
        <time>2023-05-31T12:03:00Z</time>
      </trkpt>
      <trkpt lat="49.8719" lon="2.04407">
        <ele>105.3</ele>
        <time>2023-05-31T12:03:01Z</time>
      </trkpt>
      <trkpt lat="49.8719" lon="2.04409">
        <ele>105.2</ele>
        <time>2023-05-31T12:03:02Z</time>
      </trkpt>
      <trkpt lat="49.8719" lon="2.04411">
        <ele>105.2</ele>
        <time>2023-05-31T12:03:03Z</time>
      </trkpt>
      <trkpt lat="49.8719" lon="2.04412">
        <ele>105.1</ele>
        <time>2023-05-31T12:03:04Z</time>
      </trkpt>
      <trkpt lat="49.8719" lon="2.04414">
        <ele>105.1</ele>
        <time>2023-05-31T12:03:05Z</time>
      </trkpt>
      <trkpt lat="49.8719" lon="2.04417">
        <ele>105</ele>
        <time>2023-05-31T12:03:07Z</time>
      </trkpt>
      <trkpt lat="49.8719" lon="2.04419">
        <ele>104.9</ele>
        <time>2023-05-31T12:03:08Z</time>
      </trkpt>
      <trkpt lat="49.87191" lon="2.04422">
        <ele>104.9</ele>
        <time>2023-05-31T12:03:09Z</time>
      </trkpt>
      <trkpt lat="49.87192" lon="2.04427">
        <ele>104.7</ele>
        <time>2023-05-31T12:03:10Z</time>
      </trkpt>
      <trkpt lat="49.87193" lon="2.04429">
        <ele>104.7</ele>
        <time>2023-05-31T12:03:11Z</time>
      </trkpt>
      <trkpt lat="49.87194" lon="2.04432">
        <ele>104.6</ele>
        <time>2023-05-31T12:03:12Z</time>
      </trkpt>
      <trkpt lat="49.87195" lon="2.04435">
        <ele>104.5</ele>
        <time>2023-05-31T12:03:13Z</time>
      </trkpt>
      <trkpt lat="49.87197" lon="2.0444">
        <ele>104.4</ele>
        <time>2023-05-31T12:03:15Z</time>
      </trkpt>
      <trkpt lat="49.87197" lon="2.04442">
        <ele>104.3</ele>
        <time>2023-05-31T12:03:16Z</time>
      </trkpt>
      <trkpt lat="49.87198" lon="2.04444">
        <ele>104.2</ele>
        <time>2023-05-31T12:03:17Z</time>
      </trkpt>
      <trkpt lat="49.87199" lon="2.04446">
        <ele>104.2</ele>
        <time>2023-05-31T12:03:18Z</time>
      </trkpt>
      <trkpt lat="49.872" lon="2.04448">
        <ele>104.1</ele>
        <time>2023-05-31T12:03:19Z</time>
      </trkpt>
      <trkpt lat="49.87202" lon="2.04451">
        <ele>104</ele>
        <time>2023-05-31T12:03:20Z</time>
      </trkpt>
      <trkpt lat="49.87202" lon="2.04452">
        <ele>104</ele>
        <time>2023-05-31T12:03:21Z</time>
      </trkpt>
      <trkpt lat="49.87203" lon="2.04453">
        <ele>104</ele>
        <time>2023-05-31T12:03:22Z</time>
      </trkpt>
      <trkpt lat="49.87203" lon="2.04454">
        <ele>104</ele>
        <time>2023-05-31T12:03:23Z</time>
      </trkpt>
      <trkpt lat="49.87204" lon="2.04455">
        <ele>103.9</ele>
        <time>2023-05-31T12:03:24Z</time>
      </trkpt>
      <trkpt lat="49.87204" lon="2.04457">
        <ele>103.9</ele>
        <time>2023-05-31T12:03:25Z</time>
      </trkpt>
      <trkpt lat="49.87205" lon="2.04458">
        <ele>103.9</ele>
        <time>2023-05-31T12:03:26Z</time>
      </trkpt>
      <trkpt lat="49.87205" lon="2.0446">
        <ele>103.8</ele>
        <time>2023-05-31T12:03:27Z</time>
      </trkpt>
      <trkpt lat="49.87206" lon="2.04461">
        <ele>103.8</ele>
        <time>2023-05-31T12:03:29Z</time>
      </trkpt>
      <trkpt lat="49.87208" lon="2.04463">
        <ele>103.7</ele>
        <time>2023-05-31T12:03:30Z</time>
      </trkpt>
      <trkpt lat="49.87209" lon="2.04464">
        <ele>103.7</ele>
        <time>2023-05-31T12:03:31Z</time>
      </trkpt>
      <trkpt lat="49.87209" lon="2.04465">
        <ele>103.7</ele>
        <time>2023-05-31T12:03:32Z</time>
      </trkpt>
      <trkpt lat="49.87211" lon="2.04466">
        <ele>103.6</ele>
        <time>2023-05-31T12:03:33Z</time>
      </trkpt>
      <trkpt lat="49.87212" lon="2.04466">
        <ele>103.6</ele>
        <time>2023-05-31T12:03:34Z</time>
      </trkpt>
      <trkpt lat="49.87213" lon="2.04466">
        <ele>103.6</ele>
        <time>2023-05-31T12:03:35Z</time>
      </trkpt>
      <trkpt lat="49.87215" lon="2.04466">
        <ele>103.5</ele>
        <time>2023-05-31T12:03:36Z</time>
      </trkpt>
      <trkpt lat="49.87216" lon="2.04466">
        <ele>103.5</ele>
        <time>2023-05-31T12:03:37Z</time>
      </trkpt>
      <trkpt lat="49.87217" lon="2.04466">
        <ele>103.5</ele>
        <time>2023-05-31T12:03:38Z</time>
      </trkpt>
      <trkpt lat="49.87218" lon="2.04466">
        <ele>103.5</ele>
        <time>2023-05-31T12:03:40Z</time>
      </trkpt>
      <trkpt lat="49.87219" lon="2.04466">
        <ele>103.4</ele>
        <time>2023-05-31T12:03:41Z</time>
      </trkpt>
      <trkpt lat="49.8722" lon="2.04467">
        <ele>103.4</ele>
        <time>2023-05-31T12:03:42Z</time>
      </trkpt>
      <trkpt lat="49.87221" lon="2.04467">
        <ele>103.4</ele>
        <time>2023-05-31T12:03:43Z</time>
      </trkpt>
      <trkpt lat="49.87223" lon="2.04467">
        <ele>103.4</ele>
        <time>2023-05-31T12:03:44Z</time>
      </trkpt>
      <trkpt lat="49.87224" lon="2.04468">
        <ele>103.3</ele>
        <time>2023-05-31T12:03:46Z</time>
      </trkpt>
      <trkpt lat="49.87225" lon="2.04468">
        <ele>103.3</ele>
        <time>2023-05-31T12:03:47Z</time>
      </trkpt>
      <trkpt lat="49.87226" lon="2.04469">
        <ele>103.2</ele>
        <time>2023-05-31T12:03:48Z</time>
      </trkpt>
      <trkpt lat="49.87227" lon="2.04469">
        <ele>103.3</ele>
        <time>2023-05-31T12:03:49Z</time>
      </trkpt>
      <trkpt lat="49.87228" lon="2.0447">
        <ele>103.3</ele>
        <time>2023-05-31T12:03:50Z</time>
      </trkpt>
      <trkpt lat="49.87229" lon="2.0447">
        <ele>103.3</ele>
        <time>2023-05-31T12:03:51Z</time>
      </trkpt>
      <trkpt lat="49.87231" lon="2.0447">
        <ele>103.4</ele>
        <time>2023-05-31T12:03:52Z</time>
      </trkpt>
      <trkpt lat="49.87232" lon="2.04471">
        <ele>103.4</ele>
        <time>2023-05-31T12:03:53Z</time>
      </trkpt>
      <trkpt lat="49.87233" lon="2.04471">
        <ele>103.5</ele>
        <time>2023-05-31T12:03:55Z</time>
      </trkpt>
      <trkpt lat="49.87234" lon="2.04471">
        <ele>103.5</ele>
        <time>2023-05-31T12:03:56Z</time>
      </trkpt>
      <trkpt lat="49.87235" lon="2.0447">
        <ele>103.6</ele>
        <time>2023-05-31T12:03:57Z</time>
      </trkpt>
      <trkpt lat="49.87237" lon="2.0447">
        <ele>103.6</ele>
        <time>2023-05-31T12:03:58Z</time>
      </trkpt>
      <trkpt lat="49.87238" lon="2.04469">
        <ele>103.7</ele>
        <time>2023-05-31T12:03:59Z</time>
      </trkpt>
      <trkpt lat="49.8724" lon="2.04469">
        <ele>103.7</ele>
        <time>2023-05-31T12:04:00Z</time>
      </trkpt>
      <trkpt lat="49.87241" lon="2.04468">
        <ele>103.8</ele>
        <time>2023-05-31T12:04:01Z</time>
      </trkpt>
      <trkpt lat="49.87243" lon="2.04468">
        <ele>103.8</ele>
        <time>2023-05-31T12:04:02Z</time>
      </trkpt>
      <trkpt lat="49.87244" lon="2.04467">
        <ele>103.9</ele>
        <time>2023-05-31T12:04:03Z</time>
      </trkpt>
      <trkpt lat="49.87246" lon="2.04466">
        <ele>104</ele>
        <time>2023-05-31T12:04:05Z</time>
      </trkpt>
      <trkpt lat="49.87248" lon="2.04465">
        <ele>104</ele>
        <time>2023-05-31T12:04:06Z</time>
      </trkpt>
      <trkpt lat="49.87249" lon="2.04464">
        <ele>104.1</ele>
        <time>2023-05-31T12:04:07Z</time>
      </trkpt>
      <trkpt lat="49.8725" lon="2.04463">
        <ele>104.1</ele>
        <time>2023-05-31T12:04:09Z</time>
      </trkpt>
      <trkpt lat="49.87253" lon="2.04461">
        <ele>104.2</ele>
        <time>2023-05-31T12:04:10Z</time>
      </trkpt>
      <trkpt lat="49.87254" lon="2.04461">
        <ele>104.2</ele>
        <time>2023-05-31T12:04:11Z</time>
      </trkpt>
      <trkpt lat="49.87255" lon="2.0446">
        <ele>104.3</ele>
        <time>2023-05-31T12:04:13Z</time>
      </trkpt>
      <trkpt lat="49.87257" lon="2.04459">
        <ele>104.3</ele>
        <time>2023-05-31T12:04:14Z</time>
      </trkpt>
      <trkpt lat="49.87258" lon="2.04458">
        <ele>104.4</ele>
        <time>2023-05-31T12:04:15Z</time>
      </trkpt>
      <trkpt lat="49.8726" lon="2.04458">
        <ele>104.4</ele>
        <time>2023-05-31T12:04:16Z</time>
      </trkpt>
      <trkpt lat="49.87261" lon="2.04457">
        <ele>104.5</ele>
        <time>2023-05-31T12:04:17Z</time>
      </trkpt>
      <trkpt lat="49.87262" lon="2.04456">
        <ele>104.5</ele>
        <time>2023-05-31T12:04:18Z</time>
      </trkpt>
      <trkpt lat="49.87263" lon="2.04455">
        <ele>104.6</ele>
        <time>2023-05-31T12:04:19Z</time>
      </trkpt>
      <trkpt lat="49.87264" lon="2.04455">
        <ele>104.6</ele>
        <time>2023-05-31T12:04:21Z</time>
      </trkpt>
      <trkpt lat="49.87266" lon="2.04455">
        <ele>104.6</ele>
        <time>2023-05-31T12:04:22Z</time>
      </trkpt>
      <trkpt lat="49.87267" lon="2.04455">
        <ele>104.7</ele>
        <time>2023-05-31T12:04:23Z</time>
      </trkpt>
      <trkpt lat="49.87268" lon="2.04455">
        <ele>104.7</ele>
        <time>2023-05-31T12:04:24Z</time>
      </trkpt>
      <trkpt lat="49.87269" lon="2.04456">
        <ele>104.7</ele>
        <time>2023-05-31T12:04:25Z</time>
      </trkpt>
      <trkpt lat="49.8727" lon="2.04456">
        <ele>104.8</ele>
        <time>2023-05-31T12:04:26Z</time>
      </trkpt>
      <trkpt lat="49.87271" lon="2.04457">
        <ele>104.8</ele>
        <time>2023-05-31T12:04:27Z</time>
      </trkpt>
      <trkpt lat="49.87272" lon="2.04457">
        <ele>104.8</ele>
        <time>2023-05-31T12:04:29Z</time>
      </trkpt>
      <trkpt lat="49.87273" lon="2.04458">
        <ele>104.9</ele>
        <time>2023-05-31T12:04:30Z</time>
      </trkpt>
      <trkpt lat="49.87274" lon="2.04458">
        <ele>104.9</ele>
        <time>2023-05-31T12:04:31Z</time>
      </trkpt>
      <trkpt lat="49.87276" lon="2.04459">
        <ele>105</ele>
        <time>2023-05-31T12:04:32Z</time>
      </trkpt>
      <trkpt lat="49.87277" lon="2.04459">
        <ele>105</ele>
        <time>2023-05-31T12:04:33Z</time>
      </trkpt>
      <trkpt lat="49.87278" lon="2.04459">
        <ele>105</ele>
        <time>2023-05-31T12:04:34Z</time>
      </trkpt>
      <trkpt lat="49.8728" lon="2.04459">
        <ele>105.1</ele>
        <time>2023-05-31T12:04:35Z</time>
      </trkpt>
      <trkpt lat="49.87281" lon="2.04459">
        <ele>105.1</ele>
        <time>2023-05-31T12:04:37Z</time>
      </trkpt>
      <trkpt lat="49.87282" lon="2.04459">
        <ele>105.2</ele>
        <time>2023-05-31T12:04:38Z</time>
      </trkpt>
      <trkpt lat="49.87283" lon="2.04459">
        <ele>105.2</ele>
        <time>2023-05-31T12:04:39Z</time>
      </trkpt>
      <trkpt lat="49.87284" lon="2.04458">
        <ele>105.2</ele>
        <time>2023-05-31T12:04:40Z</time>
      </trkpt>
      <trkpt lat="49.87286" lon="2.04458">
        <ele>105.3</ele>
        <time>2023-05-31T12:04:41Z</time>
      </trkpt>
      <trkpt lat="49.87287" lon="2.04457">
        <ele>105.3</ele>
        <time>2023-05-31T12:04:42Z</time>
      </trkpt>
      <trkpt lat="49.87288" lon="2.04457">
        <ele>105.4</ele>
        <time>2023-05-31T12:04:43Z</time>
      </trkpt>
      <trkpt lat="49.87289" lon="2.04457">
        <ele>105.4</ele>
        <time>2023-05-31T12:04:45Z</time>
      </trkpt>
      <trkpt lat="49.8729" lon="2.04459">
        <ele>105.5</ele>
        <time>2023-05-31T12:04:47Z</time>
      </trkpt>
      <trkpt lat="49.87291" lon="2.04459">
        <ele>105.5</ele>
        <time>2023-05-31T12:04:48Z</time>
      </trkpt>
      <trkpt lat="49.87291" lon="2.0446">
        <ele>105.5</ele>
        <time>2023-05-31T12:04:49Z</time>
      </trkpt>
      <trkpt lat="49.87291" lon="2.0446">
        <ele>105.5</ele>
        <time>2023-05-31T12:04:50Z</time>
      </trkpt>
      <trkpt lat="49.87292" lon="2.0446">
        <ele>105.5</ele>
        <time>2023-05-31T12:04:51Z</time>
      </trkpt>
      <trkpt lat="49.87292" lon="2.0446">
        <ele>105.5</ele>
        <time>2023-05-31T12:04:52Z</time>
      </trkpt>
      <trkpt lat="49.87293" lon="2.04461">
        <ele>105.6</ele>
        <time>2023-05-31T12:04:53Z</time>
      </trkpt>
      <trkpt lat="49.87294" lon="2.04461">
        <ele>105.6</ele>
        <time>2023-05-31T12:04:54Z</time>
      </trkpt>
      <trkpt lat="49.87295" lon="2.04461">
        <ele>105.6</ele>
        <time>2023-05-31T12:04:55Z</time>
      </trkpt>
      <trkpt lat="49.87296" lon="2.0446">
        <ele>105.7</ele>
        <time>2023-05-31T12:04:56Z</time>
      </trkpt>
      <trkpt lat="49.87298" lon="2.0446">
        <ele>105.7</ele>
        <time>2023-05-31T12:04:58Z</time>
      </trkpt>
      <trkpt lat="49.87299" lon="2.04458">
        <ele>105.8</ele>
        <time>2023-05-31T12:04:59Z</time>
      </trkpt>
      <trkpt lat="49.87301" lon="2.04457">
        <ele>105.8</ele>
        <time>2023-05-31T12:05:00Z</time>
      </trkpt>
      <trkpt lat="49.87302" lon="2.04456">
        <ele>105.9</ele>
        <time>2023-05-31T12:05:01Z</time>
      </trkpt>
      <trkpt lat="49.87304" lon="2.04455">
        <ele>106</ele>
        <time>2023-05-31T12:05:02Z</time>
      </trkpt>
      <trkpt lat="49.87305" lon="2.04455">
        <ele>106.2</ele>
        <time>2023-05-31T12:05:03Z</time>
      </trkpt>
      <trkpt lat="49.87307" lon="2.04455">
        <ele>106.2</ele>
        <time>2023-05-31T12:05:04Z</time>
      </trkpt>
      <trkpt lat="49.87308" lon="2.04454">
        <ele>106.2</ele>
        <time>2023-05-31T12:05:05Z</time>
      </trkpt>
      <trkpt lat="49.8731" lon="2.04454">
        <ele>106.2</ele>
        <time>2023-05-31T12:05:06Z</time>
      </trkpt>
      <trkpt lat="49.87311" lon="2.04455">
        <ele>106.3</ele>
        <time>2023-05-31T12:05:07Z</time>
      </trkpt>
      <trkpt lat="49.87313" lon="2.04455">
        <ele>106.3</ele>
        <time>2023-05-31T12:05:08Z</time>
      </trkpt>
      <trkpt lat="49.87314" lon="2.04456">
        <ele>106.3</ele>
        <time>2023-05-31T12:05:10Z</time>
      </trkpt>
      <trkpt lat="49.87315" lon="2.04456">
        <ele>106.3</ele>
        <time>2023-05-31T12:05:11Z</time>
      </trkpt>
      <trkpt lat="49.87317" lon="2.04456">
        <ele>106.3</ele>
        <time>2023-05-31T12:05:12Z</time>
      </trkpt>
      <trkpt lat="49.87318" lon="2.04457">
        <ele>106.3</ele>
        <time>2023-05-31T12:05:13Z</time>
      </trkpt>
      <trkpt lat="49.87319" lon="2.04457">
        <ele>106.3</ele>
        <time>2023-05-31T12:05:14Z</time>
      </trkpt>
      <trkpt lat="49.8732" lon="2.04457">
        <ele>106.3</ele>
        <time>2023-05-31T12:05:15Z</time>
      </trkpt>
      <trkpt lat="49.87322" lon="2.04458">
        <ele>106.3</ele>
        <time>2023-05-31T12:05:16Z</time>
      </trkpt>
      <trkpt lat="49.87323" lon="2.04458">
        <ele>106.4</ele>
        <time>2023-05-31T12:05:17Z</time>
      </trkpt>
      <trkpt lat="49.87324" lon="2.04458">
        <ele>106.4</ele>
        <time>2023-05-31T12:05:19Z</time>
      </trkpt>
      <trkpt lat="49.87325" lon="2.04459">
        <ele>106.4</ele>
        <time>2023-05-31T12:05:20Z</time>
      </trkpt>
      <trkpt lat="49.87326" lon="2.04459">
        <ele>106.4</ele>
        <time>2023-05-31T12:05:21Z</time>
      </trkpt>
      <trkpt lat="49.87327" lon="2.04459">
        <ele>106.4</ele>
        <time>2023-05-31T12:05:22Z</time>
      </trkpt>
      <trkpt lat="49.87328" lon="2.0446">
        <ele>106.4</ele>
        <time>2023-05-31T12:05:23Z</time>
      </trkpt>
      <trkpt lat="49.87329" lon="2.0446">
        <ele>106.4</ele>
        <time>2023-05-31T12:05:24Z</time>
      </trkpt>
      <trkpt lat="49.8733" lon="2.0446">
        <ele>106.4</ele>
        <time>2023-05-31T12:05:25Z</time>
      </trkpt>
      <trkpt lat="49.87331" lon="2.0446">
        <ele>106.4</ele>
        <time>2023-05-31T12:05:26Z</time>
      </trkpt>
      <trkpt lat="49.87332" lon="2.04461">
        <ele>106.4</ele>
        <time>2023-05-31T12:05:27Z</time>
      </trkpt>
      <trkpt lat="49.87333" lon="2.04461">
        <ele>106.4</ele>
        <time>2023-05-31T12:05:29Z</time>
      </trkpt>
      <trkpt lat="49.87334" lon="2.04462">
        <ele>106.5</ele>
        <time>2023-05-31T12:05:30Z</time>
      </trkpt>
      <trkpt lat="49.87335" lon="2.04462">
        <ele>106.5</ele>
        <time>2023-05-31T12:05:31Z</time>
      </trkpt>
      <trkpt lat="49.87336" lon="2.04462">
        <ele>106.5</ele>
        <time>2023-05-31T12:05:32Z</time>
      </trkpt>
      <trkpt lat="49.87337" lon="2.04463">
        <ele>106.5</ele>
        <time>2023-05-31T12:05:33Z</time>
      </trkpt>
      <trkpt lat="49.87338" lon="2.04463">
        <ele>106.5</ele>
        <time>2023-05-31T12:05:34Z</time>
      </trkpt>
      <trkpt lat="49.87338" lon="2.04463">
        <ele>106.5</ele>
        <time>2023-05-31T12:05:36Z</time>
      </trkpt>
      <trkpt lat="49.87339" lon="2.04464">
        <ele>106.5</ele>
        <time>2023-05-31T12:05:37Z</time>
      </trkpt>
      <trkpt lat="49.8734" lon="2.04464">
        <ele>106.5</ele>
        <time>2023-05-31T12:05:38Z</time>
      </trkpt>
      <trkpt lat="49.8734" lon="2.04465">
        <ele>106.5</ele>
        <time>2023-05-31T12:05:39Z</time>
      </trkpt>
      <trkpt lat="49.87341" lon="2.04466">
        <ele>106.5</ele>
        <time>2023-05-31T12:05:40Z</time>
      </trkpt>
      <trkpt lat="49.87343" lon="2.04467">
        <ele>106.5</ele>
        <time>2023-05-31T12:05:41Z</time>
      </trkpt>
      <trkpt lat="49.87344" lon="2.04468">
        <ele>106.5</ele>
        <time>2023-05-31T12:05:42Z</time>
      </trkpt>
      <trkpt lat="49.87345" lon="2.04469">
        <ele>106.5</ele>
        <time>2023-05-31T12:05:43Z</time>
      </trkpt>
      <trkpt lat="49.87346" lon="2.0447">
        <ele>106.6</ele>
        <time>2023-05-31T12:05:44Z</time>
      </trkpt>
      <trkpt lat="49.87347" lon="2.04471">
        <ele>106.6</ele>
        <time>2023-05-31T12:05:45Z</time>
      </trkpt>
      <trkpt lat="49.87348" lon="2.04472">
        <ele>106.6</ele>
        <time>2023-05-31T12:05:46Z</time>
      </trkpt>
      <trkpt lat="49.8735" lon="2.04473">
        <ele>106.6</ele>
        <time>2023-05-31T12:05:48Z</time>
      </trkpt>
      <trkpt lat="49.87351" lon="2.04475">
        <ele>106.6</ele>
        <time>2023-05-31T12:05:49Z</time>
      </trkpt>
      <trkpt lat="49.87352" lon="2.04476">
        <ele>106.6</ele>
        <time>2023-05-31T12:05:50Z</time>
      </trkpt>
      <trkpt lat="49.87354" lon="2.04477">
        <ele>106.6</ele>
        <time>2023-05-31T12:05:51Z</time>
      </trkpt>
      <trkpt lat="49.87355" lon="2.04478">
        <ele>106.6</ele>
        <time>2023-05-31T12:05:52Z</time>
      </trkpt>
      <trkpt lat="49.87356" lon="2.04479">
        <ele>106.7</ele>
        <time>2023-05-31T12:05:53Z</time>
      </trkpt>
      <trkpt lat="49.87357" lon="2.0448">
        <ele>106.7</ele>
        <time>2023-05-31T12:05:54Z</time>
      </trkpt>
      <trkpt lat="49.87359" lon="2.04481">
        <ele>106.7</ele>
        <time>2023-05-31T12:05:56Z</time>
      </trkpt>
      <trkpt lat="49.8736" lon="2.04482">
        <ele>106.7</ele>
        <time>2023-05-31T12:05:57Z</time>
      </trkpt>
      <trkpt lat="49.87362" lon="2.04483">
        <ele>106.7</ele>
        <time>2023-05-31T12:05:58Z</time>
      </trkpt>
      <trkpt lat="49.87363" lon="2.04484">
        <ele>106.7</ele>
        <time>2023-05-31T12:05:59Z</time>
      </trkpt>
      <trkpt lat="49.87364" lon="2.04485">
        <ele>106.7</ele>
        <time>2023-05-31T12:06:00Z</time>
      </trkpt>
      <trkpt lat="49.87366" lon="2.04485">
        <ele>106.7</ele>
        <time>2023-05-31T12:06:01Z</time>
      </trkpt>
      <trkpt lat="49.87367" lon="2.04486">
        <ele>106.7</ele>
        <time>2023-05-31T12:06:03Z</time>
      </trkpt>
      <trkpt lat="49.87368" lon="2.04487">
        <ele>106.7</ele>
        <time>2023-05-31T12:06:04Z</time>
      </trkpt>
      <trkpt lat="49.87371" lon="2.04488">
        <ele>106.7</ele>
        <time>2023-05-31T12:06:05Z</time>
      </trkpt>
      <trkpt lat="49.87371" lon="2.04488">
        <ele>106.7</ele>
        <time>2023-05-31T12:06:06Z</time>
      </trkpt>
      <trkpt lat="49.87372" lon="2.04489">
        <ele>106.8</ele>
        <time>2023-05-31T12:06:07Z</time>
      </trkpt>
      <trkpt lat="49.87374" lon="2.04489">
        <ele>106.8</ele>
        <time>2023-05-31T12:06:08Z</time>
      </trkpt>
      <trkpt lat="49.87375" lon="2.0449">
        <ele>106.8</ele>
        <time>2023-05-31T12:06:09Z</time>
      </trkpt>
      <trkpt lat="49.87376" lon="2.04491">
        <ele>106.8</ele>
        <time>2023-05-31T12:06:10Z</time>
      </trkpt>
      <trkpt lat="49.87378" lon="2.04492">
        <ele>106.8</ele>
        <time>2023-05-31T12:06:11Z</time>
      </trkpt>
      <trkpt lat="49.87379" lon="2.04493">
        <ele>106.8</ele>
        <time>2023-05-31T12:06:12Z</time>
      </trkpt>
      <trkpt lat="49.87381" lon="2.04493">
        <ele>106.7</ele>
        <time>2023-05-31T12:06:13Z</time>
      </trkpt>
      <trkpt lat="49.87382" lon="2.04493">
        <ele>106.7</ele>
        <time>2023-05-31T12:06:15Z</time>
      </trkpt>
      <trkpt lat="49.87383" lon="2.04492">
        <ele>106.6</ele>
        <time>2023-05-31T12:06:16Z</time>
      </trkpt>
      <trkpt lat="49.87385" lon="2.04492">
        <ele>106.6</ele>
        <time>2023-05-31T12:06:17Z</time>
      </trkpt>
      <trkpt lat="49.87386" lon="2.04492">
        <ele>106.5</ele>
        <time>2023-05-31T12:06:18Z</time>
      </trkpt>
      <trkpt lat="49.87387" lon="2.04491">
        <ele>106.5</ele>
        <time>2023-05-31T12:06:19Z</time>
      </trkpt>
      <trkpt lat="49.87389" lon="2.0449">
        <ele>106.4</ele>
        <time>2023-05-31T12:06:20Z</time>
      </trkpt>
      <trkpt lat="49.8739" lon="2.04489">
        <ele>106.4</ele>
        <time>2023-05-31T12:06:21Z</time>
      </trkpt>
      <trkpt lat="49.87391" lon="2.04488">
        <ele>106.3</ele>
        <time>2023-05-31T12:06:22Z</time>
      </trkpt>
      <trkpt lat="49.87393" lon="2.04486">
        <ele>106.2</ele>
        <time>2023-05-31T12:06:23Z</time>
      </trkpt>
      <trkpt lat="49.87394" lon="2.04485">
        <ele>106.2</ele>
        <time>2023-05-31T12:06:25Z</time>
      </trkpt>
      <trkpt lat="49.87395" lon="2.04485">
        <ele>106.1</ele>
        <time>2023-05-31T12:06:26Z</time>
      </trkpt>
      <trkpt lat="49.87396" lon="2.04484">
        <ele>106.1</ele>
        <time>2023-05-31T12:06:27Z</time>
      </trkpt>
      <trkpt lat="49.87397" lon="2.04483">
        <ele>106</ele>
        <time>2023-05-31T12:06:28Z</time>
      </trkpt>
      <trkpt lat="49.87399" lon="2.04482">
        <ele>106</ele>
        <time>2023-05-31T12:06:30Z</time>
      </trkpt>
      <trkpt lat="49.874" lon="2.04481">
        <ele>105.9</ele>
        <time>2023-05-31T12:06:31Z</time>
      </trkpt>
      <trkpt lat="49.87401" lon="2.0448">
        <ele>105.9</ele>
        <time>2023-05-31T12:06:32Z</time>
      </trkpt>
      <trkpt lat="49.87402" lon="2.04479">
        <ele>105.8</ele>
        <time>2023-05-31T12:06:33Z</time>
      </trkpt>
      <trkpt lat="49.87403" lon="2.04478">
        <ele>105.8</ele>
        <time>2023-05-31T12:06:34Z</time>
      </trkpt>
      <trkpt lat="49.87404" lon="2.04477">
        <ele>105.7</ele>
        <time>2023-05-31T12:06:35Z</time>
      </trkpt>
      <trkpt lat="49.87405" lon="2.04476">
        <ele>105.7</ele>
        <time>2023-05-31T12:06:36Z</time>
      </trkpt>
      <trkpt lat="49.87406" lon="2.04475">
        <ele>105.7</ele>
        <time>2023-05-31T12:06:37Z</time>
      </trkpt>
      <trkpt lat="49.87407" lon="2.04474">
        <ele>105.6</ele>
        <time>2023-05-31T12:06:38Z</time>
      </trkpt>
      <trkpt lat="49.87408" lon="2.04473">
        <ele>105.6</ele>
        <time>2023-05-31T12:06:40Z</time>
      </trkpt>
      <trkpt lat="49.87408" lon="2.04472">
        <ele>105.5</ele>
        <time>2023-05-31T12:06:41Z</time>
      </trkpt>
      <trkpt lat="49.8741" lon="2.0447">
        <ele>105.5</ele>
        <time>2023-05-31T12:06:42Z</time>
      </trkpt>
      <trkpt lat="49.87411" lon="2.04469">
        <ele>105.4</ele>
        <time>2023-05-31T12:06:43Z</time>
      </trkpt>
      <trkpt lat="49.87411" lon="2.04468">
        <ele>105.4</ele>
        <time>2023-05-31T12:06:44Z</time>
      </trkpt>
      <trkpt lat="49.87412" lon="2.04467">
        <ele>105.3</ele>
        <time>2023-05-31T12:06:46Z</time>
      </trkpt>
      <trkpt lat="49.87413" lon="2.04466">
        <ele>105.3</ele>
        <time>2023-05-31T12:06:47Z</time>
      </trkpt>
      <trkpt lat="49.87414" lon="2.04465">
        <ele>105.3</ele>
        <time>2023-05-31T12:06:48Z</time>
      </trkpt>
      <trkpt lat="49.87415" lon="2.04464">
        <ele>105.2</ele>
        <time>2023-05-31T12:06:49Z</time>
      </trkpt>
      <trkpt lat="49.87416" lon="2.04463">
        <ele>105.2</ele>
        <time>2023-05-31T12:06:50Z</time>
      </trkpt>
      <trkpt lat="49.87417" lon="2.04462">
        <ele>105.1</ele>
        <time>2023-05-31T12:06:51Z</time>
      </trkpt>
      <trkpt lat="49.87418" lon="2.04462">
        <ele>105.1</ele>
        <time>2023-05-31T12:06:52Z</time>
      </trkpt>
      <trkpt lat="49.87419" lon="2.04461">
        <ele>105</ele>
        <time>2023-05-31T12:06:53Z</time>
      </trkpt>
      <trkpt lat="49.8742" lon="2.0446">
        <ele>105</ele>
        <time>2023-05-31T12:06:55Z</time>
      </trkpt>
      <trkpt lat="49.87422" lon="2.04458">
        <ele>104.9</ele>
        <time>2023-05-31T12:06:56Z</time>
      </trkpt>
      <trkpt lat="49.87423" lon="2.04457">
        <ele>104.9</ele>
        <time>2023-05-31T12:06:58Z</time>
      </trkpt>
      <trkpt lat="49.87424" lon="2.04457">
        <ele>104.8</ele>
        <time>2023-05-31T12:06:59Z</time>
      </trkpt>
      <trkpt lat="49.87425" lon="2.04456">
        <ele>104.8</ele>
        <time>2023-05-31T12:07:00Z</time>
      </trkpt>
      <trkpt lat="49.87426" lon="2.04455">
        <ele>104.7</ele>
        <time>2023-05-31T12:07:01Z</time>
      </trkpt>
      <trkpt lat="49.87427" lon="2.04454">
        <ele>104.7</ele>
        <time>2023-05-31T12:07:02Z</time>
      </trkpt>
      <trkpt lat="49.87429" lon="2.04453">
        <ele>104.6</ele>
        <time>2023-05-31T12:07:03Z</time>
      </trkpt>
      <trkpt lat="49.8743" lon="2.04452">
        <ele>104.6</ele>
        <time>2023-05-31T12:07:04Z</time>
      </trkpt>
      <trkpt lat="49.87431" lon="2.04451">
        <ele>104.5</ele>
        <time>2023-05-31T12:07:05Z</time>
      </trkpt>
      <trkpt lat="49.87433" lon="2.04449">
        <ele>104.4</ele>
        <time>2023-05-31T12:07:06Z</time>
      </trkpt>
      <trkpt lat="49.87434" lon="2.04449">
        <ele>104.4</ele>
        <time>2023-05-31T12:07:07Z</time>
      </trkpt>
      <trkpt lat="49.87435" lon="2.04448">
        <ele>104.4</ele>
        <time>2023-05-31T12:07:08Z</time>
      </trkpt>
      <trkpt lat="49.87437" lon="2.04447">
        <ele>104.3</ele>
        <time>2023-05-31T12:07:10Z</time>
      </trkpt>
      <trkpt lat="49.87437" lon="2.04447">
        <ele>104.3</ele>
        <time>2023-05-31T12:07:11Z</time>
      </trkpt>
      <trkpt lat="49.87438" lon="2.04446">
        <ele>104.2</ele>
        <time>2023-05-31T12:07:12Z</time>
      </trkpt>
      <trkpt lat="49.8744" lon="2.04445">
        <ele>104.2</ele>
        <time>2023-05-31T12:07:13Z</time>
      </trkpt>
      <trkpt lat="49.87441" lon="2.04445">
        <ele>104.1</ele>
        <time>2023-05-31T12:07:14Z</time>
      </trkpt>
      <trkpt lat="49.87442" lon="2.04444">
        <ele>104</ele>
        <time>2023-05-31T12:07:16Z</time>
      </trkpt>
      <trkpt lat="49.87444" lon="2.04442">
        <ele>104</ele>
        <time>2023-05-31T12:07:17Z</time>
      </trkpt>
      <trkpt lat="49.87445" lon="2.04441">
        <ele>103.9</ele>
        <time>2023-05-31T12:07:18Z</time>
      </trkpt>
      <trkpt lat="49.87447" lon="2.0444">
        <ele>103.9</ele>
        <time>2023-05-31T12:07:19Z</time>
      </trkpt>
      <trkpt lat="49.87448" lon="2.0444">
        <ele>103.8</ele>
        <time>2023-05-31T12:07:20Z</time>
      </trkpt>
      <trkpt lat="49.87449" lon="2.04439">
        <ele>103.8</ele>
        <time>2023-05-31T12:07:21Z</time>
      </trkpt>
      <trkpt lat="49.87451" lon="2.04438">
        <ele>103.7</ele>
        <time>2023-05-31T12:07:23Z</time>
      </trkpt>
      <trkpt lat="49.87452" lon="2.04437">
        <ele>103.6</ele>
        <time>2023-05-31T12:07:24Z</time>
      </trkpt>
      <trkpt lat="49.87454" lon="2.04437">
        <ele>103.6</ele>
        <time>2023-05-31T12:07:25Z</time>
      </trkpt>
      <trkpt lat="49.87455" lon="2.04436">
        <ele>103.5</ele>
        <time>2023-05-31T12:07:27Z</time>
      </trkpt>
      <trkpt lat="49.87457" lon="2.04435">
        <ele>103.4</ele>
        <time>2023-05-31T12:07:28Z</time>
      </trkpt>
      <trkpt lat="49.87459" lon="2.04435">
        <ele>103.4</ele>
        <time>2023-05-31T12:07:29Z</time>
      </trkpt>
      <trkpt lat="49.8746" lon="2.04434">
        <ele>103.3</ele>
        <time>2023-05-31T12:07:30Z</time>
      </trkpt>
      <trkpt lat="49.87461" lon="2.04433">
        <ele>103.3</ele>
        <time>2023-05-31T12:07:31Z</time>
      </trkpt>
      <trkpt lat="49.87463" lon="2.04433">
        <ele>103.2</ele>
        <time>2023-05-31T12:07:32Z</time>
      </trkpt>
      <trkpt lat="49.87464" lon="2.04432">
        <ele>103.2</ele>
        <time>2023-05-31T12:07:33Z</time>
      </trkpt>
      <trkpt lat="49.87466" lon="2.04431">
        <ele>103.1</ele>
        <time>2023-05-31T12:07:35Z</time>
      </trkpt>
      <trkpt lat="49.87467" lon="2.0443">
        <ele>103.1</ele>
        <time>2023-05-31T12:07:36Z</time>
      </trkpt>
      <trkpt lat="49.87468" lon="2.04429">
        <ele>103</ele>
        <time>2023-05-31T12:07:37Z</time>
      </trkpt>
      <trkpt lat="49.8747" lon="2.04428">
        <ele>102.9</ele>
        <time>2023-05-31T12:07:38Z</time>
      </trkpt>
      <trkpt lat="49.87472" lon="2.04427">
        <ele>102.9</ele>
        <time>2023-05-31T12:07:39Z</time>
      </trkpt>
      <trkpt lat="49.87473" lon="2.04426">
        <ele>102.8</ele>
        <time>2023-05-31T12:07:40Z</time>
      </trkpt>
      <trkpt lat="49.87476" lon="2.04424">
        <ele>102.7</ele>
        <time>2023-05-31T12:07:42Z</time>
      </trkpt>
      <trkpt lat="49.87477" lon="2.04424">
        <ele>102.6</ele>
        <time>2023-05-31T12:07:43Z</time>
      </trkpt>
      <trkpt lat="49.87479" lon="2.04422">
        <ele>102.6</ele>
        <time>2023-05-31T12:07:44Z</time>
      </trkpt>
      <trkpt lat="49.8748" lon="2.04421">
        <ele>102.5</ele>
        <time>2023-05-31T12:07:45Z</time>
      </trkpt>
      <trkpt lat="49.87482" lon="2.0442">
        <ele>102.4</ele>
        <time>2023-05-31T12:07:46Z</time>
      </trkpt>
      <trkpt lat="49.87483" lon="2.04419">
        <ele>102.4</ele>
        <time>2023-05-31T12:07:47Z</time>
      </trkpt>
      <trkpt lat="49.87484" lon="2.04418">
        <ele>102.3</ele>
        <time>2023-05-31T12:07:49Z</time>
      </trkpt>
      <trkpt lat="49.87486" lon="2.04417">
        <ele>102.3</ele>
        <time>2023-05-31T12:07:50Z</time>
      </trkpt>
      <trkpt lat="49.87487" lon="2.04416">
        <ele>102.2</ele>
        <time>2023-05-31T12:07:51Z</time>
      </trkpt>
      <trkpt lat="49.87488" lon="2.04415">
        <ele>102.1</ele>
        <time>2023-05-31T12:07:52Z</time>
      </trkpt>
      <trkpt lat="49.8749" lon="2.04415">
        <ele>102.1</ele>
        <time>2023-05-31T12:07:53Z</time>
      </trkpt>
      <trkpt lat="49.87491" lon="2.04414">
        <ele>102</ele>
        <time>2023-05-31T12:07:54Z</time>
      </trkpt>
      <trkpt lat="49.87492" lon="2.04413">
        <ele>102</ele>
        <time>2023-05-31T12:07:55Z</time>
      </trkpt>
      <trkpt lat="49.87494" lon="2.04412">
        <ele>101.9</ele>
        <time>2023-05-31T12:07:56Z</time>
      </trkpt>
      <trkpt lat="49.87496" lon="2.04411">
        <ele>101.9</ele>
        <time>2023-05-31T12:07:57Z</time>
      </trkpt>
      <trkpt lat="49.87496" lon="2.0441">
        <ele>101.8</ele>
        <time>2023-05-31T12:07:58Z</time>
      </trkpt>
      <trkpt lat="49.87497" lon="2.0441">
        <ele>101.8</ele>
        <time>2023-05-31T12:07:59Z</time>
      </trkpt>
      <trkpt lat="49.87498" lon="2.04409">
        <ele>101.7</ele>
        <time>2023-05-31T12:08:00Z</time>
      </trkpt>
      <trkpt lat="49.87499" lon="2.04408">
        <ele>101.7</ele>
        <time>2023-05-31T12:08:01Z</time>
      </trkpt>
      <trkpt lat="49.875" lon="2.04407">
        <ele>101.6</ele>
        <time>2023-05-31T12:08:03Z</time>
      </trkpt>
      <trkpt lat="49.87502" lon="2.04406">
        <ele>101.6</ele>
        <time>2023-05-31T12:08:04Z</time>
      </trkpt>
      <trkpt lat="49.87503" lon="2.04405">
        <ele>101.5</ele>
        <time>2023-05-31T12:08:05Z</time>
      </trkpt>
      <trkpt lat="49.87504" lon="2.04405">
        <ele>101.5</ele>
        <time>2023-05-31T12:08:06Z</time>
      </trkpt>
      <trkpt lat="49.87507" lon="2.04403">
        <ele>101.4</ele>
        <time>2023-05-31T12:08:07Z</time>
      </trkpt>
      <trkpt lat="49.87508" lon="2.04402">
        <ele>101.3</ele>
        <time>2023-05-31T12:08:09Z</time>
      </trkpt>
      <trkpt lat="49.87509" lon="2.04401">
        <ele>101.3</ele>
        <time>2023-05-31T12:08:10Z</time>
      </trkpt>
      <trkpt lat="49.8751" lon="2.044">
        <ele>101.3</ele>
        <time>2023-05-31T12:08:11Z</time>
      </trkpt>
      <trkpt lat="49.87511" lon="2.04399">
        <ele>101.2</ele>
        <time>2023-05-31T12:08:12Z</time>
      </trkpt>
      <trkpt lat="49.87512" lon="2.04399">
        <ele>101.2</ele>
        <time>2023-05-31T12:08:13Z</time>
      </trkpt>
      <trkpt lat="49.87513" lon="2.04398">
        <ele>101.1</ele>
        <time>2023-05-31T12:08:14Z</time>
      </trkpt>
      <trkpt lat="49.87514" lon="2.04397">
        <ele>101.1</ele>
        <time>2023-05-31T12:08:15Z</time>
      </trkpt>
      <trkpt lat="49.87515" lon="2.04397">
        <ele>101</ele>
        <time>2023-05-31T12:08:16Z</time>
      </trkpt>
      <trkpt lat="49.87516" lon="2.04396">
        <ele>101</ele>
        <time>2023-05-31T12:08:17Z</time>
      </trkpt>
      <trkpt lat="49.87516" lon="2.04396">
        <ele>101</ele>
        <time>2023-05-31T12:08:18Z</time>
      </trkpt>
      <trkpt lat="49.87518" lon="2.04395">
        <ele>100.9</ele>
        <time>2023-05-31T12:08:20Z</time>
      </trkpt>
      <trkpt lat="49.87519" lon="2.04395">
        <ele>100.9</ele>
        <time>2023-05-31T12:08:21Z</time>
      </trkpt>
      <trkpt lat="49.8752" lon="2.04394">
        <ele>100.8</ele>
        <time>2023-05-31T12:08:22Z</time>
      </trkpt>
      <trkpt lat="49.87521" lon="2.04393">
        <ele>100.8</ele>
        <time>2023-05-31T12:08:23Z</time>
      </trkpt>
      <trkpt lat="49.87522" lon="2.04393">
        <ele>100.7</ele>
        <time>2023-05-31T12:08:24Z</time>
      </trkpt>
      <trkpt lat="49.87524" lon="2.04392">
        <ele>100.7</ele>
        <time>2023-05-31T12:08:25Z</time>
      </trkpt>
      <trkpt lat="49.87525" lon="2.04391">
        <ele>100.6</ele>
        <time>2023-05-31T12:08:26Z</time>
      </trkpt>
      <trkpt lat="49.87527" lon="2.04389">
        <ele>100.5</ele>
        <time>2023-05-31T12:08:27Z</time>
      </trkpt>
      <trkpt lat="49.87528" lon="2.04388">
        <ele>100.5</ele>
        <time>2023-05-31T12:08:29Z</time>
      </trkpt>
      <trkpt lat="49.87528" lon="2.04388">
        <ele>100.5</ele>
        <time>2023-05-31T12:08:30Z</time>
      </trkpt>
      <trkpt lat="49.8753" lon="2.04386">
        <ele>100.4</ele>
        <time>2023-05-31T12:08:31Z</time>
      </trkpt>
      <trkpt lat="49.87531" lon="2.04385">
        <ele>100.4</ele>
        <time>2023-05-31T12:08:32Z</time>
      </trkpt>
      <trkpt lat="49.87532" lon="2.04384">
        <ele>100.3</ele>
        <time>2023-05-31T12:08:33Z</time>
      </trkpt>
      <trkpt lat="49.87533" lon="2.04383">
        <ele>100.2</ele>
        <time>2023-05-31T12:08:34Z</time>
      </trkpt>
      <trkpt lat="49.87535" lon="2.04382">
        <ele>100.2</ele>
        <time>2023-05-31T12:08:35Z</time>
      </trkpt>
      <trkpt lat="49.87536" lon="2.04381">
        <ele>100.1</ele>
        <time>2023-05-31T12:08:37Z</time>
      </trkpt>
      <trkpt lat="49.87538" lon="2.0438">
        <ele>100.1</ele>
        <time>2023-05-31T12:08:38Z</time>
      </trkpt>
      <trkpt lat="49.87539" lon="2.04378">
        <ele>100</ele>
        <time>2023-05-31T12:08:39Z</time>
      </trkpt>
      <trkpt lat="49.8754" lon="2.04377">
        <ele>99.9</ele>
        <time>2023-05-31T12:08:40Z</time>
      </trkpt>
      <trkpt lat="49.87542" lon="2.04376">
        <ele>99.9</ele>
        <time>2023-05-31T12:08:41Z</time>
      </trkpt>
      <trkpt lat="49.87543" lon="2.04375">
        <ele>99.8</ele>
        <time>2023-05-31T12:08:43Z</time>
      </trkpt>
      <trkpt lat="49.87544" lon="2.04375">
        <ele>99.8</ele>
        <time>2023-05-31T12:08:44Z</time>
      </trkpt>
      <trkpt lat="49.87546" lon="2.04373">
        <ele>99.7</ele>
        <time>2023-05-31T12:08:45Z</time>
      </trkpt>
      <trkpt lat="49.87547" lon="2.04373">
        <ele>99.7</ele>
        <time>2023-05-31T12:08:46Z</time>
      </trkpt>
      <trkpt lat="49.87548" lon="2.04372">
        <ele>99.6</ele>
        <time>2023-05-31T12:08:47Z</time>
      </trkpt>
      <trkpt lat="49.8755" lon="2.04371">
        <ele>99.6</ele>
        <time>2023-05-31T12:08:48Z</time>
      </trkpt>
      <trkpt lat="49.87551" lon="2.0437">
        <ele>99.5</ele>
        <time>2023-05-31T12:08:49Z</time>
      </trkpt>
      <trkpt lat="49.87552" lon="2.04369">
        <ele>99.4</ele>
        <time>2023-05-31T12:08:50Z</time>
      </trkpt>
      <trkpt lat="49.87555" lon="2.04368">
        <ele>99.3</ele>
        <time>2023-05-31T12:08:51Z</time>
      </trkpt>
      <trkpt lat="49.87556" lon="2.04367">
        <ele>99.3</ele>
        <time>2023-05-31T12:08:53Z</time>
      </trkpt>
      <trkpt lat="49.87557" lon="2.04367">
        <ele>99.3</ele>
        <time>2023-05-31T12:08:54Z</time>
      </trkpt>
      <trkpt lat="49.87558" lon="2.04366">
        <ele>99.2</ele>
        <time>2023-05-31T12:08:55Z</time>
      </trkpt>
      <trkpt lat="49.87559" lon="2.04366">
        <ele>99.2</ele>
        <time>2023-05-31T12:08:56Z</time>
      </trkpt>
      <trkpt lat="49.87561" lon="2.04365">
        <ele>99.1</ele>
        <time>2023-05-31T12:08:57Z</time>
      </trkpt>
      <trkpt lat="49.87562" lon="2.04364">
        <ele>99.1</ele>
        <time>2023-05-31T12:08:58Z</time>
      </trkpt>
      <trkpt lat="49.87564" lon="2.04363">
        <ele>99</ele>
        <time>2023-05-31T12:08:59Z</time>
      </trkpt>
      <trkpt lat="49.87565" lon="2.04363">
        <ele>98.9</ele>
        <time>2023-05-31T12:09:00Z</time>
      </trkpt>
      <trkpt lat="49.87566" lon="2.04362">
        <ele>98.9</ele>
        <time>2023-05-31T12:09:01Z</time>
      </trkpt>
      <trkpt lat="49.87568" lon="2.04361">
        <ele>98.8</ele>
        <time>2023-05-31T12:09:02Z</time>
      </trkpt>
      <trkpt lat="49.87568" lon="2.04361">
        <ele>98.8</ele>
        <time>2023-05-31T12:09:03Z</time>
      </trkpt>
      <trkpt lat="49.87569" lon="2.0436">
        <ele>98.8</ele>
        <time>2023-05-31T12:09:04Z</time>
      </trkpt>
      <trkpt lat="49.87571" lon="2.04359">
        <ele>98.7</ele>
        <time>2023-05-31T12:09:06Z</time>
      </trkpt>
      <trkpt lat="49.87572" lon="2.04359">
        <ele>98.7</ele>
        <time>2023-05-31T12:09:07Z</time>
      </trkpt>
      <trkpt lat="49.87573" lon="2.04358">
        <ele>98.6</ele>
        <time>2023-05-31T12:09:08Z</time>
      </trkpt>
      <trkpt lat="49.87575" lon="2.04357">
        <ele>98.5</ele>
        <time>2023-05-31T12:09:09Z</time>
      </trkpt>
      <trkpt lat="49.87575" lon="2.04356">
        <ele>98.5</ele>
        <time>2023-05-31T12:09:10Z</time>
      </trkpt>
      <trkpt lat="49.87576" lon="2.04356">
        <ele>98.5</ele>
        <time>2023-05-31T12:09:11Z</time>
      </trkpt>
      <trkpt lat="49.87577" lon="2.04355">
        <ele>98.4</ele>
        <time>2023-05-31T12:09:12Z</time>
      </trkpt>
      <trkpt lat="49.87579" lon="2.04354">
        <ele>98.4</ele>
        <time>2023-05-31T12:09:13Z</time>
      </trkpt>
      <trkpt lat="49.8758" lon="2.04353">
        <ele>98.3</ele>
        <time>2023-05-31T12:09:14Z</time>
      </trkpt>
      <trkpt lat="49.87581" lon="2.04352">
        <ele>98.3</ele>
        <time>2023-05-31T12:09:15Z</time>
      </trkpt>
      <trkpt lat="49.87582" lon="2.04352">
        <ele>98.2</ele>
        <time>2023-05-31T12:09:16Z</time>
      </trkpt>
      <trkpt lat="49.87583" lon="2.0435">
        <ele>98.2</ele>
        <time>2023-05-31T12:09:18Z</time>
      </trkpt>
      <trkpt lat="49.87584" lon="2.0435">
        <ele>98.1</ele>
        <time>2023-05-31T12:09:19Z</time>
      </trkpt>
      <trkpt lat="49.87585" lon="2.04349">
        <ele>98.1</ele>
        <time>2023-05-31T12:09:20Z</time>
      </trkpt>
      <trkpt lat="49.87586" lon="2.04348">
        <ele>98</ele>
        <time>2023-05-31T12:09:21Z</time>
      </trkpt>
      <trkpt lat="49.87588" lon="2.04347">
        <ele>98</ele>
        <time>2023-05-31T12:09:22Z</time>
      </trkpt>
      <trkpt lat="49.87589" lon="2.04346">
        <ele>97.9</ele>
        <time>2023-05-31T12:09:23Z</time>
      </trkpt>
      <trkpt lat="49.8759" lon="2.04345">
        <ele>97.9</ele>
        <time>2023-05-31T12:09:24Z</time>
      </trkpt>
      <trkpt lat="49.87592" lon="2.04344">
        <ele>97.8</ele>
        <time>2023-05-31T12:09:25Z</time>
      </trkpt>
      <trkpt lat="49.87593" lon="2.04343">
        <ele>97.8</ele>
        <time>2023-05-31T12:09:26Z</time>
      </trkpt>
      <trkpt lat="49.87593" lon="2.04343">
        <ele>97.7</ele>
        <time>2023-05-31T12:09:27Z</time>
      </trkpt>
      <trkpt lat="49.87595" lon="2.04342">
        <ele>97.7</ele>
        <time>2023-05-31T12:09:28Z</time>
      </trkpt>
      <trkpt lat="49.87596" lon="2.04341">
        <ele>97.6</ele>
        <time>2023-05-31T12:09:29Z</time>
      </trkpt>
      <trkpt lat="49.87597" lon="2.0434">
        <ele>97.6</ele>
        <time>2023-05-31T12:09:31Z</time>
      </trkpt>
      <trkpt lat="49.87598" lon="2.04339">
        <ele>97.5</ele>
        <time>2023-05-31T12:09:32Z</time>
      </trkpt>
      <trkpt lat="49.876" lon="2.04338">
        <ele>97.5</ele>
        <time>2023-05-31T12:09:33Z</time>
      </trkpt>
      <trkpt lat="49.87601" lon="2.04336">
        <ele>97.4</ele>
        <time>2023-05-31T12:09:34Z</time>
      </trkpt>
      <trkpt lat="49.87602" lon="2.04335">
        <ele>97.4</ele>
        <time>2023-05-31T12:09:35Z</time>
      </trkpt>
      <trkpt lat="49.87604" lon="2.04334">
        <ele>97.3</ele>
        <time>2023-05-31T12:09:36Z</time>
      </trkpt>
      <trkpt lat="49.87605" lon="2.04334">
        <ele>97.3</ele>
        <time>2023-05-31T12:09:38Z</time>
      </trkpt>
      <trkpt lat="49.87605" lon="2.04334">
        <ele>97.2</ele>
        <time>2023-05-31T12:09:39Z</time>
      </trkpt>
      <trkpt lat="49.87608" lon="2.04333">
        <ele>97.1</ele>
        <time>2023-05-31T12:09:40Z</time>
      </trkpt>
      <trkpt lat="49.87608" lon="2.04333">
        <ele>97.1</ele>
        <time>2023-05-31T12:09:41Z</time>
      </trkpt>
      <trkpt lat="49.87609" lon="2.04333">
        <ele>97.1</ele>
        <time>2023-05-31T12:09:42Z</time>
      </trkpt>
      <trkpt lat="49.87611" lon="2.04332">
        <ele>97</ele>
        <time>2023-05-31T12:09:44Z</time>
      </trkpt>
      <trkpt lat="49.87612" lon="2.04331">
        <ele>96.9</ele>
        <time>2023-05-31T12:09:45Z</time>
      </trkpt>
      <trkpt lat="49.87614" lon="2.04331">
        <ele>96.9</ele>
        <time>2023-05-31T12:09:46Z</time>
      </trkpt>
      <trkpt lat="49.87615" lon="2.0433">
        <ele>96.8</ele>
        <time>2023-05-31T12:09:47Z</time>
      </trkpt>
      <trkpt lat="49.87617" lon="2.0433">
        <ele>96.8</ele>
        <time>2023-05-31T12:09:48Z</time>
      </trkpt>
      <trkpt lat="49.87618" lon="2.0433">
        <ele>96.7</ele>
        <time>2023-05-31T12:09:49Z</time>
      </trkpt>
      <trkpt lat="49.87619" lon="2.04329">
        <ele>96.7</ele>
        <time>2023-05-31T12:09:51Z</time>
      </trkpt>
      <trkpt lat="49.8762" lon="2.04329">
        <ele>96.7</ele>
        <time>2023-05-31T12:09:52Z</time>
      </trkpt>
      <trkpt lat="49.87621" lon="2.04328">
        <ele>96.6</ele>
        <time>2023-05-31T12:09:53Z</time>
      </trkpt>
      <trkpt lat="49.87622" lon="2.04328">
        <ele>96.6</ele>
        <time>2023-05-31T12:09:54Z</time>
      </trkpt>
      <trkpt lat="49.87624" lon="2.04327">
        <ele>96.5</ele>
        <time>2023-05-31T12:09:55Z</time>
      </trkpt>
      <trkpt lat="49.87625" lon="2.04327">
        <ele>96.5</ele>
        <time>2023-05-31T12:09:56Z</time>
      </trkpt>
      <trkpt lat="49.87628" lon="2.04325">
        <ele>96.3</ele>
        <time>2023-05-31T12:09:57Z</time>
      </trkpt>
      <trkpt lat="49.87629" lon="2.04325">
        <ele>96.3</ele>
        <time>2023-05-31T12:09:59Z</time>
      </trkpt>
      <trkpt lat="49.8763" lon="2.04324">
        <ele>96.2</ele>
        <time>2023-05-31T12:10:00Z</time>
      </trkpt>
      <trkpt lat="49.87632" lon="2.04323">
        <ele>96.2</ele>
        <time>2023-05-31T12:10:01Z</time>
      </trkpt>
      <trkpt lat="49.87634" lon="2.04322">
        <ele>96.1</ele>
        <time>2023-05-31T12:10:03Z</time>
      </trkpt>
      <trkpt lat="49.87635" lon="2.04322">
        <ele>96</ele>
        <time>2023-05-31T12:10:04Z</time>
      </trkpt>
      <trkpt lat="49.87636" lon="2.04321">
        <ele>96</ele>
        <time>2023-05-31T12:10:05Z</time>
      </trkpt>
      <trkpt lat="49.87638" lon="2.0432">
        <ele>95.9</ele>
        <time>2023-05-31T12:10:06Z</time>
      </trkpt>
      <trkpt lat="49.87639" lon="2.04319">
        <ele>95.9</ele>
        <time>2023-05-31T12:10:07Z</time>
      </trkpt>
      <trkpt lat="49.8764" lon="2.04319">
        <ele>95.9</ele>
        <time>2023-05-31T12:10:08Z</time>
      </trkpt>
      <trkpt lat="49.87641" lon="2.04317">
        <ele>95.8</ele>
        <time>2023-05-31T12:10:10Z</time>
      </trkpt>
      <trkpt lat="49.87642" lon="2.04317">
        <ele>95.7</ele>
        <time>2023-05-31T12:10:11Z</time>
      </trkpt>
      <trkpt lat="49.87643" lon="2.04316">
        <ele>95.7</ele>
        <time>2023-05-31T12:10:12Z</time>
      </trkpt>
      <trkpt lat="49.87644" lon="2.04315">
        <ele>95.7</ele>
        <time>2023-05-31T12:10:13Z</time>
      </trkpt>
      <trkpt lat="49.87646" lon="2.04314">
        <ele>95.6</ele>
        <time>2023-05-31T12:10:14Z</time>
      </trkpt>
      <trkpt lat="49.87647" lon="2.04313">
        <ele>95.5</ele>
        <time>2023-05-31T12:10:15Z</time>
      </trkpt>
      <trkpt lat="49.87648" lon="2.04312">
        <ele>95.5</ele>
        <time>2023-05-31T12:10:16Z</time>
      </trkpt>
      <trkpt lat="49.87649" lon="2.04311">
        <ele>95.5</ele>
        <time>2023-05-31T12:10:17Z</time>
      </trkpt>
      <trkpt lat="49.8765" lon="2.04311">
        <ele>95.4</ele>
        <time>2023-05-31T12:10:18Z</time>
      </trkpt>
      <trkpt lat="49.87651" lon="2.0431">
        <ele>95.4</ele>
        <time>2023-05-31T12:10:19Z</time>
      </trkpt>
      <trkpt lat="49.87652" lon="2.04309">
        <ele>95.3</ele>
        <time>2023-05-31T12:10:20Z</time>
      </trkpt>
      <trkpt lat="49.87653" lon="2.04307">
        <ele>95.3</ele>
        <time>2023-05-31T12:10:21Z</time>
      </trkpt>
      <trkpt lat="49.87654" lon="2.04306">
        <ele>95.2</ele>
        <time>2023-05-31T12:10:22Z</time>
      </trkpt>
      <trkpt lat="49.87655" lon="2.04305">
        <ele>95.2</ele>
        <time>2023-05-31T12:10:24Z</time>
      </trkpt>
      <trkpt lat="49.87656" lon="2.04304">
        <ele>95.1</ele>
        <time>2023-05-31T12:10:25Z</time>
      </trkpt>
      <trkpt lat="49.87657" lon="2.04304">
        <ele>95.1</ele>
        <time>2023-05-31T12:10:26Z</time>
      </trkpt>
      <trkpt lat="49.87658" lon="2.04304">
        <ele>95.1</ele>
        <time>2023-05-31T12:10:27Z</time>
      </trkpt>
      <trkpt lat="49.87659" lon="2.04303">
        <ele>95</ele>
        <time>2023-05-31T12:10:28Z</time>
      </trkpt>
      <trkpt lat="49.8766" lon="2.04303">
        <ele>95</ele>
        <time>2023-05-31T12:10:29Z</time>
      </trkpt>
      <trkpt lat="49.87661" lon="2.04302">
        <ele>94.9</ele>
        <time>2023-05-31T12:10:30Z</time>
      </trkpt>
      <trkpt lat="49.87663" lon="2.04302">
        <ele>94.9</ele>
        <time>2023-05-31T12:10:32Z</time>
      </trkpt>
      <trkpt lat="49.87664" lon="2.04301">
        <ele>94.8</ele>
        <time>2023-05-31T12:10:33Z</time>
      </trkpt>
      <trkpt lat="49.87665" lon="2.04301">
        <ele>94.8</ele>
        <time>2023-05-31T12:10:34Z</time>
      </trkpt>
      <trkpt lat="49.87667" lon="2.043">
        <ele>94.7</ele>
        <time>2023-05-31T12:10:35Z</time>
      </trkpt>
      <trkpt lat="49.87668" lon="2.043">
        <ele>94.7</ele>
        <time>2023-05-31T12:10:36Z</time>
      </trkpt>
      <trkpt lat="49.87669" lon="2.04299">
        <ele>94.6</ele>
        <time>2023-05-31T12:10:37Z</time>
      </trkpt>
      <trkpt lat="49.8767" lon="2.04299">
        <ele>94.6</ele>
        <time>2023-05-31T12:10:38Z</time>
      </trkpt>
      <trkpt lat="49.87671" lon="2.04298">
        <ele>94.5</ele>
        <time>2023-05-31T12:10:39Z</time>
      </trkpt>
      <trkpt lat="49.87674" lon="2.04297">
        <ele>94.4</ele>
        <time>2023-05-31T12:10:40Z</time>
      </trkpt>
      <trkpt lat="49.87674" lon="2.04297">
        <ele>94.4</ele>
        <time>2023-05-31T12:10:42Z</time>
      </trkpt>
      <trkpt lat="49.87675" lon="2.04297">
        <ele>94.4</ele>
        <time>2023-05-31T12:10:43Z</time>
      </trkpt>
      <trkpt lat="49.87677" lon="2.04297">
        <ele>94.3</ele>
        <time>2023-05-31T12:10:44Z</time>
      </trkpt>
      <trkpt lat="49.87678" lon="2.04296">
        <ele>94.3</ele>
        <time>2023-05-31T12:10:45Z</time>
      </trkpt>
      <trkpt lat="49.87679" lon="2.04296">
        <ele>94.2</ele>
        <time>2023-05-31T12:10:46Z</time>
      </trkpt>
      <trkpt lat="49.87681" lon="2.04296">
        <ele>94.2</ele>
        <time>2023-05-31T12:10:47Z</time>
      </trkpt>
      <trkpt lat="49.87682" lon="2.04296">
        <ele>94.1</ele>
        <time>2023-05-31T12:10:49Z</time>
      </trkpt>
      <trkpt lat="49.87684" lon="2.04297">
        <ele>94</ele>
        <time>2023-05-31T12:10:50Z</time>
      </trkpt>
      <trkpt lat="49.87685" lon="2.04297">
        <ele>94</ele>
        <time>2023-05-31T12:10:51Z</time>
      </trkpt>
      <trkpt lat="49.87686" lon="2.04297">
        <ele>94</ele>
        <time>2023-05-31T12:10:52Z</time>
      </trkpt>
      <trkpt lat="49.87688" lon="2.04298">
        <ele>93.9</ele>
        <time>2023-05-31T12:10:53Z</time>
      </trkpt>
      <trkpt lat="49.87689" lon="2.04298">
        <ele>93.9</ele>
        <time>2023-05-31T12:10:54Z</time>
      </trkpt>
      <trkpt lat="49.8769" lon="2.04298">
        <ele>93.8</ele>
        <time>2023-05-31T12:10:55Z</time>
      </trkpt>
      <trkpt lat="49.87692" lon="2.043">
        <ele>93.7</ele>
        <time>2023-05-31T12:10:56Z</time>
      </trkpt>
      <trkpt lat="49.87692" lon="2.043">
        <ele>93.7</ele>
        <time>2023-05-31T12:10:57Z</time>
      </trkpt>
      <trkpt lat="49.87693" lon="2.043">
        <ele>93.7</ele>
        <time>2023-05-31T12:10:58Z</time>
      </trkpt>
      <trkpt lat="49.87695" lon="2.04301">
        <ele>93.6</ele>
        <time>2023-05-31T12:10:59Z</time>
      </trkpt>
      <trkpt lat="49.87696" lon="2.04302">
        <ele>93.6</ele>
        <time>2023-05-31T12:11:01Z</time>
      </trkpt>
      <trkpt lat="49.87697" lon="2.04302">
        <ele>93.5</ele>
        <time>2023-05-31T12:11:02Z</time>
      </trkpt>
      <trkpt lat="49.87698" lon="2.04303">
        <ele>93.5</ele>
        <time>2023-05-31T12:11:03Z</time>
      </trkpt>
      <trkpt lat="49.87699" lon="2.04304">
        <ele>93.4</ele>
        <time>2023-05-31T12:11:04Z</time>
      </trkpt>
      <trkpt lat="49.87701" lon="2.04305">
        <ele>93.4</ele>
        <time>2023-05-31T12:11:05Z</time>
      </trkpt>
      <trkpt lat="49.87702" lon="2.04306">
        <ele>93.3</ele>
        <time>2023-05-31T12:11:06Z</time>
      </trkpt>
      <trkpt lat="49.87703" lon="2.04306">
        <ele>93.3</ele>
        <time>2023-05-31T12:11:07Z</time>
      </trkpt>
      <trkpt lat="49.87704" lon="2.04307">
        <ele>93.2</ele>
        <time>2023-05-31T12:11:09Z</time>
      </trkpt>
      <trkpt lat="49.87705" lon="2.04308">
        <ele>93.2</ele>
        <time>2023-05-31T12:11:10Z</time>
      </trkpt>
      <trkpt lat="49.87706" lon="2.04309">
        <ele>93.1</ele>
        <time>2023-05-31T12:11:11Z</time>
      </trkpt>
      <trkpt lat="49.87708" lon="2.0431">
        <ele>93.1</ele>
        <time>2023-05-31T12:11:12Z</time>
      </trkpt>
      <trkpt lat="49.87709" lon="2.04311">
        <ele>93</ele>
        <time>2023-05-31T12:11:13Z</time>
      </trkpt>
      <trkpt lat="49.8771" lon="2.04312">
        <ele>93</ele>
        <time>2023-05-31T12:11:15Z</time>
      </trkpt>
      <trkpt lat="49.87712" lon="2.04312">
        <ele>92.9</ele>
        <time>2023-05-31T12:11:16Z</time>
      </trkpt>
      <trkpt lat="49.87713" lon="2.04313">
        <ele>92.9</ele>
        <time>2023-05-31T12:11:17Z</time>
      </trkpt>
      <trkpt lat="49.87714" lon="2.04313">
        <ele>92.8</ele>
        <time>2023-05-31T12:11:18Z</time>
      </trkpt>
      <trkpt lat="49.87716" lon="2.04314">
        <ele>92.7</ele>
        <time>2023-05-31T12:11:19Z</time>
      </trkpt>
      <trkpt lat="49.87717" lon="2.04315">
        <ele>92.7</ele>
        <time>2023-05-31T12:11:20Z</time>
      </trkpt>
      <trkpt lat="49.87718" lon="2.04316">
        <ele>92.6</ele>
        <time>2023-05-31T12:11:21Z</time>
      </trkpt>
      <trkpt lat="49.8772" lon="2.04317">
        <ele>92.6</ele>
        <time>2023-05-31T12:11:22Z</time>
      </trkpt>
      <trkpt lat="49.87721" lon="2.04317">
        <ele>92.5</ele>
        <time>2023-05-31T12:11:23Z</time>
      </trkpt>
      <trkpt lat="49.87722" lon="2.04318">
        <ele>92.5</ele>
        <time>2023-05-31T12:11:24Z</time>
      </trkpt>
      <trkpt lat="49.87723" lon="2.04318">
        <ele>92.4</ele>
        <time>2023-05-31T12:11:25Z</time>
      </trkpt>
      <trkpt lat="49.87725" lon="2.04319">
        <ele>92.4</ele>
        <time>2023-05-31T12:11:27Z</time>
      </trkpt>
      <trkpt lat="49.87726" lon="2.04319">
        <ele>92.3</ele>
        <time>2023-05-31T12:11:28Z</time>
      </trkpt>
      <trkpt lat="49.87728" lon="2.0432">
        <ele>92.3</ele>
        <time>2023-05-31T12:11:29Z</time>
      </trkpt>
      <trkpt lat="49.87729" lon="2.0432">
        <ele>92.2</ele>
        <time>2023-05-31T12:11:30Z</time>
      </trkpt>
      <trkpt lat="49.8773" lon="2.04321">
        <ele>92.2</ele>
        <time>2023-05-31T12:11:31Z</time>
      </trkpt>
      <trkpt lat="49.87732" lon="2.04322">
        <ele>92.1</ele>
        <time>2023-05-31T12:11:33Z</time>
      </trkpt>
      <trkpt lat="49.87733" lon="2.04322">
        <ele>92.1</ele>
        <time>2023-05-31T12:11:34Z</time>
      </trkpt>
      <trkpt lat="49.87734" lon="2.04322">
        <ele>92</ele>
        <time>2023-05-31T12:11:35Z</time>
      </trkpt>
      <trkpt lat="49.87735" lon="2.04323">
        <ele>92</ele>
        <time>2023-05-31T12:11:36Z</time>
      </trkpt>
      <trkpt lat="49.87736" lon="2.04324">
        <ele>91.9</ele>
        <time>2023-05-31T12:11:37Z</time>
      </trkpt>
      <trkpt lat="49.87739" lon="2.04324">
        <ele>91.8</ele>
        <time>2023-05-31T12:11:39Z</time>
      </trkpt>
      <trkpt lat="49.8774" lon="2.04325">
        <ele>91.8</ele>
        <time>2023-05-31T12:11:40Z</time>
      </trkpt>
      <trkpt lat="49.87741" lon="2.04326">
        <ele>91.7</ele>
        <time>2023-05-31T12:11:41Z</time>
      </trkpt>
      <trkpt lat="49.87742" lon="2.04326">
        <ele>91.7</ele>
        <time>2023-05-31T12:11:42Z</time>
      </trkpt>
      <trkpt lat="49.87744" lon="2.04327">
        <ele>91.6</ele>
        <time>2023-05-31T12:11:43Z</time>
      </trkpt>
      <trkpt lat="49.87745" lon="2.04328">
        <ele>91.6</ele>
        <time>2023-05-31T12:11:44Z</time>
      </trkpt>
      <trkpt lat="49.87747" lon="2.04329">
        <ele>91.5</ele>
        <time>2023-05-31T12:11:46Z</time>
      </trkpt>
      <trkpt lat="49.87748" lon="2.0433">
        <ele>91.4</ele>
        <time>2023-05-31T12:11:47Z</time>
      </trkpt>
      <trkpt lat="49.87749" lon="2.0433">
        <ele>91.4</ele>
        <time>2023-05-31T12:11:48Z</time>
      </trkpt>
      <trkpt lat="49.8775" lon="2.04331">
        <ele>91.4</ele>
        <time>2023-05-31T12:11:49Z</time>
      </trkpt>
      <trkpt lat="49.87752" lon="2.04332">
        <ele>91.3</ele>
        <time>2023-05-31T12:11:51Z</time>
      </trkpt>
      <trkpt lat="49.87754" lon="2.04334">
        <ele>91.2</ele>
        <time>2023-05-31T12:11:52Z</time>
      </trkpt>
      <trkpt lat="49.87755" lon="2.04335">
        <ele>91.2</ele>
        <time>2023-05-31T12:11:53Z</time>
      </trkpt>
      <trkpt lat="49.87757" lon="2.04336">
        <ele>91.1</ele>
        <time>2023-05-31T12:11:54Z</time>
      </trkpt>
      <trkpt lat="49.87758" lon="2.04337">
        <ele>91</ele>
        <time>2023-05-31T12:11:56Z</time>
      </trkpt>
      <trkpt lat="49.87759" lon="2.04337">
        <ele>91</ele>
        <time>2023-05-31T12:11:57Z</time>
      </trkpt>
      <trkpt lat="49.8776" lon="2.04338">
        <ele>90.9</ele>
        <time>2023-05-31T12:11:58Z</time>
      </trkpt>
      <trkpt lat="49.87761" lon="2.04339">
        <ele>90.9</ele>
        <time>2023-05-31T12:11:59Z</time>
      </trkpt>
      <trkpt lat="49.87762" lon="2.0434">
        <ele>90.9</ele>
        <time>2023-05-31T12:12:00Z</time>
      </trkpt>
      <trkpt lat="49.87763" lon="2.04341">
        <ele>90.8</ele>
        <time>2023-05-31T12:12:01Z</time>
      </trkpt>
      <trkpt lat="49.87765" lon="2.04342">
        <ele>90.7</ele>
        <time>2023-05-31T12:12:02Z</time>
      </trkpt>
      <trkpt lat="49.87766" lon="2.04343">
        <ele>90.7</ele>
        <time>2023-05-31T12:12:04Z</time>
      </trkpt>
      <trkpt lat="49.87767" lon="2.04344">
        <ele>90.7</ele>
        <time>2023-05-31T12:12:05Z</time>
      </trkpt>
      <trkpt lat="49.87767" lon="2.04345">
        <ele>90.6</ele>
        <time>2023-05-31T12:12:06Z</time>
      </trkpt>
      <trkpt lat="49.87769" lon="2.04346">
        <ele>90.6</ele>
        <time>2023-05-31T12:12:07Z</time>
      </trkpt>
      <trkpt lat="49.8777" lon="2.04349">
        <ele>90.5</ele>
        <time>2023-05-31T12:12:08Z</time>
      </trkpt>
      <trkpt lat="49.87771" lon="2.04349">
        <ele>90.4</ele>
        <time>2023-05-31T12:12:09Z</time>
      </trkpt>
      <trkpt lat="49.87772" lon="2.0435">
        <ele>90.4</ele>
        <time>2023-05-31T12:12:10Z</time>
      </trkpt>
      <trkpt lat="49.87773" lon="2.04352">
        <ele>90.3</ele>
        <time>2023-05-31T12:12:12Z</time>
      </trkpt>
      <trkpt lat="49.87774" lon="2.04353">
        <ele>90.3</ele>
        <time>2023-05-31T12:12:13Z</time>
      </trkpt>
      <trkpt lat="49.87775" lon="2.04354">
        <ele>90.3</ele>
        <time>2023-05-31T12:12:14Z</time>
      </trkpt>
      <trkpt lat="49.87776" lon="2.04356">
        <ele>90.2</ele>
        <time>2023-05-31T12:12:15Z</time>
      </trkpt>
      <trkpt lat="49.87777" lon="2.04356">
        <ele>90.1</ele>
        <time>2023-05-31T12:12:16Z</time>
      </trkpt>
      <trkpt lat="49.87778" lon="2.04357">
        <ele>90.1</ele>
        <time>2023-05-31T12:12:17Z</time>
      </trkpt>
      <trkpt lat="49.87779" lon="2.04358">
        <ele>90.1</ele>
        <time>2023-05-31T12:12:18Z</time>
      </trkpt>
      <trkpt lat="49.8778" lon="2.0436">
        <ele>90</ele>
        <time>2023-05-31T12:12:19Z</time>
      </trkpt>
      <trkpt lat="49.87781" lon="2.04361">
        <ele>90</ele>
        <time>2023-05-31T12:12:20Z</time>
      </trkpt>
      <trkpt lat="49.87782" lon="2.04363">
        <ele>89.9</ele>
        <time>2023-05-31T12:12:21Z</time>
      </trkpt>
      <trkpt lat="49.87783" lon="2.04364">
        <ele>89.9</ele>
        <time>2023-05-31T12:12:22Z</time>
      </trkpt>
      <trkpt lat="49.87783" lon="2.04365">
        <ele>89.8</ele>
        <time>2023-05-31T12:12:23Z</time>
      </trkpt>
      <trkpt lat="49.87785" lon="2.04367">
        <ele>89.8</ele>
        <time>2023-05-31T12:12:25Z</time>
      </trkpt>
      <trkpt lat="49.87786" lon="2.04367">
        <ele>89.7</ele>
        <time>2023-05-31T12:12:26Z</time>
      </trkpt>
      <trkpt lat="49.87786" lon="2.04368">
        <ele>89.7</ele>
        <time>2023-05-31T12:12:27Z</time>
      </trkpt>
      <trkpt lat="49.87787" lon="2.04369">
        <ele>89.6</ele>
        <time>2023-05-31T12:12:28Z</time>
      </trkpt>
      <trkpt lat="49.87788" lon="2.04371">
        <ele>89.6</ele>
        <time>2023-05-31T12:12:29Z</time>
      </trkpt>
      <trkpt lat="49.8779" lon="2.04373">
        <ele>89.5</ele>
        <time>2023-05-31T12:12:30Z</time>
      </trkpt>
      <trkpt lat="49.87791" lon="2.04374">
        <ele>89.5</ele>
        <time>2023-05-31T12:12:31Z</time>
      </trkpt>
      <trkpt lat="49.87791" lon="2.04374">
        <ele>89.4</ele>
        <time>2023-05-31T12:12:32Z</time>
      </trkpt>
      <trkpt lat="49.87792" lon="2.04375">
        <ele>89.4</ele>
        <time>2023-05-31T12:12:33Z</time>
      </trkpt>
      <trkpt lat="49.87793" lon="2.04376">
        <ele>89.4</ele>
        <time>2023-05-31T12:12:34Z</time>
      </trkpt>
      <trkpt lat="49.87794" lon="2.04378">
        <ele>89.3</ele>
        <time>2023-05-31T12:12:36Z</time>
      </trkpt>
      <trkpt lat="49.87795" lon="2.04379">
        <ele>89.3</ele>
        <time>2023-05-31T12:12:37Z</time>
      </trkpt>
      <trkpt lat="49.87796" lon="2.0438">
        <ele>89.2</ele>
        <time>2023-05-31T12:12:38Z</time>
      </trkpt>
      <trkpt lat="49.87797" lon="2.04382">
        <ele>89.2</ele>
        <time>2023-05-31T12:12:39Z</time>
      </trkpt>
      <trkpt lat="49.87798" lon="2.04383">
        <ele>89.1</ele>
        <time>2023-05-31T12:12:40Z</time>
      </trkpt>
      <trkpt lat="49.87799" lon="2.04384">
        <ele>89.1</ele>
        <time>2023-05-31T12:12:41Z</time>
      </trkpt>
      <trkpt lat="49.878" lon="2.04386">
        <ele>89</ele>
        <time>2023-05-31T12:12:42Z</time>
      </trkpt>
      <trkpt lat="49.87801" lon="2.04387">
        <ele>88.9</ele>
        <time>2023-05-31T12:12:43Z</time>
      </trkpt>
      <trkpt lat="49.87802" lon="2.04389">
        <ele>88.9</ele>
        <time>2023-05-31T12:12:45Z</time>
      </trkpt>
      <trkpt lat="49.87803" lon="2.0439">
        <ele>88.8</ele>
        <time>2023-05-31T12:12:46Z</time>
      </trkpt>
      <trkpt lat="49.87805" lon="2.04392">
        <ele>88.8</ele>
        <time>2023-05-31T12:12:47Z</time>
      </trkpt>
      <trkpt lat="49.87806" lon="2.04393">
        <ele>88.7</ele>
        <time>2023-05-31T12:12:48Z</time>
      </trkpt>
      <trkpt lat="49.87807" lon="2.04394">
        <ele>88.7</ele>
        <time>2023-05-31T12:12:49Z</time>
      </trkpt>
      <trkpt lat="49.87808" lon="2.04395">
        <ele>88.6</ele>
        <time>2023-05-31T12:12:51Z</time>
      </trkpt>
      <trkpt lat="49.87809" lon="2.04398">
        <ele>88.6</ele>
        <time>2023-05-31T12:12:52Z</time>
      </trkpt>
      <trkpt lat="49.8781" lon="2.04399">
        <ele>88.5</ele>
        <time>2023-05-31T12:12:53Z</time>
      </trkpt>
      <trkpt lat="49.8781" lon="2.044">
        <ele>88.5</ele>
        <time>2023-05-31T12:12:54Z</time>
      </trkpt>
      <trkpt lat="49.87812" lon="2.04402">
        <ele>88.4</ele>
        <time>2023-05-31T12:12:55Z</time>
      </trkpt>
      <trkpt lat="49.87812" lon="2.04403">
        <ele>88.4</ele>
        <time>2023-05-31T12:12:56Z</time>
      </trkpt>
      <trkpt lat="49.87813" lon="2.04404">
        <ele>88.3</ele>
        <time>2023-05-31T12:12:57Z</time>
      </trkpt>
      <trkpt lat="49.87813" lon="2.04405">
        <ele>88.3</ele>
        <time>2023-05-31T12:12:58Z</time>
      </trkpt>
      <trkpt lat="49.87814" lon="2.04407">
        <ele>88.3</ele>
        <time>2023-05-31T12:12:59Z</time>
      </trkpt>
      <trkpt lat="49.87815" lon="2.04408">
        <ele>88.2</ele>
        <time>2023-05-31T12:13:01Z</time>
      </trkpt>
      <trkpt lat="49.87816" lon="2.0441">
        <ele>88.2</ele>
        <time>2023-05-31T12:13:02Z</time>
      </trkpt>
      <trkpt lat="49.87817" lon="2.04412">
        <ele>88.1</ele>
        <time>2023-05-31T12:13:03Z</time>
      </trkpt>
      <trkpt lat="49.87817" lon="2.04414">
        <ele>88</ele>
        <time>2023-05-31T12:13:04Z</time>
      </trkpt>
      <trkpt lat="49.87818" lon="2.04416">
        <ele>88</ele>
        <time>2023-05-31T12:13:05Z</time>
      </trkpt>
      <trkpt lat="49.87819" lon="2.04417">
        <ele>87.9</ele>
        <time>2023-05-31T12:13:06Z</time>
      </trkpt>
      <trkpt lat="49.8782" lon="2.04419">
        <ele>87.9</ele>
        <time>2023-05-31T12:13:07Z</time>
      </trkpt>
      <trkpt lat="49.87822" lon="2.04422">
        <ele>87.8</ele>
        <time>2023-05-31T12:13:09Z</time>
      </trkpt>
      <trkpt lat="49.87822" lon="2.04423">
        <ele>87.8</ele>
        <time>2023-05-31T12:13:10Z</time>
      </trkpt>
      <trkpt lat="49.87823" lon="2.04424">
        <ele>87.7</ele>
        <time>2023-05-31T12:13:11Z</time>
      </trkpt>
      <trkpt lat="49.87824" lon="2.04426">
        <ele>87.7</ele>
        <time>2023-05-31T12:13:12Z</time>
      </trkpt>
      <trkpt lat="49.87825" lon="2.04427">
        <ele>87.6</ele>
        <time>2023-05-31T12:13:13Z</time>
      </trkpt>
      <trkpt lat="49.87826" lon="2.04429">
        <ele>87.5</ele>
        <time>2023-05-31T12:13:14Z</time>
      </trkpt>
      <trkpt lat="49.87827" lon="2.04431">
        <ele>87.5</ele>
        <time>2023-05-31T12:13:16Z</time>
      </trkpt>
      <trkpt lat="49.87828" lon="2.04433">
        <ele>87.4</ele>
        <time>2023-05-31T12:13:17Z</time>
      </trkpt>
      <trkpt lat="49.87829" lon="2.04434">
        <ele>87.4</ele>
        <time>2023-05-31T12:13:18Z</time>
      </trkpt>
      <trkpt lat="49.8783" lon="2.04436">
        <ele>87.3</ele>
        <time>2023-05-31T12:13:19Z</time>
      </trkpt>
      <trkpt lat="49.87831" lon="2.04438">
        <ele>87.2</ele>
        <time>2023-05-31T12:13:20Z</time>
      </trkpt>
      <trkpt lat="49.87832" lon="2.0444">
        <ele>87.2</ele>
        <time>2023-05-31T12:13:21Z</time>
      </trkpt>
      <trkpt lat="49.87833" lon="2.04442">
        <ele>87.1</ele>
        <time>2023-05-31T12:13:22Z</time>
      </trkpt>
      <trkpt lat="49.87835" lon="2.04444">
        <ele>87</ele>
        <time>2023-05-31T12:13:23Z</time>
      </trkpt>
      <trkpt lat="49.87835" lon="2.04445">
        <ele>87</ele>
        <time>2023-05-31T12:13:24Z</time>
      </trkpt>
      <trkpt lat="49.87836" lon="2.04446">
        <ele>87</ele>
        <time>2023-05-31T12:13:25Z</time>
      </trkpt>
      <trkpt lat="49.87837" lon="2.04449">
        <ele>86.9</ele>
        <time>2023-05-31T12:13:27Z</time>
      </trkpt>
      <trkpt lat="49.87838" lon="2.0445">
        <ele>86.9</ele>
        <time>2023-05-31T12:13:28Z</time>
      </trkpt>
      <trkpt lat="49.87838" lon="2.04451">
        <ele>86.8</ele>
        <time>2023-05-31T12:13:29Z</time>
      </trkpt>
      <trkpt lat="49.87839" lon="2.04453">
        <ele>86.8</ele>
        <time>2023-05-31T12:13:30Z</time>
      </trkpt>
      <trkpt lat="49.8784" lon="2.04455">
        <ele>86.7</ele>
        <time>2023-05-31T12:13:31Z</time>
      </trkpt>
      <trkpt lat="49.87841" lon="2.04456">
        <ele>86.7</ele>
        <time>2023-05-31T12:13:33Z</time>
      </trkpt>
      <trkpt lat="49.87842" lon="2.04457">
        <ele>86.6</ele>
        <time>2023-05-31T12:13:34Z</time>
      </trkpt>
      <trkpt lat="49.87842" lon="2.04459">
        <ele>86.6</ele>
        <time>2023-05-31T12:13:35Z</time>
      </trkpt>
      <trkpt lat="49.87843" lon="2.0446">
        <ele>86.5</ele>
        <time>2023-05-31T12:13:36Z</time>
      </trkpt>
      <trkpt lat="49.87844" lon="2.04461">
        <ele>86.5</ele>
        <time>2023-05-31T12:13:37Z</time>
      </trkpt>
      <trkpt lat="49.87845" lon="2.04463">
        <ele>86.4</ele>
        <time>2023-05-31T12:13:38Z</time>
      </trkpt>
      <trkpt lat="49.87845" lon="2.04464">
        <ele>86.4</ele>
        <time>2023-05-31T12:13:39Z</time>
      </trkpt>
      <trkpt lat="49.87846" lon="2.04466">
        <ele>86.4</ele>
        <time>2023-05-31T12:13:40Z</time>
      </trkpt>
      <trkpt lat="49.87848" lon="2.04469">
        <ele>86.3</ele>
        <time>2023-05-31T12:13:42Z</time>
      </trkpt>
      <trkpt lat="49.87849" lon="2.04471">
        <ele>86.2</ele>
        <time>2023-05-31T12:13:44Z</time>
      </trkpt>
      <trkpt lat="49.8785" lon="2.04471">
        <ele>86.2</ele>
        <time>2023-05-31T12:13:45Z</time>
      </trkpt>
      <trkpt lat="49.87851" lon="2.04474">
        <ele>86.1</ele>
        <time>2023-05-31T12:13:46Z</time>
      </trkpt>
      <trkpt lat="49.87851" lon="2.04475">
        <ele>86.1</ele>
        <time>2023-05-31T12:13:47Z</time>
      </trkpt>
      <trkpt lat="49.87852" lon="2.04476">
        <ele>86</ele>
        <time>2023-05-31T12:13:48Z</time>
      </trkpt>
      <trkpt lat="49.87853" lon="2.04478">
        <ele>85.9</ele>
        <time>2023-05-31T12:13:50Z</time>
      </trkpt>
      <trkpt lat="49.87854" lon="2.0448">
        <ele>85.9</ele>
        <time>2023-05-31T12:13:51Z</time>
      </trkpt>
      <trkpt lat="49.87854" lon="2.04481">
        <ele>85.9</ele>
        <time>2023-05-31T12:13:52Z</time>
      </trkpt>
      <trkpt lat="49.87856" lon="2.04483">
        <ele>85.8</ele>
        <time>2023-05-31T12:13:53Z</time>
      </trkpt>
      <trkpt lat="49.87857" lon="2.04484">
        <ele>85.8</ele>
        <time>2023-05-31T12:13:54Z</time>
      </trkpt>
      <trkpt lat="49.87857" lon="2.04485">
        <ele>85.7</ele>
        <time>2023-05-31T12:13:55Z</time>
      </trkpt>
      <trkpt lat="49.87859" lon="2.04487">
        <ele>85.6</ele>
        <time>2023-05-31T12:13:56Z</time>
      </trkpt>
      <trkpt lat="49.87859" lon="2.04488">
        <ele>85.6</ele>
        <time>2023-05-31T12:13:57Z</time>
      </trkpt>
      <trkpt lat="49.8786" lon="2.04489">
        <ele>85.6</ele>
        <time>2023-05-31T12:13:58Z</time>
      </trkpt>
      <trkpt lat="49.87861" lon="2.0449">
        <ele>85.5</ele>
        <time>2023-05-31T12:13:59Z</time>
      </trkpt>
      <trkpt lat="49.87861" lon="2.04491">
        <ele>85.5</ele>
        <time>2023-05-31T12:14:00Z</time>
      </trkpt>
      <trkpt lat="49.87862" lon="2.04492">
        <ele>85.5</ele>
        <time>2023-05-31T12:14:01Z</time>
      </trkpt>
      <trkpt lat="49.87863" lon="2.04493">
        <ele>85.4</ele>
        <time>2023-05-31T12:14:03Z</time>
      </trkpt>
      <trkpt lat="49.87864" lon="2.04494">
        <ele>85.4</ele>
        <time>2023-05-31T12:14:04Z</time>
      </trkpt>
      <trkpt lat="49.87865" lon="2.04495">
        <ele>85.3</ele>
        <time>2023-05-31T12:14:05Z</time>
      </trkpt>
      <trkpt lat="49.87867" lon="2.04497">
        <ele>85.2</ele>
        <time>2023-05-31T12:14:06Z</time>
      </trkpt>
      <trkpt lat="49.87868" lon="2.04498">
        <ele>85.2</ele>
        <time>2023-05-31T12:14:08Z</time>
      </trkpt>
      <trkpt lat="49.87869" lon="2.04499">
        <ele>85.2</ele>
        <time>2023-05-31T12:14:09Z</time>
      </trkpt>
      <trkpt lat="49.8787" lon="2.04499">
        <ele>85.1</ele>
        <time>2023-05-31T12:14:10Z</time>
      </trkpt>
      <trkpt lat="49.87871" lon="2.045">
        <ele>85.1</ele>
        <time>2023-05-31T12:14:11Z</time>
      </trkpt>
      <trkpt lat="49.87872" lon="2.04501">
        <ele>85</ele>
        <time>2023-05-31T12:14:12Z</time>
      </trkpt>
      <trkpt lat="49.87873" lon="2.04502">
        <ele>85</ele>
        <time>2023-05-31T12:14:13Z</time>
      </trkpt>
      <trkpt lat="49.87875" lon="2.04503">
        <ele>84.9</ele>
        <time>2023-05-31T12:14:14Z</time>
      </trkpt>
      <trkpt lat="49.87876" lon="2.04504">
        <ele>84.9</ele>
        <time>2023-05-31T12:14:15Z</time>
      </trkpt>
      <trkpt lat="49.87878" lon="2.04505">
        <ele>84.8</ele>
        <time>2023-05-31T12:14:16Z</time>
      </trkpt>
      <trkpt lat="49.87879" lon="2.04505">
        <ele>84.7</ele>
        <time>2023-05-31T12:14:18Z</time>
      </trkpt>
      <trkpt lat="49.8788" lon="2.04506">
        <ele>84.7</ele>
        <time>2023-05-31T12:14:19Z</time>
      </trkpt>
      <trkpt lat="49.87882" lon="2.04506">
        <ele>84.6</ele>
        <time>2023-05-31T12:14:20Z</time>
      </trkpt>
      <trkpt lat="49.87883" lon="2.04507">
        <ele>84.6</ele>
        <time>2023-05-31T12:14:21Z</time>
      </trkpt>
      <trkpt lat="49.87884" lon="2.04507">
        <ele>84.5</ele>
        <time>2023-05-31T12:14:22Z</time>
      </trkpt>
      <trkpt lat="49.87885" lon="2.04508">
        <ele>84.5</ele>
        <time>2023-05-31T12:14:23Z</time>
      </trkpt>
      <trkpt lat="49.87887" lon="2.04508">
        <ele>84.4</ele>
        <time>2023-05-31T12:14:25Z</time>
      </trkpt>
      <trkpt lat="49.87888" lon="2.04509">
        <ele>84.4</ele>
        <time>2023-05-31T12:14:26Z</time>
      </trkpt>
      <trkpt lat="49.8789" lon="2.04509">
        <ele>84.3</ele>
        <time>2023-05-31T12:14:27Z</time>
      </trkpt>
      <trkpt lat="49.87891" lon="2.0451">
        <ele>84.3</ele>
        <time>2023-05-31T12:14:28Z</time>
      </trkpt>
      <trkpt lat="49.87893" lon="2.04511">
        <ele>84.2</ele>
        <time>2023-05-31T12:14:29Z</time>
      </trkpt>
      <trkpt lat="49.87894" lon="2.04511">
        <ele>84.1</ele>
        <time>2023-05-31T12:14:30Z</time>
      </trkpt>
      <trkpt lat="49.87896" lon="2.04512">
        <ele>84.1</ele>
        <time>2023-05-31T12:14:31Z</time>
      </trkpt>
      <trkpt lat="49.87898" lon="2.04513">
        <ele>84</ele>
        <time>2023-05-31T12:14:33Z</time>
      </trkpt>
      <trkpt lat="49.879" lon="2.04513">
        <ele>83.9</ele>
        <time>2023-05-31T12:14:35Z</time>
      </trkpt>
      <trkpt lat="49.87901" lon="2.04514">
        <ele>83.9</ele>
        <time>2023-05-31T12:14:36Z</time>
      </trkpt>
      <trkpt lat="49.87903" lon="2.04514">
        <ele>83.8</ele>
        <time>2023-05-31T12:14:37Z</time>
      </trkpt>
      <trkpt lat="49.87904" lon="2.04515">
        <ele>83.7</ele>
        <time>2023-05-31T12:14:38Z</time>
      </trkpt>
      <trkpt lat="49.87906" lon="2.04515">
        <ele>83.7</ele>
        <time>2023-05-31T12:14:39Z</time>
      </trkpt>
      <trkpt lat="49.87907" lon="2.04516">
        <ele>83.6</ele>
        <time>2023-05-31T12:14:40Z</time>
      </trkpt>
      <trkpt lat="49.87908" lon="2.04516">
        <ele>83.6</ele>
        <time>2023-05-31T12:14:41Z</time>
      </trkpt>
      <trkpt lat="49.8791" lon="2.04517">
        <ele>83.5</ele>
        <time>2023-05-31T12:14:42Z</time>
      </trkpt>
      <trkpt lat="49.87911" lon="2.04517">
        <ele>83.5</ele>
        <time>2023-05-31T12:14:43Z</time>
      </trkpt>
      <trkpt lat="49.87913" lon="2.04518">
        <ele>83.4</ele>
        <time>2023-05-31T12:14:45Z</time>
      </trkpt>
      <trkpt lat="49.87914" lon="2.04519">
        <ele>83.4</ele>
        <time>2023-05-31T12:14:46Z</time>
      </trkpt>
      <trkpt lat="49.87915" lon="2.04519">
        <ele>83.3</ele>
        <time>2023-05-31T12:14:47Z</time>
      </trkpt>
      <trkpt lat="49.87917" lon="2.0452">
        <ele>83.2</ele>
        <time>2023-05-31T12:14:48Z</time>
      </trkpt>
      <trkpt lat="49.87919" lon="2.04521">
        <ele>83.2</ele>
        <time>2023-05-31T12:14:49Z</time>
      </trkpt>
      <trkpt lat="49.8792" lon="2.04522">
        <ele>83.1</ele>
        <time>2023-05-31T12:14:51Z</time>
      </trkpt>
      <trkpt lat="49.8792" lon="2.04522">
        <ele>83.1</ele>
        <time>2023-05-31T12:14:52Z</time>
      </trkpt>
      <trkpt lat="49.87922" lon="2.04523">
        <ele>83</ele>
        <time>2023-05-31T12:14:53Z</time>
      </trkpt>
      <trkpt lat="49.87923" lon="2.04523">
        <ele>83</ele>
        <time>2023-05-31T12:14:54Z</time>
      </trkpt>
      <trkpt lat="49.87924" lon="2.04524">
        <ele>83</ele>
        <time>2023-05-31T12:14:55Z</time>
      </trkpt>
      <trkpt lat="49.87926" lon="2.04524">
        <ele>82.9</ele>
        <time>2023-05-31T12:14:56Z</time>
      </trkpt>
      <trkpt lat="49.87927" lon="2.04525">
        <ele>82.8</ele>
        <time>2023-05-31T12:14:57Z</time>
      </trkpt>
      <trkpt lat="49.87928" lon="2.04525">
        <ele>82.8</ele>
        <time>2023-05-31T12:14:58Z</time>
      </trkpt>
      <trkpt lat="49.8793" lon="2.04525">
        <ele>82.7</ele>
        <time>2023-05-31T12:14:59Z</time>
      </trkpt>
      <trkpt lat="49.87931" lon="2.04526">
        <ele>82.7</ele>
        <time>2023-05-31T12:15:01Z</time>
      </trkpt>
      <trkpt lat="49.87931" lon="2.04526">
        <ele>82.7</ele>
        <time>2023-05-31T12:15:02Z</time>
      </trkpt>
      <trkpt lat="49.87933" lon="2.04526">
        <ele>82.6</ele>
        <time>2023-05-31T12:15:03Z</time>
      </trkpt>
      <trkpt lat="49.87934" lon="2.04526">
        <ele>82.6</ele>
        <time>2023-05-31T12:15:04Z</time>
      </trkpt>
      <trkpt lat="49.87935" lon="2.04526">
        <ele>82.5</ele>
        <time>2023-05-31T12:15:05Z</time>
      </trkpt>
      <trkpt lat="49.87937" lon="2.04525">
        <ele>82.4</ele>
        <time>2023-05-31T12:15:06Z</time>
      </trkpt>
      <trkpt lat="49.87938" lon="2.04525">
        <ele>82.4</ele>
        <time>2023-05-31T12:15:07Z</time>
      </trkpt>
      <trkpt lat="49.87939" lon="2.04525">
        <ele>82.4</ele>
        <time>2023-05-31T12:15:08Z</time>
      </trkpt>
      <trkpt lat="49.8794" lon="2.04525">
        <ele>82.3</ele>
        <time>2023-05-31T12:15:09Z</time>
      </trkpt>
      <trkpt lat="49.87941" lon="2.04524">
        <ele>82.3</ele>
        <time>2023-05-31T12:15:10Z</time>
      </trkpt>
      <trkpt lat="49.87943" lon="2.04524">
        <ele>82.2</ele>
        <time>2023-05-31T12:15:12Z</time>
      </trkpt>
      <trkpt lat="49.87944" lon="2.04523">
        <ele>82.1</ele>
        <time>2023-05-31T12:15:13Z</time>
      </trkpt>
      <trkpt lat="49.87945" lon="2.04523">
        <ele>82.1</ele>
        <time>2023-05-31T12:15:14Z</time>
      </trkpt>
      <trkpt lat="49.87946" lon="2.04523">
        <ele>82.1</ele>
        <time>2023-05-31T12:15:15Z</time>
      </trkpt>
      <trkpt lat="49.87948" lon="2.04522">
        <ele>82</ele>
        <time>2023-05-31T12:15:16Z</time>
      </trkpt>
      <trkpt lat="49.87949" lon="2.04522">
        <ele>82</ele>
        <time>2023-05-31T12:15:17Z</time>
      </trkpt>
      <trkpt lat="49.8795" lon="2.04521">
        <ele>81.9</ele>
        <time>2023-05-31T12:15:18Z</time>
      </trkpt>
      <trkpt lat="49.87952" lon="2.04521">
        <ele>81.9</ele>
        <time>2023-05-31T12:15:20Z</time>
      </trkpt>
      <trkpt lat="49.87953" lon="2.0452">
        <ele>81.9</ele>
        <time>2023-05-31T12:15:21Z</time>
      </trkpt>
      <trkpt lat="49.87955" lon="2.0452">
        <ele>81.8</ele>
        <time>2023-05-31T12:15:22Z</time>
      </trkpt>
      <trkpt lat="49.87957" lon="2.04519">
        <ele>81.8</ele>
        <time>2023-05-31T12:15:24Z</time>
      </trkpt>
      <trkpt lat="49.87958" lon="2.04519">
        <ele>81.8</ele>
        <time>2023-05-31T12:15:25Z</time>
      </trkpt>
      <trkpt lat="49.87959" lon="2.04518">
        <ele>81.8</ele>
        <time>2023-05-31T12:15:26Z</time>
      </trkpt>
      <trkpt lat="49.8796" lon="2.04518">
        <ele>81.7</ele>
        <time>2023-05-31T12:15:27Z</time>
      </trkpt>
      <trkpt lat="49.87962" lon="2.04517">
        <ele>81.7</ele>
        <time>2023-05-31T12:15:28Z</time>
      </trkpt>
      <trkpt lat="49.87963" lon="2.04517">
        <ele>81.7</ele>
        <time>2023-05-31T12:15:29Z</time>
      </trkpt>
      <trkpt lat="49.87965" lon="2.04517">
        <ele>81.7</ele>
        <time>2023-05-31T12:15:30Z</time>
      </trkpt>
      <trkpt lat="49.87966" lon="2.04516">
        <ele>81.7</ele>
        <time>2023-05-31T12:15:31Z</time>
      </trkpt>
      <trkpt lat="49.87967" lon="2.04516">
        <ele>81.6</ele>
        <time>2023-05-31T12:15:32Z</time>
      </trkpt>
      <trkpt lat="49.87969" lon="2.04515">
        <ele>81.6</ele>
        <time>2023-05-31T12:15:33Z</time>
      </trkpt>
      <trkpt lat="49.8797" lon="2.04514">
        <ele>81.6</ele>
        <time>2023-05-31T12:15:35Z</time>
      </trkpt>
      <trkpt lat="49.87972" lon="2.04514">
        <ele>81.6</ele>
        <time>2023-05-31T12:15:37Z</time>
      </trkpt>
      <trkpt lat="49.87973" lon="2.04513">
        <ele>81.5</ele>
        <time>2023-05-31T12:15:38Z</time>
      </trkpt>
      <trkpt lat="49.87975" lon="2.04513">
        <ele>81.5</ele>
        <time>2023-05-31T12:15:39Z</time>
      </trkpt>
      <trkpt lat="49.87976" lon="2.04512">
        <ele>81.5</ele>
        <time>2023-05-31T12:15:40Z</time>
      </trkpt>
      <trkpt lat="49.87978" lon="2.04512">
        <ele>81.5</ele>
        <time>2023-05-31T12:15:41Z</time>
      </trkpt>
      <trkpt lat="49.87979" lon="2.04511">
        <ele>81.5</ele>
        <time>2023-05-31T12:15:42Z</time>
      </trkpt>
      <trkpt lat="49.8798" lon="2.04511">
        <ele>81.5</ele>
        <time>2023-05-31T12:15:43Z</time>
      </trkpt>
      <trkpt lat="49.87981" lon="2.0451">
        <ele>81.5</ele>
        <time>2023-05-31T12:15:45Z</time>
      </trkpt>
      <trkpt lat="49.87983" lon="2.0451">
        <ele>81.4</ele>
        <time>2023-05-31T12:15:46Z</time>
      </trkpt>
      <trkpt lat="49.87984" lon="2.04509">
        <ele>81.4</ele>
        <time>2023-05-31T12:15:47Z</time>
      </trkpt>
      <trkpt lat="49.87985" lon="2.04509">
        <ele>81.4</ele>
        <time>2023-05-31T12:15:48Z</time>
      </trkpt>
      <trkpt lat="49.87987" lon="2.04508">
        <ele>81.4</ele>
        <time>2023-05-31T12:15:49Z</time>
      </trkpt>
      <trkpt lat="49.87988" lon="2.04508">
        <ele>81.4</ele>
        <time>2023-05-31T12:15:50Z</time>
      </trkpt>
      <trkpt lat="49.87988" lon="2.04508">
        <ele>81.4</ele>
        <time>2023-05-31T12:15:51Z</time>
      </trkpt>
      <trkpt lat="49.8799" lon="2.04508">
        <ele>81.4</ele>
        <time>2023-05-31T12:15:52Z</time>
      </trkpt>
      <trkpt lat="49.87991" lon="2.04507">
        <ele>81.4</ele>
        <time>2023-05-31T12:15:53Z</time>
      </trkpt>
      <trkpt lat="49.87992" lon="2.04507">
        <ele>81.4</ele>
        <time>2023-05-31T12:15:55Z</time>
      </trkpt>
      <trkpt lat="49.87994" lon="2.04505">
        <ele>81.4</ele>
        <time>2023-05-31T12:15:56Z</time>
      </trkpt>
      <trkpt lat="49.87995" lon="2.04505">
        <ele>81.4</ele>
        <time>2023-05-31T12:15:57Z</time>
      </trkpt>
      <trkpt lat="49.87996" lon="2.04505">
        <ele>81.4</ele>
        <time>2023-05-31T12:15:58Z</time>
      </trkpt>
      <trkpt lat="49.87998" lon="2.04503">
        <ele>81.4</ele>
        <time>2023-05-31T12:15:59Z</time>
      </trkpt>
      <trkpt lat="49.87999" lon="2.04503">
        <ele>81.4</ele>
        <time>2023-05-31T12:16:00Z</time>
      </trkpt>
      <trkpt lat="49.87999" lon="2.04502">
        <ele>81.4</ele>
        <time>2023-05-31T12:16:01Z</time>
      </trkpt>
      <trkpt lat="49.88001" lon="2.04501">
        <ele>81.4</ele>
        <time>2023-05-31T12:16:03Z</time>
      </trkpt>
      <trkpt lat="49.88002" lon="2.04501">
        <ele>81.4</ele>
        <time>2023-05-31T12:16:04Z</time>
      </trkpt>
      <trkpt lat="49.88003" lon="2.04501">
        <ele>81.4</ele>
        <time>2023-05-31T12:16:05Z</time>
      </trkpt>
      <trkpt lat="49.88004" lon="2.045">
        <ele>81.4</ele>
        <time>2023-05-31T12:16:06Z</time>
      </trkpt>
      <trkpt lat="49.88005" lon="2.045">
        <ele>81.4</ele>
        <time>2023-05-31T12:16:07Z</time>
      </trkpt>
      <trkpt lat="49.88006" lon="2.045">
        <ele>81.4</ele>
        <time>2023-05-31T12:16:08Z</time>
      </trkpt>
      <trkpt lat="49.88007" lon="2.04499">
        <ele>81.4</ele>
        <time>2023-05-31T12:16:09Z</time>
      </trkpt>
      <trkpt lat="49.88008" lon="2.04499">
        <ele>81.4</ele>
        <time>2023-05-31T12:16:10Z</time>
      </trkpt>
      <trkpt lat="49.88009" lon="2.04499">
        <ele>81.4</ele>
        <time>2023-05-31T12:16:11Z</time>
      </trkpt>
      <trkpt lat="49.8801" lon="2.04499">
        <ele>81.4</ele>
        <time>2023-05-31T12:16:13Z</time>
      </trkpt>
      <trkpt lat="49.88011" lon="2.04498">
        <ele>81.4</ele>
        <time>2023-05-31T12:16:14Z</time>
      </trkpt>
      <trkpt lat="49.88012" lon="2.04498">
        <ele>81.5</ele>
        <time>2023-05-31T12:16:15Z</time>
      </trkpt>
      <trkpt lat="49.88014" lon="2.04497">
        <ele>81.5</ele>
        <time>2023-05-31T12:16:16Z</time>
      </trkpt>
      <trkpt lat="49.88015" lon="2.04496">
        <ele>81.6</ele>
        <time>2023-05-31T12:16:17Z</time>
      </trkpt>
      <trkpt lat="49.88016" lon="2.04496">
        <ele>81.6</ele>
        <time>2023-05-31T12:16:18Z</time>
      </trkpt>
      <trkpt lat="49.88017" lon="2.04496">
        <ele>81.6</ele>
        <time>2023-05-31T12:16:19Z</time>
      </trkpt>
      <trkpt lat="49.88019" lon="2.04496">
        <ele>81.7</ele>
        <time>2023-05-31T12:16:20Z</time>
      </trkpt>
      <trkpt lat="49.8802" lon="2.04495">
        <ele>81.7</ele>
        <time>2023-05-31T12:16:22Z</time>
      </trkpt>
      <trkpt lat="49.88022" lon="2.04494">
        <ele>81.8</ele>
        <time>2023-05-31T12:16:23Z</time>
      </trkpt>
      <trkpt lat="49.88023" lon="2.04494">
        <ele>81.8</ele>
        <time>2023-05-31T12:16:24Z</time>
      </trkpt>
      <trkpt lat="49.88024" lon="2.04494">
        <ele>81.8</ele>
        <time>2023-05-31T12:16:25Z</time>
      </trkpt>
      <trkpt lat="49.88026" lon="2.04492">
        <ele>81.9</ele>
        <time>2023-05-31T12:16:27Z</time>
      </trkpt>
      <trkpt lat="49.88027" lon="2.04492">
        <ele>81.9</ele>
        <time>2023-05-31T12:16:28Z</time>
      </trkpt>
      <trkpt lat="49.8803" lon="2.04491">
        <ele>82</ele>
        <time>2023-05-31T12:16:29Z</time>
      </trkpt>
      <trkpt lat="49.88031" lon="2.0449">
        <ele>82.1</ele>
        <time>2023-05-31T12:16:31Z</time>
      </trkpt>
      <trkpt lat="49.88033" lon="2.0449">
        <ele>82.1</ele>
        <time>2023-05-31T12:16:32Z</time>
      </trkpt>
      <trkpt lat="49.88034" lon="2.04489">
        <ele>82.1</ele>
        <time>2023-05-31T12:16:33Z</time>
      </trkpt>
      <trkpt lat="49.88035" lon="2.04489">
        <ele>82.2</ele>
        <time>2023-05-31T12:16:34Z</time>
      </trkpt>
      <trkpt lat="49.88037" lon="2.04488">
        <ele>82.2</ele>
        <time>2023-05-31T12:16:35Z</time>
      </trkpt>
      <trkpt lat="49.88038" lon="2.04488">
        <ele>82.3</ele>
        <time>2023-05-31T12:16:37Z</time>
      </trkpt>
      <trkpt lat="49.88039" lon="2.04488">
        <ele>82.3</ele>
        <time>2023-05-31T12:16:38Z</time>
      </trkpt>
      <trkpt lat="49.88041" lon="2.04488">
        <ele>82.3</ele>
        <time>2023-05-31T12:16:39Z</time>
      </trkpt>
      <trkpt lat="49.88042" lon="2.04488">
        <ele>82.4</ele>
        <time>2023-05-31T12:16:40Z</time>
      </trkpt>
      <trkpt lat="49.88044" lon="2.04487">
        <ele>82.4</ele>
        <time>2023-05-31T12:16:41Z</time>
      </trkpt>
      <trkpt lat="49.88046" lon="2.04487">
        <ele>82.5</ele>
        <time>2023-05-31T12:16:42Z</time>
      </trkpt>
      <trkpt lat="49.88047" lon="2.04487">
        <ele>82.5</ele>
        <time>2023-05-31T12:16:43Z</time>
      </trkpt>
      <trkpt lat="49.88048" lon="2.04487">
        <ele>82.5</ele>
        <time>2023-05-31T12:16:44Z</time>
      </trkpt>
      <trkpt lat="49.8805" lon="2.04486">
        <ele>82.6</ele>
        <time>2023-05-31T12:16:46Z</time>
      </trkpt>
      <trkpt lat="49.88051" lon="2.04486">
        <ele>82.6</ele>
        <time>2023-05-31T12:16:47Z</time>
      </trkpt>
      <trkpt lat="49.88052" lon="2.04486">
        <ele>82.6</ele>
        <time>2023-05-31T12:16:48Z</time>
      </trkpt>
      <trkpt lat="49.88054" lon="2.04485">
        <ele>82.7</ele>
        <time>2023-05-31T12:16:49Z</time>
      </trkpt>
      <trkpt lat="49.88055" lon="2.04485">
        <ele>82.7</ele>
        <time>2023-05-31T12:16:50Z</time>
      </trkpt>
      <trkpt lat="49.88055" lon="2.04485">
        <ele>82.7</ele>
        <time>2023-05-31T12:16:51Z</time>
      </trkpt>
      <trkpt lat="49.88057" lon="2.04484">
        <ele>82.8</ele>
        <time>2023-05-31T12:16:52Z</time>
      </trkpt>
      <trkpt lat="49.88058" lon="2.04483">
        <ele>82.8</ele>
        <time>2023-05-31T12:16:53Z</time>
      </trkpt>
      <trkpt lat="49.88059" lon="2.04483">
        <ele>82.8</ele>
        <time>2023-05-31T12:16:54Z</time>
      </trkpt>
      <trkpt lat="49.8806" lon="2.04482">
        <ele>82.8</ele>
        <time>2023-05-31T12:16:56Z</time>
      </trkpt>
      <trkpt lat="49.88062" lon="2.04482">
        <ele>82.9</ele>
        <time>2023-05-31T12:16:57Z</time>
      </trkpt>
      <trkpt lat="49.88063" lon="2.04481">
        <ele>82.9</ele>
        <time>2023-05-31T12:16:58Z</time>
      </trkpt>
      <trkpt lat="49.88064" lon="2.0448">
        <ele>82.9</ele>
        <time>2023-05-31T12:16:59Z</time>
      </trkpt>
      <trkpt lat="49.88066" lon="2.04479">
        <ele>83</ele>
        <time>2023-05-31T12:17:00Z</time>
      </trkpt>
      <trkpt lat="49.88067" lon="2.04478">
        <ele>83</ele>
        <time>2023-05-31T12:17:01Z</time>
      </trkpt>
      <trkpt lat="49.88068" lon="2.04478">
        <ele>83</ele>
        <time>2023-05-31T12:17:02Z</time>
      </trkpt>
      <trkpt lat="49.8807" lon="2.04477">
        <ele>83</ele>
        <time>2023-05-31T12:17:03Z</time>
      </trkpt>
      <trkpt lat="49.8807" lon="2.04477">
        <ele>83</ele>
        <time>2023-05-31T12:17:05Z</time>
      </trkpt>
      <trkpt lat="49.88071" lon="2.04476">
        <ele>83</ele>
        <time>2023-05-31T12:17:06Z</time>
      </trkpt>
      <trkpt lat="49.88073" lon="2.04476">
        <ele>83</ele>
        <time>2023-05-31T12:17:07Z</time>
      </trkpt>
      <trkpt lat="49.88074" lon="2.04475">
        <ele>83</ele>
        <time>2023-05-31T12:17:08Z</time>
      </trkpt>
      <trkpt lat="49.88076" lon="2.04474">
        <ele>83.1</ele>
        <time>2023-05-31T12:17:09Z</time>
      </trkpt>
      <trkpt lat="49.88077" lon="2.04474">
        <ele>83.1</ele>
        <time>2023-05-31T12:17:10Z</time>
      </trkpt>
      <trkpt lat="49.88078" lon="2.04474">
        <ele>83.1</ele>
        <time>2023-05-31T12:17:11Z</time>
      </trkpt>
      <trkpt lat="49.8808" lon="2.04473">
        <ele>83.1</ele>
        <time>2023-05-31T12:17:12Z</time>
      </trkpt>
      <trkpt lat="49.88081" lon="2.04473">
        <ele>83.1</ele>
        <time>2023-05-31T12:17:14Z</time>
      </trkpt>
      <trkpt lat="49.88081" lon="2.04472">
        <ele>83.1</ele>
        <time>2023-05-31T12:17:15Z</time>
      </trkpt>
      <trkpt lat="49.88084" lon="2.04471">
        <ele>83.1</ele>
        <time>2023-05-31T12:17:16Z</time>
      </trkpt>
      <trkpt lat="49.88084" lon="2.04471">
        <ele>83.1</ele>
        <time>2023-05-31T12:17:17Z</time>
      </trkpt>
      <trkpt lat="49.88085" lon="2.0447">
        <ele>83.1</ele>
        <time>2023-05-31T12:17:18Z</time>
      </trkpt>
      <trkpt lat="49.88086" lon="2.0447">
        <ele>83.2</ele>
        <time>2023-05-31T12:17:19Z</time>
      </trkpt>
      <trkpt lat="49.88087" lon="2.04469">
        <ele>83.2</ele>
        <time>2023-05-31T12:17:20Z</time>
      </trkpt>
      <trkpt lat="49.88088" lon="2.04469">
        <ele>83.2</ele>
        <time>2023-05-31T12:17:21Z</time>
      </trkpt>
      <trkpt lat="49.88091" lon="2.04469">
        <ele>83.2</ele>
        <time>2023-05-31T12:17:23Z</time>
      </trkpt>
      <trkpt lat="49.88092" lon="2.04468">
        <ele>83.2</ele>
        <time>2023-05-31T12:17:25Z</time>
      </trkpt>
      <trkpt lat="49.88093" lon="2.04468">
        <ele>83.2</ele>
        <time>2023-05-31T12:17:26Z</time>
      </trkpt>
      <trkpt lat="49.88094" lon="2.04467">
        <ele>83.3</ele>
        <time>2023-05-31T12:17:27Z</time>
      </trkpt>
      <trkpt lat="49.88095" lon="2.04467">
        <ele>83.3</ele>
        <time>2023-05-31T12:17:28Z</time>
      </trkpt>
      <trkpt lat="49.88097" lon="2.04466">
        <ele>83.3</ele>
        <time>2023-05-31T12:17:29Z</time>
      </trkpt>
      <trkpt lat="49.88098" lon="2.04466">
        <ele>83.4</ele>
        <time>2023-05-31T12:17:30Z</time>
      </trkpt>
      <trkpt lat="49.88099" lon="2.04466">
        <ele>83.4</ele>
        <time>2023-05-31T12:17:31Z</time>
      </trkpt>
      <trkpt lat="49.881" lon="2.04466">
        <ele>83.4</ele>
        <time>2023-05-31T12:17:32Z</time>
      </trkpt>
      <trkpt lat="49.88101" lon="2.04465">
        <ele>83.4</ele>
        <time>2023-05-31T12:17:33Z</time>
      </trkpt>
      <trkpt lat="49.88103" lon="2.04464">
        <ele>83.4</ele>
        <time>2023-05-31T12:17:35Z</time>
      </trkpt>
      <trkpt lat="49.88105" lon="2.04463">
        <ele>83.5</ele>
        <time>2023-05-31T12:17:36Z</time>
      </trkpt>
      <trkpt lat="49.88106" lon="2.04463">
        <ele>83.5</ele>
        <time>2023-05-31T12:17:37Z</time>
      </trkpt>
      <trkpt lat="49.88106" lon="2.04463">
        <ele>83.5</ele>
        <time>2023-05-31T12:17:38Z</time>
      </trkpt>
      <trkpt lat="49.88108" lon="2.04462">
        <ele>83.6</ele>
        <time>2023-05-31T12:17:39Z</time>
      </trkpt>
      <trkpt lat="49.88109" lon="2.04461">
        <ele>83.6</ele>
        <time>2023-05-31T12:17:40Z</time>
      </trkpt>
      <trkpt lat="49.88111" lon="2.0446">
        <ele>83.6</ele>
        <time>2023-05-31T12:17:41Z</time>
      </trkpt>
      <trkpt lat="49.88112" lon="2.0446">
        <ele>83.6</ele>
        <time>2023-05-31T12:17:42Z</time>
      </trkpt>
      <trkpt lat="49.88113" lon="2.0446">
        <ele>83.7</ele>
        <time>2023-05-31T12:17:43Z</time>
      </trkpt>
      <trkpt lat="49.88115" lon="2.04459">
        <ele>83.7</ele>
        <time>2023-05-31T12:17:45Z</time>
      </trkpt>
      <trkpt lat="49.88116" lon="2.04459">
        <ele>83.7</ele>
        <time>2023-05-31T12:17:46Z</time>
      </trkpt>
      <trkpt lat="49.88117" lon="2.04458">
        <ele>83.8</ele>
        <time>2023-05-31T12:17:47Z</time>
      </trkpt>
      <trkpt lat="49.88119" lon="2.04457">
        <ele>83.8</ele>
        <time>2023-05-31T12:17:48Z</time>
      </trkpt>
      <trkpt lat="49.8812" lon="2.04457">
        <ele>83.8</ele>
        <time>2023-05-31T12:17:50Z</time>
      </trkpt>
      <trkpt lat="49.88121" lon="2.04457">
        <ele>83.8</ele>
        <time>2023-05-31T12:17:51Z</time>
      </trkpt>
      <trkpt lat="49.88123" lon="2.04456">
        <ele>83.9</ele>
        <time>2023-05-31T12:17:52Z</time>
      </trkpt>
      <trkpt lat="49.88124" lon="2.04456">
        <ele>83.9</ele>
        <time>2023-05-31T12:17:53Z</time>
      </trkpt>
      <trkpt lat="49.88125" lon="2.04456">
        <ele>83.9</ele>
        <time>2023-05-31T12:17:54Z</time>
      </trkpt>
      <trkpt lat="49.88126" lon="2.04455">
        <ele>84</ele>
        <time>2023-05-31T12:17:55Z</time>
      </trkpt>
      <trkpt lat="49.88128" lon="2.04455">
        <ele>84</ele>
        <time>2023-05-31T12:17:56Z</time>
      </trkpt>
      <trkpt lat="49.88129" lon="2.04455">
        <ele>84</ele>
        <time>2023-05-31T12:17:57Z</time>
      </trkpt>
      <trkpt lat="49.8813" lon="2.04454">
        <ele>84</ele>
        <time>2023-05-31T12:17:59Z</time>
      </trkpt>
      <trkpt lat="49.88131" lon="2.04454">
        <ele>84.1</ele>
        <time>2023-05-31T12:18:00Z</time>
      </trkpt>
      <trkpt lat="49.88133" lon="2.04454">
        <ele>84.1</ele>
        <time>2023-05-31T12:18:01Z</time>
      </trkpt>
      <trkpt lat="49.88135" lon="2.04453">
        <ele>84.1</ele>
        <time>2023-05-31T12:18:03Z</time>
      </trkpt>
      <trkpt lat="49.88136" lon="2.04453">
        <ele>84.1</ele>
        <time>2023-05-31T12:18:04Z</time>
      </trkpt>
      <trkpt lat="49.88138" lon="2.04453">
        <ele>84.1</ele>
        <time>2023-05-31T12:18:05Z</time>
      </trkpt>
      <trkpt lat="49.88139" lon="2.04452">
        <ele>84.2</ele>
        <time>2023-05-31T12:18:06Z</time>
      </trkpt>
      <trkpt lat="49.88141" lon="2.04452">
        <ele>84.2</ele>
        <time>2023-05-31T12:18:07Z</time>
      </trkpt>
      <trkpt lat="49.88142" lon="2.04451">
        <ele>84.2</ele>
        <time>2023-05-31T12:18:08Z</time>
      </trkpt>
      <trkpt lat="49.88144" lon="2.0445">
        <ele>84.2</ele>
        <time>2023-05-31T12:18:10Z</time>
      </trkpt>
      <trkpt lat="49.88145" lon="2.0445">
        <ele>84.2</ele>
        <time>2023-05-31T12:18:11Z</time>
      </trkpt>
      <trkpt lat="49.88146" lon="2.0445">
        <ele>84.3</ele>
        <time>2023-05-31T12:18:12Z</time>
      </trkpt>
      <trkpt lat="49.88148" lon="2.04449">
        <ele>84.3</ele>
        <time>2023-05-31T12:18:13Z</time>
      </trkpt>
      <trkpt lat="49.88149" lon="2.04449">
        <ele>84.3</ele>
        <time>2023-05-31T12:18:14Z</time>
      </trkpt>
      <trkpt lat="49.88151" lon="2.04448">
        <ele>84.3</ele>
        <time>2023-05-31T12:18:15Z</time>
      </trkpt>
      <trkpt lat="49.88152" lon="2.04448">
        <ele>84.4</ele>
        <time>2023-05-31T12:18:16Z</time>
      </trkpt>
      <trkpt lat="49.88154" lon="2.04447">
        <ele>84.4</ele>
        <time>2023-05-31T12:18:17Z</time>
      </trkpt>
      <trkpt lat="49.88155" lon="2.04446">
        <ele>84.4</ele>
        <time>2023-05-31T12:18:18Z</time>
      </trkpt>
      <trkpt lat="49.88156" lon="2.04446">
        <ele>84.4</ele>
        <time>2023-05-31T12:18:20Z</time>
      </trkpt>
      <trkpt lat="49.88158" lon="2.04445">
        <ele>84.4</ele>
        <time>2023-05-31T12:18:21Z</time>
      </trkpt>
      <trkpt lat="49.88159" lon="2.04445">
        <ele>84.5</ele>
        <time>2023-05-31T12:18:22Z</time>
      </trkpt>
      <trkpt lat="49.8816" lon="2.04444">
        <ele>84.5</ele>
        <time>2023-05-31T12:18:23Z</time>
      </trkpt>
      <trkpt lat="49.88162" lon="2.04444">
        <ele>84.5</ele>
        <time>2023-05-31T12:18:25Z</time>
      </trkpt>
      <trkpt lat="49.88164" lon="2.04443">
        <ele>84.6</ele>
        <time>2023-05-31T12:18:26Z</time>
      </trkpt>
      <trkpt lat="49.88165" lon="2.04443">
        <ele>84.6</ele>
        <time>2023-05-31T12:18:27Z</time>
      </trkpt>
      <trkpt lat="49.88166" lon="2.04442">
        <ele>84.6</ele>
        <time>2023-05-31T12:18:28Z</time>
      </trkpt>
      <trkpt lat="49.88168" lon="2.04442">
        <ele>84.6</ele>
        <time>2023-05-31T12:18:29Z</time>
      </trkpt>
      <trkpt lat="49.88168" lon="2.04442">
        <ele>84.7</ele>
        <time>2023-05-31T12:18:30Z</time>
      </trkpt>
      <trkpt lat="49.88169" lon="2.04442">
        <ele>84.7</ele>
        <time>2023-05-31T12:18:31Z</time>
      </trkpt>
      <trkpt lat="49.88171" lon="2.04441">
        <ele>84.7</ele>
        <time>2023-05-31T12:18:32Z</time>
      </trkpt>
      <trkpt lat="49.88172" lon="2.04441">
        <ele>84.7</ele>
        <time>2023-05-31T12:18:33Z</time>
      </trkpt>
      <trkpt lat="49.88173" lon="2.04441">
        <ele>84.8</ele>
        <time>2023-05-31T12:18:35Z</time>
      </trkpt>
      <trkpt lat="49.88174" lon="2.04441">
        <ele>84.8</ele>
        <time>2023-05-31T12:18:36Z</time>
      </trkpt>
      <trkpt lat="49.88175" lon="2.0444">
        <ele>84.8</ele>
        <time>2023-05-31T12:18:37Z</time>
      </trkpt>
      <trkpt lat="49.88176" lon="2.0444">
        <ele>84.8</ele>
        <time>2023-05-31T12:18:38Z</time>
      </trkpt>
      <trkpt lat="49.88177" lon="2.0444">
        <ele>84.9</ele>
        <time>2023-05-31T12:18:39Z</time>
      </trkpt>
      <trkpt lat="49.88179" lon="2.0444">
        <ele>84.9</ele>
        <time>2023-05-31T12:18:40Z</time>
      </trkpt>
      <trkpt lat="49.88179" lon="2.0444">
        <ele>84.9</ele>
        <time>2023-05-31T12:18:41Z</time>
      </trkpt>
      <trkpt lat="49.8818" lon="2.0444">
        <ele>85</ele>
        <time>2023-05-31T12:18:42Z</time>
      </trkpt>
      <trkpt lat="49.88182" lon="2.04439">
        <ele>85</ele>
        <time>2023-05-31T12:18:44Z</time>
      </trkpt>
      <trkpt lat="49.88183" lon="2.04439">
        <ele>85</ele>
        <time>2023-05-31T12:18:45Z</time>
      </trkpt>
      <trkpt lat="49.88184" lon="2.04439">
        <ele>85.1</ele>
        <time>2023-05-31T12:18:46Z</time>
      </trkpt>
      <trkpt lat="49.88185" lon="2.04439">
        <ele>85.1</ele>
        <time>2023-05-31T12:18:47Z</time>
      </trkpt>
      <trkpt lat="49.88186" lon="2.04439">
        <ele>85.1</ele>
        <time>2023-05-31T12:18:48Z</time>
      </trkpt>
      <trkpt lat="49.88187" lon="2.04439">
        <ele>85.2</ele>
        <time>2023-05-31T12:18:49Z</time>
      </trkpt>
      <trkpt lat="49.88189" lon="2.04439">
        <ele>85.2</ele>
        <time>2023-05-31T12:18:50Z</time>
      </trkpt>
      <trkpt lat="49.8819" lon="2.04439">
        <ele>85.2</ele>
        <time>2023-05-31T12:18:51Z</time>
      </trkpt>
      <trkpt lat="49.88192" lon="2.04438">
        <ele>85.3</ele>
        <time>2023-05-31T12:18:52Z</time>
      </trkpt>
      <trkpt lat="49.88193" lon="2.04438">
        <ele>85.3</ele>
        <time>2023-05-31T12:18:53Z</time>
      </trkpt>
      <trkpt lat="49.88194" lon="2.04438">
        <ele>85.3</ele>
        <time>2023-05-31T12:18:54Z</time>
      </trkpt>
      <trkpt lat="49.88196" lon="2.04437">
        <ele>85.4</ele>
        <time>2023-05-31T12:18:56Z</time>
      </trkpt>
      <trkpt lat="49.88197" lon="2.04437">
        <ele>85.4</ele>
        <time>2023-05-31T12:18:57Z</time>
      </trkpt>
      <trkpt lat="49.88198" lon="2.04437">
        <ele>85.5</ele>
        <time>2023-05-31T12:18:58Z</time>
      </trkpt>
      <trkpt lat="49.882" lon="2.04436">
        <ele>85.5</ele>
        <time>2023-05-31T12:19:00Z</time>
      </trkpt>
      <trkpt lat="49.88201" lon="2.04436">
        <ele>85.5</ele>
        <time>2023-05-31T12:19:01Z</time>
      </trkpt>
      <trkpt lat="49.88202" lon="2.04436">
        <ele>85.5</ele>
        <time>2023-05-31T12:19:02Z</time>
      </trkpt>
      <trkpt lat="49.88203" lon="2.04435">
        <ele>85.5</ele>
        <time>2023-05-31T12:19:03Z</time>
      </trkpt>
      <trkpt lat="49.88204" lon="2.04435">
        <ele>85.6</ele>
        <time>2023-05-31T12:19:04Z</time>
      </trkpt>
      <trkpt lat="49.88207" lon="2.04434">
        <ele>85.6</ele>
        <time>2023-05-31T12:19:05Z</time>
      </trkpt>
      <trkpt lat="49.88207" lon="2.04434">
        <ele>85.6</ele>
        <time>2023-05-31T12:19:06Z</time>
      </trkpt>
      <trkpt lat="49.88208" lon="2.04433">
        <ele>85.6</ele>
        <time>2023-05-31T12:19:07Z</time>
      </trkpt>
      <trkpt lat="49.8821" lon="2.04432">
        <ele>85.7</ele>
        <time>2023-05-31T12:19:09Z</time>
      </trkpt>
      <trkpt lat="49.88211" lon="2.04431">
        <ele>85.7</ele>
        <time>2023-05-31T12:19:10Z</time>
      </trkpt>
      <trkpt lat="49.88212" lon="2.04431">
        <ele>85.7</ele>
        <time>2023-05-31T12:19:11Z</time>
      </trkpt>
      <trkpt lat="49.88213" lon="2.0443">
        <ele>85.8</ele>
        <time>2023-05-31T12:19:12Z</time>
      </trkpt>
      <trkpt lat="49.88215" lon="2.0443">
        <ele>85.8</ele>
        <time>2023-05-31T12:19:13Z</time>
      </trkpt>
      <trkpt lat="49.88216" lon="2.04429">
        <ele>85.9</ele>
        <time>2023-05-31T12:19:14Z</time>
      </trkpt>
      <trkpt lat="49.88218" lon="2.04429">
        <ele>85.9</ele>
        <time>2023-05-31T12:19:15Z</time>
      </trkpt>
      <trkpt lat="49.8822" lon="2.04427">
        <ele>86</ele>
        <time>2023-05-31T12:19:17Z</time>
      </trkpt>
      <trkpt lat="49.8822" lon="2.04426">
        <ele>86</ele>
        <time>2023-05-31T12:19:18Z</time>
      </trkpt>
      <trkpt lat="49.88221" lon="2.04426">
        <ele>86.1</ele>
        <time>2023-05-31T12:19:19Z</time>
      </trkpt>
      <trkpt lat="49.88222" lon="2.04425">
        <ele>86.2</ele>
        <time>2023-05-31T12:19:20Z</time>
      </trkpt>
      <trkpt lat="49.88224" lon="2.04424">
        <ele>86.2</ele>
        <time>2023-05-31T12:19:21Z</time>
      </trkpt>
      <trkpt lat="49.88226" lon="2.04423">
        <ele>86.3</ele>
        <time>2023-05-31T12:19:22Z</time>
      </trkpt>
      <trkpt lat="49.88227" lon="2.04423">
        <ele>86.4</ele>
        <time>2023-05-31T12:19:23Z</time>
      </trkpt>
      <trkpt lat="49.88228" lon="2.04423">
        <ele>86.4</ele>
        <time>2023-05-31T12:19:24Z</time>
      </trkpt>
      <trkpt lat="49.88229" lon="2.04422">
        <ele>86.4</ele>
        <time>2023-05-31T12:19:26Z</time>
      </trkpt>
      <trkpt lat="49.8823" lon="2.04422">
        <ele>86.5</ele>
        <time>2023-05-31T12:19:27Z</time>
      </trkpt>
      <trkpt lat="49.88231" lon="2.04421">
        <ele>86.6</ele>
        <time>2023-05-31T12:19:28Z</time>
      </trkpt>
      <trkpt lat="49.88232" lon="2.04421">
        <ele>86.6</ele>
        <time>2023-05-31T12:19:29Z</time>
      </trkpt>
      <trkpt lat="49.88233" lon="2.0442">
        <ele>86.7</ele>
        <time>2023-05-31T12:19:30Z</time>
      </trkpt>
      <trkpt lat="49.88234" lon="2.0442">
        <ele>86.7</ele>
        <time>2023-05-31T12:19:31Z</time>
      </trkpt>
      <trkpt lat="49.88235" lon="2.04419">
        <ele>86.8</ele>
        <time>2023-05-31T12:19:33Z</time>
      </trkpt>
      <trkpt lat="49.88236" lon="2.04419">
        <ele>86.8</ele>
        <time>2023-05-31T12:19:34Z</time>
      </trkpt>
      <trkpt lat="49.88237" lon="2.04419">
        <ele>86.8</ele>
        <time>2023-05-31T12:19:35Z</time>
      </trkpt>
      <trkpt lat="49.88239" lon="2.04418">
        <ele>86.9</ele>
        <time>2023-05-31T12:19:36Z</time>
      </trkpt>
      <trkpt lat="49.8824" lon="2.04418">
        <ele>87</ele>
        <time>2023-05-31T12:19:37Z</time>
      </trkpt>
      <trkpt lat="49.88241" lon="2.04418">
        <ele>87</ele>
        <time>2023-05-31T12:19:38Z</time>
      </trkpt>
      <trkpt lat="49.88242" lon="2.04418">
        <ele>87.1</ele>
        <time>2023-05-31T12:19:39Z</time>
      </trkpt>
      <trkpt lat="49.88243" lon="2.04417">
        <ele>87.1</ele>
        <time>2023-05-31T12:19:41Z</time>
      </trkpt>
      <trkpt lat="49.88244" lon="2.04417">
        <ele>87.2</ele>
        <time>2023-05-31T12:19:42Z</time>
      </trkpt>
      <trkpt lat="49.88246" lon="2.04417">
        <ele>87.2</ele>
        <time>2023-05-31T12:19:43Z</time>
      </trkpt>
      <trkpt lat="49.88247" lon="2.04416">
        <ele>87.3</ele>
        <time>2023-05-31T12:19:44Z</time>
      </trkpt>
      <trkpt lat="49.88248" lon="2.04416">
        <ele>87.3</ele>
        <time>2023-05-31T12:19:45Z</time>
      </trkpt>
      <trkpt lat="49.8825" lon="2.04416">
        <ele>87.4</ele>
        <time>2023-05-31T12:19:46Z</time>
      </trkpt>
      <trkpt lat="49.88251" lon="2.04416">
        <ele>87.5</ele>
        <time>2023-05-31T12:19:48Z</time>
      </trkpt>
      <trkpt lat="49.88252" lon="2.04416">
        <ele>87.5</ele>
        <time>2023-05-31T12:19:49Z</time>
      </trkpt>
      <trkpt lat="49.88254" lon="2.04416">
        <ele>87.6</ele>
        <time>2023-05-31T12:19:50Z</time>
      </trkpt>
      <trkpt lat="49.88255" lon="2.04416">
        <ele>87.6</ele>
        <time>2023-05-31T12:19:51Z</time>
      </trkpt>
      <trkpt lat="49.88256" lon="2.04415">
        <ele>87.7</ele>
        <time>2023-05-31T12:19:52Z</time>
      </trkpt>
      <trkpt lat="49.88257" lon="2.04415">
        <ele>87.7</ele>
        <time>2023-05-31T12:19:53Z</time>
      </trkpt>
      <trkpt lat="49.88258" lon="2.04415">
        <ele>87.8</ele>
        <time>2023-05-31T12:19:54Z</time>
      </trkpt>
      <trkpt lat="49.8826" lon="2.04415">
        <ele>87.9</ele>
        <time>2023-05-31T12:19:56Z</time>
      </trkpt>
      <trkpt lat="49.88261" lon="2.04415">
        <ele>87.9</ele>
        <time>2023-05-31T12:19:57Z</time>
      </trkpt>
      <trkpt lat="49.88262" lon="2.04415">
        <ele>87.9</ele>
        <time>2023-05-31T12:19:58Z</time>
      </trkpt>
      <trkpt lat="49.88263" lon="2.04415">
        <ele>88</ele>
        <time>2023-05-31T12:19:59Z</time>
      </trkpt>
      <trkpt lat="49.88264" lon="2.04415">
        <ele>88</ele>
        <time>2023-05-31T12:20:00Z</time>
      </trkpt>
      <trkpt lat="49.88265" lon="2.04415">
        <ele>88.1</ele>
        <time>2023-05-31T12:20:01Z</time>
      </trkpt>
      <trkpt lat="49.88266" lon="2.04415">
        <ele>88.1</ele>
        <time>2023-05-31T12:20:03Z</time>
      </trkpt>
      <trkpt lat="49.88267" lon="2.04415">
        <ele>88.2</ele>
        <time>2023-05-31T12:20:04Z</time>
      </trkpt>
      <trkpt lat="49.88268" lon="2.04415">
        <ele>88.2</ele>
        <time>2023-05-31T12:20:05Z</time>
      </trkpt>
      <trkpt lat="49.88269" lon="2.04415">
        <ele>88.3</ele>
        <time>2023-05-31T12:20:06Z</time>
      </trkpt>
      <trkpt lat="49.88272" lon="2.04414">
        <ele>88.3</ele>
        <time>2023-05-31T12:20:07Z</time>
      </trkpt>
      <trkpt lat="49.88272" lon="2.04414">
        <ele>88.4</ele>
        <time>2023-05-31T12:20:08Z</time>
      </trkpt>
      <trkpt lat="49.88273" lon="2.04413">
        <ele>88.4</ele>
        <time>2023-05-31T12:20:09Z</time>
      </trkpt>
      <trkpt lat="49.88274" lon="2.04413">
        <ele>88.4</ele>
        <time>2023-05-31T12:20:11Z</time>
      </trkpt>
      <trkpt lat="49.88275" lon="2.04413">
        <ele>88.5</ele>
        <time>2023-05-31T12:20:12Z</time>
      </trkpt>
      <trkpt lat="49.88276" lon="2.04412">
        <ele>88.5</ele>
        <time>2023-05-31T12:20:13Z</time>
      </trkpt>
      <trkpt lat="49.88278" lon="2.04411">
        <ele>88.6</ele>
        <time>2023-05-31T12:20:14Z</time>
      </trkpt>
      <trkpt lat="49.88279" lon="2.0441">
        <ele>88.6</ele>
        <time>2023-05-31T12:20:15Z</time>
      </trkpt>
      <trkpt lat="49.8828" lon="2.0441">
        <ele>88.6</ele>
        <time>2023-05-31T12:20:16Z</time>
      </trkpt>
      <trkpt lat="49.88281" lon="2.04409">
        <ele>88.7</ele>
        <time>2023-05-31T12:20:17Z</time>
      </trkpt>
      <trkpt lat="49.88282" lon="2.04408">
        <ele>88.7</ele>
        <time>2023-05-31T12:20:18Z</time>
      </trkpt>
      <trkpt lat="49.88283" lon="2.04407">
        <ele>88.7</ele>
        <time>2023-05-31T12:20:20Z</time>
      </trkpt>
      <trkpt lat="49.88284" lon="2.04406">
        <ele>88.8</ele>
        <time>2023-05-31T12:20:21Z</time>
      </trkpt>
      <trkpt lat="49.88285" lon="2.04405">
        <ele>88.8</ele>
        <time>2023-05-31T12:20:22Z</time>
      </trkpt>
      <trkpt lat="49.88287" lon="2.04404">
        <ele>88.9</ele>
        <time>2023-05-31T12:20:23Z</time>
      </trkpt>
      <trkpt lat="49.88288" lon="2.04403">
        <ele>88.9</ele>
        <time>2023-05-31T12:20:24Z</time>
      </trkpt>
      <trkpt lat="49.88289" lon="2.04402">
        <ele>89</ele>
        <time>2023-05-31T12:20:25Z</time>
      </trkpt>
      <trkpt lat="49.8829" lon="2.04401">
        <ele>89</ele>
        <time>2023-05-31T12:20:26Z</time>
      </trkpt>
      <trkpt lat="49.88292" lon="2.04401">
        <ele>89.1</ele>
        <time>2023-05-31T12:20:28Z</time>
      </trkpt>
      <trkpt lat="49.88293" lon="2.044">
        <ele>89.1</ele>
        <time>2023-05-31T12:20:29Z</time>
      </trkpt>
      <trkpt lat="49.88294" lon="2.044">
        <ele>89.1</ele>
        <time>2023-05-31T12:20:30Z</time>
      </trkpt>
      <trkpt lat="49.88295" lon="2.04399">
        <ele>89.2</ele>
        <time>2023-05-31T12:20:31Z</time>
      </trkpt>
      <trkpt lat="49.88296" lon="2.04399">
        <ele>89.2</ele>
        <time>2023-05-31T12:20:32Z</time>
      </trkpt>
      <trkpt lat="49.88297" lon="2.04398">
        <ele>89.3</ele>
        <time>2023-05-31T12:20:33Z</time>
      </trkpt>
      <trkpt lat="49.88298" lon="2.04398">
        <ele>89.3</ele>
        <time>2023-05-31T12:20:34Z</time>
      </trkpt>
      <trkpt lat="49.88299" lon="2.04398">
        <ele>89.4</ele>
        <time>2023-05-31T12:20:36Z</time>
      </trkpt>
      <trkpt lat="49.883" lon="2.04397">
        <ele>89.4</ele>
        <time>2023-05-31T12:20:37Z</time>
      </trkpt>
      <trkpt lat="49.88301" lon="2.04397">
        <ele>89.4</ele>
        <time>2023-05-31T12:20:38Z</time>
      </trkpt>
      <trkpt lat="49.88303" lon="2.04397">
        <ele>89.5</ele>
        <time>2023-05-31T12:20:39Z</time>
      </trkpt>
      <trkpt lat="49.88304" lon="2.04396">
        <ele>89.5</ele>
        <time>2023-05-31T12:20:40Z</time>
      </trkpt>
      <trkpt lat="49.88305" lon="2.04396">
        <ele>89.6</ele>
        <time>2023-05-31T12:20:41Z</time>
      </trkpt>
      <trkpt lat="49.88306" lon="2.04396">
        <ele>89.6</ele>
        <time>2023-05-31T12:20:42Z</time>
      </trkpt>
      <trkpt lat="49.88307" lon="2.04395">
        <ele>89.7</ele>
        <time>2023-05-31T12:20:44Z</time>
      </trkpt>
      <trkpt lat="49.88308" lon="2.04395">
        <ele>89.7</ele>
        <time>2023-05-31T12:20:45Z</time>
      </trkpt>
      <trkpt lat="49.88309" lon="2.04395">
        <ele>89.7</ele>
        <time>2023-05-31T12:20:46Z</time>
      </trkpt>
      <trkpt lat="49.88311" lon="2.04395">
        <ele>89.8</ele>
        <time>2023-05-31T12:20:47Z</time>
      </trkpt>
      <trkpt lat="49.88312" lon="2.04394">
        <ele>89.8</ele>
        <time>2023-05-31T12:20:48Z</time>
      </trkpt>
      <trkpt lat="49.88313" lon="2.04394">
        <ele>89.9</ele>
        <time>2023-05-31T12:20:49Z</time>
      </trkpt>
      <trkpt lat="49.88314" lon="2.04394">
        <ele>89.9</ele>
        <time>2023-05-31T12:20:50Z</time>
      </trkpt>
      <trkpt lat="49.88315" lon="2.04393">
        <ele>89.9</ele>
        <time>2023-05-31T12:20:52Z</time>
      </trkpt>
      <trkpt lat="49.88316" lon="2.04393">
        <ele>90</ele>
        <time>2023-05-31T12:20:53Z</time>
      </trkpt>
      <trkpt lat="49.88317" lon="2.04393">
        <ele>90</ele>
        <time>2023-05-31T12:20:54Z</time>
      </trkpt>
      <trkpt lat="49.88319" lon="2.04393">
        <ele>90</ele>
        <time>2023-05-31T12:20:55Z</time>
      </trkpt>
      <trkpt lat="49.8832" lon="2.04392">
        <ele>90.1</ele>
        <time>2023-05-31T12:20:56Z</time>
      </trkpt>
      <trkpt lat="49.88321" lon="2.04392">
        <ele>90.1</ele>
        <time>2023-05-31T12:20:57Z</time>
      </trkpt>
      <trkpt lat="49.88322" lon="2.04392">
        <ele>90.2</ele>
        <time>2023-05-31T12:20:59Z</time>
      </trkpt>
      <trkpt lat="49.88323" lon="2.04392">
        <ele>90.2</ele>
        <time>2023-05-31T12:21:00Z</time>
      </trkpt>
      <trkpt lat="49.88324" lon="2.04392">
        <ele>90.2</ele>
        <time>2023-05-31T12:21:01Z</time>
      </trkpt>
      <trkpt lat="49.88325" lon="2.04391">
        <ele>90.3</ele>
        <time>2023-05-31T12:21:02Z</time>
      </trkpt>
      <trkpt lat="49.88327" lon="2.04391">
        <ele>90.3</ele>
        <time>2023-05-31T12:21:03Z</time>
      </trkpt>
      <trkpt lat="49.88328" lon="2.0439">
        <ele>90.3</ele>
        <time>2023-05-31T12:21:04Z</time>
      </trkpt>
      <trkpt lat="49.88329" lon="2.0439">
        <ele>90.4</ele>
        <time>2023-05-31T12:21:05Z</time>
      </trkpt>
      <trkpt lat="49.88331" lon="2.0439">
        <ele>90.4</ele>
        <time>2023-05-31T12:21:07Z</time>
      </trkpt>
      <trkpt lat="49.88332" lon="2.04389">
        <ele>90.5</ele>
        <time>2023-05-31T12:21:08Z</time>
      </trkpt>
      <trkpt lat="49.88333" lon="2.04389">
        <ele>90.5</ele>
        <time>2023-05-31T12:21:09Z</time>
      </trkpt>
      <trkpt lat="49.88335" lon="2.04389">
        <ele>90.6</ele>
        <time>2023-05-31T12:21:10Z</time>
      </trkpt>
      <trkpt lat="49.88336" lon="2.04388">
        <ele>90.6</ele>
        <time>2023-05-31T12:21:11Z</time>
      </trkpt>
      <trkpt lat="49.88336" lon="2.04388">
        <ele>90.6</ele>
        <time>2023-05-31T12:21:12Z</time>
      </trkpt>
      <trkpt lat="49.88339" lon="2.04387">
        <ele>90.7</ele>
        <time>2023-05-31T12:21:13Z</time>
      </trkpt>
      <trkpt lat="49.88339" lon="2.04387">
        <ele>90.7</ele>
        <time>2023-05-31T12:21:15Z</time>
      </trkpt>
      <trkpt lat="49.8834" lon="2.04387">
        <ele>90.7</ele>
        <time>2023-05-31T12:21:16Z</time>
      </trkpt>
      <trkpt lat="49.88342" lon="2.04386">
        <ele>90.8</ele>
        <time>2023-05-31T12:21:17Z</time>
      </trkpt>
      <trkpt lat="49.88343" lon="2.04386">
        <ele>90.9</ele>
        <time>2023-05-31T12:21:18Z</time>
      </trkpt>
      <trkpt lat="49.88344" lon="2.04385">
        <ele>90.9</ele>
        <time>2023-05-31T12:21:19Z</time>
      </trkpt>
      <trkpt lat="49.88345" lon="2.04385">
        <ele>91</ele>
        <time>2023-05-31T12:21:20Z</time>
      </trkpt>
      <trkpt lat="49.88347" lon="2.04384">
        <ele>91</ele>
        <time>2023-05-31T12:21:22Z</time>
      </trkpt>
      <trkpt lat="49.88348" lon="2.04383">
        <ele>91.1</ele>
        <time>2023-05-31T12:21:23Z</time>
      </trkpt>
      <trkpt lat="49.88349" lon="2.04382">
        <ele>91.2</ele>
        <time>2023-05-31T12:21:24Z</time>
      </trkpt>
      <trkpt lat="49.88351" lon="2.04382">
        <ele>91.2</ele>
        <time>2023-05-31T12:21:25Z</time>
      </trkpt>
      <trkpt lat="49.88352" lon="2.04381">
        <ele>91.3</ele>
        <time>2023-05-31T12:21:26Z</time>
      </trkpt>
      <trkpt lat="49.88354" lon="2.04381">
        <ele>91.4</ele>
        <time>2023-05-31T12:21:27Z</time>
      </trkpt>
      <trkpt lat="49.88355" lon="2.0438">
        <ele>91.4</ele>
        <time>2023-05-31T12:21:29Z</time>
      </trkpt>
      <trkpt lat="49.88356" lon="2.04379">
        <ele>91.5</ele>
        <time>2023-05-31T12:21:30Z</time>
      </trkpt>
      <trkpt lat="49.88358" lon="2.04379">
        <ele>91.6</ele>
        <time>2023-05-31T12:21:31Z</time>
      </trkpt>
      <trkpt lat="49.88359" lon="2.04378">
        <ele>91.7</ele>
        <time>2023-05-31T12:21:32Z</time>
      </trkpt>
      <trkpt lat="49.88361" lon="2.04377">
        <ele>91.7</ele>
        <time>2023-05-31T12:21:33Z</time>
      </trkpt>
      <trkpt lat="49.88363" lon="2.04376">
        <ele>91.9</ele>
        <time>2023-05-31T12:21:34Z</time>
      </trkpt>
      <trkpt lat="49.88364" lon="2.04376">
        <ele>91.9</ele>
        <time>2023-05-31T12:21:36Z</time>
      </trkpt>
      <trkpt lat="49.88365" lon="2.04375">
        <ele>92</ele>
        <time>2023-05-31T12:21:37Z</time>
      </trkpt>
      <trkpt lat="49.88366" lon="2.04375">
        <ele>92.1</ele>
        <time>2023-05-31T12:21:38Z</time>
      </trkpt>
      <trkpt lat="49.88367" lon="2.04375">
        <ele>92.1</ele>
        <time>2023-05-31T12:21:39Z</time>
      </trkpt>
      <trkpt lat="49.88368" lon="2.04374">
        <ele>92.2</ele>
        <time>2023-05-31T12:21:40Z</time>
      </trkpt>
      <trkpt lat="49.8837" lon="2.04374">
        <ele>92.3</ele>
        <time>2023-05-31T12:21:41Z</time>
      </trkpt>
      <trkpt lat="49.88372" lon="2.04373">
        <ele>92.4</ele>
        <time>2023-05-31T12:21:43Z</time>
      </trkpt>
      <trkpt lat="49.88373" lon="2.04373">
        <ele>92.4</ele>
        <time>2023-05-31T12:21:44Z</time>
      </trkpt>
      <trkpt lat="49.88374" lon="2.04373">
        <ele>92.5</ele>
        <time>2023-05-31T12:21:45Z</time>
      </trkpt>
      <trkpt lat="49.88375" lon="2.04373">
        <ele>92.6</ele>
        <time>2023-05-31T12:21:47Z</time>
      </trkpt>
      <trkpt lat="49.88376" lon="2.04372">
        <ele>92.6</ele>
        <time>2023-05-31T12:21:48Z</time>
      </trkpt>
      <trkpt lat="49.88377" lon="2.04372">
        <ele>92.7</ele>
        <time>2023-05-31T12:21:49Z</time>
      </trkpt>
      <trkpt lat="49.88378" lon="2.04372">
        <ele>92.8</ele>
        <time>2023-05-31T12:21:50Z</time>
      </trkpt>
      <trkpt lat="49.88379" lon="2.04372">
        <ele>92.8</ele>
        <time>2023-05-31T12:21:51Z</time>
      </trkpt>
      <trkpt lat="49.88381" lon="2.04372">
        <ele>92.9</ele>
        <time>2023-05-31T12:21:53Z</time>
      </trkpt>
      <trkpt lat="49.88382" lon="2.04372">
        <ele>93</ele>
        <time>2023-05-31T12:21:54Z</time>
      </trkpt>
      <trkpt lat="49.88383" lon="2.04371">
        <ele>93</ele>
        <time>2023-05-31T12:21:55Z</time>
      </trkpt>
      <trkpt lat="49.88384" lon="2.04371">
        <ele>93.1</ele>
        <time>2023-05-31T12:21:56Z</time>
      </trkpt>
      <trkpt lat="49.88385" lon="2.04371">
        <ele>93.2</ele>
        <time>2023-05-31T12:21:57Z</time>
      </trkpt>
      <trkpt lat="49.88386" lon="2.04371">
        <ele>93.2</ele>
        <time>2023-05-31T12:21:58Z</time>
      </trkpt>
      <trkpt lat="49.88387" lon="2.04371">
        <ele>93.3</ele>
        <time>2023-05-31T12:22:00Z</time>
      </trkpt>
      <trkpt lat="49.88388" lon="2.04371">
        <ele>93.3</ele>
        <time>2023-05-31T12:22:01Z</time>
      </trkpt>
      <trkpt lat="49.88389" lon="2.04372">
        <ele>93.4</ele>
        <time>2023-05-31T12:22:02Z</time>
      </trkpt>
      <trkpt lat="49.8839" lon="2.04372">
        <ele>93.5</ele>
        <time>2023-05-31T12:22:03Z</time>
      </trkpt>
      <trkpt lat="49.88391" lon="2.04372">
        <ele>93.5</ele>
        <time>2023-05-31T12:22:04Z</time>
      </trkpt>
      <trkpt lat="49.88392" lon="2.04373">
        <ele>93.6</ele>
        <time>2023-05-31T12:22:05Z</time>
      </trkpt>
      <trkpt lat="49.88393" lon="2.04373">
        <ele>93.6</ele>
        <time>2023-05-31T12:22:06Z</time>
      </trkpt>
      <trkpt lat="49.88394" lon="2.04374">
        <ele>93.7</ele>
        <time>2023-05-31T12:22:07Z</time>
      </trkpt>
      <trkpt lat="49.88395" lon="2.04374">
        <ele>93.8</ele>
        <time>2023-05-31T12:22:08Z</time>
      </trkpt>
      <trkpt lat="49.88398" lon="2.04375">
        <ele>93.9</ele>
        <time>2023-05-31T12:22:10Z</time>
      </trkpt>
      <trkpt lat="49.88398" lon="2.04375">
        <ele>93.9</ele>
        <time>2023-05-31T12:22:11Z</time>
      </trkpt>
      <trkpt lat="49.88399" lon="2.04375">
        <ele>94</ele>
        <time>2023-05-31T12:22:12Z</time>
      </trkpt>
      <trkpt lat="49.88401" lon="2.04376">
        <ele>94</ele>
        <time>2023-05-31T12:22:13Z</time>
      </trkpt>
      <trkpt lat="49.88402" lon="2.04376">
        <ele>94.1</ele>
        <time>2023-05-31T12:22:14Z</time>
      </trkpt>
      <trkpt lat="49.88403" lon="2.04376">
        <ele>94.1</ele>
        <time>2023-05-31T12:22:16Z</time>
      </trkpt>
      <trkpt lat="49.88405" lon="2.04377">
        <ele>94.2</ele>
        <time>2023-05-31T12:22:17Z</time>
      </trkpt>
      <trkpt lat="49.88406" lon="2.04377">
        <ele>94.2</ele>
        <time>2023-05-31T12:22:18Z</time>
      </trkpt>
      <trkpt lat="49.88407" lon="2.04377">
        <ele>94.3</ele>
        <time>2023-05-31T12:22:19Z</time>
      </trkpt>
      <trkpt lat="49.88408" lon="2.04378">
        <ele>94.3</ele>
        <time>2023-05-31T12:22:20Z</time>
      </trkpt>
      <trkpt lat="49.88409" lon="2.04378">
        <ele>94.4</ele>
        <time>2023-05-31T12:22:22Z</time>
      </trkpt>
      <trkpt lat="49.8841" lon="2.04379">
        <ele>94.4</ele>
        <time>2023-05-31T12:22:23Z</time>
      </trkpt>
      <trkpt lat="49.88412" lon="2.04379">
        <ele>94.5</ele>
        <time>2023-05-31T12:22:24Z</time>
      </trkpt>
      <trkpt lat="49.88413" lon="2.0438">
        <ele>94.5</ele>
        <time>2023-05-31T12:22:25Z</time>
      </trkpt>
      <trkpt lat="49.88414" lon="2.0438">
        <ele>94.6</ele>
        <time>2023-05-31T12:22:26Z</time>
      </trkpt>
      <trkpt lat="49.88415" lon="2.04381">
        <ele>94.6</ele>
        <time>2023-05-31T12:22:27Z</time>
      </trkpt>
      <trkpt lat="49.88417" lon="2.04382">
        <ele>94.6</ele>
        <time>2023-05-31T12:22:28Z</time>
      </trkpt>
      <trkpt lat="49.88418" lon="2.04382">
        <ele>94.7</ele>
        <time>2023-05-31T12:22:29Z</time>
      </trkpt>
      <trkpt lat="49.88419" lon="2.04383">
        <ele>94.7</ele>
        <time>2023-05-31T12:22:30Z</time>
      </trkpt>
      <trkpt lat="49.88421" lon="2.04384">
        <ele>94.8</ele>
        <time>2023-05-31T12:22:32Z</time>
      </trkpt>
      <trkpt lat="49.88422" lon="2.04385">
        <ele>94.8</ele>
        <time>2023-05-31T12:22:33Z</time>
      </trkpt>
      <trkpt lat="49.88423" lon="2.04385">
        <ele>94.8</ele>
        <time>2023-05-31T12:22:34Z</time>
      </trkpt>
      <trkpt lat="49.88425" lon="2.04386">
        <ele>94.9</ele>
        <time>2023-05-31T12:22:35Z</time>
      </trkpt>
      <trkpt lat="49.88425" lon="2.04387">
        <ele>94.9</ele>
        <time>2023-05-31T12:22:36Z</time>
      </trkpt>
      <trkpt lat="49.88426" lon="2.04387">
        <ele>94.9</ele>
        <time>2023-05-31T12:22:37Z</time>
      </trkpt>
      <trkpt lat="49.88428" lon="2.04389">
        <ele>95</ele>
        <time>2023-05-31T12:22:39Z</time>
      </trkpt>
      <trkpt lat="49.88429" lon="2.0439">
        <ele>95.1</ele>
        <time>2023-05-31T12:22:40Z</time>
      </trkpt>
      <trkpt lat="49.8843" lon="2.0439">
        <ele>95.1</ele>
        <time>2023-05-31T12:22:41Z</time>
      </trkpt>
      <trkpt lat="49.88432" lon="2.04392">
        <ele>95.2</ele>
        <time>2023-05-31T12:22:42Z</time>
      </trkpt>
      <trkpt lat="49.88432" lon="2.04392">
        <ele>95.2</ele>
        <time>2023-05-31T12:22:43Z</time>
      </trkpt>
      <trkpt lat="49.88433" lon="2.04393">
        <ele>95.3</ele>
        <time>2023-05-31T12:22:44Z</time>
      </trkpt>
      <trkpt lat="49.88434" lon="2.04393">
        <ele>95.3</ele>
        <time>2023-05-31T12:22:46Z</time>
      </trkpt>
      <trkpt lat="49.88435" lon="2.04394">
        <ele>95.4</ele>
        <time>2023-05-31T12:22:47Z</time>
      </trkpt>
      <trkpt lat="49.88436" lon="2.04395">
        <ele>95.4</ele>
        <time>2023-05-31T12:22:48Z</time>
      </trkpt>
      <trkpt lat="49.88437" lon="2.04396">
        <ele>95.5</ele>
        <time>2023-05-31T12:22:49Z</time>
      </trkpt>
      <trkpt lat="49.88438" lon="2.04396">
        <ele>95.5</ele>
        <time>2023-05-31T12:22:50Z</time>
      </trkpt>
      <trkpt lat="49.88439" lon="2.04397">
        <ele>95.6</ele>
        <time>2023-05-31T12:22:51Z</time>
      </trkpt>
      <trkpt lat="49.88441" lon="2.04397">
        <ele>95.7</ele>
        <time>2023-05-31T12:22:52Z</time>
      </trkpt>
      <trkpt lat="49.88442" lon="2.04398">
        <ele>95.7</ele>
        <time>2023-05-31T12:22:53Z</time>
      </trkpt>
      <trkpt lat="49.88443" lon="2.04399">
        <ele>95.8</ele>
        <time>2023-05-31T12:22:54Z</time>
      </trkpt>
      <trkpt lat="49.88444" lon="2.04399">
        <ele>95.8</ele>
        <time>2023-05-31T12:22:56Z</time>
      </trkpt>
      <trkpt lat="49.88445" lon="2.044">
        <ele>95.9</ele>
        <time>2023-05-31T12:22:57Z</time>
      </trkpt>
      <trkpt lat="49.88446" lon="2.044">
        <ele>95.9</ele>
        <time>2023-05-31T12:22:58Z</time>
      </trkpt>
      <trkpt lat="49.88447" lon="2.04401">
        <ele>96</ele>
        <time>2023-05-31T12:22:59Z</time>
      </trkpt>
      <trkpt lat="49.88448" lon="2.04401">
        <ele>96</ele>
        <time>2023-05-31T12:23:00Z</time>
      </trkpt>
      <trkpt lat="49.88449" lon="2.04402">
        <ele>96.1</ele>
        <time>2023-05-31T12:23:02Z</time>
      </trkpt>
      <trkpt lat="49.88451" lon="2.04403">
        <ele>96.2</ele>
        <time>2023-05-31T12:23:03Z</time>
      </trkpt>
      <trkpt lat="49.88452" lon="2.04403">
        <ele>96.3</ele>
        <time>2023-05-31T12:23:04Z</time>
      </trkpt>
      <trkpt lat="49.88453" lon="2.04404">
        <ele>96.3</ele>
        <time>2023-05-31T12:23:05Z</time>
      </trkpt>
      <trkpt lat="49.88454" lon="2.04404">
        <ele>96.4</ele>
        <time>2023-05-31T12:23:06Z</time>
      </trkpt>
      <trkpt lat="49.88456" lon="2.04405">
        <ele>96.5</ele>
        <time>2023-05-31T12:23:07Z</time>
      </trkpt>
      <trkpt lat="49.88457" lon="2.04405">
        <ele>96.5</ele>
        <time>2023-05-31T12:23:09Z</time>
      </trkpt>
      <trkpt lat="49.88458" lon="2.04405">
        <ele>96.6</ele>
        <time>2023-05-31T12:23:10Z</time>
      </trkpt>
      <trkpt lat="49.88459" lon="2.04406">
        <ele>96.6</ele>
        <time>2023-05-31T12:23:11Z</time>
      </trkpt>
      <trkpt lat="49.8846" lon="2.04406">
        <ele>96.7</ele>
        <time>2023-05-31T12:23:12Z</time>
      </trkpt>
      <trkpt lat="49.88462" lon="2.04406">
        <ele>96.8</ele>
        <time>2023-05-31T12:23:13Z</time>
      </trkpt>
      <trkpt lat="49.88463" lon="2.04406">
        <ele>96.9</ele>
        <time>2023-05-31T12:23:14Z</time>
      </trkpt>
      <trkpt lat="49.88463" lon="2.04407">
        <ele>96.9</ele>
        <time>2023-05-31T12:23:15Z</time>
      </trkpt>
      <trkpt lat="49.88465" lon="2.04407">
        <ele>97</ele>
        <time>2023-05-31T12:23:16Z</time>
      </trkpt>
      <trkpt lat="49.88466" lon="2.04407">
        <ele>97.1</ele>
        <time>2023-05-31T12:23:18Z</time>
      </trkpt>
      <trkpt lat="49.88467" lon="2.04407">
        <ele>97.2</ele>
        <time>2023-05-31T12:23:19Z</time>
      </trkpt>
      <trkpt lat="49.88468" lon="2.04407">
        <ele>97.2</ele>
        <time>2023-05-31T12:23:20Z</time>
      </trkpt>
      <trkpt lat="49.88469" lon="2.04408">
        <ele>97.3</ele>
        <time>2023-05-31T12:23:21Z</time>
      </trkpt>
      <trkpt lat="49.8847" lon="2.04408">
        <ele>97.4</ele>
        <time>2023-05-31T12:23:22Z</time>
      </trkpt>
      <trkpt lat="49.88471" lon="2.04408">
        <ele>97.5</ele>
        <time>2023-05-31T12:23:23Z</time>
      </trkpt>
      <trkpt lat="49.88472" lon="2.04408">
        <ele>97.6</ele>
        <time>2023-05-31T12:23:24Z</time>
      </trkpt>
      <trkpt lat="49.88473" lon="2.04408">
        <ele>97.6</ele>
        <time>2023-05-31T12:23:26Z</time>
      </trkpt>
      <trkpt lat="49.88474" lon="2.04408">
        <ele>97.7</ele>
        <time>2023-05-31T12:23:27Z</time>
      </trkpt>
      <trkpt lat="49.88475" lon="2.04408">
        <ele>97.8</ele>
        <time>2023-05-31T12:23:28Z</time>
      </trkpt>
      <trkpt lat="49.88476" lon="2.04408">
        <ele>97.9</ele>
        <time>2023-05-31T12:23:29Z</time>
      </trkpt>
      <trkpt lat="49.88477" lon="2.04408">
        <ele>98</ele>
        <time>2023-05-31T12:23:30Z</time>
      </trkpt>
      <trkpt lat="49.88478" lon="2.04408">
        <ele>98.1</ele>
        <time>2023-05-31T12:23:32Z</time>
      </trkpt>
      <trkpt lat="49.8848" lon="2.04408">
        <ele>98.2</ele>
        <time>2023-05-31T12:23:33Z</time>
      </trkpt>
      <trkpt lat="49.88481" lon="2.04409">
        <ele>98.3</ele>
        <time>2023-05-31T12:23:34Z</time>
      </trkpt>
      <trkpt lat="49.88482" lon="2.04409">
        <ele>98.4</ele>
        <time>2023-05-31T12:23:35Z</time>
      </trkpt>
      <trkpt lat="49.88483" lon="2.04409">
        <ele>98.4</ele>
        <time>2023-05-31T12:23:36Z</time>
      </trkpt>
      <trkpt lat="49.88484" lon="2.04409">
        <ele>98.5</ele>
        <time>2023-05-31T12:23:37Z</time>
      </trkpt>
      <trkpt lat="49.88485" lon="2.04409">
        <ele>98.6</ele>
        <time>2023-05-31T12:23:39Z</time>
      </trkpt>
      <trkpt lat="49.88486" lon="2.04409">
        <ele>98.7</ele>
        <time>2023-05-31T12:23:40Z</time>
      </trkpt>
      <trkpt lat="49.88487" lon="2.04409">
        <ele>98.8</ele>
        <time>2023-05-31T12:23:41Z</time>
      </trkpt>
      <trkpt lat="49.88488" lon="2.04409">
        <ele>98.9</ele>
        <time>2023-05-31T12:23:43Z</time>
      </trkpt>
      <trkpt lat="49.88489" lon="2.04409">
        <ele>98.9</ele>
        <time>2023-05-31T12:23:44Z</time>
      </trkpt>
      <trkpt lat="49.88491" lon="2.04409">
        <ele>99.1</ele>
        <time>2023-05-31T12:23:45Z</time>
      </trkpt>
      <trkpt lat="49.88492" lon="2.04409">
        <ele>99.2</ele>
        <time>2023-05-31T12:23:46Z</time>
      </trkpt>
      <trkpt lat="49.88493" lon="2.04409">
        <ele>99.3</ele>
        <time>2023-05-31T12:23:48Z</time>
      </trkpt>
      <trkpt lat="49.88494" lon="2.04409">
        <ele>99.3</ele>
        <time>2023-05-31T12:23:49Z</time>
      </trkpt>
      <trkpt lat="49.88495" lon="2.04409">
        <ele>99.4</ele>
        <time>2023-05-31T12:23:50Z</time>
      </trkpt>
      <trkpt lat="49.88496" lon="2.04409">
        <ele>99.5</ele>
        <time>2023-05-31T12:23:51Z</time>
      </trkpt>
      <trkpt lat="49.88498" lon="2.04409">
        <ele>99.6</ele>
        <time>2023-05-31T12:23:52Z</time>
      </trkpt>
      <trkpt lat="49.88499" lon="2.04409">
        <ele>99.7</ele>
        <time>2023-05-31T12:23:54Z</time>
      </trkpt>
      <trkpt lat="49.88499" lon="2.0441">
        <ele>99.7</ele>
        <time>2023-05-31T12:23:55Z</time>
      </trkpt>
      <trkpt lat="49.88501" lon="2.0441">
        <ele>99.9</ele>
        <time>2023-05-31T12:23:56Z</time>
      </trkpt>
      <trkpt lat="49.88502" lon="2.0441">
        <ele>100</ele>
        <time>2023-05-31T12:23:57Z</time>
      </trkpt>
      <trkpt lat="49.88504" lon="2.04411">
        <ele>100.1</ele>
        <time>2023-05-31T12:23:59Z</time>
      </trkpt>
      <trkpt lat="49.88505" lon="2.04411">
        <ele>100.2</ele>
        <time>2023-05-31T12:24:00Z</time>
      </trkpt>
      <trkpt lat="49.88506" lon="2.04411">
        <ele>100.3</ele>
        <time>2023-05-31T12:24:01Z</time>
      </trkpt>
      <trkpt lat="49.88507" lon="2.04411">
        <ele>100.3</ele>
        <time>2023-05-31T12:24:02Z</time>
      </trkpt>
      <trkpt lat="49.88507" lon="2.04411">
        <ele>100.4</ele>
        <time>2023-05-31T12:24:03Z</time>
      </trkpt>
      <trkpt lat="49.88508" lon="2.04411">
        <ele>100.5</ele>
        <time>2023-05-31T12:24:04Z</time>
      </trkpt>
      <trkpt lat="49.88509" lon="2.04412">
        <ele>100.6</ele>
        <time>2023-05-31T12:24:06Z</time>
      </trkpt>
      <trkpt lat="49.8851" lon="2.04411">
        <ele>100.6</ele>
        <time>2023-05-31T12:24:07Z</time>
      </trkpt>
      <trkpt lat="49.88511" lon="2.04411">
        <ele>100.7</ele>
        <time>2023-05-31T12:24:08Z</time>
      </trkpt>
      <trkpt lat="49.88512" lon="2.04411">
        <ele>100.8</ele>
        <time>2023-05-31T12:24:09Z</time>
      </trkpt>
      <trkpt lat="49.88513" lon="2.04411">
        <ele>100.9</ele>
        <time>2023-05-31T12:24:11Z</time>
      </trkpt>
      <trkpt lat="49.88514" lon="2.04411">
        <ele>100.9</ele>
        <time>2023-05-31T12:24:12Z</time>
      </trkpt>
      <trkpt lat="49.88515" lon="2.04411">
        <ele>101</ele>
        <time>2023-05-31T12:24:13Z</time>
      </trkpt>
      <trkpt lat="49.88516" lon="2.04411">
        <ele>101.1</ele>
        <time>2023-05-31T12:24:14Z</time>
      </trkpt>
      <trkpt lat="49.88517" lon="2.04411">
        <ele>101.2</ele>
        <time>2023-05-31T12:24:15Z</time>
      </trkpt>
      <trkpt lat="49.88518" lon="2.04411">
        <ele>101.3</ele>
        <time>2023-05-31T12:24:16Z</time>
      </trkpt>
      <trkpt lat="49.88519" lon="2.04411">
        <ele>101.3</ele>
        <time>2023-05-31T12:24:18Z</time>
      </trkpt>
      <trkpt lat="49.8852" lon="2.04411">
        <ele>101.4</ele>
        <time>2023-05-31T12:24:19Z</time>
      </trkpt>
      <trkpt lat="49.88521" lon="2.04411">
        <ele>101.5</ele>
        <time>2023-05-31T12:24:20Z</time>
      </trkpt>
      <trkpt lat="49.88521" lon="2.04411">
        <ele>101.5</ele>
        <time>2023-05-31T12:24:21Z</time>
      </trkpt>
      <trkpt lat="49.88522" lon="2.0441">
        <ele>101.6</ele>
        <time>2023-05-31T12:24:22Z</time>
      </trkpt>
      <trkpt lat="49.88523" lon="2.0441">
        <ele>101.7</ele>
        <time>2023-05-31T12:24:23Z</time>
      </trkpt>
      <trkpt lat="49.88524" lon="2.0441">
        <ele>101.7</ele>
        <time>2023-05-31T12:24:24Z</time>
      </trkpt>
      <trkpt lat="49.88525" lon="2.04409">
        <ele>101.8</ele>
        <time>2023-05-31T12:24:25Z</time>
      </trkpt>
      <trkpt lat="49.88525" lon="2.04409">
        <ele>101.8</ele>
        <time>2023-05-31T12:24:27Z</time>
      </trkpt>
      <trkpt lat="49.88526" lon="2.04409">
        <ele>101.9</ele>
        <time>2023-05-31T12:24:28Z</time>
      </trkpt>
      <trkpt lat="49.88527" lon="2.04409">
        <ele>101.9</ele>
        <time>2023-05-31T12:24:29Z</time>
      </trkpt>
      <trkpt lat="49.88528" lon="2.04408">
        <ele>102</ele>
        <time>2023-05-31T12:24:30Z</time>
      </trkpt>
      <trkpt lat="49.88529" lon="2.04408">
        <ele>102.1</ele>
        <time>2023-05-31T12:24:32Z</time>
      </trkpt>
      <trkpt lat="49.8853" lon="2.04408">
        <ele>102.2</ele>
        <time>2023-05-31T12:24:33Z</time>
      </trkpt>
      <trkpt lat="49.88531" lon="2.04407">
        <ele>102.2</ele>
        <time>2023-05-31T12:24:34Z</time>
      </trkpt>
      <trkpt lat="49.88532" lon="2.04407">
        <ele>102.3</ele>
        <time>2023-05-31T12:24:35Z</time>
      </trkpt>
      <trkpt lat="49.88533" lon="2.04407">
        <ele>102.4</ele>
        <time>2023-05-31T12:24:37Z</time>
      </trkpt>
      <trkpt lat="49.88534" lon="2.04406">
        <ele>102.5</ele>
        <time>2023-05-31T12:24:38Z</time>
      </trkpt>
      <trkpt lat="49.88535" lon="2.04406">
        <ele>102.6</ele>
        <time>2023-05-31T12:24:40Z</time>
      </trkpt>
      <trkpt lat="49.88536" lon="2.04406">
        <ele>102.7</ele>
        <time>2023-05-31T12:24:41Z</time>
      </trkpt>
      <trkpt lat="49.88538" lon="2.04406">
        <ele>102.8</ele>
        <time>2023-05-31T12:24:42Z</time>
      </trkpt>
      <trkpt lat="49.88539" lon="2.04406">
        <ele>102.9</ele>
        <time>2023-05-31T12:24:44Z</time>
      </trkpt>
      <trkpt lat="49.8854" lon="2.04407">
        <ele>102.9</ele>
        <time>2023-05-31T12:24:45Z</time>
      </trkpt>
      <trkpt lat="49.88541" lon="2.04407">
        <ele>103</ele>
        <time>2023-05-31T12:24:46Z</time>
      </trkpt>
      <trkpt lat="49.88542" lon="2.04407">
        <ele>103.1</ele>
        <time>2023-05-31T12:24:47Z</time>
      </trkpt>
      <trkpt lat="49.88543" lon="2.04407">
        <ele>103.2</ele>
        <time>2023-05-31T12:24:49Z</time>
      </trkpt>
      <trkpt lat="49.88544" lon="2.04407">
        <ele>103.2</ele>
        <time>2023-05-31T12:24:50Z</time>
      </trkpt>
      <trkpt lat="49.88544" lon="2.04407">
        <ele>103.3</ele>
        <time>2023-05-31T12:24:51Z</time>
      </trkpt>
      <trkpt lat="49.88545" lon="2.04407">
        <ele>103.3</ele>
        <time>2023-05-31T12:24:52Z</time>
      </trkpt>
      <trkpt lat="49.88547" lon="2.04406">
        <ele>103.5</ele>
        <time>2023-05-31T12:24:53Z</time>
      </trkpt>
      <trkpt lat="49.88548" lon="2.04406">
        <ele>103.5</ele>
        <time>2023-05-31T12:24:54Z</time>
      </trkpt>
      <trkpt lat="49.88549" lon="2.04406">
        <ele>103.6</ele>
        <time>2023-05-31T12:24:56Z</time>
      </trkpt>
      <trkpt lat="49.8855" lon="2.04405">
        <ele>103.7</ele>
        <time>2023-05-31T12:24:58Z</time>
      </trkpt>
      <trkpt lat="49.88551" lon="2.04405">
        <ele>103.8</ele>
        <time>2023-05-31T12:24:59Z</time>
      </trkpt>
      <trkpt lat="49.88552" lon="2.04405">
        <ele>103.8</ele>
        <time>2023-05-31T12:25:00Z</time>
      </trkpt>
      <trkpt lat="49.88553" lon="2.04405">
        <ele>103.9</ele>
        <time>2023-05-31T12:25:01Z</time>
      </trkpt>
      <trkpt lat="49.88554" lon="2.04404">
        <ele>104</ele>
        <time>2023-05-31T12:25:03Z</time>
      </trkpt>
      <trkpt lat="49.88555" lon="2.04404">
        <ele>104</ele>
        <time>2023-05-31T12:25:04Z</time>
      </trkpt>
      <trkpt lat="49.88556" lon="2.04404">
        <ele>104.1</ele>
        <time>2023-05-31T12:25:05Z</time>
      </trkpt>
      <trkpt lat="49.88557" lon="2.04404">
        <ele>104.2</ele>
        <time>2023-05-31T12:25:06Z</time>
      </trkpt>
      <trkpt lat="49.88558" lon="2.04404">
        <ele>104.2</ele>
        <time>2023-05-31T12:25:08Z</time>
      </trkpt>
      <trkpt lat="49.88559" lon="2.04403">
        <ele>104.3</ele>
        <time>2023-05-31T12:25:09Z</time>
      </trkpt>
      <trkpt lat="49.8856" lon="2.04403">
        <ele>104.3</ele>
        <time>2023-05-31T12:25:10Z</time>
      </trkpt>
      <trkpt lat="49.88561" lon="2.04403">
        <ele>104.4</ele>
        <time>2023-05-31T12:25:11Z</time>
      </trkpt>
      <trkpt lat="49.88562" lon="2.04403">
        <ele>104.4</ele>
        <time>2023-05-31T12:25:12Z</time>
      </trkpt>
      <trkpt lat="49.88563" lon="2.04403">
        <ele>104.5</ele>
        <time>2023-05-31T12:25:14Z</time>
      </trkpt>
      <trkpt lat="49.88564" lon="2.04403">
        <ele>104.6</ele>
        <time>2023-05-31T12:25:15Z</time>
      </trkpt>
      <trkpt lat="49.88565" lon="2.04402">
        <ele>104.6</ele>
        <time>2023-05-31T12:25:16Z</time>
      </trkpt>
      <trkpt lat="49.88566" lon="2.04402">
        <ele>104.7</ele>
        <time>2023-05-31T12:25:17Z</time>
      </trkpt>
      <trkpt lat="49.88567" lon="2.04402">
        <ele>104.7</ele>
        <time>2023-05-31T12:25:18Z</time>
      </trkpt>
      <trkpt lat="49.88567" lon="2.04402">
        <ele>104.8</ele>
        <time>2023-05-31T12:25:20Z</time>
      </trkpt>
      <trkpt lat="49.88568" lon="2.04402">
        <ele>104.8</ele>
        <time>2023-05-31T12:25:21Z</time>
      </trkpt>
      <trkpt lat="49.88569" lon="2.04401">
        <ele>104.9</ele>
        <time>2023-05-31T12:25:22Z</time>
      </trkpt>
      <trkpt lat="49.8857" lon="2.044">
        <ele>105</ele>
        <time>2023-05-31T12:25:23Z</time>
      </trkpt>
      <trkpt lat="49.88571" lon="2.044">
        <ele>105</ele>
        <time>2023-05-31T12:25:24Z</time>
      </trkpt>
      <trkpt lat="49.88572" lon="2.044">
        <ele>105.1</ele>
        <time>2023-05-31T12:25:25Z</time>
      </trkpt>
      <trkpt lat="49.88573" lon="2.044">
        <ele>105.1</ele>
        <time>2023-05-31T12:25:26Z</time>
      </trkpt>
      <trkpt lat="49.88574" lon="2.044">
        <ele>105.2</ele>
        <time>2023-05-31T12:25:28Z</time>
      </trkpt>
      <trkpt lat="49.88575" lon="2.044">
        <ele>105.3</ele>
        <time>2023-05-31T12:25:29Z</time>
      </trkpt>
      <trkpt lat="49.88576" lon="2.044">
        <ele>105.3</ele>
        <time>2023-05-31T12:25:30Z</time>
      </trkpt>
      <trkpt lat="49.88577" lon="2.04399">
        <ele>105.4</ele>
        <time>2023-05-31T12:25:31Z</time>
      </trkpt>
      <trkpt lat="49.88578" lon="2.04399">
        <ele>105.5</ele>
        <time>2023-05-31T12:25:33Z</time>
      </trkpt>
      <trkpt lat="49.88579" lon="2.04399">
        <ele>105.5</ele>
        <time>2023-05-31T12:25:34Z</time>
      </trkpt>
      <trkpt lat="49.8858" lon="2.04398">
        <ele>105.6</ele>
        <time>2023-05-31T12:25:35Z</time>
      </trkpt>
      <trkpt lat="49.88581" lon="2.04398">
        <ele>105.7</ele>
        <time>2023-05-31T12:25:36Z</time>
      </trkpt>
      <trkpt lat="49.88582" lon="2.04398">
        <ele>105.7</ele>
        <time>2023-05-31T12:25:37Z</time>
      </trkpt>
      <trkpt lat="49.88582" lon="2.04398">
        <ele>105.8</ele>
        <time>2023-05-31T12:25:38Z</time>
      </trkpt>
      <trkpt lat="49.88583" lon="2.04397">
        <ele>105.9</ele>
        <time>2023-05-31T12:25:39Z</time>
      </trkpt>
      <trkpt lat="49.88584" lon="2.04397">
        <ele>105.9</ele>
        <time>2023-05-31T12:25:40Z</time>
      </trkpt>
      <trkpt lat="49.88585" lon="2.04397">
        <ele>106</ele>
        <time>2023-05-31T12:25:42Z</time>
      </trkpt>
      <trkpt lat="49.88586" lon="2.04397">
        <ele>106.1</ele>
        <time>2023-05-31T12:25:43Z</time>
      </trkpt>
      <trkpt lat="49.88587" lon="2.04397">
        <ele>106.1</ele>
        <time>2023-05-31T12:25:44Z</time>
      </trkpt>
      <trkpt lat="49.88588" lon="2.04397">
        <ele>106.2</ele>
        <time>2023-05-31T12:25:45Z</time>
      </trkpt>
      <trkpt lat="49.88589" lon="2.04397">
        <ele>106.3</ele>
        <time>2023-05-31T12:25:46Z</time>
      </trkpt>
      <trkpt lat="49.8859" lon="2.04397">
        <ele>106.3</ele>
        <time>2023-05-31T12:25:47Z</time>
      </trkpt>
      <trkpt lat="49.88591" lon="2.04397">
        <ele>106.4</ele>
        <time>2023-05-31T12:25:48Z</time>
      </trkpt>
      <trkpt lat="49.88592" lon="2.04397">
        <ele>106.5</ele>
        <time>2023-05-31T12:25:50Z</time>
      </trkpt>
      <trkpt lat="49.88593" lon="2.04397">
        <ele>106.5</ele>
        <time>2023-05-31T12:25:51Z</time>
      </trkpt>
      <trkpt lat="49.88594" lon="2.04397">
        <ele>106.6</ele>
        <time>2023-05-31T12:25:52Z</time>
      </trkpt>
      <trkpt lat="49.88595" lon="2.04397">
        <ele>106.7</ele>
        <time>2023-05-31T12:25:53Z</time>
      </trkpt>
      <trkpt lat="49.88596" lon="2.04397">
        <ele>106.8</ele>
        <time>2023-05-31T12:25:54Z</time>
      </trkpt>
      <trkpt lat="49.88597" lon="2.04397">
        <ele>106.8</ele>
        <time>2023-05-31T12:25:55Z</time>
      </trkpt>
      <trkpt lat="49.88599" lon="2.04397">
        <ele>107</ele>
        <time>2023-05-31T12:25:57Z</time>
      </trkpt>
      <trkpt lat="49.886" lon="2.04397">
        <ele>107</ele>
        <time>2023-05-31T12:25:59Z</time>
      </trkpt>
      <trkpt lat="49.88601" lon="2.04397">
        <ele>107.1</ele>
        <time>2023-05-31T12:26:00Z</time>
      </trkpt>
      <trkpt lat="49.88602" lon="2.04396">
        <ele>107.2</ele>
        <time>2023-05-31T12:26:01Z</time>
      </trkpt>
      <trkpt lat="49.88603" lon="2.04396">
        <ele>107.3</ele>
        <time>2023-05-31T12:26:02Z</time>
      </trkpt>
      <trkpt lat="49.88604" lon="2.04396">
        <ele>107.4</ele>
        <time>2023-05-31T12:26:03Z</time>
      </trkpt>
      <trkpt lat="49.88605" lon="2.04396">
        <ele>107.4</ele>
        <time>2023-05-31T12:26:04Z</time>
      </trkpt>
      <trkpt lat="49.88606" lon="2.04396">
        <ele>107.5</ele>
        <time>2023-05-31T12:26:05Z</time>
      </trkpt>
      <trkpt lat="49.88607" lon="2.04396">
        <ele>107.6</ele>
        <time>2023-05-31T12:26:06Z</time>
      </trkpt>
      <trkpt lat="49.88608" lon="2.04395">
        <ele>107.7</ele>
        <time>2023-05-31T12:26:08Z</time>
      </trkpt>
      <trkpt lat="49.88609" lon="2.04395">
        <ele>107.7</ele>
        <time>2023-05-31T12:26:09Z</time>
      </trkpt>
      <trkpt lat="49.8861" lon="2.04395">
        <ele>107.8</ele>
        <time>2023-05-31T12:26:10Z</time>
      </trkpt>
      <trkpt lat="49.88611" lon="2.04395">
        <ele>107.9</ele>
        <time>2023-05-31T12:26:11Z</time>
      </trkpt>
      <trkpt lat="49.88612" lon="2.04395">
        <ele>107.9</ele>
        <time>2023-05-31T12:26:12Z</time>
      </trkpt>
      <trkpt lat="49.88613" lon="2.04394">
        <ele>108</ele>
        <time>2023-05-31T12:26:13Z</time>
      </trkpt>
      <trkpt lat="49.88614" lon="2.04394">
        <ele>108.1</ele>
        <time>2023-05-31T12:26:14Z</time>
      </trkpt>
      <trkpt lat="49.88615" lon="2.04394">
        <ele>108.2</ele>
        <time>2023-05-31T12:26:16Z</time>
      </trkpt>
      <trkpt lat="49.88616" lon="2.04393">
        <ele>108.2</ele>
        <time>2023-05-31T12:26:17Z</time>
      </trkpt>
      <trkpt lat="49.88617" lon="2.04393">
        <ele>108.3</ele>
        <time>2023-05-31T12:26:18Z</time>
      </trkpt>
      <trkpt lat="49.88618" lon="2.04393">
        <ele>108.4</ele>
        <time>2023-05-31T12:26:19Z</time>
      </trkpt>
      <trkpt lat="49.88619" lon="2.04393">
        <ele>108.5</ele>
        <time>2023-05-31T12:26:20Z</time>
      </trkpt>
      <trkpt lat="49.8862" lon="2.04392">
        <ele>108.5</ele>
        <time>2023-05-31T12:26:21Z</time>
      </trkpt>
      <trkpt lat="49.88621" lon="2.04392">
        <ele>108.6</ele>
        <time>2023-05-31T12:26:22Z</time>
      </trkpt>
      <trkpt lat="49.88622" lon="2.04391">
        <ele>108.7</ele>
        <time>2023-05-31T12:26:24Z</time>
      </trkpt>
      <trkpt lat="49.88623" lon="2.04391">
        <ele>108.7</ele>
        <time>2023-05-31T12:26:25Z</time>
      </trkpt>
      <trkpt lat="49.88624" lon="2.0439">
        <ele>108.8</ele>
        <time>2023-05-31T12:26:26Z</time>
      </trkpt>
      <trkpt lat="49.88625" lon="2.04389">
        <ele>108.8</ele>
        <time>2023-05-31T12:26:27Z</time>
      </trkpt>
      <trkpt lat="49.88627" lon="2.04388">
        <ele>109</ele>
        <time>2023-05-31T12:26:28Z</time>
      </trkpt>
      <trkpt lat="49.88627" lon="2.04388">
        <ele>109</ele>
        <time>2023-05-31T12:26:29Z</time>
      </trkpt>
      <trkpt lat="49.88628" lon="2.04388">
        <ele>109.1</ele>
        <time>2023-05-31T12:26:31Z</time>
      </trkpt>
      <trkpt lat="49.88629" lon="2.04387">
        <ele>109.1</ele>
        <time>2023-05-31T12:26:33Z</time>
      </trkpt>
      <trkpt lat="49.8863" lon="2.04387">
        <ele>109.2</ele>
        <time>2023-05-31T12:26:34Z</time>
      </trkpt>
      <trkpt lat="49.88631" lon="2.04387">
        <ele>109.2</ele>
        <time>2023-05-31T12:26:35Z</time>
      </trkpt>
      <trkpt lat="49.88632" lon="2.04386">
        <ele>109.3</ele>
        <time>2023-05-31T12:26:36Z</time>
      </trkpt>
      <trkpt lat="49.88633" lon="2.04386">
        <ele>109.4</ele>
        <time>2023-05-31T12:26:37Z</time>
      </trkpt>
      <trkpt lat="49.88635" lon="2.04385">
        <ele>109.5</ele>
        <time>2023-05-31T12:26:39Z</time>
      </trkpt>
      <trkpt lat="49.88637" lon="2.04384">
        <ele>109.6</ele>
        <time>2023-05-31T12:26:41Z</time>
      </trkpt>
      <trkpt lat="49.88638" lon="2.04384">
        <ele>109.6</ele>
        <time>2023-05-31T12:26:42Z</time>
      </trkpt>
      <trkpt lat="49.88639" lon="2.04383">
        <ele>109.7</ele>
        <time>2023-05-31T12:26:43Z</time>
      </trkpt>
      <trkpt lat="49.88641" lon="2.04382">
        <ele>109.8</ele>
        <time>2023-05-31T12:26:44Z</time>
      </trkpt>
      <trkpt lat="49.88643" lon="2.04381">
        <ele>109.9</ele>
        <time>2023-05-31T12:26:45Z</time>
      </trkpt>
      <trkpt lat="49.88644" lon="2.04381">
        <ele>110</ele>
        <time>2023-05-31T12:26:46Z</time>
      </trkpt>
      <trkpt lat="49.88645" lon="2.04381">
        <ele>110</ele>
        <time>2023-05-31T12:26:47Z</time>
      </trkpt>
      <trkpt lat="49.88647" lon="2.0438">
        <ele>110.1</ele>
        <time>2023-05-31T12:26:49Z</time>
      </trkpt>
      <trkpt lat="49.88648" lon="2.0438">
        <ele>110.2</ele>
        <time>2023-05-31T12:26:50Z</time>
      </trkpt>
      <trkpt lat="49.88648" lon="2.0438">
        <ele>110.2</ele>
        <time>2023-05-31T12:26:51Z</time>
      </trkpt>
      <trkpt lat="49.8865" lon="2.04379">
        <ele>110.3</ele>
        <time>2023-05-31T12:26:52Z</time>
      </trkpt>
      <trkpt lat="49.8865" lon="2.04379">
        <ele>110.3</ele>
        <time>2023-05-31T12:26:53Z</time>
      </trkpt>
      <trkpt lat="49.88652" lon="2.04378">
        <ele>110.4</ele>
        <time>2023-05-31T12:26:54Z</time>
      </trkpt>
      <trkpt lat="49.88653" lon="2.04377">
        <ele>110.5</ele>
        <time>2023-05-31T12:26:56Z</time>
      </trkpt>
      <trkpt lat="49.88653" lon="2.04377">
        <ele>110.5</ele>
        <time>2023-05-31T12:26:57Z</time>
      </trkpt>
      <trkpt lat="49.88654" lon="2.04376">
        <ele>110.6</ele>
        <time>2023-05-31T12:26:58Z</time>
      </trkpt>
      <trkpt lat="49.88655" lon="2.04375">
        <ele>110.6</ele>
        <time>2023-05-31T12:26:59Z</time>
      </trkpt>
      <trkpt lat="49.88656" lon="2.04375">
        <ele>110.7</ele>
        <time>2023-05-31T12:27:00Z</time>
      </trkpt>
      <trkpt lat="49.88657" lon="2.04374">
        <ele>110.7</ele>
        <time>2023-05-31T12:27:01Z</time>
      </trkpt>
      <trkpt lat="49.88659" lon="2.04374">
        <ele>110.8</ele>
        <time>2023-05-31T12:27:03Z</time>
      </trkpt>
      <trkpt lat="49.88659" lon="2.04373">
        <ele>110.9</ele>
        <time>2023-05-31T12:27:05Z</time>
      </trkpt>
      <trkpt lat="49.8866" lon="2.04373">
        <ele>110.9</ele>
        <time>2023-05-31T12:27:06Z</time>
      </trkpt>
      <trkpt lat="49.88661" lon="2.04372">
        <ele>111</ele>
        <time>2023-05-31T12:27:07Z</time>
      </trkpt>
      <trkpt lat="49.88662" lon="2.04372">
        <ele>111</ele>
        <time>2023-05-31T12:27:08Z</time>
      </trkpt>
      <trkpt lat="49.88663" lon="2.04372">
        <ele>111.1</ele>
        <time>2023-05-31T12:27:09Z</time>
      </trkpt>
      <trkpt lat="49.88663" lon="2.04372">
        <ele>111.1</ele>
        <time>2023-05-31T12:27:10Z</time>
      </trkpt>
      <trkpt lat="49.88664" lon="2.04371">
        <ele>111.2</ele>
        <time>2023-05-31T12:27:12Z</time>
      </trkpt>
      <trkpt lat="49.88665" lon="2.04371">
        <ele>111.2</ele>
        <time>2023-05-31T12:27:14Z</time>
      </trkpt>
      <trkpt lat="49.88667" lon="2.0437">
        <ele>111.3</ele>
        <time>2023-05-31T12:27:15Z</time>
      </trkpt>
      <trkpt lat="49.88667" lon="2.04369">
        <ele>112</ele>
        <time>2023-05-31T12:27:17Z</time>
      </trkpt>
      <trkpt lat="49.88668" lon="2.04368">
        <ele>112</ele>
        <time>2023-05-31T12:27:18Z</time>
      </trkpt>
      <trkpt lat="49.88669" lon="2.04368">
        <ele>112.1</ele>
        <time>2023-05-31T12:27:19Z</time>
      </trkpt>
      <trkpt lat="49.8867" lon="2.04368">
        <ele>112.1</ele>
        <time>2023-05-31T12:27:20Z</time>
      </trkpt>
      <trkpt lat="49.88671" lon="2.04369">
        <ele>112.2</ele>
        <time>2023-05-31T12:27:22Z</time>
      </trkpt>
      <trkpt lat="49.88672" lon="2.04369">
        <ele>112.2</ele>
        <time>2023-05-31T12:27:23Z</time>
      </trkpt>
      <trkpt lat="49.88673" lon="2.0437">
        <ele>112.2</ele>
        <time>2023-05-31T12:27:25Z</time>
      </trkpt>
      <trkpt lat="49.88673" lon="2.0437">
        <ele>112.2</ele>
        <time>2023-05-31T12:27:26Z</time>
      </trkpt>
      <trkpt lat="49.88673" lon="2.0437">
        <ele>112.2</ele>
        <time>2023-05-31T12:27:27Z</time>
      </trkpt>
      <trkpt lat="49.88673" lon="2.0437">
        <ele>112.2</ele>
        <time>2023-05-31T12:27:29Z</time>
      </trkpt>
      <trkpt lat="49.88673" lon="2.0437">
        <ele>112.2</ele>
        <time>2023-05-31T12:27:30Z</time>
      </trkpt>
      <trkpt lat="49.88673" lon="2.0437">
        <ele>112.2</ele>
        <time>2023-05-31T12:27:31Z</time>
      </trkpt>
      <trkpt lat="49.88673" lon="2.0437">
        <ele>112.3</ele>
        <time>2023-05-31T12:27:33Z</time>
      </trkpt>
      <trkpt lat="49.88673" lon="2.0437">
        <ele>112.3</ele>
        <time>2023-05-31T12:27:34Z</time>
      </trkpt>
      <trkpt lat="49.88673" lon="2.0437">
        <ele>112.3</ele>
        <time>2023-05-31T12:27:36Z</time>
      </trkpt>
      <trkpt lat="49.88673" lon="2.0437">
        <ele>112.3</ele>
        <time>2023-05-31T12:27:37Z</time>
      </trkpt>
      <trkpt lat="49.88673" lon="2.0437">
        <ele>112.3</ele>
        <time>2023-05-31T12:27:38Z</time>
      </trkpt>
      <trkpt lat="49.88673" lon="2.0437">
        <ele>112.3</ele>
        <time>2023-05-31T12:27:40Z</time>
      </trkpt>
      <trkpt lat="49.88673" lon="2.0437">
        <ele>112.3</ele>
        <time>2023-05-31T12:27:41Z</time>
      </trkpt>
      <trkpt lat="49.88673" lon="2.0437">
        <ele>112.3</ele>
        <time>2023-05-31T12:27:42Z</time>
      </trkpt>
      <trkpt lat="49.88673" lon="2.0437">
        <ele>112.3</ele>
        <time>2023-05-31T12:27:43Z</time>
      </trkpt>
      <trkpt lat="49.88673" lon="2.0437">
        <ele>112.3</ele>
        <time>2023-05-31T12:27:44Z</time>
      </trkpt>
      <trkpt lat="49.88672" lon="2.0437">
        <ele>112.3</ele>
        <time>2023-05-31T12:27:45Z</time>
      </trkpt>
      <trkpt lat="49.88672" lon="2.0437">
        <ele>112.3</ele>
        <time>2023-05-31T12:27:46Z</time>
      </trkpt>
      <trkpt lat="49.88672" lon="2.0437">
        <ele>112.3</ele>
        <time>2023-05-31T12:27:47Z</time>
      </trkpt>
      <trkpt lat="49.88672" lon="2.0437">
        <ele>112.3</ele>
        <time>2023-05-31T12:27:48Z</time>
      </trkpt>
      <trkpt lat="49.88672" lon="2.0437">
        <ele>112.3</ele>
        <time>2023-05-31T12:27:49Z</time>
      </trkpt>
      <trkpt lat="49.88672" lon="2.0437">
        <ele>112.3</ele>
        <time>2023-05-31T12:27:50Z</time>
      </trkpt>
      <trkpt lat="49.88672" lon="2.0437">
        <ele>112.3</ele>
        <time>2023-05-31T12:27:51Z</time>
      </trkpt>
      <trkpt lat="49.88672" lon="2.0437">
        <ele>112.3</ele>
        <time>2023-05-31T12:27:52Z</time>
      </trkpt>
      <trkpt lat="49.88672" lon="2.0437">
        <ele>112.3</ele>
        <time>2023-05-31T12:27:53Z</time>
      </trkpt>
      <trkpt lat="49.88672" lon="2.0437">
        <ele>112.3</ele>
        <time>2023-05-31T12:27:54Z</time>
      </trkpt>
      <trkpt lat="49.88672" lon="2.0437">
        <ele>112.3</ele>
        <time>2023-05-31T12:27:55Z</time>
      </trkpt>
      <trkpt lat="49.88672" lon="2.0437">
        <ele>112.3</ele>
        <time>2023-05-31T12:27:56Z</time>
      </trkpt>
      <trkpt lat="49.88672" lon="2.0437">
        <ele>112.3</ele>
        <time>2023-05-31T12:27:57Z</time>
      </trkpt>
      <trkpt lat="49.88672" lon="2.0437">
        <ele>112.3</ele>
        <time>2023-05-31T12:27:58Z</time>
      </trkpt>
      <trkpt lat="49.88672" lon="2.0437">
        <ele>112.3</ele>
        <time>2023-05-31T12:27:59Z</time>
      </trkpt>
      <trkpt lat="49.88672" lon="2.0437">
        <ele>112.3</ele>
        <time>2023-05-31T12:28:00Z</time>
      </trkpt>
      <trkpt lat="49.88672" lon="2.0437">
        <ele>112.3</ele>
        <time>2023-05-31T12:28:01Z</time>
      </trkpt>
      <trkpt lat="49.88672" lon="2.0437">
        <ele>112.3</ele>
        <time>2023-05-31T12:28:02Z</time>
      </trkpt>
      <trkpt lat="49.88672" lon="2.0437">
        <ele>112.3</ele>
        <time>2023-05-31T12:28:03Z</time>
      </trkpt>
      <trkpt lat="49.88672" lon="2.0437">
        <ele>112.3</ele>
        <time>2023-05-31T12:28:04Z</time>
      </trkpt>
      <trkpt lat="49.88671" lon="2.0437">
        <ele>112.3</ele>
        <time>2023-05-31T12:28:05Z</time>
      </trkpt>
      <trkpt lat="49.88671" lon="2.0437">
        <ele>112.3</ele>
        <time>2023-05-31T12:28:06Z</time>
      </trkpt>
      <trkpt lat="49.88671" lon="2.0437">
        <ele>112.3</ele>
        <time>2023-05-31T12:28:07Z</time>
      </trkpt>
      <trkpt lat="49.88671" lon="2.0437">
        <ele>112.3</ele>
        <time>2023-05-31T12:28:08Z</time>
      </trkpt>
      <trkpt lat="49.88671" lon="2.0437">
        <ele>112.3</ele>
        <time>2023-05-31T12:28:09Z</time>
      </trkpt>
      <trkpt lat="49.88671" lon="2.0437">
        <ele>112.3</ele>
        <time>2023-05-31T12:28:10Z</time>
      </trkpt>
      <trkpt lat="49.88671" lon="2.0437">
        <ele>112.3</ele>
        <time>2023-05-31T12:28:11Z</time>
      </trkpt>
      <trkpt lat="49.88671" lon="2.0437">
        <ele>112.3</ele>
        <time>2023-05-31T12:28:12Z</time>
      </trkpt>
      <trkpt lat="49.88671" lon="2.0437">
        <ele>112.3</ele>
        <time>2023-05-31T12:28:13Z</time>
      </trkpt>
      <trkpt lat="49.88671" lon="2.0437">
        <ele>112.3</ele>
        <time>2023-05-31T12:28:14Z</time>
      </trkpt>
      <trkpt lat="49.88671" lon="2.0437">
        <ele>112.3</ele>
        <time>2023-05-31T12:28:15Z</time>
      </trkpt>
      <trkpt lat="49.88671" lon="2.0437">
        <ele>112.3</ele>
        <time>2023-05-31T12:28:16Z</time>
      </trkpt>
      <trkpt lat="49.88671" lon="2.0437">
        <ele>112.3</ele>
        <time>2023-05-31T12:28:17Z</time>
      </trkpt>
      <trkpt lat="49.88671" lon="2.0437">
        <ele>112.3</ele>
        <time>2023-05-31T12:28:18Z</time>
      </trkpt>
      <trkpt lat="49.88671" lon="2.0437">
        <ele>112.3</ele>
        <time>2023-05-31T12:28:19Z</time>
      </trkpt>
      <trkpt lat="49.88671" lon="2.0437">
        <ele>112.3</ele>
        <time>2023-05-31T12:28:20Z</time>
      </trkpt>
      <trkpt lat="49.88671" lon="2.0437">
        <ele>112.3</ele>
        <time>2023-05-31T12:28:21Z</time>
      </trkpt>
      <trkpt lat="49.88671" lon="2.0437">
        <ele>112.3</ele>
        <time>2023-05-31T12:28:22Z</time>
      </trkpt>
      <trkpt lat="49.88671" lon="2.0437">
        <ele>112.4</ele>
        <time>2023-05-31T12:28:23Z</time>
      </trkpt>
      <trkpt lat="49.88671" lon="2.0437">
        <ele>112.4</ele>
        <time>2023-05-31T12:28:24Z</time>
      </trkpt>
      <trkpt lat="49.8867" lon="2.0437">
        <ele>112.4</ele>
        <time>2023-05-31T12:28:25Z</time>
      </trkpt>
      <trkpt lat="49.8867" lon="2.0437">
        <ele>112.4</ele>
        <time>2023-05-31T12:28:26Z</time>
      </trkpt>
      <trkpt lat="49.8867" lon="2.0437">
        <ele>112.4</ele>
        <time>2023-05-31T12:28:27Z</time>
      </trkpt>
      <trkpt lat="49.8867" lon="2.0437">
        <ele>112.4</ele>
        <time>2023-05-31T12:28:28Z</time>
      </trkpt>
      <trkpt lat="49.8867" lon="2.0437">
        <ele>112.4</ele>
        <time>2023-05-31T12:28:29Z</time>
      </trkpt>
      <trkpt lat="49.8867" lon="2.0437">
        <ele>112.4</ele>
        <time>2023-05-31T12:28:30Z</time>
      </trkpt>
      <trkpt lat="49.8867" lon="2.0437">
        <ele>112.4</ele>
        <time>2023-05-31T12:28:31Z</time>
      </trkpt>
      <trkpt lat="49.8867" lon="2.0437">
        <ele>112.4</ele>
        <time>2023-05-31T12:28:32Z</time>
      </trkpt>
      <trkpt lat="49.8867" lon="2.0437">
        <ele>112.4</ele>
        <time>2023-05-31T12:28:33Z</time>
      </trkpt>
      <trkpt lat="49.8867" lon="2.0437">
        <ele>112.4</ele>
        <time>2023-05-31T12:28:34Z</time>
      </trkpt>
      <trkpt lat="49.8867" lon="2.0437">
        <ele>112.4</ele>
        <time>2023-05-31T12:28:35Z</time>
      </trkpt>
      <trkpt lat="49.8867" lon="2.0437">
        <ele>112.4</ele>
        <time>2023-05-31T12:28:36Z</time>
      </trkpt>
      <trkpt lat="49.8867" lon="2.0437">
        <ele>112.4</ele>
        <time>2023-05-31T12:28:37Z</time>
      </trkpt>
      <trkpt lat="49.8867" lon="2.0437">
        <ele>112.4</ele>
        <time>2023-05-31T12:28:38Z</time>
      </trkpt>
      <trkpt lat="49.8867" lon="2.0437">
        <ele>112.4</ele>
        <time>2023-05-31T12:28:39Z</time>
      </trkpt>
      <trkpt lat="49.8867" lon="2.0437">
        <ele>112.4</ele>
        <time>2023-05-31T12:28:40Z</time>
      </trkpt>
      <trkpt lat="49.8867" lon="2.0437">
        <ele>112.4</ele>
        <time>2023-05-31T12:28:41Z</time>
      </trkpt>
      <trkpt lat="49.8867" lon="2.0437">
        <ele>112.4</ele>
        <time>2023-05-31T12:28:42Z</time>
      </trkpt>
      <trkpt lat="49.8867" lon="2.0437">
        <ele>112.4</ele>
        <time>2023-05-31T12:28:43Z</time>
      </trkpt>
      <trkpt lat="49.8867" lon="2.0437">
        <ele>112.4</ele>
        <time>2023-05-31T12:28:44Z</time>
      </trkpt>
      <trkpt lat="49.88669" lon="2.0437">
        <ele>112.4</ele>
        <time>2023-05-31T12:28:45Z</time>
      </trkpt>
      <trkpt lat="49.88669" lon="2.0437">
        <ele>112.4</ele>
        <time>2023-05-31T12:28:46Z</time>
      </trkpt>
      <trkpt lat="49.88669" lon="2.0437">
        <ele>112.4</ele>
        <time>2023-05-31T12:28:47Z</time>
      </trkpt>
      <trkpt lat="49.88669" lon="2.0437">
        <ele>112.4</ele>
        <time>2023-05-31T12:28:48Z</time>
      </trkpt>
      <trkpt lat="49.88669" lon="2.0437">
        <ele>112.4</ele>
        <time>2023-05-31T12:28:49Z</time>
      </trkpt>
      <trkpt lat="49.88669" lon="2.0437">
        <ele>112.4</ele>
        <time>2023-05-31T12:28:50Z</time>
      </trkpt>
      <trkpt lat="49.88669" lon="2.0437">
        <ele>112.4</ele>
        <time>2023-05-31T12:28:51Z</time>
      </trkpt>
      <trkpt lat="49.88669" lon="2.0437">
        <ele>112.4</ele>
        <time>2023-05-31T12:28:52Z</time>
      </trkpt>
      <trkpt lat="49.88669" lon="2.0437">
        <ele>112.4</ele>
        <time>2023-05-31T12:28:53Z</time>
      </trkpt>
      <trkpt lat="49.88669" lon="2.0437">
        <ele>112.4</ele>
        <time>2023-05-31T12:28:54Z</time>
      </trkpt>
      <trkpt lat="49.88669" lon="2.0437">
        <ele>112.4</ele>
        <time>2023-05-31T12:28:55Z</time>
      </trkpt>
      <trkpt lat="49.88669" lon="2.0437">
        <ele>112.4</ele>
        <time>2023-05-31T12:28:56Z</time>
      </trkpt>
      <trkpt lat="49.88669" lon="2.0437">
        <ele>112.4</ele>
        <time>2023-05-31T12:28:57Z</time>
      </trkpt>
      <trkpt lat="49.88669" lon="2.0437">
        <ele>112.4</ele>
        <time>2023-05-31T12:28:58Z</time>
      </trkpt>
      <trkpt lat="49.88669" lon="2.0437">
        <ele>112.4</ele>
        <time>2023-05-31T12:28:59Z</time>
      </trkpt>
      <trkpt lat="49.88669" lon="2.0437">
        <ele>112.4</ele>
        <time>2023-05-31T12:29:00Z</time>
      </trkpt>
      <trkpt lat="49.88669" lon="2.0437">
        <ele>112.4</ele>
        <time>2023-05-31T12:29:01Z</time>
      </trkpt>
      <trkpt lat="49.88669" lon="2.0437">
        <ele>112.4</ele>
        <time>2023-05-31T12:29:02Z</time>
      </trkpt>
      <trkpt lat="49.88669" lon="2.0437">
        <ele>112.4</ele>
        <time>2023-05-31T12:29:03Z</time>
      </trkpt>
      <trkpt lat="49.88669" lon="2.0437">
        <ele>112.4</ele>
        <time>2023-05-31T12:29:04Z</time>
      </trkpt>
      <trkpt lat="49.88668" lon="2.0437">
        <ele>112.4</ele>
        <time>2023-05-31T12:29:05Z</time>
      </trkpt>
      <trkpt lat="49.88668" lon="2.0437">
        <ele>112.4</ele>
        <time>2023-05-31T12:29:06Z</time>
      </trkpt>
      <trkpt lat="49.88668" lon="2.0437">
        <ele>112.4</ele>
        <time>2023-05-31T12:29:07Z</time>
      </trkpt>
      <trkpt lat="49.88668" lon="2.0437">
        <ele>112.4</ele>
        <time>2023-05-31T12:29:08Z</time>
      </trkpt>
      <trkpt lat="49.88668" lon="2.0437">
        <ele>112.4</ele>
        <time>2023-05-31T12:29:09Z</time>
      </trkpt>
      <trkpt lat="49.88668" lon="2.0437">
        <ele>112.4</ele>
        <time>2023-05-31T12:29:10Z</time>
      </trkpt>
      <trkpt lat="49.88668" lon="2.0437">
        <ele>112.4</ele>
        <time>2023-05-31T12:29:11Z</time>
      </trkpt>
      <trkpt lat="49.88668" lon="2.0437">
        <ele>112.4</ele>
        <time>2023-05-31T12:29:12Z</time>
      </trkpt>
      <trkpt lat="49.88668" lon="2.0437">
        <ele>112.4</ele>
        <time>2023-05-31T12:29:13Z</time>
      </trkpt>
      <trkpt lat="49.88668" lon="2.0437">
        <ele>112.4</ele>
        <time>2023-05-31T12:29:14Z</time>
      </trkpt>
      <trkpt lat="49.88668" lon="2.0437">
        <ele>112.5</ele>
        <time>2023-05-31T12:29:15Z</time>
      </trkpt>
      <trkpt lat="49.88668" lon="2.0437">
        <ele>112.5</ele>
        <time>2023-05-31T12:29:16Z</time>
      </trkpt>
      <trkpt lat="49.88668" lon="2.0437">
        <ele>112.5</ele>
        <time>2023-05-31T12:29:17Z</time>
      </trkpt>
      <trkpt lat="49.88668" lon="2.0437">
        <ele>112.5</ele>
        <time>2023-05-31T12:29:18Z</time>
      </trkpt>
      <trkpt lat="49.88668" lon="2.0437">
        <ele>112.5</ele>
        <time>2023-05-31T12:29:19Z</time>
      </trkpt>
      <trkpt lat="49.88668" lon="2.0437">
        <ele>112.5</ele>
        <time>2023-05-31T12:29:20Z</time>
      </trkpt>
      <trkpt lat="49.88668" lon="2.0437">
        <ele>112.5</ele>
        <time>2023-05-31T12:29:21Z</time>
      </trkpt>
      <trkpt lat="49.88668" lon="2.0437">
        <ele>112.5</ele>
        <time>2023-05-31T12:29:22Z</time>
      </trkpt>
      <trkpt lat="49.88668" lon="2.0437">
        <ele>112.5</ele>
        <time>2023-05-31T12:29:23Z</time>
      </trkpt>
      <trkpt lat="49.88668" lon="2.0437">
        <ele>112.5</ele>
        <time>2023-05-31T12:29:24Z</time>
      </trkpt>
      <trkpt lat="49.88667" lon="2.0437">
        <ele>112.5</ele>
        <time>2023-05-31T12:29:25Z</time>
      </trkpt>
      <trkpt lat="49.88667" lon="2.0437">
        <ele>112.5</ele>
        <time>2023-05-31T12:29:26Z</time>
      </trkpt>
      <trkpt lat="49.88667" lon="2.0437">
        <ele>112.5</ele>
        <time>2023-05-31T12:29:27Z</time>
      </trkpt>
      <trkpt lat="49.88667" lon="2.0437">
        <ele>112.5</ele>
        <time>2023-05-31T12:29:28Z</time>
      </trkpt>
      <trkpt lat="49.88667" lon="2.0437">
        <ele>112.5</ele>
        <time>2023-05-31T12:29:29Z</time>
      </trkpt>
      <trkpt lat="49.88667" lon="2.0437">
        <ele>112.5</ele>
        <time>2023-05-31T12:29:30Z</time>
      </trkpt>
      <trkpt lat="49.88667" lon="2.0437">
        <ele>112.5</ele>
        <time>2023-05-31T12:29:31Z</time>
      </trkpt>
      <trkpt lat="49.88667" lon="2.0437">
        <ele>112.5</ele>
        <time>2023-05-31T12:29:32Z</time>
      </trkpt>
      <trkpt lat="49.88667" lon="2.0437">
        <ele>112.5</ele>
        <time>2023-05-31T12:29:33Z</time>
      </trkpt>
      <trkpt lat="49.88665" lon="2.04371">
        <ele>112.6</ele>
        <time>2023-05-31T12:29:34Z</time>
      </trkpt>
      <trkpt lat="49.88665" lon="2.04371">
        <ele>112.6</ele>
        <time>2023-05-31T12:29:35Z</time>
      </trkpt>
      <trkpt lat="49.88664" lon="2.04371">
        <ele>112.6</ele>
        <time>2023-05-31T12:29:36Z</time>
      </trkpt>
      <trkpt lat="49.88664" lon="2.04371">
        <ele>112.6</ele>
        <time>2023-05-31T12:29:37Z</time>
      </trkpt>
      <trkpt lat="49.88664" lon="2.04371">
        <ele>112.6</ele>
        <time>2023-05-31T12:29:38Z</time>
      </trkpt>
      <trkpt lat="49.88664" lon="2.04371">
        <ele>112.6</ele>
        <time>2023-05-31T12:29:39Z</time>
      </trkpt>
      <trkpt lat="49.88664" lon="2.04371">
        <ele>112.6</ele>
        <time>2023-05-31T12:29:40Z</time>
      </trkpt>
      <trkpt lat="49.88664" lon="2.04371">
        <ele>112.6</ele>
        <time>2023-05-31T12:29:41Z</time>
      </trkpt>
      <trkpt lat="49.88664" lon="2.04371">
        <ele>112.6</ele>
        <time>2023-05-31T12:29:42Z</time>
      </trkpt>
      <trkpt lat="49.88664" lon="2.04371">
        <ele>112.6</ele>
        <time>2023-05-31T12:29:43Z</time>
      </trkpt>
      <trkpt lat="49.88664" lon="2.04371">
        <ele>112.6</ele>
        <time>2023-05-31T12:29:44Z</time>
      </trkpt>
      <trkpt lat="49.88664" lon="2.0437">
        <ele>112.6</ele>
        <time>2023-05-31T12:29:45Z</time>
      </trkpt>
      <trkpt lat="49.88664" lon="2.0437">
        <ele>112.6</ele>
        <time>2023-05-31T12:29:46Z</time>
      </trkpt>
      <trkpt lat="49.88664" lon="2.0437">
        <ele>112.6</ele>
        <time>2023-05-31T12:29:47Z</time>
      </trkpt>
      <trkpt lat="49.88664" lon="2.0437">
        <ele>112.6</ele>
        <time>2023-05-31T12:29:48Z</time>
      </trkpt>
      <trkpt lat="49.88664" lon="2.0437">
        <ele>112.6</ele>
        <time>2023-05-31T12:29:49Z</time>
      </trkpt>
      <trkpt lat="49.88664" lon="2.0437">
        <ele>112.6</ele>
        <time>2023-05-31T12:29:50Z</time>
      </trkpt>
      <trkpt lat="49.88664" lon="2.04371">
        <ele>112.6</ele>
        <time>2023-05-31T12:29:51Z</time>
      </trkpt>
      <trkpt lat="49.88665" lon="2.04371">
        <ele>112.6</ele>
        <time>2023-05-31T12:29:52Z</time>
      </trkpt>
      <trkpt lat="49.88665" lon="2.0437">
        <ele>112.6</ele>
        <time>2023-05-31T12:29:54Z</time>
      </trkpt>
      <trkpt lat="49.88665" lon="2.0437">
        <ele>112.6</ele>
        <time>2023-05-31T12:29:55Z</time>
      </trkpt>
      <trkpt lat="49.88665" lon="2.0437">
        <ele>112.7</ele>
        <time>2023-05-31T12:29:56Z</time>
      </trkpt>
      <trkpt lat="49.88666" lon="2.04369">
        <ele>112.7</ele>
        <time>2023-05-31T12:29:58Z</time>
      </trkpt>
      <trkpt lat="49.88667" lon="2.04368">
        <ele>112.7</ele>
        <time>2023-05-31T12:29:59Z</time>
      </trkpt>
      <trkpt lat="49.88667" lon="2.04367">
        <ele>112.7</ele>
        <time>2023-05-31T12:30:00Z</time>
      </trkpt>
      <trkpt lat="49.88668" lon="2.04366">
        <ele>112.8</ele>
        <time>2023-05-31T12:30:01Z</time>
      </trkpt>
      <trkpt lat="49.88669" lon="2.04365">
        <ele>112.8</ele>
        <time>2023-05-31T12:30:02Z</time>
      </trkpt>
      <trkpt lat="49.8867" lon="2.04364">
        <ele>112.9</ele>
        <time>2023-05-31T12:30:04Z</time>
      </trkpt>
      <trkpt lat="49.8867" lon="2.04363">
        <ele>112.9</ele>
        <time>2023-05-31T12:30:05Z</time>
      </trkpt>
      <trkpt lat="49.88671" lon="2.04361">
        <ele>112.9</ele>
        <time>2023-05-31T12:30:06Z</time>
      </trkpt>
      <trkpt lat="49.88672" lon="2.04359">
        <ele>113</ele>
        <time>2023-05-31T12:30:07Z</time>
      </trkpt>
      <trkpt lat="49.88672" lon="2.04358">
        <ele>113</ele>
        <time>2023-05-31T12:30:08Z</time>
      </trkpt>
      <trkpt lat="49.88673" lon="2.04357">
        <ele>113.1</ele>
        <time>2023-05-31T12:30:09Z</time>
      </trkpt>
      <trkpt lat="49.88674" lon="2.04354">
        <ele>113.1</ele>
        <time>2023-05-31T12:30:10Z</time>
      </trkpt>
      <trkpt lat="49.88674" lon="2.04353">
        <ele>113.2</ele>
        <time>2023-05-31T12:30:11Z</time>
      </trkpt>
      <trkpt lat="49.88675" lon="2.04351">
        <ele>113.2</ele>
        <time>2023-05-31T12:30:13Z</time>
      </trkpt>
      <trkpt lat="49.88675" lon="2.0435">
        <ele>113.2</ele>
        <time>2023-05-31T12:30:14Z</time>
      </trkpt>
      <trkpt lat="49.88676" lon="2.04348">
        <ele>113.3</ele>
        <time>2023-05-31T12:30:15Z</time>
      </trkpt>
      <trkpt lat="49.88676" lon="2.04347">
        <ele>113.3</ele>
        <time>2023-05-31T12:30:16Z</time>
      </trkpt>
      <trkpt lat="49.88677" lon="2.04346">
        <ele>113.3</ele>
        <time>2023-05-31T12:30:18Z</time>
      </trkpt>
      <trkpt lat="49.88677" lon="2.04345">
        <ele>113.4</ele>
        <time>2023-05-31T12:30:19Z</time>
      </trkpt>
      <trkpt lat="49.88677" lon="2.04344">
        <ele>113.4</ele>
        <time>2023-05-31T12:30:20Z</time>
      </trkpt>
      <trkpt lat="49.88678" lon="2.04342">
        <ele>113.4</ele>
        <time>2023-05-31T12:30:21Z</time>
      </trkpt>
      <trkpt lat="49.88678" lon="2.0434">
        <ele>113.5</ele>
        <time>2023-05-31T12:30:22Z</time>
      </trkpt>
      <trkpt lat="49.88679" lon="2.04339">
        <ele>113.5</ele>
        <time>2023-05-31T12:30:23Z</time>
      </trkpt>
      <trkpt lat="49.88679" lon="2.04338">
        <ele>113.5</ele>
        <time>2023-05-31T12:30:24Z</time>
      </trkpt>
      <trkpt lat="49.88679" lon="2.04336">
        <ele>113.6</ele>
        <time>2023-05-31T12:30:25Z</time>
      </trkpt>
      <trkpt lat="49.8868" lon="2.04334">
        <ele>113.6</ele>
        <time>2023-05-31T12:30:27Z</time>
      </trkpt>
      <trkpt lat="49.8868" lon="2.04332">
        <ele>113.6</ele>
        <time>2023-05-31T12:30:28Z</time>
      </trkpt>
      <trkpt lat="49.8868" lon="2.04329">
        <ele>113.7</ele>
        <time>2023-05-31T12:30:29Z</time>
      </trkpt>
      <trkpt lat="49.8868" lon="2.04328">
        <ele>113.7</ele>
        <time>2023-05-31T12:30:30Z</time>
      </trkpt>
      <trkpt lat="49.88681" lon="2.04327">
        <ele>113.7</ele>
        <time>2023-05-31T12:30:31Z</time>
      </trkpt>
      <trkpt lat="49.88681" lon="2.04324">
        <ele>113.8</ele>
        <time>2023-05-31T12:30:33Z</time>
      </trkpt>
      <trkpt lat="49.88681" lon="2.04323">
        <ele>113.8</ele>
        <time>2023-05-31T12:30:34Z</time>
      </trkpt>
      <trkpt lat="49.88682" lon="2.04321">
        <ele>113.8</ele>
        <time>2023-05-31T12:30:36Z</time>
      </trkpt>
      <trkpt lat="49.88682" lon="2.0432">
        <ele>113.9</ele>
        <time>2023-05-31T12:30:37Z</time>
      </trkpt>
      <trkpt lat="49.88682" lon="2.04318">
        <ele>113.9</ele>
        <time>2023-05-31T12:30:38Z</time>
      </trkpt>
      <trkpt lat="49.88682" lon="2.04315">
        <ele>113.9</ele>
        <time>2023-05-31T12:30:39Z</time>
      </trkpt>
      <trkpt lat="49.88683" lon="2.04313">
        <ele>114</ele>
        <time>2023-05-31T12:30:40Z</time>
      </trkpt>
      <trkpt lat="49.88683" lon="2.04312">
        <ele>114</ele>
        <time>2023-05-31T12:30:42Z</time>
      </trkpt>
      <trkpt lat="49.88683" lon="2.0431">
        <ele>114</ele>
        <time>2023-05-31T12:30:43Z</time>
      </trkpt>
      <trkpt lat="49.88683" lon="2.04309">
        <ele>114</ele>
        <time>2023-05-31T12:30:44Z</time>
      </trkpt>
      <trkpt lat="49.88683" lon="2.04307">
        <ele>114.1</ele>
        <time>2023-05-31T12:30:45Z</time>
      </trkpt>
      <trkpt lat="49.88684" lon="2.04305">
        <ele>114.1</ele>
        <time>2023-05-31T12:30:46Z</time>
      </trkpt>
      <trkpt lat="49.88684" lon="2.04303">
        <ele>114.1</ele>
        <time>2023-05-31T12:30:47Z</time>
      </trkpt>
      <trkpt lat="49.88685" lon="2.04301">
        <ele>114.2</ele>
        <time>2023-05-31T12:30:48Z</time>
      </trkpt>
      <trkpt lat="49.88686" lon="2.04297">
        <ele>114.2</ele>
        <time>2023-05-31T12:30:50Z</time>
      </trkpt>
      <trkpt lat="49.88687" lon="2.04295">
        <ele>114.3</ele>
        <time>2023-05-31T12:30:51Z</time>
      </trkpt>
      <trkpt lat="49.88687" lon="2.04293">
        <ele>114.3</ele>
        <time>2023-05-31T12:30:53Z</time>
      </trkpt>
      <trkpt lat="49.88688" lon="2.04291">
        <ele>114.3</ele>
        <time>2023-05-31T12:30:54Z</time>
      </trkpt>
      <trkpt lat="49.88689" lon="2.04289">
        <ele>114.4</ele>
        <time>2023-05-31T12:30:55Z</time>
      </trkpt>
      <trkpt lat="49.88689" lon="2.04287">
        <ele>114.4</ele>
        <time>2023-05-31T12:30:56Z</time>
      </trkpt>
      <trkpt lat="49.8869" lon="2.04286">
        <ele>114.4</ele>
        <time>2023-05-31T12:30:58Z</time>
      </trkpt>
      <trkpt lat="49.8869" lon="2.04285">
        <ele>114.4</ele>
        <time>2023-05-31T12:30:59Z</time>
      </trkpt>
      <trkpt lat="49.88691" lon="2.04283">
        <ele>114.5</ele>
        <time>2023-05-31T12:31:00Z</time>
      </trkpt>
      <trkpt lat="49.88692" lon="2.04282">
        <ele>114.5</ele>
        <time>2023-05-31T12:31:01Z</time>
      </trkpt>
      <trkpt lat="49.88692" lon="2.04281">
        <ele>114.5</ele>
        <time>2023-05-31T12:31:02Z</time>
      </trkpt>
      <trkpt lat="49.88693" lon="2.0428">
        <ele>114.5</ele>
        <time>2023-05-31T12:31:03Z</time>
      </trkpt>
      <trkpt lat="49.88693" lon="2.04279">
        <ele>114.5</ele>
        <time>2023-05-31T12:31:04Z</time>
      </trkpt>
      <trkpt lat="49.88694" lon="2.04278">
        <ele>114.5</ele>
        <time>2023-05-31T12:31:05Z</time>
      </trkpt>
      <trkpt lat="49.88695" lon="2.04276">
        <ele>114.6</ele>
        <time>2023-05-31T12:31:06Z</time>
      </trkpt>
      <trkpt lat="49.88696" lon="2.04274">
        <ele>114.6</ele>
        <time>2023-05-31T12:31:08Z</time>
      </trkpt>
      <trkpt lat="49.88696" lon="2.04273">
        <ele>114.6</ele>
        <time>2023-05-31T12:31:09Z</time>
      </trkpt>
      <trkpt lat="49.88696" lon="2.04271">
        <ele>114.6</ele>
        <time>2023-05-31T12:31:10Z</time>
      </trkpt>
      <trkpt lat="49.88697" lon="2.0427">
        <ele>114.7</ele>
        <time>2023-05-31T12:31:11Z</time>
      </trkpt>
      <trkpt lat="49.88698" lon="2.04268">
        <ele>114.7</ele>
        <time>2023-05-31T12:31:12Z</time>
      </trkpt>
      <trkpt lat="49.88699" lon="2.04265">
        <ele>114.7</ele>
        <time>2023-05-31T12:31:13Z</time>
      </trkpt>
      <trkpt lat="49.88699" lon="2.04264">
        <ele>114.7</ele>
        <time>2023-05-31T12:31:15Z</time>
      </trkpt>
      <trkpt lat="49.887" lon="2.04263">
        <ele>114.7</ele>
        <time>2023-05-31T12:31:16Z</time>
      </trkpt>
      <trkpt lat="49.887" lon="2.04261">
        <ele>114.8</ele>
        <time>2023-05-31T12:31:17Z</time>
      </trkpt>
      <trkpt lat="49.88701" lon="2.04259">
        <ele>114.8</ele>
        <time>2023-05-31T12:31:18Z</time>
      </trkpt>
      <trkpt lat="49.88703" lon="2.04256">
        <ele>114.8</ele>
        <time>2023-05-31T12:31:19Z</time>
      </trkpt>
      <trkpt lat="49.88703" lon="2.04255">
        <ele>114.8</ele>
        <time>2023-05-31T12:31:21Z</time>
      </trkpt>
      <trkpt lat="49.88704" lon="2.04253">
        <ele>114.8</ele>
        <time>2023-05-31T12:31:22Z</time>
      </trkpt>
      <trkpt lat="49.88704" lon="2.04252">
        <ele>114.9</ele>
        <time>2023-05-31T12:31:23Z</time>
      </trkpt>
      <trkpt lat="49.88705" lon="2.0425">
        <ele>114.9</ele>
        <time>2023-05-31T12:31:24Z</time>
      </trkpt>
      <trkpt lat="49.88706" lon="2.04246">
        <ele>114.9</ele>
        <time>2023-05-31T12:31:26Z</time>
      </trkpt>
      <trkpt lat="49.88707" lon="2.04244">
        <ele>114.9</ele>
        <time>2023-05-31T12:31:28Z</time>
      </trkpt>
      <trkpt lat="49.88708" lon="2.04243">
        <ele>114.9</ele>
        <time>2023-05-31T12:31:29Z</time>
      </trkpt>
      <trkpt lat="49.88709" lon="2.04241">
        <ele>114.9</ele>
        <time>2023-05-31T12:31:30Z</time>
      </trkpt>
      <trkpt lat="49.88709" lon="2.04239">
        <ele>114.9</ele>
        <time>2023-05-31T12:31:31Z</time>
      </trkpt>
      <trkpt lat="49.8871" lon="2.04237">
        <ele>114.9</ele>
        <time>2023-05-31T12:31:32Z</time>
      </trkpt>
      <trkpt lat="49.88711" lon="2.04234">
        <ele>115</ele>
        <time>2023-05-31T12:31:33Z</time>
      </trkpt>
      <trkpt lat="49.88712" lon="2.04234">
        <ele>115</ele>
        <time>2023-05-31T12:31:35Z</time>
      </trkpt>
      <trkpt lat="49.88712" lon="2.04233">
        <ele>115</ele>
        <time>2023-05-31T12:31:36Z</time>
      </trkpt>
      <trkpt lat="49.88713" lon="2.04231">
        <ele>115</ele>
        <time>2023-05-31T12:31:37Z</time>
      </trkpt>
      <trkpt lat="49.88714" lon="2.04229">
        <ele>115</ele>
        <time>2023-05-31T12:31:38Z</time>
      </trkpt>
      <trkpt lat="49.88715" lon="2.04226">
        <ele>115</ele>
        <time>2023-05-31T12:31:39Z</time>
      </trkpt>
      <trkpt lat="49.88715" lon="2.04225">
        <ele>115</ele>
        <time>2023-05-31T12:31:40Z</time>
      </trkpt>
      <trkpt lat="49.88715" lon="2.04223">
        <ele>115</ele>
        <time>2023-05-31T12:31:42Z</time>
      </trkpt>
      <trkpt lat="49.88716" lon="2.04222">
        <ele>115</ele>
        <time>2023-05-31T12:31:43Z</time>
      </trkpt>
      <trkpt lat="49.88716" lon="2.0422">
        <ele>115</ele>
        <time>2023-05-31T12:31:44Z</time>
      </trkpt>
      <trkpt lat="49.88716" lon="2.04219">
        <ele>115</ele>
        <time>2023-05-31T12:31:45Z</time>
      </trkpt>
      <trkpt lat="49.88717" lon="2.04216">
        <ele>115</ele>
        <time>2023-05-31T12:31:47Z</time>
      </trkpt>
      <trkpt lat="49.88717" lon="2.04214">
        <ele>115</ele>
        <time>2023-05-31T12:31:48Z</time>
      </trkpt>
      <trkpt lat="49.88718" lon="2.04213">
        <ele>114.9</ele>
        <time>2023-05-31T12:31:49Z</time>
      </trkpt>
      <trkpt lat="49.88719" lon="2.0421">
        <ele>114.9</ele>
        <time>2023-05-31T12:31:51Z</time>
      </trkpt>
      <trkpt lat="49.88719" lon="2.04209">
        <ele>114.9</ele>
        <time>2023-05-31T12:31:52Z</time>
      </trkpt>
      <trkpt lat="49.88719" lon="2.04207">
        <ele>114.9</ele>
        <time>2023-05-31T12:31:53Z</time>
      </trkpt>
      <trkpt lat="49.8872" lon="2.04206">
        <ele>114.9</ele>
        <time>2023-05-31T12:31:54Z</time>
      </trkpt>
      <trkpt lat="49.88721" lon="2.04204">
        <ele>114.9</ele>
        <time>2023-05-31T12:31:55Z</time>
      </trkpt>
      <trkpt lat="49.88721" lon="2.04203">
        <ele>114.9</ele>
        <time>2023-05-31T12:31:56Z</time>
      </trkpt>
      <trkpt lat="49.88722" lon="2.04202">
        <ele>114.8</ele>
        <time>2023-05-31T12:31:57Z</time>
      </trkpt>
      <trkpt lat="49.88723" lon="2.042">
        <ele>114.8</ele>
        <time>2023-05-31T12:31:59Z</time>
      </trkpt>
      <trkpt lat="49.88723" lon="2.04198">
        <ele>114.8</ele>
        <time>2023-05-31T12:32:00Z</time>
      </trkpt>
      <trkpt lat="49.88724" lon="2.04195">
        <ele>114.8</ele>
        <time>2023-05-31T12:32:01Z</time>
      </trkpt>
      <trkpt lat="49.88724" lon="2.04194">
        <ele>114.7</ele>
        <time>2023-05-31T12:32:02Z</time>
      </trkpt>
      <trkpt lat="49.88724" lon="2.04192">
        <ele>114.7</ele>
        <time>2023-05-31T12:32:03Z</time>
      </trkpt>
      <trkpt lat="49.88724" lon="2.0419">
        <ele>114.7</ele>
        <time>2023-05-31T12:32:04Z</time>
      </trkpt>
      <trkpt lat="49.88724" lon="2.04188">
        <ele>114.7</ele>
        <time>2023-05-31T12:32:05Z</time>
      </trkpt>
      <trkpt lat="49.88724" lon="2.04186">
        <ele>114.7</ele>
        <time>2023-05-31T12:32:07Z</time>
      </trkpt>
      <trkpt lat="49.88724" lon="2.04182">
        <ele>114.6</ele>
        <time>2023-05-31T12:32:08Z</time>
      </trkpt>
      <trkpt lat="49.88724" lon="2.04181">
        <ele>114.6</ele>
        <time>2023-05-31T12:32:09Z</time>
      </trkpt>
      <trkpt lat="49.88724" lon="2.0418">
        <ele>114.6</ele>
        <time>2023-05-31T12:32:10Z</time>
      </trkpt>
      <trkpt lat="49.88724" lon="2.04177">
        <ele>114.6</ele>
        <time>2023-05-31T12:32:11Z</time>
      </trkpt>
      <trkpt lat="49.88724" lon="2.04175">
        <ele>114.5</ele>
        <time>2023-05-31T12:32:13Z</time>
      </trkpt>
      <trkpt lat="49.88724" lon="2.04174">
        <ele>114.5</ele>
        <time>2023-05-31T12:32:14Z</time>
      </trkpt>
      <trkpt lat="49.88725" lon="2.04173">
        <ele>114.5</ele>
        <time>2023-05-31T12:32:15Z</time>
      </trkpt>
      <trkpt lat="49.88725" lon="2.04173">
        <ele>114.5</ele>
        <time>2023-05-31T12:32:16Z</time>
      </trkpt>
      <trkpt lat="49.88725" lon="2.04172">
        <ele>114.5</ele>
        <time>2023-05-31T12:32:18Z</time>
      </trkpt>
      <trkpt lat="49.88725" lon="2.04172">
        <ele>114.5</ele>
        <time>2023-05-31T12:32:19Z</time>
      </trkpt>
      <trkpt lat="49.88725" lon="2.04171">
        <ele>114.5</ele>
        <time>2023-05-31T12:32:20Z</time>
      </trkpt>
      <trkpt lat="49.88725" lon="2.04171">
        <ele>114.5</ele>
        <time>2023-05-31T12:32:21Z</time>
      </trkpt>
      <trkpt lat="49.88725" lon="2.0417">
        <ele>114.5</ele>
        <time>2023-05-31T12:32:23Z</time>
      </trkpt>
      <trkpt lat="49.88725" lon="2.04169">
        <ele>114.5</ele>
        <time>2023-05-31T12:32:24Z</time>
      </trkpt>
      <trkpt lat="49.88725" lon="2.04167">
        <ele>114.4</ele>
        <time>2023-05-31T12:32:25Z</time>
      </trkpt>
      <trkpt lat="49.88725" lon="2.04166">
        <ele>114.4</ele>
        <time>2023-05-31T12:32:27Z</time>
      </trkpt>
      <trkpt lat="49.88724" lon="2.04164">
        <ele>114.4</ele>
        <time>2023-05-31T12:32:28Z</time>
      </trkpt>
      <trkpt lat="49.88725" lon="2.04162">
        <ele>114.4</ele>
        <time>2023-05-31T12:32:29Z</time>
      </trkpt>
      <trkpt lat="49.88725" lon="2.04161">
        <ele>114.3</ele>
        <time>2023-05-31T12:32:30Z</time>
      </trkpt>
      <trkpt lat="49.88725" lon="2.04159">
        <ele>114.3</ele>
        <time>2023-05-31T12:32:31Z</time>
      </trkpt>
      <trkpt lat="49.88725" lon="2.04158">
        <ele>114.3</ele>
        <time>2023-05-31T12:32:32Z</time>
      </trkpt>
      <trkpt lat="49.88725" lon="2.04156">
        <ele>114.3</ele>
        <time>2023-05-31T12:32:33Z</time>
      </trkpt>
      <trkpt lat="49.88725" lon="2.04155">
        <ele>114.2</ele>
        <time>2023-05-31T12:32:35Z</time>
      </trkpt>
      <trkpt lat="49.88725" lon="2.04153">
        <ele>114.2</ele>
        <time>2023-05-31T12:32:36Z</time>
      </trkpt>
      <trkpt lat="49.88725" lon="2.04151">
        <ele>114.2</ele>
        <time>2023-05-31T12:32:37Z</time>
      </trkpt>
      <trkpt lat="49.88725" lon="2.0415">
        <ele>114.2</ele>
        <time>2023-05-31T12:32:38Z</time>
      </trkpt>
      <trkpt lat="49.88725" lon="2.04148">
        <ele>114.1</ele>
        <time>2023-05-31T12:32:39Z</time>
      </trkpt>
      <trkpt lat="49.88725" lon="2.04146">
        <ele>114.1</ele>
        <time>2023-05-31T12:32:40Z</time>
      </trkpt>
      <trkpt lat="49.88725" lon="2.04145">
        <ele>114.1</ele>
        <time>2023-05-31T12:32:42Z</time>
      </trkpt>
      <trkpt lat="49.88725" lon="2.04143">
        <ele>114.1</ele>
        <time>2023-05-31T12:32:43Z</time>
      </trkpt>
      <trkpt lat="49.88725" lon="2.04141">
        <ele>114</ele>
        <time>2023-05-31T12:32:44Z</time>
      </trkpt>
      <trkpt lat="49.88725" lon="2.0414">
        <ele>114</ele>
        <time>2023-05-31T12:32:45Z</time>
      </trkpt>
      <trkpt lat="49.88725" lon="2.04138">
        <ele>114</ele>
        <time>2023-05-31T12:32:46Z</time>
      </trkpt>
      <trkpt lat="49.88725" lon="2.04136">
        <ele>113.9</ele>
        <time>2023-05-31T12:32:47Z</time>
      </trkpt>
      <trkpt lat="49.88725" lon="2.04134">
        <ele>113.9</ele>
        <time>2023-05-31T12:32:48Z</time>
      </trkpt>
      <trkpt lat="49.88725" lon="2.04132">
        <ele>113.9</ele>
        <time>2023-05-31T12:32:49Z</time>
      </trkpt>
      <trkpt lat="49.88726" lon="2.04131">
        <ele>113.8</ele>
        <time>2023-05-31T12:32:51Z</time>
      </trkpt>
      <trkpt lat="49.88726" lon="2.04129">
        <ele>113.8</ele>
        <time>2023-05-31T12:32:52Z</time>
      </trkpt>
      <trkpt lat="49.88726" lon="2.04126">
        <ele>113.8</ele>
        <time>2023-05-31T12:32:53Z</time>
      </trkpt>
      <trkpt lat="49.88726" lon="2.04124">
        <ele>113.7</ele>
        <time>2023-05-31T12:32:55Z</time>
      </trkpt>
      <trkpt lat="49.88727" lon="2.04123">
        <ele>113.7</ele>
        <time>2023-05-31T12:32:56Z</time>
      </trkpt>
      <trkpt lat="49.88727" lon="2.04121">
        <ele>113.7</ele>
        <time>2023-05-31T12:32:57Z</time>
      </trkpt>
      <trkpt lat="49.88727" lon="2.04118">
        <ele>113.6</ele>
        <time>2023-05-31T12:32:58Z</time>
      </trkpt>
      <trkpt lat="49.88727" lon="2.04116">
        <ele>113.6</ele>
        <time>2023-05-31T12:32:59Z</time>
      </trkpt>
      <trkpt lat="49.88727" lon="2.04115">
        <ele>113.6</ele>
        <time>2023-05-31T12:33:00Z</time>
      </trkpt>
      <trkpt lat="49.88728" lon="2.04112">
        <ele>113.5</ele>
        <time>2023-05-31T12:33:02Z</time>
      </trkpt>
      <trkpt lat="49.88728" lon="2.0411">
        <ele>113.5</ele>
        <time>2023-05-31T12:33:03Z</time>
      </trkpt>
      <trkpt lat="49.88728" lon="2.04109">
        <ele>113.5</ele>
        <time>2023-05-31T12:33:04Z</time>
      </trkpt>
      <trkpt lat="49.88728" lon="2.04107">
        <ele>113.4</ele>
        <time>2023-05-31T12:33:05Z</time>
      </trkpt>
      <trkpt lat="49.88729" lon="2.04104">
        <ele>113.4</ele>
        <time>2023-05-31T12:33:07Z</time>
      </trkpt>
      <trkpt lat="49.88729" lon="2.04102">
        <ele>113.3</ele>
        <time>2023-05-31T12:33:08Z</time>
      </trkpt>
      <trkpt lat="49.88729" lon="2.04099">
        <ele>113.3</ele>
        <time>2023-05-31T12:33:09Z</time>
      </trkpt>
      <trkpt lat="49.8873" lon="2.04096">
        <ele>113.2</ele>
        <time>2023-05-31T12:33:11Z</time>
      </trkpt>
      <trkpt lat="49.8873" lon="2.04095">
        <ele>113.2</ele>
        <time>2023-05-31T12:33:12Z</time>
      </trkpt>
      <trkpt lat="49.8873" lon="2.04094">
        <ele>113.1</ele>
        <time>2023-05-31T12:33:13Z</time>
      </trkpt>
      <trkpt lat="49.88731" lon="2.0409">
        <ele>113</ele>
        <time>2023-05-31T12:33:14Z</time>
      </trkpt>
      <trkpt lat="49.88731" lon="2.04089">
        <ele>113</ele>
        <time>2023-05-31T12:33:15Z</time>
      </trkpt>
      <trkpt lat="49.88731" lon="2.04088">
        <ele>113</ele>
        <time>2023-05-31T12:33:16Z</time>
      </trkpt>
      <trkpt lat="49.88732" lon="2.04084">
        <ele>112.9</ele>
        <time>2023-05-31T12:33:17Z</time>
      </trkpt>
      <trkpt lat="49.88732" lon="2.04083">
        <ele>112.9</ele>
        <time>2023-05-31T12:33:19Z</time>
      </trkpt>
      <trkpt lat="49.88733" lon="2.04082">
        <ele>112.8</ele>
        <time>2023-05-31T12:33:20Z</time>
      </trkpt>
      <trkpt lat="49.88733" lon="2.0408">
        <ele>112.8</ele>
        <time>2023-05-31T12:33:21Z</time>
      </trkpt>
      <trkpt lat="49.88734" lon="2.04078">
        <ele>112.7</ele>
        <time>2023-05-31T12:33:22Z</time>
      </trkpt>
      <trkpt lat="49.88735" lon="2.04075">
        <ele>112.6</ele>
        <time>2023-05-31T12:33:23Z</time>
      </trkpt>
      <trkpt lat="49.88735" lon="2.04074">
        <ele>112.6</ele>
        <time>2023-05-31T12:33:24Z</time>
      </trkpt>
      <trkpt lat="49.88736" lon="2.04072">
        <ele>112.6</ele>
        <time>2023-05-31T12:33:25Z</time>
      </trkpt>
      <trkpt lat="49.88737" lon="2.0407">
        <ele>112.5</ele>
        <time>2023-05-31T12:33:26Z</time>
      </trkpt>
      <trkpt lat="49.88737" lon="2.04069">
        <ele>112.4</ele>
        <time>2023-05-31T12:33:28Z</time>
      </trkpt>
      <trkpt lat="49.88738" lon="2.04068">
        <ele>112.4</ele>
        <time>2023-05-31T12:33:29Z</time>
      </trkpt>
      <trkpt lat="49.88739" lon="2.04065">
        <ele>112.3</ele>
        <time>2023-05-31T12:33:30Z</time>
      </trkpt>
      <trkpt lat="49.8874" lon="2.04064">
        <ele>112.3</ele>
        <time>2023-05-31T12:33:31Z</time>
      </trkpt>
      <trkpt lat="49.8874" lon="2.04063">
        <ele>112.3</ele>
        <time>2023-05-31T12:33:32Z</time>
      </trkpt>
      <trkpt lat="49.88741" lon="2.04061">
        <ele>112.2</ele>
        <time>2023-05-31T12:33:33Z</time>
      </trkpt>
      <trkpt lat="49.88742" lon="2.0406">
        <ele>112.2</ele>
        <time>2023-05-31T12:33:34Z</time>
      </trkpt>
      <trkpt lat="49.88743" lon="2.04058">
        <ele>112.1</ele>
        <time>2023-05-31T12:33:36Z</time>
      </trkpt>
      <trkpt lat="49.88743" lon="2.04057">
        <ele>112.1</ele>
        <time>2023-05-31T12:33:37Z</time>
      </trkpt>
      <trkpt lat="49.88744" lon="2.04055">
        <ele>112</ele>
        <time>2023-05-31T12:33:38Z</time>
      </trkpt>
      <trkpt lat="49.88745" lon="2.04052">
        <ele>111.9</ele>
        <time>2023-05-31T12:33:40Z</time>
      </trkpt>
      <trkpt lat="49.88746" lon="2.0405">
        <ele>111.8</ele>
        <time>2023-05-31T12:33:41Z</time>
      </trkpt>
      <trkpt lat="49.88747" lon="2.04048">
        <ele>111.8</ele>
        <time>2023-05-31T12:33:42Z</time>
      </trkpt>
      <trkpt lat="49.88747" lon="2.04045">
        <ele>111.7</ele>
        <time>2023-05-31T12:33:43Z</time>
      </trkpt>
      <trkpt lat="49.88747" lon="2.04043">
        <ele>111.6</ele>
        <time>2023-05-31T12:33:45Z</time>
      </trkpt>
      <trkpt lat="49.88748" lon="2.04042">
        <ele>111.6</ele>
        <time>2023-05-31T12:33:46Z</time>
      </trkpt>
      <trkpt lat="49.88748" lon="2.0404">
        <ele>111.5</ele>
        <time>2023-05-31T12:33:47Z</time>
      </trkpt>
      <trkpt lat="49.88748" lon="2.04038">
        <ele>111.5</ele>
        <time>2023-05-31T12:33:48Z</time>
      </trkpt>
      <trkpt lat="49.88749" lon="2.04035">
        <ele>111.4</ele>
        <time>2023-05-31T12:33:50Z</time>
      </trkpt>
      <trkpt lat="49.88749" lon="2.04033">
        <ele>111.3</ele>
        <time>2023-05-31T12:33:51Z</time>
      </trkpt>
      <trkpt lat="49.8875" lon="2.0403">
        <ele>111.2</ele>
        <time>2023-05-31T12:33:52Z</time>
      </trkpt>
      <trkpt lat="49.8875" lon="2.04027">
        <ele>111.1</ele>
        <time>2023-05-31T12:33:54Z</time>
      </trkpt>
      <trkpt lat="49.8875" lon="2.04025">
        <ele>111.1</ele>
        <time>2023-05-31T12:33:55Z</time>
      </trkpt>
      <trkpt lat="49.8875" lon="2.04024">
        <ele>111.1</ele>
        <time>2023-05-31T12:33:56Z</time>
      </trkpt>
      <trkpt lat="49.88751" lon="2.04021">
        <ele>111</ele>
        <time>2023-05-31T12:33:57Z</time>
      </trkpt>
      <trkpt lat="49.88751" lon="2.04019">
        <ele>110.9</ele>
        <time>2023-05-31T12:33:58Z</time>
      </trkpt>
      <trkpt lat="49.88751" lon="2.04018">
        <ele>110.9</ele>
        <time>2023-05-31T12:33:59Z</time>
      </trkpt>
      <trkpt lat="49.88752" lon="2.04015">
        <ele>110.8</ele>
        <time>2023-05-31T12:34:00Z</time>
      </trkpt>
      <trkpt lat="49.88752" lon="2.04014">
        <ele>110.8</ele>
        <time>2023-05-31T12:34:02Z</time>
      </trkpt>
      <trkpt lat="49.88752" lon="2.04012">
        <ele>110.7</ele>
        <time>2023-05-31T12:34:03Z</time>
      </trkpt>
      <trkpt lat="49.88753" lon="2.0401">
        <ele>110.7</ele>
        <time>2023-05-31T12:34:04Z</time>
      </trkpt>
      <trkpt lat="49.88754" lon="2.04008">
        <ele>110.6</ele>
        <time>2023-05-31T12:34:05Z</time>
      </trkpt>
      <trkpt lat="49.88754" lon="2.04006">
        <ele>110.5</ele>
        <time>2023-05-31T12:34:06Z</time>
      </trkpt>
      <trkpt lat="49.88755" lon="2.04003">
        <ele>110.5</ele>
        <time>2023-05-31T12:34:07Z</time>
      </trkpt>
      <trkpt lat="49.88755" lon="2.03999">
        <ele>110.3</ele>
        <time>2023-05-31T12:34:08Z</time>
      </trkpt>
      <trkpt lat="49.88756" lon="2.03998">
        <ele>110.3</ele>
        <time>2023-05-31T12:34:09Z</time>
      </trkpt>
      <trkpt lat="49.88756" lon="2.03995">
        <ele>110.2</ele>
        <time>2023-05-31T12:34:11Z</time>
      </trkpt>
      <trkpt lat="49.88757" lon="2.03993">
        <ele>110.2</ele>
        <time>2023-05-31T12:34:12Z</time>
      </trkpt>
      <trkpt lat="49.88757" lon="2.03991">
        <ele>110.1</ele>
        <time>2023-05-31T12:34:13Z</time>
      </trkpt>
      <trkpt lat="49.88757" lon="2.03989">
        <ele>110.1</ele>
        <time>2023-05-31T12:34:14Z</time>
      </trkpt>
      <trkpt lat="49.88758" lon="2.03986">
        <ele>110</ele>
        <time>2023-05-31T12:34:15Z</time>
      </trkpt>
      <trkpt lat="49.88758" lon="2.03984">
        <ele>109.9</ele>
        <time>2023-05-31T12:34:16Z</time>
      </trkpt>
      <trkpt lat="49.88759" lon="2.03982">
        <ele>109.9</ele>
        <time>2023-05-31T12:34:17Z</time>
      </trkpt>
      <trkpt lat="49.88759" lon="2.03981">
        <ele>109.8</ele>
        <time>2023-05-31T12:34:18Z</time>
      </trkpt>
      <trkpt lat="49.88759" lon="2.03979">
        <ele>109.8</ele>
        <time>2023-05-31T12:34:19Z</time>
      </trkpt>
      <trkpt lat="49.8876" lon="2.03978">
        <ele>109.8</ele>
        <time>2023-05-31T12:34:21Z</time>
      </trkpt>
      <trkpt lat="49.8876" lon="2.03977">
        <ele>109.8</ele>
        <time>2023-05-31T12:34:22Z</time>
      </trkpt>
      <trkpt lat="49.8876" lon="2.03976">
        <ele>109.7</ele>
        <time>2023-05-31T12:34:23Z</time>
      </trkpt>
      <trkpt lat="49.8876" lon="2.03975">
        <ele>109.7</ele>
        <time>2023-05-31T12:34:24Z</time>
      </trkpt>
      <trkpt lat="49.8876" lon="2.03974">
        <ele>109.7</ele>
        <time>2023-05-31T12:34:25Z</time>
      </trkpt>
      <trkpt lat="49.88761" lon="2.03972">
        <ele>109.6</ele>
        <time>2023-05-31T12:34:26Z</time>
      </trkpt>
      <trkpt lat="49.88761" lon="2.03971">
        <ele>109.6</ele>
        <time>2023-05-31T12:34:27Z</time>
      </trkpt>
      <trkpt lat="49.88762" lon="2.0397">
        <ele>109.6</ele>
        <time>2023-05-31T12:34:29Z</time>
      </trkpt>
      <trkpt lat="49.88762" lon="2.03969">
        <ele>109.6</ele>
        <time>2023-05-31T12:34:30Z</time>
      </trkpt>
      <trkpt lat="49.88763" lon="2.03966">
        <ele>109.5</ele>
        <time>2023-05-31T12:34:31Z</time>
      </trkpt>
      <trkpt lat="49.88763" lon="2.03965">
        <ele>109.5</ele>
        <time>2023-05-31T12:34:32Z</time>
      </trkpt>
      <trkpt lat="49.88763" lon="2.03964">
        <ele>109.4</ele>
        <time>2023-05-31T12:34:33Z</time>
      </trkpt>
      <trkpt lat="49.88764" lon="2.03961">
        <ele>109.3</ele>
        <time>2023-05-31T12:34:34Z</time>
      </trkpt>
      <trkpt lat="49.88764" lon="2.0396">
        <ele>109.3</ele>
        <time>2023-05-31T12:34:35Z</time>
      </trkpt>
      <trkpt lat="49.88764" lon="2.03958">
        <ele>109.3</ele>
        <time>2023-05-31T12:34:36Z</time>
      </trkpt>
      <trkpt lat="49.88765" lon="2.03955">
        <ele>109.2</ele>
        <time>2023-05-31T12:34:37Z</time>
      </trkpt>
      <trkpt lat="49.88765" lon="2.03954">
        <ele>109.2</ele>
        <time>2023-05-31T12:34:39Z</time>
      </trkpt>
      <trkpt lat="49.88766" lon="2.03953">
        <ele>109.2</ele>
        <time>2023-05-31T12:34:40Z</time>
      </trkpt>
      <trkpt lat="49.88766" lon="2.0395">
        <ele>109.1</ele>
        <time>2023-05-31T12:34:41Z</time>
      </trkpt>
      <trkpt lat="49.88767" lon="2.03949">
        <ele>109</ele>
        <time>2023-05-31T12:34:42Z</time>
      </trkpt>
      <trkpt lat="49.88767" lon="2.03947">
        <ele>109</ele>
        <time>2023-05-31T12:34:43Z</time>
      </trkpt>
      <trkpt lat="49.88768" lon="2.03944">
        <ele>108.9</ele>
        <time>2023-05-31T12:34:44Z</time>
      </trkpt>
      <trkpt lat="49.88768" lon="2.03943">
        <ele>108.9</ele>
        <time>2023-05-31T12:34:45Z</time>
      </trkpt>
      <trkpt lat="49.88768" lon="2.03942">
        <ele>108.8</ele>
        <time>2023-05-31T12:34:46Z</time>
      </trkpt>
      <trkpt lat="49.88769" lon="2.0394">
        <ele>108.8</ele>
        <time>2023-05-31T12:34:48Z</time>
      </trkpt>
      <trkpt lat="49.88769" lon="2.03938">
        <ele>108.7</ele>
        <time>2023-05-31T12:34:49Z</time>
      </trkpt>
      <trkpt lat="49.8877" lon="2.03936">
        <ele>108.6</ele>
        <time>2023-05-31T12:34:50Z</time>
      </trkpt>
      <trkpt lat="49.88771" lon="2.03934">
        <ele>108.6</ele>
        <time>2023-05-31T12:34:51Z</time>
      </trkpt>
      <trkpt lat="49.88772" lon="2.03931">
        <ele>108.5</ele>
        <time>2023-05-31T12:34:52Z</time>
      </trkpt>
      <trkpt lat="49.88772" lon="2.0393">
        <ele>108.4</ele>
        <time>2023-05-31T12:34:53Z</time>
      </trkpt>
      <trkpt lat="49.88772" lon="2.03929">
        <ele>108.4</ele>
        <time>2023-05-31T12:34:54Z</time>
      </trkpt>
      <trkpt lat="49.88773" lon="2.03927">
        <ele>108.3</ele>
        <time>2023-05-31T12:34:55Z</time>
      </trkpt>
      <trkpt lat="49.88773" lon="2.03925">
        <ele>108.2</ele>
        <time>2023-05-31T12:34:56Z</time>
      </trkpt>
      <trkpt lat="49.88774" lon="2.03923">
        <ele>108.2</ele>
        <time>2023-05-31T12:34:58Z</time>
      </trkpt>
      <trkpt lat="49.88775" lon="2.0392">
        <ele>108.1</ele>
        <time>2023-05-31T12:35:00Z</time>
      </trkpt>
      <trkpt lat="49.88775" lon="2.03919">
        <ele>108</ele>
        <time>2023-05-31T12:35:01Z</time>
      </trkpt>
      <trkpt lat="49.88775" lon="2.03917">
        <ele>108</ele>
        <time>2023-05-31T12:35:02Z</time>
      </trkpt>
      <trkpt lat="49.88776" lon="2.03914">
        <ele>107.9</ele>
        <time>2023-05-31T12:35:03Z</time>
      </trkpt>
      <trkpt lat="49.88776" lon="2.03912">
        <ele>107.8</ele>
        <time>2023-05-31T12:35:04Z</time>
      </trkpt>
      <trkpt lat="49.88776" lon="2.03909">
        <ele>107.7</ele>
        <time>2023-05-31T12:35:05Z</time>
      </trkpt>
      <trkpt lat="49.88776" lon="2.03907">
        <ele>107.6</ele>
        <time>2023-05-31T12:35:06Z</time>
      </trkpt>
      <trkpt lat="49.88776" lon="2.03905">
        <ele>107.6</ele>
        <time>2023-05-31T12:35:08Z</time>
      </trkpt>
      <trkpt lat="49.88776" lon="2.03903">
        <ele>107.5</ele>
        <time>2023-05-31T12:35:09Z</time>
      </trkpt>
      <trkpt lat="49.88776" lon="2.03901">
        <ele>107.5</ele>
        <time>2023-05-31T12:35:10Z</time>
      </trkpt>
      <trkpt lat="49.88776" lon="2.03899">
        <ele>107.4</ele>
        <time>2023-05-31T12:35:11Z</time>
      </trkpt>
      <trkpt lat="49.88776" lon="2.03896">
        <ele>107.4</ele>
        <time>2023-05-31T12:35:12Z</time>
      </trkpt>
      <trkpt lat="49.88776" lon="2.03894">
        <ele>107.3</ele>
        <time>2023-05-31T12:35:13Z</time>
      </trkpt>
      <trkpt lat="49.88776" lon="2.03893">
        <ele>107.3</ele>
        <time>2023-05-31T12:35:14Z</time>
      </trkpt>
      <trkpt lat="49.88776" lon="2.0389">
        <ele>107.3</ele>
        <time>2023-05-31T12:35:15Z</time>
      </trkpt>
      <trkpt lat="49.88776" lon="2.03887">
        <ele>107.2</ele>
        <time>2023-05-31T12:35:16Z</time>
      </trkpt>
      <trkpt lat="49.88776" lon="2.03883">
        <ele>107.2</ele>
        <time>2023-05-31T12:35:18Z</time>
      </trkpt>
      <trkpt lat="49.88776" lon="2.03881">
        <ele>107.1</ele>
        <time>2023-05-31T12:35:19Z</time>
      </trkpt>
      <trkpt lat="49.88776" lon="2.03878">
        <ele>107.1</ele>
        <time>2023-05-31T12:35:20Z</time>
      </trkpt>
      <trkpt lat="49.88775" lon="2.03876">
        <ele>107.3</ele>
        <time>2023-05-31T12:35:21Z</time>
      </trkpt>
      <trkpt lat="49.88774" lon="2.03874">
        <ele>107.3</ele>
        <time>2023-05-31T12:35:22Z</time>
      </trkpt>
      <trkpt lat="49.88773" lon="2.03872">
        <ele>107.4</ele>
        <time>2023-05-31T12:35:23Z</time>
      </trkpt>
      <trkpt lat="49.88771" lon="2.03871">
        <ele>107.5</ele>
        <time>2023-05-31T12:35:24Z</time>
      </trkpt>
      <trkpt lat="49.88771" lon="2.03871">
        <ele>107.5</ele>
        <time>2023-05-31T12:35:26Z</time>
      </trkpt>
      <trkpt lat="49.8877" lon="2.03871">
        <ele>107.5</ele>
        <time>2023-05-31T12:35:27Z</time>
      </trkpt>
      <trkpt lat="49.88768" lon="2.03872">
        <ele>107.6</ele>
        <time>2023-05-31T12:35:28Z</time>
      </trkpt>
      <trkpt lat="49.88767" lon="2.03873">
        <ele>107.7</ele>
        <time>2023-05-31T12:35:29Z</time>
      </trkpt>
      <trkpt lat="49.88766" lon="2.03873">
        <ele>107.7</ele>
        <time>2023-05-31T12:35:30Z</time>
      </trkpt>
      <trkpt lat="49.88765" lon="2.03874">
        <ele>107.7</ele>
        <time>2023-05-31T12:35:31Z</time>
      </trkpt>
      <trkpt lat="49.88764" lon="2.03874">
        <ele>107.8</ele>
        <time>2023-05-31T12:35:33Z</time>
      </trkpt>
      <trkpt lat="49.88762" lon="2.03875">
        <ele>107.8</ele>
        <time>2023-05-31T12:35:34Z</time>
      </trkpt>
      <trkpt lat="49.88761" lon="2.03876">
        <ele>107.9</ele>
        <time>2023-05-31T12:35:36Z</time>
      </trkpt>
      <trkpt lat="49.8876" lon="2.03876">
        <ele>107.9</ele>
        <time>2023-05-31T12:35:37Z</time>
      </trkpt>
      <trkpt lat="49.88759" lon="2.03877">
        <ele>107.9</ele>
        <time>2023-05-31T12:35:38Z</time>
      </trkpt>
      <trkpt lat="49.88758" lon="2.03877">
        <ele>108</ele>
        <time>2023-05-31T12:35:39Z</time>
      </trkpt>
      <trkpt lat="49.88757" lon="2.03877">
        <ele>108</ele>
        <time>2023-05-31T12:35:40Z</time>
      </trkpt>
      <trkpt lat="49.88756" lon="2.03878">
        <ele>108</ele>
        <time>2023-05-31T12:35:41Z</time>
      </trkpt>
      <trkpt lat="49.88754" lon="2.03878">
        <ele>108.1</ele>
        <time>2023-05-31T12:35:43Z</time>
      </trkpt>
      <trkpt lat="49.88754" lon="2.03878">
        <ele>108.1</ele>
        <time>2023-05-31T12:35:44Z</time>
      </trkpt>
      <trkpt lat="49.88753" lon="2.03879">
        <ele>108.1</ele>
        <time>2023-05-31T12:35:45Z</time>
      </trkpt>
      <trkpt lat="49.88751" lon="2.03879">
        <ele>108.1</ele>
        <time>2023-05-31T12:35:46Z</time>
      </trkpt>
      <trkpt lat="49.8875" lon="2.03879">
        <ele>108.2</ele>
        <time>2023-05-31T12:35:47Z</time>
      </trkpt>
      <trkpt lat="49.88749" lon="2.0388">
        <ele>108.2</ele>
        <time>2023-05-31T12:35:48Z</time>
      </trkpt>
      <trkpt lat="49.88748" lon="2.0388">
        <ele>108.2</ele>
        <time>2023-05-31T12:35:50Z</time>
      </trkpt>
      <trkpt lat="49.88746" lon="2.0388">
        <ele>108.2</ele>
        <time>2023-05-31T12:35:51Z</time>
      </trkpt>
      <trkpt lat="49.88745" lon="2.0388">
        <ele>108.3</ele>
        <time>2023-05-31T12:35:52Z</time>
      </trkpt>
      <trkpt lat="49.88743" lon="2.0388">
        <ele>108.3</ele>
        <time>2023-05-31T12:35:53Z</time>
      </trkpt>
      <trkpt lat="49.88741" lon="2.0388">
        <ele>108.3</ele>
        <time>2023-05-31T12:35:54Z</time>
      </trkpt>
      <trkpt lat="49.8874" lon="2.03881">
        <ele>108.3</ele>
        <time>2023-05-31T12:35:55Z</time>
      </trkpt>
      <trkpt lat="49.88738" lon="2.03881">
        <ele>108.3</ele>
        <time>2023-05-31T12:35:56Z</time>
      </trkpt>
      <trkpt lat="49.88737" lon="2.03881">
        <ele>108.3</ele>
        <time>2023-05-31T12:35:58Z</time>
      </trkpt>
      <trkpt lat="49.88735" lon="2.03881">
        <ele>108.3</ele>
        <time>2023-05-31T12:35:59Z</time>
      </trkpt>
      <trkpt lat="49.88732" lon="2.0388">
        <ele>108.3</ele>
        <time>2023-05-31T12:36:00Z</time>
      </trkpt>
      <trkpt lat="49.88732" lon="2.0388">
        <ele>108.3</ele>
        <time>2023-05-31T12:36:01Z</time>
      </trkpt>
      <trkpt lat="49.8873" lon="2.0388">
        <ele>108.3</ele>
        <time>2023-05-31T12:36:02Z</time>
      </trkpt>
      <trkpt lat="49.88728" lon="2.03879">
        <ele>108.3</ele>
        <time>2023-05-31T12:36:03Z</time>
      </trkpt>
      <trkpt lat="49.88727" lon="2.03879">
        <ele>108.3</ele>
        <time>2023-05-31T12:36:05Z</time>
      </trkpt>
      <trkpt lat="49.88725" lon="2.03879">
        <ele>108.3</ele>
        <time>2023-05-31T12:36:06Z</time>
      </trkpt>
      <trkpt lat="49.88724" lon="2.03878">
        <ele>108.3</ele>
        <time>2023-05-31T12:36:07Z</time>
      </trkpt>
      <trkpt lat="49.88722" lon="2.03878">
        <ele>108.3</ele>
        <time>2023-05-31T12:36:08Z</time>
      </trkpt>
      <trkpt lat="49.8872" lon="2.03877">
        <ele>108.2</ele>
        <time>2023-05-31T12:36:09Z</time>
      </trkpt>
      <trkpt lat="49.88719" lon="2.03876">
        <ele>108.2</ele>
        <time>2023-05-31T12:36:10Z</time>
      </trkpt>
      <trkpt lat="49.88717" lon="2.03875">
        <ele>108.2</ele>
        <time>2023-05-31T12:36:11Z</time>
      </trkpt>
      <trkpt lat="49.88716" lon="2.03875">
        <ele>108.2</ele>
        <time>2023-05-31T12:36:12Z</time>
      </trkpt>
      <trkpt lat="49.88714" lon="2.03874">
        <ele>108.2</ele>
        <time>2023-05-31T12:36:13Z</time>
      </trkpt>
      <trkpt lat="49.88713" lon="2.03873">
        <ele>108.3</ele>
        <time>2023-05-31T12:36:14Z</time>
      </trkpt>
      <trkpt lat="49.88711" lon="2.03871">
        <ele>108.3</ele>
        <time>2023-05-31T12:36:16Z</time>
      </trkpt>
      <trkpt lat="49.8871" lon="2.0387">
        <ele>108.3</ele>
        <time>2023-05-31T12:36:17Z</time>
      </trkpt>
      <trkpt lat="49.88708" lon="2.03869">
        <ele>108.3</ele>
        <time>2023-05-31T12:36:18Z</time>
      </trkpt>
      <trkpt lat="49.88707" lon="2.03868">
        <ele>108.3</ele>
        <time>2023-05-31T12:36:19Z</time>
      </trkpt>
      <trkpt lat="49.88706" lon="2.03867">
        <ele>108.4</ele>
        <time>2023-05-31T12:36:20Z</time>
      </trkpt>
      <trkpt lat="49.88705" lon="2.03866">
        <ele>108.4</ele>
        <time>2023-05-31T12:36:21Z</time>
      </trkpt>
      <trkpt lat="49.88704" lon="2.03865">
        <ele>108.4</ele>
        <time>2023-05-31T12:36:22Z</time>
      </trkpt>
      <trkpt lat="49.88703" lon="2.03864">
        <ele>108.4</ele>
        <time>2023-05-31T12:36:23Z</time>
      </trkpt>
      <trkpt lat="49.88702" lon="2.03863">
        <ele>108.4</ele>
        <time>2023-05-31T12:36:25Z</time>
      </trkpt>
      <trkpt lat="49.88701" lon="2.03862">
        <ele>108.4</ele>
        <time>2023-05-31T12:36:26Z</time>
      </trkpt>
      <trkpt lat="49.887" lon="2.03861">
        <ele>108.5</ele>
        <time>2023-05-31T12:36:27Z</time>
      </trkpt>
      <trkpt lat="49.88699" lon="2.0386">
        <ele>108.5</ele>
        <time>2023-05-31T12:36:28Z</time>
      </trkpt>
      <trkpt lat="49.88698" lon="2.03859">
        <ele>108.5</ele>
        <time>2023-05-31T12:36:30Z</time>
      </trkpt>
      <trkpt lat="49.88697" lon="2.03858">
        <ele>108.5</ele>
        <time>2023-05-31T12:36:31Z</time>
      </trkpt>
      <trkpt lat="49.88696" lon="2.03857">
        <ele>108.6</ele>
        <time>2023-05-31T12:36:32Z</time>
      </trkpt>
      <trkpt lat="49.88695" lon="2.03856">
        <ele>108.6</ele>
        <time>2023-05-31T12:36:33Z</time>
      </trkpt>
      <trkpt lat="49.88694" lon="2.03855">
        <ele>108.6</ele>
        <time>2023-05-31T12:36:34Z</time>
      </trkpt>
      <trkpt lat="49.88693" lon="2.03854">
        <ele>108.6</ele>
        <time>2023-05-31T12:36:35Z</time>
      </trkpt>
      <trkpt lat="49.88692" lon="2.03853">
        <ele>108.7</ele>
        <time>2023-05-31T12:36:36Z</time>
      </trkpt>
      <trkpt lat="49.88691" lon="2.03852">
        <ele>108.7</ele>
        <time>2023-05-31T12:36:37Z</time>
      </trkpt>
      <trkpt lat="49.8869" lon="2.03851">
        <ele>108.7</ele>
        <time>2023-05-31T12:36:38Z</time>
      </trkpt>
      <trkpt lat="49.88689" lon="2.0385">
        <ele>108.7</ele>
        <time>2023-05-31T12:36:40Z</time>
      </trkpt>
      <trkpt lat="49.88688" lon="2.03849">
        <ele>108.7</ele>
        <time>2023-05-31T12:36:41Z</time>
      </trkpt>
      <trkpt lat="49.88687" lon="2.03847">
        <ele>108.8</ele>
        <time>2023-05-31T12:36:42Z</time>
      </trkpt>
      <trkpt lat="49.88687" lon="2.03846">
        <ele>108.8</ele>
        <time>2023-05-31T12:36:43Z</time>
      </trkpt>
      <trkpt lat="49.88686" lon="2.03845">
        <ele>108.8</ele>
        <time>2023-05-31T12:36:44Z</time>
      </trkpt>
      <trkpt lat="49.88685" lon="2.03843">
        <ele>108.8</ele>
        <time>2023-05-31T12:36:45Z</time>
      </trkpt>
      <trkpt lat="49.88684" lon="2.03842">
        <ele>108.9</ele>
        <time>2023-05-31T12:36:46Z</time>
      </trkpt>
      <trkpt lat="49.88683" lon="2.03841">
        <ele>108.9</ele>
        <time>2023-05-31T12:36:48Z</time>
      </trkpt>
      <trkpt lat="49.88682" lon="2.0384">
        <ele>108.9</ele>
        <time>2023-05-31T12:36:49Z</time>
      </trkpt>
      <trkpt lat="49.88681" lon="2.03837">
        <ele>109</ele>
        <time>2023-05-31T12:36:50Z</time>
      </trkpt>
      <trkpt lat="49.8868" lon="2.03836">
        <ele>109</ele>
        <time>2023-05-31T12:36:51Z</time>
      </trkpt>
      <trkpt lat="49.88679" lon="2.03836">
        <ele>109</ele>
        <time>2023-05-31T12:36:52Z</time>
      </trkpt>
      <trkpt lat="49.88679" lon="2.03834">
        <ele>109.1</ele>
        <time>2023-05-31T12:36:53Z</time>
      </trkpt>
      <trkpt lat="49.88678" lon="2.03833">
        <ele>109.1</ele>
        <time>2023-05-31T12:36:54Z</time>
      </trkpt>
      <trkpt lat="49.88677" lon="2.03832">
        <ele>109.1</ele>
        <time>2023-05-31T12:36:56Z</time>
      </trkpt>
      <trkpt lat="49.88676" lon="2.03831">
        <ele>109.2</ele>
        <time>2023-05-31T12:36:57Z</time>
      </trkpt>
      <trkpt lat="49.88675" lon="2.0383">
        <ele>109.2</ele>
        <time>2023-05-31T12:36:58Z</time>
      </trkpt>
      <trkpt lat="49.88674" lon="2.03829">
        <ele>109.3</ele>
        <time>2023-05-31T12:36:59Z</time>
      </trkpt>
      <trkpt lat="49.88673" lon="2.03828">
        <ele>109.3</ele>
        <time>2023-05-31T12:37:00Z</time>
      </trkpt>
      <trkpt lat="49.88672" lon="2.03827">
        <ele>109.3</ele>
        <time>2023-05-31T12:37:01Z</time>
      </trkpt>
      <trkpt lat="49.88671" lon="2.03826">
        <ele>109.3</ele>
        <time>2023-05-31T12:37:02Z</time>
      </trkpt>
      <trkpt lat="49.88669" lon="2.03825">
        <ele>109.3</ele>
        <time>2023-05-31T12:37:03Z</time>
      </trkpt>
      <trkpt lat="49.88668" lon="2.03824">
        <ele>109.3</ele>
        <time>2023-05-31T12:37:05Z</time>
      </trkpt>
      <trkpt lat="49.88667" lon="2.03823">
        <ele>109.4</ele>
        <time>2023-05-31T12:37:06Z</time>
      </trkpt>
      <trkpt lat="49.88665" lon="2.03822">
        <ele>109.4</ele>
        <time>2023-05-31T12:37:07Z</time>
      </trkpt>
      <trkpt lat="49.88665" lon="2.03821">
        <ele>109.4</ele>
        <time>2023-05-31T12:37:08Z</time>
      </trkpt>
      <trkpt lat="49.88664" lon="2.03821">
        <ele>109.4</ele>
        <time>2023-05-31T12:37:09Z</time>
      </trkpt>
      <trkpt lat="49.88663" lon="2.0382">
        <ele>109.4</ele>
        <time>2023-05-31T12:37:10Z</time>
      </trkpt>
      <trkpt lat="49.88662" lon="2.03819">
        <ele>109.4</ele>
        <time>2023-05-31T12:37:12Z</time>
      </trkpt>
      <trkpt lat="49.88661" lon="2.03818">
        <ele>109.4</ele>
        <time>2023-05-31T12:37:13Z</time>
      </trkpt>
      <trkpt lat="49.8866" lon="2.03817">
        <ele>109.5</ele>
        <time>2023-05-31T12:37:14Z</time>
      </trkpt>
      <trkpt lat="49.88659" lon="2.03817">
        <ele>109.5</ele>
        <time>2023-05-31T12:37:15Z</time>
      </trkpt>
      <trkpt lat="49.88657" lon="2.03816">
        <ele>109.5</ele>
        <time>2023-05-31T12:37:16Z</time>
      </trkpt>
      <trkpt lat="49.88656" lon="2.03814">
        <ele>109.5</ele>
        <time>2023-05-31T12:37:17Z</time>
      </trkpt>
      <trkpt lat="49.88655" lon="2.03814">
        <ele>109.5</ele>
        <time>2023-05-31T12:37:18Z</time>
      </trkpt>
      <trkpt lat="49.88654" lon="2.03813">
        <ele>109.5</ele>
        <time>2023-05-31T12:37:20Z</time>
      </trkpt>
      <trkpt lat="49.88653" lon="2.03812">
        <ele>109.5</ele>
        <time>2023-05-31T12:37:21Z</time>
      </trkpt>
      <trkpt lat="49.88652" lon="2.03811">
        <ele>109.6</ele>
        <time>2023-05-31T12:37:22Z</time>
      </trkpt>
      <trkpt lat="49.88651" lon="2.03811">
        <ele>109.6</ele>
        <time>2023-05-31T12:37:23Z</time>
      </trkpt>
      <trkpt lat="49.8865" lon="2.03809">
        <ele>109.6</ele>
        <time>2023-05-31T12:37:24Z</time>
      </trkpt>
      <trkpt lat="49.88649" lon="2.03808">
        <ele>109.6</ele>
        <time>2023-05-31T12:37:25Z</time>
      </trkpt>
      <trkpt lat="49.88648" lon="2.03807">
        <ele>109.6</ele>
        <time>2023-05-31T12:37:26Z</time>
      </trkpt>
      <trkpt lat="49.88646" lon="2.03805">
        <ele>109.6</ele>
        <time>2023-05-31T12:37:28Z</time>
      </trkpt>
      <trkpt lat="49.88646" lon="2.03805">
        <ele>109.7</ele>
        <time>2023-05-31T12:37:29Z</time>
      </trkpt>
      <trkpt lat="49.88645" lon="2.03804">
        <ele>109.7</ele>
        <time>2023-05-31T12:37:30Z</time>
      </trkpt>
      <trkpt lat="49.88644" lon="2.03803">
        <ele>109.7</ele>
        <time>2023-05-31T12:37:31Z</time>
      </trkpt>
      <trkpt lat="49.88643" lon="2.03801">
        <ele>109.7</ele>
        <time>2023-05-31T12:37:32Z</time>
      </trkpt>
      <trkpt lat="49.88642" lon="2.038">
        <ele>109.7</ele>
        <time>2023-05-31T12:37:33Z</time>
      </trkpt>
      <trkpt lat="49.88641" lon="2.038">
        <ele>109.7</ele>
        <time>2023-05-31T12:37:34Z</time>
      </trkpt>
      <trkpt lat="49.8864" lon="2.03798">
        <ele>109.7</ele>
        <time>2023-05-31T12:37:36Z</time>
      </trkpt>
      <trkpt lat="49.8864" lon="2.03797">
        <ele>109.7</ele>
        <time>2023-05-31T12:37:37Z</time>
      </trkpt>
      <trkpt lat="49.88639" lon="2.03796">
        <ele>109.7</ele>
        <time>2023-05-31T12:37:38Z</time>
      </trkpt>
      <trkpt lat="49.88638" lon="2.03795">
        <ele>109.7</ele>
        <time>2023-05-31T12:37:39Z</time>
      </trkpt>
      <trkpt lat="49.88637" lon="2.03794">
        <ele>109.7</ele>
        <time>2023-05-31T12:37:40Z</time>
      </trkpt>
      <trkpt lat="49.88636" lon="2.03793">
        <ele>109.8</ele>
        <time>2023-05-31T12:37:41Z</time>
      </trkpt>
      <trkpt lat="49.88635" lon="2.03791">
        <ele>109.8</ele>
        <time>2023-05-31T12:37:42Z</time>
      </trkpt>
      <trkpt lat="49.88635" lon="2.0379">
        <ele>109.8</ele>
        <time>2023-05-31T12:37:43Z</time>
      </trkpt>
      <trkpt lat="49.88633" lon="2.03789">
        <ele>109.8</ele>
        <time>2023-05-31T12:37:45Z</time>
      </trkpt>
      <trkpt lat="49.88632" lon="2.03788">
        <ele>109.8</ele>
        <time>2023-05-31T12:37:46Z</time>
      </trkpt>
      <trkpt lat="49.88631" lon="2.03787">
        <ele>109.8</ele>
        <time>2023-05-31T12:37:47Z</time>
      </trkpt>
      <trkpt lat="49.8863" lon="2.03785">
        <ele>109.8</ele>
        <time>2023-05-31T12:37:48Z</time>
      </trkpt>
      <trkpt lat="49.88629" lon="2.03784">
        <ele>109.8</ele>
        <time>2023-05-31T12:37:49Z</time>
      </trkpt>
      <trkpt lat="49.88628" lon="2.03784">
        <ele>109.8</ele>
        <time>2023-05-31T12:37:50Z</time>
      </trkpt>
      <trkpt lat="49.88627" lon="2.03783">
        <ele>109.8</ele>
        <time>2023-05-31T12:37:51Z</time>
      </trkpt>
      <trkpt lat="49.88626" lon="2.03782">
        <ele>109.9</ele>
        <time>2023-05-31T12:37:52Z</time>
      </trkpt>
      <trkpt lat="49.88625" lon="2.03781">
        <ele>109.9</ele>
        <time>2023-05-31T12:37:54Z</time>
      </trkpt>
      <trkpt lat="49.88623" lon="2.03779">
        <ele>109.9</ele>
        <time>2023-05-31T12:37:55Z</time>
      </trkpt>
      <trkpt lat="49.88622" lon="2.03778">
        <ele>109.9</ele>
        <time>2023-05-31T12:37:56Z</time>
      </trkpt>
      <trkpt lat="49.88621" lon="2.03778">
        <ele>109.9</ele>
        <time>2023-05-31T12:37:57Z</time>
      </trkpt>
      <trkpt lat="49.8862" lon="2.03777">
        <ele>109.9</ele>
        <time>2023-05-31T12:37:58Z</time>
      </trkpt>
      <trkpt lat="49.88618" lon="2.03776">
        <ele>109.9</ele>
        <time>2023-05-31T12:37:59Z</time>
      </trkpt>
      <trkpt lat="49.88616" lon="2.03775">
        <ele>110</ele>
        <time>2023-05-31T12:38:00Z</time>
      </trkpt>
      <trkpt lat="49.88615" lon="2.03775">
        <ele>110</ele>
        <time>2023-05-31T12:38:02Z</time>
      </trkpt>
      <trkpt lat="49.88614" lon="2.03774">
        <ele>110</ele>
        <time>2023-05-31T12:38:03Z</time>
      </trkpt>
      <trkpt lat="49.88613" lon="2.03774">
        <ele>110</ele>
        <time>2023-05-31T12:38:04Z</time>
      </trkpt>
      <trkpt lat="49.88612" lon="2.03773">
        <ele>110</ele>
        <time>2023-05-31T12:38:05Z</time>
      </trkpt>
      <trkpt lat="49.8861" lon="2.03772">
        <ele>110</ele>
        <time>2023-05-31T12:38:06Z</time>
      </trkpt>
      <trkpt lat="49.88609" lon="2.03772">
        <ele>110.1</ele>
        <time>2023-05-31T12:38:07Z</time>
      </trkpt>
      <trkpt lat="49.88607" lon="2.03771">
        <ele>110.1</ele>
        <time>2023-05-31T12:38:08Z</time>
      </trkpt>
      <trkpt lat="49.88606" lon="2.0377">
        <ele>110.1</ele>
        <time>2023-05-31T12:38:09Z</time>
      </trkpt>
      <trkpt lat="49.88606" lon="2.0377">
        <ele>110.1</ele>
        <time>2023-05-31T12:38:10Z</time>
      </trkpt>
      <trkpt lat="49.88604" lon="2.03769">
        <ele>110.1</ele>
        <time>2023-05-31T12:38:12Z</time>
      </trkpt>
      <trkpt lat="49.88603" lon="2.03769">
        <ele>110.1</ele>
        <time>2023-05-31T12:38:13Z</time>
      </trkpt>
      <trkpt lat="49.88602" lon="2.03768">
        <ele>110.1</ele>
        <time>2023-05-31T12:38:14Z</time>
      </trkpt>
      <trkpt lat="49.88601" lon="2.03768">
        <ele>110.1</ele>
        <time>2023-05-31T12:38:15Z</time>
      </trkpt>
      <trkpt lat="49.886" lon="2.03767">
        <ele>110.2</ele>
        <time>2023-05-31T12:38:16Z</time>
      </trkpt>
      <trkpt lat="49.88599" lon="2.03767">
        <ele>110.2</ele>
        <time>2023-05-31T12:38:17Z</time>
      </trkpt>
      <trkpt lat="49.88597" lon="2.03765">
        <ele>110.2</ele>
        <time>2023-05-31T12:38:18Z</time>
      </trkpt>
      <trkpt lat="49.88596" lon="2.03764">
        <ele>110.2</ele>
        <time>2023-05-31T12:38:19Z</time>
      </trkpt>
      <trkpt lat="49.88595" lon="2.03763">
        <ele>110.2</ele>
        <time>2023-05-31T12:38:21Z</time>
      </trkpt>
      <trkpt lat="49.88594" lon="2.03763">
        <ele>110.2</ele>
        <time>2023-05-31T12:38:22Z</time>
      </trkpt>
      <trkpt lat="49.88593" lon="2.03762">
        <ele>110.2</ele>
        <time>2023-05-31T12:38:23Z</time>
      </trkpt>
      <trkpt lat="49.88592" lon="2.03761">
        <ele>110.2</ele>
        <time>2023-05-31T12:38:24Z</time>
      </trkpt>
      <trkpt lat="49.88592" lon="2.0376">
        <ele>110.2</ele>
        <time>2023-05-31T12:38:25Z</time>
      </trkpt>
      <trkpt lat="49.88591" lon="2.03759">
        <ele>110.3</ele>
        <time>2023-05-31T12:38:26Z</time>
      </trkpt>
      <trkpt lat="49.8859" lon="2.03758">
        <ele>110.3</ele>
        <time>2023-05-31T12:38:27Z</time>
      </trkpt>
      <trkpt lat="49.88588" lon="2.03757">
        <ele>110.3</ele>
        <time>2023-05-31T12:38:29Z</time>
      </trkpt>
      <trkpt lat="49.88587" lon="2.03756">
        <ele>110.3</ele>
        <time>2023-05-31T12:38:30Z</time>
      </trkpt>
      <trkpt lat="49.88587" lon="2.03755">
        <ele>110.3</ele>
        <time>2023-05-31T12:38:31Z</time>
      </trkpt>
      <trkpt lat="49.88585" lon="2.03754">
        <ele>110.3</ele>
        <time>2023-05-31T12:38:32Z</time>
      </trkpt>
      <trkpt lat="49.88584" lon="2.03753">
        <ele>110.4</ele>
        <time>2023-05-31T12:38:33Z</time>
      </trkpt>
      <trkpt lat="49.88583" lon="2.03752">
        <ele>110.4</ele>
        <time>2023-05-31T12:38:34Z</time>
      </trkpt>
      <trkpt lat="49.88583" lon="2.03751">
        <ele>110.4</ele>
        <time>2023-05-31T12:38:35Z</time>
      </trkpt>
      <trkpt lat="49.88582" lon="2.03749">
        <ele>110.4</ele>
        <time>2023-05-31T12:38:37Z</time>
      </trkpt>
      <trkpt lat="49.88581" lon="2.03748">
        <ele>110.4</ele>
        <time>2023-05-31T12:38:38Z</time>
      </trkpt>
      <trkpt lat="49.8858" lon="2.03747">
        <ele>110.5</ele>
        <time>2023-05-31T12:38:39Z</time>
      </trkpt>
      <trkpt lat="49.88579" lon="2.03746">
        <ele>110.5</ele>
        <time>2023-05-31T12:38:40Z</time>
      </trkpt>
      <trkpt lat="49.88578" lon="2.03745">
        <ele>110.5</ele>
        <time>2023-05-31T12:38:41Z</time>
      </trkpt>
      <trkpt lat="49.88577" lon="2.03744">
        <ele>110.6</ele>
        <time>2023-05-31T12:38:42Z</time>
      </trkpt>
      <trkpt lat="49.88577" lon="2.03742">
        <ele>110.6</ele>
        <time>2023-05-31T12:38:43Z</time>
      </trkpt>
      <trkpt lat="49.88575" lon="2.0374">
        <ele>110.6</ele>
        <time>2023-05-31T12:38:44Z</time>
      </trkpt>
      <trkpt lat="49.88574" lon="2.03739">
        <ele>110.7</ele>
        <time>2023-05-31T12:38:45Z</time>
      </trkpt>
      <trkpt lat="49.88573" lon="2.03738">
        <ele>110.7</ele>
        <time>2023-05-31T12:38:47Z</time>
      </trkpt>
      <trkpt lat="49.88573" lon="2.03737">
        <ele>110.7</ele>
        <time>2023-05-31T12:38:48Z</time>
      </trkpt>
      <trkpt lat="49.88572" lon="2.03736">
        <ele>110.8</ele>
        <time>2023-05-31T12:38:49Z</time>
      </trkpt>
      <trkpt lat="49.88571" lon="2.03735">
        <ele>110.8</ele>
        <time>2023-05-31T12:38:50Z</time>
      </trkpt>
      <trkpt lat="49.8857" lon="2.03734">
        <ele>110.8</ele>
        <time>2023-05-31T12:38:51Z</time>
      </trkpt>
      <trkpt lat="49.88569" lon="2.03733">
        <ele>110.9</ele>
        <time>2023-05-31T12:38:52Z</time>
      </trkpt>
      <trkpt lat="49.88568" lon="2.03732">
        <ele>110.9</ele>
        <time>2023-05-31T12:38:53Z</time>
      </trkpt>
      <trkpt lat="49.88567" lon="2.03731">
        <ele>110.9</ele>
        <time>2023-05-31T12:38:55Z</time>
      </trkpt>
      <trkpt lat="49.88566" lon="2.0373">
        <ele>111</ele>
        <time>2023-05-31T12:38:56Z</time>
      </trkpt>
      <trkpt lat="49.88565" lon="2.0373">
        <ele>111</ele>
        <time>2023-05-31T12:38:57Z</time>
      </trkpt>
      <trkpt lat="49.88564" lon="2.03728">
        <ele>111.1</ele>
        <time>2023-05-31T12:38:58Z</time>
      </trkpt>
      <trkpt lat="49.88563" lon="2.03727">
        <ele>111.1</ele>
        <time>2023-05-31T12:38:59Z</time>
      </trkpt>
      <trkpt lat="49.88562" lon="2.03726">
        <ele>111.1</ele>
        <time>2023-05-31T12:39:00Z</time>
      </trkpt>
      <trkpt lat="49.8856" lon="2.03724">
        <ele>111.2</ele>
        <time>2023-05-31T12:39:01Z</time>
      </trkpt>
      <trkpt lat="49.8856" lon="2.03724">
        <ele>111.2</ele>
        <time>2023-05-31T12:39:03Z</time>
      </trkpt>
      <trkpt lat="49.88559" lon="2.03723">
        <ele>111.3</ele>
        <time>2023-05-31T12:39:04Z</time>
      </trkpt>
      <trkpt lat="49.88557" lon="2.03722">
        <ele>111.3</ele>
        <time>2023-05-31T12:39:05Z</time>
      </trkpt>
      <trkpt lat="49.88556" lon="2.03721">
        <ele>111.4</ele>
        <time>2023-05-31T12:39:06Z</time>
      </trkpt>
      <trkpt lat="49.88555" lon="2.0372">
        <ele>111.4</ele>
        <time>2023-05-31T12:39:07Z</time>
      </trkpt>
      <trkpt lat="49.88554" lon="2.03718">
        <ele>111.4</ele>
        <time>2023-05-31T12:39:08Z</time>
      </trkpt>
      <trkpt lat="49.88552" lon="2.03717">
        <ele>111.5</ele>
        <time>2023-05-31T12:39:09Z</time>
      </trkpt>
      <trkpt lat="49.88551" lon="2.03716">
        <ele>111.5</ele>
        <time>2023-05-31T12:39:11Z</time>
      </trkpt>
      <trkpt lat="49.8855" lon="2.03715">
        <ele>111.5</ele>
        <time>2023-05-31T12:39:12Z</time>
      </trkpt>
      <trkpt lat="49.88549" lon="2.03714">
        <ele>111.6</ele>
        <time>2023-05-31T12:39:13Z</time>
      </trkpt>
      <trkpt lat="49.88548" lon="2.03713">
        <ele>111.6</ele>
        <time>2023-05-31T12:39:14Z</time>
      </trkpt>
      <trkpt lat="49.88547" lon="2.03712">
        <ele>111.7</ele>
        <time>2023-05-31T12:39:15Z</time>
      </trkpt>
      <trkpt lat="49.88546" lon="2.03711">
        <ele>111.7</ele>
        <time>2023-05-31T12:39:16Z</time>
      </trkpt>
      <trkpt lat="49.88545" lon="2.0371">
        <ele>111.7</ele>
        <time>2023-05-31T12:39:17Z</time>
      </trkpt>
      <trkpt lat="49.88544" lon="2.03709">
        <ele>111.7</ele>
        <time>2023-05-31T12:39:19Z</time>
      </trkpt>
      <trkpt lat="49.88543" lon="2.03708">
        <ele>111.8</ele>
        <time>2023-05-31T12:39:20Z</time>
      </trkpt>
      <trkpt lat="49.88542" lon="2.03707">
        <ele>111.8</ele>
        <time>2023-05-31T12:39:21Z</time>
      </trkpt>
      <trkpt lat="49.88541" lon="2.03706">
        <ele>111.8</ele>
        <time>2023-05-31T12:39:22Z</time>
      </trkpt>
      <trkpt lat="49.8854" lon="2.03705">
        <ele>111.9</ele>
        <time>2023-05-31T12:39:23Z</time>
      </trkpt>
      <trkpt lat="49.88539" lon="2.03704">
        <ele>111.9</ele>
        <time>2023-05-31T12:39:24Z</time>
      </trkpt>
      <trkpt lat="49.88539" lon="2.03703">
        <ele>111.9</ele>
        <time>2023-05-31T12:39:25Z</time>
      </trkpt>
      <trkpt lat="49.88538" lon="2.03702">
        <ele>111.9</ele>
        <time>2023-05-31T12:39:27Z</time>
      </trkpt>
      <trkpt lat="49.88537" lon="2.03701">
        <ele>112</ele>
        <time>2023-05-31T12:39:28Z</time>
      </trkpt>
      <trkpt lat="49.88536" lon="2.037">
        <ele>112</ele>
        <time>2023-05-31T12:39:29Z</time>
      </trkpt>
      <trkpt lat="49.88535" lon="2.03698">
        <ele>112</ele>
        <time>2023-05-31T12:39:30Z</time>
      </trkpt>
      <trkpt lat="49.88533" lon="2.03697">
        <ele>112.1</ele>
        <time>2023-05-31T12:39:31Z</time>
      </trkpt>
      <trkpt lat="49.88532" lon="2.03696">
        <ele>112.1</ele>
        <time>2023-05-31T12:39:32Z</time>
      </trkpt>
      <trkpt lat="49.88531" lon="2.03695">
        <ele>112.1</ele>
        <time>2023-05-31T12:39:33Z</time>
      </trkpt>
      <trkpt lat="49.88529" lon="2.03694">
        <ele>112.1</ele>
        <time>2023-05-31T12:39:35Z</time>
      </trkpt>
      <trkpt lat="49.88528" lon="2.03693">
        <ele>112.1</ele>
        <time>2023-05-31T12:39:36Z</time>
      </trkpt>
      <trkpt lat="49.88528" lon="2.03692">
        <ele>112.1</ele>
        <time>2023-05-31T12:39:37Z</time>
      </trkpt>
      <trkpt lat="49.88527" lon="2.03691">
        <ele>112.2</ele>
        <time>2023-05-31T12:39:38Z</time>
      </trkpt>
      <trkpt lat="49.88525" lon="2.0369">
        <ele>112.2</ele>
        <time>2023-05-31T12:39:39Z</time>
      </trkpt>
      <trkpt lat="49.88522" lon="2.03688">
        <ele>112.2</ele>
        <time>2023-05-31T12:39:41Z</time>
      </trkpt>
      <trkpt lat="49.88522" lon="2.03688">
        <ele>112.2</ele>
        <time>2023-05-31T12:39:42Z</time>
      </trkpt>
      <trkpt lat="49.8852" lon="2.03687">
        <ele>112.2</ele>
        <time>2023-05-31T12:39:44Z</time>
      </trkpt>
      <trkpt lat="49.88519" lon="2.03686">
        <ele>112.2</ele>
        <time>2023-05-31T12:39:45Z</time>
      </trkpt>
      <trkpt lat="49.88518" lon="2.03685">
        <ele>112.2</ele>
        <time>2023-05-31T12:39:46Z</time>
      </trkpt>
      <trkpt lat="49.88517" lon="2.03684">
        <ele>112.2</ele>
        <time>2023-05-31T12:39:47Z</time>
      </trkpt>
      <trkpt lat="49.88515" lon="2.03683">
        <ele>112.2</ele>
        <time>2023-05-31T12:39:48Z</time>
      </trkpt>
      <trkpt lat="49.88514" lon="2.03682">
        <ele>112.2</ele>
        <time>2023-05-31T12:39:49Z</time>
      </trkpt>
      <trkpt lat="49.88513" lon="2.03682">
        <ele>112.2</ele>
        <time>2023-05-31T12:39:50Z</time>
      </trkpt>
      <trkpt lat="49.88511" lon="2.03681">
        <ele>112.2</ele>
        <time>2023-05-31T12:39:51Z</time>
      </trkpt>
      <trkpt lat="49.8851" lon="2.0368">
        <ele>112.2</ele>
        <time>2023-05-31T12:39:53Z</time>
      </trkpt>
      <trkpt lat="49.8851" lon="2.0368">
        <ele>112.2</ele>
        <time>2023-05-31T12:39:54Z</time>
      </trkpt>
      <trkpt lat="49.88508" lon="2.03678">
        <ele>112.2</ele>
        <time>2023-05-31T12:39:55Z</time>
      </trkpt>
      <trkpt lat="49.88507" lon="2.03678">
        <ele>112.2</ele>
        <time>2023-05-31T12:39:56Z</time>
      </trkpt>
      <trkpt lat="49.88506" lon="2.03677">
        <ele>112.2</ele>
        <time>2023-05-31T12:39:57Z</time>
      </trkpt>
      <trkpt lat="49.88504" lon="2.03677">
        <ele>112.2</ele>
        <time>2023-05-31T12:39:58Z</time>
      </trkpt>
      <trkpt lat="49.88503" lon="2.03676">
        <ele>112.2</ele>
        <time>2023-05-31T12:39:59Z</time>
      </trkpt>
      <trkpt lat="49.88503" lon="2.03676">
        <ele>112.2</ele>
        <time>2023-05-31T12:40:00Z</time>
      </trkpt>
      <trkpt lat="49.885" lon="2.03675">
        <ele>112.2</ele>
        <time>2023-05-31T12:40:02Z</time>
      </trkpt>
      <trkpt lat="49.885" lon="2.03674">
        <ele>112.2</ele>
        <time>2023-05-31T12:40:03Z</time>
      </trkpt>
      <trkpt lat="49.88499" lon="2.03674">
        <ele>112.2</ele>
        <time>2023-05-31T12:40:04Z</time>
      </trkpt>
      <trkpt lat="49.88497" lon="2.03673">
        <ele>112.2</ele>
        <time>2023-05-31T12:40:05Z</time>
      </trkpt>
      <trkpt lat="49.88496" lon="2.03672">
        <ele>112.2</ele>
        <time>2023-05-31T12:40:06Z</time>
      </trkpt>
      <trkpt lat="49.88495" lon="2.03672">
        <ele>112.2</ele>
        <time>2023-05-31T12:40:07Z</time>
      </trkpt>
      <trkpt lat="49.88494" lon="2.03671">
        <ele>112.2</ele>
        <time>2023-05-31T12:40:08Z</time>
      </trkpt>
      <trkpt lat="49.88493" lon="2.03671">
        <ele>112.3</ele>
        <time>2023-05-31T12:40:09Z</time>
      </trkpt>
      <trkpt lat="49.88492" lon="2.0367">
        <ele>112.3</ele>
        <time>2023-05-31T12:40:11Z</time>
      </trkpt>
      <trkpt lat="49.88491" lon="2.03669">
        <ele>112.3</ele>
        <time>2023-05-31T12:40:12Z</time>
      </trkpt>
      <trkpt lat="49.8849" lon="2.03668">
        <ele>112.3</ele>
        <time>2023-05-31T12:40:13Z</time>
      </trkpt>
      <trkpt lat="49.88489" lon="2.03668">
        <ele>112.3</ele>
        <time>2023-05-31T12:40:14Z</time>
      </trkpt>
      <trkpt lat="49.88488" lon="2.03667">
        <ele>112.3</ele>
        <time>2023-05-31T12:40:15Z</time>
      </trkpt>
      <trkpt lat="49.88487" lon="2.03667">
        <ele>112.3</ele>
        <time>2023-05-31T12:40:16Z</time>
      </trkpt>
      <trkpt lat="49.88486" lon="2.03666">
        <ele>112.3</ele>
        <time>2023-05-31T12:40:17Z</time>
      </trkpt>
      <trkpt lat="49.88485" lon="2.03665">
        <ele>112.3</ele>
        <time>2023-05-31T12:40:18Z</time>
      </trkpt>
      <trkpt lat="49.88484" lon="2.03664">
        <ele>112.3</ele>
        <time>2023-05-31T12:40:19Z</time>
      </trkpt>
      <trkpt lat="49.88482" lon="2.03663">
        <ele>112.3</ele>
        <time>2023-05-31T12:40:21Z</time>
      </trkpt>
      <trkpt lat="49.8848" lon="2.03662">
        <ele>112.3</ele>
        <time>2023-05-31T12:40:23Z</time>
      </trkpt>
      <trkpt lat="49.88479" lon="2.03661">
        <ele>112.3</ele>
        <time>2023-05-31T12:40:24Z</time>
      </trkpt>
      <trkpt lat="49.88478" lon="2.0366">
        <ele>112.3</ele>
        <time>2023-05-31T12:40:25Z</time>
      </trkpt>
      <trkpt lat="49.88476" lon="2.03659">
        <ele>112.3</ele>
        <time>2023-05-31T12:40:26Z</time>
      </trkpt>
      <trkpt lat="49.88475" lon="2.03658">
        <ele>112.3</ele>
        <time>2023-05-31T12:40:27Z</time>
      </trkpt>
      <trkpt lat="49.88474" lon="2.03657">
        <ele>112.3</ele>
        <time>2023-05-31T12:40:28Z</time>
      </trkpt>
      <trkpt lat="49.88472" lon="2.03656">
        <ele>112.3</ele>
        <time>2023-05-31T12:40:29Z</time>
      </trkpt>
      <trkpt lat="49.88471" lon="2.03655">
        <ele>112.3</ele>
        <time>2023-05-31T12:40:31Z</time>
      </trkpt>
      <trkpt lat="49.8847" lon="2.03655">
        <ele>112.3</ele>
        <time>2023-05-31T12:40:32Z</time>
      </trkpt>
      <trkpt lat="49.88468" lon="2.03654">
        <ele>112.3</ele>
        <time>2023-05-31T12:40:33Z</time>
      </trkpt>
      <trkpt lat="49.88467" lon="2.03653">
        <ele>112.3</ele>
        <time>2023-05-31T12:40:34Z</time>
      </trkpt>
      <trkpt lat="49.88466" lon="2.03652">
        <ele>112.3</ele>
        <time>2023-05-31T12:40:35Z</time>
      </trkpt>
      <trkpt lat="49.88464" lon="2.03651">
        <ele>112.3</ele>
        <time>2023-05-31T12:40:36Z</time>
      </trkpt>
      <trkpt lat="49.88463" lon="2.03651">
        <ele>112.3</ele>
        <time>2023-05-31T12:40:37Z</time>
      </trkpt>
      <trkpt lat="49.88462" lon="2.0365">
        <ele>112.4</ele>
        <time>2023-05-31T12:40:38Z</time>
      </trkpt>
      <trkpt lat="49.8846" lon="2.03649">
        <ele>112.4</ele>
        <time>2023-05-31T12:40:39Z</time>
      </trkpt>
      <trkpt lat="49.88459" lon="2.03648">
        <ele>112.4</ele>
        <time>2023-05-31T12:40:41Z</time>
      </trkpt>
      <trkpt lat="49.88458" lon="2.03648">
        <ele>112.4</ele>
        <time>2023-05-31T12:40:42Z</time>
      </trkpt>
      <trkpt lat="49.88456" lon="2.03647">
        <ele>112.4</ele>
        <time>2023-05-31T12:40:43Z</time>
      </trkpt>
      <trkpt lat="49.88455" lon="2.03646">
        <ele>112.4</ele>
        <time>2023-05-31T12:40:44Z</time>
      </trkpt>
      <trkpt lat="49.88455" lon="2.03646">
        <ele>112.4</ele>
        <time>2023-05-31T12:40:45Z</time>
      </trkpt>
      <trkpt lat="49.88454" lon="2.03645">
        <ele>112.4</ele>
        <time>2023-05-31T12:40:46Z</time>
      </trkpt>
      <trkpt lat="49.88452" lon="2.03644">
        <ele>112.5</ele>
        <time>2023-05-31T12:40:47Z</time>
      </trkpt>
      <trkpt lat="49.88451" lon="2.03644">
        <ele>112.5</ele>
        <time>2023-05-31T12:40:49Z</time>
      </trkpt>
      <trkpt lat="49.8845" lon="2.03643">
        <ele>112.5</ele>
        <time>2023-05-31T12:40:50Z</time>
      </trkpt>
      <trkpt lat="49.88449" lon="2.03643">
        <ele>112.5</ele>
        <time>2023-05-31T12:40:51Z</time>
      </trkpt>
      <trkpt lat="49.88448" lon="2.03642">
        <ele>112.5</ele>
        <time>2023-05-31T12:40:52Z</time>
      </trkpt>
      <trkpt lat="49.88446" lon="2.03641">
        <ele>112.6</ele>
        <time>2023-05-31T12:40:53Z</time>
      </trkpt>
      <trkpt lat="49.88445" lon="2.0364">
        <ele>112.6</ele>
        <time>2023-05-31T12:40:54Z</time>
      </trkpt>
      <trkpt lat="49.88445" lon="2.03639">
        <ele>112.6</ele>
        <time>2023-05-31T12:40:55Z</time>
      </trkpt>
      <trkpt lat="49.88443" lon="2.03638">
        <ele>112.6</ele>
        <time>2023-05-31T12:40:57Z</time>
      </trkpt>
      <trkpt lat="49.88442" lon="2.03637">
        <ele>112.6</ele>
        <time>2023-05-31T12:40:58Z</time>
      </trkpt>
      <trkpt lat="49.88441" lon="2.03636">
        <ele>112.6</ele>
        <time>2023-05-31T12:40:59Z</time>
      </trkpt>
      <trkpt lat="49.8844" lon="2.03634">
        <ele>112.7</ele>
        <time>2023-05-31T12:41:00Z</time>
      </trkpt>
      <trkpt lat="49.88439" lon="2.03634">
        <ele>112.7</ele>
        <time>2023-05-31T12:41:01Z</time>
      </trkpt>
      <trkpt lat="49.88438" lon="2.03633">
        <ele>112.7</ele>
        <time>2023-05-31T12:41:02Z</time>
      </trkpt>
      <trkpt lat="49.88437" lon="2.03632">
        <ele>112.7</ele>
        <time>2023-05-31T12:41:03Z</time>
      </trkpt>
      <trkpt lat="49.88436" lon="2.03631">
        <ele>112.7</ele>
        <time>2023-05-31T12:41:04Z</time>
      </trkpt>
      <trkpt lat="49.88435" lon="2.0363">
        <ele>112.8</ele>
        <time>2023-05-31T12:41:05Z</time>
      </trkpt>
      <trkpt lat="49.88434" lon="2.0363">
        <ele>112.8</ele>
        <time>2023-05-31T12:41:07Z</time>
      </trkpt>
      <trkpt lat="49.88433" lon="2.03629">
        <ele>112.8</ele>
        <time>2023-05-31T12:41:08Z</time>
      </trkpt>
      <trkpt lat="49.88432" lon="2.03628">
        <ele>112.8</ele>
        <time>2023-05-31T12:41:09Z</time>
      </trkpt>
      <trkpt lat="49.8843" lon="2.03627">
        <ele>112.8</ele>
        <time>2023-05-31T12:41:10Z</time>
      </trkpt>
      <trkpt lat="49.88429" lon="2.03627">
        <ele>112.8</ele>
        <time>2023-05-31T12:41:11Z</time>
      </trkpt>
      <trkpt lat="49.88429" lon="2.03626">
        <ele>112.9</ele>
        <time>2023-05-31T12:41:12Z</time>
      </trkpt>
      <trkpt lat="49.88427" lon="2.03625">
        <ele>112.9</ele>
        <time>2023-05-31T12:41:13Z</time>
      </trkpt>
      <trkpt lat="49.88426" lon="2.03624">
        <ele>112.9</ele>
        <time>2023-05-31T12:41:15Z</time>
      </trkpt>
      <trkpt lat="49.88425" lon="2.03623">
        <ele>112.9</ele>
        <time>2023-05-31T12:41:16Z</time>
      </trkpt>
      <trkpt lat="49.88424" lon="2.03623">
        <ele>112.9</ele>
        <time>2023-05-31T12:41:17Z</time>
      </trkpt>
      <trkpt lat="49.88423" lon="2.03622">
        <ele>112.9</ele>
        <time>2023-05-31T12:41:18Z</time>
      </trkpt>
      <trkpt lat="49.88421" lon="2.03621">
        <ele>113</ele>
        <time>2023-05-31T12:41:19Z</time>
      </trkpt>
      <trkpt lat="49.8842" lon="2.0362">
        <ele>113</ele>
        <time>2023-05-31T12:41:20Z</time>
      </trkpt>
      <trkpt lat="49.88419" lon="2.03619">
        <ele>113</ele>
        <time>2023-05-31T12:41:21Z</time>
      </trkpt>
      <trkpt lat="49.88418" lon="2.03618">
        <ele>113</ele>
        <time>2023-05-31T12:41:22Z</time>
      </trkpt>
      <trkpt lat="49.88416" lon="2.03617">
        <ele>113</ele>
        <time>2023-05-31T12:41:24Z</time>
      </trkpt>
      <trkpt lat="49.88414" lon="2.03617">
        <ele>113.1</ele>
        <time>2023-05-31T12:41:25Z</time>
      </trkpt>
      <trkpt lat="49.88412" lon="2.03616">
        <ele>113.1</ele>
        <time>2023-05-31T12:41:26Z</time>
      </trkpt>
      <trkpt lat="49.88411" lon="2.03616">
        <ele>113.1</ele>
        <time>2023-05-31T12:41:28Z</time>
      </trkpt>
      <trkpt lat="49.8841" lon="2.03615">
        <ele>113.1</ele>
        <time>2023-05-31T12:41:29Z</time>
      </trkpt>
      <trkpt lat="49.88409" lon="2.03615">
        <ele>113.1</ele>
        <time>2023-05-31T12:41:30Z</time>
      </trkpt>
      <trkpt lat="49.88408" lon="2.03614">
        <ele>113.2</ele>
        <time>2023-05-31T12:41:31Z</time>
      </trkpt>
      <trkpt lat="49.88407" lon="2.03613">
        <ele>113.2</ele>
        <time>2023-05-31T12:41:32Z</time>
      </trkpt>
      <trkpt lat="49.88405" lon="2.03613">
        <ele>113.2</ele>
        <time>2023-05-31T12:41:33Z</time>
      </trkpt>
      <trkpt lat="49.88403" lon="2.03612">
        <ele>113.2</ele>
        <time>2023-05-31T12:41:34Z</time>
      </trkpt>
      <trkpt lat="49.88402" lon="2.03611">
        <ele>113.2</ele>
        <time>2023-05-31T12:41:36Z</time>
      </trkpt>
      <trkpt lat="49.88402" lon="2.03611">
        <ele>113.2</ele>
        <time>2023-05-31T12:41:37Z</time>
      </trkpt>
      <trkpt lat="49.884" lon="2.0361">
        <ele>113.3</ele>
        <time>2023-05-31T12:41:38Z</time>
      </trkpt>
      <trkpt lat="49.88399" lon="2.0361">
        <ele>113.3</ele>
        <time>2023-05-31T12:41:39Z</time>
      </trkpt>
      <trkpt lat="49.88397" lon="2.03609">
        <ele>113.3</ele>
        <time>2023-05-31T12:41:41Z</time>
      </trkpt>
      <trkpt lat="49.88396" lon="2.03608">
        <ele>113.3</ele>
        <time>2023-05-31T12:41:42Z</time>
      </trkpt>
      <trkpt lat="49.88395" lon="2.03608">
        <ele>113.3</ele>
        <time>2023-05-31T12:41:43Z</time>
      </trkpt>
      <trkpt lat="49.88394" lon="2.03607">
        <ele>113.3</ele>
        <time>2023-05-31T12:41:44Z</time>
      </trkpt>
      <trkpt lat="49.88393" lon="2.03607">
        <ele>113.3</ele>
        <time>2023-05-31T12:41:45Z</time>
      </trkpt>
      <trkpt lat="49.88392" lon="2.03606">
        <ele>113.3</ele>
        <time>2023-05-31T12:41:46Z</time>
      </trkpt>
      <trkpt lat="49.88391" lon="2.03605">
        <ele>113.3</ele>
        <time>2023-05-31T12:41:47Z</time>
      </trkpt>
      <trkpt lat="49.8839" lon="2.03605">
        <ele>113.3</ele>
        <time>2023-05-31T12:41:48Z</time>
      </trkpt>
      <trkpt lat="49.88389" lon="2.03604">
        <ele>113.3</ele>
        <time>2023-05-31T12:41:50Z</time>
      </trkpt>
      <trkpt lat="49.88388" lon="2.03604">
        <ele>113.3</ele>
        <time>2023-05-31T12:41:51Z</time>
      </trkpt>
      <trkpt lat="49.88387" lon="2.03603">
        <ele>113.3</ele>
        <time>2023-05-31T12:41:52Z</time>
      </trkpt>
      <trkpt lat="49.88386" lon="2.03602">
        <ele>113.3</ele>
        <time>2023-05-31T12:41:53Z</time>
      </trkpt>
      <trkpt lat="49.88384" lon="2.03601">
        <ele>113.3</ele>
        <time>2023-05-31T12:41:54Z</time>
      </trkpt>
      <trkpt lat="49.88383" lon="2.036">
        <ele>113.3</ele>
        <time>2023-05-31T12:41:55Z</time>
      </trkpt>
      <trkpt lat="49.88382" lon="2.036">
        <ele>113.3</ele>
        <time>2023-05-31T12:41:56Z</time>
      </trkpt>
      <trkpt lat="49.88381" lon="2.03599">
        <ele>113.3</ele>
        <time>2023-05-31T12:41:58Z</time>
      </trkpt>
      <trkpt lat="49.8838" lon="2.03598">
        <ele>113.3</ele>
        <time>2023-05-31T12:41:59Z</time>
      </trkpt>
      <trkpt lat="49.88378" lon="2.03597">
        <ele>113.3</ele>
        <time>2023-05-31T12:42:00Z</time>
      </trkpt>
      <trkpt lat="49.88377" lon="2.03596">
        <ele>113.3</ele>
        <time>2023-05-31T12:42:01Z</time>
      </trkpt>
      <trkpt lat="49.88375" lon="2.03594">
        <ele>113.3</ele>
        <time>2023-05-31T12:42:02Z</time>
      </trkpt>
      <trkpt lat="49.88375" lon="2.03594">
        <ele>113.3</ele>
        <time>2023-05-31T12:42:03Z</time>
      </trkpt>
      <trkpt lat="49.88374" lon="2.03593">
        <ele>113.3</ele>
        <time>2023-05-31T12:42:04Z</time>
      </trkpt>
      <trkpt lat="49.88373" lon="2.03593">
        <ele>113.3</ele>
        <time>2023-05-31T12:42:05Z</time>
      </trkpt>
      <trkpt lat="49.88372" lon="2.03592">
        <ele>113.3</ele>
        <time>2023-05-31T12:42:07Z</time>
      </trkpt>
      <trkpt lat="49.88371" lon="2.03591">
        <ele>113.3</ele>
        <time>2023-05-31T12:42:08Z</time>
      </trkpt>
      <trkpt lat="49.8837" lon="2.0359">
        <ele>113.4</ele>
        <time>2023-05-31T12:42:09Z</time>
      </trkpt>
      <trkpt lat="49.88369" lon="2.03589">
        <ele>113.4</ele>
        <time>2023-05-31T12:42:10Z</time>
      </trkpt>
      <trkpt lat="49.88368" lon="2.03588">
        <ele>113.4</ele>
        <time>2023-05-31T12:42:11Z</time>
      </trkpt>
      <trkpt lat="49.88367" lon="2.03588">
        <ele>113.4</ele>
        <time>2023-05-31T12:42:12Z</time>
      </trkpt>
      <trkpt lat="49.88366" lon="2.03587">
        <ele>113.4</ele>
        <time>2023-05-31T12:42:13Z</time>
      </trkpt>
      <trkpt lat="49.88365" lon="2.03586">
        <ele>113.4</ele>
        <time>2023-05-31T12:42:14Z</time>
      </trkpt>
      <trkpt lat="49.88364" lon="2.03586">
        <ele>113.4</ele>
        <time>2023-05-31T12:42:16Z</time>
      </trkpt>
      <trkpt lat="49.88363" lon="2.03585">
        <ele>113.5</ele>
        <time>2023-05-31T12:42:17Z</time>
      </trkpt>
      <trkpt lat="49.88362" lon="2.03585">
        <ele>113.5</ele>
        <time>2023-05-31T12:42:18Z</time>
      </trkpt>
      <trkpt lat="49.88361" lon="2.03584">
        <ele>113.5</ele>
        <time>2023-05-31T12:42:19Z</time>
      </trkpt>
      <trkpt lat="49.8836" lon="2.03583">
        <ele>113.5</ele>
        <time>2023-05-31T12:42:20Z</time>
      </trkpt>
      <trkpt lat="49.88359" lon="2.03582">
        <ele>113.5</ele>
        <time>2023-05-31T12:42:22Z</time>
      </trkpt>
      <trkpt lat="49.88358" lon="2.03582">
        <ele>113.5</ele>
        <time>2023-05-31T12:42:23Z</time>
      </trkpt>
      <trkpt lat="49.88358" lon="2.03581">
        <ele>113.5</ele>
        <time>2023-05-31T12:42:24Z</time>
      </trkpt>
      <trkpt lat="49.88357" lon="2.0358">
        <ele>113.6</ele>
        <time>2023-05-31T12:42:25Z</time>
      </trkpt>
      <trkpt lat="49.88356" lon="2.03579">
        <ele>113.6</ele>
        <time>2023-05-31T12:42:26Z</time>
      </trkpt>
      <trkpt lat="49.88355" lon="2.03578">
        <ele>113.6</ele>
        <time>2023-05-31T12:42:27Z</time>
      </trkpt>
      <trkpt lat="49.88354" lon="2.03578">
        <ele>113.6</ele>
        <time>2023-05-31T12:42:28Z</time>
      </trkpt>
      <trkpt lat="49.88352" lon="2.03577">
        <ele>113.6</ele>
        <time>2023-05-31T12:42:29Z</time>
      </trkpt>
      <trkpt lat="49.88351" lon="2.03576">
        <ele>113.6</ele>
        <time>2023-05-31T12:42:30Z</time>
      </trkpt>
      <trkpt lat="49.8835" lon="2.03575">
        <ele>113.6</ele>
        <time>2023-05-31T12:42:31Z</time>
      </trkpt>
      <trkpt lat="49.88349" lon="2.03574">
        <ele>113.7</ele>
        <time>2023-05-31T12:42:32Z</time>
      </trkpt>
      <trkpt lat="49.88348" lon="2.03574">
        <ele>113.7</ele>
        <time>2023-05-31T12:42:34Z</time>
      </trkpt>
      <trkpt lat="49.88347" lon="2.03573">
        <ele>113.7</ele>
        <time>2023-05-31T12:42:35Z</time>
      </trkpt>
      <trkpt lat="49.88345" lon="2.03572">
        <ele>113.7</ele>
        <time>2023-05-31T12:42:36Z</time>
      </trkpt>
      <trkpt lat="49.88344" lon="2.03571">
        <ele>113.7</ele>
        <time>2023-05-31T12:42:37Z</time>
      </trkpt>
      <trkpt lat="49.88344" lon="2.03571">
        <ele>113.7</ele>
        <time>2023-05-31T12:42:38Z</time>
      </trkpt>
      <trkpt lat="49.88342" lon="2.0357">
        <ele>113.8</ele>
        <time>2023-05-31T12:42:39Z</time>
      </trkpt>
      <trkpt lat="49.8834" lon="2.03569">
        <ele>113.8</ele>
        <time>2023-05-31T12:42:40Z</time>
      </trkpt>
      <trkpt lat="49.88339" lon="2.03569">
        <ele>113.8</ele>
        <time>2023-05-31T12:42:41Z</time>
      </trkpt>
      <trkpt lat="49.88337" lon="2.03568">
        <ele>113.8</ele>
        <time>2023-05-31T12:42:42Z</time>
      </trkpt>
      <trkpt lat="49.88336" lon="2.03567">
        <ele>113.8</ele>
        <time>2023-05-31T12:42:44Z</time>
      </trkpt>
      <trkpt lat="49.88334" lon="2.03567">
        <ele>113.8</ele>
        <time>2023-05-31T12:42:45Z</time>
      </trkpt>
      <trkpt lat="49.88333" lon="2.03566">
        <ele>113.8</ele>
        <time>2023-05-31T12:42:46Z</time>
      </trkpt>
      <trkpt lat="49.88331" lon="2.03566">
        <ele>113.8</ele>
        <time>2023-05-31T12:42:47Z</time>
      </trkpt>
      <trkpt lat="49.8833" lon="2.03565">
        <ele>113.9</ele>
        <time>2023-05-31T12:42:48Z</time>
      </trkpt>
      <trkpt lat="49.88329" lon="2.03564">
        <ele>113.9</ele>
        <time>2023-05-31T12:42:49Z</time>
      </trkpt>
      <trkpt lat="49.88327" lon="2.03564">
        <ele>113.9</ele>
        <time>2023-05-31T12:42:50Z</time>
      </trkpt>
      <trkpt lat="49.88326" lon="2.03563">
        <ele>113.9</ele>
        <time>2023-05-31T12:42:51Z</time>
      </trkpt>
      <trkpt lat="49.88324" lon="2.03562">
        <ele>113.9</ele>
        <time>2023-05-31T12:42:53Z</time>
      </trkpt>
      <trkpt lat="49.88323" lon="2.03561">
        <ele>113.9</ele>
        <time>2023-05-31T12:42:55Z</time>
      </trkpt>
      <trkpt lat="49.88321" lon="2.03559">
        <ele>113.9</ele>
        <time>2023-05-31T12:42:56Z</time>
      </trkpt>
      <trkpt lat="49.8832" lon="2.03559">
        <ele>113.9</ele>
        <time>2023-05-31T12:42:57Z</time>
      </trkpt>
      <trkpt lat="49.88319" lon="2.03558">
        <ele>113.9</ele>
        <time>2023-05-31T12:42:58Z</time>
      </trkpt>
      <trkpt lat="49.88317" lon="2.03556">
        <ele>113.9</ele>
        <time>2023-05-31T12:43:00Z</time>
      </trkpt>
      <trkpt lat="49.88316" lon="2.03555">
        <ele>113.9</ele>
        <time>2023-05-31T12:43:01Z</time>
      </trkpt>
      <trkpt lat="49.88314" lon="2.03554">
        <ele>113.9</ele>
        <time>2023-05-31T12:43:02Z</time>
      </trkpt>
      <trkpt lat="49.88313" lon="2.03553">
        <ele>113.9</ele>
        <time>2023-05-31T12:43:03Z</time>
      </trkpt>
      <trkpt lat="49.88313" lon="2.03553">
        <ele>113.9</ele>
        <time>2023-05-31T12:43:04Z</time>
      </trkpt>
      <trkpt lat="49.88312" lon="2.03552">
        <ele>113.9</ele>
        <time>2023-05-31T12:43:06Z</time>
      </trkpt>
      <trkpt lat="49.88311" lon="2.0355">
        <ele>113.9</ele>
        <time>2023-05-31T12:43:07Z</time>
      </trkpt>
      <trkpt lat="49.8831" lon="2.03549">
        <ele>113.9</ele>
        <time>2023-05-31T12:43:08Z</time>
      </trkpt>
      <trkpt lat="49.88309" lon="2.03548">
        <ele>113.9</ele>
        <time>2023-05-31T12:43:09Z</time>
      </trkpt>
      <trkpt lat="49.88308" lon="2.03546">
        <ele>113.9</ele>
        <time>2023-05-31T12:43:11Z</time>
      </trkpt>
      <trkpt lat="49.88307" lon="2.03545">
        <ele>113.9</ele>
        <time>2023-05-31T12:43:12Z</time>
      </trkpt>
      <trkpt lat="49.88306" lon="2.03544">
        <ele>113.9</ele>
        <time>2023-05-31T12:43:13Z</time>
      </trkpt>
      <trkpt lat="49.88305" lon="2.03542">
        <ele>113.9</ele>
        <time>2023-05-31T12:43:14Z</time>
      </trkpt>
      <trkpt lat="49.88305" lon="2.03541">
        <ele>113.9</ele>
        <time>2023-05-31T12:43:15Z</time>
      </trkpt>
      <trkpt lat="49.88304" lon="2.0354">
        <ele>113.9</ele>
        <time>2023-05-31T12:43:16Z</time>
      </trkpt>
      <trkpt lat="49.88303" lon="2.03539">
        <ele>113.9</ele>
        <time>2023-05-31T12:43:17Z</time>
      </trkpt>
      <trkpt lat="49.883" lon="2.03536">
        <ele>113.9</ele>
        <time>2023-05-31T12:43:19Z</time>
      </trkpt>
      <trkpt lat="49.88299" lon="2.03536">
        <ele>113.9</ele>
        <time>2023-05-31T12:43:20Z</time>
      </trkpt>
      <trkpt lat="49.88298" lon="2.03535">
        <ele>113.9</ele>
        <time>2023-05-31T12:43:22Z</time>
      </trkpt>
      <trkpt lat="49.88297" lon="2.03534">
        <ele>113.9</ele>
        <time>2023-05-31T12:43:23Z</time>
      </trkpt>
      <trkpt lat="49.88295" lon="2.03533">
        <ele>113.9</ele>
        <time>2023-05-31T12:43:24Z</time>
      </trkpt>
      <trkpt lat="49.88294" lon="2.03532">
        <ele>113.9</ele>
        <time>2023-05-31T12:43:26Z</time>
      </trkpt>
      <trkpt lat="49.88293" lon="2.03532">
        <ele>113.8</ele>
        <time>2023-05-31T12:43:27Z</time>
      </trkpt>
      <trkpt lat="49.88292" lon="2.03531">
        <ele>113.8</ele>
        <time>2023-05-31T12:43:28Z</time>
      </trkpt>
      <trkpt lat="49.88291" lon="2.0353">
        <ele>113.8</ele>
        <time>2023-05-31T12:43:29Z</time>
      </trkpt>
      <trkpt lat="49.8829" lon="2.0353">
        <ele>113.8</ele>
        <time>2023-05-31T12:43:30Z</time>
      </trkpt>
      <trkpt lat="49.88288" lon="2.03528">
        <ele>113.8</ele>
        <time>2023-05-31T12:43:31Z</time>
      </trkpt>
      <trkpt lat="49.88287" lon="2.03528">
        <ele>113.8</ele>
        <time>2023-05-31T12:43:32Z</time>
      </trkpt>
      <trkpt lat="49.88287" lon="2.03527">
        <ele>113.8</ele>
        <time>2023-05-31T12:43:33Z</time>
      </trkpt>
      <trkpt lat="49.88285" lon="2.03526">
        <ele>113.8</ele>
        <time>2023-05-31T12:43:34Z</time>
      </trkpt>
      <trkpt lat="49.88284" lon="2.03525">
        <ele>113.8</ele>
        <time>2023-05-31T12:43:36Z</time>
      </trkpt>
      <trkpt lat="49.88283" lon="2.03525">
        <ele>113.8</ele>
        <time>2023-05-31T12:43:37Z</time>
      </trkpt>
      <trkpt lat="49.88282" lon="2.03524">
        <ele>113.8</ele>
        <time>2023-05-31T12:43:38Z</time>
      </trkpt>
      <trkpt lat="49.8828" lon="2.03523">
        <ele>113.8</ele>
        <time>2023-05-31T12:43:39Z</time>
      </trkpt>
      <trkpt lat="49.88276" lon="2.0352">
        <ele>113.8</ele>
        <time>2023-05-31T12:43:41Z</time>
      </trkpt>
      <trkpt lat="49.88275" lon="2.0352">
        <ele>113.8</ele>
        <time>2023-05-31T12:43:42Z</time>
      </trkpt>
      <trkpt lat="49.88274" lon="2.03519">
        <ele>113.7</ele>
        <time>2023-05-31T12:43:44Z</time>
      </trkpt>
      <trkpt lat="49.88273" lon="2.03518">
        <ele>113.7</ele>
        <time>2023-05-31T12:43:45Z</time>
      </trkpt>
      <trkpt lat="49.88272" lon="2.03518">
        <ele>113.7</ele>
        <time>2023-05-31T12:43:46Z</time>
      </trkpt>
      <trkpt lat="49.88271" lon="2.03517">
        <ele>113.7</ele>
        <time>2023-05-31T12:43:47Z</time>
      </trkpt>
      <trkpt lat="49.8827" lon="2.03516">
        <ele>113.7</ele>
        <time>2023-05-31T12:43:48Z</time>
      </trkpt>
      <trkpt lat="49.88268" lon="2.03516">
        <ele>113.7</ele>
        <time>2023-05-31T12:43:50Z</time>
      </trkpt>
      <trkpt lat="49.88267" lon="2.03515">
        <ele>113.7</ele>
        <time>2023-05-31T12:43:51Z</time>
      </trkpt>
      <trkpt lat="49.88265" lon="2.03514">
        <ele>113.7</ele>
        <time>2023-05-31T12:43:52Z</time>
      </trkpt>
      <trkpt lat="49.88265" lon="2.03514">
        <ele>113.7</ele>
        <time>2023-05-31T12:43:53Z</time>
      </trkpt>
      <trkpt lat="49.88264" lon="2.03513">
        <ele>113.7</ele>
        <time>2023-05-31T12:43:54Z</time>
      </trkpt>
      <trkpt lat="49.88263" lon="2.03513">
        <ele>113.6</ele>
        <time>2023-05-31T12:43:55Z</time>
      </trkpt>
      <trkpt lat="49.88261" lon="2.03512">
        <ele>113.6</ele>
        <time>2023-05-31T12:43:56Z</time>
      </trkpt>
      <trkpt lat="49.8826" lon="2.03511">
        <ele>113.6</ele>
        <time>2023-05-31T12:43:57Z</time>
      </trkpt>
      <trkpt lat="49.88259" lon="2.0351">
        <ele>113.6</ele>
        <time>2023-05-31T12:43:58Z</time>
      </trkpt>
      <trkpt lat="49.88258" lon="2.0351">
        <ele>113.6</ele>
        <time>2023-05-31T12:43:59Z</time>
      </trkpt>
      <trkpt lat="49.88256" lon="2.03508">
        <ele>113.6</ele>
        <time>2023-05-31T12:44:00Z</time>
      </trkpt>
      <trkpt lat="49.88256" lon="2.03508">
        <ele>113.6</ele>
        <time>2023-05-31T12:44:02Z</time>
      </trkpt>
      <trkpt lat="49.88255" lon="2.03508">
        <ele>113.6</ele>
        <time>2023-05-31T12:44:03Z</time>
      </trkpt>
      <trkpt lat="49.88253" lon="2.03507">
        <ele>113.6</ele>
        <time>2023-05-31T12:44:04Z</time>
      </trkpt>
      <trkpt lat="49.88252" lon="2.03506">
        <ele>113.6</ele>
        <time>2023-05-31T12:44:05Z</time>
      </trkpt>
      <trkpt lat="49.8825" lon="2.03505">
        <ele>113.6</ele>
        <time>2023-05-31T12:44:06Z</time>
      </trkpt>
      <trkpt lat="49.88249" lon="2.03505">
        <ele>113.6</ele>
        <time>2023-05-31T12:44:07Z</time>
      </trkpt>
      <trkpt lat="49.88248" lon="2.03505">
        <ele>113.6</ele>
        <time>2023-05-31T12:44:08Z</time>
      </trkpt>
      <trkpt lat="49.88247" lon="2.03504">
        <ele>113.6</ele>
        <time>2023-05-31T12:44:09Z</time>
      </trkpt>
      <trkpt lat="49.88246" lon="2.03503">
        <ele>113.6</ele>
        <time>2023-05-31T12:44:10Z</time>
      </trkpt>
      <trkpt lat="49.88244" lon="2.03501">
        <ele>113.6</ele>
        <time>2023-05-31T12:44:12Z</time>
      </trkpt>
      <trkpt lat="49.88243" lon="2.03501">
        <ele>113.6</ele>
        <time>2023-05-31T12:44:13Z</time>
      </trkpt>
      <trkpt lat="49.88242" lon="2.035">
        <ele>113.6</ele>
        <time>2023-05-31T12:44:14Z</time>
      </trkpt>
      <trkpt lat="49.8824" lon="2.03499">
        <ele>113.7</ele>
        <time>2023-05-31T12:44:15Z</time>
      </trkpt>
      <trkpt lat="49.88239" lon="2.03499">
        <ele>113.7</ele>
        <time>2023-05-31T12:44:16Z</time>
      </trkpt>
      <trkpt lat="49.88239" lon="2.03498">
        <ele>113.7</ele>
        <time>2023-05-31T12:44:17Z</time>
      </trkpt>
      <trkpt lat="49.88237" lon="2.03497">
        <ele>113.7</ele>
        <time>2023-05-31T12:44:18Z</time>
      </trkpt>
      <trkpt lat="49.88236" lon="2.03497">
        <ele>113.7</ele>
        <time>2023-05-31T12:44:19Z</time>
      </trkpt>
      <trkpt lat="49.88235" lon="2.03496">
        <ele>113.7</ele>
        <time>2023-05-31T12:44:21Z</time>
      </trkpt>
      <trkpt lat="49.88234" lon="2.03495">
        <ele>113.7</ele>
        <time>2023-05-31T12:44:22Z</time>
      </trkpt>
      <trkpt lat="49.88233" lon="2.03495">
        <ele>113.7</ele>
        <time>2023-05-31T12:44:23Z</time>
      </trkpt>
      <trkpt lat="49.88232" lon="2.03494">
        <ele>113.7</ele>
        <time>2023-05-31T12:44:24Z</time>
      </trkpt>
      <trkpt lat="49.8823" lon="2.03493">
        <ele>113.8</ele>
        <time>2023-05-31T12:44:26Z</time>
      </trkpt>
      <trkpt lat="49.88229" lon="2.03493">
        <ele>113.8</ele>
        <time>2023-05-31T12:44:27Z</time>
      </trkpt>
      <trkpt lat="49.88227" lon="2.03491">
        <ele>113.8</ele>
        <time>2023-05-31T12:44:28Z</time>
      </trkpt>
      <trkpt lat="49.88226" lon="2.03491">
        <ele>113.8</ele>
        <time>2023-05-31T12:44:29Z</time>
      </trkpt>
      <trkpt lat="49.88226" lon="2.0349">
        <ele>113.8</ele>
        <time>2023-05-31T12:44:30Z</time>
      </trkpt>
      <trkpt lat="49.88224" lon="2.03489">
        <ele>113.8</ele>
        <time>2023-05-31T12:44:31Z</time>
      </trkpt>
      <trkpt lat="49.88223" lon="2.03488">
        <ele>113.8</ele>
        <time>2023-05-31T12:44:32Z</time>
      </trkpt>
      <trkpt lat="49.88222" lon="2.03488">
        <ele>113.8</ele>
        <time>2023-05-31T12:44:33Z</time>
      </trkpt>
      <trkpt lat="49.8822" lon="2.03487">
        <ele>113.8</ele>
        <time>2023-05-31T12:44:34Z</time>
      </trkpt>
      <trkpt lat="49.8822" lon="2.03486">
        <ele>113.8</ele>
        <time>2023-05-31T12:44:35Z</time>
      </trkpt>
      <trkpt lat="49.88219" lon="2.03486">
        <ele>113.8</ele>
        <time>2023-05-31T12:44:36Z</time>
      </trkpt>
      <trkpt lat="49.88217" lon="2.03485">
        <ele>113.8</ele>
        <time>2023-05-31T12:44:38Z</time>
      </trkpt>
      <trkpt lat="49.88216" lon="2.03485">
        <ele>113.8</ele>
        <time>2023-05-31T12:44:39Z</time>
      </trkpt>
      <trkpt lat="49.88215" lon="2.03484">
        <ele>113.8</ele>
        <time>2023-05-31T12:44:40Z</time>
      </trkpt>
      <trkpt lat="49.88214" lon="2.03484">
        <ele>113.8</ele>
        <time>2023-05-31T12:44:41Z</time>
      </trkpt>
      <trkpt lat="49.88212" lon="2.03483">
        <ele>113.8</ele>
        <time>2023-05-31T12:44:42Z</time>
      </trkpt>
      <trkpt lat="49.88211" lon="2.03483">
        <ele>113.8</ele>
        <time>2023-05-31T12:44:43Z</time>
      </trkpt>
      <trkpt lat="49.8821" lon="2.03482">
        <ele>113.8</ele>
        <time>2023-05-31T12:44:44Z</time>
      </trkpt>
      <trkpt lat="49.88208" lon="2.03481">
        <ele>113.8</ele>
        <time>2023-05-31T12:44:45Z</time>
      </trkpt>
      <trkpt lat="49.88207" lon="2.0348">
        <ele>113.8</ele>
        <time>2023-05-31T12:44:47Z</time>
      </trkpt>
      <trkpt lat="49.88205" lon="2.03479">
        <ele>113.8</ele>
        <time>2023-05-31T12:44:48Z</time>
      </trkpt>
      <trkpt lat="49.88204" lon="2.03478">
        <ele>113.8</ele>
        <time>2023-05-31T12:44:49Z</time>
      </trkpt>
      <trkpt lat="49.88202" lon="2.03477">
        <ele>113.8</ele>
        <time>2023-05-31T12:44:50Z</time>
      </trkpt>
      <trkpt lat="49.88201" lon="2.03476">
        <ele>113.8</ele>
        <time>2023-05-31T12:44:51Z</time>
      </trkpt>
      <trkpt lat="49.882" lon="2.03475">
        <ele>113.8</ele>
        <time>2023-05-31T12:44:52Z</time>
      </trkpt>
      <trkpt lat="49.88199" lon="2.03474">
        <ele>113.8</ele>
        <time>2023-05-31T12:44:53Z</time>
      </trkpt>
      <trkpt lat="49.88197" lon="2.03474">
        <ele>113.8</ele>
        <time>2023-05-31T12:44:55Z</time>
      </trkpt>
      <trkpt lat="49.88195" lon="2.03472">
        <ele>113.8</ele>
        <time>2023-05-31T12:44:56Z</time>
      </trkpt>
      <trkpt lat="49.88195" lon="2.03472">
        <ele>113.8</ele>
        <time>2023-05-31T12:44:57Z</time>
      </trkpt>
      <trkpt lat="49.88194" lon="2.03471">
        <ele>113.8</ele>
        <time>2023-05-31T12:44:58Z</time>
      </trkpt>
      <trkpt lat="49.88192" lon="2.03471">
        <ele>113.8</ele>
        <time>2023-05-31T12:44:59Z</time>
      </trkpt>
      <trkpt lat="49.88191" lon="2.0347">
        <ele>113.8</ele>
        <time>2023-05-31T12:45:00Z</time>
      </trkpt>
      <trkpt lat="49.8819" lon="2.0347">
        <ele>113.8</ele>
        <time>2023-05-31T12:45:01Z</time>
      </trkpt>
      <trkpt lat="49.88188" lon="2.03469">
        <ele>113.8</ele>
        <time>2023-05-31T12:45:02Z</time>
      </trkpt>
      <trkpt lat="49.88187" lon="2.03468">
        <ele>113.8</ele>
        <time>2023-05-31T12:45:03Z</time>
      </trkpt>
      <trkpt lat="49.88185" lon="2.03467">
        <ele>113.8</ele>
        <time>2023-05-31T12:45:04Z</time>
      </trkpt>
      <trkpt lat="49.88184" lon="2.03466">
        <ele>113.8</ele>
        <time>2023-05-31T12:45:05Z</time>
      </trkpt>
      <trkpt lat="49.88183" lon="2.03465">
        <ele>113.8</ele>
        <time>2023-05-31T12:45:06Z</time>
      </trkpt>
      <trkpt lat="49.88181" lon="2.03465">
        <ele>113.8</ele>
        <time>2023-05-31T12:45:08Z</time>
      </trkpt>
      <trkpt lat="49.8818" lon="2.03464">
        <ele>113.8</ele>
        <time>2023-05-31T12:45:09Z</time>
      </trkpt>
      <trkpt lat="49.88178" lon="2.03464">
        <ele>113.8</ele>
        <time>2023-05-31T12:45:10Z</time>
      </trkpt>
      <trkpt lat="49.88177" lon="2.03463">
        <ele>113.8</ele>
        <time>2023-05-31T12:45:11Z</time>
      </trkpt>
      <trkpt lat="49.88176" lon="2.03463">
        <ele>113.8</ele>
        <time>2023-05-31T12:45:12Z</time>
      </trkpt>
      <trkpt lat="49.88175" lon="2.03462">
        <ele>113.8</ele>
        <time>2023-05-31T12:45:13Z</time>
      </trkpt>
      <trkpt lat="49.88174" lon="2.03461">
        <ele>113.8</ele>
        <time>2023-05-31T12:45:14Z</time>
      </trkpt>
      <trkpt lat="49.88172" lon="2.0346">
        <ele>113.8</ele>
        <time>2023-05-31T12:45:15Z</time>
      </trkpt>
      <trkpt lat="49.88171" lon="2.0346">
        <ele>113.8</ele>
        <time>2023-05-31T12:45:16Z</time>
      </trkpt>
      <trkpt lat="49.8817" lon="2.03459">
        <ele>113.8</ele>
        <time>2023-05-31T12:45:18Z</time>
      </trkpt>
      <trkpt lat="49.88169" lon="2.03458">
        <ele>113.8</ele>
        <time>2023-05-31T12:45:19Z</time>
      </trkpt>
      <trkpt lat="49.88168" lon="2.03458">
        <ele>113.8</ele>
        <time>2023-05-31T12:45:20Z</time>
      </trkpt>
      <trkpt lat="49.88167" lon="2.03457">
        <ele>113.8</ele>
        <time>2023-05-31T12:45:21Z</time>
      </trkpt>
      <trkpt lat="49.88164" lon="2.03456">
        <ele>113.8</ele>
        <time>2023-05-31T12:45:22Z</time>
      </trkpt>
      <trkpt lat="49.88163" lon="2.03456">
        <ele>113.8</ele>
        <time>2023-05-31T12:45:24Z</time>
      </trkpt>
      <trkpt lat="49.88162" lon="2.03455">
        <ele>113.8</ele>
        <time>2023-05-31T12:45:25Z</time>
      </trkpt>
      <trkpt lat="49.88162" lon="2.03455">
        <ele>113.8</ele>
        <time>2023-05-31T12:45:26Z</time>
      </trkpt>
      <trkpt lat="49.88161" lon="2.03455">
        <ele>113.8</ele>
        <time>2023-05-31T12:45:27Z</time>
      </trkpt>
      <trkpt lat="49.88159" lon="2.03454">
        <ele>113.8</ele>
        <time>2023-05-31T12:45:28Z</time>
      </trkpt>
      <trkpt lat="49.88158" lon="2.03454">
        <ele>113.8</ele>
        <time>2023-05-31T12:45:29Z</time>
      </trkpt>
      <trkpt lat="49.88155" lon="2.03452">
        <ele>113.8</ele>
        <time>2023-05-31T12:45:30Z</time>
      </trkpt>
      <trkpt lat="49.88154" lon="2.03452">
        <ele>113.8</ele>
        <time>2023-05-31T12:45:32Z</time>
      </trkpt>
      <trkpt lat="49.88153" lon="2.03451">
        <ele>113.8</ele>
        <time>2023-05-31T12:45:33Z</time>
      </trkpt>
      <trkpt lat="49.88152" lon="2.0345">
        <ele>113.8</ele>
        <time>2023-05-31T12:45:34Z</time>
      </trkpt>
      <trkpt lat="49.88151" lon="2.03449">
        <ele>113.8</ele>
        <time>2023-05-31T12:45:35Z</time>
      </trkpt>
      <trkpt lat="49.88149" lon="2.03448">
        <ele>113.8</ele>
        <time>2023-05-31T12:45:36Z</time>
      </trkpt>
      <trkpt lat="49.88148" lon="2.03447">
        <ele>113.8</ele>
        <time>2023-05-31T12:45:38Z</time>
      </trkpt>
      <trkpt lat="49.88147" lon="2.03446">
        <ele>113.8</ele>
        <time>2023-05-31T12:45:39Z</time>
      </trkpt>
      <trkpt lat="49.88145" lon="2.03446">
        <ele>113.8</ele>
        <time>2023-05-31T12:45:41Z</time>
      </trkpt>
      <trkpt lat="49.88144" lon="2.03445">
        <ele>113.8</ele>
        <time>2023-05-31T12:45:42Z</time>
      </trkpt>
      <trkpt lat="49.88143" lon="2.03444">
        <ele>113.8</ele>
        <time>2023-05-31T12:45:43Z</time>
      </trkpt>
      <trkpt lat="49.88142" lon="2.03443">
        <ele>113.8</ele>
        <time>2023-05-31T12:45:44Z</time>
      </trkpt>
      <trkpt lat="49.88141" lon="2.03442">
        <ele>113.8</ele>
        <time>2023-05-31T12:45:45Z</time>
      </trkpt>
      <trkpt lat="49.8814" lon="2.03441">
        <ele>113.8</ele>
        <time>2023-05-31T12:45:46Z</time>
      </trkpt>
      <trkpt lat="49.88138" lon="2.03439">
        <ele>113.8</ele>
        <time>2023-05-31T12:45:47Z</time>
      </trkpt>
      <trkpt lat="49.88137" lon="2.03439">
        <ele>113.8</ele>
        <time>2023-05-31T12:45:48Z</time>
      </trkpt>
      <trkpt lat="49.88136" lon="2.03438">
        <ele>113.8</ele>
        <time>2023-05-31T12:45:49Z</time>
      </trkpt>
      <trkpt lat="49.88134" lon="2.03436">
        <ele>113.8</ele>
        <time>2023-05-31T12:45:51Z</time>
      </trkpt>
      <trkpt lat="49.88134" lon="2.03436">
        <ele>113.8</ele>
        <time>2023-05-31T12:45:52Z</time>
      </trkpt>
      <trkpt lat="49.88133" lon="2.03435">
        <ele>113.8</ele>
        <time>2023-05-31T12:45:53Z</time>
      </trkpt>
      <trkpt lat="49.88131" lon="2.03433">
        <ele>113.8</ele>
        <time>2023-05-31T12:45:54Z</time>
      </trkpt>
      <trkpt lat="49.88131" lon="2.03432">
        <ele>113.8</ele>
        <time>2023-05-31T12:45:55Z</time>
      </trkpt>
      <trkpt lat="49.8813" lon="2.03431">
        <ele>113.9</ele>
        <time>2023-05-31T12:45:56Z</time>
      </trkpt>
      <trkpt lat="49.88128" lon="2.0343">
        <ele>113.9</ele>
        <time>2023-05-31T12:45:57Z</time>
      </trkpt>
      <trkpt lat="49.88128" lon="2.03429">
        <ele>113.9</ele>
        <time>2023-05-31T12:45:58Z</time>
      </trkpt>
      <trkpt lat="49.88127" lon="2.03428">
        <ele>113.9</ele>
        <time>2023-05-31T12:45:59Z</time>
      </trkpt>
      <trkpt lat="49.88125" lon="2.03427">
        <ele>113.8</ele>
        <time>2023-05-31T12:46:00Z</time>
      </trkpt>
      <trkpt lat="49.88125" lon="2.03426">
        <ele>113.8</ele>
        <time>2023-05-31T12:46:01Z</time>
      </trkpt>
      <trkpt lat="49.88124" lon="2.03425">
        <ele>113.8</ele>
        <time>2023-05-31T12:46:02Z</time>
      </trkpt>
      <trkpt lat="49.88123" lon="2.03425">
        <ele>113.8</ele>
        <time>2023-05-31T12:46:04Z</time>
      </trkpt>
      <trkpt lat="49.88122" lon="2.03424">
        <ele>113.8</ele>
        <time>2023-05-31T12:46:05Z</time>
      </trkpt>
      <trkpt lat="49.88121" lon="2.03423">
        <ele>113.8</ele>
        <time>2023-05-31T12:46:06Z</time>
      </trkpt>
      <trkpt lat="49.88119" lon="2.03422">
        <ele>113.8</ele>
        <time>2023-05-31T12:46:07Z</time>
      </trkpt>
      <trkpt lat="49.88118" lon="2.03422">
        <ele>113.8</ele>
        <time>2023-05-31T12:46:08Z</time>
      </trkpt>
      <trkpt lat="49.88117" lon="2.03421">
        <ele>113.8</ele>
        <time>2023-05-31T12:46:09Z</time>
      </trkpt>
      <trkpt lat="49.88116" lon="2.0342">
        <ele>113.8</ele>
        <time>2023-05-31T12:46:10Z</time>
      </trkpt>
      <trkpt lat="49.88115" lon="2.0342">
        <ele>113.8</ele>
        <time>2023-05-31T12:46:11Z</time>
      </trkpt>
      <trkpt lat="49.88114" lon="2.03419">
        <ele>113.8</ele>
        <time>2023-05-31T12:46:12Z</time>
      </trkpt>
      <trkpt lat="49.88112" lon="2.03418">
        <ele>113.8</ele>
        <time>2023-05-31T12:46:14Z</time>
      </trkpt>
      <trkpt lat="49.88111" lon="2.03417">
        <ele>113.8</ele>
        <time>2023-05-31T12:46:15Z</time>
      </trkpt>
      <trkpt lat="49.88111" lon="2.03416">
        <ele>113.8</ele>
        <time>2023-05-31T12:46:16Z</time>
      </trkpt>
      <trkpt lat="49.88109" lon="2.03416">
        <ele>113.8</ele>
        <time>2023-05-31T12:46:17Z</time>
      </trkpt>
      <trkpt lat="49.88108" lon="2.03415">
        <ele>113.8</ele>
        <time>2023-05-31T12:46:18Z</time>
      </trkpt>
      <trkpt lat="49.88107" lon="2.03414">
        <ele>113.7</ele>
        <time>2023-05-31T12:46:19Z</time>
      </trkpt>
      <trkpt lat="49.88106" lon="2.03413">
        <ele>113.7</ele>
        <time>2023-05-31T12:46:20Z</time>
      </trkpt>
      <trkpt lat="49.88104" lon="2.03413">
        <ele>113.7</ele>
        <time>2023-05-31T12:46:21Z</time>
      </trkpt>
      <trkpt lat="49.88103" lon="2.03411">
        <ele>113.7</ele>
        <time>2023-05-31T12:46:22Z</time>
      </trkpt>
      <trkpt lat="49.88102" lon="2.0341">
        <ele>113.7</ele>
        <time>2023-05-31T12:46:24Z</time>
      </trkpt>
      <trkpt lat="49.88102" lon="2.03409">
        <ele>113.7</ele>
        <time>2023-05-31T12:46:25Z</time>
      </trkpt>
      <trkpt lat="49.88101" lon="2.03408">
        <ele>113.7</ele>
        <time>2023-05-31T12:46:26Z</time>
      </trkpt>
      <trkpt lat="49.88099" lon="2.03407">
        <ele>113.7</ele>
        <time>2023-05-31T12:46:27Z</time>
      </trkpt>
      <trkpt lat="49.88098" lon="2.03407">
        <ele>113.7</ele>
        <time>2023-05-31T12:46:28Z</time>
      </trkpt>
      <trkpt lat="49.88097" lon="2.03406">
        <ele>113.7</ele>
        <time>2023-05-31T12:46:29Z</time>
      </trkpt>
      <trkpt lat="49.88096" lon="2.03405">
        <ele>113.7</ele>
        <time>2023-05-31T12:46:31Z</time>
      </trkpt>
      <trkpt lat="49.88095" lon="2.03405">
        <ele>113.7</ele>
        <time>2023-05-31T12:46:32Z</time>
      </trkpt>
      <trkpt lat="49.88094" lon="2.03404">
        <ele>113.7</ele>
        <time>2023-05-31T12:46:33Z</time>
      </trkpt>
      <trkpt lat="49.88093" lon="2.03404">
        <ele>113.7</ele>
        <time>2023-05-31T12:46:34Z</time>
      </trkpt>
      <trkpt lat="49.88091" lon="2.03403">
        <ele>113.7</ele>
        <time>2023-05-31T12:46:35Z</time>
      </trkpt>
      <trkpt lat="49.8809" lon="2.03403">
        <ele>113.7</ele>
        <time>2023-05-31T12:46:36Z</time>
      </trkpt>
      <trkpt lat="49.88089" lon="2.03402">
        <ele>113.7</ele>
        <time>2023-05-31T12:46:37Z</time>
      </trkpt>
      <trkpt lat="49.88088" lon="2.03402">
        <ele>113.7</ele>
        <time>2023-05-31T12:46:38Z</time>
      </trkpt>
      <trkpt lat="49.88087" lon="2.03401">
        <ele>113.7</ele>
        <time>2023-05-31T12:46:39Z</time>
      </trkpt>
      <trkpt lat="49.88086" lon="2.03401">
        <ele>113.7</ele>
        <time>2023-05-31T12:46:40Z</time>
      </trkpt>
      <trkpt lat="49.88084" lon="2.034">
        <ele>113.6</ele>
        <time>2023-05-31T12:46:42Z</time>
      </trkpt>
      <trkpt lat="49.88083" lon="2.03399">
        <ele>113.6</ele>
        <time>2023-05-31T12:46:43Z</time>
      </trkpt>
      <trkpt lat="49.88082" lon="2.03399">
        <ele>113.6</ele>
        <time>2023-05-31T12:46:44Z</time>
      </trkpt>
      <trkpt lat="49.8808" lon="2.03398">
        <ele>113.6</ele>
        <time>2023-05-31T12:46:45Z</time>
      </trkpt>
      <trkpt lat="49.8808" lon="2.03398">
        <ele>113.6</ele>
        <time>2023-05-31T12:46:46Z</time>
      </trkpt>
      <trkpt lat="49.88079" lon="2.03398">
        <ele>113.6</ele>
        <time>2023-05-31T12:46:47Z</time>
      </trkpt>
      <trkpt lat="49.88078" lon="2.03397">
        <ele>113.6</ele>
        <time>2023-05-31T12:46:48Z</time>
      </trkpt>
      <trkpt lat="49.88077" lon="2.03396">
        <ele>113.6</ele>
        <time>2023-05-31T12:46:50Z</time>
      </trkpt>
      <trkpt lat="49.88076" lon="2.03396">
        <ele>113.6</ele>
        <time>2023-05-31T12:46:51Z</time>
      </trkpt>
      <trkpt lat="49.88075" lon="2.03395">
        <ele>113.6</ele>
        <time>2023-05-31T12:46:52Z</time>
      </trkpt>
      <trkpt lat="49.88073" lon="2.03394">
        <ele>113.5</ele>
        <time>2023-05-31T12:46:53Z</time>
      </trkpt>
      <trkpt lat="49.88072" lon="2.03394">
        <ele>113.5</ele>
        <time>2023-05-31T12:46:54Z</time>
      </trkpt>
      <trkpt lat="49.88071" lon="2.03393">
        <ele>113.5</ele>
        <time>2023-05-31T12:46:55Z</time>
      </trkpt>
      <trkpt lat="49.8807" lon="2.03393">
        <ele>113.5</ele>
        <time>2023-05-31T12:46:57Z</time>
      </trkpt>
      <trkpt lat="49.88069" lon="2.03392">
        <ele>113.5</ele>
        <time>2023-05-31T12:46:58Z</time>
      </trkpt>
      <trkpt lat="49.88068" lon="2.03391">
        <ele>113.5</ele>
        <time>2023-05-31T12:46:59Z</time>
      </trkpt>
      <trkpt lat="49.88067" lon="2.03391">
        <ele>113.5</ele>
        <time>2023-05-31T12:47:00Z</time>
      </trkpt>
      <trkpt lat="49.88066" lon="2.0339">
        <ele>113.5</ele>
        <time>2023-05-31T12:47:01Z</time>
      </trkpt>
      <trkpt lat="49.88065" lon="2.03389">
        <ele>113.5</ele>
        <time>2023-05-31T12:47:02Z</time>
      </trkpt>
      <trkpt lat="49.88064" lon="2.03389">
        <ele>113.4</ele>
        <time>2023-05-31T12:47:04Z</time>
      </trkpt>
      <trkpt lat="49.88063" lon="2.03388">
        <ele>113.4</ele>
        <time>2023-05-31T12:47:05Z</time>
      </trkpt>
      <trkpt lat="49.88062" lon="2.03388">
        <ele>113.4</ele>
        <time>2023-05-31T12:47:06Z</time>
      </trkpt>
      <trkpt lat="49.88062" lon="2.03388">
        <ele>113.4</ele>
        <time>2023-05-31T12:47:07Z</time>
      </trkpt>
      <trkpt lat="49.88061" lon="2.03387">
        <ele>113.4</ele>
        <time>2023-05-31T12:47:08Z</time>
      </trkpt>
      <trkpt lat="49.8806" lon="2.03387">
        <ele>113.4</ele>
        <time>2023-05-31T12:47:09Z</time>
      </trkpt>
      <trkpt lat="49.88059" lon="2.03386">
        <ele>113.4</ele>
        <time>2023-05-31T12:47:10Z</time>
      </trkpt>
      <trkpt lat="49.88058" lon="2.03385">
        <ele>113.3</ele>
        <time>2023-05-31T12:47:11Z</time>
      </trkpt>
      <trkpt lat="49.88057" lon="2.03385">
        <ele>113.3</ele>
        <time>2023-05-31T12:47:13Z</time>
      </trkpt>
      <trkpt lat="49.88056" lon="2.03384">
        <ele>113.3</ele>
        <time>2023-05-31T12:47:14Z</time>
      </trkpt>
      <trkpt lat="49.88055" lon="2.03383">
        <ele>113.3</ele>
        <time>2023-05-31T12:47:15Z</time>
      </trkpt>
      <trkpt lat="49.88054" lon="2.03382">
        <ele>113.3</ele>
        <time>2023-05-31T12:47:16Z</time>
      </trkpt>
      <trkpt lat="49.88053" lon="2.03381">
        <ele>113.3</ele>
        <time>2023-05-31T12:47:17Z</time>
      </trkpt>
      <trkpt lat="49.88052" lon="2.0338">
        <ele>113.3</ele>
        <time>2023-05-31T12:47:18Z</time>
      </trkpt>
      <trkpt lat="49.8805" lon="2.03378">
        <ele>113.3</ele>
        <time>2023-05-31T12:47:19Z</time>
      </trkpt>
      <trkpt lat="49.88049" lon="2.03378">
        <ele>113.2</ele>
        <time>2023-05-31T12:47:21Z</time>
      </trkpt>
      <trkpt lat="49.88048" lon="2.03377">
        <ele>113.2</ele>
        <time>2023-05-31T12:47:22Z</time>
      </trkpt>
      <trkpt lat="49.88047" lon="2.03376">
        <ele>113.2</ele>
        <time>2023-05-31T12:47:23Z</time>
      </trkpt>
      <trkpt lat="49.88046" lon="2.03375">
        <ele>113.2</ele>
        <time>2023-05-31T12:47:24Z</time>
      </trkpt>
      <trkpt lat="49.88045" lon="2.03373">
        <ele>113.2</ele>
        <time>2023-05-31T12:47:26Z</time>
      </trkpt>
      <trkpt lat="49.88044" lon="2.03372">
        <ele>113.1</ele>
        <time>2023-05-31T12:47:27Z</time>
      </trkpt>
      <trkpt lat="49.88043" lon="2.03371">
        <ele>113.1</ele>
        <time>2023-05-31T12:47:28Z</time>
      </trkpt>
      <trkpt lat="49.88041" lon="2.0337">
        <ele>113.1</ele>
        <time>2023-05-31T12:47:29Z</time>
      </trkpt>
      <trkpt lat="49.88041" lon="2.03369">
        <ele>113.1</ele>
        <time>2023-05-31T12:47:30Z</time>
      </trkpt>
      <trkpt lat="49.8804" lon="2.03368">
        <ele>113.1</ele>
        <time>2023-05-31T12:47:31Z</time>
      </trkpt>
      <trkpt lat="49.88037" lon="2.03366">
        <ele>113</ele>
        <time>2023-05-31T12:47:33Z</time>
      </trkpt>
      <trkpt lat="49.88036" lon="2.03365">
        <ele>113</ele>
        <time>2023-05-31T12:47:35Z</time>
      </trkpt>
      <trkpt lat="49.88035" lon="2.03364">
        <ele>112.9</ele>
        <time>2023-05-31T12:47:36Z</time>
      </trkpt>
      <trkpt lat="49.88033" lon="2.03363">
        <ele>112.9</ele>
        <time>2023-05-31T12:47:37Z</time>
      </trkpt>
      <trkpt lat="49.88032" lon="2.03361">
        <ele>112.9</ele>
        <time>2023-05-31T12:47:38Z</time>
      </trkpt>
      <trkpt lat="49.88031" lon="2.0336">
        <ele>112.8</ele>
        <time>2023-05-31T12:47:40Z</time>
      </trkpt>
      <trkpt lat="49.8803" lon="2.0336">
        <ele>112.8</ele>
        <time>2023-05-31T12:47:41Z</time>
      </trkpt>
      <trkpt lat="49.88028" lon="2.03358">
        <ele>112.8</ele>
        <time>2023-05-31T12:47:42Z</time>
      </trkpt>
      <trkpt lat="49.88027" lon="2.03357">
        <ele>112.8</ele>
        <time>2023-05-31T12:47:43Z</time>
      </trkpt>
      <trkpt lat="49.88027" lon="2.03357">
        <ele>112.7</ele>
        <time>2023-05-31T12:47:44Z</time>
      </trkpt>
      <trkpt lat="49.88026" lon="2.03356">
        <ele>112.7</ele>
        <time>2023-05-31T12:47:45Z</time>
      </trkpt>
      <trkpt lat="49.88024" lon="2.03355">
        <ele>112.7</ele>
        <time>2023-05-31T12:47:46Z</time>
      </trkpt>
      <trkpt lat="49.88023" lon="2.03354">
        <ele>112.6</ele>
        <time>2023-05-31T12:47:48Z</time>
      </trkpt>
      <trkpt lat="49.88021" lon="2.03352">
        <ele>112.6</ele>
        <time>2023-05-31T12:47:49Z</time>
      </trkpt>
      <trkpt lat="49.8802" lon="2.03352">
        <ele>112.6</ele>
        <time>2023-05-31T12:47:50Z</time>
      </trkpt>
      <trkpt lat="49.8802" lon="2.03351">
        <ele>112.5</ele>
        <time>2023-05-31T12:47:51Z</time>
      </trkpt>
      <trkpt lat="49.88018" lon="2.0335">
        <ele>112.5</ele>
        <time>2023-05-31T12:47:52Z</time>
      </trkpt>
      <trkpt lat="49.88017" lon="2.03349">
        <ele>112.5</ele>
        <time>2023-05-31T12:47:53Z</time>
      </trkpt>
      <trkpt lat="49.88016" lon="2.03348">
        <ele>112.4</ele>
        <time>2023-05-31T12:47:54Z</time>
      </trkpt>
      <trkpt lat="49.88014" lon="2.03347">
        <ele>112.4</ele>
        <time>2023-05-31T12:47:55Z</time>
      </trkpt>
      <trkpt lat="49.88011" lon="2.03345">
        <ele>112.3</ele>
        <time>2023-05-31T12:47:58Z</time>
      </trkpt>
      <trkpt lat="49.8801" lon="2.03344">
        <ele>112.3</ele>
        <time>2023-05-31T12:47:59Z</time>
      </trkpt>
      <trkpt lat="49.88008" lon="2.03343">
        <ele>112.3</ele>
        <time>2023-05-31T12:48:00Z</time>
      </trkpt>
      <trkpt lat="49.88007" lon="2.03343">
        <ele>112.2</ele>
        <time>2023-05-31T12:48:01Z</time>
      </trkpt>
      <trkpt lat="49.88006" lon="2.03342">
        <ele>112.2</ele>
        <time>2023-05-31T12:48:02Z</time>
      </trkpt>
      <trkpt lat="49.88004" lon="2.03342">
        <ele>112.2</ele>
        <time>2023-05-31T12:48:03Z</time>
      </trkpt>
      <trkpt lat="49.88003" lon="2.03341">
        <ele>112.1</ele>
        <time>2023-05-31T12:48:04Z</time>
      </trkpt>
      <trkpt lat="49.88002" lon="2.0334">
        <ele>112.1</ele>
        <time>2023-05-31T12:48:06Z</time>
      </trkpt>
      <trkpt lat="49.88" lon="2.0334">
        <ele>112</ele>
        <time>2023-05-31T12:48:07Z</time>
      </trkpt>
      <trkpt lat="49.87999" lon="2.03339">
        <ele>112</ele>
        <time>2023-05-31T12:48:08Z</time>
      </trkpt>
      <trkpt lat="49.87998" lon="2.03339">
        <ele>112</ele>
        <time>2023-05-31T12:48:09Z</time>
      </trkpt>
      <trkpt lat="49.87996" lon="2.03338">
        <ele>111.9</ele>
        <time>2023-05-31T12:48:10Z</time>
      </trkpt>
      <trkpt lat="49.87995" lon="2.03338">
        <ele>111.9</ele>
        <time>2023-05-31T12:48:11Z</time>
      </trkpt>
      <trkpt lat="49.87995" lon="2.03338">
        <ele>111.9</ele>
        <time>2023-05-31T12:48:12Z</time>
      </trkpt>
      <trkpt lat="49.87993" lon="2.03337">
        <ele>111.8</ele>
        <time>2023-05-31T12:48:13Z</time>
      </trkpt>
      <trkpt lat="49.87992" lon="2.03336">
        <ele>111.8</ele>
        <time>2023-05-31T12:48:15Z</time>
      </trkpt>
      <trkpt lat="49.87991" lon="2.03336">
        <ele>111.7</ele>
        <time>2023-05-31T12:48:16Z</time>
      </trkpt>
      <trkpt lat="49.87989" lon="2.03335">
        <ele>111.7</ele>
        <time>2023-05-31T12:48:17Z</time>
      </trkpt>
      <trkpt lat="49.87988" lon="2.03335">
        <ele>111.6</ele>
        <time>2023-05-31T12:48:18Z</time>
      </trkpt>
      <trkpt lat="49.87987" lon="2.03334">
        <ele>111.6</ele>
        <time>2023-05-31T12:48:19Z</time>
      </trkpt>
      <trkpt lat="49.87985" lon="2.03334">
        <ele>111.5</ele>
        <time>2023-05-31T12:48:20Z</time>
      </trkpt>
      <trkpt lat="49.87984" lon="2.03333">
        <ele>111.5</ele>
        <time>2023-05-31T12:48:21Z</time>
      </trkpt>
      <trkpt lat="49.87983" lon="2.03333">
        <ele>111.4</ele>
        <time>2023-05-31T12:48:22Z</time>
      </trkpt>
      <trkpt lat="49.87981" lon="2.03332">
        <ele>111.4</ele>
        <time>2023-05-31T12:48:24Z</time>
      </trkpt>
      <trkpt lat="49.8798" lon="2.03332">
        <ele>111.3</ele>
        <time>2023-05-31T12:48:25Z</time>
      </trkpt>
      <trkpt lat="49.8798" lon="2.03331">
        <ele>111.3</ele>
        <time>2023-05-31T12:48:26Z</time>
      </trkpt>
      <trkpt lat="49.87978" lon="2.03331">
        <ele>111.2</ele>
        <time>2023-05-31T12:48:27Z</time>
      </trkpt>
      <trkpt lat="49.87977" lon="2.0333">
        <ele>111.2</ele>
        <time>2023-05-31T12:48:28Z</time>
      </trkpt>
      <trkpt lat="49.87975" lon="2.03329">
        <ele>111.1</ele>
        <time>2023-05-31T12:48:29Z</time>
      </trkpt>
      <trkpt lat="49.87974" lon="2.03328">
        <ele>111.1</ele>
        <time>2023-05-31T12:48:30Z</time>
      </trkpt>
      <trkpt lat="49.87973" lon="2.03328">
        <ele>111</ele>
        <time>2023-05-31T12:48:31Z</time>
      </trkpt>
      <trkpt lat="49.87971" lon="2.03327">
        <ele>111</ele>
        <time>2023-05-31T12:48:32Z</time>
      </trkpt>
      <trkpt lat="49.87969" lon="2.03325">
        <ele>110.9</ele>
        <time>2023-05-31T12:48:34Z</time>
      </trkpt>
      <trkpt lat="49.87968" lon="2.03325">
        <ele>110.8</ele>
        <time>2023-05-31T12:48:35Z</time>
      </trkpt>
      <trkpt lat="49.87967" lon="2.03324">
        <ele>110.8</ele>
        <time>2023-05-31T12:48:36Z</time>
      </trkpt>
      <trkpt lat="49.87965" lon="2.03323">
        <ele>110.7</ele>
        <time>2023-05-31T12:48:38Z</time>
      </trkpt>
      <trkpt lat="49.87964" lon="2.03322">
        <ele>110.7</ele>
        <time>2023-05-31T12:48:39Z</time>
      </trkpt>
      <trkpt lat="49.87963" lon="2.03322">
        <ele>110.6</ele>
        <time>2023-05-31T12:48:40Z</time>
      </trkpt>
      <trkpt lat="49.87962" lon="2.03321">
        <ele>110.5</ele>
        <time>2023-05-31T12:48:41Z</time>
      </trkpt>
      <trkpt lat="49.87961" lon="2.0332">
        <ele>110.5</ele>
        <time>2023-05-31T12:48:42Z</time>
      </trkpt>
      <trkpt lat="49.87959" lon="2.03319">
        <ele>110.4</ele>
        <time>2023-05-31T12:48:44Z</time>
      </trkpt>
      <trkpt lat="49.87958" lon="2.03318">
        <ele>110.3</ele>
        <time>2023-05-31T12:48:45Z</time>
      </trkpt>
      <trkpt lat="49.87957" lon="2.03317">
        <ele>110.3</ele>
        <time>2023-05-31T12:48:46Z</time>
      </trkpt>
      <trkpt lat="49.87956" lon="2.03317">
        <ele>110.2</ele>
        <time>2023-05-31T12:48:47Z</time>
      </trkpt>
      <trkpt lat="49.87954" lon="2.03315">
        <ele>110.1</ele>
        <time>2023-05-31T12:48:48Z</time>
      </trkpt>
      <trkpt lat="49.87953" lon="2.03315">
        <ele>110.1</ele>
        <time>2023-05-31T12:48:49Z</time>
      </trkpt>
      <trkpt lat="49.87952" lon="2.03314">
        <ele>110.1</ele>
        <time>2023-05-31T12:48:50Z</time>
      </trkpt>
      <trkpt lat="49.87951" lon="2.03313">
        <ele>110</ele>
        <time>2023-05-31T12:48:51Z</time>
      </trkpt>
      <trkpt lat="49.8795" lon="2.03312">
        <ele>110</ele>
        <time>2023-05-31T12:48:52Z</time>
      </trkpt>
      <trkpt lat="49.87949" lon="2.03311">
        <ele>109.9</ele>
        <time>2023-05-31T12:48:53Z</time>
      </trkpt>
      <trkpt lat="49.87948" lon="2.03311">
        <ele>109.9</ele>
        <time>2023-05-31T12:48:55Z</time>
      </trkpt>
      <trkpt lat="49.87947" lon="2.0331">
        <ele>109.8</ele>
        <time>2023-05-31T12:48:56Z</time>
      </trkpt>
      <trkpt lat="49.87946" lon="2.03309">
        <ele>109.8</ele>
        <time>2023-05-31T12:48:57Z</time>
      </trkpt>
      <trkpt lat="49.87945" lon="2.03308">
        <ele>109.7</ele>
        <time>2023-05-31T12:48:58Z</time>
      </trkpt>
      <trkpt lat="49.87944" lon="2.03307">
        <ele>109.7</ele>
        <time>2023-05-31T12:48:59Z</time>
      </trkpt>
      <trkpt lat="49.87944" lon="2.03306">
        <ele>109.7</ele>
        <time>2023-05-31T12:49:01Z</time>
      </trkpt>
      <trkpt lat="49.87943" lon="2.03306">
        <ele>109.6</ele>
        <time>2023-05-31T12:49:02Z</time>
      </trkpt>
      <trkpt lat="49.87942" lon="2.03305">
        <ele>109.6</ele>
        <time>2023-05-31T12:49:03Z</time>
      </trkpt>
      <trkpt lat="49.87941" lon="2.03304">
        <ele>109.6</ele>
        <time>2023-05-31T12:49:04Z</time>
      </trkpt>
      <trkpt lat="49.8794" lon="2.03303">
        <ele>109.5</ele>
        <time>2023-05-31T12:49:05Z</time>
      </trkpt>
      <trkpt lat="49.87939" lon="2.03302">
        <ele>109.5</ele>
        <time>2023-05-31T12:49:06Z</time>
      </trkpt>
      <trkpt lat="49.87938" lon="2.03301">
        <ele>109.4</ele>
        <time>2023-05-31T12:49:07Z</time>
      </trkpt>
      <trkpt lat="49.87937" lon="2.03301">
        <ele>109.4</ele>
        <time>2023-05-31T12:49:08Z</time>
      </trkpt>
      <trkpt lat="49.87936" lon="2.033">
        <ele>109.3</ele>
        <time>2023-05-31T12:49:10Z</time>
      </trkpt>
      <trkpt lat="49.87935" lon="2.03299">
        <ele>109.3</ele>
        <time>2023-05-31T12:49:11Z</time>
      </trkpt>
      <trkpt lat="49.87933" lon="2.03298">
        <ele>109.2</ele>
        <time>2023-05-31T12:49:12Z</time>
      </trkpt>
      <trkpt lat="49.87932" lon="2.03298">
        <ele>109.2</ele>
        <time>2023-05-31T12:49:13Z</time>
      </trkpt>
      <trkpt lat="49.87931" lon="2.03297">
        <ele>109.1</ele>
        <time>2023-05-31T12:49:14Z</time>
      </trkpt>
      <trkpt lat="49.87928" lon="2.03294">
        <ele>109</ele>
        <time>2023-05-31T12:49:16Z</time>
      </trkpt>
      <trkpt lat="49.87926" lon="2.03293">
        <ele>109</ele>
        <time>2023-05-31T12:49:17Z</time>
      </trkpt>
      <trkpt lat="49.87925" lon="2.03292">
        <ele>108.9</ele>
        <time>2023-05-31T12:49:19Z</time>
      </trkpt>
      <trkpt lat="49.87923" lon="2.03292">
        <ele>108.9</ele>
        <time>2023-05-31T12:49:20Z</time>
      </trkpt>
      <trkpt lat="49.87922" lon="2.03291">
        <ele>108.8</ele>
        <time>2023-05-31T12:49:21Z</time>
      </trkpt>
      <trkpt lat="49.87921" lon="2.0329">
        <ele>108.8</ele>
        <time>2023-05-31T12:49:22Z</time>
      </trkpt>
      <trkpt lat="49.87918" lon="2.03289">
        <ele>108.7</ele>
        <time>2023-05-31T12:49:23Z</time>
      </trkpt>
      <trkpt lat="49.87918" lon="2.03288">
        <ele>108.7</ele>
        <time>2023-05-31T12:49:24Z</time>
      </trkpt>
      <trkpt lat="49.87917" lon="2.03288">
        <ele>108.6</ele>
        <time>2023-05-31T12:49:25Z</time>
      </trkpt>
      <trkpt lat="49.87916" lon="2.03287">
        <ele>108.6</ele>
        <time>2023-05-31T12:49:26Z</time>
      </trkpt>
      <trkpt lat="49.87915" lon="2.03286">
        <ele>108.6</ele>
        <time>2023-05-31T12:49:28Z</time>
      </trkpt>
      <trkpt lat="49.87914" lon="2.03286">
        <ele>108.5</ele>
        <time>2023-05-31T12:49:29Z</time>
      </trkpt>
      <trkpt lat="49.87912" lon="2.03285">
        <ele>108.5</ele>
        <time>2023-05-31T12:49:30Z</time>
      </trkpt>
      <trkpt lat="49.87911" lon="2.03284">
        <ele>108.4</ele>
        <time>2023-05-31T12:49:31Z</time>
      </trkpt>
      <trkpt lat="49.8791" lon="2.03284">
        <ele>108.4</ele>
        <time>2023-05-31T12:49:32Z</time>
      </trkpt>
      <trkpt lat="49.87909" lon="2.03283">
        <ele>108.4</ele>
        <time>2023-05-31T12:49:33Z</time>
      </trkpt>
      <trkpt lat="49.87908" lon="2.03283">
        <ele>108.3</ele>
        <time>2023-05-31T12:49:35Z</time>
      </trkpt>
      <trkpt lat="49.87907" lon="2.03282">
        <ele>108.3</ele>
        <time>2023-05-31T12:49:36Z</time>
      </trkpt>
      <trkpt lat="49.87906" lon="2.03282">
        <ele>108.2</ele>
        <time>2023-05-31T12:49:37Z</time>
      </trkpt>
      <trkpt lat="49.87905" lon="2.03281">
        <ele>108.2</ele>
        <time>2023-05-31T12:49:38Z</time>
      </trkpt>
      <trkpt lat="49.87904" lon="2.03281">
        <ele>108.1</ele>
        <time>2023-05-31T12:49:39Z</time>
      </trkpt>
      <trkpt lat="49.87903" lon="2.0328">
        <ele>108.1</ele>
        <time>2023-05-31T12:49:41Z</time>
      </trkpt>
      <trkpt lat="49.87903" lon="2.0328">
        <ele>108</ele>
        <time>2023-05-31T12:49:42Z</time>
      </trkpt>
      <trkpt lat="49.87902" lon="2.0328">
        <ele>108</ele>
        <time>2023-05-31T12:49:43Z</time>
      </trkpt>
      <trkpt lat="49.87901" lon="2.03279">
        <ele>107.9</ele>
        <time>2023-05-31T12:49:44Z</time>
      </trkpt>
      <trkpt lat="49.879" lon="2.03278">
        <ele>107.9</ele>
        <time>2023-05-31T12:49:45Z</time>
      </trkpt>
      <trkpt lat="49.87899" lon="2.03277">
        <ele>107.8</ele>
        <time>2023-05-31T12:49:47Z</time>
      </trkpt>
      <trkpt lat="49.87899" lon="2.03276">
        <ele>107.8</ele>
        <time>2023-05-31T12:49:48Z</time>
      </trkpt>
      <trkpt lat="49.87898" lon="2.03275">
        <ele>107.5</ele>
        <time>2023-05-31T12:49:49Z</time>
      </trkpt>
      <trkpt lat="49.87898" lon="2.03274">
        <ele>107.5</ele>
        <time>2023-05-31T12:49:50Z</time>
      </trkpt>
      <trkpt lat="49.87897" lon="2.03274">
        <ele>107.3</ele>
        <time>2023-05-31T12:49:52Z</time>
      </trkpt>
      <trkpt lat="49.87896" lon="2.03274">
        <ele>107.2</ele>
        <time>2023-05-31T12:49:53Z</time>
      </trkpt>
      <trkpt lat="49.87895" lon="2.03273">
        <ele>107.1</ele>
        <time>2023-05-31T12:49:55Z</time>
      </trkpt>
      <trkpt lat="49.87895" lon="2.03273">
        <ele>107</ele>
        <time>2023-05-31T12:49:56Z</time>
      </trkpt>
      <trkpt lat="49.87893" lon="2.03273">
        <ele>106.8</ele>
        <time>2023-05-31T12:49:58Z</time>
      </trkpt>
      <trkpt lat="49.87893" lon="2.03273">
        <ele>106.7</ele>
        <time>2023-05-31T12:49:59Z</time>
      </trkpt>
      <trkpt lat="49.87893" lon="2.03273">
        <ele>106.7</ele>
        <time>2023-05-31T12:50:01Z</time>
      </trkpt>
      <trkpt lat="49.87893" lon="2.03273">
        <ele>106.7</ele>
        <time>2023-05-31T12:50:02Z</time>
      </trkpt>
      <trkpt lat="49.87893" lon="2.03273">
        <ele>106.6</ele>
        <time>2023-05-31T12:50:04Z</time>
      </trkpt>
      <trkpt lat="49.87893" lon="2.03273">
        <ele>106.6</ele>
        <time>2023-05-31T12:50:05Z</time>
      </trkpt>
      <trkpt lat="49.87893" lon="2.03274">
        <ele>106.6</ele>
        <time>2023-05-31T12:50:06Z</time>
      </trkpt>
      <trkpt lat="49.87893" lon="2.03274">
        <ele>106.6</ele>
        <time>2023-05-31T12:50:08Z</time>
      </trkpt>
      <trkpt lat="49.87893" lon="2.03274">
        <ele>106.6</ele>
        <time>2023-05-31T12:50:09Z</time>
      </trkpt>
      <trkpt lat="49.87893" lon="2.03274">
        <ele>106.5</ele>
        <time>2023-05-31T12:50:10Z</time>
      </trkpt>
      <trkpt lat="49.87893" lon="2.03274">
        <ele>106.5</ele>
        <time>2023-05-31T12:50:12Z</time>
      </trkpt>
      <trkpt lat="49.87893" lon="2.03274">
        <ele>106.5</ele>
        <time>2023-05-31T12:50:13Z</time>
      </trkpt>
      <trkpt lat="49.87893" lon="2.03274">
        <ele>106.5</ele>
        <time>2023-05-31T12:50:14Z</time>
      </trkpt>
      <trkpt lat="49.87893" lon="2.03274">
        <ele>106.5</ele>
        <time>2023-05-31T12:50:16Z</time>
      </trkpt>
      <trkpt lat="49.87893" lon="2.03274">
        <ele>106.4</ele>
        <time>2023-05-31T12:50:17Z</time>
      </trkpt>
      <trkpt lat="49.87894" lon="2.03274">
        <ele>106.4</ele>
        <time>2023-05-31T12:50:18Z</time>
      </trkpt>
      <trkpt lat="49.87894" lon="2.03274">
        <ele>106.4</ele>
        <time>2023-05-31T12:50:19Z</time>
      </trkpt>
      <trkpt lat="49.87894" lon="2.03274">
        <ele>106.3</ele>
        <time>2023-05-31T12:50:20Z</time>
      </trkpt>
      <trkpt lat="49.87894" lon="2.03274">
        <ele>106.3</ele>
        <time>2023-05-31T12:50:21Z</time>
      </trkpt>
      <trkpt lat="49.87894" lon="2.03274">
        <ele>106.3</ele>
        <time>2023-05-31T12:50:22Z</time>
      </trkpt>
      <trkpt lat="49.87894" lon="2.03274">
        <ele>106.3</ele>
        <time>2023-05-31T12:50:23Z</time>
      </trkpt>
      <trkpt lat="49.87894" lon="2.03274">
        <ele>106.3</ele>
        <time>2023-05-31T12:50:24Z</time>
      </trkpt>
      <trkpt lat="49.87894" lon="2.03274">
        <ele>106.3</ele>
        <time>2023-05-31T12:50:25Z</time>
      </trkpt>
      <trkpt lat="49.87894" lon="2.03274">
        <ele>106.3</ele>
        <time>2023-05-31T12:50:26Z</time>
      </trkpt>
      <trkpt lat="49.87894" lon="2.03274">
        <ele>106.3</ele>
        <time>2023-05-31T12:50:27Z</time>
      </trkpt>
      <trkpt lat="49.87894" lon="2.03274">
        <ele>106.3</ele>
        <time>2023-05-31T12:50:28Z</time>
      </trkpt>
      <trkpt lat="49.87894" lon="2.03274">
        <ele>106.3</ele>
        <time>2023-05-31T12:50:29Z</time>
      </trkpt>
      <trkpt lat="49.87894" lon="2.03274">
        <ele>106.3</ele>
        <time>2023-05-31T12:50:30Z</time>
      </trkpt>
      <trkpt lat="49.87894" lon="2.03274">
        <ele>106.3</ele>
        <time>2023-05-31T12:50:31Z</time>
      </trkpt>
      <trkpt lat="49.87894" lon="2.03274">
        <ele>106.3</ele>
        <time>2023-05-31T12:50:32Z</time>
      </trkpt>
      <trkpt lat="49.87894" lon="2.03274">
        <ele>106.3</ele>
        <time>2023-05-31T12:50:33Z</time>
      </trkpt>
      <trkpt lat="49.87894" lon="2.03274">
        <ele>106.3</ele>
        <time>2023-05-31T12:50:34Z</time>
      </trkpt>
      <trkpt lat="49.87894" lon="2.03274">
        <ele>106.3</ele>
        <time>2023-05-31T12:50:35Z</time>
      </trkpt>
      <trkpt lat="49.87894" lon="2.03274">
        <ele>106.3</ele>
        <time>2023-05-31T12:50:36Z</time>
      </trkpt>
      <trkpt lat="49.87894" lon="2.03274">
        <ele>106.3</ele>
        <time>2023-05-31T12:50:37Z</time>
      </trkpt>
      <trkpt lat="49.87894" lon="2.03274">
        <ele>106.3</ele>
        <time>2023-05-31T12:50:38Z</time>
      </trkpt>
      <trkpt lat="49.87894" lon="2.03274">
        <ele>106.3</ele>
        <time>2023-05-31T12:50:39Z</time>
      </trkpt>
      <trkpt lat="49.87894" lon="2.03274">
        <ele>106.3</ele>
        <time>2023-05-31T12:50:40Z</time>
      </trkpt>
      <trkpt lat="49.87894" lon="2.03274">
        <ele>106.3</ele>
        <time>2023-05-31T12:50:41Z</time>
      </trkpt>
      <trkpt lat="49.87894" lon="2.03274">
        <ele>106.3</ele>
        <time>2023-05-31T12:50:42Z</time>
      </trkpt>
      <trkpt lat="49.87894" lon="2.03274">
        <ele>106.3</ele>
        <time>2023-05-31T12:50:43Z</time>
      </trkpt>
      <trkpt lat="49.87894" lon="2.03274">
        <ele>106.3</ele>
        <time>2023-05-31T12:50:44Z</time>
      </trkpt>
      <trkpt lat="49.87894" lon="2.03274">
        <ele>106.3</ele>
        <time>2023-05-31T12:50:45Z</time>
      </trkpt>
      <trkpt lat="49.87894" lon="2.03274">
        <ele>106.3</ele>
        <time>2023-05-31T12:50:46Z</time>
      </trkpt>
      <trkpt lat="49.87894" lon="2.03274">
        <ele>106.3</ele>
        <time>2023-05-31T12:50:47Z</time>
      </trkpt>
      <trkpt lat="49.87894" lon="2.03274">
        <ele>106.3</ele>
        <time>2023-05-31T12:50:48Z</time>
      </trkpt>
      <trkpt lat="49.87894" lon="2.03274">
        <ele>106.3</ele>
        <time>2023-05-31T12:50:49Z</time>
      </trkpt>
      <trkpt lat="49.87894" lon="2.03274">
        <ele>106.3</ele>
        <time>2023-05-31T12:50:50Z</time>
      </trkpt>
      <trkpt lat="49.87894" lon="2.03274">
        <ele>106.3</ele>
        <time>2023-05-31T12:50:51Z</time>
      </trkpt>
      <trkpt lat="49.87894" lon="2.03274">
        <ele>106.3</ele>
        <time>2023-05-31T12:50:52Z</time>
      </trkpt>
      <trkpt lat="49.87894" lon="2.03274">
        <ele>106.3</ele>
        <time>2023-05-31T12:50:53Z</time>
      </trkpt>
      <trkpt lat="49.87894" lon="2.03274">
        <ele>106.3</ele>
        <time>2023-05-31T12:50:54Z</time>
      </trkpt>
      <trkpt lat="49.87894" lon="2.03274">
        <ele>106.3</ele>
        <time>2023-05-31T12:50:55Z</time>
      </trkpt>
      <trkpt lat="49.87894" lon="2.03274">
        <ele>106.3</ele>
        <time>2023-05-31T12:50:56Z</time>
      </trkpt>
      <trkpt lat="49.87894" lon="2.03274">
        <ele>106.3</ele>
        <time>2023-05-31T12:50:57Z</time>
      </trkpt>
      <trkpt lat="49.87894" lon="2.03274">
        <ele>106.3</ele>
        <time>2023-05-31T12:50:58Z</time>
      </trkpt>
      <trkpt lat="49.87894" lon="2.03274">
        <ele>106.3</ele>
        <time>2023-05-31T12:50:59Z</time>
      </trkpt>
      <trkpt lat="49.87894" lon="2.03274">
        <ele>106.3</ele>
        <time>2023-05-31T12:51:00Z</time>
      </trkpt>
      <trkpt lat="49.87894" lon="2.03274">
        <ele>106.3</ele>
        <time>2023-05-31T12:51:01Z</time>
      </trkpt>
      <trkpt lat="49.87894" lon="2.03274">
        <ele>106.3</ele>
        <time>2023-05-31T12:51:02Z</time>
      </trkpt>
      <trkpt lat="49.87894" lon="2.03274">
        <ele>106.3</ele>
        <time>2023-05-31T12:51:03Z</time>
      </trkpt>
      <trkpt lat="49.87894" lon="2.03274">
        <ele>106.3</ele>
        <time>2023-05-31T12:51:04Z</time>
      </trkpt>
      <trkpt lat="49.87894" lon="2.03274">
        <ele>106.3</ele>
        <time>2023-05-31T12:51:05Z</time>
      </trkpt>
      <trkpt lat="49.87894" lon="2.03274">
        <ele>106.3</ele>
        <time>2023-05-31T12:51:06Z</time>
      </trkpt>
      <trkpt lat="49.87894" lon="2.03274">
        <ele>106.3</ele>
        <time>2023-05-31T12:51:07Z</time>
      </trkpt>
      <trkpt lat="49.87894" lon="2.03274">
        <ele>106.3</ele>
        <time>2023-05-31T12:51:08Z</time>
      </trkpt>
      <trkpt lat="49.87894" lon="2.03274">
        <ele>106.3</ele>
        <time>2023-05-31T12:51:09Z</time>
      </trkpt>
      <trkpt lat="49.87894" lon="2.03274">
        <ele>106.3</ele>
        <time>2023-05-31T12:51:10Z</time>
      </trkpt>
      <trkpt lat="49.87894" lon="2.03274">
        <ele>106.3</ele>
        <time>2023-05-31T12:51:11Z</time>
      </trkpt>
      <trkpt lat="49.87894" lon="2.03274">
        <ele>106.3</ele>
        <time>2023-05-31T12:51:12Z</time>
      </trkpt>
      <trkpt lat="49.87894" lon="2.03274">
        <ele>106.3</ele>
        <time>2023-05-31T12:51:13Z</time>
      </trkpt>
      <trkpt lat="49.87894" lon="2.03274">
        <ele>106.3</ele>
        <time>2023-05-31T12:51:14Z</time>
      </trkpt>
      <trkpt lat="49.87894" lon="2.03274">
        <ele>106.3</ele>
        <time>2023-05-31T12:51:15Z</time>
      </trkpt>
      <trkpt lat="49.87894" lon="2.03274">
        <ele>106.3</ele>
        <time>2023-05-31T12:51:16Z</time>
      </trkpt>
      <trkpt lat="49.87894" lon="2.03274">
        <ele>106.3</ele>
        <time>2023-05-31T12:51:17Z</time>
      </trkpt>
      <trkpt lat="49.87894" lon="2.03274">
        <ele>106.3</ele>
        <time>2023-05-31T12:51:18Z</time>
      </trkpt>
      <trkpt lat="49.87894" lon="2.03274">
        <ele>106.3</ele>
        <time>2023-05-31T12:51:19Z</time>
      </trkpt>
      <trkpt lat="49.87894" lon="2.03274">
        <ele>106.3</ele>
        <time>2023-05-31T12:51:20Z</time>
      </trkpt>
      <trkpt lat="49.87894" lon="2.03274">
        <ele>106.3</ele>
        <time>2023-05-31T12:51:21Z</time>
      </trkpt>
      <trkpt lat="49.87894" lon="2.03274">
        <ele>106.3</ele>
        <time>2023-05-31T12:51:22Z</time>
      </trkpt>
      <trkpt lat="49.87894" lon="2.03274">
        <ele>106.3</ele>
        <time>2023-05-31T12:51:23Z</time>
      </trkpt>
      <trkpt lat="49.87894" lon="2.03274">
        <ele>106.3</ele>
        <time>2023-05-31T12:51:24Z</time>
      </trkpt>
      <trkpt lat="49.87894" lon="2.03274">
        <ele>106.3</ele>
        <time>2023-05-31T12:51:25Z</time>
      </trkpt>
      <trkpt lat="49.87894" lon="2.03274">
        <ele>106.3</ele>
        <time>2023-05-31T12:51:26Z</time>
      </trkpt>
      <trkpt lat="49.87894" lon="2.03274">
        <ele>106.3</ele>
        <time>2023-05-31T12:51:27Z</time>
      </trkpt>
      <trkpt lat="49.87894" lon="2.03274">
        <ele>106.3</ele>
        <time>2023-05-31T12:51:28Z</time>
      </trkpt>
      <trkpt lat="49.87894" lon="2.03274">
        <ele>106.3</ele>
        <time>2023-05-31T12:51:29Z</time>
      </trkpt>
      <trkpt lat="49.87894" lon="2.03274">
        <ele>106.3</ele>
        <time>2023-05-31T12:51:30Z</time>
      </trkpt>
      <trkpt lat="49.87894" lon="2.03274">
        <ele>106.3</ele>
        <time>2023-05-31T12:51:31Z</time>
      </trkpt>
      <trkpt lat="49.87894" lon="2.03274">
        <ele>106.3</ele>
        <time>2023-05-31T12:51:32Z</time>
      </trkpt>
      <trkpt lat="49.87894" lon="2.03274">
        <ele>106.3</ele>
        <time>2023-05-31T12:51:33Z</time>
      </trkpt>
      <trkpt lat="49.87894" lon="2.03274">
        <ele>106.3</ele>
        <time>2023-05-31T12:51:34Z</time>
      </trkpt>
      <trkpt lat="49.87894" lon="2.03274">
        <ele>106.3</ele>
        <time>2023-05-31T12:51:35Z</time>
      </trkpt>
      <trkpt lat="49.87894" lon="2.03274">
        <ele>106.3</ele>
        <time>2023-05-31T12:51:36Z</time>
      </trkpt>
      <trkpt lat="49.87894" lon="2.03274">
        <ele>106.3</ele>
        <time>2023-05-31T12:51:37Z</time>
      </trkpt>
      <trkpt lat="49.87894" lon="2.03274">
        <ele>106.3</ele>
        <time>2023-05-31T12:51:38Z</time>
      </trkpt>
      <trkpt lat="49.87894" lon="2.03274">
        <ele>106.3</ele>
        <time>2023-05-31T12:51:39Z</time>
      </trkpt>
      <trkpt lat="49.87894" lon="2.03274">
        <ele>106.3</ele>
        <time>2023-05-31T12:51:40Z</time>
      </trkpt>
      <trkpt lat="49.87894" lon="2.03274">
        <ele>106.3</ele>
        <time>2023-05-31T12:51:41Z</time>
      </trkpt>
      <trkpt lat="49.87894" lon="2.03274">
        <ele>106.3</ele>
        <time>2023-05-31T12:51:42Z</time>
      </trkpt>
      <trkpt lat="49.87894" lon="2.03274">
        <ele>106.3</ele>
        <time>2023-05-31T12:51:43Z</time>
      </trkpt>
      <trkpt lat="49.87894" lon="2.03274">
        <ele>106.3</ele>
        <time>2023-05-31T12:51:44Z</time>
      </trkpt>
      <trkpt lat="49.87894" lon="2.03274">
        <ele>106.3</ele>
        <time>2023-05-31T12:51:45Z</time>
      </trkpt>
      <trkpt lat="49.87894" lon="2.03274">
        <ele>106.3</ele>
        <time>2023-05-31T12:51:46Z</time>
      </trkpt>
      <trkpt lat="49.87894" lon="2.03274">
        <ele>106.3</ele>
        <time>2023-05-31T12:51:47Z</time>
      </trkpt>
      <trkpt lat="49.87894" lon="2.03274">
        <ele>106.3</ele>
        <time>2023-05-31T12:51:48Z</time>
      </trkpt>
      <trkpt lat="49.87894" lon="2.03274">
        <ele>106.3</ele>
        <time>2023-05-31T12:51:49Z</time>
      </trkpt>
      <trkpt lat="49.87894" lon="2.03274">
        <ele>106.3</ele>
        <time>2023-05-31T12:51:50Z</time>
      </trkpt>
      <trkpt lat="49.87894" lon="2.03274">
        <ele>106.3</ele>
        <time>2023-05-31T12:51:51Z</time>
      </trkpt>
      <trkpt lat="49.87894" lon="2.03274">
        <ele>106.3</ele>
        <time>2023-05-31T12:51:52Z</time>
      </trkpt>
      <trkpt lat="49.87894" lon="2.03274">
        <ele>106.3</ele>
        <time>2023-05-31T12:51:53Z</time>
      </trkpt>
      <trkpt lat="49.87894" lon="2.03274">
        <ele>106.3</ele>
        <time>2023-05-31T12:51:54Z</time>
      </trkpt>
      <trkpt lat="49.87894" lon="2.03274">
        <ele>106.3</ele>
        <time>2023-05-31T12:51:55Z</time>
      </trkpt>
      <trkpt lat="49.87894" lon="2.03274">
        <ele>106.3</ele>
        <time>2023-05-31T12:51:56Z</time>
      </trkpt>
      <trkpt lat="49.87894" lon="2.03274">
        <ele>106.3</ele>
        <time>2023-05-31T12:51:57Z</time>
      </trkpt>
      <trkpt lat="49.87894" lon="2.03274">
        <ele>106.3</ele>
        <time>2023-05-31T12:51:58Z</time>
      </trkpt>
      <trkpt lat="49.87894" lon="2.03274">
        <ele>106.3</ele>
        <time>2023-05-31T12:51:59Z</time>
      </trkpt>
      <trkpt lat="49.87894" lon="2.03274">
        <ele>106.3</ele>
        <time>2023-05-31T12:52:00Z</time>
      </trkpt>
      <trkpt lat="49.87894" lon="2.03274">
        <ele>106.3</ele>
        <time>2023-05-31T12:52:01Z</time>
      </trkpt>
      <trkpt lat="49.87894" lon="2.03274">
        <ele>106.3</ele>
        <time>2023-05-31T12:52:02Z</time>
      </trkpt>
      <trkpt lat="49.87894" lon="2.03274">
        <ele>106.3</ele>
        <time>2023-05-31T12:52:03Z</time>
      </trkpt>
      <trkpt lat="49.87894" lon="2.03274">
        <ele>106.3</ele>
        <time>2023-05-31T12:52:04Z</time>
      </trkpt>
      <trkpt lat="49.87894" lon="2.03274">
        <ele>106.3</ele>
        <time>2023-05-31T12:52:05Z</time>
      </trkpt>
      <trkpt lat="49.87894" lon="2.03274">
        <ele>106.3</ele>
        <time>2023-05-31T12:52:06Z</time>
      </trkpt>
      <trkpt lat="49.87894" lon="2.03274">
        <ele>106.3</ele>
        <time>2023-05-31T12:52:07Z</time>
      </trkpt>
      <trkpt lat="49.87894" lon="2.03274">
        <ele>106.3</ele>
        <time>2023-05-31T12:52:08Z</time>
      </trkpt>
      <trkpt lat="49.87894" lon="2.03274">
        <ele>106.3</ele>
        <time>2023-05-31T12:52:09Z</time>
      </trkpt>
      <trkpt lat="49.87894" lon="2.03274">
        <ele>106.3</ele>
        <time>2023-05-31T12:52:10Z</time>
      </trkpt>
      <trkpt lat="49.87894" lon="2.03274">
        <ele>106.3</ele>
        <time>2023-05-31T12:52:11Z</time>
      </trkpt>
      <trkpt lat="49.87894" lon="2.03274">
        <ele>106.3</ele>
        <time>2023-05-31T12:52:12Z</time>
      </trkpt>
      <trkpt lat="49.87894" lon="2.03274">
        <ele>106.3</ele>
        <time>2023-05-31T12:52:13Z</time>
      </trkpt>
      <trkpt lat="49.87894" lon="2.03274">
        <ele>106.3</ele>
        <time>2023-05-31T12:52:14Z</time>
      </trkpt>
      <trkpt lat="49.87894" lon="2.03274">
        <ele>106.3</ele>
        <time>2023-05-31T12:52:15Z</time>
      </trkpt>
      <trkpt lat="49.87894" lon="2.03274">
        <ele>106.3</ele>
        <time>2023-05-31T12:52:16Z</time>
      </trkpt>
      <trkpt lat="49.87894" lon="2.03274">
        <ele>106.3</ele>
        <time>2023-05-31T12:52:17Z</time>
      </trkpt>
      <trkpt lat="49.87894" lon="2.03274">
        <ele>106.3</ele>
        <time>2023-05-31T12:52:18Z</time>
      </trkpt>
      <trkpt lat="49.87894" lon="2.03274">
        <ele>106.3</ele>
        <time>2023-05-31T12:52:19Z</time>
      </trkpt>
      <trkpt lat="49.87894" lon="2.03274">
        <ele>106.3</ele>
        <time>2023-05-31T12:52:20Z</time>
      </trkpt>
      <trkpt lat="49.87894" lon="2.03274">
        <ele>106.3</ele>
        <time>2023-05-31T12:52:21Z</time>
      </trkpt>
      <trkpt lat="49.87894" lon="2.03274">
        <ele>106.3</ele>
        <time>2023-05-31T12:52:22Z</time>
      </trkpt>
      <trkpt lat="49.87894" lon="2.03274">
        <ele>106.3</ele>
        <time>2023-05-31T12:52:23Z</time>
      </trkpt>
      <trkpt lat="49.87894" lon="2.03274">
        <ele>106.3</ele>
        <time>2023-05-31T12:52:24Z</time>
      </trkpt>
      <trkpt lat="49.87894" lon="2.03274">
        <ele>106.3</ele>
        <time>2023-05-31T12:52:25Z</time>
      </trkpt>
      <trkpt lat="49.87894" lon="2.03274">
        <ele>106.3</ele>
        <time>2023-05-31T12:52:26Z</time>
      </trkpt>
      <trkpt lat="49.87894" lon="2.03274">
        <ele>106.3</ele>
        <time>2023-05-31T12:52:27Z</time>
      </trkpt>
      <trkpt lat="49.87894" lon="2.03274">
        <ele>106.3</ele>
        <time>2023-05-31T12:52:28Z</time>
      </trkpt>
      <trkpt lat="49.87894" lon="2.03274">
        <ele>106.3</ele>
        <time>2023-05-31T12:52:29Z</time>
      </trkpt>
      <trkpt lat="49.87894" lon="2.03274">
        <ele>106.3</ele>
        <time>2023-05-31T12:52:30Z</time>
      </trkpt>
      <trkpt lat="49.87894" lon="2.03274">
        <ele>106.3</ele>
        <time>2023-05-31T12:52:31Z</time>
      </trkpt>
      <trkpt lat="49.87894" lon="2.03274">
        <ele>106.3</ele>
        <time>2023-05-31T12:52:32Z</time>
      </trkpt>
      <trkpt lat="49.87894" lon="2.03274">
        <ele>106.3</ele>
        <time>2023-05-31T12:52:33Z</time>
      </trkpt>
      <trkpt lat="49.87894" lon="2.03274">
        <ele>106.3</ele>
        <time>2023-05-31T12:52:34Z</time>
      </trkpt>
      <trkpt lat="49.87894" lon="2.03274">
        <ele>106.3</ele>
        <time>2023-05-31T12:52:35Z</time>
      </trkpt>
      <trkpt lat="49.87894" lon="2.03274">
        <ele>106.3</ele>
        <time>2023-05-31T12:52:36Z</time>
      </trkpt>
      <trkpt lat="49.87894" lon="2.03274">
        <ele>106.3</ele>
        <time>2023-05-31T12:52:37Z</time>
      </trkpt>
      <trkpt lat="49.87894" lon="2.03274">
        <ele>106.3</ele>
        <time>2023-05-31T12:52:38Z</time>
      </trkpt>
      <trkpt lat="49.87894" lon="2.03274">
        <ele>106.3</ele>
        <time>2023-05-31T12:52:39Z</time>
      </trkpt>
      <trkpt lat="49.87894" lon="2.03274">
        <ele>106.3</ele>
        <time>2023-05-31T12:52:40Z</time>
      </trkpt>
      <trkpt lat="49.87894" lon="2.03274">
        <ele>106.3</ele>
        <time>2023-05-31T12:52:41Z</time>
      </trkpt>
      <trkpt lat="49.87894" lon="2.03274">
        <ele>106.3</ele>
        <time>2023-05-31T12:52:42Z</time>
      </trkpt>
      <trkpt lat="49.87894" lon="2.03274">
        <ele>106.3</ele>
        <time>2023-05-31T12:52:43Z</time>
      </trkpt>
      <trkpt lat="49.87894" lon="2.03274">
        <ele>106.3</ele>
        <time>2023-05-31T12:52:44Z</time>
      </trkpt>
      <trkpt lat="49.87894" lon="2.03274">
        <ele>106.3</ele>
        <time>2023-05-31T12:52:45Z</time>
      </trkpt>
      <trkpt lat="49.87894" lon="2.03274">
        <ele>106.3</ele>
        <time>2023-05-31T12:52:46Z</time>
      </trkpt>
      <trkpt lat="49.87894" lon="2.03274">
        <ele>106.3</ele>
        <time>2023-05-31T12:52:47Z</time>
      </trkpt>
      <trkpt lat="49.87894" lon="2.03274">
        <ele>106.3</ele>
        <time>2023-05-31T12:52:48Z</time>
      </trkpt>
      <trkpt lat="49.87894" lon="2.03274">
        <ele>106.3</ele>
        <time>2023-05-31T12:52:49Z</time>
      </trkpt>
      <trkpt lat="49.87894" lon="2.03274">
        <ele>106.3</ele>
        <time>2023-05-31T12:52:50Z</time>
      </trkpt>
      <trkpt lat="49.87894" lon="2.03274">
        <ele>106.3</ele>
        <time>2023-05-31T12:52:51Z</time>
      </trkpt>
      <trkpt lat="49.87894" lon="2.03274">
        <ele>106.3</ele>
        <time>2023-05-31T12:52:52Z</time>
      </trkpt>
      <trkpt lat="49.87894" lon="2.03274">
        <ele>106.3</ele>
        <time>2023-05-31T12:52:53Z</time>
      </trkpt>
      <trkpt lat="49.87894" lon="2.03274">
        <ele>106.3</ele>
        <time>2023-05-31T12:52:54Z</time>
      </trkpt>
      <trkpt lat="49.87894" lon="2.03274">
        <ele>106.3</ele>
        <time>2023-05-31T12:52:55Z</time>
      </trkpt>
      <trkpt lat="49.87894" lon="2.03274">
        <ele>106.3</ele>
        <time>2023-05-31T12:52:56Z</time>
      </trkpt>
      <trkpt lat="49.87894" lon="2.03274">
        <ele>106.3</ele>
        <time>2023-05-31T12:52:57Z</time>
      </trkpt>
      <trkpt lat="49.87894" lon="2.03274">
        <ele>106.3</ele>
        <time>2023-05-31T12:52:58Z</time>
      </trkpt>
      <trkpt lat="49.87894" lon="2.03274">
        <ele>106.3</ele>
        <time>2023-05-31T12:52:59Z</time>
      </trkpt>
      <trkpt lat="49.87894" lon="2.03274">
        <ele>106.3</ele>
        <time>2023-05-31T12:53:00Z</time>
      </trkpt>
      <trkpt lat="49.87894" lon="2.03274">
        <ele>106.3</ele>
        <time>2023-05-31T12:53:01Z</time>
      </trkpt>
      <trkpt lat="49.87894" lon="2.03274">
        <ele>106.3</ele>
        <time>2023-05-31T12:53:02Z</time>
      </trkpt>
      <trkpt lat="49.87894" lon="2.03274">
        <ele>106.3</ele>
        <time>2023-05-31T12:53:03Z</time>
      </trkpt>
      <trkpt lat="49.87894" lon="2.03274">
        <ele>106.3</ele>
        <time>2023-05-31T12:53:04Z</time>
      </trkpt>
      <trkpt lat="49.87894" lon="2.03274">
        <ele>106.3</ele>
        <time>2023-05-31T12:53:05Z</time>
      </trkpt>
      <trkpt lat="49.87894" lon="2.03274">
        <ele>106.3</ele>
        <time>2023-05-31T12:53:06Z</time>
      </trkpt>
      <trkpt lat="49.87894" lon="2.03274">
        <ele>106.3</ele>
        <time>2023-05-31T12:53:07Z</time>
      </trkpt>
      <trkpt lat="49.87894" lon="2.03274">
        <ele>106.3</ele>
        <time>2023-05-31T12:53:08Z</time>
      </trkpt>
      <trkpt lat="49.87894" lon="2.03274">
        <ele>106.3</ele>
        <time>2023-05-31T12:53:09Z</time>
      </trkpt>
      <trkpt lat="49.87894" lon="2.03274">
        <ele>106.3</ele>
        <time>2023-05-31T12:53:10Z</time>
      </trkpt>
      <trkpt lat="49.87894" lon="2.03274">
        <ele>106.3</ele>
        <time>2023-05-31T12:53:11Z</time>
      </trkpt>
      <trkpt lat="49.87894" lon="2.03274">
        <ele>106.3</ele>
        <time>2023-05-31T12:53:12Z</time>
      </trkpt>
      <trkpt lat="49.87894" lon="2.03274">
        <ele>106.3</ele>
        <time>2023-05-31T12:53:13Z</time>
      </trkpt>
      <trkpt lat="49.87894" lon="2.03274">
        <ele>106.3</ele>
        <time>2023-05-31T12:53:14Z</time>
      </trkpt>
      <trkpt lat="49.87894" lon="2.03274">
        <ele>106.3</ele>
        <time>2023-05-31T12:53:15Z</time>
      </trkpt>
      <trkpt lat="49.87894" lon="2.03274">
        <ele>106.3</ele>
        <time>2023-05-31T12:53:16Z</time>
      </trkpt>
      <trkpt lat="49.87894" lon="2.03274">
        <ele>106.3</ele>
        <time>2023-05-31T12:53:17Z</time>
      </trkpt>
      <trkpt lat="49.87894" lon="2.03274">
        <ele>106.3</ele>
        <time>2023-05-31T12:53:18Z</time>
      </trkpt>
      <trkpt lat="49.87894" lon="2.03274">
        <ele>106.3</ele>
        <time>2023-05-31T12:53:19Z</time>
      </trkpt>
      <trkpt lat="49.87894" lon="2.03274">
        <ele>106.3</ele>
        <time>2023-05-31T12:53:20Z</time>
      </trkpt>
      <trkpt lat="49.87894" lon="2.03274">
        <ele>106.3</ele>
        <time>2023-05-31T12:53:21Z</time>
      </trkpt>
      <trkpt lat="49.87894" lon="2.03274">
        <ele>106.3</ele>
        <time>2023-05-31T12:53:22Z</time>
      </trkpt>
      <trkpt lat="49.87894" lon="2.03274">
        <ele>106.3</ele>
        <time>2023-05-31T12:53:23Z</time>
      </trkpt>
      <trkpt lat="49.87894" lon="2.03274">
        <ele>106.3</ele>
        <time>2023-05-31T12:53:24Z</time>
      </trkpt>
      <trkpt lat="49.87894" lon="2.03274">
        <ele>106.3</ele>
        <time>2023-05-31T12:53:25Z</time>
      </trkpt>
      <trkpt lat="49.87894" lon="2.03274">
        <ele>106.3</ele>
        <time>2023-05-31T12:53:26Z</time>
      </trkpt>
      <trkpt lat="49.87894" lon="2.03274">
        <ele>106.3</ele>
        <time>2023-05-31T12:53:27Z</time>
      </trkpt>
      <trkpt lat="49.87894" lon="2.03274">
        <ele>106.3</ele>
        <time>2023-05-31T12:53:28Z</time>
      </trkpt>
      <trkpt lat="49.87894" lon="2.03274">
        <ele>106.3</ele>
        <time>2023-05-31T12:53:29Z</time>
      </trkpt>
      <trkpt lat="49.87894" lon="2.03274">
        <ele>106.3</ele>
        <time>2023-05-31T12:53:30Z</time>
      </trkpt>
      <trkpt lat="49.87894" lon="2.03274">
        <ele>106.3</ele>
        <time>2023-05-31T12:53:31Z</time>
      </trkpt>
      <trkpt lat="49.87894" lon="2.03274">
        <ele>106.3</ele>
        <time>2023-05-31T12:53:32Z</time>
      </trkpt>
      <trkpt lat="49.87894" lon="2.03274">
        <ele>106.3</ele>
        <time>2023-05-31T12:53:33Z</time>
      </trkpt>
      <trkpt lat="49.87894" lon="2.03274">
        <ele>106.3</ele>
        <time>2023-05-31T12:53:34Z</time>
      </trkpt>
      <trkpt lat="49.87894" lon="2.03274">
        <ele>106.3</ele>
        <time>2023-05-31T12:53:35Z</time>
      </trkpt>
      <trkpt lat="49.87894" lon="2.03274">
        <ele>106.3</ele>
        <time>2023-05-31T12:53:36Z</time>
      </trkpt>
      <trkpt lat="49.87894" lon="2.03274">
        <ele>106.3</ele>
        <time>2023-05-31T12:53:37Z</time>
      </trkpt>
      <trkpt lat="49.87894" lon="2.03274">
        <ele>106.3</ele>
        <time>2023-05-31T12:53:38Z</time>
      </trkpt>
      <trkpt lat="49.87894" lon="2.03274">
        <ele>106.3</ele>
        <time>2023-05-31T12:53:39Z</time>
      </trkpt>
      <trkpt lat="49.87894" lon="2.03274">
        <ele>106.3</ele>
        <time>2023-05-31T12:53:40Z</time>
      </trkpt>
      <trkpt lat="49.87894" lon="2.03274">
        <ele>106.3</ele>
        <time>2023-05-31T12:53:41Z</time>
      </trkpt>
      <trkpt lat="49.87894" lon="2.03274">
        <ele>106.3</ele>
        <time>2023-05-31T12:53:42Z</time>
      </trkpt>
      <trkpt lat="49.87894" lon="2.03274">
        <ele>106.3</ele>
        <time>2023-05-31T12:53:43Z</time>
      </trkpt>
      <trkpt lat="49.87894" lon="2.03274">
        <ele>106.3</ele>
        <time>2023-05-31T12:53:44Z</time>
      </trkpt>
      <trkpt lat="49.87894" lon="2.03274">
        <ele>106.3</ele>
        <time>2023-05-31T12:53:45Z</time>
      </trkpt>
      <trkpt lat="49.87894" lon="2.03274">
        <ele>106.3</ele>
        <time>2023-05-31T12:53:46Z</time>
      </trkpt>
      <trkpt lat="49.87894" lon="2.03274">
        <ele>106.3</ele>
        <time>2023-05-31T12:53:47Z</time>
      </trkpt>
      <trkpt lat="49.87894" lon="2.03274">
        <ele>106.3</ele>
        <time>2023-05-31T12:53:48Z</time>
      </trkpt>
      <trkpt lat="49.87894" lon="2.03274">
        <ele>106.3</ele>
        <time>2023-05-31T12:53:49Z</time>
      </trkpt>
      <trkpt lat="49.87894" lon="2.03274">
        <ele>106.3</ele>
        <time>2023-05-31T12:53:50Z</time>
      </trkpt>
      <trkpt lat="49.87894" lon="2.03274">
        <ele>106.3</ele>
        <time>2023-05-31T12:53:51Z</time>
      </trkpt>
      <trkpt lat="49.87894" lon="2.03274">
        <ele>106.3</ele>
        <time>2023-05-31T12:53:52Z</time>
      </trkpt>
      <trkpt lat="49.87894" lon="2.03274">
        <ele>106.3</ele>
        <time>2023-05-31T12:53:53Z</time>
      </trkpt>
      <trkpt lat="49.87894" lon="2.03274">
        <ele>106.3</ele>
        <time>2023-05-31T12:53:54Z</time>
      </trkpt>
      <trkpt lat="49.87894" lon="2.03274">
        <ele>106.3</ele>
        <time>2023-05-31T12:53:55Z</time>
      </trkpt>
      <trkpt lat="49.87894" lon="2.03274">
        <ele>106.3</ele>
        <time>2023-05-31T12:53:56Z</time>
      </trkpt>
      <trkpt lat="49.87894" lon="2.03274">
        <ele>106.3</ele>
        <time>2023-05-31T12:53:57Z</time>
      </trkpt>
      <trkpt lat="49.87894" lon="2.03274">
        <ele>106.3</ele>
        <time>2023-05-31T12:53:58Z</time>
      </trkpt>
      <trkpt lat="49.87894" lon="2.03274">
        <ele>106.3</ele>
        <time>2023-05-31T12:53:59Z</time>
      </trkpt>
      <trkpt lat="49.87894" lon="2.03274">
        <ele>106.3</ele>
        <time>2023-05-31T12:54:00Z</time>
      </trkpt>
      <trkpt lat="49.87894" lon="2.03274">
        <ele>106.3</ele>
        <time>2023-05-31T12:54:01Z</time>
      </trkpt>
      <trkpt lat="49.87894" lon="2.03274">
        <ele>106.3</ele>
        <time>2023-05-31T12:54:02Z</time>
      </trkpt>
      <trkpt lat="49.87894" lon="2.03274">
        <ele>106.3</ele>
        <time>2023-05-31T12:54:03Z</time>
      </trkpt>
      <trkpt lat="49.87894" lon="2.03274">
        <ele>106.3</ele>
        <time>2023-05-31T12:54:04Z</time>
      </trkpt>
      <trkpt lat="49.87894" lon="2.03274">
        <ele>106.3</ele>
        <time>2023-05-31T12:54:05Z</time>
      </trkpt>
      <trkpt lat="49.87894" lon="2.03274">
        <ele>106.3</ele>
        <time>2023-05-31T12:54:06Z</time>
      </trkpt>
      <trkpt lat="49.87894" lon="2.03274">
        <ele>106.3</ele>
        <time>2023-05-31T12:54:07Z</time>
      </trkpt>
      <trkpt lat="49.87894" lon="2.03274">
        <ele>106.3</ele>
        <time>2023-05-31T12:54:08Z</time>
      </trkpt>
      <trkpt lat="49.87894" lon="2.03274">
        <ele>106.3</ele>
        <time>2023-05-31T12:54:09Z</time>
      </trkpt>
      <trkpt lat="49.87894" lon="2.03274">
        <ele>106.3</ele>
        <time>2023-05-31T12:54:10Z</time>
      </trkpt>
      <trkpt lat="49.87894" lon="2.03274">
        <ele>106.3</ele>
        <time>2023-05-31T12:54:11Z</time>
      </trkpt>
      <trkpt lat="49.87894" lon="2.03274">
        <ele>106.3</ele>
        <time>2023-05-31T12:54:12Z</time>
      </trkpt>
      <trkpt lat="49.87894" lon="2.03274">
        <ele>106.3</ele>
        <time>2023-05-31T12:54:13Z</time>
      </trkpt>
      <trkpt lat="49.87894" lon="2.03274">
        <ele>106.3</ele>
        <time>2023-05-31T12:54:14Z</time>
      </trkpt>
      <trkpt lat="49.87894" lon="2.03274">
        <ele>106.3</ele>
        <time>2023-05-31T12:54:15Z</time>
      </trkpt>
      <trkpt lat="49.87894" lon="2.03274">
        <ele>106.3</ele>
        <time>2023-05-31T12:54:16Z</time>
      </trkpt>
      <trkpt lat="49.87894" lon="2.03274">
        <ele>106.3</ele>
        <time>2023-05-31T12:54:17Z</time>
      </trkpt>
      <trkpt lat="49.87894" lon="2.03274">
        <ele>106.3</ele>
        <time>2023-05-31T12:54:18Z</time>
      </trkpt>
      <trkpt lat="49.87894" lon="2.03274">
        <ele>106.3</ele>
        <time>2023-05-31T12:54:19Z</time>
      </trkpt>
      <trkpt lat="49.87894" lon="2.03274">
        <ele>106.3</ele>
        <time>2023-05-31T12:54:20Z</time>
      </trkpt>
      <trkpt lat="49.87894" lon="2.03274">
        <ele>106.3</ele>
        <time>2023-05-31T12:54:21Z</time>
      </trkpt>
      <trkpt lat="49.87894" lon="2.03274">
        <ele>106.3</ele>
        <time>2023-05-31T12:54:22Z</time>
      </trkpt>
      <trkpt lat="49.87894" lon="2.03274">
        <ele>106.3</ele>
        <time>2023-05-31T12:54:23Z</time>
      </trkpt>
      <trkpt lat="49.87894" lon="2.03274">
        <ele>106.3</ele>
        <time>2023-05-31T12:54:24Z</time>
      </trkpt>
      <trkpt lat="49.87894" lon="2.03274">
        <ele>106.3</ele>
        <time>2023-05-31T12:54:25Z</time>
      </trkpt>
      <trkpt lat="49.87894" lon="2.03274">
        <ele>106.3</ele>
        <time>2023-05-31T12:54:26Z</time>
      </trkpt>
      <trkpt lat="49.87894" lon="2.03274">
        <ele>106.3</ele>
        <time>2023-05-31T12:54:27Z</time>
      </trkpt>
      <trkpt lat="49.87894" lon="2.03274">
        <ele>106.3</ele>
        <time>2023-05-31T12:54:28Z</time>
      </trkpt>
      <trkpt lat="49.87894" lon="2.03274">
        <ele>106.3</ele>
        <time>2023-05-31T12:54:29Z</time>
      </trkpt>
      <trkpt lat="49.87894" lon="2.03274">
        <ele>106.3</ele>
        <time>2023-05-31T12:54:30Z</time>
      </trkpt>
      <trkpt lat="49.87894" lon="2.03274">
        <ele>106.3</ele>
        <time>2023-05-31T12:54:31Z</time>
      </trkpt>
      <trkpt lat="49.87894" lon="2.03274">
        <ele>106.3</ele>
        <time>2023-05-31T12:54:32Z</time>
      </trkpt>
      <trkpt lat="49.87894" lon="2.03274">
        <ele>106.3</ele>
        <time>2023-05-31T12:54:33Z</time>
      </trkpt>
      <trkpt lat="49.87894" lon="2.03274">
        <ele>106.3</ele>
        <time>2023-05-31T12:54:34Z</time>
      </trkpt>
      <trkpt lat="49.87894" lon="2.03274">
        <ele>106.3</ele>
        <time>2023-05-31T12:54:35Z</time>
      </trkpt>
      <trkpt lat="49.87894" lon="2.03274">
        <ele>106.3</ele>
        <time>2023-05-31T12:54:36Z</time>
      </trkpt>
      <trkpt lat="49.87894" lon="2.03274">
        <ele>106.3</ele>
        <time>2023-05-31T12:54:37Z</time>
      </trkpt>
      <trkpt lat="49.87894" lon="2.03274">
        <ele>106.3</ele>
        <time>2023-05-31T12:54:38Z</time>
      </trkpt>
      <trkpt lat="49.87894" lon="2.03274">
        <ele>106.3</ele>
        <time>2023-05-31T12:54:39Z</time>
      </trkpt>
      <trkpt lat="49.87894" lon="2.03274">
        <ele>106.3</ele>
        <time>2023-05-31T12:54:40Z</time>
      </trkpt>
      <trkpt lat="49.87894" lon="2.03274">
        <ele>106.3</ele>
        <time>2023-05-31T12:54:41Z</time>
      </trkpt>
      <trkpt lat="49.87894" lon="2.03274">
        <ele>106.3</ele>
        <time>2023-05-31T12:54:42Z</time>
      </trkpt>
      <trkpt lat="49.87894" lon="2.03274">
        <ele>106.3</ele>
        <time>2023-05-31T12:54:43Z</time>
      </trkpt>
      <trkpt lat="49.87894" lon="2.03274">
        <ele>106.3</ele>
        <time>2023-05-31T12:54:44Z</time>
      </trkpt>
      <trkpt lat="49.87894" lon="2.03274">
        <ele>106.3</ele>
        <time>2023-05-31T12:54:45Z</time>
      </trkpt>
      <trkpt lat="49.87894" lon="2.03274">
        <ele>106.3</ele>
        <time>2023-05-31T12:54:46Z</time>
      </trkpt>
      <trkpt lat="49.87894" lon="2.03274">
        <ele>106.3</ele>
        <time>2023-05-31T12:54:47Z</time>
      </trkpt>
      <trkpt lat="49.87894" lon="2.03274">
        <ele>106.3</ele>
        <time>2023-05-31T12:54:48Z</time>
      </trkpt>
      <trkpt lat="49.87894" lon="2.03274">
        <ele>106.3</ele>
        <time>2023-05-31T12:54:49Z</time>
      </trkpt>
      <trkpt lat="49.87894" lon="2.03274">
        <ele>106.3</ele>
        <time>2023-05-31T12:54:50Z</time>
      </trkpt>
      <trkpt lat="49.87894" lon="2.03274">
        <ele>106.3</ele>
        <time>2023-05-31T12:54:51Z</time>
      </trkpt>
      <trkpt lat="49.87894" lon="2.03274">
        <ele>106.3</ele>
        <time>2023-05-31T12:54:52Z</time>
      </trkpt>
      <trkpt lat="49.87894" lon="2.03274">
        <ele>106.3</ele>
        <time>2023-05-31T12:54:53Z</time>
      </trkpt>
      <trkpt lat="49.87894" lon="2.03274">
        <ele>106.3</ele>
        <time>2023-05-31T12:54:54Z</time>
      </trkpt>
      <trkpt lat="49.87894" lon="2.03274">
        <ele>106.3</ele>
        <time>2023-05-31T12:54:55Z</time>
      </trkpt>
      <trkpt lat="49.87894" lon="2.03274">
        <ele>106.3</ele>
        <time>2023-05-31T12:54:56Z</time>
      </trkpt>
      <trkpt lat="49.87894" lon="2.03274">
        <ele>106.3</ele>
        <time>2023-05-31T12:54:57Z</time>
      </trkpt>
      <trkpt lat="49.87894" lon="2.03274">
        <ele>106.3</ele>
        <time>2023-05-31T12:54:58Z</time>
      </trkpt>
      <trkpt lat="49.87894" lon="2.03274">
        <ele>106.3</ele>
        <time>2023-05-31T12:54:59Z</time>
      </trkpt>
      <trkpt lat="49.87894" lon="2.03274">
        <ele>106.3</ele>
        <time>2023-05-31T12:55:00Z</time>
      </trkpt>
      <trkpt lat="49.87894" lon="2.03274">
        <ele>106.3</ele>
        <time>2023-05-31T12:55:01Z</time>
      </trkpt>
      <trkpt lat="49.87894" lon="2.03274">
        <ele>106.3</ele>
        <time>2023-05-31T12:55:02Z</time>
      </trkpt>
      <trkpt lat="49.87894" lon="2.03274">
        <ele>106.3</ele>
        <time>2023-05-31T12:55:03Z</time>
      </trkpt>
      <trkpt lat="49.87894" lon="2.03274">
        <ele>106.3</ele>
        <time>2023-05-31T12:55:04Z</time>
      </trkpt>
      <trkpt lat="49.87894" lon="2.03274">
        <ele>106.3</ele>
        <time>2023-05-31T12:55:05Z</time>
      </trkpt>
      <trkpt lat="49.87894" lon="2.03274">
        <ele>106.3</ele>
        <time>2023-05-31T12:55:06Z</time>
      </trkpt>
      <trkpt lat="49.87894" lon="2.03274">
        <ele>106.3</ele>
        <time>2023-05-31T12:55:07Z</time>
      </trkpt>
      <trkpt lat="49.87894" lon="2.03274">
        <ele>106.3</ele>
        <time>2023-05-31T12:55:08Z</time>
      </trkpt>
      <trkpt lat="49.87894" lon="2.03274">
        <ele>106.3</ele>
        <time>2023-05-31T12:55:09Z</time>
      </trkpt>
      <trkpt lat="49.87894" lon="2.03274">
        <ele>106.3</ele>
        <time>2023-05-31T12:55:10Z</time>
      </trkpt>
      <trkpt lat="49.87894" lon="2.03274">
        <ele>106.3</ele>
        <time>2023-05-31T12:55:11Z</time>
      </trkpt>
      <trkpt lat="49.87894" lon="2.03274">
        <ele>106.3</ele>
        <time>2023-05-31T12:55:12Z</time>
      </trkpt>
      <trkpt lat="49.87894" lon="2.03274">
        <ele>106.3</ele>
        <time>2023-05-31T12:55:13Z</time>
      </trkpt>
      <trkpt lat="49.87894" lon="2.03274">
        <ele>106.3</ele>
        <time>2023-05-31T12:55:14Z</time>
      </trkpt>
      <trkpt lat="49.87894" lon="2.03274">
        <ele>106.3</ele>
        <time>2023-05-31T12:55:15Z</time>
      </trkpt>
      <trkpt lat="49.87894" lon="2.03274">
        <ele>106.3</ele>
        <time>2023-05-31T12:55:16Z</time>
      </trkpt>
      <trkpt lat="49.87894" lon="2.03274">
        <ele>106.3</ele>
        <time>2023-05-31T12:55:17Z</time>
      </trkpt>
      <trkpt lat="49.87894" lon="2.03274">
        <ele>106.3</ele>
        <time>2023-05-31T12:55:18Z</time>
      </trkpt>
      <trkpt lat="49.87894" lon="2.03274">
        <ele>106.3</ele>
        <time>2023-05-31T12:55:19Z</time>
      </trkpt>
      <trkpt lat="49.87894" lon="2.03274">
        <ele>106.3</ele>
        <time>2023-05-31T12:55:20Z</time>
      </trkpt>
      <trkpt lat="49.87894" lon="2.03274">
        <ele>106.3</ele>
        <time>2023-05-31T12:55:21Z</time>
      </trkpt>
      <trkpt lat="49.87894" lon="2.03274">
        <ele>106.3</ele>
        <time>2023-05-31T12:55:22Z</time>
      </trkpt>
      <trkpt lat="49.87894" lon="2.03274">
        <ele>106.3</ele>
        <time>2023-05-31T12:55:23Z</time>
      </trkpt>
      <trkpt lat="49.87894" lon="2.03274">
        <ele>106.3</ele>
        <time>2023-05-31T12:55:24Z</time>
      </trkpt>
      <trkpt lat="49.87894" lon="2.03274">
        <ele>106.3</ele>
        <time>2023-05-31T12:55:25Z</time>
      </trkpt>
      <trkpt lat="49.87894" lon="2.03274">
        <ele>106.3</ele>
        <time>2023-05-31T12:55:26Z</time>
      </trkpt>
      <trkpt lat="49.87894" lon="2.03274">
        <ele>106.3</ele>
        <time>2023-05-31T12:55:27Z</time>
      </trkpt>
      <trkpt lat="49.87894" lon="2.03274">
        <ele>106.3</ele>
        <time>2023-05-31T12:55:28Z</time>
      </trkpt>
      <trkpt lat="49.87894" lon="2.03274">
        <ele>106.3</ele>
        <time>2023-05-31T12:55:29Z</time>
      </trkpt>
      <trkpt lat="49.87894" lon="2.03274">
        <ele>106.3</ele>
        <time>2023-05-31T12:55:30Z</time>
      </trkpt>
      <trkpt lat="49.87894" lon="2.03274">
        <ele>106.3</ele>
        <time>2023-05-31T12:55:31Z</time>
      </trkpt>
      <trkpt lat="49.87894" lon="2.03274">
        <ele>106.3</ele>
        <time>2023-05-31T12:55:32Z</time>
      </trkpt>
      <trkpt lat="49.87894" lon="2.03274">
        <ele>106.3</ele>
        <time>2023-05-31T12:55:33Z</time>
      </trkpt>
      <trkpt lat="49.87894" lon="2.03274">
        <ele>106.3</ele>
        <time>2023-05-31T12:55:34Z</time>
      </trkpt>
      <trkpt lat="49.87894" lon="2.03274">
        <ele>106.3</ele>
        <time>2023-05-31T12:55:35Z</time>
      </trkpt>
      <trkpt lat="49.87894" lon="2.03274">
        <ele>106.3</ele>
        <time>2023-05-31T12:55:36Z</time>
      </trkpt>
      <trkpt lat="49.87894" lon="2.03274">
        <ele>106.3</ele>
        <time>2023-05-31T12:55:37Z</time>
      </trkpt>
      <trkpt lat="49.87894" lon="2.03274">
        <ele>106.3</ele>
        <time>2023-05-31T12:55:38Z</time>
      </trkpt>
      <trkpt lat="49.87894" lon="2.03274">
        <ele>106.3</ele>
        <time>2023-05-31T12:55:39Z</time>
      </trkpt>
      <trkpt lat="49.87894" lon="2.03274">
        <ele>106.3</ele>
        <time>2023-05-31T12:55:40Z</time>
      </trkpt>
      <trkpt lat="49.87894" lon="2.03274">
        <ele>106.3</ele>
        <time>2023-05-31T12:55:41Z</time>
      </trkpt>
      <trkpt lat="49.87894" lon="2.03274">
        <ele>106.3</ele>
        <time>2023-05-31T12:55:42Z</time>
      </trkpt>
      <trkpt lat="49.87894" lon="2.03274">
        <ele>106.3</ele>
        <time>2023-05-31T12:55:43Z</time>
      </trkpt>
      <trkpt lat="49.87894" lon="2.03274">
        <ele>106.3</ele>
        <time>2023-05-31T12:55:44Z</time>
      </trkpt>
      <trkpt lat="49.87894" lon="2.03274">
        <ele>106.3</ele>
        <time>2023-05-31T12:55:45Z</time>
      </trkpt>
      <trkpt lat="49.87894" lon="2.03274">
        <ele>106.3</ele>
        <time>2023-05-31T12:55:46Z</time>
      </trkpt>
      <trkpt lat="49.87894" lon="2.03274">
        <ele>106.3</ele>
        <time>2023-05-31T12:55:47Z</time>
      </trkpt>
      <trkpt lat="49.87894" lon="2.03274">
        <ele>106.3</ele>
        <time>2023-05-31T12:55:48Z</time>
      </trkpt>
      <trkpt lat="49.87894" lon="2.03274">
        <ele>106.3</ele>
        <time>2023-05-31T12:55:49Z</time>
      </trkpt>
      <trkpt lat="49.87894" lon="2.03274">
        <ele>106.3</ele>
        <time>2023-05-31T12:55:50Z</time>
      </trkpt>
      <trkpt lat="49.87894" lon="2.03274">
        <ele>106.3</ele>
        <time>2023-05-31T12:55:51Z</time>
      </trkpt>
      <trkpt lat="49.87894" lon="2.03274">
        <ele>106.3</ele>
        <time>2023-05-31T12:55:52Z</time>
      </trkpt>
      <trkpt lat="49.87894" lon="2.03274">
        <ele>106.3</ele>
        <time>2023-05-31T12:55:53Z</time>
      </trkpt>
      <trkpt lat="49.87894" lon="2.03274">
        <ele>106.3</ele>
        <time>2023-05-31T12:55:54Z</time>
      </trkpt>
      <trkpt lat="49.87894" lon="2.03274">
        <ele>106.3</ele>
        <time>2023-05-31T12:55:55Z</time>
      </trkpt>
      <trkpt lat="49.87894" lon="2.03274">
        <ele>106.3</ele>
        <time>2023-05-31T12:55:56Z</time>
      </trkpt>
      <trkpt lat="49.87894" lon="2.03274">
        <ele>106.3</ele>
        <time>2023-05-31T12:55:57Z</time>
      </trkpt>
      <trkpt lat="49.87894" lon="2.03274">
        <ele>106.3</ele>
        <time>2023-05-31T12:55:58Z</time>
      </trkpt>
      <trkpt lat="49.87894" lon="2.03274">
        <ele>106.3</ele>
        <time>2023-05-31T12:55:59Z</time>
      </trkpt>
      <trkpt lat="49.87894" lon="2.03274">
        <ele>106.3</ele>
        <time>2023-05-31T12:56:00Z</time>
      </trkpt>
      <trkpt lat="49.87894" lon="2.03274">
        <ele>106.3</ele>
        <time>2023-05-31T12:56:01Z</time>
      </trkpt>
      <trkpt lat="49.87894" lon="2.03274">
        <ele>106.3</ele>
        <time>2023-05-31T12:56:02Z</time>
      </trkpt>
      <trkpt lat="49.87894" lon="2.03274">
        <ele>106.3</ele>
        <time>2023-05-31T12:56:03Z</time>
      </trkpt>
      <trkpt lat="49.87894" lon="2.03274">
        <ele>106.3</ele>
        <time>2023-05-31T12:56:04Z</time>
      </trkpt>
      <trkpt lat="49.87894" lon="2.03274">
        <ele>106.3</ele>
        <time>2023-05-31T12:56:05Z</time>
      </trkpt>
      <trkpt lat="49.87894" lon="2.03274">
        <ele>106.3</ele>
        <time>2023-05-31T12:56:06Z</time>
      </trkpt>
      <trkpt lat="49.87894" lon="2.03274">
        <ele>106.3</ele>
        <time>2023-05-31T12:56:07Z</time>
      </trkpt>
      <trkpt lat="49.87894" lon="2.03274">
        <ele>106.3</ele>
        <time>2023-05-31T12:56:08Z</time>
      </trkpt>
      <trkpt lat="49.87894" lon="2.03274">
        <ele>106.3</ele>
        <time>2023-05-31T12:56:09Z</time>
      </trkpt>
      <trkpt lat="49.87894" lon="2.03274">
        <ele>106.3</ele>
        <time>2023-05-31T12:56:10Z</time>
      </trkpt>
      <trkpt lat="49.87894" lon="2.03274">
        <ele>106.3</ele>
        <time>2023-05-31T12:56:11Z</time>
      </trkpt>
      <trkpt lat="49.87894" lon="2.03274">
        <ele>106.3</ele>
        <time>2023-05-31T12:56:12Z</time>
      </trkpt>
      <trkpt lat="49.87894" lon="2.03274">
        <ele>106.3</ele>
        <time>2023-05-31T12:56:13Z</time>
      </trkpt>
      <trkpt lat="49.87894" lon="2.03274">
        <ele>106.3</ele>
        <time>2023-05-31T12:56:14Z</time>
      </trkpt>
      <trkpt lat="49.87894" lon="2.03274">
        <ele>106.3</ele>
        <time>2023-05-31T12:56:15Z</time>
      </trkpt>
      <trkpt lat="49.87894" lon="2.03274">
        <ele>106.3</ele>
        <time>2023-05-31T12:56:16Z</time>
      </trkpt>
      <trkpt lat="49.87894" lon="2.03274">
        <ele>106.3</ele>
        <time>2023-05-31T12:56:17Z</time>
      </trkpt>
      <trkpt lat="49.87894" lon="2.03274">
        <ele>106.3</ele>
        <time>2023-05-31T12:56:18Z</time>
      </trkpt>
      <trkpt lat="49.87894" lon="2.03274">
        <ele>106.3</ele>
        <time>2023-05-31T12:56:19Z</time>
      </trkpt>
      <trkpt lat="49.87894" lon="2.03274">
        <ele>106.3</ele>
        <time>2023-05-31T12:56:20Z</time>
      </trkpt>
      <trkpt lat="49.87894" lon="2.03274">
        <ele>106.3</ele>
        <time>2023-05-31T12:56:21Z</time>
      </trkpt>
      <trkpt lat="49.87894" lon="2.03274">
        <ele>106.3</ele>
        <time>2023-05-31T12:56:22Z</time>
      </trkpt>
      <trkpt lat="49.87894" lon="2.03274">
        <ele>106.3</ele>
        <time>2023-05-31T12:56:23Z</time>
      </trkpt>
      <trkpt lat="49.87894" lon="2.03274">
        <ele>106.3</ele>
        <time>2023-05-31T12:56:24Z</time>
      </trkpt>
      <trkpt lat="49.87894" lon="2.03274">
        <ele>106.3</ele>
        <time>2023-05-31T12:56:25Z</time>
      </trkpt>
      <trkpt lat="49.87894" lon="2.03274">
        <ele>106.3</ele>
        <time>2023-05-31T12:56:26Z</time>
      </trkpt>
      <trkpt lat="49.87894" lon="2.03274">
        <ele>106.3</ele>
        <time>2023-05-31T12:56:27Z</time>
      </trkpt>
      <trkpt lat="49.87894" lon="2.03274">
        <ele>106.3</ele>
        <time>2023-05-31T12:56:28Z</time>
      </trkpt>
      <trkpt lat="49.87894" lon="2.03274">
        <ele>106.3</ele>
        <time>2023-05-31T12:56:29Z</time>
      </trkpt>
      <trkpt lat="49.87894" lon="2.03274">
        <ele>106.3</ele>
        <time>2023-05-31T12:56:30Z</time>
      </trkpt>
      <trkpt lat="49.87894" lon="2.03274">
        <ele>106.3</ele>
        <time>2023-05-31T12:56:31Z</time>
      </trkpt>
      <trkpt lat="49.87894" lon="2.03274">
        <ele>106.3</ele>
        <time>2023-05-31T12:56:32Z</time>
      </trkpt>
      <trkpt lat="49.87894" lon="2.03274">
        <ele>106.3</ele>
        <time>2023-05-31T12:56:33Z</time>
      </trkpt>
      <trkpt lat="49.87894" lon="2.03274">
        <ele>106.3</ele>
        <time>2023-05-31T12:56:34Z</time>
      </trkpt>
      <trkpt lat="49.87894" lon="2.03274">
        <ele>106.3</ele>
        <time>2023-05-31T12:56:35Z</time>
      </trkpt>
      <trkpt lat="49.87894" lon="2.03274">
        <ele>106.3</ele>
        <time>2023-05-31T12:56:36Z</time>
      </trkpt>
      <trkpt lat="49.87894" lon="2.03274">
        <ele>106.3</ele>
        <time>2023-05-31T12:56:37Z</time>
      </trkpt>
      <trkpt lat="49.87894" lon="2.03274">
        <ele>106.3</ele>
        <time>2023-05-31T12:56:38Z</time>
      </trkpt>
      <trkpt lat="49.87894" lon="2.03274">
        <ele>106.3</ele>
        <time>2023-05-31T12:56:39Z</time>
      </trkpt>
      <trkpt lat="49.87894" lon="2.03274">
        <ele>106.3</ele>
        <time>2023-05-31T12:56:40Z</time>
      </trkpt>
      <trkpt lat="49.87894" lon="2.03274">
        <ele>106.3</ele>
        <time>2023-05-31T12:56:41Z</time>
      </trkpt>
      <trkpt lat="49.87894" lon="2.03274">
        <ele>106.3</ele>
        <time>2023-05-31T12:56:42Z</time>
      </trkpt>
      <trkpt lat="49.87894" lon="2.03274">
        <ele>106.3</ele>
        <time>2023-05-31T12:56:43Z</time>
      </trkpt>
      <trkpt lat="49.87894" lon="2.03274">
        <ele>106.3</ele>
        <time>2023-05-31T12:56:44Z</time>
      </trkpt>
      <trkpt lat="49.87894" lon="2.03274">
        <ele>106.3</ele>
        <time>2023-05-31T12:56:45Z</time>
      </trkpt>
      <trkpt lat="49.87894" lon="2.03274">
        <ele>106.3</ele>
        <time>2023-05-31T12:56:46Z</time>
      </trkpt>
      <trkpt lat="49.87894" lon="2.03274">
        <ele>106.3</ele>
        <time>2023-05-31T12:56:47Z</time>
      </trkpt>
      <trkpt lat="49.87895" lon="2.03276">
        <ele>106.1</ele>
        <time>2023-05-31T12:56:48Z</time>
      </trkpt>
      <trkpt lat="49.87896" lon="2.03277">
        <ele>105.9</ele>
        <time>2023-05-31T12:56:49Z</time>
      </trkpt>
      <trkpt lat="49.87897" lon="2.03277">
        <ele>105.9</ele>
        <time>2023-05-31T12:56:50Z</time>
      </trkpt>
      <trkpt lat="49.87897" lon="2.03277">
        <ele>105.9</ele>
        <time>2023-05-31T12:56:51Z</time>
      </trkpt>
      <trkpt lat="49.87896" lon="2.03277">
        <ele>105.8</ele>
        <time>2023-05-31T12:56:52Z</time>
      </trkpt>
      <trkpt lat="49.87896" lon="2.03277">
        <ele>105.7</ele>
        <time>2023-05-31T12:56:53Z</time>
      </trkpt>
      <trkpt lat="49.87896" lon="2.03276">
        <ele>105.7</ele>
        <time>2023-05-31T12:56:54Z</time>
      </trkpt>
      <trkpt lat="49.87897" lon="2.03278">
        <ele>105.5</ele>
        <time>2023-05-31T12:56:55Z</time>
      </trkpt>
      <trkpt lat="49.87897" lon="2.03278">
        <ele>105.4</ele>
        <time>2023-05-31T12:56:56Z</time>
      </trkpt>
      <trkpt lat="49.87898" lon="2.03276">
        <ele>105.2</ele>
        <time>2023-05-31T12:56:58Z</time>
      </trkpt>
      <trkpt lat="49.87899" lon="2.03275">
        <ele>105.1</ele>
        <time>2023-05-31T12:56:59Z</time>
      </trkpt>
      <trkpt lat="49.87899" lon="2.03274">
        <ele>104.9</ele>
        <time>2023-05-31T12:57:01Z</time>
      </trkpt>
      <trkpt lat="49.879" lon="2.03273">
        <ele>104.8</ele>
        <time>2023-05-31T12:57:02Z</time>
      </trkpt>
      <trkpt lat="49.87901" lon="2.03272">
        <ele>104.7</ele>
        <time>2023-05-31T12:57:03Z</time>
      </trkpt>
      <trkpt lat="49.87902" lon="2.03271">
        <ele>104.5</ele>
        <time>2023-05-31T12:57:04Z</time>
      </trkpt>
      <trkpt lat="49.87904" lon="2.0327">
        <ele>104.4</ele>
        <time>2023-05-31T12:57:05Z</time>
      </trkpt>
      <trkpt lat="49.87905" lon="2.0327">
        <ele>104.2</ele>
        <time>2023-05-31T12:57:07Z</time>
      </trkpt>
      <trkpt lat="49.87906" lon="2.03269">
        <ele>104.1</ele>
        <time>2023-05-31T12:57:08Z</time>
      </trkpt>
      <trkpt lat="49.87906" lon="2.03268">
        <ele>103.9</ele>
        <time>2023-05-31T12:57:09Z</time>
      </trkpt>
      <trkpt lat="49.87908" lon="2.03266">
        <ele>103.7</ele>
        <time>2023-05-31T12:57:10Z</time>
      </trkpt>
      <trkpt lat="49.87909" lon="2.03265">
        <ele>103.5</ele>
        <time>2023-05-31T12:57:11Z</time>
      </trkpt>
      <trkpt lat="49.8791" lon="2.03262">
        <ele>103.3</ele>
        <time>2023-05-31T12:57:12Z</time>
      </trkpt>
      <trkpt lat="49.87912" lon="2.03259">
        <ele>102.9</ele>
        <time>2023-05-31T12:57:13Z</time>
      </trkpt>
      <trkpt lat="49.87912" lon="2.03257">
        <ele>102.8</ele>
        <time>2023-05-31T12:57:14Z</time>
      </trkpt>
      <trkpt lat="49.87913" lon="2.03255">
        <ele>102.5</ele>
        <time>2023-05-31T12:57:16Z</time>
      </trkpt>
      <trkpt lat="49.87914" lon="2.03252">
        <ele>102.3</ele>
        <time>2023-05-31T12:57:17Z</time>
      </trkpt>
      <trkpt lat="49.87914" lon="2.0325">
        <ele>102.1</ele>
        <time>2023-05-31T12:57:18Z</time>
      </trkpt>
      <trkpt lat="49.87915" lon="2.03248">
        <ele>101.9</ele>
        <time>2023-05-31T12:57:19Z</time>
      </trkpt>
      <trkpt lat="49.87916" lon="2.03244">
        <ele>101.6</ele>
        <time>2023-05-31T12:57:20Z</time>
      </trkpt>
      <trkpt lat="49.87917" lon="2.03243">
        <ele>101.5</ele>
        <time>2023-05-31T12:57:21Z</time>
      </trkpt>
      <trkpt lat="49.87917" lon="2.03241">
        <ele>101.3</ele>
        <time>2023-05-31T12:57:23Z</time>
      </trkpt>
      <trkpt lat="49.87918" lon="2.03238">
        <ele>101.1</ele>
        <time>2023-05-31T12:57:24Z</time>
      </trkpt>
      <trkpt lat="49.87918" lon="2.03236">
        <ele>101</ele>
        <time>2023-05-31T12:57:25Z</time>
      </trkpt>
      <trkpt lat="49.87919" lon="2.03234">
        <ele>100.8</ele>
        <time>2023-05-31T12:57:26Z</time>
      </trkpt>
      <trkpt lat="49.87919" lon="2.03231">
        <ele>100.6</ele>
        <time>2023-05-31T12:57:28Z</time>
      </trkpt>
      <trkpt lat="49.8792" lon="2.0323">
        <ele>100.5</ele>
        <time>2023-05-31T12:57:29Z</time>
      </trkpt>
      <trkpt lat="49.8792" lon="2.03229">
        <ele>100.4</ele>
        <time>2023-05-31T12:57:30Z</time>
      </trkpt>
      <trkpt lat="49.8792" lon="2.03228">
        <ele>100.4</ele>
        <time>2023-05-31T12:57:31Z</time>
      </trkpt>
      <trkpt lat="49.8792" lon="2.03226">
        <ele>100.2</ele>
        <time>2023-05-31T12:57:32Z</time>
      </trkpt>
      <trkpt lat="49.87921" lon="2.03225">
        <ele>100.1</ele>
        <time>2023-05-31T12:57:33Z</time>
      </trkpt>
      <trkpt lat="49.87921" lon="2.03223">
        <ele>100</ele>
        <time>2023-05-31T12:57:34Z</time>
      </trkpt>
      <trkpt lat="49.87922" lon="2.03221">
        <ele>99.8</ele>
        <time>2023-05-31T12:57:35Z</time>
      </trkpt>
      <trkpt lat="49.87923" lon="2.0322">
        <ele>99.7</ele>
        <time>2023-05-31T12:57:36Z</time>
      </trkpt>
      <trkpt lat="49.87923" lon="2.03218">
        <ele>99.6</ele>
        <time>2023-05-31T12:57:37Z</time>
      </trkpt>
      <trkpt lat="49.87925" lon="2.03215">
        <ele>99.4</ele>
        <time>2023-05-31T12:57:38Z</time>
      </trkpt>
      <trkpt lat="49.87925" lon="2.03214">
        <ele>99.3</ele>
        <time>2023-05-31T12:57:40Z</time>
      </trkpt>
      <trkpt lat="49.87926" lon="2.03213">
        <ele>99.2</ele>
        <time>2023-05-31T12:57:41Z</time>
      </trkpt>
      <trkpt lat="49.87927" lon="2.03211">
        <ele>98.9</ele>
        <time>2023-05-31T12:57:42Z</time>
      </trkpt>
      <trkpt lat="49.87928" lon="2.0321">
        <ele>98.8</ele>
        <time>2023-05-31T12:57:43Z</time>
      </trkpt>
      <trkpt lat="49.87929" lon="2.03209">
        <ele>98.7</ele>
        <time>2023-05-31T12:57:44Z</time>
      </trkpt>
      <trkpt lat="49.8793" lon="2.03206">
        <ele>98.4</ele>
        <time>2023-05-31T12:57:45Z</time>
      </trkpt>
      <trkpt lat="49.87931" lon="2.03204">
        <ele>98.3</ele>
        <time>2023-05-31T12:57:47Z</time>
      </trkpt>
      <trkpt lat="49.87932" lon="2.03203">
        <ele>98.2</ele>
        <time>2023-05-31T12:57:48Z</time>
      </trkpt>
      <trkpt lat="49.87933" lon="2.03202">
        <ele>98.1</ele>
        <time>2023-05-31T12:57:49Z</time>
      </trkpt>
      <trkpt lat="49.87933" lon="2.03201">
        <ele>98</ele>
        <time>2023-05-31T12:57:50Z</time>
      </trkpt>
      <trkpt lat="49.87934" lon="2.03199">
        <ele>97.8</ele>
        <time>2023-05-31T12:57:51Z</time>
      </trkpt>
      <trkpt lat="49.87935" lon="2.03197">
        <ele>97.7</ele>
        <time>2023-05-31T12:57:52Z</time>
      </trkpt>
      <trkpt lat="49.87936" lon="2.03195">
        <ele>97.5</ele>
        <time>2023-05-31T12:57:53Z</time>
      </trkpt>
      <trkpt lat="49.87937" lon="2.03193">
        <ele>97.3</ele>
        <time>2023-05-31T12:57:54Z</time>
      </trkpt>
      <trkpt lat="49.87937" lon="2.03191">
        <ele>97.2</ele>
        <time>2023-05-31T12:57:55Z</time>
      </trkpt>
      <trkpt lat="49.87938" lon="2.03189">
        <ele>97</ele>
        <time>2023-05-31T12:57:56Z</time>
      </trkpt>
      <trkpt lat="49.87939" lon="2.03186">
        <ele>96.8</ele>
        <time>2023-05-31T12:57:58Z</time>
      </trkpt>
      <trkpt lat="49.8794" lon="2.03185">
        <ele>96.7</ele>
        <time>2023-05-31T12:57:59Z</time>
      </trkpt>
      <trkpt lat="49.8794" lon="2.03184">
        <ele>96.6</ele>
        <time>2023-05-31T12:58:00Z</time>
      </trkpt>
      <trkpt lat="49.87941" lon="2.03182">
        <ele>96.5</ele>
        <time>2023-05-31T12:58:01Z</time>
      </trkpt>
      <trkpt lat="49.87941" lon="2.0318">
        <ele>96.3</ele>
        <time>2023-05-31T12:58:02Z</time>
      </trkpt>
      <trkpt lat="49.87942" lon="2.03178">
        <ele>96.2</ele>
        <time>2023-05-31T12:58:03Z</time>
      </trkpt>
      <trkpt lat="49.87943" lon="2.03176">
        <ele>96</ele>
        <time>2023-05-31T12:58:05Z</time>
      </trkpt>
      <trkpt lat="49.87944" lon="2.03175">
        <ele>95.9</ele>
        <time>2023-05-31T12:58:06Z</time>
      </trkpt>
      <trkpt lat="49.87943" lon="2.03173">
        <ele>95.8</ele>
        <time>2023-05-31T12:58:07Z</time>
      </trkpt>
      <trkpt lat="49.87943" lon="2.03172">
        <ele>95.7</ele>
        <time>2023-05-31T12:58:08Z</time>
      </trkpt>
      <trkpt lat="49.87944" lon="2.03169">
        <ele>95.5</ele>
        <time>2023-05-31T12:58:09Z</time>
      </trkpt>
      <trkpt lat="49.87945" lon="2.03168">
        <ele>95.4</ele>
        <time>2023-05-31T12:58:10Z</time>
      </trkpt>
      <trkpt lat="49.87945" lon="2.03167">
        <ele>95.3</ele>
        <time>2023-05-31T12:58:11Z</time>
      </trkpt>
      <trkpt lat="49.87946" lon="2.03165">
        <ele>95.2</ele>
        <time>2023-05-31T12:58:12Z</time>
      </trkpt>
      <trkpt lat="49.87946" lon="2.03164">
        <ele>95</ele>
        <time>2023-05-31T12:58:13Z</time>
      </trkpt>
      <trkpt lat="49.87947" lon="2.03163">
        <ele>94.9</ele>
        <time>2023-05-31T12:58:14Z</time>
      </trkpt>
      <trkpt lat="49.87947" lon="2.03162">
        <ele>94.9</ele>
        <time>2023-05-31T12:58:16Z</time>
      </trkpt>
      <trkpt lat="49.87947" lon="2.0316">
        <ele>94.8</ele>
        <time>2023-05-31T12:58:17Z</time>
      </trkpt>
      <trkpt lat="49.87947" lon="2.03159">
        <ele>94.7</ele>
        <time>2023-05-31T12:58:18Z</time>
      </trkpt>
      <trkpt lat="49.87946" lon="2.03159">
        <ele>94.6</ele>
        <time>2023-05-31T12:58:19Z</time>
      </trkpt>
      <trkpt lat="49.87946" lon="2.03158">
        <ele>94.5</ele>
        <time>2023-05-31T12:58:20Z</time>
      </trkpt>
      <trkpt lat="49.87946" lon="2.03156">
        <ele>94.4</ele>
        <time>2023-05-31T12:58:22Z</time>
      </trkpt>
      <trkpt lat="49.87946" lon="2.03154">
        <ele>94.2</ele>
        <time>2023-05-31T12:58:23Z</time>
      </trkpt>
      <trkpt lat="49.87947" lon="2.03153">
        <ele>94.1</ele>
        <time>2023-05-31T12:58:24Z</time>
      </trkpt>
      <trkpt lat="49.87947" lon="2.0315">
        <ele>93.9</ele>
        <time>2023-05-31T12:58:25Z</time>
      </trkpt>
      <trkpt lat="49.87948" lon="2.03148">
        <ele>93.8</ele>
        <time>2023-05-31T12:58:26Z</time>
      </trkpt>
      <trkpt lat="49.87948" lon="2.03147">
        <ele>93.7</ele>
        <time>2023-05-31T12:58:27Z</time>
      </trkpt>
      <trkpt lat="49.87949" lon="2.03144">
        <ele>93.5</ele>
        <time>2023-05-31T12:58:28Z</time>
      </trkpt>
      <trkpt lat="49.87949" lon="2.03143">
        <ele>93.3</ele>
        <time>2023-05-31T12:58:29Z</time>
      </trkpt>
      <trkpt lat="49.8795" lon="2.0314">
        <ele>93.2</ele>
        <time>2023-05-31T12:58:31Z</time>
      </trkpt>
      <trkpt lat="49.87951" lon="2.03139">
        <ele>93</ele>
        <time>2023-05-31T12:58:32Z</time>
      </trkpt>
      <trkpt lat="49.87951" lon="2.03137">
        <ele>92.9</ele>
        <time>2023-05-31T12:58:33Z</time>
      </trkpt>
      <trkpt lat="49.87951" lon="2.03135">
        <ele>92.8</ele>
        <time>2023-05-31T12:58:34Z</time>
      </trkpt>
      <trkpt lat="49.87952" lon="2.03134">
        <ele>92.7</ele>
        <time>2023-05-31T12:58:35Z</time>
      </trkpt>
      <trkpt lat="49.87952" lon="2.03132">
        <ele>92.6</ele>
        <time>2023-05-31T12:58:36Z</time>
      </trkpt>
      <trkpt lat="49.87953" lon="2.03128">
        <ele>92.4</ele>
        <time>2023-05-31T12:58:38Z</time>
      </trkpt>
      <trkpt lat="49.87954" lon="2.03127">
        <ele>92.3</ele>
        <time>2023-05-31T12:58:40Z</time>
      </trkpt>
      <trkpt lat="49.87954" lon="2.03126">
        <ele>92.2</ele>
        <time>2023-05-31T12:58:41Z</time>
      </trkpt>
      <trkpt lat="49.87955" lon="2.03123">
        <ele>92</ele>
        <time>2023-05-31T12:58:42Z</time>
      </trkpt>
      <trkpt lat="49.87956" lon="2.03122">
        <ele>91.9</ele>
        <time>2023-05-31T12:58:43Z</time>
      </trkpt>
      <trkpt lat="49.87956" lon="2.03121">
        <ele>91.8</ele>
        <time>2023-05-31T12:58:44Z</time>
      </trkpt>
      <trkpt lat="49.87957" lon="2.03119">
        <ele>91.7</ele>
        <time>2023-05-31T12:58:46Z</time>
      </trkpt>
      <trkpt lat="49.87957" lon="2.03117">
        <ele>91.6</ele>
        <time>2023-05-31T12:58:47Z</time>
      </trkpt>
      <trkpt lat="49.87959" lon="2.03114">
        <ele>91.4</ele>
        <time>2023-05-31T12:58:48Z</time>
      </trkpt>
      <trkpt lat="49.87959" lon="2.03113">
        <ele>91.2</ele>
        <time>2023-05-31T12:58:49Z</time>
      </trkpt>
      <trkpt lat="49.8796" lon="2.03111">
        <ele>91.1</ele>
        <time>2023-05-31T12:58:50Z</time>
      </trkpt>
      <trkpt lat="49.87961" lon="2.03109">
        <ele>90.9</ele>
        <time>2023-05-31T12:58:51Z</time>
      </trkpt>
      <trkpt lat="49.87962" lon="2.03107">
        <ele>90.8</ele>
        <time>2023-05-31T12:58:52Z</time>
      </trkpt>
      <trkpt lat="49.87963" lon="2.03105">
        <ele>90.7</ele>
        <time>2023-05-31T12:58:54Z</time>
      </trkpt>
      <trkpt lat="49.87964" lon="2.03103">
        <ele>90.5</ele>
        <time>2023-05-31T12:58:55Z</time>
      </trkpt>
      <trkpt lat="49.87965" lon="2.03101">
        <ele>90.3</ele>
        <time>2023-05-31T12:58:56Z</time>
      </trkpt>
      <trkpt lat="49.87966" lon="2.03099">
        <ele>90.2</ele>
        <time>2023-05-31T12:58:57Z</time>
      </trkpt>
      <trkpt lat="49.87966" lon="2.03097">
        <ele>90</ele>
        <time>2023-05-31T12:58:58Z</time>
      </trkpt>
      <trkpt lat="49.87968" lon="2.03094">
        <ele>89.8</ele>
        <time>2023-05-31T12:59:00Z</time>
      </trkpt>
      <trkpt lat="49.87968" lon="2.03093">
        <ele>89.7</ele>
        <time>2023-05-31T12:59:01Z</time>
      </trkpt>
      <trkpt lat="49.87969" lon="2.0309">
        <ele>89.5</ele>
        <time>2023-05-31T12:59:02Z</time>
      </trkpt>
      <trkpt lat="49.8797" lon="2.03088">
        <ele>89.4</ele>
        <time>2023-05-31T12:59:03Z</time>
      </trkpt>
      <trkpt lat="49.8797" lon="2.03087">
        <ele>89.3</ele>
        <time>2023-05-31T12:59:04Z</time>
      </trkpt>
      <trkpt lat="49.87971" lon="2.03085">
        <ele>89.1</ele>
        <time>2023-05-31T12:59:05Z</time>
      </trkpt>
      <trkpt lat="49.87972" lon="2.03083">
        <ele>89</ele>
        <time>2023-05-31T12:59:06Z</time>
      </trkpt>
      <trkpt lat="49.87973" lon="2.03081">
        <ele>88.8</ele>
        <time>2023-05-31T12:59:08Z</time>
      </trkpt>
      <trkpt lat="49.87974" lon="2.03079">
        <ele>88.6</ele>
        <time>2023-05-31T12:59:09Z</time>
      </trkpt>
      <trkpt lat="49.87975" lon="2.03077">
        <ele>88.5</ele>
        <time>2023-05-31T12:59:10Z</time>
      </trkpt>
      <trkpt lat="49.87976" lon="2.03075">
        <ele>88.3</ele>
        <time>2023-05-31T12:59:11Z</time>
      </trkpt>
      <trkpt lat="49.87977" lon="2.03073">
        <ele>88.2</ele>
        <time>2023-05-31T12:59:12Z</time>
      </trkpt>
      <trkpt lat="49.87978" lon="2.03072">
        <ele>88</ele>
        <time>2023-05-31T12:59:13Z</time>
      </trkpt>
      <trkpt lat="49.87978" lon="2.0307">
        <ele>87.9</ele>
        <time>2023-05-31T12:59:14Z</time>
      </trkpt>
      <trkpt lat="49.8798" lon="2.03067">
        <ele>87.6</ele>
        <time>2023-05-31T12:59:16Z</time>
      </trkpt>
      <trkpt lat="49.8798" lon="2.03065">
        <ele>87.5</ele>
        <time>2023-05-31T12:59:18Z</time>
      </trkpt>
      <trkpt lat="49.87981" lon="2.03064">
        <ele>87.3</ele>
        <time>2023-05-31T12:59:19Z</time>
      </trkpt>
      <trkpt lat="49.87982" lon="2.03062">
        <ele>87.2</ele>
        <time>2023-05-31T12:59:20Z</time>
      </trkpt>
      <trkpt lat="49.87983" lon="2.03059">
        <ele>86.9</ele>
        <time>2023-05-31T12:59:21Z</time>
      </trkpt>
      <trkpt lat="49.87984" lon="2.03057">
        <ele>86.8</ele>
        <time>2023-05-31T12:59:22Z</time>
      </trkpt>
      <trkpt lat="49.87985" lon="2.03056">
        <ele>86.6</ele>
        <time>2023-05-31T12:59:24Z</time>
      </trkpt>
      <trkpt lat="49.87986" lon="2.03053">
        <ele>86.4</ele>
        <time>2023-05-31T12:59:26Z</time>
      </trkpt>
      <trkpt lat="49.87986" lon="2.03051">
        <ele>86.3</ele>
        <time>2023-05-31T12:59:27Z</time>
      </trkpt>
      <trkpt lat="49.87987" lon="2.03048">
        <ele>86</ele>
        <time>2023-05-31T12:59:28Z</time>
      </trkpt>
      <trkpt lat="49.87987" lon="2.03047">
        <ele>85.9</ele>
        <time>2023-05-31T12:59:29Z</time>
      </trkpt>
      <trkpt lat="49.87987" lon="2.03045">
        <ele>85.8</ele>
        <time>2023-05-31T12:59:30Z</time>
      </trkpt>
      <trkpt lat="49.87988" lon="2.03042">
        <ele>85.6</ele>
        <time>2023-05-31T12:59:31Z</time>
      </trkpt>
      <trkpt lat="49.87988" lon="2.03041">
        <ele>85.5</ele>
        <time>2023-05-31T12:59:32Z</time>
      </trkpt>
      <trkpt lat="49.87988" lon="2.0304">
        <ele>85.4</ele>
        <time>2023-05-31T12:59:33Z</time>
      </trkpt>
      <trkpt lat="49.87989" lon="2.03036">
        <ele>85.2</ele>
        <time>2023-05-31T12:59:34Z</time>
      </trkpt>
      <trkpt lat="49.87989" lon="2.03035">
        <ele>85.1</ele>
        <time>2023-05-31T12:59:35Z</time>
      </trkpt>
      <trkpt lat="49.87989" lon="2.03034">
        <ele>85</ele>
        <time>2023-05-31T12:59:36Z</time>
      </trkpt>
      <trkpt lat="49.8799" lon="2.03032">
        <ele>84.8</ele>
        <time>2023-05-31T12:59:38Z</time>
      </trkpt>
      <trkpt lat="49.8799" lon="2.03029">
        <ele>84.7</ele>
        <time>2023-05-31T12:59:39Z</time>
      </trkpt>
      <trkpt lat="49.87991" lon="2.03026">
        <ele>84.5</ele>
        <time>2023-05-31T12:59:40Z</time>
      </trkpt>
      <trkpt lat="49.87992" lon="2.03025">
        <ele>84.4</ele>
        <time>2023-05-31T12:59:41Z</time>
      </trkpt>
      <trkpt lat="49.87992" lon="2.03024">
        <ele>84.3</ele>
        <time>2023-05-31T12:59:42Z</time>
      </trkpt>
      <trkpt lat="49.87992" lon="2.03022">
        <ele>84.2</ele>
        <time>2023-05-31T12:59:43Z</time>
      </trkpt>
      <trkpt lat="49.87993" lon="2.0302">
        <ele>84</ele>
        <time>2023-05-31T12:59:44Z</time>
      </trkpt>
      <trkpt lat="49.87994" lon="2.03017">
        <ele>83.8</ele>
        <time>2023-05-31T12:59:45Z</time>
      </trkpt>
      <trkpt lat="49.87994" lon="2.03016">
        <ele>83.8</ele>
        <time>2023-05-31T12:59:47Z</time>
      </trkpt>
      <trkpt lat="49.87995" lon="2.03014">
        <ele>83.7</ele>
        <time>2023-05-31T12:59:48Z</time>
      </trkpt>
      <trkpt lat="49.87995" lon="2.03012">
        <ele>83.5</ele>
        <time>2023-05-31T12:59:49Z</time>
      </trkpt>
      <trkpt lat="49.87996" lon="2.0301">
        <ele>83.4</ele>
        <time>2023-05-31T12:59:50Z</time>
      </trkpt>
      <trkpt lat="49.87997" lon="2.03009">
        <ele>83.3</ele>
        <time>2023-05-31T12:59:51Z</time>
      </trkpt>
      <trkpt lat="49.87998" lon="2.03008">
        <ele>83.2</ele>
        <time>2023-05-31T12:59:52Z</time>
      </trkpt>
      <trkpt lat="49.87999" lon="2.03006">
        <ele>83.1</ele>
        <time>2023-05-31T12:59:54Z</time>
      </trkpt>
      <trkpt lat="49.88" lon="2.03004">
        <ele>82.9</ele>
        <time>2023-05-31T12:59:55Z</time>
      </trkpt>
      <trkpt lat="49.88001" lon="2.03003">
        <ele>82.8</ele>
        <time>2023-05-31T12:59:56Z</time>
      </trkpt>
      <trkpt lat="49.88001" lon="2.03002">
        <ele>82.7</ele>
        <time>2023-05-31T12:59:57Z</time>
      </trkpt>
      <trkpt lat="49.88002" lon="2.03">
        <ele>82.6</ele>
        <time>2023-05-31T12:59:58Z</time>
      </trkpt>
      <trkpt lat="49.88003" lon="2.02998">
        <ele>82.5</ele>
        <time>2023-05-31T12:59:59Z</time>
      </trkpt>
      <trkpt lat="49.88005" lon="2.02996">
        <ele>82.3</ele>
        <time>2023-05-31T13:00:01Z</time>
      </trkpt>
      <trkpt lat="49.88006" lon="2.02995">
        <ele>82.2</ele>
        <time>2023-05-31T13:00:02Z</time>
      </trkpt>
      <trkpt lat="49.88006" lon="2.02995">
        <ele>82.2</ele>
        <time>2023-05-31T13:00:03Z</time>
      </trkpt>
      <trkpt lat="49.88007" lon="2.02994">
        <ele>82.1</ele>
        <time>2023-05-31T13:00:04Z</time>
      </trkpt>
      <trkpt lat="49.88008" lon="2.02993">
        <ele>81.9</ele>
        <time>2023-05-31T13:00:05Z</time>
      </trkpt>
      <trkpt lat="49.88009" lon="2.02992">
        <ele>81.8</ele>
        <time>2023-05-31T13:00:06Z</time>
      </trkpt>
      <trkpt lat="49.8801" lon="2.02991">
        <ele>81.7</ele>
        <time>2023-05-31T13:00:08Z</time>
      </trkpt>
      <trkpt lat="49.88011" lon="2.0299">
        <ele>81.6</ele>
        <time>2023-05-31T13:00:09Z</time>
      </trkpt>
      <trkpt lat="49.88012" lon="2.02989">
        <ele>81.5</ele>
        <time>2023-05-31T13:00:10Z</time>
      </trkpt>
      <trkpt lat="49.88013" lon="2.02989">
        <ele>81.4</ele>
        <time>2023-05-31T13:00:11Z</time>
      </trkpt>
      <trkpt lat="49.88015" lon="2.02987">
        <ele>81.3</ele>
        <time>2023-05-31T13:00:12Z</time>
      </trkpt>
      <trkpt lat="49.88016" lon="2.02987">
        <ele>81.2</ele>
        <time>2023-05-31T13:00:13Z</time>
      </trkpt>
      <trkpt lat="49.88017" lon="2.02986">
        <ele>81.1</ele>
        <time>2023-05-31T13:00:14Z</time>
      </trkpt>
      <trkpt lat="49.88018" lon="2.02985">
        <ele>81</ele>
        <time>2023-05-31T13:00:16Z</time>
      </trkpt>
      <trkpt lat="49.8802" lon="2.02984">
        <ele>80.8</ele>
        <time>2023-05-31T13:00:17Z</time>
      </trkpt>
      <trkpt lat="49.88021" lon="2.02983">
        <ele>80.7</ele>
        <time>2023-05-31T13:00:18Z</time>
      </trkpt>
      <trkpt lat="49.88022" lon="2.02982">
        <ele>80.6</ele>
        <time>2023-05-31T13:00:19Z</time>
      </trkpt>
      <trkpt lat="49.88023" lon="2.02981">
        <ele>80.4</ele>
        <time>2023-05-31T13:00:21Z</time>
      </trkpt>
      <trkpt lat="49.88025" lon="2.02979">
        <ele>80.3</ele>
        <time>2023-05-31T13:00:22Z</time>
      </trkpt>
      <trkpt lat="49.88026" lon="2.02978">
        <ele>80.1</ele>
        <time>2023-05-31T13:00:23Z</time>
      </trkpt>
      <trkpt lat="49.88027" lon="2.02976">
        <ele>80</ele>
        <time>2023-05-31T13:00:24Z</time>
      </trkpt>
      <trkpt lat="49.88028" lon="2.02975">
        <ele>79.9</ele>
        <time>2023-05-31T13:00:25Z</time>
      </trkpt>
      <trkpt lat="49.88029" lon="2.02974">
        <ele>79.8</ele>
        <time>2023-05-31T13:00:26Z</time>
      </trkpt>
      <trkpt lat="49.88031" lon="2.02973">
        <ele>79.6</ele>
        <time>2023-05-31T13:00:28Z</time>
      </trkpt>
      <trkpt lat="49.88032" lon="2.02972">
        <ele>79.5</ele>
        <time>2023-05-31T13:00:29Z</time>
      </trkpt>
      <trkpt lat="49.88033" lon="2.0297">
        <ele>79.4</ele>
        <time>2023-05-31T13:00:30Z</time>
      </trkpt>
      <trkpt lat="49.88034" lon="2.02969">
        <ele>79.2</ele>
        <time>2023-05-31T13:00:31Z</time>
      </trkpt>
      <trkpt lat="49.88035" lon="2.02967">
        <ele>79.1</ele>
        <time>2023-05-31T13:00:32Z</time>
      </trkpt>
      <trkpt lat="49.88037" lon="2.02966">
        <ele>78.9</ele>
        <time>2023-05-31T13:00:33Z</time>
      </trkpt>
      <trkpt lat="49.88038" lon="2.02965">
        <ele>78.8</ele>
        <time>2023-05-31T13:00:34Z</time>
      </trkpt>
      <trkpt lat="49.88039" lon="2.02963">
        <ele>78.6</ele>
        <time>2023-05-31T13:00:35Z</time>
      </trkpt>
      <trkpt lat="49.8804" lon="2.02961">
        <ele>78.5</ele>
        <time>2023-05-31T13:00:36Z</time>
      </trkpt>
      <trkpt lat="49.88041" lon="2.0296">
        <ele>78.3</ele>
        <time>2023-05-31T13:00:37Z</time>
      </trkpt>
      <trkpt lat="49.88043" lon="2.02959">
        <ele>78.1</ele>
        <time>2023-05-31T13:00:39Z</time>
      </trkpt>
      <trkpt lat="49.88044" lon="2.02957">
        <ele>78</ele>
        <time>2023-05-31T13:00:40Z</time>
      </trkpt>
      <trkpt lat="49.88046" lon="2.02954">
        <ele>77.7</ele>
        <time>2023-05-31T13:00:41Z</time>
      </trkpt>
      <trkpt lat="49.88047" lon="2.02953">
        <ele>77.6</ele>
        <time>2023-05-31T13:00:42Z</time>
      </trkpt>
      <trkpt lat="49.88048" lon="2.02952">
        <ele>77.5</ele>
        <time>2023-05-31T13:00:44Z</time>
      </trkpt>
      <trkpt lat="49.88049" lon="2.02951">
        <ele>77.3</ele>
        <time>2023-05-31T13:00:45Z</time>
      </trkpt>
      <trkpt lat="49.8805" lon="2.02949">
        <ele>77.2</ele>
        <time>2023-05-31T13:00:46Z</time>
      </trkpt>
      <trkpt lat="49.88051" lon="2.02948">
        <ele>77.1</ele>
        <time>2023-05-31T13:00:47Z</time>
      </trkpt>
      <trkpt lat="49.88053" lon="2.02946">
        <ele>76.9</ele>
        <time>2023-05-31T13:00:48Z</time>
      </trkpt>
      <trkpt lat="49.88053" lon="2.02946">
        <ele>76.8</ele>
        <time>2023-05-31T13:00:50Z</time>
      </trkpt>
      <trkpt lat="49.88053" lon="2.02946">
        <ele>76.8</ele>
        <time>2023-05-31T13:00:51Z</time>
      </trkpt>
      <trkpt lat="49.88054" lon="2.02946">
        <ele>76.8</ele>
        <time>2023-05-31T13:00:52Z</time>
      </trkpt>
      <trkpt lat="49.88055" lon="2.02945">
        <ele>76.6</ele>
        <time>2023-05-31T13:00:53Z</time>
      </trkpt>
      <trkpt lat="49.88056" lon="2.02945">
        <ele>76.6</ele>
        <time>2023-05-31T13:00:54Z</time>
      </trkpt>
      <trkpt lat="49.88057" lon="2.02944">
        <ele>76.5</ele>
        <time>2023-05-31T13:00:55Z</time>
      </trkpt>
      <trkpt lat="49.88058" lon="2.02944">
        <ele>76.4</ele>
        <time>2023-05-31T13:00:57Z</time>
      </trkpt>
      <trkpt lat="49.88059" lon="2.02943">
        <ele>76.3</ele>
        <time>2023-05-31T13:00:58Z</time>
      </trkpt>
      <trkpt lat="49.88061" lon="2.02943">
        <ele>76.2</ele>
        <time>2023-05-31T13:00:59Z</time>
      </trkpt>
      <trkpt lat="49.88062" lon="2.02943">
        <ele>76.1</ele>
        <time>2023-05-31T13:01:00Z</time>
      </trkpt>
      <trkpt lat="49.88063" lon="2.02942">
        <ele>76</ele>
        <time>2023-05-31T13:01:01Z</time>
      </trkpt>
      <trkpt lat="49.88064" lon="2.02942">
        <ele>75.9</ele>
        <time>2023-05-31T13:01:03Z</time>
      </trkpt>
      <trkpt lat="49.88065" lon="2.02942">
        <ele>75.9</ele>
        <time>2023-05-31T13:01:04Z</time>
      </trkpt>
      <trkpt lat="49.88066" lon="2.02942">
        <ele>75.8</ele>
        <time>2023-05-31T13:01:05Z</time>
      </trkpt>
      <trkpt lat="49.88067" lon="2.02942">
        <ele>75.7</ele>
        <time>2023-05-31T13:01:06Z</time>
      </trkpt>
      <trkpt lat="49.88068" lon="2.02942">
        <ele>75.6</ele>
        <time>2023-05-31T13:01:07Z</time>
      </trkpt>
      <trkpt lat="49.88069" lon="2.02942">
        <ele>75.5</ele>
        <time>2023-05-31T13:01:08Z</time>
      </trkpt>
      <trkpt lat="49.8807" lon="2.02942">
        <ele>75.5</ele>
        <time>2023-05-31T13:01:09Z</time>
      </trkpt>
      <trkpt lat="49.88071" lon="2.02942">
        <ele>75.4</ele>
        <time>2023-05-31T13:01:10Z</time>
      </trkpt>
      <trkpt lat="49.88073" lon="2.02941">
        <ele>75.3</ele>
        <time>2023-05-31T13:01:12Z</time>
      </trkpt>
      <trkpt lat="49.88074" lon="2.02941">
        <ele>75.2</ele>
        <time>2023-05-31T13:01:13Z</time>
      </trkpt>
      <trkpt lat="49.88075" lon="2.02941">
        <ele>75.1</ele>
        <time>2023-05-31T13:01:14Z</time>
      </trkpt>
      <trkpt lat="49.88076" lon="2.0294">
        <ele>75</ele>
        <time>2023-05-31T13:01:15Z</time>
      </trkpt>
      <trkpt lat="49.88077" lon="2.0294">
        <ele>75</ele>
        <time>2023-05-31T13:01:16Z</time>
      </trkpt>
      <trkpt lat="49.88078" lon="2.02939">
        <ele>74.9</ele>
        <time>2023-05-31T13:01:18Z</time>
      </trkpt>
      <trkpt lat="49.88079" lon="2.02939">
        <ele>74.8</ele>
        <time>2023-05-31T13:01:19Z</time>
      </trkpt>
      <trkpt lat="49.8808" lon="2.02938">
        <ele>74.8</ele>
        <time>2023-05-31T13:01:20Z</time>
      </trkpt>
      <trkpt lat="49.88082" lon="2.02938">
        <ele>74.7</ele>
        <time>2023-05-31T13:01:22Z</time>
      </trkpt>
      <trkpt lat="49.88083" lon="2.02937">
        <ele>74.6</ele>
        <time>2023-05-31T13:01:23Z</time>
      </trkpt>
      <trkpt lat="49.88084" lon="2.02937">
        <ele>74.5</ele>
        <time>2023-05-31T13:01:24Z</time>
      </trkpt>
      <trkpt lat="49.88085" lon="2.02937">
        <ele>74.5</ele>
        <time>2023-05-31T13:01:25Z</time>
      </trkpt>
      <trkpt lat="49.88086" lon="2.02936">
        <ele>74.4</ele>
        <time>2023-05-31T13:01:26Z</time>
      </trkpt>
      <trkpt lat="49.88087" lon="2.02936">
        <ele>74.3</ele>
        <time>2023-05-31T13:01:27Z</time>
      </trkpt>
      <trkpt lat="49.88088" lon="2.02936">
        <ele>74.3</ele>
        <time>2023-05-31T13:01:29Z</time>
      </trkpt>
      <trkpt lat="49.88089" lon="2.02936">
        <ele>74.2</ele>
        <time>2023-05-31T13:01:30Z</time>
      </trkpt>
      <trkpt lat="49.88088" lon="2.02935">
        <ele>74.2</ele>
        <time>2023-05-31T13:01:31Z</time>
      </trkpt>
      <trkpt lat="49.88088" lon="2.02935">
        <ele>74.1</ele>
        <time>2023-05-31T13:01:32Z</time>
      </trkpt>
      <trkpt lat="49.88089" lon="2.02935">
        <ele>74.1</ele>
        <time>2023-05-31T13:01:33Z</time>
      </trkpt>
      <trkpt lat="49.8809" lon="2.02935">
        <ele>74</ele>
        <time>2023-05-31T13:01:34Z</time>
      </trkpt>
      <trkpt lat="49.88091" lon="2.02935">
        <ele>74</ele>
        <time>2023-05-31T13:01:35Z</time>
      </trkpt>
      <trkpt lat="49.88093" lon="2.02935">
        <ele>73.8</ele>
        <time>2023-05-31T13:01:36Z</time>
      </trkpt>
      <trkpt lat="49.88094" lon="2.02935">
        <ele>73.8</ele>
        <time>2023-05-31T13:01:37Z</time>
      </trkpt>
      <trkpt lat="49.88095" lon="2.02935">
        <ele>73.8</ele>
        <time>2023-05-31T13:01:38Z</time>
      </trkpt>
      <trkpt lat="49.88096" lon="2.02935">
        <ele>73.7</ele>
        <time>2023-05-31T13:01:39Z</time>
      </trkpt>
      <trkpt lat="49.88097" lon="2.02935">
        <ele>73.6</ele>
        <time>2023-05-31T13:01:41Z</time>
      </trkpt>
      <trkpt lat="49.88098" lon="2.02935">
        <ele>73.5</ele>
        <time>2023-05-31T13:01:42Z</time>
      </trkpt>
      <trkpt lat="49.88101" lon="2.02935">
        <ele>73.4</ele>
        <time>2023-05-31T13:01:43Z</time>
      </trkpt>
      <trkpt lat="49.88102" lon="2.02935">
        <ele>73.3</ele>
        <time>2023-05-31T13:01:44Z</time>
      </trkpt>
      <trkpt lat="49.88103" lon="2.02934">
        <ele>73.2</ele>
        <time>2023-05-31T13:01:45Z</time>
      </trkpt>
      <trkpt lat="49.88105" lon="2.02934">
        <ele>73.1</ele>
        <time>2023-05-31T13:01:47Z</time>
      </trkpt>
      <trkpt lat="49.88106" lon="2.02934">
        <ele>73</ele>
        <time>2023-05-31T13:01:48Z</time>
      </trkpt>
      <trkpt lat="49.88107" lon="2.02934">
        <ele>73</ele>
        <time>2023-05-31T13:01:49Z</time>
      </trkpt>
      <trkpt lat="49.88109" lon="2.02933">
        <ele>72.8</ele>
        <time>2023-05-31T13:01:50Z</time>
      </trkpt>
      <trkpt lat="49.8811" lon="2.02933">
        <ele>72.8</ele>
        <time>2023-05-31T13:01:51Z</time>
      </trkpt>
      <trkpt lat="49.88111" lon="2.02932">
        <ele>72.7</ele>
        <time>2023-05-31T13:01:52Z</time>
      </trkpt>
      <trkpt lat="49.88112" lon="2.02932">
        <ele>72.6</ele>
        <time>2023-05-31T13:01:53Z</time>
      </trkpt>
      <trkpt lat="49.88114" lon="2.02932">
        <ele>72.5</ele>
        <time>2023-05-31T13:01:55Z</time>
      </trkpt>
      <trkpt lat="49.88115" lon="2.02931">
        <ele>72.4</ele>
        <time>2023-05-31T13:01:56Z</time>
      </trkpt>
      <trkpt lat="49.88117" lon="2.02931">
        <ele>72.3</ele>
        <time>2023-05-31T13:01:57Z</time>
      </trkpt>
      <trkpt lat="49.88119" lon="2.0293">
        <ele>72.2</ele>
        <time>2023-05-31T13:01:58Z</time>
      </trkpt>
      <trkpt lat="49.8812" lon="2.0293">
        <ele>72.1</ele>
        <time>2023-05-31T13:01:59Z</time>
      </trkpt>
      <trkpt lat="49.88122" lon="2.02929">
        <ele>72</ele>
        <time>2023-05-31T13:02:01Z</time>
      </trkpt>
      <trkpt lat="49.88123" lon="2.02928">
        <ele>71.9</ele>
        <time>2023-05-31T13:02:02Z</time>
      </trkpt>
      <trkpt lat="49.88125" lon="2.02927">
        <ele>71.8</ele>
        <time>2023-05-31T13:02:03Z</time>
      </trkpt>
      <trkpt lat="49.88126" lon="2.02927">
        <ele>71.7</ele>
        <time>2023-05-31T13:02:04Z</time>
      </trkpt>
      <trkpt lat="49.88128" lon="2.02926">
        <ele>71.6</ele>
        <time>2023-05-31T13:02:05Z</time>
      </trkpt>
      <trkpt lat="49.88129" lon="2.02925">
        <ele>71.6</ele>
        <time>2023-05-31T13:02:06Z</time>
      </trkpt>
      <trkpt lat="49.8813" lon="2.02924">
        <ele>71.5</ele>
        <time>2023-05-31T13:02:08Z</time>
      </trkpt>
      <trkpt lat="49.88132" lon="2.02923">
        <ele>71.4</ele>
        <time>2023-05-31T13:02:09Z</time>
      </trkpt>
      <trkpt lat="49.88133" lon="2.02922">
        <ele>71.3</ele>
        <time>2023-05-31T13:02:10Z</time>
      </trkpt>
      <trkpt lat="49.88134" lon="2.02921">
        <ele>71.2</ele>
        <time>2023-05-31T13:02:11Z</time>
      </trkpt>
      <trkpt lat="49.88136" lon="2.0292">
        <ele>71.2</ele>
        <time>2023-05-31T13:02:12Z</time>
      </trkpt>
      <trkpt lat="49.88138" lon="2.0292">
        <ele>71</ele>
        <time>2023-05-31T13:02:14Z</time>
      </trkpt>
      <trkpt lat="49.88139" lon="2.02919">
        <ele>71</ele>
        <time>2023-05-31T13:02:15Z</time>
      </trkpt>
      <trkpt lat="49.8814" lon="2.02919">
        <ele>70.9</ele>
        <time>2023-05-31T13:02:16Z</time>
      </trkpt>
      <trkpt lat="49.88142" lon="2.02919">
        <ele>70.8</ele>
        <time>2023-05-31T13:02:17Z</time>
      </trkpt>
      <trkpt lat="49.88143" lon="2.02918">
        <ele>70.7</ele>
        <time>2023-05-31T13:02:18Z</time>
      </trkpt>
      <trkpt lat="49.88145" lon="2.02918">
        <ele>70.6</ele>
        <time>2023-05-31T13:02:19Z</time>
      </trkpt>
      <trkpt lat="49.88147" lon="2.02917">
        <ele>70.5</ele>
        <time>2023-05-31T13:02:20Z</time>
      </trkpt>
      <trkpt lat="49.88148" lon="2.02917">
        <ele>70.4</ele>
        <time>2023-05-31T13:02:22Z</time>
      </trkpt>
      <trkpt lat="49.88149" lon="2.02917">
        <ele>70.4</ele>
        <time>2023-05-31T13:02:23Z</time>
      </trkpt>
      <trkpt lat="49.8815" lon="2.02916">
        <ele>70.3</ele>
        <time>2023-05-31T13:02:24Z</time>
      </trkpt>
      <trkpt lat="49.88152" lon="2.02916">
        <ele>70.2</ele>
        <time>2023-05-31T13:02:26Z</time>
      </trkpt>
      <trkpt lat="49.88154" lon="2.02915">
        <ele>70</ele>
        <time>2023-05-31T13:02:27Z</time>
      </trkpt>
      <trkpt lat="49.88155" lon="2.02915">
        <ele>70</ele>
        <time>2023-05-31T13:02:28Z</time>
      </trkpt>
      <trkpt lat="49.88156" lon="2.02915">
        <ele>69.9</ele>
        <time>2023-05-31T13:02:29Z</time>
      </trkpt>
      <trkpt lat="49.88158" lon="2.02915">
        <ele>69.8</ele>
        <time>2023-05-31T13:02:30Z</time>
      </trkpt>
      <trkpt lat="49.88159" lon="2.02915">
        <ele>69.7</ele>
        <time>2023-05-31T13:02:31Z</time>
      </trkpt>
      <trkpt lat="49.88161" lon="2.02915">
        <ele>69.7</ele>
        <time>2023-05-31T13:02:32Z</time>
      </trkpt>
      <trkpt lat="49.88162" lon="2.02915">
        <ele>69.6</ele>
        <time>2023-05-31T13:02:33Z</time>
      </trkpt>
      <trkpt lat="49.88163" lon="2.02915">
        <ele>69.5</ele>
        <time>2023-05-31T13:02:34Z</time>
      </trkpt>
      <trkpt lat="49.88165" lon="2.02915">
        <ele>69.4</ele>
        <time>2023-05-31T13:02:35Z</time>
      </trkpt>
      <trkpt lat="49.88167" lon="2.02916">
        <ele>69.3</ele>
        <time>2023-05-31T13:02:36Z</time>
      </trkpt>
      <trkpt lat="49.88168" lon="2.02916">
        <ele>69.2</ele>
        <time>2023-05-31T13:02:38Z</time>
      </trkpt>
      <trkpt lat="49.88169" lon="2.02916">
        <ele>69.2</ele>
        <time>2023-05-31T13:02:39Z</time>
      </trkpt>
      <trkpt lat="49.8817" lon="2.02916">
        <ele>69.1</ele>
        <time>2023-05-31T13:02:40Z</time>
      </trkpt>
      <trkpt lat="49.88171" lon="2.02916">
        <ele>69</ele>
        <time>2023-05-31T13:02:41Z</time>
      </trkpt>
      <trkpt lat="49.88173" lon="2.02917">
        <ele>68.9</ele>
        <time>2023-05-31T13:02:42Z</time>
      </trkpt>
      <trkpt lat="49.88174" lon="2.02917">
        <ele>68.8</ele>
        <time>2023-05-31T13:02:44Z</time>
      </trkpt>
      <trkpt lat="49.88175" lon="2.02917">
        <ele>68.8</ele>
        <time>2023-05-31T13:02:45Z</time>
      </trkpt>
      <trkpt lat="49.88176" lon="2.02918">
        <ele>68.7</ele>
        <time>2023-05-31T13:02:46Z</time>
      </trkpt>
      <trkpt lat="49.88178" lon="2.02918">
        <ele>68.6</ele>
        <time>2023-05-31T13:02:47Z</time>
      </trkpt>
      <trkpt lat="49.8818" lon="2.02918">
        <ele>68.5</ele>
        <time>2023-05-31T13:02:48Z</time>
      </trkpt>
      <trkpt lat="49.88181" lon="2.02919">
        <ele>68.4</ele>
        <time>2023-05-31T13:02:49Z</time>
      </trkpt>
      <trkpt lat="49.88183" lon="2.02919">
        <ele>68.3</ele>
        <time>2023-05-31T13:02:50Z</time>
      </trkpt>
      <trkpt lat="49.88184" lon="2.0292">
        <ele>68.2</ele>
        <time>2023-05-31T13:02:51Z</time>
      </trkpt>
      <trkpt lat="49.88186" lon="2.02921">
        <ele>68.1</ele>
        <time>2023-05-31T13:02:53Z</time>
      </trkpt>
      <trkpt lat="49.88187" lon="2.02921">
        <ele>68.1</ele>
        <time>2023-05-31T13:02:54Z</time>
      </trkpt>
      <trkpt lat="49.88188" lon="2.02921">
        <ele>68</ele>
        <time>2023-05-31T13:02:55Z</time>
      </trkpt>
      <trkpt lat="49.88189" lon="2.02922">
        <ele>67.9</ele>
        <time>2023-05-31T13:02:56Z</time>
      </trkpt>
      <trkpt lat="49.88191" lon="2.02922">
        <ele>67.9</ele>
        <time>2023-05-31T13:02:57Z</time>
      </trkpt>
      <trkpt lat="49.88192" lon="2.02921">
        <ele>67.8</ele>
        <time>2023-05-31T13:02:58Z</time>
      </trkpt>
      <trkpt lat="49.88193" lon="2.02921">
        <ele>67.7</ele>
        <time>2023-05-31T13:02:59Z</time>
      </trkpt>
      <trkpt lat="49.88194" lon="2.02921">
        <ele>67.7</ele>
        <time>2023-05-31T13:03:00Z</time>
      </trkpt>
      <trkpt lat="49.88196" lon="2.02921">
        <ele>67.6</ele>
        <time>2023-05-31T13:03:01Z</time>
      </trkpt>
      <trkpt lat="49.88197" lon="2.02921">
        <ele>67.5</ele>
        <time>2023-05-31T13:03:02Z</time>
      </trkpt>
      <trkpt lat="49.88198" lon="2.02921">
        <ele>67.5</ele>
        <time>2023-05-31T13:03:03Z</time>
      </trkpt>
      <trkpt lat="49.882" lon="2.02922">
        <ele>67.4</ele>
        <time>2023-05-31T13:03:05Z</time>
      </trkpt>
      <trkpt lat="49.88202" lon="2.02922">
        <ele>67.3</ele>
        <time>2023-05-31T13:03:07Z</time>
      </trkpt>
      <trkpt lat="49.88203" lon="2.02923">
        <ele>67.2</ele>
        <time>2023-05-31T13:03:08Z</time>
      </trkpt>
      <trkpt lat="49.88205" lon="2.02923">
        <ele>67.2</ele>
        <time>2023-05-31T13:03:09Z</time>
      </trkpt>
      <trkpt lat="49.88206" lon="2.02924">
        <ele>67.1</ele>
        <time>2023-05-31T13:03:10Z</time>
      </trkpt>
      <trkpt lat="49.88207" lon="2.02924">
        <ele>67.1</ele>
        <time>2023-05-31T13:03:11Z</time>
      </trkpt>
      <trkpt lat="49.88208" lon="2.02924">
        <ele>67</ele>
        <time>2023-05-31T13:03:13Z</time>
      </trkpt>
      <trkpt lat="49.88209" lon="2.02924">
        <ele>67</ele>
        <time>2023-05-31T13:03:14Z</time>
      </trkpt>
      <trkpt lat="49.8821" lon="2.02924">
        <ele>66.9</ele>
        <time>2023-05-31T13:03:15Z</time>
      </trkpt>
      <trkpt lat="49.88212" lon="2.02923">
        <ele>66.9</ele>
        <time>2023-05-31T13:03:16Z</time>
      </trkpt>
      <trkpt lat="49.88213" lon="2.02923">
        <ele>66.8</ele>
        <time>2023-05-31T13:03:17Z</time>
      </trkpt>
      <trkpt lat="49.88214" lon="2.02923">
        <ele>66.8</ele>
        <time>2023-05-31T13:03:18Z</time>
      </trkpt>
      <trkpt lat="49.88215" lon="2.02923">
        <ele>66.7</ele>
        <time>2023-05-31T13:03:19Z</time>
      </trkpt>
      <trkpt lat="49.88217" lon="2.02922">
        <ele>66.6</ele>
        <time>2023-05-31T13:03:21Z</time>
      </trkpt>
      <trkpt lat="49.88218" lon="2.02922">
        <ele>66.6</ele>
        <time>2023-05-31T13:03:22Z</time>
      </trkpt>
      <trkpt lat="49.88219" lon="2.02922">
        <ele>66.6</ele>
        <time>2023-05-31T13:03:23Z</time>
      </trkpt>
      <trkpt lat="49.8822" lon="2.02921">
        <ele>66.5</ele>
        <time>2023-05-31T13:03:24Z</time>
      </trkpt>
      <trkpt lat="49.88222" lon="2.02921">
        <ele>66.4</ele>
        <time>2023-05-31T13:03:26Z</time>
      </trkpt>
      <trkpt lat="49.88224" lon="2.0292">
        <ele>66.4</ele>
        <time>2023-05-31T13:03:27Z</time>
      </trkpt>
      <trkpt lat="49.88225" lon="2.0292">
        <ele>66.3</ele>
        <time>2023-05-31T13:03:28Z</time>
      </trkpt>
      <trkpt lat="49.88227" lon="2.02919">
        <ele>66.2</ele>
        <time>2023-05-31T13:03:29Z</time>
      </trkpt>
      <trkpt lat="49.88228" lon="2.02919">
        <ele>66.1</ele>
        <time>2023-05-31T13:03:30Z</time>
      </trkpt>
      <trkpt lat="49.8823" lon="2.02919">
        <ele>66.1</ele>
        <time>2023-05-31T13:03:31Z</time>
      </trkpt>
      <trkpt lat="49.88231" lon="2.02919">
        <ele>66</ele>
        <time>2023-05-31T13:03:32Z</time>
      </trkpt>
      <trkpt lat="49.88233" lon="2.02919">
        <ele>65.9</ele>
        <time>2023-05-31T13:03:33Z</time>
      </trkpt>
      <trkpt lat="49.88234" lon="2.02918">
        <ele>65.9</ele>
        <time>2023-05-31T13:03:34Z</time>
      </trkpt>
      <trkpt lat="49.88237" lon="2.02918">
        <ele>65.7</ele>
        <time>2023-05-31T13:03:35Z</time>
      </trkpt>
      <trkpt lat="49.88238" lon="2.02918">
        <ele>65.7</ele>
        <time>2023-05-31T13:03:37Z</time>
      </trkpt>
      <trkpt lat="49.88239" lon="2.02918">
        <ele>65.6</ele>
        <time>2023-05-31T13:03:38Z</time>
      </trkpt>
      <trkpt lat="49.88241" lon="2.02918">
        <ele>65.5</ele>
        <time>2023-05-31T13:03:40Z</time>
      </trkpt>
      <trkpt lat="49.88242" lon="2.02918">
        <ele>65.4</ele>
        <time>2023-05-31T13:03:41Z</time>
      </trkpt>
      <trkpt lat="49.88244" lon="2.02917">
        <ele>65.3</ele>
        <time>2023-05-31T13:03:42Z</time>
      </trkpt>
      <trkpt lat="49.88245" lon="2.02917">
        <ele>65.3</ele>
        <time>2023-05-31T13:03:43Z</time>
      </trkpt>
      <trkpt lat="49.88247" lon="2.02917">
        <ele>65.2</ele>
        <time>2023-05-31T13:03:44Z</time>
      </trkpt>
      <trkpt lat="49.88248" lon="2.02916">
        <ele>65.1</ele>
        <time>2023-05-31T13:03:45Z</time>
      </trkpt>
      <trkpt lat="49.8825" lon="2.02916">
        <ele>65</ele>
        <time>2023-05-31T13:03:47Z</time>
      </trkpt>
      <trkpt lat="49.88251" lon="2.02915">
        <ele>64.9</ele>
        <time>2023-05-31T13:03:48Z</time>
      </trkpt>
      <trkpt lat="49.88252" lon="2.02915">
        <ele>64.9</ele>
        <time>2023-05-31T13:03:49Z</time>
      </trkpt>
      <trkpt lat="49.88254" lon="2.02914">
        <ele>64.8</ele>
        <time>2023-05-31T13:03:50Z</time>
      </trkpt>
      <trkpt lat="49.88255" lon="2.02914">
        <ele>64.7</ele>
        <time>2023-05-31T13:03:51Z</time>
      </trkpt>
      <trkpt lat="49.88257" lon="2.02914">
        <ele>64.6</ele>
        <time>2023-05-31T13:03:52Z</time>
      </trkpt>
      <trkpt lat="49.88258" lon="2.02913">
        <ele>64.5</ele>
        <time>2023-05-31T13:03:53Z</time>
      </trkpt>
      <trkpt lat="49.88259" lon="2.02913">
        <ele>64.5</ele>
        <time>2023-05-31T13:03:55Z</time>
      </trkpt>
      <trkpt lat="49.88261" lon="2.02913">
        <ele>64.4</ele>
        <time>2023-05-31T13:03:56Z</time>
      </trkpt>
      <trkpt lat="49.88262" lon="2.02912">
        <ele>64.3</ele>
        <time>2023-05-31T13:03:57Z</time>
      </trkpt>
      <trkpt lat="49.88264" lon="2.02912">
        <ele>64.2</ele>
        <time>2023-05-31T13:03:58Z</time>
      </trkpt>
      <trkpt lat="49.88265" lon="2.02912">
        <ele>64.1</ele>
        <time>2023-05-31T13:03:59Z</time>
      </trkpt>
      <trkpt lat="49.88267" lon="2.02911">
        <ele>64.1</ele>
        <time>2023-05-31T13:04:00Z</time>
      </trkpt>
      <trkpt lat="49.88268" lon="2.02911">
        <ele>64</ele>
        <time>2023-05-31T13:04:01Z</time>
      </trkpt>
      <trkpt lat="49.8827" lon="2.0291">
        <ele>63.9</ele>
        <time>2023-05-31T13:04:03Z</time>
      </trkpt>
      <trkpt lat="49.88271" lon="2.02909">
        <ele>63.8</ele>
        <time>2023-05-31T13:04:04Z</time>
      </trkpt>
      <trkpt lat="49.88273" lon="2.02909">
        <ele>63.7</ele>
        <time>2023-05-31T13:04:05Z</time>
      </trkpt>
      <trkpt lat="49.88274" lon="2.02908">
        <ele>63.7</ele>
        <time>2023-05-31T13:04:06Z</time>
      </trkpt>
      <trkpt lat="49.88275" lon="2.02908">
        <ele>63.6</ele>
        <time>2023-05-31T13:04:07Z</time>
      </trkpt>
      <trkpt lat="49.88277" lon="2.02908">
        <ele>63.5</ele>
        <time>2023-05-31T13:04:08Z</time>
      </trkpt>
      <trkpt lat="49.88278" lon="2.02907">
        <ele>63.4</ele>
        <time>2023-05-31T13:04:09Z</time>
      </trkpt>
      <trkpt lat="49.88278" lon="2.02907">
        <ele>63.4</ele>
        <time>2023-05-31T13:04:10Z</time>
      </trkpt>
      <trkpt lat="49.8828" lon="2.02907">
        <ele>63.3</ele>
        <time>2023-05-31T13:04:11Z</time>
      </trkpt>
      <trkpt lat="49.8828" lon="2.02906">
        <ele>63.3</ele>
        <time>2023-05-31T13:04:12Z</time>
      </trkpt>
      <trkpt lat="49.88281" lon="2.02906">
        <ele>63.2</ele>
        <time>2023-05-31T13:04:13Z</time>
      </trkpt>
      <trkpt lat="49.88283" lon="2.02905">
        <ele>63.1</ele>
        <time>2023-05-31T13:04:15Z</time>
      </trkpt>
      <trkpt lat="49.88284" lon="2.02904">
        <ele>63</ele>
        <time>2023-05-31T13:04:16Z</time>
      </trkpt>
      <trkpt lat="49.88284" lon="2.02904">
        <ele>63</ele>
        <time>2023-05-31T13:04:17Z</time>
      </trkpt>
      <trkpt lat="49.88285" lon="2.02903">
        <ele>62.9</ele>
        <time>2023-05-31T13:04:18Z</time>
      </trkpt>
      <trkpt lat="49.88288" lon="2.02902">
        <ele>62.8</ele>
        <time>2023-05-31T13:04:19Z</time>
      </trkpt>
      <trkpt lat="49.88289" lon="2.02901">
        <ele>62.7</ele>
        <time>2023-05-31T13:04:21Z</time>
      </trkpt>
      <trkpt lat="49.8829" lon="2.029">
        <ele>62.6</ele>
        <time>2023-05-31T13:04:22Z</time>
      </trkpt>
      <trkpt lat="49.88291" lon="2.02899">
        <ele>62.5</ele>
        <time>2023-05-31T13:04:23Z</time>
      </trkpt>
      <trkpt lat="49.88293" lon="2.02898">
        <ele>62.4</ele>
        <time>2023-05-31T13:04:24Z</time>
      </trkpt>
      <trkpt lat="49.88295" lon="2.02897">
        <ele>62.3</ele>
        <time>2023-05-31T13:04:26Z</time>
      </trkpt>
      <trkpt lat="49.88296" lon="2.02896">
        <ele>62.2</ele>
        <time>2023-05-31T13:04:27Z</time>
      </trkpt>
      <trkpt lat="49.88297" lon="2.02895">
        <ele>62.2</ele>
        <time>2023-05-31T13:04:28Z</time>
      </trkpt>
      <trkpt lat="49.88297" lon="2.02895">
        <ele>62.1</ele>
        <time>2023-05-31T13:04:29Z</time>
      </trkpt>
      <trkpt lat="49.88299" lon="2.02893">
        <ele>62</ele>
        <time>2023-05-31T13:04:30Z</time>
      </trkpt>
      <trkpt lat="49.883" lon="2.02893">
        <ele>62</ele>
        <time>2023-05-31T13:04:31Z</time>
      </trkpt>
      <trkpt lat="49.88301" lon="2.02892">
        <ele>61.9</ele>
        <time>2023-05-31T13:04:32Z</time>
      </trkpt>
      <trkpt lat="49.88303" lon="2.02891">
        <ele>61.8</ele>
        <time>2023-05-31T13:04:34Z</time>
      </trkpt>
      <trkpt lat="49.88304" lon="2.0289">
        <ele>61.7</ele>
        <time>2023-05-31T13:04:35Z</time>
      </trkpt>
      <trkpt lat="49.88305" lon="2.02889">
        <ele>61.6</ele>
        <time>2023-05-31T13:04:36Z</time>
      </trkpt>
      <trkpt lat="49.88307" lon="2.02887">
        <ele>61.5</ele>
        <time>2023-05-31T13:04:37Z</time>
      </trkpt>
      <trkpt lat="49.88308" lon="2.02887">
        <ele>61.4</ele>
        <time>2023-05-31T13:04:38Z</time>
      </trkpt>
      <trkpt lat="49.88309" lon="2.02886">
        <ele>61.4</ele>
        <time>2023-05-31T13:04:39Z</time>
      </trkpt>
      <trkpt lat="49.8831" lon="2.02885">
        <ele>61.3</ele>
        <time>2023-05-31T13:04:40Z</time>
      </trkpt>
      <trkpt lat="49.88311" lon="2.02885">
        <ele>61.3</ele>
        <time>2023-05-31T13:04:41Z</time>
      </trkpt>
      <trkpt lat="49.88312" lon="2.02884">
        <ele>61.2</ele>
        <time>2023-05-31T13:04:43Z</time>
      </trkpt>
      <trkpt lat="49.88314" lon="2.02882">
        <ele>61.1</ele>
        <time>2023-05-31T13:04:44Z</time>
      </trkpt>
      <trkpt lat="49.88314" lon="2.02881">
        <ele>61.1</ele>
        <time>2023-05-31T13:04:45Z</time>
      </trkpt>
      <trkpt lat="49.88315" lon="2.02881">
        <ele>61</ele>
        <time>2023-05-31T13:04:46Z</time>
      </trkpt>
      <trkpt lat="49.88316" lon="2.02879">
        <ele>61</ele>
        <time>2023-05-31T13:04:47Z</time>
      </trkpt>
      <trkpt lat="49.88317" lon="2.02878">
        <ele>60.9</ele>
        <time>2023-05-31T13:04:48Z</time>
      </trkpt>
      <trkpt lat="49.88318" lon="2.02877">
        <ele>60.9</ele>
        <time>2023-05-31T13:04:49Z</time>
      </trkpt>
      <trkpt lat="49.88319" lon="2.02875">
        <ele>60.8</ele>
        <time>2023-05-31T13:04:51Z</time>
      </trkpt>
      <trkpt lat="49.88319" lon="2.02874">
        <ele>60.7</ele>
        <time>2023-05-31T13:04:52Z</time>
      </trkpt>
      <trkpt lat="49.8832" lon="2.02872">
        <ele>60.7</ele>
        <time>2023-05-31T13:04:54Z</time>
      </trkpt>
      <trkpt lat="49.88321" lon="2.02871">
        <ele>60.6</ele>
        <time>2023-05-31T13:04:55Z</time>
      </trkpt>
      <trkpt lat="49.88322" lon="2.0287">
        <ele>60.6</ele>
        <time>2023-05-31T13:04:56Z</time>
      </trkpt>
      <trkpt lat="49.88323" lon="2.02869">
        <ele>60.5</ele>
        <time>2023-05-31T13:04:57Z</time>
      </trkpt>
      <trkpt lat="49.88324" lon="2.02867">
        <ele>60.5</ele>
        <time>2023-05-31T13:04:58Z</time>
      </trkpt>
      <trkpt lat="49.88326" lon="2.02864">
        <ele>60.3</ele>
        <time>2023-05-31T13:05:00Z</time>
      </trkpt>
      <trkpt lat="49.88326" lon="2.02863">
        <ele>60.3</ele>
        <time>2023-05-31T13:05:01Z</time>
      </trkpt>
      <trkpt lat="49.88327" lon="2.02862">
        <ele>60.2</ele>
        <time>2023-05-31T13:05:02Z</time>
      </trkpt>
      <trkpt lat="49.88328" lon="2.0286">
        <ele>60.2</ele>
        <time>2023-05-31T13:05:03Z</time>
      </trkpt>
      <trkpt lat="49.88329" lon="2.02859">
        <ele>60.1</ele>
        <time>2023-05-31T13:05:04Z</time>
      </trkpt>
      <trkpt lat="49.8833" lon="2.02858">
        <ele>60</ele>
        <time>2023-05-31T13:05:05Z</time>
      </trkpt>
      <trkpt lat="49.88331" lon="2.02857">
        <ele>60</ele>
        <time>2023-05-31T13:05:06Z</time>
      </trkpt>
      <trkpt lat="49.88333" lon="2.02855">
        <ele>59.9</ele>
        <time>2023-05-31T13:05:07Z</time>
      </trkpt>
      <trkpt lat="49.88333" lon="2.02854">
        <ele>59.9</ele>
        <time>2023-05-31T13:05:08Z</time>
      </trkpt>
      <trkpt lat="49.88334" lon="2.02853">
        <ele>59.8</ele>
        <time>2023-05-31T13:05:09Z</time>
      </trkpt>
      <trkpt lat="49.88335" lon="2.02852">
        <ele>59.8</ele>
        <time>2023-05-31T13:05:10Z</time>
      </trkpt>
      <trkpt lat="49.88336" lon="2.0285">
        <ele>59.7</ele>
        <time>2023-05-31T13:05:11Z</time>
      </trkpt>
      <trkpt lat="49.88337" lon="2.02849">
        <ele>59.6</ele>
        <time>2023-05-31T13:05:13Z</time>
      </trkpt>
      <trkpt lat="49.88338" lon="2.02848">
        <ele>59.6</ele>
        <time>2023-05-31T13:05:14Z</time>
      </trkpt>
      <trkpt lat="49.88339" lon="2.02847">
        <ele>59.5</ele>
        <time>2023-05-31T13:05:15Z</time>
      </trkpt>
      <trkpt lat="49.8834" lon="2.02846">
        <ele>59.5</ele>
        <time>2023-05-31T13:05:16Z</time>
      </trkpt>
      <trkpt lat="49.88341" lon="2.02845">
        <ele>59.4</ele>
        <time>2023-05-31T13:05:17Z</time>
      </trkpt>
      <trkpt lat="49.88342" lon="2.02844">
        <ele>59.4</ele>
        <time>2023-05-31T13:05:18Z</time>
      </trkpt>
      <trkpt lat="49.88343" lon="2.02843">
        <ele>59.3</ele>
        <time>2023-05-31T13:05:20Z</time>
      </trkpt>
      <trkpt lat="49.88345" lon="2.02841">
        <ele>59.2</ele>
        <time>2023-05-31T13:05:21Z</time>
      </trkpt>
      <trkpt lat="49.88345" lon="2.0284">
        <ele>59.2</ele>
        <time>2023-05-31T13:05:22Z</time>
      </trkpt>
      <trkpt lat="49.88346" lon="2.0284">
        <ele>59.1</ele>
        <time>2023-05-31T13:05:23Z</time>
      </trkpt>
      <trkpt lat="49.88348" lon="2.02838">
        <ele>59.1</ele>
        <time>2023-05-31T13:05:24Z</time>
      </trkpt>
      <trkpt lat="49.88349" lon="2.02837">
        <ele>59</ele>
        <time>2023-05-31T13:05:25Z</time>
      </trkpt>
      <trkpt lat="49.88349" lon="2.02836">
        <ele>59</ele>
        <time>2023-05-31T13:05:26Z</time>
      </trkpt>
      <trkpt lat="49.8835" lon="2.02835">
        <ele>58.9</ele>
        <time>2023-05-31T13:05:27Z</time>
      </trkpt>
      <trkpt lat="49.88351" lon="2.02834">
        <ele>58.9</ele>
        <time>2023-05-31T13:05:28Z</time>
      </trkpt>
      <trkpt lat="49.88352" lon="2.02833">
        <ele>58.8</ele>
        <time>2023-05-31T13:05:30Z</time>
      </trkpt>
      <trkpt lat="49.88354" lon="2.02831">
        <ele>58.7</ele>
        <time>2023-05-31T13:05:31Z</time>
      </trkpt>
      <trkpt lat="49.88355" lon="2.0283">
        <ele>58.7</ele>
        <time>2023-05-31T13:05:32Z</time>
      </trkpt>
      <trkpt lat="49.88356" lon="2.02829">
        <ele>58.6</ele>
        <time>2023-05-31T13:05:33Z</time>
      </trkpt>
      <trkpt lat="49.88357" lon="2.02828">
        <ele>58.5</ele>
        <time>2023-05-31T13:05:35Z</time>
      </trkpt>
      <trkpt lat="49.88358" lon="2.02827">
        <ele>58.5</ele>
        <time>2023-05-31T13:05:36Z</time>
      </trkpt>
      <trkpt lat="49.8836" lon="2.02825">
        <ele>58.4</ele>
        <time>2023-05-31T13:05:37Z</time>
      </trkpt>
      <trkpt lat="49.88361" lon="2.02824">
        <ele>58.3</ele>
        <time>2023-05-31T13:05:38Z</time>
      </trkpt>
      <trkpt lat="49.88361" lon="2.02824">
        <ele>58.3</ele>
        <time>2023-05-31T13:05:39Z</time>
      </trkpt>
      <trkpt lat="49.88363" lon="2.02822">
        <ele>58.2</ele>
        <time>2023-05-31T13:05:40Z</time>
      </trkpt>
      <trkpt lat="49.88364" lon="2.02822">
        <ele>58.1</ele>
        <time>2023-05-31T13:05:41Z</time>
      </trkpt>
      <trkpt lat="49.88365" lon="2.02821">
        <ele>58.1</ele>
        <time>2023-05-31T13:05:42Z</time>
      </trkpt>
      <trkpt lat="49.88366" lon="2.02819">
        <ele>58</ele>
        <time>2023-05-31T13:05:44Z</time>
      </trkpt>
      <trkpt lat="49.88367" lon="2.02818">
        <ele>57.9</ele>
        <time>2023-05-31T13:05:45Z</time>
      </trkpt>
      <trkpt lat="49.88368" lon="2.02818">
        <ele>57.9</ele>
        <time>2023-05-31T13:05:46Z</time>
      </trkpt>
      <trkpt lat="49.8837" lon="2.02816">
        <ele>57.8</ele>
        <time>2023-05-31T13:05:47Z</time>
      </trkpt>
      <trkpt lat="49.8837" lon="2.02816">
        <ele>57.7</ele>
        <time>2023-05-31T13:05:48Z</time>
      </trkpt>
      <trkpt lat="49.88371" lon="2.02815">
        <ele>57.7</ele>
        <time>2023-05-31T13:05:49Z</time>
      </trkpt>
      <trkpt lat="49.88372" lon="2.02814">
        <ele>57.6</ele>
        <time>2023-05-31T13:05:50Z</time>
      </trkpt>
      <trkpt lat="49.88373" lon="2.02813">
        <ele>57.5</ele>
        <time>2023-05-31T13:05:51Z</time>
      </trkpt>
      <trkpt lat="49.88374" lon="2.02812">
        <ele>57.4</ele>
        <time>2023-05-31T13:05:53Z</time>
      </trkpt>
      <trkpt lat="49.88376" lon="2.02811">
        <ele>57.3</ele>
        <time>2023-05-31T13:05:54Z</time>
      </trkpt>
      <trkpt lat="49.88377" lon="2.0281">
        <ele>57.3</ele>
        <time>2023-05-31T13:05:55Z</time>
      </trkpt>
      <trkpt lat="49.88377" lon="2.02809">
        <ele>57.2</ele>
        <time>2023-05-31T13:05:56Z</time>
      </trkpt>
      <trkpt lat="49.88379" lon="2.02807">
        <ele>57.1</ele>
        <time>2023-05-31T13:05:57Z</time>
      </trkpt>
      <trkpt lat="49.8838" lon="2.02806">
        <ele>57</ele>
        <time>2023-05-31T13:05:59Z</time>
      </trkpt>
      <trkpt lat="49.88381" lon="2.02804">
        <ele>56.9</ele>
        <time>2023-05-31T13:06:00Z</time>
      </trkpt>
      <trkpt lat="49.88382" lon="2.02803">
        <ele>56.9</ele>
        <time>2023-05-31T13:06:01Z</time>
      </trkpt>
      <trkpt lat="49.88383" lon="2.02801">
        <ele>56.7</ele>
        <time>2023-05-31T13:06:02Z</time>
      </trkpt>
      <trkpt lat="49.88384" lon="2.02799">
        <ele>56.7</ele>
        <time>2023-05-31T13:06:04Z</time>
      </trkpt>
      <trkpt lat="49.88385" lon="2.02798">
        <ele>56.6</ele>
        <time>2023-05-31T13:06:05Z</time>
      </trkpt>
      <trkpt lat="49.88387" lon="2.02797">
        <ele>56.5</ele>
        <time>2023-05-31T13:06:06Z</time>
      </trkpt>
      <trkpt lat="49.88388" lon="2.02795">
        <ele>56.4</ele>
        <time>2023-05-31T13:06:07Z</time>
      </trkpt>
      <trkpt lat="49.88389" lon="2.02794">
        <ele>56.3</ele>
        <time>2023-05-31T13:06:08Z</time>
      </trkpt>
      <trkpt lat="49.8839" lon="2.02793">
        <ele>56.3</ele>
        <time>2023-05-31T13:06:09Z</time>
      </trkpt>
      <trkpt lat="49.88391" lon="2.02792">
        <ele>56.2</ele>
        <time>2023-05-31T13:06:10Z</time>
      </trkpt>
      <trkpt lat="49.88392" lon="2.02791">
        <ele>56.1</ele>
        <time>2023-05-31T13:06:11Z</time>
      </trkpt>
      <trkpt lat="49.88393" lon="2.0279">
        <ele>56.1</ele>
        <time>2023-05-31T13:06:13Z</time>
      </trkpt>
      <trkpt lat="49.88394" lon="2.02789">
        <ele>56</ele>
        <time>2023-05-31T13:06:14Z</time>
      </trkpt>
      <trkpt lat="49.88395" lon="2.02788">
        <ele>55.9</ele>
        <time>2023-05-31T13:06:15Z</time>
      </trkpt>
      <trkpt lat="49.88396" lon="2.02787">
        <ele>55.9</ele>
        <time>2023-05-31T13:06:16Z</time>
      </trkpt>
      <trkpt lat="49.88397" lon="2.02785">
        <ele>55.8</ele>
        <time>2023-05-31T13:06:17Z</time>
      </trkpt>
      <trkpt lat="49.88398" lon="2.02784">
        <ele>55.7</ele>
        <time>2023-05-31T13:06:19Z</time>
      </trkpt>
      <trkpt lat="49.88399" lon="2.02783">
        <ele>55.7</ele>
        <time>2023-05-31T13:06:21Z</time>
      </trkpt>
      <trkpt lat="49.884" lon="2.02781">
        <ele>55.6</ele>
        <time>2023-05-31T13:06:23Z</time>
      </trkpt>
      <trkpt lat="49.88399" lon="2.0278">
        <ele>55.5</ele>
        <time>2023-05-31T13:06:24Z</time>
      </trkpt>
      <trkpt lat="49.884" lon="2.02778">
        <ele>55.5</ele>
        <time>2023-05-31T13:06:25Z</time>
      </trkpt>
      <trkpt lat="49.884" lon="2.02777">
        <ele>55.5</ele>
        <time>2023-05-31T13:06:26Z</time>
      </trkpt>
      <trkpt lat="49.88401" lon="2.02776">
        <ele>55.4</ele>
        <time>2023-05-31T13:06:28Z</time>
      </trkpt>
      <trkpt lat="49.88401" lon="2.02775">
        <ele>55.4</ele>
        <time>2023-05-31T13:06:29Z</time>
      </trkpt>
      <trkpt lat="49.88401" lon="2.02774">
        <ele>55.4</ele>
        <time>2023-05-31T13:06:30Z</time>
      </trkpt>
      <trkpt lat="49.88402" lon="2.02773">
        <ele>55.4</ele>
        <time>2023-05-31T13:06:31Z</time>
      </trkpt>
      <trkpt lat="49.88403" lon="2.02772">
        <ele>55.3</ele>
        <time>2023-05-31T13:06:32Z</time>
      </trkpt>
      <trkpt lat="49.88403" lon="2.02771">
        <ele>55.3</ele>
        <time>2023-05-31T13:06:34Z</time>
      </trkpt>
      <trkpt lat="49.88404" lon="2.02771">
        <ele>55.3</ele>
        <time>2023-05-31T13:06:35Z</time>
      </trkpt>
      <trkpt lat="49.88404" lon="2.0277">
        <ele>55.3</ele>
        <time>2023-05-31T13:06:36Z</time>
      </trkpt>
      <trkpt lat="49.88405" lon="2.02769">
        <ele>55.3</ele>
        <time>2023-05-31T13:06:37Z</time>
      </trkpt>
      <trkpt lat="49.88405" lon="2.02768">
        <ele>55.3</ele>
        <time>2023-05-31T13:06:38Z</time>
      </trkpt>
      <trkpt lat="49.88405" lon="2.02767">
        <ele>55.3</ele>
        <time>2023-05-31T13:06:40Z</time>
      </trkpt>
      <trkpt lat="49.88406" lon="2.02767">
        <ele>55.3</ele>
        <time>2023-05-31T13:06:41Z</time>
      </trkpt>
      <trkpt lat="49.88406" lon="2.02766">
        <ele>55.3</ele>
        <time>2023-05-31T13:06:42Z</time>
      </trkpt>
      <trkpt lat="49.88407" lon="2.02766">
        <ele>55.3</ele>
        <time>2023-05-31T13:06:43Z</time>
      </trkpt>
      <trkpt lat="49.88407" lon="2.02765">
        <ele>55.2</ele>
        <time>2023-05-31T13:06:44Z</time>
      </trkpt>
      <trkpt lat="49.88408" lon="2.02765">
        <ele>55.2</ele>
        <time>2023-05-31T13:06:45Z</time>
      </trkpt>
      <trkpt lat="49.88409" lon="2.02764">
        <ele>55.2</ele>
        <time>2023-05-31T13:06:47Z</time>
      </trkpt>
      <trkpt lat="49.88409" lon="2.02762">
        <ele>55.2</ele>
        <time>2023-05-31T13:06:49Z</time>
      </trkpt>
      <trkpt lat="49.8841" lon="2.02761">
        <ele>55.2</ele>
        <time>2023-05-31T13:06:50Z</time>
      </trkpt>
      <trkpt lat="49.8841" lon="2.02759">
        <ele>55.2</ele>
        <time>2023-05-31T13:06:51Z</time>
      </trkpt>
      <trkpt lat="49.88411" lon="2.02758">
        <ele>55.1</ele>
        <time>2023-05-31T13:06:53Z</time>
      </trkpt>
      <trkpt lat="49.88412" lon="2.02758">
        <ele>55.1</ele>
        <time>2023-05-31T13:06:54Z</time>
      </trkpt>
      <trkpt lat="49.88413" lon="2.02757">
        <ele>55.1</ele>
        <time>2023-05-31T13:06:56Z</time>
      </trkpt>
      <trkpt lat="49.88413" lon="2.02757">
        <ele>55.1</ele>
        <time>2023-05-31T13:06:57Z</time>
      </trkpt>
      <trkpt lat="49.88413" lon="2.02756">
        <ele>55.1</ele>
        <time>2023-05-31T13:06:58Z</time>
      </trkpt>
      <trkpt lat="49.88414" lon="2.02756">
        <ele>55.1</ele>
        <time>2023-05-31T13:06:59Z</time>
      </trkpt>
      <trkpt lat="49.88414" lon="2.02754">
        <ele>55.1</ele>
        <time>2023-05-31T13:07:01Z</time>
      </trkpt>
      <trkpt lat="49.88414" lon="2.02753">
        <ele>55.1</ele>
        <time>2023-05-31T13:07:02Z</time>
      </trkpt>
      <trkpt lat="49.88415" lon="2.02753">
        <ele>55.1</ele>
        <time>2023-05-31T13:07:04Z</time>
      </trkpt>
      <trkpt lat="49.88415" lon="2.02753">
        <ele>55</ele>
        <time>2023-05-31T13:07:05Z</time>
      </trkpt>
      <trkpt lat="49.88415" lon="2.02753">
        <ele>55</ele>
        <time>2023-05-31T13:07:06Z</time>
      </trkpt>
      <trkpt lat="49.88415" lon="2.02754">
        <ele>55</ele>
        <time>2023-05-31T13:07:08Z</time>
      </trkpt>
      <trkpt lat="49.88415" lon="2.02754">
        <ele>55</ele>
        <time>2023-05-31T13:07:09Z</time>
      </trkpt>
      <trkpt lat="49.88415" lon="2.02754">
        <ele>55</ele>
        <time>2023-05-31T13:07:11Z</time>
      </trkpt>
      <trkpt lat="49.88415" lon="2.02754">
        <ele>55</ele>
        <time>2023-05-31T13:07:12Z</time>
      </trkpt>
      <trkpt lat="49.88415" lon="2.02754">
        <ele>55</ele>
        <time>2023-05-31T13:07:13Z</time>
      </trkpt>
      <trkpt lat="49.88415" lon="2.02753">
        <ele>55</ele>
        <time>2023-05-31T13:07:15Z</time>
      </trkpt>
      <trkpt lat="49.88415" lon="2.02753">
        <ele>55</ele>
        <time>2023-05-31T13:07:16Z</time>
      </trkpt>
      <trkpt lat="49.88416" lon="2.02754">
        <ele>55</ele>
        <time>2023-05-31T13:07:18Z</time>
      </trkpt>
      <trkpt lat="49.88415" lon="2.02755">
        <ele>55</ele>
        <time>2023-05-31T13:07:19Z</time>
      </trkpt>
      <trkpt lat="49.88415" lon="2.02755">
        <ele>55</ele>
        <time>2023-05-31T13:07:20Z</time>
      </trkpt>
      <trkpt lat="49.88415" lon="2.02755">
        <ele>55</ele>
        <time>2023-05-31T13:07:22Z</time>
      </trkpt>
      <trkpt lat="49.88415" lon="2.02755">
        <ele>55</ele>
        <time>2023-05-31T13:07:23Z</time>
      </trkpt>
      <trkpt lat="49.88415" lon="2.02755">
        <ele>55</ele>
        <time>2023-05-31T13:07:24Z</time>
      </trkpt>
      <trkpt lat="49.88415" lon="2.02755">
        <ele>55</ele>
        <time>2023-05-31T13:07:26Z</time>
      </trkpt>
      <trkpt lat="49.88415" lon="2.02755">
        <ele>55</ele>
        <time>2023-05-31T13:07:27Z</time>
      </trkpt>
      <trkpt lat="49.88415" lon="2.02756">
        <ele>55</ele>
        <time>2023-05-31T13:07:29Z</time>
      </trkpt>
      <trkpt lat="49.88415" lon="2.02756">
        <ele>55</ele>
        <time>2023-05-31T13:07:30Z</time>
      </trkpt>
      <trkpt lat="49.88415" lon="2.02756">
        <ele>55</ele>
        <time>2023-05-31T13:07:32Z</time>
      </trkpt>
      <trkpt lat="49.88415" lon="2.02756">
        <ele>55</ele>
        <time>2023-05-31T13:07:33Z</time>
      </trkpt>
      <trkpt lat="49.88415" lon="2.02756">
        <ele>55</ele>
        <time>2023-05-31T13:07:34Z</time>
      </trkpt>
      <trkpt lat="49.88415" lon="2.02755">
        <ele>55</ele>
        <time>2023-05-31T13:07:35Z</time>
      </trkpt>
      <trkpt lat="49.88415" lon="2.02755">
        <ele>55</ele>
        <time>2023-05-31T13:07:36Z</time>
      </trkpt>
      <trkpt lat="49.88415" lon="2.02755">
        <ele>55</ele>
        <time>2023-05-31T13:07:37Z</time>
      </trkpt>
      <trkpt lat="49.88415" lon="2.02755">
        <ele>55</ele>
        <time>2023-05-31T13:07:38Z</time>
      </trkpt>
      <trkpt lat="49.88415" lon="2.02755">
        <ele>55</ele>
        <time>2023-05-31T13:07:39Z</time>
      </trkpt>
      <trkpt lat="49.88415" lon="2.02755">
        <ele>55</ele>
        <time>2023-05-31T13:07:40Z</time>
      </trkpt>
      <trkpt lat="49.88415" lon="2.02755">
        <ele>55</ele>
        <time>2023-05-31T13:07:41Z</time>
      </trkpt>
      <trkpt lat="49.88415" lon="2.02755">
        <ele>55</ele>
        <time>2023-05-31T13:07:42Z</time>
      </trkpt>
      <trkpt lat="49.88415" lon="2.02755">
        <ele>55</ele>
        <time>2023-05-31T13:07:43Z</time>
      </trkpt>
      <trkpt lat="49.88415" lon="2.02755">
        <ele>55</ele>
        <time>2023-05-31T13:07:44Z</time>
      </trkpt>
      <trkpt lat="49.88415" lon="2.02755">
        <ele>55</ele>
        <time>2023-05-31T13:07:45Z</time>
      </trkpt>
      <trkpt lat="49.88415" lon="2.02755">
        <ele>55</ele>
        <time>2023-05-31T13:07:46Z</time>
      </trkpt>
      <trkpt lat="49.88415" lon="2.02755">
        <ele>55</ele>
        <time>2023-05-31T13:07:47Z</time>
      </trkpt>
      <trkpt lat="49.88415" lon="2.02755">
        <ele>55</ele>
        <time>2023-05-31T13:07:48Z</time>
      </trkpt>
      <trkpt lat="49.88415" lon="2.02755">
        <ele>55</ele>
        <time>2023-05-31T13:07:49Z</time>
      </trkpt>
      <trkpt lat="49.88415" lon="2.02755">
        <ele>55</ele>
        <time>2023-05-31T13:07:50Z</time>
      </trkpt>
      <trkpt lat="49.88415" lon="2.02755">
        <ele>55</ele>
        <time>2023-05-31T13:07:51Z</time>
      </trkpt>
      <trkpt lat="49.88415" lon="2.02755">
        <ele>55</ele>
        <time>2023-05-31T13:07:52Z</time>
      </trkpt>
      <trkpt lat="49.88415" lon="2.02755">
        <ele>55</ele>
        <time>2023-05-31T13:07:53Z</time>
      </trkpt>
      <trkpt lat="49.88415" lon="2.02755">
        <ele>55</ele>
        <time>2023-05-31T13:07:54Z</time>
      </trkpt>
      <trkpt lat="49.88415" lon="2.02755">
        <ele>55</ele>
        <time>2023-05-31T13:07:55Z</time>
      </trkpt>
      <trkpt lat="49.88415" lon="2.02755">
        <ele>55</ele>
        <time>2023-05-31T13:07:56Z</time>
      </trkpt>
      <trkpt lat="49.88415" lon="2.02755">
        <ele>55</ele>
        <time>2023-05-31T13:07:57Z</time>
      </trkpt>
      <trkpt lat="49.88415" lon="2.02755">
        <ele>55</ele>
        <time>2023-05-31T13:07:58Z</time>
      </trkpt>
      <trkpt lat="49.88415" lon="2.02755">
        <ele>55</ele>
        <time>2023-05-31T13:07:59Z</time>
      </trkpt>
      <trkpt lat="49.88415" lon="2.02755">
        <ele>55</ele>
        <time>2023-05-31T13:08:00Z</time>
      </trkpt>
      <trkpt lat="49.88415" lon="2.02755">
        <ele>55</ele>
        <time>2023-05-31T13:08:01Z</time>
      </trkpt>
      <trkpt lat="49.88414" lon="2.02756">
        <ele>54.9</ele>
        <time>2023-05-31T13:08:02Z</time>
      </trkpt>
      <trkpt lat="49.88413" lon="2.02756">
        <ele>54.9</ele>
        <time>2023-05-31T13:08:03Z</time>
      </trkpt>
      <trkpt lat="49.88413" lon="2.02756">
        <ele>54.9</ele>
        <time>2023-05-31T13:08:04Z</time>
      </trkpt>
      <trkpt lat="49.88413" lon="2.02756">
        <ele>54.9</ele>
        <time>2023-05-31T13:08:05Z</time>
      </trkpt>
      <trkpt lat="49.88413" lon="2.02755">
        <ele>54.9</ele>
        <time>2023-05-31T13:08:06Z</time>
      </trkpt>
      <trkpt lat="49.88413" lon="2.02755">
        <ele>54.9</ele>
        <time>2023-05-31T13:08:07Z</time>
      </trkpt>
      <trkpt lat="49.88413" lon="2.02755">
        <ele>54.9</ele>
        <time>2023-05-31T13:08:08Z</time>
      </trkpt>
      <trkpt lat="49.88413" lon="2.02755">
        <ele>54.9</ele>
        <time>2023-05-31T13:08:09Z</time>
      </trkpt>
      <trkpt lat="49.88413" lon="2.02755">
        <ele>54.9</ele>
        <time>2023-05-31T13:08:10Z</time>
      </trkpt>
      <trkpt lat="49.88413" lon="2.02755">
        <ele>54.9</ele>
        <time>2023-05-31T13:08:11Z</time>
      </trkpt>
      <trkpt lat="49.88413" lon="2.02755">
        <ele>54.9</ele>
        <time>2023-05-31T13:08:12Z</time>
      </trkpt>
      <trkpt lat="49.88413" lon="2.02755">
        <ele>54.9</ele>
        <time>2023-05-31T13:08:13Z</time>
      </trkpt>
      <trkpt lat="49.88413" lon="2.02755">
        <ele>54.9</ele>
        <time>2023-05-31T13:08:14Z</time>
      </trkpt>
      <trkpt lat="49.88413" lon="2.02755">
        <ele>54.9</ele>
        <time>2023-05-31T13:08:15Z</time>
      </trkpt>
      <trkpt lat="49.88413" lon="2.02755">
        <ele>54.9</ele>
        <time>2023-05-31T13:08:16Z</time>
      </trkpt>
      <trkpt lat="49.88413" lon="2.02755">
        <ele>54.9</ele>
        <time>2023-05-31T13:08:17Z</time>
      </trkpt>
      <trkpt lat="49.88413" lon="2.02755">
        <ele>54.9</ele>
        <time>2023-05-31T13:08:18Z</time>
      </trkpt>
      <trkpt lat="49.88413" lon="2.02755">
        <ele>54.9</ele>
        <time>2023-05-31T13:08:19Z</time>
      </trkpt>
      <trkpt lat="49.88413" lon="2.02755">
        <ele>54.9</ele>
        <time>2023-05-31T13:08:20Z</time>
      </trkpt>
      <trkpt lat="49.88413" lon="2.02755">
        <ele>54.9</ele>
        <time>2023-05-31T13:08:21Z</time>
      </trkpt>
      <trkpt lat="49.88413" lon="2.02755">
        <ele>54.9</ele>
        <time>2023-05-31T13:08:22Z</time>
      </trkpt>
      <trkpt lat="49.88413" lon="2.02755">
        <ele>54.9</ele>
        <time>2023-05-31T13:08:23Z</time>
      </trkpt>
      <trkpt lat="49.88413" lon="2.02755">
        <ele>54.9</ele>
        <time>2023-05-31T13:08:24Z</time>
      </trkpt>
      <trkpt lat="49.88413" lon="2.02755">
        <ele>54.9</ele>
        <time>2023-05-31T13:08:25Z</time>
      </trkpt>
      <trkpt lat="49.88413" lon="2.02755">
        <ele>54.9</ele>
        <time>2023-05-31T13:08:26Z</time>
      </trkpt>
      <trkpt lat="49.88413" lon="2.02755">
        <ele>54.9</ele>
        <time>2023-05-31T13:08:27Z</time>
      </trkpt>
      <trkpt lat="49.88413" lon="2.02755">
        <ele>54.9</ele>
        <time>2023-05-31T13:08:28Z</time>
      </trkpt>
      <trkpt lat="49.88413" lon="2.02755">
        <ele>54.9</ele>
        <time>2023-05-31T13:08:29Z</time>
      </trkpt>
      <trkpt lat="49.88413" lon="2.02755">
        <ele>54.9</ele>
        <time>2023-05-31T13:08:30Z</time>
      </trkpt>
      <trkpt lat="49.88413" lon="2.02755">
        <ele>54.9</ele>
        <time>2023-05-31T13:08:31Z</time>
      </trkpt>
      <trkpt lat="49.88413" lon="2.02755">
        <ele>54.9</ele>
        <time>2023-05-31T13:08:32Z</time>
      </trkpt>
      <trkpt lat="49.88413" lon="2.02755">
        <ele>54.9</ele>
        <time>2023-05-31T13:08:33Z</time>
      </trkpt>
      <trkpt lat="49.88413" lon="2.02755">
        <ele>54.9</ele>
        <time>2023-05-31T13:08:34Z</time>
      </trkpt>
      <trkpt lat="49.88413" lon="2.02755">
        <ele>54.9</ele>
        <time>2023-05-31T13:08:35Z</time>
      </trkpt>
      <trkpt lat="49.88413" lon="2.02755">
        <ele>54.9</ele>
        <time>2023-05-31T13:08:36Z</time>
      </trkpt>
      <trkpt lat="49.88413" lon="2.02755">
        <ele>54.9</ele>
        <time>2023-05-31T13:08:37Z</time>
      </trkpt>
      <trkpt lat="49.88413" lon="2.02755">
        <ele>54.9</ele>
        <time>2023-05-31T13:08:38Z</time>
      </trkpt>
      <trkpt lat="49.88413" lon="2.02755">
        <ele>54.9</ele>
        <time>2023-05-31T13:08:39Z</time>
      </trkpt>
      <trkpt lat="49.88413" lon="2.02755">
        <ele>54.9</ele>
        <time>2023-05-31T13:08:40Z</time>
      </trkpt>
      <trkpt lat="49.88413" lon="2.02755">
        <ele>54.9</ele>
        <time>2023-05-31T13:08:41Z</time>
      </trkpt>
      <trkpt lat="49.88413" lon="2.02755">
        <ele>54.9</ele>
        <time>2023-05-31T13:08:42Z</time>
      </trkpt>
      <trkpt lat="49.88413" lon="2.02755">
        <ele>54.9</ele>
        <time>2023-05-31T13:08:43Z</time>
      </trkpt>
      <trkpt lat="49.88413" lon="2.02755">
        <ele>54.9</ele>
        <time>2023-05-31T13:08:44Z</time>
      </trkpt>
      <trkpt lat="49.88413" lon="2.02755">
        <ele>54.9</ele>
        <time>2023-05-31T13:08:45Z</time>
      </trkpt>
      <trkpt lat="49.88413" lon="2.02755">
        <ele>54.9</ele>
        <time>2023-05-31T13:08:46Z</time>
      </trkpt>
      <trkpt lat="49.88413" lon="2.02755">
        <ele>54.9</ele>
        <time>2023-05-31T13:08:47Z</time>
      </trkpt>
      <trkpt lat="49.88413" lon="2.02755">
        <ele>54.9</ele>
        <time>2023-05-31T13:08:48Z</time>
      </trkpt>
      <trkpt lat="49.88413" lon="2.02755">
        <ele>54.9</ele>
        <time>2023-05-31T13:08:49Z</time>
      </trkpt>
      <trkpt lat="49.88413" lon="2.02755">
        <ele>54.9</ele>
        <time>2023-05-31T13:08:50Z</time>
      </trkpt>
      <trkpt lat="49.88413" lon="2.02755">
        <ele>54.9</ele>
        <time>2023-05-31T13:08:51Z</time>
      </trkpt>
      <trkpt lat="49.88413" lon="2.02755">
        <ele>54.9</ele>
        <time>2023-05-31T13:08:52Z</time>
      </trkpt>
      <trkpt lat="49.88413" lon="2.02755">
        <ele>54.9</ele>
        <time>2023-05-31T13:08:53Z</time>
      </trkpt>
      <trkpt lat="49.88413" lon="2.02755">
        <ele>54.9</ele>
        <time>2023-05-31T13:08:54Z</time>
      </trkpt>
      <trkpt lat="49.88413" lon="2.02755">
        <ele>54.9</ele>
        <time>2023-05-31T13:08:55Z</time>
      </trkpt>
      <trkpt lat="49.88413" lon="2.02755">
        <ele>54.9</ele>
        <time>2023-05-31T13:08:56Z</time>
      </trkpt>
      <trkpt lat="49.88413" lon="2.02755">
        <ele>54.9</ele>
        <time>2023-05-31T13:08:57Z</time>
      </trkpt>
      <trkpt lat="49.88413" lon="2.02755">
        <ele>54.9</ele>
        <time>2023-05-31T13:08:58Z</time>
      </trkpt>
      <trkpt lat="49.88413" lon="2.02755">
        <ele>54.9</ele>
        <time>2023-05-31T13:08:59Z</time>
      </trkpt>
      <trkpt lat="49.88413" lon="2.02755">
        <ele>54.9</ele>
        <time>2023-05-31T13:09:00Z</time>
      </trkpt>
      <trkpt lat="49.88413" lon="2.02755">
        <ele>54.9</ele>
        <time>2023-05-31T13:09:01Z</time>
      </trkpt>
      <trkpt lat="49.88413" lon="2.02755">
        <ele>54.9</ele>
        <time>2023-05-31T13:09:02Z</time>
      </trkpt>
      <trkpt lat="49.88413" lon="2.02755">
        <ele>54.9</ele>
        <time>2023-05-31T13:09:03Z</time>
      </trkpt>
      <trkpt lat="49.88413" lon="2.02755">
        <ele>54.9</ele>
        <time>2023-05-31T13:09:04Z</time>
      </trkpt>
      <trkpt lat="49.88413" lon="2.02755">
        <ele>54.9</ele>
        <time>2023-05-31T13:09:05Z</time>
      </trkpt>
      <trkpt lat="49.88413" lon="2.02755">
        <ele>54.9</ele>
        <time>2023-05-31T13:09:06Z</time>
      </trkpt>
      <trkpt lat="49.88413" lon="2.02755">
        <ele>54.9</ele>
        <time>2023-05-31T13:09:07Z</time>
      </trkpt>
      <trkpt lat="49.88413" lon="2.02755">
        <ele>54.9</ele>
        <time>2023-05-31T13:09:08Z</time>
      </trkpt>
      <trkpt lat="49.88413" lon="2.02755">
        <ele>54.9</ele>
        <time>2023-05-31T13:09:09Z</time>
      </trkpt>
      <trkpt lat="49.88413" lon="2.02755">
        <ele>54.9</ele>
        <time>2023-05-31T13:09:10Z</time>
      </trkpt>
      <trkpt lat="49.88413" lon="2.02755">
        <ele>54.9</ele>
        <time>2023-05-31T13:09:11Z</time>
      </trkpt>
      <trkpt lat="49.88413" lon="2.02755">
        <ele>54.9</ele>
        <time>2023-05-31T13:09:12Z</time>
      </trkpt>
      <trkpt lat="49.88413" lon="2.02755">
        <ele>54.9</ele>
        <time>2023-05-31T13:09:13Z</time>
      </trkpt>
      <trkpt lat="49.88413" lon="2.02755">
        <ele>54.9</ele>
        <time>2023-05-31T13:09:14Z</time>
      </trkpt>
      <trkpt lat="49.88413" lon="2.02755">
        <ele>54.9</ele>
        <time>2023-05-31T13:09:15Z</time>
      </trkpt>
      <trkpt lat="49.88413" lon="2.02755">
        <ele>54.9</ele>
        <time>2023-05-31T13:09:16Z</time>
      </trkpt>
      <trkpt lat="49.88413" lon="2.02755">
        <ele>54.9</ele>
        <time>2023-05-31T13:09:17Z</time>
      </trkpt>
      <trkpt lat="49.88413" lon="2.02755">
        <ele>54.9</ele>
        <time>2023-05-31T13:09:18Z</time>
      </trkpt>
      <trkpt lat="49.88413" lon="2.02755">
        <ele>54.9</ele>
        <time>2023-05-31T13:09:19Z</time>
      </trkpt>
      <trkpt lat="49.88413" lon="2.02755">
        <ele>54.9</ele>
        <time>2023-05-31T13:09:20Z</time>
      </trkpt>
      <trkpt lat="49.88413" lon="2.02755">
        <ele>54.9</ele>
        <time>2023-05-31T13:09:21Z</time>
      </trkpt>
      <trkpt lat="49.88413" lon="2.02755">
        <ele>54.9</ele>
        <time>2023-05-31T13:09:22Z</time>
      </trkpt>
      <trkpt lat="49.88413" lon="2.02755">
        <ele>54.9</ele>
        <time>2023-05-31T13:09:23Z</time>
      </trkpt>
      <trkpt lat="49.88413" lon="2.02755">
        <ele>54.9</ele>
        <time>2023-05-31T13:09:24Z</time>
      </trkpt>
      <trkpt lat="49.88413" lon="2.02755">
        <ele>54.9</ele>
        <time>2023-05-31T13:09:25Z</time>
      </trkpt>
      <trkpt lat="49.88413" lon="2.02755">
        <ele>54.9</ele>
        <time>2023-05-31T13:09:26Z</time>
      </trkpt>
      <trkpt lat="49.88413" lon="2.02755">
        <ele>54.9</ele>
        <time>2023-05-31T13:09:27Z</time>
      </trkpt>
      <trkpt lat="49.88413" lon="2.02755">
        <ele>54.9</ele>
        <time>2023-05-31T13:09:28Z</time>
      </trkpt>
      <trkpt lat="49.88413" lon="2.02755">
        <ele>54.9</ele>
        <time>2023-05-31T13:09:29Z</time>
      </trkpt>
      <trkpt lat="49.88413" lon="2.02755">
        <ele>54.9</ele>
        <time>2023-05-31T13:09:30Z</time>
      </trkpt>
      <trkpt lat="49.88413" lon="2.02755">
        <ele>54.9</ele>
        <time>2023-05-31T13:09:31Z</time>
      </trkpt>
      <trkpt lat="49.88413" lon="2.02755">
        <ele>54.9</ele>
        <time>2023-05-31T13:09:32Z</time>
      </trkpt>
      <trkpt lat="49.88413" lon="2.02755">
        <ele>54.9</ele>
        <time>2023-05-31T13:09:33Z</time>
      </trkpt>
      <trkpt lat="49.88413" lon="2.02755">
        <ele>54.9</ele>
        <time>2023-05-31T13:09:34Z</time>
      </trkpt>
      <trkpt lat="49.88413" lon="2.02755">
        <ele>54.9</ele>
        <time>2023-05-31T13:09:35Z</time>
      </trkpt>
      <trkpt lat="49.88413" lon="2.02755">
        <ele>54.9</ele>
        <time>2023-05-31T13:09:36Z</time>
      </trkpt>
      <trkpt lat="49.88413" lon="2.02755">
        <ele>54.9</ele>
        <time>2023-05-31T13:09:37Z</time>
      </trkpt>
      <trkpt lat="49.88413" lon="2.02755">
        <ele>54.9</ele>
        <time>2023-05-31T13:09:38Z</time>
      </trkpt>
      <trkpt lat="49.88413" lon="2.02755">
        <ele>54.9</ele>
        <time>2023-05-31T13:09:39Z</time>
      </trkpt>
      <trkpt lat="49.88413" lon="2.02755">
        <ele>54.9</ele>
        <time>2023-05-31T13:09:40Z</time>
      </trkpt>
      <trkpt lat="49.88413" lon="2.02755">
        <ele>54.9</ele>
        <time>2023-05-31T13:09:41Z</time>
      </trkpt>
      <trkpt lat="49.88413" lon="2.02755">
        <ele>54.9</ele>
        <time>2023-05-31T13:09:42Z</time>
      </trkpt>
      <trkpt lat="49.88413" lon="2.02755">
        <ele>54.9</ele>
        <time>2023-05-31T13:09:43Z</time>
      </trkpt>
      <trkpt lat="49.88413" lon="2.02755">
        <ele>54.9</ele>
        <time>2023-05-31T13:09:44Z</time>
      </trkpt>
      <trkpt lat="49.88413" lon="2.02755">
        <ele>54.9</ele>
        <time>2023-05-31T13:09:45Z</time>
      </trkpt>
      <trkpt lat="49.88413" lon="2.02755">
        <ele>54.9</ele>
        <time>2023-05-31T13:09:46Z</time>
      </trkpt>
      <trkpt lat="49.88413" lon="2.02755">
        <ele>54.9</ele>
        <time>2023-05-31T13:09:47Z</time>
      </trkpt>
      <trkpt lat="49.88413" lon="2.02755">
        <ele>54.9</ele>
        <time>2023-05-31T13:09:48Z</time>
      </trkpt>
      <trkpt lat="49.88413" lon="2.02755">
        <ele>54.9</ele>
        <time>2023-05-31T13:09:49Z</time>
      </trkpt>
      <trkpt lat="49.88413" lon="2.02755">
        <ele>54.9</ele>
        <time>2023-05-31T13:09:50Z</time>
      </trkpt>
      <trkpt lat="49.88413" lon="2.02755">
        <ele>54.9</ele>
        <time>2023-05-31T13:09:51Z</time>
      </trkpt>
      <trkpt lat="49.88413" lon="2.02755">
        <ele>54.9</ele>
        <time>2023-05-31T13:09:52Z</time>
      </trkpt>
      <trkpt lat="49.88413" lon="2.02755">
        <ele>54.9</ele>
        <time>2023-05-31T13:09:53Z</time>
      </trkpt>
      <trkpt lat="49.88413" lon="2.02755">
        <ele>54.9</ele>
        <time>2023-05-31T13:09:54Z</time>
      </trkpt>
      <trkpt lat="49.88413" lon="2.02755">
        <ele>54.9</ele>
        <time>2023-05-31T13:09:55Z</time>
      </trkpt>
      <trkpt lat="49.88413" lon="2.02755">
        <ele>54.9</ele>
        <time>2023-05-31T13:09:56Z</time>
      </trkpt>
      <trkpt lat="49.88413" lon="2.02755">
        <ele>54.9</ele>
        <time>2023-05-31T13:09:57Z</time>
      </trkpt>
      <trkpt lat="49.88413" lon="2.02755">
        <ele>54.9</ele>
        <time>2023-05-31T13:09:58Z</time>
      </trkpt>
      <trkpt lat="49.88413" lon="2.02755">
        <ele>54.9</ele>
        <time>2023-05-31T13:09:59Z</time>
      </trkpt>
      <trkpt lat="49.88413" lon="2.02755">
        <ele>54.9</ele>
        <time>2023-05-31T13:10:00Z</time>
      </trkpt>
      <trkpt lat="49.88413" lon="2.02755">
        <ele>54.9</ele>
        <time>2023-05-31T13:10:01Z</time>
      </trkpt>
      <trkpt lat="49.88413" lon="2.02755">
        <ele>54.9</ele>
        <time>2023-05-31T13:10:02Z</time>
      </trkpt>
      <trkpt lat="49.88413" lon="2.02755">
        <ele>54.9</ele>
        <time>2023-05-31T13:10:03Z</time>
      </trkpt>
      <trkpt lat="49.88413" lon="2.02755">
        <ele>54.9</ele>
        <time>2023-05-31T13:10:04Z</time>
      </trkpt>
      <trkpt lat="49.88413" lon="2.02755">
        <ele>54.9</ele>
        <time>2023-05-31T13:10:05Z</time>
      </trkpt>
      <trkpt lat="49.88413" lon="2.02755">
        <ele>54.9</ele>
        <time>2023-05-31T13:10:06Z</time>
      </trkpt>
      <trkpt lat="49.88413" lon="2.02755">
        <ele>54.9</ele>
        <time>2023-05-31T13:10:07Z</time>
      </trkpt>
      <trkpt lat="49.88413" lon="2.02755">
        <ele>54.9</ele>
        <time>2023-05-31T13:10:08Z</time>
      </trkpt>
      <trkpt lat="49.88413" lon="2.02755">
        <ele>54.9</ele>
        <time>2023-05-31T13:10:09Z</time>
      </trkpt>
      <trkpt lat="49.88413" lon="2.02755">
        <ele>54.9</ele>
        <time>2023-05-31T13:10:10Z</time>
      </trkpt>
      <trkpt lat="49.88413" lon="2.02755">
        <ele>54.9</ele>
        <time>2023-05-31T13:10:11Z</time>
      </trkpt>
      <trkpt lat="49.88413" lon="2.02755">
        <ele>54.9</ele>
        <time>2023-05-31T13:10:12Z</time>
      </trkpt>
      <trkpt lat="49.88413" lon="2.02755">
        <ele>54.9</ele>
        <time>2023-05-31T13:10:13Z</time>
      </trkpt>
      <trkpt lat="49.88413" lon="2.02755">
        <ele>54.9</ele>
        <time>2023-05-31T13:10:14Z</time>
      </trkpt>
      <trkpt lat="49.88413" lon="2.02755">
        <ele>54.9</ele>
        <time>2023-05-31T13:10:15Z</time>
      </trkpt>
      <trkpt lat="49.88413" lon="2.02755">
        <ele>54.9</ele>
        <time>2023-05-31T13:10:16Z</time>
      </trkpt>
      <trkpt lat="49.88413" lon="2.02755">
        <ele>54.9</ele>
        <time>2023-05-31T13:10:17Z</time>
      </trkpt>
      <trkpt lat="49.88413" lon="2.02755">
        <ele>54.9</ele>
        <time>2023-05-31T13:10:18Z</time>
      </trkpt>
      <trkpt lat="49.88413" lon="2.02755">
        <ele>54.9</ele>
        <time>2023-05-31T13:10:19Z</time>
      </trkpt>
      <trkpt lat="49.88413" lon="2.02755">
        <ele>54.9</ele>
        <time>2023-05-31T13:10:20Z</time>
      </trkpt>
      <trkpt lat="49.88413" lon="2.02755">
        <ele>54.9</ele>
        <time>2023-05-31T13:10:21Z</time>
      </trkpt>
      <trkpt lat="49.88413" lon="2.02755">
        <ele>54.9</ele>
        <time>2023-05-31T13:10:22Z</time>
      </trkpt>
      <trkpt lat="49.88413" lon="2.02755">
        <ele>54.9</ele>
        <time>2023-05-31T13:10:23Z</time>
      </trkpt>
      <trkpt lat="49.88413" lon="2.02755">
        <ele>54.9</ele>
        <time>2023-05-31T13:10:24Z</time>
      </trkpt>
      <trkpt lat="49.88413" lon="2.02755">
        <ele>54.9</ele>
        <time>2023-05-31T13:10:25Z</time>
      </trkpt>
      <trkpt lat="49.88413" lon="2.02755">
        <ele>54.9</ele>
        <time>2023-05-31T13:10:26Z</time>
      </trkpt>
      <trkpt lat="49.88413" lon="2.02755">
        <ele>54.9</ele>
        <time>2023-05-31T13:10:27Z</time>
      </trkpt>
      <trkpt lat="49.88413" lon="2.02755">
        <ele>54.9</ele>
        <time>2023-05-31T13:10:28Z</time>
      </trkpt>
      <trkpt lat="49.88413" lon="2.02755">
        <ele>54.9</ele>
        <time>2023-05-31T13:10:29Z</time>
      </trkpt>
      <trkpt lat="49.88413" lon="2.02755">
        <ele>54.9</ele>
        <time>2023-05-31T13:10:30Z</time>
      </trkpt>
      <trkpt lat="49.88413" lon="2.02755">
        <ele>54.9</ele>
        <time>2023-05-31T13:10:31Z</time>
      </trkpt>
      <trkpt lat="49.88413" lon="2.02755">
        <ele>54.9</ele>
        <time>2023-05-31T13:10:32Z</time>
      </trkpt>
      <trkpt lat="49.88413" lon="2.02755">
        <ele>54.9</ele>
        <time>2023-05-31T13:10:33Z</time>
      </trkpt>
      <trkpt lat="49.88413" lon="2.02755">
        <ele>54.9</ele>
        <time>2023-05-31T13:10:34Z</time>
      </trkpt>
      <trkpt lat="49.88413" lon="2.02755">
        <ele>54.9</ele>
        <time>2023-05-31T13:10:35Z</time>
      </trkpt>
      <trkpt lat="49.88413" lon="2.02755">
        <ele>54.9</ele>
        <time>2023-05-31T13:10:36Z</time>
      </trkpt>
      <trkpt lat="49.88413" lon="2.02755">
        <ele>54.9</ele>
        <time>2023-05-31T13:10:37Z</time>
      </trkpt>
      <trkpt lat="49.88413" lon="2.02755">
        <ele>54.9</ele>
        <time>2023-05-31T13:10:38Z</time>
      </trkpt>
      <trkpt lat="49.88413" lon="2.02755">
        <ele>54.9</ele>
        <time>2023-05-31T13:10:39Z</time>
      </trkpt>
      <trkpt lat="49.88413" lon="2.02755">
        <ele>54.9</ele>
        <time>2023-05-31T13:10:40Z</time>
      </trkpt>
      <trkpt lat="49.88413" lon="2.02755">
        <ele>54.9</ele>
        <time>2023-05-31T13:10:41Z</time>
      </trkpt>
      <trkpt lat="49.88413" lon="2.02755">
        <ele>54.9</ele>
        <time>2023-05-31T13:10:42Z</time>
      </trkpt>
      <trkpt lat="49.88413" lon="2.02755">
        <ele>54.9</ele>
        <time>2023-05-31T13:10:43Z</time>
      </trkpt>
      <trkpt lat="49.88413" lon="2.02755">
        <ele>54.9</ele>
        <time>2023-05-31T13:10:44Z</time>
      </trkpt>
      <trkpt lat="49.88413" lon="2.02755">
        <ele>54.9</ele>
        <time>2023-05-31T13:10:45Z</time>
      </trkpt>
      <trkpt lat="49.88413" lon="2.02755">
        <ele>54.9</ele>
        <time>2023-05-31T13:10:46Z</time>
      </trkpt>
      <trkpt lat="49.88412" lon="2.02757">
        <ele>54.9</ele>
        <time>2023-05-31T13:10:47Z</time>
      </trkpt>
      <trkpt lat="49.88412" lon="2.02757">
        <ele>54.9</ele>
        <time>2023-05-31T13:10:48Z</time>
      </trkpt>
      <trkpt lat="49.88411" lon="2.02757">
        <ele>54.9</ele>
        <time>2023-05-31T13:10:49Z</time>
      </trkpt>
      <trkpt lat="49.88412" lon="2.02757">
        <ele>54.9</ele>
        <time>2023-05-31T13:10:50Z</time>
      </trkpt>
      <trkpt lat="49.88412" lon="2.02757">
        <ele>54.9</ele>
        <time>2023-05-31T13:10:51Z</time>
      </trkpt>
      <trkpt lat="49.88412" lon="2.02757">
        <ele>54.9</ele>
        <time>2023-05-31T13:10:52Z</time>
      </trkpt>
      <trkpt lat="49.88412" lon="2.02757">
        <ele>54.9</ele>
        <time>2023-05-31T13:10:53Z</time>
      </trkpt>
      <trkpt lat="49.88412" lon="2.02757">
        <ele>54.9</ele>
        <time>2023-05-31T13:10:54Z</time>
      </trkpt>
      <trkpt lat="49.88412" lon="2.02757">
        <ele>54.9</ele>
        <time>2023-05-31T13:10:55Z</time>
      </trkpt>
      <trkpt lat="49.88412" lon="2.02757">
        <ele>54.9</ele>
        <time>2023-05-31T13:10:56Z</time>
      </trkpt>
      <trkpt lat="49.88412" lon="2.02757">
        <ele>54.9</ele>
        <time>2023-05-31T13:10:57Z</time>
      </trkpt>
      <trkpt lat="49.88412" lon="2.02757">
        <ele>54.9</ele>
        <time>2023-05-31T13:10:58Z</time>
      </trkpt>
      <trkpt lat="49.88412" lon="2.02757">
        <ele>54.9</ele>
        <time>2023-05-31T13:10:59Z</time>
      </trkpt>
      <trkpt lat="49.88412" lon="2.02757">
        <ele>54.9</ele>
        <time>2023-05-31T13:11:00Z</time>
      </trkpt>
      <trkpt lat="49.88412" lon="2.02757">
        <ele>54.9</ele>
        <time>2023-05-31T13:11:01Z</time>
      </trkpt>
      <trkpt lat="49.88412" lon="2.02757">
        <ele>54.9</ele>
        <time>2023-05-31T13:11:02Z</time>
      </trkpt>
      <trkpt lat="49.88412" lon="2.02757">
        <ele>54.9</ele>
        <time>2023-05-31T13:11:03Z</time>
      </trkpt>
      <trkpt lat="49.88412" lon="2.02757">
        <ele>54.9</ele>
        <time>2023-05-31T13:11:04Z</time>
      </trkpt>
      <trkpt lat="49.88412" lon="2.02757">
        <ele>54.9</ele>
        <time>2023-05-31T13:11:05Z</time>
      </trkpt>
      <trkpt lat="49.88412" lon="2.02757">
        <ele>54.9</ele>
        <time>2023-05-31T13:11:06Z</time>
      </trkpt>
      <trkpt lat="49.88412" lon="2.02757">
        <ele>54.9</ele>
        <time>2023-05-31T13:11:07Z</time>
      </trkpt>
      <trkpt lat="49.88412" lon="2.02757">
        <ele>54.9</ele>
        <time>2023-05-31T13:11:08Z</time>
      </trkpt>
      <trkpt lat="49.88412" lon="2.02757">
        <ele>54.9</ele>
        <time>2023-05-31T13:11:09Z</time>
      </trkpt>
      <trkpt lat="49.88412" lon="2.02757">
        <ele>54.9</ele>
        <time>2023-05-31T13:11:10Z</time>
      </trkpt>
      <trkpt lat="49.88412" lon="2.02757">
        <ele>54.9</ele>
        <time>2023-05-31T13:11:11Z</time>
      </trkpt>
      <trkpt lat="49.88412" lon="2.02757">
        <ele>54.9</ele>
        <time>2023-05-31T13:11:12Z</time>
      </trkpt>
      <trkpt lat="49.88412" lon="2.02757">
        <ele>54.9</ele>
        <time>2023-05-31T13:11:13Z</time>
      </trkpt>
      <trkpt lat="49.88411" lon="2.02757">
        <ele>54.9</ele>
        <time>2023-05-31T13:11:14Z</time>
      </trkpt>
      <trkpt lat="49.88411" lon="2.02757">
        <ele>54.9</ele>
        <time>2023-05-31T13:11:15Z</time>
      </trkpt>
      <trkpt lat="49.88411" lon="2.02757">
        <ele>54.9</ele>
        <time>2023-05-31T13:11:16Z</time>
      </trkpt>
      <trkpt lat="49.88411" lon="2.02757">
        <ele>54.9</ele>
        <time>2023-05-31T13:11:17Z</time>
      </trkpt>
      <trkpt lat="49.88411" lon="2.02757">
        <ele>54.9</ele>
        <time>2023-05-31T13:11:18Z</time>
      </trkpt>
      <trkpt lat="49.88411" lon="2.02757">
        <ele>54.9</ele>
        <time>2023-05-31T13:11:19Z</time>
      </trkpt>
      <trkpt lat="49.88411" lon="2.02757">
        <ele>54.9</ele>
        <time>2023-05-31T13:11:20Z</time>
      </trkpt>
      <trkpt lat="49.88411" lon="2.02757">
        <ele>54.9</ele>
        <time>2023-05-31T13:11:21Z</time>
      </trkpt>
      <trkpt lat="49.88411" lon="2.02757">
        <ele>54.9</ele>
        <time>2023-05-31T13:11:22Z</time>
      </trkpt>
      <trkpt lat="49.88411" lon="2.02757">
        <ele>54.9</ele>
        <time>2023-05-31T13:11:23Z</time>
      </trkpt>
      <trkpt lat="49.88411" lon="2.02756">
        <ele>54.9</ele>
        <time>2023-05-31T13:11:24Z</time>
      </trkpt>
      <trkpt lat="49.88411" lon="2.02755">
        <ele>54.9</ele>
        <time>2023-05-31T13:11:25Z</time>
      </trkpt>
      <trkpt lat="49.88412" lon="2.02754">
        <ele>54.8</ele>
        <time>2023-05-31T13:11:26Z</time>
      </trkpt>
      <trkpt lat="49.88412" lon="2.02752">
        <ele>54.8</ele>
        <time>2023-05-31T13:11:27Z</time>
      </trkpt>
      <trkpt lat="49.88412" lon="2.0275">
        <ele>54.8</ele>
        <time>2023-05-31T13:11:28Z</time>
      </trkpt>
      <trkpt lat="49.88412" lon="2.0275">
        <ele>54.8</ele>
        <time>2023-05-31T13:11:29Z</time>
      </trkpt>
      <trkpt lat="49.88412" lon="2.02749">
        <ele>54.8</ele>
        <time>2023-05-31T13:11:30Z</time>
      </trkpt>
      <trkpt lat="49.88412" lon="2.02748">
        <ele>54.8</ele>
        <time>2023-05-31T13:11:31Z</time>
      </trkpt>
      <trkpt lat="49.88412" lon="2.02747">
        <ele>54.8</ele>
        <time>2023-05-31T13:11:32Z</time>
      </trkpt>
      <trkpt lat="49.88413" lon="2.02746">
        <ele>54.8</ele>
        <time>2023-05-31T13:11:33Z</time>
      </trkpt>
      <trkpt lat="49.88413" lon="2.02744">
        <ele>54.7</ele>
        <time>2023-05-31T13:11:35Z</time>
      </trkpt>
      <trkpt lat="49.88413" lon="2.02742">
        <ele>54.7</ele>
        <time>2023-05-31T13:11:36Z</time>
      </trkpt>
      <trkpt lat="49.88414" lon="2.0274">
        <ele>54.1</ele>
        <time>2023-05-31T13:11:37Z</time>
      </trkpt>
      <trkpt lat="49.88414" lon="2.02738">
        <ele>54.1</ele>
        <time>2023-05-31T13:11:38Z</time>
      </trkpt>
      <trkpt lat="49.88414" lon="2.02737">
        <ele>54</ele>
        <time>2023-05-31T13:11:40Z</time>
      </trkpt>
      <trkpt lat="49.88414" lon="2.02734">
        <ele>54</ele>
        <time>2023-05-31T13:11:41Z</time>
      </trkpt>
      <trkpt lat="49.88414" lon="2.02733">
        <ele>54</ele>
        <time>2023-05-31T13:11:43Z</time>
      </trkpt>
      <trkpt lat="49.88414" lon="2.02732">
        <ele>54</ele>
        <time>2023-05-31T13:11:44Z</time>
      </trkpt>
      <trkpt lat="49.88414" lon="2.02731">
        <ele>54</ele>
        <time>2023-05-31T13:11:45Z</time>
      </trkpt>
      <trkpt lat="49.88413" lon="2.02729">
        <ele>54</ele>
        <time>2023-05-31T13:11:46Z</time>
      </trkpt>
      <trkpt lat="49.88413" lon="2.02727">
        <ele>54</ele>
        <time>2023-05-31T13:11:47Z</time>
      </trkpt>
      <trkpt lat="49.88413" lon="2.02724">
        <ele>54</ele>
        <time>2023-05-31T13:11:48Z</time>
      </trkpt>
      <trkpt lat="49.88412" lon="2.02723">
        <ele>53.9</ele>
        <time>2023-05-31T13:11:50Z</time>
      </trkpt>
      <trkpt lat="49.88412" lon="2.02721">
        <ele>53.9</ele>
        <time>2023-05-31T13:11:51Z</time>
      </trkpt>
      <trkpt lat="49.88412" lon="2.02719">
        <ele>53.9</ele>
        <time>2023-05-31T13:11:52Z</time>
      </trkpt>
      <trkpt lat="49.88411" lon="2.02717">
        <ele>53.9</ele>
        <time>2023-05-31T13:11:53Z</time>
      </trkpt>
      <trkpt lat="49.88411" lon="2.02713">
        <ele>53.9</ele>
        <time>2023-05-31T13:11:54Z</time>
      </trkpt>
      <trkpt lat="49.88411" lon="2.02712">
        <ele>53.9</ele>
        <time>2023-05-31T13:11:56Z</time>
      </trkpt>
      <trkpt lat="49.88411" lon="2.0271">
        <ele>53.9</ele>
        <time>2023-05-31T13:11:57Z</time>
      </trkpt>
      <trkpt lat="49.88411" lon="2.02708">
        <ele>53.8</ele>
        <time>2023-05-31T13:11:58Z</time>
      </trkpt>
      <trkpt lat="49.88411" lon="2.02707">
        <ele>53.8</ele>
        <time>2023-05-31T13:11:59Z</time>
      </trkpt>
      <trkpt lat="49.88411" lon="2.02705">
        <ele>53.8</ele>
        <time>2023-05-31T13:12:00Z</time>
      </trkpt>
      <trkpt lat="49.88411" lon="2.02702">
        <ele>53.8</ele>
        <time>2023-05-31T13:12:01Z</time>
      </trkpt>
      <trkpt lat="49.88411" lon="2.02698">
        <ele>53.8</ele>
        <time>2023-05-31T13:12:02Z</time>
      </trkpt>
      <trkpt lat="49.8841" lon="2.02697">
        <ele>53.8</ele>
        <time>2023-05-31T13:12:04Z</time>
      </trkpt>
      <trkpt lat="49.8841" lon="2.02695">
        <ele>53.8</ele>
        <time>2023-05-31T13:12:05Z</time>
      </trkpt>
      <trkpt lat="49.8841" lon="2.02694">
        <ele>53.8</ele>
        <time>2023-05-31T13:12:06Z</time>
      </trkpt>
      <trkpt lat="49.8841" lon="2.02692">
        <ele>53.8</ele>
        <time>2023-05-31T13:12:07Z</time>
      </trkpt>
      <trkpt lat="49.8841" lon="2.02689">
        <ele>53.8</ele>
        <time>2023-05-31T13:12:08Z</time>
      </trkpt>
      <trkpt lat="49.88409" lon="2.02687">
        <ele>53.8</ele>
        <time>2023-05-31T13:12:09Z</time>
      </trkpt>
      <trkpt lat="49.88409" lon="2.02686">
        <ele>53.7</ele>
        <time>2023-05-31T13:12:10Z</time>
      </trkpt>
      <trkpt lat="49.88409" lon="2.02684">
        <ele>53.7</ele>
        <time>2023-05-31T13:12:11Z</time>
      </trkpt>
      <trkpt lat="49.88408" lon="2.02682">
        <ele>53.7</ele>
        <time>2023-05-31T13:12:12Z</time>
      </trkpt>
      <trkpt lat="49.88408" lon="2.02679">
        <ele>53.7</ele>
        <time>2023-05-31T13:12:13Z</time>
      </trkpt>
      <trkpt lat="49.88408" lon="2.02677">
        <ele>53.7</ele>
        <time>2023-05-31T13:12:15Z</time>
      </trkpt>
      <trkpt lat="49.88407" lon="2.02675">
        <ele>53.7</ele>
        <time>2023-05-31T13:12:16Z</time>
      </trkpt>
      <trkpt lat="49.88407" lon="2.02673">
        <ele>53.7</ele>
        <time>2023-05-31T13:12:17Z</time>
      </trkpt>
      <trkpt lat="49.88407" lon="2.02671">
        <ele>53.7</ele>
        <time>2023-05-31T13:12:18Z</time>
      </trkpt>
      <trkpt lat="49.88406" lon="2.02668">
        <ele>53.7</ele>
        <time>2023-05-31T13:12:19Z</time>
      </trkpt>
      <trkpt lat="49.88405" lon="2.02665">
        <ele>53.7</ele>
        <time>2023-05-31T13:12:20Z</time>
      </trkpt>
      <trkpt lat="49.88405" lon="2.02664">
        <ele>53.7</ele>
        <time>2023-05-31T13:12:22Z</time>
      </trkpt>
      <trkpt lat="49.88405" lon="2.02663">
        <ele>53.7</ele>
        <time>2023-05-31T13:12:23Z</time>
      </trkpt>
      <trkpt lat="49.88404" lon="2.02661">
        <ele>53.7</ele>
        <time>2023-05-31T13:12:24Z</time>
      </trkpt>
      <trkpt lat="49.88404" lon="2.02659">
        <ele>53.7</ele>
        <time>2023-05-31T13:12:25Z</time>
      </trkpt>
      <trkpt lat="49.88403" lon="2.02656">
        <ele>53.7</ele>
        <time>2023-05-31T13:12:26Z</time>
      </trkpt>
      <trkpt lat="49.88402" lon="2.02655">
        <ele>53.7</ele>
        <time>2023-05-31T13:12:27Z</time>
      </trkpt>
      <trkpt lat="49.88402" lon="2.02653">
        <ele>53.7</ele>
        <time>2023-05-31T13:12:28Z</time>
      </trkpt>
      <trkpt lat="49.88401" lon="2.02652">
        <ele>53.7</ele>
        <time>2023-05-31T13:12:29Z</time>
      </trkpt>
      <trkpt lat="49.884" lon="2.0265">
        <ele>53.7</ele>
        <time>2023-05-31T13:12:31Z</time>
      </trkpt>
      <trkpt lat="49.884" lon="2.02648">
        <ele>53.7</ele>
        <time>2023-05-31T13:12:32Z</time>
      </trkpt>
      <trkpt lat="49.88399" lon="2.02646">
        <ele>53.7</ele>
        <time>2023-05-31T13:12:33Z</time>
      </trkpt>
      <trkpt lat="49.88398" lon="2.02643">
        <ele>53.7</ele>
        <time>2023-05-31T13:12:34Z</time>
      </trkpt>
      <trkpt lat="49.88397" lon="2.02642">
        <ele>53.7</ele>
        <time>2023-05-31T13:12:35Z</time>
      </trkpt>
      <trkpt lat="49.88397" lon="2.02641">
        <ele>53.7</ele>
        <time>2023-05-31T13:12:36Z</time>
      </trkpt>
      <trkpt lat="49.88396" lon="2.0264">
        <ele>53.7</ele>
        <time>2023-05-31T13:12:37Z</time>
      </trkpt>
      <trkpt lat="49.88396" lon="2.02638">
        <ele>53.7</ele>
        <time>2023-05-31T13:12:39Z</time>
      </trkpt>
      <trkpt lat="49.88395" lon="2.02636">
        <ele>53.7</ele>
        <time>2023-05-31T13:12:40Z</time>
      </trkpt>
      <trkpt lat="49.88395" lon="2.02635">
        <ele>53.7</ele>
        <time>2023-05-31T13:12:41Z</time>
      </trkpt>
      <trkpt lat="49.88394" lon="2.02633">
        <ele>53.7</ele>
        <time>2023-05-31T13:12:42Z</time>
      </trkpt>
      <trkpt lat="49.88394" lon="2.02632">
        <ele>53.7</ele>
        <time>2023-05-31T13:12:43Z</time>
      </trkpt>
      <trkpt lat="49.88393" lon="2.0263">
        <ele>53.7</ele>
        <time>2023-05-31T13:12:44Z</time>
      </trkpt>
      <trkpt lat="49.88392" lon="2.02629">
        <ele>53.7</ele>
        <time>2023-05-31T13:12:45Z</time>
      </trkpt>
      <trkpt lat="49.88392" lon="2.02628">
        <ele>53.7</ele>
        <time>2023-05-31T13:12:46Z</time>
      </trkpt>
      <trkpt lat="49.88391" lon="2.02626">
        <ele>53.7</ele>
        <time>2023-05-31T13:12:48Z</time>
      </trkpt>
      <trkpt lat="49.8839" lon="2.02625">
        <ele>53.7</ele>
        <time>2023-05-31T13:12:49Z</time>
      </trkpt>
      <trkpt lat="49.8839" lon="2.02624">
        <ele>53.7</ele>
        <time>2023-05-31T13:12:50Z</time>
      </trkpt>
      <trkpt lat="49.88389" lon="2.02622">
        <ele>53.7</ele>
        <time>2023-05-31T13:12:51Z</time>
      </trkpt>
      <trkpt lat="49.88389" lon="2.02621">
        <ele>53.7</ele>
        <time>2023-05-31T13:12:52Z</time>
      </trkpt>
      <trkpt lat="49.88388" lon="2.0262">
        <ele>53.7</ele>
        <time>2023-05-31T13:12:53Z</time>
      </trkpt>
      <trkpt lat="49.88388" lon="2.02618">
        <ele>53.7</ele>
        <time>2023-05-31T13:12:55Z</time>
      </trkpt>
      <trkpt lat="49.88387" lon="2.02616">
        <ele>53.7</ele>
        <time>2023-05-31T13:12:56Z</time>
      </trkpt>
      <trkpt lat="49.88387" lon="2.02615">
        <ele>53.7</ele>
        <time>2023-05-31T13:12:57Z</time>
      </trkpt>
      <trkpt lat="49.88386" lon="2.02612">
        <ele>53.7</ele>
        <time>2023-05-31T13:12:58Z</time>
      </trkpt>
      <trkpt lat="49.88386" lon="2.02611">
        <ele>53.7</ele>
        <time>2023-05-31T13:12:59Z</time>
      </trkpt>
      <trkpt lat="49.88385" lon="2.0261">
        <ele>53.7</ele>
        <time>2023-05-31T13:13:00Z</time>
      </trkpt>
      <trkpt lat="49.88385" lon="2.02608">
        <ele>53.7</ele>
        <time>2023-05-31T13:13:01Z</time>
      </trkpt>
      <trkpt lat="49.88384" lon="2.02606">
        <ele>53.7</ele>
        <time>2023-05-31T13:13:02Z</time>
      </trkpt>
      <trkpt lat="49.88384" lon="2.02605">
        <ele>53.7</ele>
        <time>2023-05-31T13:13:03Z</time>
      </trkpt>
      <trkpt lat="49.88383" lon="2.02603">
        <ele>53.7</ele>
        <time>2023-05-31T13:13:05Z</time>
      </trkpt>
      <trkpt lat="49.88382" lon="2.02602">
        <ele>53.7</ele>
        <time>2023-05-31T13:13:06Z</time>
      </trkpt>
      <trkpt lat="49.88382" lon="2.02601">
        <ele>53.6</ele>
        <time>2023-05-31T13:13:07Z</time>
      </trkpt>
      <trkpt lat="49.88381" lon="2.026">
        <ele>53.6</ele>
        <time>2023-05-31T13:13:08Z</time>
      </trkpt>
      <trkpt lat="49.88381" lon="2.02598">
        <ele>53.6</ele>
        <time>2023-05-31T13:13:09Z</time>
      </trkpt>
      <trkpt lat="49.8838" lon="2.02597">
        <ele>53.6</ele>
        <time>2023-05-31T13:13:10Z</time>
      </trkpt>
      <trkpt lat="49.88379" lon="2.02595">
        <ele>53.6</ele>
        <time>2023-05-31T13:13:11Z</time>
      </trkpt>
      <trkpt lat="49.88378" lon="2.02593">
        <ele>53.6</ele>
        <time>2023-05-31T13:13:12Z</time>
      </trkpt>
      <trkpt lat="49.88378" lon="2.02592">
        <ele>53.6</ele>
        <time>2023-05-31T13:13:14Z</time>
      </trkpt>
      <trkpt lat="49.88377" lon="2.02589">
        <ele>53.6</ele>
        <time>2023-05-31T13:13:15Z</time>
      </trkpt>
      <trkpt lat="49.88376" lon="2.02588">
        <ele>53.6</ele>
        <time>2023-05-31T13:13:16Z</time>
      </trkpt>
      <trkpt lat="49.88376" lon="2.02587">
        <ele>53.6</ele>
        <time>2023-05-31T13:13:17Z</time>
      </trkpt>
      <trkpt lat="49.88375" lon="2.02586">
        <ele>53.6</ele>
        <time>2023-05-31T13:13:19Z</time>
      </trkpt>
      <trkpt lat="49.88374" lon="2.02584">
        <ele>53.5</ele>
        <time>2023-05-31T13:13:20Z</time>
      </trkpt>
      <trkpt lat="49.88374" lon="2.02583">
        <ele>53.5</ele>
        <time>2023-05-31T13:13:21Z</time>
      </trkpt>
      <trkpt lat="49.88373" lon="2.02581">
        <ele>53.5</ele>
        <time>2023-05-31T13:13:22Z</time>
      </trkpt>
      <trkpt lat="49.88372" lon="2.02579">
        <ele>53.5</ele>
        <time>2023-05-31T13:13:23Z</time>
      </trkpt>
      <trkpt lat="49.88371" lon="2.02576">
        <ele>53.5</ele>
        <time>2023-05-31T13:13:24Z</time>
      </trkpt>
      <trkpt lat="49.88371" lon="2.02575">
        <ele>53.4</ele>
        <time>2023-05-31T13:13:25Z</time>
      </trkpt>
      <trkpt lat="49.8837" lon="2.02574">
        <ele>53.4</ele>
        <time>2023-05-31T13:13:26Z</time>
      </trkpt>
      <trkpt lat="49.88369" lon="2.02572">
        <ele>53.4</ele>
        <time>2023-05-31T13:13:28Z</time>
      </trkpt>
      <trkpt lat="49.88369" lon="2.0257">
        <ele>53.4</ele>
        <time>2023-05-31T13:13:29Z</time>
      </trkpt>
      <trkpt lat="49.88368" lon="2.02568">
        <ele>53.4</ele>
        <time>2023-05-31T13:13:30Z</time>
      </trkpt>
      <trkpt lat="49.88367" lon="2.02567">
        <ele>53.3</ele>
        <time>2023-05-31T13:13:31Z</time>
      </trkpt>
      <trkpt lat="49.88367" lon="2.02565">
        <ele>53.3</ele>
        <time>2023-05-31T13:13:32Z</time>
      </trkpt>
      <trkpt lat="49.88366" lon="2.02563">
        <ele>53.3</ele>
        <time>2023-05-31T13:13:33Z</time>
      </trkpt>
      <trkpt lat="49.88364" lon="2.0256">
        <ele>53.2</ele>
        <time>2023-05-31T13:13:34Z</time>
      </trkpt>
      <trkpt lat="49.88364" lon="2.02559">
        <ele>53.2</ele>
        <time>2023-05-31T13:13:35Z</time>
      </trkpt>
      <trkpt lat="49.88363" lon="2.02558">
        <ele>53.2</ele>
        <time>2023-05-31T13:13:36Z</time>
      </trkpt>
      <trkpt lat="49.88362" lon="2.02555">
        <ele>53.2</ele>
        <time>2023-05-31T13:13:37Z</time>
      </trkpt>
      <trkpt lat="49.88361" lon="2.02554">
        <ele>53.1</ele>
        <time>2023-05-31T13:13:39Z</time>
      </trkpt>
      <trkpt lat="49.88361" lon="2.02553">
        <ele>53.1</ele>
        <time>2023-05-31T13:13:40Z</time>
      </trkpt>
      <trkpt lat="49.8836" lon="2.02552">
        <ele>53.1</ele>
        <time>2023-05-31T13:13:41Z</time>
      </trkpt>
      <trkpt lat="49.88359" lon="2.02549">
        <ele>53.1</ele>
        <time>2023-05-31T13:13:42Z</time>
      </trkpt>
      <trkpt lat="49.88358" lon="2.02546">
        <ele>53</ele>
        <time>2023-05-31T13:13:43Z</time>
      </trkpt>
      <trkpt lat="49.88357" lon="2.02545">
        <ele>53</ele>
        <time>2023-05-31T13:13:45Z</time>
      </trkpt>
      <trkpt lat="49.88357" lon="2.02544">
        <ele>53</ele>
        <time>2023-05-31T13:13:46Z</time>
      </trkpt>
      <trkpt lat="49.88356" lon="2.02542">
        <ele>53</ele>
        <time>2023-05-31T13:13:47Z</time>
      </trkpt>
      <trkpt lat="49.88355" lon="2.0254">
        <ele>52.9</ele>
        <time>2023-05-31T13:13:48Z</time>
      </trkpt>
      <trkpt lat="49.88354" lon="2.02537">
        <ele>52.9</ele>
        <time>2023-05-31T13:13:49Z</time>
      </trkpt>
      <trkpt lat="49.88353" lon="2.02536">
        <ele>52.9</ele>
        <time>2023-05-31T13:13:50Z</time>
      </trkpt>
      <trkpt lat="49.88353" lon="2.02535">
        <ele>52.8</ele>
        <time>2023-05-31T13:13:51Z</time>
      </trkpt>
      <trkpt lat="49.88351" lon="2.02533">
        <ele>52.8</ele>
        <time>2023-05-31T13:13:53Z</time>
      </trkpt>
      <trkpt lat="49.88351" lon="2.02532">
        <ele>52.8</ele>
        <time>2023-05-31T13:13:54Z</time>
      </trkpt>
      <trkpt lat="49.8835" lon="2.02531">
        <ele>52.8</ele>
        <time>2023-05-31T13:13:55Z</time>
      </trkpt>
      <trkpt lat="49.88349" lon="2.02529">
        <ele>52.7</ele>
        <time>2023-05-31T13:13:56Z</time>
      </trkpt>
      <trkpt lat="49.88348" lon="2.02528">
        <ele>52.7</ele>
        <time>2023-05-31T13:13:57Z</time>
      </trkpt>
      <trkpt lat="49.88347" lon="2.02527">
        <ele>52.7</ele>
        <time>2023-05-31T13:13:58Z</time>
      </trkpt>
      <trkpt lat="49.88346" lon="2.02525">
        <ele>52.6</ele>
        <time>2023-05-31T13:13:59Z</time>
      </trkpt>
      <trkpt lat="49.88345" lon="2.02524">
        <ele>52.6</ele>
        <time>2023-05-31T13:14:01Z</time>
      </trkpt>
      <trkpt lat="49.88344" lon="2.02523">
        <ele>52.6</ele>
        <time>2023-05-31T13:14:02Z</time>
      </trkpt>
      <trkpt lat="49.88343" lon="2.0252">
        <ele>52.6</ele>
        <time>2023-05-31T13:14:03Z</time>
      </trkpt>
      <trkpt lat="49.88342" lon="2.02519">
        <ele>52.6</ele>
        <time>2023-05-31T13:14:04Z</time>
      </trkpt>
      <trkpt lat="49.88342" lon="2.02518">
        <ele>52.5</ele>
        <time>2023-05-31T13:14:05Z</time>
      </trkpt>
      <trkpt lat="49.8834" lon="2.02517">
        <ele>52.5</ele>
        <time>2023-05-31T13:14:06Z</time>
      </trkpt>
      <trkpt lat="49.88339" lon="2.02515">
        <ele>52.5</ele>
        <time>2023-05-31T13:14:07Z</time>
      </trkpt>
      <trkpt lat="49.88338" lon="2.02514">
        <ele>52.5</ele>
        <time>2023-05-31T13:14:08Z</time>
      </trkpt>
      <trkpt lat="49.88337" lon="2.02512">
        <ele>52.5</ele>
        <time>2023-05-31T13:14:09Z</time>
      </trkpt>
      <trkpt lat="49.88336" lon="2.02511">
        <ele>52.4</ele>
        <time>2023-05-31T13:14:10Z</time>
      </trkpt>
      <trkpt lat="49.88335" lon="2.0251">
        <ele>52.4</ele>
        <time>2023-05-31T13:14:11Z</time>
      </trkpt>
      <trkpt lat="49.88333" lon="2.02508">
        <ele>52.4</ele>
        <time>2023-05-31T13:14:13Z</time>
      </trkpt>
      <trkpt lat="49.88333" lon="2.02507">
        <ele>52.4</ele>
        <time>2023-05-31T13:14:14Z</time>
      </trkpt>
      <trkpt lat="49.88332" lon="2.02506">
        <ele>52.4</ele>
        <time>2023-05-31T13:14:15Z</time>
      </trkpt>
      <trkpt lat="49.8833" lon="2.02504">
        <ele>52.4</ele>
        <time>2023-05-31T13:14:16Z</time>
      </trkpt>
      <trkpt lat="49.8833" lon="2.02503">
        <ele>52.3</ele>
        <time>2023-05-31T13:14:17Z</time>
      </trkpt>
      <trkpt lat="49.88329" lon="2.02502">
        <ele>52.3</ele>
        <time>2023-05-31T13:14:18Z</time>
      </trkpt>
      <trkpt lat="49.88328" lon="2.025">
        <ele>52.3</ele>
        <time>2023-05-31T13:14:19Z</time>
      </trkpt>
      <trkpt lat="49.88327" lon="2.02499">
        <ele>52.3</ele>
        <time>2023-05-31T13:14:20Z</time>
      </trkpt>
      <trkpt lat="49.88327" lon="2.02498">
        <ele>52.3</ele>
        <time>2023-05-31T13:14:21Z</time>
      </trkpt>
      <trkpt lat="49.88326" lon="2.02497">
        <ele>52.3</ele>
        <time>2023-05-31T13:14:22Z</time>
      </trkpt>
      <trkpt lat="49.88325" lon="2.02495">
        <ele>52.3</ele>
        <time>2023-05-31T13:14:23Z</time>
      </trkpt>
      <trkpt lat="49.88323" lon="2.02493">
        <ele>52.3</ele>
        <time>2023-05-31T13:14:25Z</time>
      </trkpt>
      <trkpt lat="49.88322" lon="2.0249">
        <ele>52.2</ele>
        <time>2023-05-31T13:14:27Z</time>
      </trkpt>
      <trkpt lat="49.88321" lon="2.02489">
        <ele>52.2</ele>
        <time>2023-05-31T13:14:28Z</time>
      </trkpt>
      <trkpt lat="49.8832" lon="2.02487">
        <ele>52.2</ele>
        <time>2023-05-31T13:14:29Z</time>
      </trkpt>
      <trkpt lat="49.8832" lon="2.02486">
        <ele>52.2</ele>
        <time>2023-05-31T13:14:30Z</time>
      </trkpt>
      <trkpt lat="49.88318" lon="2.02483">
        <ele>52.2</ele>
        <time>2023-05-31T13:14:31Z</time>
      </trkpt>
      <trkpt lat="49.88318" lon="2.02482">
        <ele>52.2</ele>
        <time>2023-05-31T13:14:32Z</time>
      </trkpt>
      <trkpt lat="49.88317" lon="2.02481">
        <ele>52.2</ele>
        <time>2023-05-31T13:14:33Z</time>
      </trkpt>
      <trkpt lat="49.88316" lon="2.02479">
        <ele>52.2</ele>
        <time>2023-05-31T13:14:35Z</time>
      </trkpt>
      <trkpt lat="49.88315" lon="2.02478">
        <ele>52.2</ele>
        <time>2023-05-31T13:14:36Z</time>
      </trkpt>
      <trkpt lat="49.88315" lon="2.02477">
        <ele>52.1</ele>
        <time>2023-05-31T13:14:37Z</time>
      </trkpt>
      <trkpt lat="49.88314" lon="2.02475">
        <ele>52.1</ele>
        <time>2023-05-31T13:14:38Z</time>
      </trkpt>
      <trkpt lat="49.88313" lon="2.02473">
        <ele>52.1</ele>
        <time>2023-05-31T13:14:39Z</time>
      </trkpt>
      <trkpt lat="49.88312" lon="2.0247">
        <ele>52.1</ele>
        <time>2023-05-31T13:14:40Z</time>
      </trkpt>
      <trkpt lat="49.88311" lon="2.02469">
        <ele>52.1</ele>
        <time>2023-05-31T13:14:42Z</time>
      </trkpt>
      <trkpt lat="49.88311" lon="2.02468">
        <ele>52.1</ele>
        <time>2023-05-31T13:14:43Z</time>
      </trkpt>
      <trkpt lat="49.8831" lon="2.02467">
        <ele>52.1</ele>
        <time>2023-05-31T13:14:44Z</time>
      </trkpt>
      <trkpt lat="49.88309" lon="2.02465">
        <ele>52.1</ele>
        <time>2023-05-31T13:14:45Z</time>
      </trkpt>
      <trkpt lat="49.88309" lon="2.02464">
        <ele>52.1</ele>
        <time>2023-05-31T13:14:46Z</time>
      </trkpt>
      <trkpt lat="49.88307" lon="2.02462">
        <ele>52</ele>
        <time>2023-05-31T13:14:47Z</time>
      </trkpt>
      <trkpt lat="49.88307" lon="2.02461">
        <ele>52</ele>
        <time>2023-05-31T13:14:48Z</time>
      </trkpt>
      <trkpt lat="49.88306" lon="2.0246">
        <ele>52</ele>
        <time>2023-05-31T13:14:49Z</time>
      </trkpt>
      <trkpt lat="49.88306" lon="2.02458">
        <ele>52</ele>
        <time>2023-05-31T13:14:50Z</time>
      </trkpt>
      <trkpt lat="49.88305" lon="2.02457">
        <ele>52</ele>
        <time>2023-05-31T13:14:51Z</time>
      </trkpt>
      <trkpt lat="49.88304" lon="2.02456">
        <ele>52</ele>
        <time>2023-05-31T13:14:52Z</time>
      </trkpt>
      <trkpt lat="49.88302" lon="2.02454">
        <ele>52</ele>
        <time>2023-05-31T13:14:53Z</time>
      </trkpt>
      <trkpt lat="49.88302" lon="2.02453">
        <ele>52</ele>
        <time>2023-05-31T13:14:54Z</time>
      </trkpt>
      <trkpt lat="49.88301" lon="2.02452">
        <ele>52</ele>
        <time>2023-05-31T13:14:55Z</time>
      </trkpt>
      <trkpt lat="49.88299" lon="2.0245">
        <ele>52</ele>
        <time>2023-05-31T13:14:57Z</time>
      </trkpt>
      <trkpt lat="49.88298" lon="2.02449">
        <ele>52</ele>
        <time>2023-05-31T13:14:58Z</time>
      </trkpt>
      <trkpt lat="49.88297" lon="2.02449">
        <ele>51.9</ele>
        <time>2023-05-31T13:14:59Z</time>
      </trkpt>
      <trkpt lat="49.88296" lon="2.02448">
        <ele>51.9</ele>
        <time>2023-05-31T13:15:00Z</time>
      </trkpt>
      <trkpt lat="49.88294" lon="2.02447">
        <ele>51.9</ele>
        <time>2023-05-31T13:15:01Z</time>
      </trkpt>
      <trkpt lat="49.88293" lon="2.02446">
        <ele>51.9</ele>
        <time>2023-05-31T13:15:03Z</time>
      </trkpt>
      <trkpt lat="49.88292" lon="2.02445">
        <ele>51.9</ele>
        <time>2023-05-31T13:15:04Z</time>
      </trkpt>
      <trkpt lat="49.8829" lon="2.02444">
        <ele>51.9</ele>
        <time>2023-05-31T13:15:05Z</time>
      </trkpt>
      <trkpt lat="49.88289" lon="2.02443">
        <ele>51.9</ele>
        <time>2023-05-31T13:15:06Z</time>
      </trkpt>
      <trkpt lat="49.88286" lon="2.02441">
        <ele>51.9</ele>
        <time>2023-05-31T13:15:07Z</time>
      </trkpt>
      <trkpt lat="49.88285" lon="2.02441">
        <ele>51.9</ele>
        <time>2023-05-31T13:15:09Z</time>
      </trkpt>
      <trkpt lat="49.88284" lon="2.0244">
        <ele>51.9</ele>
        <time>2023-05-31T13:15:10Z</time>
      </trkpt>
      <trkpt lat="49.88283" lon="2.02439">
        <ele>51.9</ele>
        <time>2023-05-31T13:15:11Z</time>
      </trkpt>
      <trkpt lat="49.88282" lon="2.02438">
        <ele>51.9</ele>
        <time>2023-05-31T13:15:12Z</time>
      </trkpt>
      <trkpt lat="49.8828" lon="2.02436">
        <ele>51.9</ele>
        <time>2023-05-31T13:15:13Z</time>
      </trkpt>
      <trkpt lat="49.8828" lon="2.02435">
        <ele>51.9</ele>
        <time>2023-05-31T13:15:14Z</time>
      </trkpt>
      <trkpt lat="49.88279" lon="2.02435">
        <ele>51.9</ele>
        <time>2023-05-31T13:15:15Z</time>
      </trkpt>
      <trkpt lat="49.88277" lon="2.02433">
        <ele>51.9</ele>
        <time>2023-05-31T13:15:16Z</time>
      </trkpt>
      <trkpt lat="49.88277" lon="2.02432">
        <ele>51.9</ele>
        <time>2023-05-31T13:15:17Z</time>
      </trkpt>
      <trkpt lat="49.88276" lon="2.02431">
        <ele>51.9</ele>
        <time>2023-05-31T13:15:18Z</time>
      </trkpt>
      <trkpt lat="49.88275" lon="2.0243">
        <ele>51.9</ele>
        <time>2023-05-31T13:15:20Z</time>
      </trkpt>
      <trkpt lat="49.88274" lon="2.02429">
        <ele>51.9</ele>
        <time>2023-05-31T13:15:21Z</time>
      </trkpt>
      <trkpt lat="49.88274" lon="2.02429">
        <ele>51.9</ele>
        <time>2023-05-31T13:15:22Z</time>
      </trkpt>
      <trkpt lat="49.88273" lon="2.02428">
        <ele>51.9</ele>
        <time>2023-05-31T13:15:23Z</time>
      </trkpt>
      <trkpt lat="49.88272" lon="2.02428">
        <ele>51.8</ele>
        <time>2023-05-31T13:15:24Z</time>
      </trkpt>
      <trkpt lat="49.88271" lon="2.02427">
        <ele>51.8</ele>
        <time>2023-05-31T13:15:25Z</time>
      </trkpt>
      <trkpt lat="49.88269" lon="2.02426">
        <ele>51.8</ele>
        <time>2023-05-31T13:15:27Z</time>
      </trkpt>
      <trkpt lat="49.88268" lon="2.02425">
        <ele>51.8</ele>
        <time>2023-05-31T13:15:28Z</time>
      </trkpt>
      <trkpt lat="49.88267" lon="2.02425">
        <ele>51.8</ele>
        <time>2023-05-31T13:15:29Z</time>
      </trkpt>
      <trkpt lat="49.88265" lon="2.02424">
        <ele>51.8</ele>
        <time>2023-05-31T13:15:30Z</time>
      </trkpt>
      <trkpt lat="49.88264" lon="2.02423">
        <ele>51.8</ele>
        <time>2023-05-31T13:15:32Z</time>
      </trkpt>
      <trkpt lat="49.88263" lon="2.02423">
        <ele>51.8</ele>
        <time>2023-05-31T13:15:33Z</time>
      </trkpt>
      <trkpt lat="49.88262" lon="2.02423">
        <ele>51.8</ele>
        <time>2023-05-31T13:15:34Z</time>
      </trkpt>
      <trkpt lat="49.88261" lon="2.02423">
        <ele>51.8</ele>
        <time>2023-05-31T13:15:35Z</time>
      </trkpt>
      <trkpt lat="49.8826" lon="2.02422">
        <ele>51.8</ele>
        <time>2023-05-31T13:15:36Z</time>
      </trkpt>
      <trkpt lat="49.88259" lon="2.02422">
        <ele>51.8</ele>
        <time>2023-05-31T13:15:37Z</time>
      </trkpt>
      <trkpt lat="49.88258" lon="2.02421">
        <ele>51.8</ele>
        <time>2023-05-31T13:15:38Z</time>
      </trkpt>
      <trkpt lat="49.88256" lon="2.02419">
        <ele>51.8</ele>
        <time>2023-05-31T13:15:39Z</time>
      </trkpt>
      <trkpt lat="49.88255" lon="2.02419">
        <ele>51.8</ele>
        <time>2023-05-31T13:15:41Z</time>
      </trkpt>
      <trkpt lat="49.88255" lon="2.02418">
        <ele>51.8</ele>
        <time>2023-05-31T13:15:42Z</time>
      </trkpt>
      <trkpt lat="49.88254" lon="2.02417">
        <ele>51.8</ele>
        <time>2023-05-31T13:15:43Z</time>
      </trkpt>
      <trkpt lat="49.88252" lon="2.02415">
        <ele>51.7</ele>
        <time>2023-05-31T13:15:44Z</time>
      </trkpt>
      <trkpt lat="49.88251" lon="2.02413">
        <ele>51.7</ele>
        <time>2023-05-31T13:15:45Z</time>
      </trkpt>
      <trkpt lat="49.8825" lon="2.02412">
        <ele>51.7</ele>
        <time>2023-05-31T13:15:46Z</time>
      </trkpt>
      <trkpt lat="49.88249" lon="2.02412">
        <ele>51.7</ele>
        <time>2023-05-31T13:15:47Z</time>
      </trkpt>
      <trkpt lat="49.88248" lon="2.0241">
        <ele>51.7</ele>
        <time>2023-05-31T13:15:48Z</time>
      </trkpt>
      <trkpt lat="49.88247" lon="2.02409">
        <ele>51.7</ele>
        <time>2023-05-31T13:15:49Z</time>
      </trkpt>
      <trkpt lat="49.88246" lon="2.02407">
        <ele>51.7</ele>
        <time>2023-05-31T13:15:51Z</time>
      </trkpt>
      <trkpt lat="49.88245" lon="2.02405">
        <ele>51.7</ele>
        <time>2023-05-31T13:15:52Z</time>
      </trkpt>
      <trkpt lat="49.88245" lon="2.02404">
        <ele>51.7</ele>
        <time>2023-05-31T13:15:53Z</time>
      </trkpt>
      <trkpt lat="49.88244" lon="2.02403">
        <ele>51.7</ele>
        <time>2023-05-31T13:15:54Z</time>
      </trkpt>
      <trkpt lat="49.88242" lon="2.02401">
        <ele>51.7</ele>
        <time>2023-05-31T13:15:55Z</time>
      </trkpt>
      <trkpt lat="49.88242" lon="2.024">
        <ele>51.7</ele>
        <time>2023-05-31T13:15:56Z</time>
      </trkpt>
      <trkpt lat="49.88241" lon="2.02399">
        <ele>51.7</ele>
        <time>2023-05-31T13:15:57Z</time>
      </trkpt>
      <trkpt lat="49.88239" lon="2.02397">
        <ele>51.7</ele>
        <time>2023-05-31T13:15:58Z</time>
      </trkpt>
      <trkpt lat="49.88239" lon="2.02396">
        <ele>51.7</ele>
        <time>2023-05-31T13:15:59Z</time>
      </trkpt>
      <trkpt lat="49.88238" lon="2.02396">
        <ele>51.7</ele>
        <time>2023-05-31T13:16:00Z</time>
      </trkpt>
      <trkpt lat="49.88236" lon="2.02394">
        <ele>51.7</ele>
        <time>2023-05-31T13:16:02Z</time>
      </trkpt>
      <trkpt lat="49.88236" lon="2.02393">
        <ele>51.7</ele>
        <time>2023-05-31T13:16:03Z</time>
      </trkpt>
      <trkpt lat="49.88235" lon="2.02392">
        <ele>51.7</ele>
        <time>2023-05-31T13:16:04Z</time>
      </trkpt>
      <trkpt lat="49.88234" lon="2.02391">
        <ele>51.7</ele>
        <time>2023-05-31T13:16:05Z</time>
      </trkpt>
      <trkpt lat="49.88233" lon="2.02389">
        <ele>51.7</ele>
        <time>2023-05-31T13:16:06Z</time>
      </trkpt>
      <trkpt lat="49.88232" lon="2.02388">
        <ele>51.7</ele>
        <time>2023-05-31T13:16:07Z</time>
      </trkpt>
      <trkpt lat="49.88231" lon="2.02387">
        <ele>51.7</ele>
        <time>2023-05-31T13:16:08Z</time>
      </trkpt>
      <trkpt lat="49.8823" lon="2.02386">
        <ele>51.7</ele>
        <time>2023-05-31T13:16:09Z</time>
      </trkpt>
      <trkpt lat="49.88228" lon="2.02384">
        <ele>51.7</ele>
        <time>2023-05-31T13:16:10Z</time>
      </trkpt>
      <trkpt lat="49.88227" lon="2.02383">
        <ele>51.7</ele>
        <time>2023-05-31T13:16:11Z</time>
      </trkpt>
      <trkpt lat="49.88226" lon="2.02382">
        <ele>51.7</ele>
        <time>2023-05-31T13:16:12Z</time>
      </trkpt>
      <trkpt lat="49.88225" lon="2.02381">
        <ele>51.7</ele>
        <time>2023-05-31T13:16:13Z</time>
      </trkpt>
      <trkpt lat="49.88224" lon="2.0238">
        <ele>51.7</ele>
        <time>2023-05-31T13:16:14Z</time>
      </trkpt>
      <trkpt lat="49.88223" lon="2.02378">
        <ele>51.7</ele>
        <time>2023-05-31T13:16:16Z</time>
      </trkpt>
      <trkpt lat="49.88222" lon="2.02377">
        <ele>51.7</ele>
        <time>2023-05-31T13:16:17Z</time>
      </trkpt>
      <trkpt lat="49.88221" lon="2.02376">
        <ele>51.7</ele>
        <time>2023-05-31T13:16:18Z</time>
      </trkpt>
      <trkpt lat="49.8822" lon="2.02375">
        <ele>51.7</ele>
        <time>2023-05-31T13:16:19Z</time>
      </trkpt>
      <trkpt lat="49.88218" lon="2.02373">
        <ele>51.7</ele>
        <time>2023-05-31T13:16:20Z</time>
      </trkpt>
      <trkpt lat="49.88217" lon="2.02372">
        <ele>51.7</ele>
        <time>2023-05-31T13:16:21Z</time>
      </trkpt>
      <trkpt lat="49.88216" lon="2.02371">
        <ele>51.7</ele>
        <time>2023-05-31T13:16:22Z</time>
      </trkpt>
      <trkpt lat="49.88215" lon="2.0237">
        <ele>51.7</ele>
        <time>2023-05-31T13:16:24Z</time>
      </trkpt>
      <trkpt lat="49.88214" lon="2.02369">
        <ele>51.7</ele>
        <time>2023-05-31T13:16:25Z</time>
      </trkpt>
      <trkpt lat="49.88212" lon="2.02368">
        <ele>51.7</ele>
        <time>2023-05-31T13:16:26Z</time>
      </trkpt>
      <trkpt lat="49.88211" lon="2.02367">
        <ele>51.8</ele>
        <time>2023-05-31T13:16:27Z</time>
      </trkpt>
      <trkpt lat="49.88209" lon="2.02365">
        <ele>51.8</ele>
        <time>2023-05-31T13:16:28Z</time>
      </trkpt>
      <trkpt lat="49.88208" lon="2.02364">
        <ele>51.8</ele>
        <time>2023-05-31T13:16:29Z</time>
      </trkpt>
      <trkpt lat="49.88207" lon="2.02363">
        <ele>51.8</ele>
        <time>2023-05-31T13:16:30Z</time>
      </trkpt>
      <trkpt lat="49.88205" lon="2.02361">
        <ele>51.8</ele>
        <time>2023-05-31T13:16:32Z</time>
      </trkpt>
      <trkpt lat="49.88204" lon="2.0236">
        <ele>51.8</ele>
        <time>2023-05-31T13:16:33Z</time>
      </trkpt>
      <trkpt lat="49.88203" lon="2.02359">
        <ele>51.8</ele>
        <time>2023-05-31T13:16:34Z</time>
      </trkpt>
      <trkpt lat="49.88201" lon="2.02357">
        <ele>51.9</ele>
        <time>2023-05-31T13:16:35Z</time>
      </trkpt>
      <trkpt lat="49.882" lon="2.02356">
        <ele>51.9</ele>
        <time>2023-05-31T13:16:36Z</time>
      </trkpt>
      <trkpt lat="49.88199" lon="2.02356">
        <ele>51.9</ele>
        <time>2023-05-31T13:16:37Z</time>
      </trkpt>
      <trkpt lat="49.88198" lon="2.02355">
        <ele>51.9</ele>
        <time>2023-05-31T13:16:39Z</time>
      </trkpt>
      <trkpt lat="49.88197" lon="2.02354">
        <ele>51.9</ele>
        <time>2023-05-31T13:16:40Z</time>
      </trkpt>
      <trkpt lat="49.88196" lon="2.02353">
        <ele>51.9</ele>
        <time>2023-05-31T13:16:41Z</time>
      </trkpt>
      <trkpt lat="49.88195" lon="2.02351">
        <ele>51.9</ele>
        <time>2023-05-31T13:16:42Z</time>
      </trkpt>
      <trkpt lat="49.88194" lon="2.0235">
        <ele>52</ele>
        <time>2023-05-31T13:16:43Z</time>
      </trkpt>
      <trkpt lat="49.88194" lon="2.02349">
        <ele>52</ele>
        <time>2023-05-31T13:16:44Z</time>
      </trkpt>
      <trkpt lat="49.88193" lon="2.02348">
        <ele>52</ele>
        <time>2023-05-31T13:16:45Z</time>
      </trkpt>
      <trkpt lat="49.88192" lon="2.02347">
        <ele>52</ele>
        <time>2023-05-31T13:16:46Z</time>
      </trkpt>
      <trkpt lat="49.88192" lon="2.02346">
        <ele>52</ele>
        <time>2023-05-31T13:16:47Z</time>
      </trkpt>
      <trkpt lat="49.88191" lon="2.02345">
        <ele>52</ele>
        <time>2023-05-31T13:16:49Z</time>
      </trkpt>
      <trkpt lat="49.8819" lon="2.02344">
        <ele>52</ele>
        <time>2023-05-31T13:16:50Z</time>
      </trkpt>
      <trkpt lat="49.88189" lon="2.02343">
        <ele>52</ele>
        <time>2023-05-31T13:16:51Z</time>
      </trkpt>
      <trkpt lat="49.88188" lon="2.02342">
        <ele>52</ele>
        <time>2023-05-31T13:16:52Z</time>
      </trkpt>
      <trkpt lat="49.88187" lon="2.0234">
        <ele>52.1</ele>
        <time>2023-05-31T13:16:53Z</time>
      </trkpt>
      <trkpt lat="49.88186" lon="2.0234">
        <ele>52.1</ele>
        <time>2023-05-31T13:16:54Z</time>
      </trkpt>
      <trkpt lat="49.88185" lon="2.02339">
        <ele>52.1</ele>
        <time>2023-05-31T13:16:56Z</time>
      </trkpt>
      <trkpt lat="49.88184" lon="2.02338">
        <ele>52.1</ele>
        <time>2023-05-31T13:16:57Z</time>
      </trkpt>
      <trkpt lat="49.88184" lon="2.02337">
        <ele>52.1</ele>
        <time>2023-05-31T13:16:58Z</time>
      </trkpt>
      <trkpt lat="49.88183" lon="2.02335">
        <ele>52.1</ele>
        <time>2023-05-31T13:16:59Z</time>
      </trkpt>
      <trkpt lat="49.88182" lon="2.02334">
        <ele>52.2</ele>
        <time>2023-05-31T13:17:00Z</time>
      </trkpt>
      <trkpt lat="49.88181" lon="2.02333">
        <ele>52.2</ele>
        <time>2023-05-31T13:17:01Z</time>
      </trkpt>
      <trkpt lat="49.8818" lon="2.02332">
        <ele>52.2</ele>
        <time>2023-05-31T13:17:02Z</time>
      </trkpt>
      <trkpt lat="49.88179" lon="2.02331">
        <ele>52.2</ele>
        <time>2023-05-31T13:17:03Z</time>
      </trkpt>
      <trkpt lat="49.88178" lon="2.0233">
        <ele>52.2</ele>
        <time>2023-05-31T13:17:05Z</time>
      </trkpt>
      <trkpt lat="49.88177" lon="2.02329">
        <ele>52.2</ele>
        <time>2023-05-31T13:17:06Z</time>
      </trkpt>
      <trkpt lat="49.88176" lon="2.02329">
        <ele>52.3</ele>
        <time>2023-05-31T13:17:07Z</time>
      </trkpt>
      <trkpt lat="49.88175" lon="2.02328">
        <ele>52.3</ele>
        <time>2023-05-31T13:17:08Z</time>
      </trkpt>
      <trkpt lat="49.88174" lon="2.02327">
        <ele>52.3</ele>
        <time>2023-05-31T13:17:09Z</time>
      </trkpt>
      <trkpt lat="49.88173" lon="2.02325">
        <ele>52.3</ele>
        <time>2023-05-31T13:17:11Z</time>
      </trkpt>
      <trkpt lat="49.88172" lon="2.02324">
        <ele>52.4</ele>
        <time>2023-05-31T13:17:12Z</time>
      </trkpt>
      <trkpt lat="49.88171" lon="2.02323">
        <ele>52.4</ele>
        <time>2023-05-31T13:17:13Z</time>
      </trkpt>
      <trkpt lat="49.8817" lon="2.02322">
        <ele>52.4</ele>
        <time>2023-05-31T13:17:14Z</time>
      </trkpt>
      <trkpt lat="49.88168" lon="2.0232">
        <ele>52.4</ele>
        <time>2023-05-31T13:17:15Z</time>
      </trkpt>
      <trkpt lat="49.88168" lon="2.02319">
        <ele>52.4</ele>
        <time>2023-05-31T13:17:16Z</time>
      </trkpt>
      <trkpt lat="49.88167" lon="2.02318">
        <ele>52.5</ele>
        <time>2023-05-31T13:17:17Z</time>
      </trkpt>
      <trkpt lat="49.88166" lon="2.02317">
        <ele>52.5</ele>
        <time>2023-05-31T13:17:18Z</time>
      </trkpt>
      <trkpt lat="49.88165" lon="2.02316">
        <ele>52.5</ele>
        <time>2023-05-31T13:17:19Z</time>
      </trkpt>
      <trkpt lat="49.88164" lon="2.02315">
        <ele>52.5</ele>
        <time>2023-05-31T13:17:21Z</time>
      </trkpt>
      <trkpt lat="49.88164" lon="2.02315">
        <ele>52.6</ele>
        <time>2023-05-31T13:17:22Z</time>
      </trkpt>
      <trkpt lat="49.88163" lon="2.02314">
        <ele>52.6</ele>
        <time>2023-05-31T13:17:23Z</time>
      </trkpt>
      <trkpt lat="49.88162" lon="2.02313">
        <ele>52.6</ele>
        <time>2023-05-31T13:17:24Z</time>
      </trkpt>
      <trkpt lat="49.88161" lon="2.02312">
        <ele>52.6</ele>
        <time>2023-05-31T13:17:26Z</time>
      </trkpt>
      <trkpt lat="49.8816" lon="2.02311">
        <ele>52.6</ele>
        <time>2023-05-31T13:17:27Z</time>
      </trkpt>
      <trkpt lat="49.88159" lon="2.0231">
        <ele>52.7</ele>
        <time>2023-05-31T13:17:28Z</time>
      </trkpt>
      <trkpt lat="49.88159" lon="2.02309">
        <ele>52.7</ele>
        <time>2023-05-31T13:17:29Z</time>
      </trkpt>
      <trkpt lat="49.88158" lon="2.02308">
        <ele>52.7</ele>
        <time>2023-05-31T13:17:30Z</time>
      </trkpt>
      <trkpt lat="49.88158" lon="2.02307">
        <ele>52.7</ele>
        <time>2023-05-31T13:17:31Z</time>
      </trkpt>
      <trkpt lat="49.88157" lon="2.02307">
        <ele>52.7</ele>
        <time>2023-05-31T13:17:33Z</time>
      </trkpt>
      <trkpt lat="49.88156" lon="2.02306">
        <ele>52.8</ele>
        <time>2023-05-31T13:17:35Z</time>
      </trkpt>
      <trkpt lat="49.88156" lon="2.02306">
        <ele>52.8</ele>
        <time>2023-05-31T13:17:36Z</time>
      </trkpt>
      <trkpt lat="49.88155" lon="2.02307">
        <ele>52.8</ele>
        <time>2023-05-31T13:17:37Z</time>
      </trkpt>
      <trkpt lat="49.88154" lon="2.02307">
        <ele>52.8</ele>
        <time>2023-05-31T13:17:39Z</time>
      </trkpt>
      <trkpt lat="49.88154" lon="2.02307">
        <ele>52.8</ele>
        <time>2023-05-31T13:17:40Z</time>
      </trkpt>
      <trkpt lat="49.88154" lon="2.02308">
        <ele>52.8</ele>
        <time>2023-05-31T13:17:42Z</time>
      </trkpt>
      <trkpt lat="49.88154" lon="2.02308">
        <ele>52.8</ele>
        <time>2023-05-31T13:17:43Z</time>
      </trkpt>
      <trkpt lat="49.88155" lon="2.02308">
        <ele>52.8</ele>
        <time>2023-05-31T13:17:44Z</time>
      </trkpt>
      <trkpt lat="49.88155" lon="2.02308">
        <ele>52.8</ele>
        <time>2023-05-31T13:17:46Z</time>
      </trkpt>
      <trkpt lat="49.88154" lon="2.02308">
        <ele>52.8</ele>
        <time>2023-05-31T13:17:47Z</time>
      </trkpt>
      <trkpt lat="49.88154" lon="2.02308">
        <ele>52.8</ele>
        <time>2023-05-31T13:17:48Z</time>
      </trkpt>
      <trkpt lat="49.88154" lon="2.02308">
        <ele>52.8</ele>
        <time>2023-05-31T13:17:50Z</time>
      </trkpt>
      <trkpt lat="49.88154" lon="2.02308">
        <ele>52.8</ele>
        <time>2023-05-31T13:17:51Z</time>
      </trkpt>
      <trkpt lat="49.88154" lon="2.02308">
        <ele>52.8</ele>
        <time>2023-05-31T13:17:52Z</time>
      </trkpt>
      <trkpt lat="49.88154" lon="2.02308">
        <ele>52.8</ele>
        <time>2023-05-31T13:17:54Z</time>
      </trkpt>
      <trkpt lat="49.88155" lon="2.02308">
        <ele>52.8</ele>
        <time>2023-05-31T13:17:55Z</time>
      </trkpt>
      <trkpt lat="49.88155" lon="2.02308">
        <ele>52.9</ele>
        <time>2023-05-31T13:17:56Z</time>
      </trkpt>
      <trkpt lat="49.88155" lon="2.02308">
        <ele>52.9</ele>
        <time>2023-05-31T13:17:57Z</time>
      </trkpt>
      <trkpt lat="49.88155" lon="2.02308">
        <ele>52.9</ele>
        <time>2023-05-31T13:17:58Z</time>
      </trkpt>
      <trkpt lat="49.88155" lon="2.02308">
        <ele>52.9</ele>
        <time>2023-05-31T13:17:59Z</time>
      </trkpt>
      <trkpt lat="49.88155" lon="2.02308">
        <ele>52.9</ele>
        <time>2023-05-31T13:18:00Z</time>
      </trkpt>
      <trkpt lat="49.88155" lon="2.02308">
        <ele>52.9</ele>
        <time>2023-05-31T13:18:01Z</time>
      </trkpt>
      <trkpt lat="49.88155" lon="2.02308">
        <ele>52.9</ele>
        <time>2023-05-31T13:18:02Z</time>
      </trkpt>
      <trkpt lat="49.88155" lon="2.02308">
        <ele>52.9</ele>
        <time>2023-05-31T13:18:03Z</time>
      </trkpt>
      <trkpt lat="49.88155" lon="2.02308">
        <ele>52.9</ele>
        <time>2023-05-31T13:18:04Z</time>
      </trkpt>
      <trkpt lat="49.88155" lon="2.02308">
        <ele>52.9</ele>
        <time>2023-05-31T13:18:05Z</time>
      </trkpt>
      <trkpt lat="49.88155" lon="2.02308">
        <ele>52.9</ele>
        <time>2023-05-31T13:18:06Z</time>
      </trkpt>
      <trkpt lat="49.88155" lon="2.02308">
        <ele>52.9</ele>
        <time>2023-05-31T13:18:07Z</time>
      </trkpt>
      <trkpt lat="49.88155" lon="2.02308">
        <ele>52.9</ele>
        <time>2023-05-31T13:18:08Z</time>
      </trkpt>
      <trkpt lat="49.88155" lon="2.02308">
        <ele>52.9</ele>
        <time>2023-05-31T13:18:09Z</time>
      </trkpt>
      <trkpt lat="49.88155" lon="2.02308">
        <ele>52.9</ele>
        <time>2023-05-31T13:18:10Z</time>
      </trkpt>
      <trkpt lat="49.88155" lon="2.02308">
        <ele>52.9</ele>
        <time>2023-05-31T13:18:11Z</time>
      </trkpt>
      <trkpt lat="49.88156" lon="2.0231">
        <ele>52.9</ele>
        <time>2023-05-31T13:18:12Z</time>
      </trkpt>
      <trkpt lat="49.88158" lon="2.02312">
        <ele>52.9</ele>
        <time>2023-05-31T13:18:13Z</time>
      </trkpt>
      <trkpt lat="49.88159" lon="2.02314">
        <ele>53</ele>
        <time>2023-05-31T13:18:14Z</time>
      </trkpt>
      <trkpt lat="49.88159" lon="2.02315">
        <ele>53</ele>
        <time>2023-05-31T13:18:15Z</time>
      </trkpt>
      <trkpt lat="49.88159" lon="2.02316">
        <ele>53</ele>
        <time>2023-05-31T13:18:16Z</time>
      </trkpt>
      <trkpt lat="49.88159" lon="2.02317">
        <ele>53</ele>
        <time>2023-05-31T13:18:17Z</time>
      </trkpt>
      <trkpt lat="49.88159" lon="2.02317">
        <ele>53</ele>
        <time>2023-05-31T13:18:18Z</time>
      </trkpt>
      <trkpt lat="49.88159" lon="2.02317">
        <ele>53</ele>
        <time>2023-05-31T13:18:19Z</time>
      </trkpt>
      <trkpt lat="49.88159" lon="2.02317">
        <ele>53</ele>
        <time>2023-05-31T13:18:20Z</time>
      </trkpt>
      <trkpt lat="49.88159" lon="2.02317">
        <ele>53</ele>
        <time>2023-05-31T13:18:21Z</time>
      </trkpt>
      <trkpt lat="49.88159" lon="2.02317">
        <ele>53</ele>
        <time>2023-05-31T13:18:22Z</time>
      </trkpt>
      <trkpt lat="49.88159" lon="2.02317">
        <ele>53</ele>
        <time>2023-05-31T13:18:23Z</time>
      </trkpt>
      <trkpt lat="49.88159" lon="2.02317">
        <ele>53</ele>
        <time>2023-05-31T13:18:24Z</time>
      </trkpt>
      <trkpt lat="49.88159" lon="2.02317">
        <ele>53</ele>
        <time>2023-05-31T13:18:25Z</time>
      </trkpt>
      <trkpt lat="49.88159" lon="2.02317">
        <ele>53</ele>
        <time>2023-05-31T13:18:26Z</time>
      </trkpt>
      <trkpt lat="49.88159" lon="2.02317">
        <ele>53</ele>
        <time>2023-05-31T13:18:27Z</time>
      </trkpt>
      <trkpt lat="49.88159" lon="2.02317">
        <ele>53</ele>
        <time>2023-05-31T13:18:28Z</time>
      </trkpt>
      <trkpt lat="49.88159" lon="2.02317">
        <ele>53</ele>
        <time>2023-05-31T13:18:29Z</time>
      </trkpt>
      <trkpt lat="49.88159" lon="2.02317">
        <ele>53</ele>
        <time>2023-05-31T13:18:30Z</time>
      </trkpt>
      <trkpt lat="49.88159" lon="2.02317">
        <ele>53</ele>
        <time>2023-05-31T13:18:31Z</time>
      </trkpt>
      <trkpt lat="49.88159" lon="2.02317">
        <ele>53</ele>
        <time>2023-05-31T13:18:32Z</time>
      </trkpt>
      <trkpt lat="49.88159" lon="2.02317">
        <ele>53.1</ele>
        <time>2023-05-31T13:18:33Z</time>
      </trkpt>
      <trkpt lat="49.88159" lon="2.02316">
        <ele>53.1</ele>
        <time>2023-05-31T13:18:34Z</time>
      </trkpt>
      <trkpt lat="49.88159" lon="2.02315">
        <ele>53.1</ele>
        <time>2023-05-31T13:18:36Z</time>
      </trkpt>
      <trkpt lat="49.88158" lon="2.02315">
        <ele>53.1</ele>
        <time>2023-05-31T13:18:37Z</time>
      </trkpt>
      <trkpt lat="49.88158" lon="2.02314">
        <ele>53.1</ele>
        <time>2023-05-31T13:18:38Z</time>
      </trkpt>
      <trkpt lat="49.88157" lon="2.02313">
        <ele>53.1</ele>
        <time>2023-05-31T13:18:39Z</time>
      </trkpt>
      <trkpt lat="49.88156" lon="2.02313">
        <ele>53.2</ele>
        <time>2023-05-31T13:18:40Z</time>
      </trkpt>
      <trkpt lat="49.88155" lon="2.02313">
        <ele>53.2</ele>
        <time>2023-05-31T13:18:41Z</time>
      </trkpt>
      <trkpt lat="49.88154" lon="2.02313">
        <ele>53.2</ele>
        <time>2023-05-31T13:18:42Z</time>
      </trkpt>
      <trkpt lat="49.88153" lon="2.02314">
        <ele>53.4</ele>
        <time>2023-05-31T13:18:43Z</time>
      </trkpt>
      <trkpt lat="49.88152" lon="2.02315">
        <ele>53.4</ele>
        <time>2023-05-31T13:18:45Z</time>
      </trkpt>
      <trkpt lat="49.88152" lon="2.02316">
        <ele>53.4</ele>
        <time>2023-05-31T13:18:46Z</time>
      </trkpt>
      <trkpt lat="49.88151" lon="2.02317">
        <ele>53.4</ele>
        <time>2023-05-31T13:18:47Z</time>
      </trkpt>
      <trkpt lat="49.88151" lon="2.02319">
        <ele>53.4</ele>
        <time>2023-05-31T13:18:48Z</time>
      </trkpt>
      <trkpt lat="49.8815" lon="2.0232">
        <ele>53.4</ele>
        <time>2023-05-31T13:18:49Z</time>
      </trkpt>
      <trkpt lat="49.8815" lon="2.02321">
        <ele>53.4</ele>
        <time>2023-05-31T13:18:50Z</time>
      </trkpt>
      <trkpt lat="49.8815" lon="2.02323">
        <ele>53.4</ele>
        <time>2023-05-31T13:18:52Z</time>
      </trkpt>
      <trkpt lat="49.8815" lon="2.02324">
        <ele>53.4</ele>
        <time>2023-05-31T13:18:53Z</time>
      </trkpt>
      <trkpt lat="49.88149" lon="2.02325">
        <ele>53.4</ele>
        <time>2023-05-31T13:18:54Z</time>
      </trkpt>
      <trkpt lat="49.88149" lon="2.02328">
        <ele>53.4</ele>
        <time>2023-05-31T13:18:55Z</time>
      </trkpt>
      <trkpt lat="49.88149" lon="2.0233">
        <ele>53.5</ele>
        <time>2023-05-31T13:18:57Z</time>
      </trkpt>
      <trkpt lat="49.88149" lon="2.02331">
        <ele>53.5</ele>
        <time>2023-05-31T13:18:58Z</time>
      </trkpt>
      <trkpt lat="49.8815" lon="2.02332">
        <ele>53.6</ele>
        <time>2023-05-31T13:18:59Z</time>
      </trkpt>
      <trkpt lat="49.8815" lon="2.02334">
        <ele>53.7</ele>
        <time>2023-05-31T13:19:00Z</time>
      </trkpt>
      <trkpt lat="49.8815" lon="2.02336">
        <ele>53.7</ele>
        <time>2023-05-31T13:19:01Z</time>
      </trkpt>
      <trkpt lat="49.8815" lon="2.02338">
        <ele>53.8</ele>
        <time>2023-05-31T13:19:03Z</time>
      </trkpt>
      <trkpt lat="49.88149" lon="2.02339">
        <ele>53.8</ele>
        <time>2023-05-31T13:19:04Z</time>
      </trkpt>
      <trkpt lat="49.88149" lon="2.02339">
        <ele>53.8</ele>
        <time>2023-05-31T13:19:05Z</time>
      </trkpt>
      <trkpt lat="49.88149" lon="2.0234">
        <ele>53.9</ele>
        <time>2023-05-31T13:19:06Z</time>
      </trkpt>
      <trkpt lat="49.88149" lon="2.02341">
        <ele>53.9</ele>
        <time>2023-05-31T13:19:07Z</time>
      </trkpt>
      <trkpt lat="49.88149" lon="2.02343">
        <ele>54</ele>
        <time>2023-05-31T13:19:08Z</time>
      </trkpt>
      <trkpt lat="49.88149" lon="2.02343">
        <ele>54</ele>
        <time>2023-05-31T13:19:09Z</time>
      </trkpt>
      <trkpt lat="49.88149" lon="2.02344">
        <ele>54</ele>
        <time>2023-05-31T13:19:10Z</time>
      </trkpt>
      <trkpt lat="49.88149" lon="2.02345">
        <ele>54.1</ele>
        <time>2023-05-31T13:19:12Z</time>
      </trkpt>
      <trkpt lat="49.88149" lon="2.02346">
        <ele>54.1</ele>
        <time>2023-05-31T13:19:13Z</time>
      </trkpt>
      <trkpt lat="49.88148" lon="2.02348">
        <ele>54.2</ele>
        <time>2023-05-31T13:19:14Z</time>
      </trkpt>
      <trkpt lat="49.88148" lon="2.02349">
        <ele>54.3</ele>
        <time>2023-05-31T13:19:16Z</time>
      </trkpt>
      <trkpt lat="49.88148" lon="2.02351">
        <ele>54.3</ele>
        <time>2023-05-31T13:19:17Z</time>
      </trkpt>
      <trkpt lat="49.88148" lon="2.02353">
        <ele>54.4</ele>
        <time>2023-05-31T13:19:18Z</time>
      </trkpt>
      <trkpt lat="49.88148" lon="2.02355">
        <ele>54.5</ele>
        <time>2023-05-31T13:19:19Z</time>
      </trkpt>
      <trkpt lat="49.88148" lon="2.02356">
        <ele>54.6</ele>
        <time>2023-05-31T13:19:21Z</time>
      </trkpt>
      <trkpt lat="49.88149" lon="2.02357">
        <ele>54.6</ele>
        <time>2023-05-31T13:19:22Z</time>
      </trkpt>
      <trkpt lat="49.88149" lon="2.02359">
        <ele>54.7</ele>
        <time>2023-05-31T13:19:23Z</time>
      </trkpt>
      <trkpt lat="49.88148" lon="2.02361">
        <ele>54.8</ele>
        <time>2023-05-31T13:19:24Z</time>
      </trkpt>
      <trkpt lat="49.88148" lon="2.02362">
        <ele>54.9</ele>
        <time>2023-05-31T13:19:25Z</time>
      </trkpt>
      <trkpt lat="49.88148" lon="2.02365">
        <ele>55</ele>
        <time>2023-05-31T13:19:27Z</time>
      </trkpt>
      <trkpt lat="49.88148" lon="2.02366">
        <ele>55.1</ele>
        <time>2023-05-31T13:19:28Z</time>
      </trkpt>
      <trkpt lat="49.88148" lon="2.02368">
        <ele>55.2</ele>
        <time>2023-05-31T13:19:29Z</time>
      </trkpt>
      <trkpt lat="49.88148" lon="2.0237">
        <ele>55.3</ele>
        <time>2023-05-31T13:19:30Z</time>
      </trkpt>
      <trkpt lat="49.88147" lon="2.02371">
        <ele>55.4</ele>
        <time>2023-05-31T13:19:31Z</time>
      </trkpt>
      <trkpt lat="49.88147" lon="2.02373">
        <ele>55.5</ele>
        <time>2023-05-31T13:19:33Z</time>
      </trkpt>
      <trkpt lat="49.88147" lon="2.02375">
        <ele>55.6</ele>
        <time>2023-05-31T13:19:34Z</time>
      </trkpt>
      <trkpt lat="49.88147" lon="2.02376">
        <ele>55.6</ele>
        <time>2023-05-31T13:19:35Z</time>
      </trkpt>
      <trkpt lat="49.88147" lon="2.02378">
        <ele>55.7</ele>
        <time>2023-05-31T13:19:36Z</time>
      </trkpt>
      <trkpt lat="49.88147" lon="2.02379">
        <ele>55.8</ele>
        <time>2023-05-31T13:19:37Z</time>
      </trkpt>
      <trkpt lat="49.88147" lon="2.02381">
        <ele>55.9</ele>
        <time>2023-05-31T13:19:39Z</time>
      </trkpt>
      <trkpt lat="49.88147" lon="2.02382">
        <ele>56</ele>
        <time>2023-05-31T13:19:40Z</time>
      </trkpt>
      <trkpt lat="49.88146" lon="2.02384">
        <ele>56.1</ele>
        <time>2023-05-31T13:19:41Z</time>
      </trkpt>
      <trkpt lat="49.88146" lon="2.02385">
        <ele>56.2</ele>
        <time>2023-05-31T13:19:42Z</time>
      </trkpt>
      <trkpt lat="49.88146" lon="2.02386">
        <ele>56.3</ele>
        <time>2023-05-31T13:19:44Z</time>
      </trkpt>
      <trkpt lat="49.88146" lon="2.02387">
        <ele>56.3</ele>
        <time>2023-05-31T13:19:45Z</time>
      </trkpt>
      <trkpt lat="49.88146" lon="2.02389">
        <ele>56.4</ele>
        <time>2023-05-31T13:19:46Z</time>
      </trkpt>
      <trkpt lat="49.88146" lon="2.0239">
        <ele>56.5</ele>
        <time>2023-05-31T13:19:47Z</time>
      </trkpt>
      <trkpt lat="49.88146" lon="2.02392">
        <ele>56.6</ele>
        <time>2023-05-31T13:19:48Z</time>
      </trkpt>
      <trkpt lat="49.88146" lon="2.02393">
        <ele>56.7</ele>
        <time>2023-05-31T13:19:49Z</time>
      </trkpt>
      <trkpt lat="49.88146" lon="2.02395">
        <ele>56.8</ele>
        <time>2023-05-31T13:19:50Z</time>
      </trkpt>
      <trkpt lat="49.88145" lon="2.02397">
        <ele>57</ele>
        <time>2023-05-31T13:19:52Z</time>
      </trkpt>
      <trkpt lat="49.88145" lon="2.02399">
        <ele>57.1</ele>
        <time>2023-05-31T13:19:54Z</time>
      </trkpt>
      <trkpt lat="49.88144" lon="2.024">
        <ele>57.2</ele>
        <time>2023-05-31T13:19:55Z</time>
      </trkpt>
      <trkpt lat="49.88144" lon="2.02402">
        <ele>57.3</ele>
        <time>2023-05-31T13:19:56Z</time>
      </trkpt>
      <trkpt lat="49.88144" lon="2.02403">
        <ele>57.4</ele>
        <time>2023-05-31T13:19:57Z</time>
      </trkpt>
      <trkpt lat="49.88143" lon="2.02406">
        <ele>57.6</ele>
        <time>2023-05-31T13:19:58Z</time>
      </trkpt>
      <trkpt lat="49.88143" lon="2.02407">
        <ele>57.7</ele>
        <time>2023-05-31T13:19:59Z</time>
      </trkpt>
      <trkpt lat="49.88143" lon="2.02409">
        <ele>57.8</ele>
        <time>2023-05-31T13:20:01Z</time>
      </trkpt>
      <trkpt lat="49.88142" lon="2.0241">
        <ele>57.9</ele>
        <time>2023-05-31T13:20:03Z</time>
      </trkpt>
      <trkpt lat="49.88142" lon="2.02412">
        <ele>58</ele>
        <time>2023-05-31T13:20:04Z</time>
      </trkpt>
      <trkpt lat="49.88141" lon="2.02413">
        <ele>58.1</ele>
        <time>2023-05-31T13:20:05Z</time>
      </trkpt>
      <trkpt lat="49.88141" lon="2.02416">
        <ele>58.3</ele>
        <time>2023-05-31T13:20:06Z</time>
      </trkpt>
      <trkpt lat="49.8814" lon="2.02417">
        <ele>58.4</ele>
        <time>2023-05-31T13:20:08Z</time>
      </trkpt>
      <trkpt lat="49.8814" lon="2.02418">
        <ele>58.5</ele>
        <time>2023-05-31T13:20:09Z</time>
      </trkpt>
      <trkpt lat="49.88139" lon="2.0242">
        <ele>58.6</ele>
        <time>2023-05-31T13:20:10Z</time>
      </trkpt>
      <trkpt lat="49.88139" lon="2.02421">
        <ele>58.7</ele>
        <time>2023-05-31T13:20:11Z</time>
      </trkpt>
      <trkpt lat="49.88138" lon="2.02422">
        <ele>58.8</ele>
        <time>2023-05-31T13:20:12Z</time>
      </trkpt>
      <trkpt lat="49.88137" lon="2.02424">
        <ele>59</ele>
        <time>2023-05-31T13:20:14Z</time>
      </trkpt>
      <trkpt lat="49.88136" lon="2.02425">
        <ele>59.1</ele>
        <time>2023-05-31T13:20:16Z</time>
      </trkpt>
      <trkpt lat="49.88136" lon="2.02426">
        <ele>59.1</ele>
        <time>2023-05-31T13:20:17Z</time>
      </trkpt>
      <trkpt lat="49.88135" lon="2.02427">
        <ele>59.2</ele>
        <time>2023-05-31T13:20:18Z</time>
      </trkpt>
      <trkpt lat="49.88135" lon="2.02429">
        <ele>59.6</ele>
        <time>2023-05-31T13:20:19Z</time>
      </trkpt>
      <trkpt lat="49.88134" lon="2.0243">
        <ele>59.6</ele>
        <time>2023-05-31T13:20:20Z</time>
      </trkpt>
      <trkpt lat="49.88132" lon="2.02431">
        <ele>59.7</ele>
        <time>2023-05-31T13:20:22Z</time>
      </trkpt>
      <trkpt lat="49.88131" lon="2.02432">
        <ele>59.8</ele>
        <time>2023-05-31T13:20:24Z</time>
      </trkpt>
      <trkpt lat="49.8813" lon="2.02432">
        <ele>59.9</ele>
        <time>2023-05-31T13:20:25Z</time>
      </trkpt>
      <trkpt lat="49.88129" lon="2.02433">
        <ele>59.9</ele>
        <time>2023-05-31T13:20:26Z</time>
      </trkpt>
      <trkpt lat="49.88127" lon="2.02433">
        <ele>60</ele>
        <time>2023-05-31T13:20:28Z</time>
      </trkpt>
      <trkpt lat="49.88126" lon="2.02433">
        <ele>60.1</ele>
        <time>2023-05-31T13:20:30Z</time>
      </trkpt>
      <trkpt lat="49.88125" lon="2.02433">
        <ele>60.2</ele>
        <time>2023-05-31T13:20:31Z</time>
      </trkpt>
      <trkpt lat="49.88125" lon="2.02433">
        <ele>60.2</ele>
        <time>2023-05-31T13:20:32Z</time>
      </trkpt>
      <trkpt lat="49.88123" lon="2.02433">
        <ele>60.3</ele>
        <time>2023-05-31T13:20:33Z</time>
      </trkpt>
      <trkpt lat="49.88122" lon="2.02433">
        <ele>60.4</ele>
        <time>2023-05-31T13:20:34Z</time>
      </trkpt>
      <trkpt lat="49.8812" lon="2.02433">
        <ele>60.5</ele>
        <time>2023-05-31T13:20:36Z</time>
      </trkpt>
      <trkpt lat="49.88119" lon="2.02433">
        <ele>60.5</ele>
        <time>2023-05-31T13:20:37Z</time>
      </trkpt>
      <trkpt lat="49.88118" lon="2.02432">
        <ele>60.6</ele>
        <time>2023-05-31T13:20:39Z</time>
      </trkpt>
      <trkpt lat="49.88117" lon="2.02432">
        <ele>60.7</ele>
        <time>2023-05-31T13:20:40Z</time>
      </trkpt>
      <trkpt lat="49.88116" lon="2.02432">
        <ele>60.7</ele>
        <time>2023-05-31T13:20:41Z</time>
      </trkpt>
      <trkpt lat="49.88115" lon="2.02432">
        <ele>60.8</ele>
        <time>2023-05-31T13:20:42Z</time>
      </trkpt>
      <trkpt lat="49.88114" lon="2.02431">
        <ele>60.9</ele>
        <time>2023-05-31T13:20:43Z</time>
      </trkpt>
      <trkpt lat="49.88113" lon="2.02431">
        <ele>61</ele>
        <time>2023-05-31T13:20:45Z</time>
      </trkpt>
      <trkpt lat="49.88112" lon="2.02431">
        <ele>61</ele>
        <time>2023-05-31T13:20:46Z</time>
      </trkpt>
      <trkpt lat="49.88111" lon="2.02431">
        <ele>61.1</ele>
        <time>2023-05-31T13:20:47Z</time>
      </trkpt>
      <trkpt lat="49.88111" lon="2.02431">
        <ele>61.1</ele>
        <time>2023-05-31T13:20:48Z</time>
      </trkpt>
      <trkpt lat="49.8811" lon="2.0243">
        <ele>61.2</ele>
        <time>2023-05-31T13:20:49Z</time>
      </trkpt>
      <trkpt lat="49.88109" lon="2.0243">
        <ele>61.3</ele>
        <time>2023-05-31T13:20:51Z</time>
      </trkpt>
      <trkpt lat="49.88108" lon="2.0243">
        <ele>61.3</ele>
        <time>2023-05-31T13:20:52Z</time>
      </trkpt>
      <trkpt lat="49.88106" lon="2.0243">
        <ele>61.4</ele>
        <time>2023-05-31T13:20:53Z</time>
      </trkpt>
      <trkpt lat="49.88105" lon="2.0243">
        <ele>61.5</ele>
        <time>2023-05-31T13:20:55Z</time>
      </trkpt>
      <trkpt lat="49.88104" lon="2.0243">
        <ele>61.6</ele>
        <time>2023-05-31T13:20:56Z</time>
      </trkpt>
      <trkpt lat="49.88103" lon="2.0243">
        <ele>61.6</ele>
        <time>2023-05-31T13:20:58Z</time>
      </trkpt>
      <trkpt lat="49.88104" lon="2.02429">
        <ele>61.7</ele>
        <time>2023-05-31T13:21:00Z</time>
      </trkpt>
      <trkpt lat="49.88105" lon="2.02429">
        <ele>61.7</ele>
        <time>2023-05-31T13:21:01Z</time>
      </trkpt>
      <trkpt lat="49.88106" lon="2.02429">
        <ele>61.8</ele>
        <time>2023-05-31T13:21:03Z</time>
      </trkpt>
      <trkpt lat="49.88106" lon="2.0243">
        <ele>61.8</ele>
        <time>2023-05-31T13:21:04Z</time>
      </trkpt>
      <trkpt lat="49.88106" lon="2.0243">
        <ele>61.9</ele>
        <time>2023-05-31T13:21:05Z</time>
      </trkpt>
      <trkpt lat="49.88107" lon="2.0243">
        <ele>61.9</ele>
        <time>2023-05-31T13:21:07Z</time>
      </trkpt>
      <trkpt lat="49.88107" lon="2.0243">
        <ele>61.9</ele>
        <time>2023-05-31T13:21:08Z</time>
      </trkpt>
      <trkpt lat="49.88107" lon="2.0243">
        <ele>61.9</ele>
        <time>2023-05-31T13:21:10Z</time>
      </trkpt>
      <trkpt lat="49.88107" lon="2.0243">
        <ele>61.9</ele>
        <time>2023-05-31T13:21:11Z</time>
      </trkpt>
      <trkpt lat="49.88107" lon="2.0243">
        <ele>61.9</ele>
        <time>2023-05-31T13:21:13Z</time>
      </trkpt>
      <trkpt lat="49.88107" lon="2.02429">
        <ele>61.9</ele>
        <time>2023-05-31T13:21:14Z</time>
      </trkpt>
      <trkpt lat="49.88107" lon="2.02429">
        <ele>61.9</ele>
        <time>2023-05-31T13:21:15Z</time>
      </trkpt>
      <trkpt lat="49.88107" lon="2.02429">
        <ele>62</ele>
        <time>2023-05-31T13:21:17Z</time>
      </trkpt>
      <trkpt lat="49.88107" lon="2.02429">
        <ele>62</ele>
        <time>2023-05-31T13:21:18Z</time>
      </trkpt>
      <trkpt lat="49.88107" lon="2.02429">
        <ele>62</ele>
        <time>2023-05-31T13:21:19Z</time>
      </trkpt>
      <trkpt lat="49.88107" lon="2.02429">
        <ele>62</ele>
        <time>2023-05-31T13:21:20Z</time>
      </trkpt>
      <trkpt lat="49.88107" lon="2.02429">
        <ele>62</ele>
        <time>2023-05-31T13:21:21Z</time>
      </trkpt>
      <trkpt lat="49.88107" lon="2.02429">
        <ele>62</ele>
        <time>2023-05-31T13:21:22Z</time>
      </trkpt>
      <trkpt lat="49.88108" lon="2.02429">
        <ele>62</ele>
        <time>2023-05-31T13:21:23Z</time>
      </trkpt>
      <trkpt lat="49.88108" lon="2.02429">
        <ele>62</ele>
        <time>2023-05-31T13:21:24Z</time>
      </trkpt>
      <trkpt lat="49.88108" lon="2.02429">
        <ele>62</ele>
        <time>2023-05-31T13:21:25Z</time>
      </trkpt>
      <trkpt lat="49.88108" lon="2.02429">
        <ele>62</ele>
        <time>2023-05-31T13:21:26Z</time>
      </trkpt>
      <trkpt lat="49.88108" lon="2.02429">
        <ele>62</ele>
        <time>2023-05-31T13:21:27Z</time>
      </trkpt>
      <trkpt lat="49.88108" lon="2.02429">
        <ele>62</ele>
        <time>2023-05-31T13:21:28Z</time>
      </trkpt>
      <trkpt lat="49.88108" lon="2.02429">
        <ele>62</ele>
        <time>2023-05-31T13:21:29Z</time>
      </trkpt>
      <trkpt lat="49.88108" lon="2.02429">
        <ele>62</ele>
        <time>2023-05-31T13:21:30Z</time>
      </trkpt>
      <trkpt lat="49.88108" lon="2.02429">
        <ele>62</ele>
        <time>2023-05-31T13:21:31Z</time>
      </trkpt>
      <trkpt lat="49.88108" lon="2.02429">
        <ele>62</ele>
        <time>2023-05-31T13:21:32Z</time>
      </trkpt>
      <trkpt lat="49.88108" lon="2.02429">
        <ele>62</ele>
        <time>2023-05-31T13:21:33Z</time>
      </trkpt>
      <trkpt lat="49.88108" lon="2.02429">
        <ele>62</ele>
        <time>2023-05-31T13:21:34Z</time>
      </trkpt>
      <trkpt lat="49.88108" lon="2.02429">
        <ele>62</ele>
        <time>2023-05-31T13:21:35Z</time>
      </trkpt>
      <trkpt lat="49.88107" lon="2.0243">
        <ele>62.1</ele>
        <time>2023-05-31T13:21:36Z</time>
      </trkpt>
      <trkpt lat="49.88106" lon="2.0243">
        <ele>62.2</ele>
        <time>2023-05-31T13:21:37Z</time>
      </trkpt>
      <trkpt lat="49.88106" lon="2.0243">
        <ele>62.2</ele>
        <time>2023-05-31T13:21:38Z</time>
      </trkpt>
      <trkpt lat="49.88106" lon="2.02431">
        <ele>62.2</ele>
        <time>2023-05-31T13:21:39Z</time>
      </trkpt>
      <trkpt lat="49.88105" lon="2.0243">
        <ele>62.3</ele>
        <time>2023-05-31T13:21:40Z</time>
      </trkpt>
      <trkpt lat="49.88104" lon="2.0243">
        <ele>62.3</ele>
        <time>2023-05-31T13:21:42Z</time>
      </trkpt>
      <trkpt lat="49.88104" lon="2.02429">
        <ele>62.3</ele>
        <time>2023-05-31T13:21:43Z</time>
      </trkpt>
      <trkpt lat="49.88104" lon="2.02429">
        <ele>62.4</ele>
        <time>2023-05-31T13:21:44Z</time>
      </trkpt>
      <trkpt lat="49.88103" lon="2.02429">
        <ele>62.4</ele>
        <time>2023-05-31T13:21:45Z</time>
      </trkpt>
      <trkpt lat="49.88102" lon="2.02428">
        <ele>62.5</ele>
        <time>2023-05-31T13:21:46Z</time>
      </trkpt>
      <trkpt lat="49.88101" lon="2.02428">
        <ele>62.5</ele>
        <time>2023-05-31T13:21:47Z</time>
      </trkpt>
      <trkpt lat="49.88101" lon="2.02427">
        <ele>62.6</ele>
        <time>2023-05-31T13:21:49Z</time>
      </trkpt>
      <trkpt lat="49.881" lon="2.02426">
        <ele>62.7</ele>
        <time>2023-05-31T13:21:50Z</time>
      </trkpt>
      <trkpt lat="49.88098" lon="2.02426">
        <ele>62.8</ele>
        <time>2023-05-31T13:21:51Z</time>
      </trkpt>
      <trkpt lat="49.88096" lon="2.02424">
        <ele>63</ele>
        <time>2023-05-31T13:21:52Z</time>
      </trkpt>
      <trkpt lat="49.88094" lon="2.02424">
        <ele>63</ele>
        <time>2023-05-31T13:21:53Z</time>
      </trkpt>
      <trkpt lat="49.88089" lon="2.02421">
        <ele>63.4</ele>
        <time>2023-05-31T13:21:55Z</time>
      </trkpt>
      <trkpt lat="49.88088" lon="2.02421">
        <ele>63.5</ele>
        <time>2023-05-31T13:21:57Z</time>
      </trkpt>
      <trkpt lat="49.88086" lon="2.0242">
        <ele>63.5</ele>
        <time>2023-05-31T13:21:59Z</time>
      </trkpt>
      <trkpt lat="49.88085" lon="2.0242">
        <ele>63.6</ele>
        <time>2023-05-31T13:22:00Z</time>
      </trkpt>
      <trkpt lat="49.88084" lon="2.0242">
        <ele>63.7</ele>
        <time>2023-05-31T13:22:02Z</time>
      </trkpt>
      <trkpt lat="49.88083" lon="2.02419">
        <ele>63.7</ele>
        <time>2023-05-31T13:22:03Z</time>
      </trkpt>
      <trkpt lat="49.88082" lon="2.02419">
        <ele>63.8</ele>
        <time>2023-05-31T13:22:04Z</time>
      </trkpt>
      <trkpt lat="49.88081" lon="2.02419">
        <ele>63.8</ele>
        <time>2023-05-31T13:22:05Z</time>
      </trkpt>
      <trkpt lat="49.8808" lon="2.02418">
        <ele>63.9</ele>
        <time>2023-05-31T13:22:06Z</time>
      </trkpt>
      <trkpt lat="49.88079" lon="2.02418">
        <ele>64</ele>
        <time>2023-05-31T13:22:08Z</time>
      </trkpt>
      <trkpt lat="49.88078" lon="2.02417">
        <ele>64</ele>
        <time>2023-05-31T13:22:09Z</time>
      </trkpt>
      <trkpt lat="49.88078" lon="2.02417">
        <ele>64.1</ele>
        <time>2023-05-31T13:22:10Z</time>
      </trkpt>
      <trkpt lat="49.88077" lon="2.02416">
        <ele>64.1</ele>
        <time>2023-05-31T13:22:11Z</time>
      </trkpt>
      <trkpt lat="49.88076" lon="2.02416">
        <ele>64.2</ele>
        <time>2023-05-31T13:22:12Z</time>
      </trkpt>
      <trkpt lat="49.88074" lon="2.02415">
        <ele>64.2</ele>
        <time>2023-05-31T13:22:13Z</time>
      </trkpt>
      <trkpt lat="49.88074" lon="2.02415">
        <ele>64.3</ele>
        <time>2023-05-31T13:22:14Z</time>
      </trkpt>
      <trkpt lat="49.88073" lon="2.02415">
        <ele>64.3</ele>
        <time>2023-05-31T13:22:15Z</time>
      </trkpt>
      <trkpt lat="49.88071" lon="2.02414">
        <ele>64.4</ele>
        <time>2023-05-31T13:22:17Z</time>
      </trkpt>
      <trkpt lat="49.8807" lon="2.02414">
        <ele>64.4</ele>
        <time>2023-05-31T13:22:19Z</time>
      </trkpt>
      <trkpt lat="49.88069" lon="2.02414">
        <ele>64.5</ele>
        <time>2023-05-31T13:22:20Z</time>
      </trkpt>
      <trkpt lat="49.88068" lon="2.02413">
        <ele>64.6</ele>
        <time>2023-05-31T13:22:21Z</time>
      </trkpt>
      <trkpt lat="49.88067" lon="2.02413">
        <ele>64.6</ele>
        <time>2023-05-31T13:22:23Z</time>
      </trkpt>
      <trkpt lat="49.88066" lon="2.02412">
        <ele>64.7</ele>
        <time>2023-05-31T13:22:24Z</time>
      </trkpt>
      <trkpt lat="49.88065" lon="2.02412">
        <ele>64.7</ele>
        <time>2023-05-31T13:22:25Z</time>
      </trkpt>
      <trkpt lat="49.88064" lon="2.02412">
        <ele>64.7</ele>
        <time>2023-05-31T13:22:26Z</time>
      </trkpt>
      <trkpt lat="49.88063" lon="2.02412">
        <ele>64.8</ele>
        <time>2023-05-31T13:22:27Z</time>
      </trkpt>
      <trkpt lat="49.88063" lon="2.02412">
        <ele>64.8</ele>
        <time>2023-05-31T13:22:29Z</time>
      </trkpt>
      <trkpt lat="49.88062" lon="2.02412">
        <ele>64.9</ele>
        <time>2023-05-31T13:22:30Z</time>
      </trkpt>
      <trkpt lat="49.88061" lon="2.02412">
        <ele>64.9</ele>
        <time>2023-05-31T13:22:31Z</time>
      </trkpt>
      <trkpt lat="49.8806" lon="2.02411">
        <ele>64.9</ele>
        <time>2023-05-31T13:22:32Z</time>
      </trkpt>
      <trkpt lat="49.88059" lon="2.02411">
        <ele>65</ele>
        <time>2023-05-31T13:22:33Z</time>
      </trkpt>
      <trkpt lat="49.88059" lon="2.0241">
        <ele>65</ele>
        <time>2023-05-31T13:22:34Z</time>
      </trkpt>
      <trkpt lat="49.88058" lon="2.0241">
        <ele>65</ele>
        <time>2023-05-31T13:22:35Z</time>
      </trkpt>
      <trkpt lat="49.88057" lon="2.02409">
        <ele>65.1</ele>
        <time>2023-05-31T13:22:37Z</time>
      </trkpt>
      <trkpt lat="49.88056" lon="2.02409">
        <ele>65.1</ele>
        <time>2023-05-31T13:22:38Z</time>
      </trkpt>
      <trkpt lat="49.88055" lon="2.02408">
        <ele>65.2</ele>
        <time>2023-05-31T13:22:39Z</time>
      </trkpt>
      <trkpt lat="49.88054" lon="2.02408">
        <ele>65.2</ele>
        <time>2023-05-31T13:22:41Z</time>
      </trkpt>
      <trkpt lat="49.88053" lon="2.02407">
        <ele>65.3</ele>
        <time>2023-05-31T13:22:42Z</time>
      </trkpt>
      <trkpt lat="49.88052" lon="2.02407">
        <ele>65.3</ele>
        <time>2023-05-31T13:22:43Z</time>
      </trkpt>
      <trkpt lat="49.88051" lon="2.02406">
        <ele>65.4</ele>
        <time>2023-05-31T13:22:44Z</time>
      </trkpt>
      <trkpt lat="49.8805" lon="2.02405">
        <ele>65.4</ele>
        <time>2023-05-31T13:22:45Z</time>
      </trkpt>
      <trkpt lat="49.8805" lon="2.02405">
        <ele>65.4</ele>
        <time>2023-05-31T13:22:46Z</time>
      </trkpt>
      <trkpt lat="49.88048" lon="2.02404">
        <ele>65.5</ele>
        <time>2023-05-31T13:22:47Z</time>
      </trkpt>
      <trkpt lat="49.88047" lon="2.02404">
        <ele>65.5</ele>
        <time>2023-05-31T13:22:49Z</time>
      </trkpt>
      <trkpt lat="49.88046" lon="2.02403">
        <ele>65.6</ele>
        <time>2023-05-31T13:22:50Z</time>
      </trkpt>
      <trkpt lat="49.88045" lon="2.02402">
        <ele>65.6</ele>
        <time>2023-05-31T13:22:51Z</time>
      </trkpt>
      <trkpt lat="49.88044" lon="2.02402">
        <ele>65.6</ele>
        <time>2023-05-31T13:22:53Z</time>
      </trkpt>
      <trkpt lat="49.88043" lon="2.02401">
        <ele>65.7</ele>
        <time>2023-05-31T13:22:54Z</time>
      </trkpt>
      <trkpt lat="49.88041" lon="2.024">
        <ele>65.7</ele>
        <time>2023-05-31T13:22:55Z</time>
      </trkpt>
      <trkpt lat="49.8804" lon="2.02399">
        <ele>65.8</ele>
        <time>2023-05-31T13:22:56Z</time>
      </trkpt>
      <trkpt lat="49.88039" lon="2.02398">
        <ele>65.8</ele>
        <time>2023-05-31T13:22:57Z</time>
      </trkpt>
      <trkpt lat="49.88038" lon="2.02398">
        <ele>65.8</ele>
        <time>2023-05-31T13:22:58Z</time>
      </trkpt>
      <trkpt lat="49.88037" lon="2.02397">
        <ele>65.9</ele>
        <time>2023-05-31T13:22:59Z</time>
      </trkpt>
      <trkpt lat="49.88036" lon="2.02396">
        <ele>65.9</ele>
        <time>2023-05-31T13:23:01Z</time>
      </trkpt>
      <trkpt lat="49.88035" lon="2.02395">
        <ele>65.9</ele>
        <time>2023-05-31T13:23:02Z</time>
      </trkpt>
      <trkpt lat="49.88034" lon="2.02394">
        <ele>66</ele>
        <time>2023-05-31T13:23:03Z</time>
      </trkpt>
      <trkpt lat="49.88033" lon="2.02394">
        <ele>66</ele>
        <time>2023-05-31T13:23:04Z</time>
      </trkpt>
      <trkpt lat="49.88032" lon="2.02393">
        <ele>66</ele>
        <time>2023-05-31T13:23:05Z</time>
      </trkpt>
      <trkpt lat="49.88031" lon="2.02392">
        <ele>66</ele>
        <time>2023-05-31T13:23:07Z</time>
      </trkpt>
      <trkpt lat="49.8803" lon="2.02392">
        <ele>66.1</ele>
        <time>2023-05-31T13:23:09Z</time>
      </trkpt>
      <trkpt lat="49.88029" lon="2.02391">
        <ele>66.1</ele>
        <time>2023-05-31T13:23:10Z</time>
      </trkpt>
      <trkpt lat="49.88028" lon="2.0239">
        <ele>66.1</ele>
        <time>2023-05-31T13:23:11Z</time>
      </trkpt>
      <trkpt lat="49.88027" lon="2.02389">
        <ele>66.1</ele>
        <time>2023-05-31T13:23:12Z</time>
      </trkpt>
      <trkpt lat="49.88027" lon="2.02389">
        <ele>66.1</ele>
        <time>2023-05-31T13:23:13Z</time>
      </trkpt>
      <trkpt lat="49.88026" lon="2.02388">
        <ele>66.2</ele>
        <time>2023-05-31T13:23:14Z</time>
      </trkpt>
      <trkpt lat="49.88025" lon="2.02386">
        <ele>66.2</ele>
        <time>2023-05-31T13:23:16Z</time>
      </trkpt>
      <trkpt lat="49.88024" lon="2.02385">
        <ele>66.2</ele>
        <time>2023-05-31T13:23:18Z</time>
      </trkpt>
      <trkpt lat="49.88023" lon="2.02384">
        <ele>66.2</ele>
        <time>2023-05-31T13:23:19Z</time>
      </trkpt>
      <trkpt lat="49.88023" lon="2.02383">
        <ele>66.2</ele>
        <time>2023-05-31T13:23:20Z</time>
      </trkpt>
      <trkpt lat="49.88022" lon="2.02382">
        <ele>66.3</ele>
        <time>2023-05-31T13:23:22Z</time>
      </trkpt>
      <trkpt lat="49.88021" lon="2.02381">
        <ele>66.3</ele>
        <time>2023-05-31T13:23:23Z</time>
      </trkpt>
      <trkpt lat="49.88021" lon="2.02379">
        <ele>66.3</ele>
        <time>2023-05-31T13:23:24Z</time>
      </trkpt>
      <trkpt lat="49.8802" lon="2.02377">
        <ele>66.3</ele>
        <time>2023-05-31T13:23:25Z</time>
      </trkpt>
      <trkpt lat="49.8802" lon="2.02376">
        <ele>66.3</ele>
        <time>2023-05-31T13:23:26Z</time>
      </trkpt>
      <trkpt lat="49.88019" lon="2.02374">
        <ele>66.4</ele>
        <time>2023-05-31T13:23:27Z</time>
      </trkpt>
      <trkpt lat="49.88018" lon="2.02372">
        <ele>66.4</ele>
        <time>2023-05-31T13:23:28Z</time>
      </trkpt>
      <trkpt lat="49.88017" lon="2.02369">
        <ele>66.4</ele>
        <time>2023-05-31T13:23:30Z</time>
      </trkpt>
      <trkpt lat="49.88017" lon="2.02368">
        <ele>66.5</ele>
        <time>2023-05-31T13:23:31Z</time>
      </trkpt>
      <trkpt lat="49.88016" lon="2.02367">
        <ele>66.5</ele>
        <time>2023-05-31T13:23:32Z</time>
      </trkpt>
      <trkpt lat="49.88015" lon="2.02365">
        <ele>66.5</ele>
        <time>2023-05-31T13:23:33Z</time>
      </trkpt>
      <trkpt lat="49.88014" lon="2.02364">
        <ele>66.5</ele>
        <time>2023-05-31T13:23:35Z</time>
      </trkpt>
      <trkpt lat="49.88014" lon="2.02363">
        <ele>66.6</ele>
        <time>2023-05-31T13:23:36Z</time>
      </trkpt>
      <trkpt lat="49.88012" lon="2.02361">
        <ele>66.6</ele>
        <time>2023-05-31T13:23:37Z</time>
      </trkpt>
      <trkpt lat="49.88011" lon="2.0236">
        <ele>66.6</ele>
        <time>2023-05-31T13:23:38Z</time>
      </trkpt>
      <trkpt lat="49.88011" lon="2.02359">
        <ele>66.7</ele>
        <time>2023-05-31T13:23:39Z</time>
      </trkpt>
      <trkpt lat="49.8801" lon="2.02358">
        <ele>66.7</ele>
        <time>2023-05-31T13:23:40Z</time>
      </trkpt>
      <trkpt lat="49.88009" lon="2.02357">
        <ele>66.7</ele>
        <time>2023-05-31T13:23:41Z</time>
      </trkpt>
      <trkpt lat="49.88008" lon="2.02356">
        <ele>66.7</ele>
        <time>2023-05-31T13:23:42Z</time>
      </trkpt>
      <trkpt lat="49.88007" lon="2.02355">
        <ele>66.8</ele>
        <time>2023-05-31T13:23:43Z</time>
      </trkpt>
      <trkpt lat="49.88006" lon="2.02354">
        <ele>66.8</ele>
        <time>2023-05-31T13:23:45Z</time>
      </trkpt>
      <trkpt lat="49.88005" lon="2.02353">
        <ele>66.8</ele>
        <time>2023-05-31T13:23:46Z</time>
      </trkpt>
      <trkpt lat="49.88004" lon="2.02352">
        <ele>66.9</ele>
        <time>2023-05-31T13:23:47Z</time>
      </trkpt>
      <trkpt lat="49.88003" lon="2.02351">
        <ele>66.9</ele>
        <time>2023-05-31T13:23:48Z</time>
      </trkpt>
      <trkpt lat="49.88002" lon="2.02351">
        <ele>67</ele>
        <time>2023-05-31T13:23:50Z</time>
      </trkpt>
      <trkpt lat="49.88002" lon="2.0235">
        <ele>67</ele>
        <time>2023-05-31T13:23:51Z</time>
      </trkpt>
      <trkpt lat="49.88001" lon="2.02349">
        <ele>67</ele>
        <time>2023-05-31T13:23:52Z</time>
      </trkpt>
      <trkpt lat="49.88" lon="2.02348">
        <ele>67.1</ele>
        <time>2023-05-31T13:23:53Z</time>
      </trkpt>
      <trkpt lat="49.87999" lon="2.02348">
        <ele>67.1</ele>
        <time>2023-05-31T13:23:54Z</time>
      </trkpt>
      <trkpt lat="49.87998" lon="2.02347">
        <ele>67.2</ele>
        <time>2023-05-31T13:23:55Z</time>
      </trkpt>
      <trkpt lat="49.87997" lon="2.02346">
        <ele>67.2</ele>
        <time>2023-05-31T13:23:56Z</time>
      </trkpt>
      <trkpt lat="49.87996" lon="2.02345">
        <ele>67.3</ele>
        <time>2023-05-31T13:23:58Z</time>
      </trkpt>
      <trkpt lat="49.87995" lon="2.02345">
        <ele>67.3</ele>
        <time>2023-05-31T13:23:59Z</time>
      </trkpt>
      <trkpt lat="49.87994" lon="2.02344">
        <ele>67.4</ele>
        <time>2023-05-31T13:24:00Z</time>
      </trkpt>
      <trkpt lat="49.87992" lon="2.02342">
        <ele>67.5</ele>
        <time>2023-05-31T13:24:01Z</time>
      </trkpt>
      <trkpt lat="49.87992" lon="2.02341">
        <ele>67.5</ele>
        <time>2023-05-31T13:24:02Z</time>
      </trkpt>
      <trkpt lat="49.87991" lon="2.0234">
        <ele>67.6</ele>
        <time>2023-05-31T13:24:03Z</time>
      </trkpt>
      <trkpt lat="49.8799" lon="2.02338">
        <ele>68.5</ele>
        <time>2023-05-31T13:24:05Z</time>
      </trkpt>
      <trkpt lat="49.87989" lon="2.02337">
        <ele>68.7</ele>
        <time>2023-05-31T13:24:06Z</time>
      </trkpt>
      <trkpt lat="49.87988" lon="2.02336">
        <ele>68.8</ele>
        <time>2023-05-31T13:24:08Z</time>
      </trkpt>
      <trkpt lat="49.87987" lon="2.02335">
        <ele>69</ele>
        <time>2023-05-31T13:24:09Z</time>
      </trkpt>
      <trkpt lat="49.87986" lon="2.02335">
        <ele>69.1</ele>
        <time>2023-05-31T13:24:10Z</time>
      </trkpt>
      <trkpt lat="49.87985" lon="2.02334">
        <ele>69.2</ele>
        <time>2023-05-31T13:24:11Z</time>
      </trkpt>
      <trkpt lat="49.87984" lon="2.02333">
        <ele>69.4</ele>
        <time>2023-05-31T13:24:12Z</time>
      </trkpt>
      <trkpt lat="49.87983" lon="2.02333">
        <ele>69.5</ele>
        <time>2023-05-31T13:24:14Z</time>
      </trkpt>
      <trkpt lat="49.87982" lon="2.02333">
        <ele>69.6</ele>
        <time>2023-05-31T13:24:15Z</time>
      </trkpt>
      <trkpt lat="49.87981" lon="2.02332">
        <ele>69.7</ele>
        <time>2023-05-31T13:24:16Z</time>
      </trkpt>
      <trkpt lat="49.8798" lon="2.02332">
        <ele>69.9</ele>
        <time>2023-05-31T13:24:17Z</time>
      </trkpt>
      <trkpt lat="49.87979" lon="2.02332">
        <ele>70</ele>
        <time>2023-05-31T13:24:18Z</time>
      </trkpt>
      <trkpt lat="49.87979" lon="2.02332">
        <ele>70.1</ele>
        <time>2023-05-31T13:24:19Z</time>
      </trkpt>
      <trkpt lat="49.87977" lon="2.02333">
        <ele>70.2</ele>
        <time>2023-05-31T13:24:21Z</time>
      </trkpt>
      <trkpt lat="49.87977" lon="2.02333">
        <ele>70.3</ele>
        <time>2023-05-31T13:24:23Z</time>
      </trkpt>
      <trkpt lat="49.87976" lon="2.02334">
        <ele>70.4</ele>
        <time>2023-05-31T13:24:24Z</time>
      </trkpt>
      <trkpt lat="49.87975" lon="2.02334">
        <ele>70.5</ele>
        <time>2023-05-31T13:24:25Z</time>
      </trkpt>
      <trkpt lat="49.87975" lon="2.02335">
        <ele>70.6</ele>
        <time>2023-05-31T13:24:27Z</time>
      </trkpt>
      <trkpt lat="49.87974" lon="2.02336">
        <ele>70.7</ele>
        <time>2023-05-31T13:24:28Z</time>
      </trkpt>
      <trkpt lat="49.87974" lon="2.02336">
        <ele>70.8</ele>
        <time>2023-05-31T13:24:29Z</time>
      </trkpt>
      <trkpt lat="49.87973" lon="2.02337">
        <ele>70.9</ele>
        <time>2023-05-31T13:24:30Z</time>
      </trkpt>
      <trkpt lat="49.87972" lon="2.02338">
        <ele>71.1</ele>
        <time>2023-05-31T13:24:31Z</time>
      </trkpt>
      <trkpt lat="49.8797" lon="2.02339">
        <ele>71.3</ele>
        <time>2023-05-31T13:24:33Z</time>
      </trkpt>
      <trkpt lat="49.8797" lon="2.0234">
        <ele>71.4</ele>
        <time>2023-05-31T13:24:35Z</time>
      </trkpt>
      <trkpt lat="49.87969" lon="2.02341">
        <ele>71.5</ele>
        <time>2023-05-31T13:24:36Z</time>
      </trkpt>
      <trkpt lat="49.87969" lon="2.02341">
        <ele>71.6</ele>
        <time>2023-05-31T13:24:37Z</time>
      </trkpt>
      <trkpt lat="49.87968" lon="2.02342">
        <ele>71.7</ele>
        <time>2023-05-31T13:24:38Z</time>
      </trkpt>
      <trkpt lat="49.87968" lon="2.02343">
        <ele>71.8</ele>
        <time>2023-05-31T13:24:39Z</time>
      </trkpt>
      <trkpt lat="49.87968" lon="2.02342">
        <ele>71.9</ele>
        <time>2023-05-31T13:24:41Z</time>
      </trkpt>
      <trkpt lat="49.87968" lon="2.02342">
        <ele>71.9</ele>
        <time>2023-05-31T13:24:42Z</time>
      </trkpt>
      <trkpt lat="49.87968" lon="2.02343">
        <ele>72</ele>
        <time>2023-05-31T13:24:44Z</time>
      </trkpt>
      <trkpt lat="49.87968" lon="2.02344">
        <ele>72.1</ele>
        <time>2023-05-31T13:24:45Z</time>
      </trkpt>
      <trkpt lat="49.87967" lon="2.02345">
        <ele>72.2</ele>
        <time>2023-05-31T13:24:46Z</time>
      </trkpt>
      <trkpt lat="49.87966" lon="2.02346">
        <ele>72.3</ele>
        <time>2023-05-31T13:24:48Z</time>
      </trkpt>
      <trkpt lat="49.87965" lon="2.02347">
        <ele>72.5</ele>
        <time>2023-05-31T13:24:49Z</time>
      </trkpt>
      <trkpt lat="49.87965" lon="2.02348">
        <ele>72.6</ele>
        <time>2023-05-31T13:24:50Z</time>
      </trkpt>
      <trkpt lat="49.87964" lon="2.02349">
        <ele>72.6</ele>
        <time>2023-05-31T13:24:51Z</time>
      </trkpt>
      <trkpt lat="49.87964" lon="2.02349">
        <ele>72.7</ele>
        <time>2023-05-31T13:24:52Z</time>
      </trkpt>
      <trkpt lat="49.87963" lon="2.0235">
        <ele>72.8</ele>
        <time>2023-05-31T13:24:54Z</time>
      </trkpt>
      <trkpt lat="49.87962" lon="2.0235">
        <ele>72.9</ele>
        <time>2023-05-31T13:24:55Z</time>
      </trkpt>
      <trkpt lat="49.87961" lon="2.0235">
        <ele>73</ele>
        <time>2023-05-31T13:24:56Z</time>
      </trkpt>
      <trkpt lat="49.87961" lon="2.02351">
        <ele>73.2</ele>
        <time>2023-05-31T13:24:57Z</time>
      </trkpt>
      <trkpt lat="49.8796" lon="2.02352">
        <ele>73.3</ele>
        <time>2023-05-31T13:24:59Z</time>
      </trkpt>
      <trkpt lat="49.87959" lon="2.02352">
        <ele>73.4</ele>
        <time>2023-05-31T13:25:00Z</time>
      </trkpt>
      <trkpt lat="49.87958" lon="2.02353">
        <ele>73.5</ele>
        <time>2023-05-31T13:25:01Z</time>
      </trkpt>
      <trkpt lat="49.87957" lon="2.02354">
        <ele>73.6</ele>
        <time>2023-05-31T13:25:02Z</time>
      </trkpt>
      <trkpt lat="49.87957" lon="2.02354">
        <ele>73.7</ele>
        <time>2023-05-31T13:25:03Z</time>
      </trkpt>
      <trkpt lat="49.87956" lon="2.02355">
        <ele>73.9</ele>
        <time>2023-05-31T13:25:05Z</time>
      </trkpt>
      <trkpt lat="49.87955" lon="2.02356">
        <ele>74</ele>
        <time>2023-05-31T13:25:07Z</time>
      </trkpt>
      <trkpt lat="49.87954" lon="2.02357">
        <ele>74.1</ele>
        <time>2023-05-31T13:25:08Z</time>
      </trkpt>
      <trkpt lat="49.87954" lon="2.02358">
        <ele>74.2</ele>
        <time>2023-05-31T13:25:09Z</time>
      </trkpt>
      <trkpt lat="49.87953" lon="2.02358">
        <ele>74.4</ele>
        <time>2023-05-31T13:25:11Z</time>
      </trkpt>
      <trkpt lat="49.87952" lon="2.02359">
        <ele>74.5</ele>
        <time>2023-05-31T13:25:12Z</time>
      </trkpt>
      <trkpt lat="49.87951" lon="2.0236">
        <ele>74.6</ele>
        <time>2023-05-31T13:25:13Z</time>
      </trkpt>
      <trkpt lat="49.8795" lon="2.02361">
        <ele>74.8</ele>
        <time>2023-05-31T13:25:15Z</time>
      </trkpt>
      <trkpt lat="49.87949" lon="2.02361">
        <ele>74.9</ele>
        <time>2023-05-31T13:25:16Z</time>
      </trkpt>
      <trkpt lat="49.87948" lon="2.02362">
        <ele>75</ele>
        <time>2023-05-31T13:25:18Z</time>
      </trkpt>
      <trkpt lat="49.87946" lon="2.02363">
        <ele>75.2</ele>
        <time>2023-05-31T13:25:19Z</time>
      </trkpt>
      <trkpt lat="49.87945" lon="2.02363">
        <ele>75.3</ele>
        <time>2023-05-31T13:25:21Z</time>
      </trkpt>
      <trkpt lat="49.87945" lon="2.02364">
        <ele>75.5</ele>
        <time>2023-05-31T13:25:22Z</time>
      </trkpt>
      <trkpt lat="49.87944" lon="2.02365">
        <ele>75.6</ele>
        <time>2023-05-31T13:25:24Z</time>
      </trkpt>
      <trkpt lat="49.87943" lon="2.02366">
        <ele>75.7</ele>
        <time>2023-05-31T13:25:25Z</time>
      </trkpt>
      <trkpt lat="49.87942" lon="2.02366">
        <ele>75.8</ele>
        <time>2023-05-31T13:25:26Z</time>
      </trkpt>
      <trkpt lat="49.87942" lon="2.02367">
        <ele>75.9</ele>
        <time>2023-05-31T13:25:27Z</time>
      </trkpt>
      <trkpt lat="49.87941" lon="2.02367">
        <ele>76</ele>
        <time>2023-05-31T13:25:28Z</time>
      </trkpt>
      <trkpt lat="49.8794" lon="2.02368">
        <ele>76.1</ele>
        <time>2023-05-31T13:25:29Z</time>
      </trkpt>
      <trkpt lat="49.87939" lon="2.02369">
        <ele>76.3</ele>
        <time>2023-05-31T13:25:31Z</time>
      </trkpt>
      <trkpt lat="49.87938" lon="2.02369">
        <ele>76.4</ele>
        <time>2023-05-31T13:25:33Z</time>
      </trkpt>
      <trkpt lat="49.87937" lon="2.0237">
        <ele>76.5</ele>
        <time>2023-05-31T13:25:34Z</time>
      </trkpt>
      <trkpt lat="49.87937" lon="2.0237">
        <ele>76.6</ele>
        <time>2023-05-31T13:25:35Z</time>
      </trkpt>
      <trkpt lat="49.87936" lon="2.0237">
        <ele>76.7</ele>
        <time>2023-05-31T13:25:36Z</time>
      </trkpt>
      <trkpt lat="49.87935" lon="2.02371">
        <ele>76.8</ele>
        <time>2023-05-31T13:25:37Z</time>
      </trkpt>
      <trkpt lat="49.87935" lon="2.02371">
        <ele>76.8</ele>
        <time>2023-05-31T13:25:38Z</time>
      </trkpt>
      <trkpt lat="49.87934" lon="2.02372">
        <ele>76.9</ele>
        <time>2023-05-31T13:25:40Z</time>
      </trkpt>
      <trkpt lat="49.87933" lon="2.02372">
        <ele>77</ele>
        <time>2023-05-31T13:25:41Z</time>
      </trkpt>
      <trkpt lat="49.87933" lon="2.02373">
        <ele>77.1</ele>
        <time>2023-05-31T13:25:42Z</time>
      </trkpt>
      <trkpt lat="49.87932" lon="2.02373">
        <ele>77.2</ele>
        <time>2023-05-31T13:25:43Z</time>
      </trkpt>
      <trkpt lat="49.87931" lon="2.02373">
        <ele>77.3</ele>
        <time>2023-05-31T13:25:44Z</time>
      </trkpt>
      <trkpt lat="49.87931" lon="2.02374">
        <ele>77.4</ele>
        <time>2023-05-31T13:25:46Z</time>
      </trkpt>
      <trkpt lat="49.8793" lon="2.02375">
        <ele>77.5</ele>
        <time>2023-05-31T13:25:47Z</time>
      </trkpt>
      <trkpt lat="49.87929" lon="2.02375">
        <ele>77.6</ele>
        <time>2023-05-31T13:25:48Z</time>
      </trkpt>
      <trkpt lat="49.87928" lon="2.02376">
        <ele>77.7</ele>
        <time>2023-05-31T13:25:50Z</time>
      </trkpt>
      <trkpt lat="49.87928" lon="2.02377">
        <ele>77.8</ele>
        <time>2023-05-31T13:25:51Z</time>
      </trkpt>
      <trkpt lat="49.87927" lon="2.02377">
        <ele>77.9</ele>
        <time>2023-05-31T13:25:52Z</time>
      </trkpt>
      <trkpt lat="49.87926" lon="2.02378">
        <ele>78</ele>
        <time>2023-05-31T13:25:54Z</time>
      </trkpt>
      <trkpt lat="49.87926" lon="2.02378">
        <ele>78</ele>
        <time>2023-05-31T13:25:55Z</time>
      </trkpt>
      <trkpt lat="49.87925" lon="2.02378">
        <ele>78.1</ele>
        <time>2023-05-31T13:25:56Z</time>
      </trkpt>
      <trkpt lat="49.87925" lon="2.02378">
        <ele>78.2</ele>
        <time>2023-05-31T13:25:57Z</time>
      </trkpt>
      <trkpt lat="49.87924" lon="2.02379">
        <ele>78.2</ele>
        <time>2023-05-31T13:25:58Z</time>
      </trkpt>
      <trkpt lat="49.87924" lon="2.02379">
        <ele>78.3</ele>
        <time>2023-05-31T13:25:59Z</time>
      </trkpt>
      <trkpt lat="49.87923" lon="2.02379">
        <ele>78.3</ele>
        <time>2023-05-31T13:26:00Z</time>
      </trkpt>
      <trkpt lat="49.87922" lon="2.0238">
        <ele>78.5</ele>
        <time>2023-05-31T13:26:02Z</time>
      </trkpt>
      <trkpt lat="49.87921" lon="2.0238">
        <ele>78.6</ele>
        <time>2023-05-31T13:26:04Z</time>
      </trkpt>
      <trkpt lat="49.87921" lon="2.02381">
        <ele>78.7</ele>
        <time>2023-05-31T13:26:05Z</time>
      </trkpt>
      <trkpt lat="49.8792" lon="2.02381">
        <ele>78.8</ele>
        <time>2023-05-31T13:26:06Z</time>
      </trkpt>
      <trkpt lat="49.87919" lon="2.02382">
        <ele>78.9</ele>
        <time>2023-05-31T13:26:07Z</time>
      </trkpt>
      <trkpt lat="49.87918" lon="2.02383">
        <ele>79</ele>
        <time>2023-05-31T13:26:09Z</time>
      </trkpt>
      <trkpt lat="49.87917" lon="2.02383">
        <ele>79.1</ele>
        <time>2023-05-31T13:26:11Z</time>
      </trkpt>
      <trkpt lat="49.87917" lon="2.02384">
        <ele>79.2</ele>
        <time>2023-05-31T13:26:12Z</time>
      </trkpt>
      <trkpt lat="49.87916" lon="2.02385">
        <ele>79.3</ele>
        <time>2023-05-31T13:26:13Z</time>
      </trkpt>
      <trkpt lat="49.87915" lon="2.02385">
        <ele>79.5</ele>
        <time>2023-05-31T13:26:14Z</time>
      </trkpt>
      <trkpt lat="49.87914" lon="2.02386">
        <ele>79.6</ele>
        <time>2023-05-31T13:26:16Z</time>
      </trkpt>
      <trkpt lat="49.87913" lon="2.02386">
        <ele>79.7</ele>
        <time>2023-05-31T13:26:17Z</time>
      </trkpt>
      <trkpt lat="49.87912" lon="2.02387">
        <ele>79.9</ele>
        <time>2023-05-31T13:26:18Z</time>
      </trkpt>
      <trkpt lat="49.87911" lon="2.02388">
        <ele>80</ele>
        <time>2023-05-31T13:26:19Z</time>
      </trkpt>
      <trkpt lat="49.8791" lon="2.02388">
        <ele>80.1</ele>
        <time>2023-05-31T13:26:20Z</time>
      </trkpt>
      <trkpt lat="49.87909" lon="2.02389">
        <ele>80.3</ele>
        <time>2023-05-31T13:26:22Z</time>
      </trkpt>
      <trkpt lat="49.87908" lon="2.02389">
        <ele>80.4</ele>
        <time>2023-05-31T13:26:24Z</time>
      </trkpt>
      <trkpt lat="49.87907" lon="2.0239">
        <ele>80.4</ele>
        <time>2023-05-31T13:26:25Z</time>
      </trkpt>
      <trkpt lat="49.87906" lon="2.0239">
        <ele>80.6</ele>
        <time>2023-05-31T13:26:26Z</time>
      </trkpt>
      <trkpt lat="49.87906" lon="2.0239">
        <ele>80.6</ele>
        <time>2023-05-31T13:26:27Z</time>
      </trkpt>
      <trkpt lat="49.87905" lon="2.0239">
        <ele>80.7</ele>
        <time>2023-05-31T13:26:28Z</time>
      </trkpt>
      <trkpt lat="49.87904" lon="2.02391">
        <ele>80.8</ele>
        <time>2023-05-31T13:26:29Z</time>
      </trkpt>
      <trkpt lat="49.87904" lon="2.02391">
        <ele>80.9</ele>
        <time>2023-05-31T13:26:31Z</time>
      </trkpt>
      <trkpt lat="49.87903" lon="2.02391">
        <ele>81</ele>
        <time>2023-05-31T13:26:32Z</time>
      </trkpt>
      <trkpt lat="49.87902" lon="2.02391">
        <ele>81.1</ele>
        <time>2023-05-31T13:26:33Z</time>
      </trkpt>
      <trkpt lat="49.87901" lon="2.02392">
        <ele>81.2</ele>
        <time>2023-05-31T13:26:34Z</time>
      </trkpt>
      <trkpt lat="49.87901" lon="2.02392">
        <ele>81.3</ele>
        <time>2023-05-31T13:26:35Z</time>
      </trkpt>
      <trkpt lat="49.87899" lon="2.02392">
        <ele>81.4</ele>
        <time>2023-05-31T13:26:36Z</time>
      </trkpt>
      <trkpt lat="49.87897" lon="2.02392">
        <ele>81.7</ele>
        <time>2023-05-31T13:26:38Z</time>
      </trkpt>
      <trkpt lat="49.87897" lon="2.02392">
        <ele>81.8</ele>
        <time>2023-05-31T13:26:39Z</time>
      </trkpt>
      <trkpt lat="49.87896" lon="2.02393">
        <ele>81.9</ele>
        <time>2023-05-31T13:26:40Z</time>
      </trkpt>
      <trkpt lat="49.87895" lon="2.02393">
        <ele>82</ele>
        <time>2023-05-31T13:26:41Z</time>
      </trkpt>
      <trkpt lat="49.87894" lon="2.02393">
        <ele>82.1</ele>
        <time>2023-05-31T13:26:43Z</time>
      </trkpt>
      <trkpt lat="49.87893" lon="2.02393">
        <ele>82.2</ele>
        <time>2023-05-31T13:26:44Z</time>
      </trkpt>
      <trkpt lat="49.87891" lon="2.02393">
        <ele>82.4</ele>
        <time>2023-05-31T13:26:45Z</time>
      </trkpt>
      <trkpt lat="49.8789" lon="2.02393">
        <ele>82.5</ele>
        <time>2023-05-31T13:26:46Z</time>
      </trkpt>
      <trkpt lat="49.87888" lon="2.02393">
        <ele>82.8</ele>
        <time>2023-05-31T13:26:48Z</time>
      </trkpt>
      <trkpt lat="49.87887" lon="2.02393">
        <ele>82.9</ele>
        <time>2023-05-31T13:26:49Z</time>
      </trkpt>
      <trkpt lat="49.87886" lon="2.02392">
        <ele>82.9</ele>
        <time>2023-05-31T13:26:50Z</time>
      </trkpt>
      <trkpt lat="49.87885" lon="2.02392">
        <ele>83.1</ele>
        <time>2023-05-31T13:26:52Z</time>
      </trkpt>
      <trkpt lat="49.87884" lon="2.02392">
        <ele>83.2</ele>
        <time>2023-05-31T13:26:53Z</time>
      </trkpt>
      <trkpt lat="49.87883" lon="2.02391">
        <ele>83.3</ele>
        <time>2023-05-31T13:26:54Z</time>
      </trkpt>
      <trkpt lat="49.87881" lon="2.0239">
        <ele>83.5</ele>
        <time>2023-05-31T13:26:55Z</time>
      </trkpt>
      <trkpt lat="49.8788" lon="2.0239">
        <ele>83.6</ele>
        <time>2023-05-31T13:26:57Z</time>
      </trkpt>
      <trkpt lat="49.8788" lon="2.02389">
        <ele>83.7</ele>
        <time>2023-05-31T13:26:58Z</time>
      </trkpt>
      <trkpt lat="49.87879" lon="2.02389">
        <ele>83.8</ele>
        <time>2023-05-31T13:27:00Z</time>
      </trkpt>
      <trkpt lat="49.87878" lon="2.02388">
        <ele>83.8</ele>
        <time>2023-05-31T13:27:01Z</time>
      </trkpt>
      <trkpt lat="49.87876" lon="2.02388">
        <ele>84</ele>
        <time>2023-05-31T13:27:02Z</time>
      </trkpt>
      <trkpt lat="49.87875" lon="2.02387">
        <ele>84.1</ele>
        <time>2023-05-31T13:27:03Z</time>
      </trkpt>
      <trkpt lat="49.87875" lon="2.02387">
        <ele>84.1</ele>
        <time>2023-05-31T13:27:04Z</time>
      </trkpt>
      <trkpt lat="49.87873" lon="2.02386">
        <ele>84.2</ele>
        <time>2023-05-31T13:27:05Z</time>
      </trkpt>
      <trkpt lat="49.87871" lon="2.02385">
        <ele>84.5</ele>
        <time>2023-05-31T13:27:07Z</time>
      </trkpt>
      <trkpt lat="49.8787" lon="2.02384">
        <ele>84.6</ele>
        <time>2023-05-31T13:27:09Z</time>
      </trkpt>
      <trkpt lat="49.87869" lon="2.02384">
        <ele>84.6</ele>
        <time>2023-05-31T13:27:10Z</time>
      </trkpt>
      <trkpt lat="49.87868" lon="2.02383">
        <ele>84.7</ele>
        <time>2023-05-31T13:27:11Z</time>
      </trkpt>
      <trkpt lat="49.87867" lon="2.02383">
        <ele>84.8</ele>
        <time>2023-05-31T13:27:12Z</time>
      </trkpt>
      <trkpt lat="49.87865" lon="2.02382">
        <ele>84.9</ele>
        <time>2023-05-31T13:27:14Z</time>
      </trkpt>
      <trkpt lat="49.87864" lon="2.02382">
        <ele>85</ele>
        <time>2023-05-31T13:27:15Z</time>
      </trkpt>
      <trkpt lat="49.87863" lon="2.02381">
        <ele>85.1</ele>
        <time>2023-05-31T13:27:17Z</time>
      </trkpt>
      <trkpt lat="49.87862" lon="2.0238">
        <ele>85.1</ele>
        <time>2023-05-31T13:27:18Z</time>
      </trkpt>
      <trkpt lat="49.87861" lon="2.02379">
        <ele>85.2</ele>
        <time>2023-05-31T13:27:19Z</time>
      </trkpt>
      <trkpt lat="49.87859" lon="2.02378">
        <ele>85.3</ele>
        <time>2023-05-31T13:27:21Z</time>
      </trkpt>
      <trkpt lat="49.87859" lon="2.02378">
        <ele>85.3</ele>
        <time>2023-05-31T13:27:22Z</time>
      </trkpt>
      <trkpt lat="49.87858" lon="2.02377">
        <ele>85.4</ele>
        <time>2023-05-31T13:27:23Z</time>
      </trkpt>
      <trkpt lat="49.87858" lon="2.02377">
        <ele>85.4</ele>
        <time>2023-05-31T13:27:24Z</time>
      </trkpt>
      <trkpt lat="49.87857" lon="2.02376">
        <ele>85.5</ele>
        <time>2023-05-31T13:27:25Z</time>
      </trkpt>
      <trkpt lat="49.87855" lon="2.02375">
        <ele>85.5</ele>
        <time>2023-05-31T13:27:27Z</time>
      </trkpt>
      <trkpt lat="49.87854" lon="2.02374">
        <ele>85.6</ele>
        <time>2023-05-31T13:27:29Z</time>
      </trkpt>
      <trkpt lat="49.87853" lon="2.02374">
        <ele>85.6</ele>
        <time>2023-05-31T13:27:30Z</time>
      </trkpt>
      <trkpt lat="49.87852" lon="2.02373">
        <ele>85.7</ele>
        <time>2023-05-31T13:27:31Z</time>
      </trkpt>
      <trkpt lat="49.87851" lon="2.02372">
        <ele>85.7</ele>
        <time>2023-05-31T13:27:32Z</time>
      </trkpt>
      <trkpt lat="49.8785" lon="2.02371">
        <ele>85.8</ele>
        <time>2023-05-31T13:27:33Z</time>
      </trkpt>
      <trkpt lat="49.87849" lon="2.0237">
        <ele>85.9</ele>
        <time>2023-05-31T13:27:35Z</time>
      </trkpt>
      <trkpt lat="49.87848" lon="2.02369">
        <ele>85.9</ele>
        <time>2023-05-31T13:27:36Z</time>
      </trkpt>
      <trkpt lat="49.87847" lon="2.02369">
        <ele>86</ele>
        <time>2023-05-31T13:27:37Z</time>
      </trkpt>
      <trkpt lat="49.87846" lon="2.02368">
        <ele>86</ele>
        <time>2023-05-31T13:27:39Z</time>
      </trkpt>
      <trkpt lat="49.87845" lon="2.02367">
        <ele>86.1</ele>
        <time>2023-05-31T13:27:40Z</time>
      </trkpt>
      <trkpt lat="49.87844" lon="2.02367">
        <ele>86.1</ele>
        <time>2023-05-31T13:27:42Z</time>
      </trkpt>
      <trkpt lat="49.87843" lon="2.02366">
        <ele>86.2</ele>
        <time>2023-05-31T13:27:43Z</time>
      </trkpt>
      <trkpt lat="49.87842" lon="2.02366">
        <ele>86.2</ele>
        <time>2023-05-31T13:27:44Z</time>
      </trkpt>
      <trkpt lat="49.87841" lon="2.02365">
        <ele>86.3</ele>
        <time>2023-05-31T13:27:46Z</time>
      </trkpt>
      <trkpt lat="49.8784" lon="2.02365">
        <ele>86.3</ele>
        <time>2023-05-31T13:27:47Z</time>
      </trkpt>
      <trkpt lat="49.8784" lon="2.02364">
        <ele>86.4</ele>
        <time>2023-05-31T13:27:48Z</time>
      </trkpt>
      <trkpt lat="49.87839" lon="2.02364">
        <ele>86.4</ele>
        <time>2023-05-31T13:27:49Z</time>
      </trkpt>
      <trkpt lat="49.87838" lon="2.02363">
        <ele>86.5</ele>
        <time>2023-05-31T13:27:50Z</time>
      </trkpt>
      <trkpt lat="49.87837" lon="2.02362">
        <ele>86.5</ele>
        <time>2023-05-31T13:27:51Z</time>
      </trkpt>
      <trkpt lat="49.87837" lon="2.02361">
        <ele>86.5</ele>
        <time>2023-05-31T13:27:52Z</time>
      </trkpt>
      <trkpt lat="49.87836" lon="2.0236">
        <ele>86.6</ele>
        <time>2023-05-31T13:27:54Z</time>
      </trkpt>
      <trkpt lat="49.87835" lon="2.02359">
        <ele>86.6</ele>
        <time>2023-05-31T13:27:55Z</time>
      </trkpt>
      <trkpt lat="49.87834" lon="2.02359">
        <ele>86.7</ele>
        <time>2023-05-31T13:27:56Z</time>
      </trkpt>
      <trkpt lat="49.87833" lon="2.02358">
        <ele>86.8</ele>
        <time>2023-05-31T13:27:57Z</time>
      </trkpt>
      <trkpt lat="49.87832" lon="2.02358">
        <ele>86.8</ele>
        <time>2023-05-31T13:27:58Z</time>
      </trkpt>
      <trkpt lat="49.8783" lon="2.02357">
        <ele>86.9</ele>
        <time>2023-05-31T13:28:00Z</time>
      </trkpt>
      <trkpt lat="49.8783" lon="2.02356">
        <ele>87</ele>
        <time>2023-05-31T13:28:02Z</time>
      </trkpt>
      <trkpt lat="49.87829" lon="2.02355">
        <ele>87</ele>
        <time>2023-05-31T13:28:03Z</time>
      </trkpt>
      <trkpt lat="49.87828" lon="2.02354">
        <ele>87</ele>
        <time>2023-05-31T13:28:04Z</time>
      </trkpt>
      <trkpt lat="49.87827" lon="2.02353">
        <ele>87.1</ele>
        <time>2023-05-31T13:28:05Z</time>
      </trkpt>
      <trkpt lat="49.87826" lon="2.02352">
        <ele>87.2</ele>
        <time>2023-05-31T13:28:06Z</time>
      </trkpt>
      <trkpt lat="49.87825" lon="2.02351">
        <ele>87.2</ele>
        <time>2023-05-31T13:28:07Z</time>
      </trkpt>
      <trkpt lat="49.87824" lon="2.02351">
        <ele>87.2</ele>
        <time>2023-05-31T13:28:09Z</time>
      </trkpt>
      <trkpt lat="49.87824" lon="2.0235">
        <ele>87.3</ele>
        <time>2023-05-31T13:28:10Z</time>
      </trkpt>
      <trkpt lat="49.87823" lon="2.0235">
        <ele>87.3</ele>
        <time>2023-05-31T13:28:11Z</time>
      </trkpt>
      <trkpt lat="49.87822" lon="2.0235">
        <ele>87.3</ele>
        <time>2023-05-31T13:28:12Z</time>
      </trkpt>
      <trkpt lat="49.87821" lon="2.02349">
        <ele>87.4</ele>
        <time>2023-05-31T13:28:13Z</time>
      </trkpt>
      <trkpt lat="49.8782" lon="2.02349">
        <ele>87.4</ele>
        <time>2023-05-31T13:28:14Z</time>
      </trkpt>
      <trkpt lat="49.87819" lon="2.02348">
        <ele>87.5</ele>
        <time>2023-05-31T13:28:16Z</time>
      </trkpt>
      <trkpt lat="49.87818" lon="2.02348">
        <ele>87.5</ele>
        <time>2023-05-31T13:28:17Z</time>
      </trkpt>
      <trkpt lat="49.87817" lon="2.02348">
        <ele>87.6</ele>
        <time>2023-05-31T13:28:19Z</time>
      </trkpt>
      <trkpt lat="49.87816" lon="2.02348">
        <ele>87.6</ele>
        <time>2023-05-31T13:28:20Z</time>
      </trkpt>
      <trkpt lat="49.87815" lon="2.02348">
        <ele>87.6</ele>
        <time>2023-05-31T13:28:21Z</time>
      </trkpt>
      <trkpt lat="49.87815" lon="2.02347">
        <ele>87.7</ele>
        <time>2023-05-31T13:28:22Z</time>
      </trkpt>
      <trkpt lat="49.87814" lon="2.02347">
        <ele>87.7</ele>
        <time>2023-05-31T13:28:23Z</time>
      </trkpt>
      <trkpt lat="49.87813" lon="2.02347">
        <ele>87.7</ele>
        <time>2023-05-31T13:28:24Z</time>
      </trkpt>
      <trkpt lat="49.87812" lon="2.02346">
        <ele>87.8</ele>
        <time>2023-05-31T13:28:25Z</time>
      </trkpt>
      <trkpt lat="49.87811" lon="2.02346">
        <ele>87.8</ele>
        <time>2023-05-31T13:28:27Z</time>
      </trkpt>
      <trkpt lat="49.87811" lon="2.02346">
        <ele>87.8</ele>
        <time>2023-05-31T13:28:28Z</time>
      </trkpt>
      <trkpt lat="49.8781" lon="2.02346">
        <ele>87.9</ele>
        <time>2023-05-31T13:28:29Z</time>
      </trkpt>
      <trkpt lat="49.87809" lon="2.02345">
        <ele>87.9</ele>
        <time>2023-05-31T13:28:30Z</time>
      </trkpt>
      <trkpt lat="49.87808" lon="2.02345">
        <ele>88</ele>
        <time>2023-05-31T13:28:31Z</time>
      </trkpt>
      <trkpt lat="49.87807" lon="2.02345">
        <ele>88</ele>
        <time>2023-05-31T13:28:33Z</time>
      </trkpt>
      <trkpt lat="49.87805" lon="2.02344">
        <ele>88.1</ele>
        <time>2023-05-31T13:28:34Z</time>
      </trkpt>
      <trkpt lat="49.87803" lon="2.02344">
        <ele>88.2</ele>
        <time>2023-05-31T13:28:36Z</time>
      </trkpt>
      <trkpt lat="49.87802" lon="2.02343">
        <ele>88.3</ele>
        <time>2023-05-31T13:28:37Z</time>
      </trkpt>
      <trkpt lat="49.87802" lon="2.02343">
        <ele>88.3</ele>
        <time>2023-05-31T13:28:38Z</time>
      </trkpt>
      <trkpt lat="49.87799" lon="2.02343">
        <ele>88.5</ele>
        <time>2023-05-31T13:28:39Z</time>
      </trkpt>
      <trkpt lat="49.87798" lon="2.02343">
        <ele>88.6</ele>
        <time>2023-05-31T13:28:41Z</time>
      </trkpt>
      <trkpt lat="49.87796" lon="2.02343">
        <ele>88.7</ele>
        <time>2023-05-31T13:28:43Z</time>
      </trkpt>
      <trkpt lat="49.87795" lon="2.02343">
        <ele>88.8</ele>
        <time>2023-05-31T13:28:44Z</time>
      </trkpt>
      <trkpt lat="49.87794" lon="2.02343">
        <ele>88.9</ele>
        <time>2023-05-31T13:28:45Z</time>
      </trkpt>
      <trkpt lat="49.87793" lon="2.02344">
        <ele>89</ele>
        <time>2023-05-31T13:28:46Z</time>
      </trkpt>
      <trkpt lat="49.87791" lon="2.02344">
        <ele>89.1</ele>
        <time>2023-05-31T13:28:47Z</time>
      </trkpt>
      <trkpt lat="49.8779" lon="2.02344">
        <ele>89.2</ele>
        <time>2023-05-31T13:28:48Z</time>
      </trkpt>
      <trkpt lat="49.87789" lon="2.02344">
        <ele>89.4</ele>
        <time>2023-05-31T13:28:49Z</time>
      </trkpt>
      <trkpt lat="49.87787" lon="2.02344">
        <ele>89.5</ele>
        <time>2023-05-31T13:28:51Z</time>
      </trkpt>
      <trkpt lat="49.87786" lon="2.02344">
        <ele>89.6</ele>
        <time>2023-05-31T13:28:52Z</time>
      </trkpt>
      <trkpt lat="49.87784" lon="2.02344">
        <ele>89.7</ele>
        <time>2023-05-31T13:28:53Z</time>
      </trkpt>
      <trkpt lat="49.87783" lon="2.02345">
        <ele>89.9</ele>
        <time>2023-05-31T13:28:54Z</time>
      </trkpt>
      <trkpt lat="49.87782" lon="2.02345">
        <ele>90</ele>
        <time>2023-05-31T13:28:56Z</time>
      </trkpt>
      <trkpt lat="49.87781" lon="2.02345">
        <ele>90</ele>
        <time>2023-05-31T13:28:57Z</time>
      </trkpt>
      <trkpt lat="49.87779" lon="2.02345">
        <ele>90.2</ele>
        <time>2023-05-31T13:28:58Z</time>
      </trkpt>
      <trkpt lat="49.87778" lon="2.02345">
        <ele>90.3</ele>
        <time>2023-05-31T13:28:59Z</time>
      </trkpt>
      <trkpt lat="49.87777" lon="2.02345">
        <ele>90.4</ele>
        <time>2023-05-31T13:29:00Z</time>
      </trkpt>
      <trkpt lat="49.87775" lon="2.02345">
        <ele>90.5</ele>
        <time>2023-05-31T13:29:01Z</time>
      </trkpt>
      <trkpt lat="49.87773" lon="2.02346">
        <ele>90.7</ele>
        <time>2023-05-31T13:29:03Z</time>
      </trkpt>
      <trkpt lat="49.87772" lon="2.02346">
        <ele>90.9</ele>
        <time>2023-05-31T13:29:05Z</time>
      </trkpt>
      <trkpt lat="49.87771" lon="2.02346">
        <ele>91</ele>
        <time>2023-05-31T13:29:06Z</time>
      </trkpt>
      <trkpt lat="49.87769" lon="2.02346">
        <ele>91.1</ele>
        <time>2023-05-31T13:29:07Z</time>
      </trkpt>
      <trkpt lat="49.87768" lon="2.02347">
        <ele>91.2</ele>
        <time>2023-05-31T13:29:08Z</time>
      </trkpt>
      <trkpt lat="49.87767" lon="2.02347">
        <ele>91.3</ele>
        <time>2023-05-31T13:29:09Z</time>
      </trkpt>
      <trkpt lat="49.87766" lon="2.02347">
        <ele>91.4</ele>
        <time>2023-05-31T13:29:10Z</time>
      </trkpt>
      <trkpt lat="49.87764" lon="2.02348">
        <ele>91.6</ele>
        <time>2023-05-31T13:29:12Z</time>
      </trkpt>
      <trkpt lat="49.87763" lon="2.02348">
        <ele>91.7</ele>
        <time>2023-05-31T13:29:14Z</time>
      </trkpt>
      <trkpt lat="49.87762" lon="2.02348">
        <ele>91.8</ele>
        <time>2023-05-31T13:29:15Z</time>
      </trkpt>
      <trkpt lat="49.87761" lon="2.02348">
        <ele>91.9</ele>
        <time>2023-05-31T13:29:16Z</time>
      </trkpt>
      <trkpt lat="49.8776" lon="2.02349">
        <ele>92</ele>
        <time>2023-05-31T13:29:17Z</time>
      </trkpt>
      <trkpt lat="49.87759" lon="2.02349">
        <ele>92.1</ele>
        <time>2023-05-31T13:29:18Z</time>
      </trkpt>
      <trkpt lat="49.87758" lon="2.0235">
        <ele>92.2</ele>
        <time>2023-05-31T13:29:19Z</time>
      </trkpt>
      <trkpt lat="49.87756" lon="2.02351">
        <ele>92.4</ele>
        <time>2023-05-31T13:29:21Z</time>
      </trkpt>
      <trkpt lat="49.87755" lon="2.02351">
        <ele>92.5</ele>
        <time>2023-05-31T13:29:23Z</time>
      </trkpt>
      <trkpt lat="49.87755" lon="2.02352">
        <ele>92.5</ele>
        <time>2023-05-31T13:29:24Z</time>
      </trkpt>
      <trkpt lat="49.87754" lon="2.02352">
        <ele>92.6</ele>
        <time>2023-05-31T13:29:25Z</time>
      </trkpt>
      <trkpt lat="49.87753" lon="2.02353">
        <ele>92.7</ele>
        <time>2023-05-31T13:29:26Z</time>
      </trkpt>
      <trkpt lat="49.87752" lon="2.02354">
        <ele>92.8</ele>
        <time>2023-05-31T13:29:27Z</time>
      </trkpt>
      <trkpt lat="49.87752" lon="2.02354">
        <ele>92.9</ele>
        <time>2023-05-31T13:29:29Z</time>
      </trkpt>
      <trkpt lat="49.87751" lon="2.02355">
        <ele>93</ele>
        <time>2023-05-31T13:29:30Z</time>
      </trkpt>
      <trkpt lat="49.8775" lon="2.02356">
        <ele>93.1</ele>
        <time>2023-05-31T13:29:31Z</time>
      </trkpt>
      <trkpt lat="49.87749" lon="2.02356">
        <ele>93.1</ele>
        <time>2023-05-31T13:29:33Z</time>
      </trkpt>
      <trkpt lat="49.87749" lon="2.02357">
        <ele>93.2</ele>
        <time>2023-05-31T13:29:34Z</time>
      </trkpt>
      <trkpt lat="49.87748" lon="2.02357">
        <ele>93.3</ele>
        <time>2023-05-31T13:29:35Z</time>
      </trkpt>
      <trkpt lat="49.87747" lon="2.02358">
        <ele>93.4</ele>
        <time>2023-05-31T13:29:36Z</time>
      </trkpt>
      <trkpt lat="49.87746" lon="2.02359">
        <ele>93.4</ele>
        <time>2023-05-31T13:29:37Z</time>
      </trkpt>
      <trkpt lat="49.87745" lon="2.0236">
        <ele>93.6</ele>
        <time>2023-05-31T13:29:39Z</time>
      </trkpt>
      <trkpt lat="49.87744" lon="2.02361">
        <ele>93.7</ele>
        <time>2023-05-31T13:29:41Z</time>
      </trkpt>
      <trkpt lat="49.87743" lon="2.02362">
        <ele>93.7</ele>
        <time>2023-05-31T13:29:42Z</time>
      </trkpt>
      <trkpt lat="49.87743" lon="2.02362">
        <ele>93.8</ele>
        <time>2023-05-31T13:29:43Z</time>
      </trkpt>
      <trkpt lat="49.87742" lon="2.02363">
        <ele>93.9</ele>
        <time>2023-05-31T13:29:44Z</time>
      </trkpt>
      <trkpt lat="49.87741" lon="2.02365">
        <ele>94</ele>
        <time>2023-05-31T13:29:46Z</time>
      </trkpt>
      <trkpt lat="49.8774" lon="2.02365">
        <ele>94.1</ele>
        <time>2023-05-31T13:29:47Z</time>
      </trkpt>
      <trkpt lat="49.87738" lon="2.02366">
        <ele>94.2</ele>
        <time>2023-05-31T13:29:48Z</time>
      </trkpt>
      <trkpt lat="49.87738" lon="2.02367">
        <ele>94.2</ele>
        <time>2023-05-31T13:29:49Z</time>
      </trkpt>
      <trkpt lat="49.87736" lon="2.02367">
        <ele>94.3</ele>
        <time>2023-05-31T13:29:50Z</time>
      </trkpt>
      <trkpt lat="49.87734" lon="2.02368">
        <ele>94.5</ele>
        <time>2023-05-31T13:29:52Z</time>
      </trkpt>
      <trkpt lat="49.87732" lon="2.02368">
        <ele>94.6</ele>
        <time>2023-05-31T13:29:54Z</time>
      </trkpt>
      <trkpt lat="49.87731" lon="2.02369">
        <ele>94.7</ele>
        <time>2023-05-31T13:29:56Z</time>
      </trkpt>
      <trkpt lat="49.8773" lon="2.0237">
        <ele>94.8</ele>
        <time>2023-05-31T13:29:57Z</time>
      </trkpt>
      <trkpt lat="49.8773" lon="2.0237">
        <ele>94.8</ele>
        <time>2023-05-31T13:29:58Z</time>
      </trkpt>
      <trkpt lat="49.87729" lon="2.02371">
        <ele>94.9</ele>
        <time>2023-05-31T13:29:59Z</time>
      </trkpt>
      <trkpt lat="49.87728" lon="2.02372">
        <ele>94.9</ele>
        <time>2023-05-31T13:30:01Z</time>
      </trkpt>
      <trkpt lat="49.87727" lon="2.02373">
        <ele>95</ele>
        <time>2023-05-31T13:30:02Z</time>
      </trkpt>
      <trkpt lat="49.87726" lon="2.02374">
        <ele>95.1</ele>
        <time>2023-05-31T13:30:03Z</time>
      </trkpt>
      <trkpt lat="49.87725" lon="2.02375">
        <ele>95.1</ele>
        <time>2023-05-31T13:30:04Z</time>
      </trkpt>
      <trkpt lat="49.87724" lon="2.02376">
        <ele>95.2</ele>
        <time>2023-05-31T13:30:05Z</time>
      </trkpt>
      <trkpt lat="49.87723" lon="2.02376">
        <ele>95.3</ele>
        <time>2023-05-31T13:30:06Z</time>
      </trkpt>
      <trkpt lat="49.87722" lon="2.02377">
        <ele>95.4</ele>
        <time>2023-05-31T13:30:07Z</time>
      </trkpt>
      <trkpt lat="49.87721" lon="2.02378">
        <ele>95.4</ele>
        <time>2023-05-31T13:30:08Z</time>
      </trkpt>
      <trkpt lat="49.87721" lon="2.02378">
        <ele>95.5</ele>
        <time>2023-05-31T13:30:09Z</time>
      </trkpt>
      <trkpt lat="49.8772" lon="2.02379">
        <ele>95.5</ele>
        <time>2023-05-31T13:30:10Z</time>
      </trkpt>
      <trkpt lat="49.87719" lon="2.0238">
        <ele>95.6</ele>
        <time>2023-05-31T13:30:12Z</time>
      </trkpt>
      <trkpt lat="49.87718" lon="2.0238">
        <ele>95.7</ele>
        <time>2023-05-31T13:30:13Z</time>
      </trkpt>
      <trkpt lat="49.87717" lon="2.02381">
        <ele>95.7</ele>
        <time>2023-05-31T13:30:14Z</time>
      </trkpt>
      <trkpt lat="49.87716" lon="2.02381">
        <ele>95.8</ele>
        <time>2023-05-31T13:30:15Z</time>
      </trkpt>
      <trkpt lat="49.87715" lon="2.02382">
        <ele>95.9</ele>
        <time>2023-05-31T13:30:16Z</time>
      </trkpt>
      <trkpt lat="49.87714" lon="2.02382">
        <ele>95.9</ele>
        <time>2023-05-31T13:30:17Z</time>
      </trkpt>
      <trkpt lat="49.87713" lon="2.02383">
        <ele>96</ele>
        <time>2023-05-31T13:30:18Z</time>
      </trkpt>
      <trkpt lat="49.87712" lon="2.02384">
        <ele>96.1</ele>
        <time>2023-05-31T13:30:20Z</time>
      </trkpt>
      <trkpt lat="49.87711" lon="2.02385">
        <ele>96.2</ele>
        <time>2023-05-31T13:30:21Z</time>
      </trkpt>
      <trkpt lat="49.87711" lon="2.02386">
        <ele>96.2</ele>
        <time>2023-05-31T13:30:22Z</time>
      </trkpt>
      <trkpt lat="49.8771" lon="2.02387">
        <ele>96.3</ele>
        <time>2023-05-31T13:30:23Z</time>
      </trkpt>
      <trkpt lat="49.87709" lon="2.02388">
        <ele>96.4</ele>
        <time>2023-05-31T13:30:24Z</time>
      </trkpt>
      <trkpt lat="49.87709" lon="2.02389">
        <ele>96.4</ele>
        <time>2023-05-31T13:30:25Z</time>
      </trkpt>
      <trkpt lat="49.87708" lon="2.0239">
        <ele>96.5</ele>
        <time>2023-05-31T13:30:26Z</time>
      </trkpt>
      <trkpt lat="49.87708" lon="2.02392">
        <ele>96.6</ele>
        <time>2023-05-31T13:30:28Z</time>
      </trkpt>
      <trkpt lat="49.87708" lon="2.02393">
        <ele>96.7</ele>
        <time>2023-05-31T13:30:29Z</time>
      </trkpt>
      <trkpt lat="49.87707" lon="2.02395">
        <ele>96.7</ele>
        <time>2023-05-31T13:30:30Z</time>
      </trkpt>
      <trkpt lat="49.87707" lon="2.02396">
        <ele>96.8</ele>
        <time>2023-05-31T13:30:31Z</time>
      </trkpt>
      <trkpt lat="49.87706" lon="2.02398">
        <ele>96.9</ele>
        <time>2023-05-31T13:30:32Z</time>
      </trkpt>
      <trkpt lat="49.87705" lon="2.02399">
        <ele>97</ele>
        <time>2023-05-31T13:30:33Z</time>
      </trkpt>
      <trkpt lat="49.87705" lon="2.02401">
        <ele>97.1</ele>
        <time>2023-05-31T13:30:35Z</time>
      </trkpt>
      <trkpt lat="49.87704" lon="2.02402">
        <ele>97.1</ele>
        <time>2023-05-31T13:30:36Z</time>
      </trkpt>
      <trkpt lat="49.87704" lon="2.02403">
        <ele>97.2</ele>
        <time>2023-05-31T13:30:37Z</time>
      </trkpt>
      <trkpt lat="49.87703" lon="2.02404">
        <ele>97.2</ele>
        <time>2023-05-31T13:30:38Z</time>
      </trkpt>
      <trkpt lat="49.87702" lon="2.02405">
        <ele>97.3</ele>
        <time>2023-05-31T13:30:39Z</time>
      </trkpt>
      <trkpt lat="49.87701" lon="2.02406">
        <ele>97.4</ele>
        <time>2023-05-31T13:30:40Z</time>
      </trkpt>
      <trkpt lat="49.87701" lon="2.02407">
        <ele>97.4</ele>
        <time>2023-05-31T13:30:41Z</time>
      </trkpt>
      <trkpt lat="49.877" lon="2.02408">
        <ele>97.5</ele>
        <time>2023-05-31T13:30:43Z</time>
      </trkpt>
      <trkpt lat="49.87699" lon="2.02409">
        <ele>97.6</ele>
        <time>2023-05-31T13:30:44Z</time>
      </trkpt>
      <trkpt lat="49.87698" lon="2.0241">
        <ele>97.6</ele>
        <time>2023-05-31T13:30:45Z</time>
      </trkpt>
      <trkpt lat="49.87697" lon="2.0241">
        <ele>97.7</ele>
        <time>2023-05-31T13:30:46Z</time>
      </trkpt>
      <trkpt lat="49.87696" lon="2.02411">
        <ele>97.7</ele>
        <time>2023-05-31T13:30:47Z</time>
      </trkpt>
      <trkpt lat="49.87695" lon="2.02411">
        <ele>97.8</ele>
        <time>2023-05-31T13:30:48Z</time>
      </trkpt>
      <trkpt lat="49.87694" lon="2.02412">
        <ele>97.8</ele>
        <time>2023-05-31T13:30:50Z</time>
      </trkpt>
      <trkpt lat="49.87693" lon="2.02413">
        <ele>97.9</ele>
        <time>2023-05-31T13:30:51Z</time>
      </trkpt>
      <trkpt lat="49.87692" lon="2.02414">
        <ele>98</ele>
        <time>2023-05-31T13:30:52Z</time>
      </trkpt>
      <trkpt lat="49.87691" lon="2.02415">
        <ele>98</ele>
        <time>2023-05-31T13:30:53Z</time>
      </trkpt>
      <trkpt lat="49.8769" lon="2.02416">
        <ele>98.1</ele>
        <time>2023-05-31T13:30:54Z</time>
      </trkpt>
      <trkpt lat="49.87689" lon="2.02417">
        <ele>98.2</ele>
        <time>2023-05-31T13:30:55Z</time>
      </trkpt>
      <trkpt lat="49.87687" lon="2.02419">
        <ele>98.3</ele>
        <time>2023-05-31T13:30:57Z</time>
      </trkpt>
      <trkpt lat="49.87686" lon="2.0242">
        <ele>98.3</ele>
        <time>2023-05-31T13:30:59Z</time>
      </trkpt>
      <trkpt lat="49.87685" lon="2.0242">
        <ele>98.4</ele>
        <time>2023-05-31T13:31:00Z</time>
      </trkpt>
      <trkpt lat="49.87684" lon="2.0242">
        <ele>98.4</ele>
        <time>2023-05-31T13:31:01Z</time>
      </trkpt>
      <trkpt lat="49.87682" lon="2.02419">
        <ele>98.5</ele>
        <time>2023-05-31T13:31:03Z</time>
      </trkpt>
      <trkpt lat="49.87681" lon="2.02419">
        <ele>98.5</ele>
        <time>2023-05-31T13:31:04Z</time>
      </trkpt>
      <trkpt lat="49.87681" lon="2.02419">
        <ele>98.5</ele>
        <time>2023-05-31T13:31:05Z</time>
      </trkpt>
      <trkpt lat="49.87681" lon="2.02418">
        <ele>98.5</ele>
        <time>2023-05-31T13:31:07Z</time>
      </trkpt>
      <trkpt lat="49.87681" lon="2.02418">
        <ele>98.5</ele>
        <time>2023-05-31T13:31:08Z</time>
      </trkpt>
      <trkpt lat="49.87681" lon="2.02419">
        <ele>98.6</ele>
        <time>2023-05-31T13:31:10Z</time>
      </trkpt>
      <trkpt lat="49.87681" lon="2.02419">
        <ele>98.6</ele>
        <time>2023-05-31T13:31:11Z</time>
      </trkpt>
      <trkpt lat="49.87681" lon="2.02419">
        <ele>98.6</ele>
        <time>2023-05-31T13:31:12Z</time>
      </trkpt>
      <trkpt lat="49.87681" lon="2.02419">
        <ele>98.6</ele>
        <time>2023-05-31T13:31:14Z</time>
      </trkpt>
      <trkpt lat="49.87681" lon="2.02419">
        <ele>98.6</ele>
        <time>2023-05-31T13:31:15Z</time>
      </trkpt>
      <trkpt lat="49.87681" lon="2.02419">
        <ele>98.6</ele>
        <time>2023-05-31T13:31:16Z</time>
      </trkpt>
      <trkpt lat="49.87681" lon="2.02419">
        <ele>98.6</ele>
        <time>2023-05-31T13:31:18Z</time>
      </trkpt>
      <trkpt lat="49.87681" lon="2.02419">
        <ele>98.6</ele>
        <time>2023-05-31T13:31:19Z</time>
      </trkpt>
      <trkpt lat="49.87682" lon="2.02419">
        <ele>98.6</ele>
        <time>2023-05-31T13:31:20Z</time>
      </trkpt>
      <trkpt lat="49.87683" lon="2.02418">
        <ele>98.7</ele>
        <time>2023-05-31T13:31:21Z</time>
      </trkpt>
      <trkpt lat="49.87684" lon="2.02418">
        <ele>98.7</ele>
        <time>2023-05-31T13:31:23Z</time>
      </trkpt>
      <trkpt lat="49.87684" lon="2.02418">
        <ele>98.7</ele>
        <time>2023-05-31T13:31:24Z</time>
      </trkpt>
      <trkpt lat="49.87685" lon="2.02418">
        <ele>98.7</ele>
        <time>2023-05-31T13:31:25Z</time>
      </trkpt>
      <trkpt lat="49.87685" lon="2.02418">
        <ele>98.8</ele>
        <time>2023-05-31T13:31:26Z</time>
      </trkpt>
      <trkpt lat="49.87685" lon="2.02418">
        <ele>98.8</ele>
        <time>2023-05-31T13:31:27Z</time>
      </trkpt>
      <trkpt lat="49.87684" lon="2.02418">
        <ele>98.8</ele>
        <time>2023-05-31T13:31:28Z</time>
      </trkpt>
      <trkpt lat="49.87684" lon="2.02418">
        <ele>98.8</ele>
        <time>2023-05-31T13:31:29Z</time>
      </trkpt>
      <trkpt lat="49.87684" lon="2.02418">
        <ele>98.8</ele>
        <time>2023-05-31T13:31:30Z</time>
      </trkpt>
      <trkpt lat="49.87684" lon="2.02419">
        <ele>98.8</ele>
        <time>2023-05-31T13:31:31Z</time>
      </trkpt>
      <trkpt lat="49.87684" lon="2.02419">
        <ele>98.8</ele>
        <time>2023-05-31T13:31:32Z</time>
      </trkpt>
      <trkpt lat="49.87683" lon="2.02419">
        <ele>98.8</ele>
        <time>2023-05-31T13:31:33Z</time>
      </trkpt>
      <trkpt lat="49.87683" lon="2.02419">
        <ele>98.8</ele>
        <time>2023-05-31T13:31:34Z</time>
      </trkpt>
      <trkpt lat="49.87683" lon="2.0242">
        <ele>98.8</ele>
        <time>2023-05-31T13:31:35Z</time>
      </trkpt>
      <trkpt lat="49.87683" lon="2.0242">
        <ele>98.9</ele>
        <time>2023-05-31T13:31:36Z</time>
      </trkpt>
      <trkpt lat="49.87683" lon="2.0242">
        <ele>98.9</ele>
        <time>2023-05-31T13:31:37Z</time>
      </trkpt>
      <trkpt lat="49.87682" lon="2.0242">
        <ele>98.9</ele>
        <time>2023-05-31T13:31:38Z</time>
      </trkpt>
      <trkpt lat="49.87682" lon="2.02421">
        <ele>98.9</ele>
        <time>2023-05-31T13:31:39Z</time>
      </trkpt>
      <trkpt lat="49.87682" lon="2.02421">
        <ele>98.9</ele>
        <time>2023-05-31T13:31:40Z</time>
      </trkpt>
      <trkpt lat="49.87682" lon="2.02421">
        <ele>98.9</ele>
        <time>2023-05-31T13:31:42Z</time>
      </trkpt>
      <trkpt lat="49.87682" lon="2.02421">
        <ele>98.9</ele>
        <time>2023-05-31T13:31:43Z</time>
      </trkpt>
      <trkpt lat="49.87681" lon="2.02422">
        <ele>98.9</ele>
        <time>2023-05-31T13:31:44Z</time>
      </trkpt>
      <trkpt lat="49.87681" lon="2.02422">
        <ele>98.9</ele>
        <time>2023-05-31T13:31:45Z</time>
      </trkpt>
      <trkpt lat="49.8768" lon="2.02423">
        <ele>99</ele>
        <time>2023-05-31T13:31:46Z</time>
      </trkpt>
      <trkpt lat="49.87679" lon="2.02423">
        <ele>99.1</ele>
        <time>2023-05-31T13:31:48Z</time>
      </trkpt>
      <trkpt lat="49.87678" lon="2.02424">
        <ele>99.1</ele>
        <time>2023-05-31T13:31:49Z</time>
      </trkpt>
      <trkpt lat="49.87677" lon="2.02424">
        <ele>99.1</ele>
        <time>2023-05-31T13:31:50Z</time>
      </trkpt>
      <trkpt lat="49.87676" lon="2.02425">
        <ele>99.2</ele>
        <time>2023-05-31T13:31:51Z</time>
      </trkpt>
      <trkpt lat="49.87676" lon="2.02426">
        <ele>99.2</ele>
        <time>2023-05-31T13:31:52Z</time>
      </trkpt>
      <trkpt lat="49.87675" lon="2.02426">
        <ele>99.2</ele>
        <time>2023-05-31T13:31:53Z</time>
      </trkpt>
      <trkpt lat="49.87674" lon="2.02427">
        <ele>99.3</ele>
        <time>2023-05-31T13:31:54Z</time>
      </trkpt>
      <trkpt lat="49.87674" lon="2.02428">
        <ele>99.3</ele>
        <time>2023-05-31T13:31:55Z</time>
      </trkpt>
      <trkpt lat="49.87673" lon="2.02429">
        <ele>99.3</ele>
        <time>2023-05-31T13:31:56Z</time>
      </trkpt>
      <trkpt lat="49.87672" lon="2.0243">
        <ele>99.4</ele>
        <time>2023-05-31T13:31:57Z</time>
      </trkpt>
      <trkpt lat="49.87672" lon="2.0243">
        <ele>99.4</ele>
        <time>2023-05-31T13:31:59Z</time>
      </trkpt>
      <trkpt lat="49.87671" lon="2.0243">
        <ele>99.4</ele>
        <time>2023-05-31T13:32:00Z</time>
      </trkpt>
      <trkpt lat="49.87671" lon="2.0243">
        <ele>99.4</ele>
        <time>2023-05-31T13:32:01Z</time>
      </trkpt>
      <trkpt lat="49.8767" lon="2.02431">
        <ele>99.5</ele>
        <time>2023-05-31T13:32:02Z</time>
      </trkpt>
      <trkpt lat="49.87669" lon="2.02433">
        <ele>99.5</ele>
        <time>2023-05-31T13:32:03Z</time>
      </trkpt>
      <trkpt lat="49.87668" lon="2.02434">
        <ele>99.5</ele>
        <time>2023-05-31T13:32:04Z</time>
      </trkpt>
      <trkpt lat="49.87667" lon="2.02435">
        <ele>99.6</ele>
        <time>2023-05-31T13:32:06Z</time>
      </trkpt>
      <trkpt lat="49.87666" lon="2.02436">
        <ele>99.6</ele>
        <time>2023-05-31T13:32:07Z</time>
      </trkpt>
      <trkpt lat="49.87666" lon="2.02436">
        <ele>99.7</ele>
        <time>2023-05-31T13:32:08Z</time>
      </trkpt>
      <trkpt lat="49.87665" lon="2.02437">
        <ele>99.7</ele>
        <time>2023-05-31T13:32:09Z</time>
      </trkpt>
      <trkpt lat="49.87664" lon="2.02438">
        <ele>99.7</ele>
        <time>2023-05-31T13:32:10Z</time>
      </trkpt>
      <trkpt lat="49.87663" lon="2.02439">
        <ele>99.8</ele>
        <time>2023-05-31T13:32:11Z</time>
      </trkpt>
      <trkpt lat="49.87662" lon="2.02439">
        <ele>99.8</ele>
        <time>2023-05-31T13:32:13Z</time>
      </trkpt>
      <trkpt lat="49.87661" lon="2.0244">
        <ele>99.9</ele>
        <time>2023-05-31T13:32:14Z</time>
      </trkpt>
      <trkpt lat="49.87661" lon="2.02441">
        <ele>99.9</ele>
        <time>2023-05-31T13:32:15Z</time>
      </trkpt>
      <trkpt lat="49.87659" lon="2.02442">
        <ele>99.9</ele>
        <time>2023-05-31T13:32:16Z</time>
      </trkpt>
      <trkpt lat="49.87658" lon="2.02443">
        <ele>100</ele>
        <time>2023-05-31T13:32:17Z</time>
      </trkpt>
      <trkpt lat="49.87657" lon="2.02444">
        <ele>100</ele>
        <time>2023-05-31T13:32:18Z</time>
      </trkpt>
      <trkpt lat="49.87654" lon="2.02446">
        <ele>100.1</ele>
        <time>2023-05-31T13:32:20Z</time>
      </trkpt>
      <trkpt lat="49.87653" lon="2.02447">
        <ele>100.2</ele>
        <time>2023-05-31T13:32:21Z</time>
      </trkpt>
      <trkpt lat="49.87652" lon="2.02448">
        <ele>100.2</ele>
        <time>2023-05-31T13:32:23Z</time>
      </trkpt>
      <trkpt lat="49.87651" lon="2.02449">
        <ele>100.2</ele>
        <time>2023-05-31T13:32:24Z</time>
      </trkpt>
      <trkpt lat="49.87649" lon="2.0245">
        <ele>100.3</ele>
        <time>2023-05-31T13:32:25Z</time>
      </trkpt>
      <trkpt lat="49.87648" lon="2.02451">
        <ele>100.3</ele>
        <time>2023-05-31T13:32:26Z</time>
      </trkpt>
      <trkpt lat="49.87647" lon="2.02452">
        <ele>100.3</ele>
        <time>2023-05-31T13:32:28Z</time>
      </trkpt>
      <trkpt lat="49.87646" lon="2.02453">
        <ele>100.3</ele>
        <time>2023-05-31T13:32:29Z</time>
      </trkpt>
      <trkpt lat="49.87645" lon="2.02454">
        <ele>100.4</ele>
        <time>2023-05-31T13:32:30Z</time>
      </trkpt>
      <trkpt lat="49.87644" lon="2.02455">
        <ele>100.4</ele>
        <time>2023-05-31T13:32:31Z</time>
      </trkpt>
      <trkpt lat="49.87642" lon="2.02456">
        <ele>100.4</ele>
        <time>2023-05-31T13:32:32Z</time>
      </trkpt>
      <trkpt lat="49.8764" lon="2.02457">
        <ele>100.5</ele>
        <time>2023-05-31T13:32:34Z</time>
      </trkpt>
      <trkpt lat="49.87639" lon="2.02458">
        <ele>100.5</ele>
        <time>2023-05-31T13:32:35Z</time>
      </trkpt>
      <trkpt lat="49.87638" lon="2.02459">
        <ele>100.5</ele>
        <time>2023-05-31T13:32:37Z</time>
      </trkpt>
      <trkpt lat="49.87636" lon="2.02461">
        <ele>100.6</ele>
        <time>2023-05-31T13:32:38Z</time>
      </trkpt>
      <trkpt lat="49.87636" lon="2.02461">
        <ele>100.6</ele>
        <time>2023-05-31T13:32:39Z</time>
      </trkpt>
      <trkpt lat="49.87635" lon="2.02462">
        <ele>100.6</ele>
        <time>2023-05-31T13:32:40Z</time>
      </trkpt>
      <trkpt lat="49.87634" lon="2.02463">
        <ele>100.6</ele>
        <time>2023-05-31T13:32:41Z</time>
      </trkpt>
      <trkpt lat="49.87633" lon="2.02463">
        <ele>100.6</ele>
        <time>2023-05-31T13:32:43Z</time>
      </trkpt>
      <trkpt lat="49.87632" lon="2.02464">
        <ele>100.7</ele>
        <time>2023-05-31T13:32:44Z</time>
      </trkpt>
      <trkpt lat="49.8763" lon="2.02465">
        <ele>100.7</ele>
        <time>2023-05-31T13:32:45Z</time>
      </trkpt>
      <trkpt lat="49.87629" lon="2.02466">
        <ele>100.7</ele>
        <time>2023-05-31T13:32:46Z</time>
      </trkpt>
      <trkpt lat="49.87628" lon="2.02467">
        <ele>100.7</ele>
        <time>2023-05-31T13:32:47Z</time>
      </trkpt>
      <trkpt lat="49.87627" lon="2.02468">
        <ele>100.8</ele>
        <time>2023-05-31T13:32:48Z</time>
      </trkpt>
      <trkpt lat="49.87626" lon="2.02469">
        <ele>100.8</ele>
        <time>2023-05-31T13:32:50Z</time>
      </trkpt>
      <trkpt lat="49.87625" lon="2.0247">
        <ele>100.8</ele>
        <time>2023-05-31T13:32:51Z</time>
      </trkpt>
      <trkpt lat="49.87625" lon="2.02471">
        <ele>100.8</ele>
        <time>2023-05-31T13:32:52Z</time>
      </trkpt>
      <trkpt lat="49.87624" lon="2.02472">
        <ele>100.9</ele>
        <time>2023-05-31T13:32:53Z</time>
      </trkpt>
      <trkpt lat="49.87623" lon="2.02473">
        <ele>100.9</ele>
        <time>2023-05-31T13:32:54Z</time>
      </trkpt>
      <trkpt lat="49.87622" lon="2.02474">
        <ele>100.9</ele>
        <time>2023-05-31T13:32:55Z</time>
      </trkpt>
      <trkpt lat="49.87621" lon="2.02475">
        <ele>100.9</ele>
        <time>2023-05-31T13:32:56Z</time>
      </trkpt>
      <trkpt lat="49.8762" lon="2.02475">
        <ele>101</ele>
        <time>2023-05-31T13:32:57Z</time>
      </trkpt>
      <trkpt lat="49.87619" lon="2.02476">
        <ele>101</ele>
        <time>2023-05-31T13:32:59Z</time>
      </trkpt>
      <trkpt lat="49.87618" lon="2.02477">
        <ele>101</ele>
        <time>2023-05-31T13:33:00Z</time>
      </trkpt>
      <trkpt lat="49.87617" lon="2.02477">
        <ele>101</ele>
        <time>2023-05-31T13:33:01Z</time>
      </trkpt>
      <trkpt lat="49.87616" lon="2.02477">
        <ele>101.1</ele>
        <time>2023-05-31T13:33:02Z</time>
      </trkpt>
      <trkpt lat="49.87615" lon="2.02478">
        <ele>101.1</ele>
        <time>2023-05-31T13:33:03Z</time>
      </trkpt>
      <trkpt lat="49.87614" lon="2.02478">
        <ele>101.1</ele>
        <time>2023-05-31T13:33:04Z</time>
      </trkpt>
      <trkpt lat="49.87612" lon="2.02478">
        <ele>101.1</ele>
        <time>2023-05-31T13:33:06Z</time>
      </trkpt>
      <trkpt lat="49.87611" lon="2.02478">
        <ele>101.2</ele>
        <time>2023-05-31T13:33:07Z</time>
      </trkpt>
      <trkpt lat="49.8761" lon="2.02479">
        <ele>101.2</ele>
        <time>2023-05-31T13:33:08Z</time>
      </trkpt>
      <trkpt lat="49.8761" lon="2.02479">
        <ele>101.2</ele>
        <time>2023-05-31T13:33:09Z</time>
      </trkpt>
      <trkpt lat="49.87609" lon="2.0248">
        <ele>101.2</ele>
        <time>2023-05-31T13:33:10Z</time>
      </trkpt>
      <trkpt lat="49.87608" lon="2.0248">
        <ele>101.2</ele>
        <time>2023-05-31T13:33:12Z</time>
      </trkpt>
      <trkpt lat="49.87607" lon="2.0248">
        <ele>101.3</ele>
        <time>2023-05-31T13:33:13Z</time>
      </trkpt>
      <trkpt lat="49.87606" lon="2.0248">
        <ele>101.3</ele>
        <time>2023-05-31T13:33:14Z</time>
      </trkpt>
      <trkpt lat="49.87605" lon="2.02481">
        <ele>101.3</ele>
        <time>2023-05-31T13:33:15Z</time>
      </trkpt>
      <trkpt lat="49.87604" lon="2.02481">
        <ele>101.3</ele>
        <time>2023-05-31T13:33:16Z</time>
      </trkpt>
      <trkpt lat="49.87603" lon="2.02482">
        <ele>101.3</ele>
        <time>2023-05-31T13:33:17Z</time>
      </trkpt>
      <trkpt lat="49.87602" lon="2.02482">
        <ele>101.4</ele>
        <time>2023-05-31T13:33:19Z</time>
      </trkpt>
      <trkpt lat="49.87601" lon="2.02482">
        <ele>101.4</ele>
        <time>2023-05-31T13:33:20Z</time>
      </trkpt>
      <trkpt lat="49.876" lon="2.02482">
        <ele>101.4</ele>
        <time>2023-05-31T13:33:21Z</time>
      </trkpt>
      <trkpt lat="49.87598" lon="2.02482">
        <ele>101.5</ele>
        <time>2023-05-31T13:33:22Z</time>
      </trkpt>
      <trkpt lat="49.87597" lon="2.02482">
        <ele>101.5</ele>
        <time>2023-05-31T13:33:23Z</time>
      </trkpt>
      <trkpt lat="49.87597" lon="2.02482">
        <ele>101.5</ele>
        <time>2023-05-31T13:33:24Z</time>
      </trkpt>
      <trkpt lat="49.87596" lon="2.02482">
        <ele>101.5</ele>
        <time>2023-05-31T13:33:25Z</time>
      </trkpt>
      <trkpt lat="49.87595" lon="2.02483">
        <ele>101.6</ele>
        <time>2023-05-31T13:33:26Z</time>
      </trkpt>
      <trkpt lat="49.87593" lon="2.02483">
        <ele>101.6</ele>
        <time>2023-05-31T13:33:28Z</time>
      </trkpt>
      <trkpt lat="49.87592" lon="2.02484">
        <ele>101.6</ele>
        <time>2023-05-31T13:33:29Z</time>
      </trkpt>
      <trkpt lat="49.87591" lon="2.02484">
        <ele>101.6</ele>
        <time>2023-05-31T13:33:30Z</time>
      </trkpt>
      <trkpt lat="49.8759" lon="2.02485">
        <ele>101.7</ele>
        <time>2023-05-31T13:33:31Z</time>
      </trkpt>
      <trkpt lat="49.87589" lon="2.02485">
        <ele>101.7</ele>
        <time>2023-05-31T13:33:32Z</time>
      </trkpt>
      <trkpt lat="49.87588" lon="2.02486">
        <ele>101.7</ele>
        <time>2023-05-31T13:33:33Z</time>
      </trkpt>
      <trkpt lat="49.87587" lon="2.02487">
        <ele>101.7</ele>
        <time>2023-05-31T13:33:34Z</time>
      </trkpt>
      <trkpt lat="49.87586" lon="2.02487">
        <ele>101.7</ele>
        <time>2023-05-31T13:33:36Z</time>
      </trkpt>
      <trkpt lat="49.87586" lon="2.02488">
        <ele>101.8</ele>
        <time>2023-05-31T13:33:37Z</time>
      </trkpt>
      <trkpt lat="49.87585" lon="2.02489">
        <ele>101.8</ele>
        <time>2023-05-31T13:33:38Z</time>
      </trkpt>
      <trkpt lat="49.87584" lon="2.0249">
        <ele>101.8</ele>
        <time>2023-05-31T13:33:39Z</time>
      </trkpt>
      <trkpt lat="49.87583" lon="2.0249">
        <ele>101.8</ele>
        <time>2023-05-31T13:33:40Z</time>
      </trkpt>
      <trkpt lat="49.87582" lon="2.0249">
        <ele>101.8</ele>
        <time>2023-05-31T13:33:42Z</time>
      </trkpt>
      <trkpt lat="49.87581" lon="2.02491">
        <ele>101.8</ele>
        <time>2023-05-31T13:33:43Z</time>
      </trkpt>
      <trkpt lat="49.87581" lon="2.02491">
        <ele>101.8</ele>
        <time>2023-05-31T13:33:44Z</time>
      </trkpt>
      <trkpt lat="49.87579" lon="2.02492">
        <ele>101.9</ele>
        <time>2023-05-31T13:33:46Z</time>
      </trkpt>
      <trkpt lat="49.87578" lon="2.02493">
        <ele>101.9</ele>
        <time>2023-05-31T13:33:47Z</time>
      </trkpt>
      <trkpt lat="49.87578" lon="2.02494">
        <ele>101.9</ele>
        <time>2023-05-31T13:33:49Z</time>
      </trkpt>
      <trkpt lat="49.87577" lon="2.02493">
        <ele>101.9</ele>
        <time>2023-05-31T13:33:50Z</time>
      </trkpt>
      <trkpt lat="49.87577" lon="2.02493">
        <ele>101.9</ele>
        <time>2023-05-31T13:33:52Z</time>
      </trkpt>
      <trkpt lat="49.87577" lon="2.02493">
        <ele>101.9</ele>
        <time>2023-05-31T13:33:53Z</time>
      </trkpt>
      <trkpt lat="49.87577" lon="2.02493">
        <ele>101.9</ele>
        <time>2023-05-31T13:33:54Z</time>
      </trkpt>
      <trkpt lat="49.87577" lon="2.02492">
        <ele>101.9</ele>
        <time>2023-05-31T13:33:56Z</time>
      </trkpt>
      <trkpt lat="49.87577" lon="2.02492">
        <ele>101.9</ele>
        <time>2023-05-31T13:33:57Z</time>
      </trkpt>
      <trkpt lat="49.87577" lon="2.02492">
        <ele>101.9</ele>
        <time>2023-05-31T13:33:58Z</time>
      </trkpt>
      <trkpt lat="49.87577" lon="2.02492">
        <ele>101.9</ele>
        <time>2023-05-31T13:33:59Z</time>
      </trkpt>
      <trkpt lat="49.87576" lon="2.02492">
        <ele>101.9</ele>
        <time>2023-05-31T13:34:01Z</time>
      </trkpt>
      <trkpt lat="49.87576" lon="2.02492">
        <ele>101.9</ele>
        <time>2023-05-31T13:34:02Z</time>
      </trkpt>
      <trkpt lat="49.87576" lon="2.02492">
        <ele>101.9</ele>
        <time>2023-05-31T13:34:03Z</time>
      </trkpt>
      <trkpt lat="49.87576" lon="2.02492">
        <ele>101.9</ele>
        <time>2023-05-31T13:34:04Z</time>
      </trkpt>
      <trkpt lat="49.87576" lon="2.02493">
        <ele>101.9</ele>
        <time>2023-05-31T13:34:05Z</time>
      </trkpt>
      <trkpt lat="49.87576" lon="2.02493">
        <ele>101.9</ele>
        <time>2023-05-31T13:34:06Z</time>
      </trkpt>
      <trkpt lat="49.87577" lon="2.02493">
        <ele>101.9</ele>
        <time>2023-05-31T13:34:07Z</time>
      </trkpt>
      <trkpt lat="49.87577" lon="2.02493">
        <ele>101.9</ele>
        <time>2023-05-31T13:34:08Z</time>
      </trkpt>
      <trkpt lat="49.87577" lon="2.02493">
        <ele>101.9</ele>
        <time>2023-05-31T13:34:09Z</time>
      </trkpt>
      <trkpt lat="49.87577" lon="2.02493">
        <ele>101.9</ele>
        <time>2023-05-31T13:34:10Z</time>
      </trkpt>
      <trkpt lat="49.87577" lon="2.02493">
        <ele>101.9</ele>
        <time>2023-05-31T13:34:11Z</time>
      </trkpt>
      <trkpt lat="49.87577" lon="2.02493">
        <ele>101.9</ele>
        <time>2023-05-31T13:34:12Z</time>
      </trkpt>
      <trkpt lat="49.87577" lon="2.02493">
        <ele>101.9</ele>
        <time>2023-05-31T13:34:13Z</time>
      </trkpt>
      <trkpt lat="49.87577" lon="2.02493">
        <ele>101.9</ele>
        <time>2023-05-31T13:34:14Z</time>
      </trkpt>
      <trkpt lat="49.87577" lon="2.02493">
        <ele>101.9</ele>
        <time>2023-05-31T13:34:15Z</time>
      </trkpt>
      <trkpt lat="49.87577" lon="2.02493">
        <ele>101.9</ele>
        <time>2023-05-31T13:34:16Z</time>
      </trkpt>
      <trkpt lat="49.87577" lon="2.02493">
        <ele>101.9</ele>
        <time>2023-05-31T13:34:17Z</time>
      </trkpt>
      <trkpt lat="49.87577" lon="2.02493">
        <ele>101.9</ele>
        <time>2023-05-31T13:34:18Z</time>
      </trkpt>
      <trkpt lat="49.87577" lon="2.02493">
        <ele>101.9</ele>
        <time>2023-05-31T13:34:19Z</time>
      </trkpt>
      <trkpt lat="49.87577" lon="2.02493">
        <ele>101.9</ele>
        <time>2023-05-31T13:34:20Z</time>
      </trkpt>
      <trkpt lat="49.87577" lon="2.02493">
        <ele>101.9</ele>
        <time>2023-05-31T13:34:21Z</time>
      </trkpt>
      <trkpt lat="49.87577" lon="2.02493">
        <ele>101.9</ele>
        <time>2023-05-31T13:34:22Z</time>
      </trkpt>
      <trkpt lat="49.87577" lon="2.02493">
        <ele>101.9</ele>
        <time>2023-05-31T13:34:23Z</time>
      </trkpt>
      <trkpt lat="49.87577" lon="2.02493">
        <ele>101.9</ele>
        <time>2023-05-31T13:34:24Z</time>
      </trkpt>
      <trkpt lat="49.87577" lon="2.02493">
        <ele>101.9</ele>
        <time>2023-05-31T13:34:25Z</time>
      </trkpt>
      <trkpt lat="49.87577" lon="2.02493">
        <ele>101.9</ele>
        <time>2023-05-31T13:34:26Z</time>
      </trkpt>
      <trkpt lat="49.87577" lon="2.02493">
        <ele>101.9</ele>
        <time>2023-05-31T13:34:27Z</time>
      </trkpt>
      <trkpt lat="49.87577" lon="2.02493">
        <ele>101.9</ele>
        <time>2023-05-31T13:34:28Z</time>
      </trkpt>
      <trkpt lat="49.87577" lon="2.02493">
        <ele>101.9</ele>
        <time>2023-05-31T13:34:29Z</time>
      </trkpt>
      <trkpt lat="49.87577" lon="2.02493">
        <ele>101.9</ele>
        <time>2023-05-31T13:34:30Z</time>
      </trkpt>
      <trkpt lat="49.87577" lon="2.02493">
        <ele>101.9</ele>
        <time>2023-05-31T13:34:31Z</time>
      </trkpt>
      <trkpt lat="49.87577" lon="2.02493">
        <ele>101.9</ele>
        <time>2023-05-31T13:34:32Z</time>
      </trkpt>
      <trkpt lat="49.87577" lon="2.02493">
        <ele>101.9</ele>
        <time>2023-05-31T13:34:33Z</time>
      </trkpt>
      <trkpt lat="49.87577" lon="2.02493">
        <ele>101.9</ele>
        <time>2023-05-31T13:34:34Z</time>
      </trkpt>
      <trkpt lat="49.87577" lon="2.02493">
        <ele>101.9</ele>
        <time>2023-05-31T13:34:35Z</time>
      </trkpt>
      <trkpt lat="49.87577" lon="2.02493">
        <ele>101.9</ele>
        <time>2023-05-31T13:34:36Z</time>
      </trkpt>
      <trkpt lat="49.87577" lon="2.02493">
        <ele>101.9</ele>
        <time>2023-05-31T13:34:37Z</time>
      </trkpt>
      <trkpt lat="49.87577" lon="2.02493">
        <ele>101.9</ele>
        <time>2023-05-31T13:34:38Z</time>
      </trkpt>
      <trkpt lat="49.87577" lon="2.02493">
        <ele>101.9</ele>
        <time>2023-05-31T13:34:39Z</time>
      </trkpt>
      <trkpt lat="49.87577" lon="2.02493">
        <ele>101.9</ele>
        <time>2023-05-31T13:34:40Z</time>
      </trkpt>
      <trkpt lat="49.87577" lon="2.02493">
        <ele>101.9</ele>
        <time>2023-05-31T13:34:41Z</time>
      </trkpt>
      <trkpt lat="49.87577" lon="2.02493">
        <ele>101.9</ele>
        <time>2023-05-31T13:34:42Z</time>
      </trkpt>
      <trkpt lat="49.87577" lon="2.02493">
        <ele>101.9</ele>
        <time>2023-05-31T13:34:43Z</time>
      </trkpt>
      <trkpt lat="49.87577" lon="2.02493">
        <ele>101.9</ele>
        <time>2023-05-31T13:34:44Z</time>
      </trkpt>
      <trkpt lat="49.87577" lon="2.02493">
        <ele>101.9</ele>
        <time>2023-05-31T13:34:45Z</time>
      </trkpt>
      <trkpt lat="49.87577" lon="2.02493">
        <ele>101.9</ele>
        <time>2023-05-31T13:34:46Z</time>
      </trkpt>
      <trkpt lat="49.87577" lon="2.02493">
        <ele>101.9</ele>
        <time>2023-05-31T13:34:47Z</time>
      </trkpt>
      <trkpt lat="49.87577" lon="2.02493">
        <ele>101.9</ele>
        <time>2023-05-31T13:34:48Z</time>
      </trkpt>
      <trkpt lat="49.87577" lon="2.02493">
        <ele>101.9</ele>
        <time>2023-05-31T13:34:49Z</time>
      </trkpt>
      <trkpt lat="49.87577" lon="2.02493">
        <ele>101.9</ele>
        <time>2023-05-31T13:34:50Z</time>
      </trkpt>
      <trkpt lat="49.87577" lon="2.02493">
        <ele>101.9</ele>
        <time>2023-05-31T13:34:51Z</time>
      </trkpt>
      <trkpt lat="49.87577" lon="2.02493">
        <ele>101.9</ele>
        <time>2023-05-31T13:34:52Z</time>
      </trkpt>
      <trkpt lat="49.87577" lon="2.02493">
        <ele>101.9</ele>
        <time>2023-05-31T13:34:53Z</time>
      </trkpt>
      <trkpt lat="49.87577" lon="2.02493">
        <ele>101.9</ele>
        <time>2023-05-31T13:34:54Z</time>
      </trkpt>
      <trkpt lat="49.87577" lon="2.02493">
        <ele>101.9</ele>
        <time>2023-05-31T13:34:55Z</time>
      </trkpt>
      <trkpt lat="49.87577" lon="2.02493">
        <ele>101.9</ele>
        <time>2023-05-31T13:34:56Z</time>
      </trkpt>
      <trkpt lat="49.87577" lon="2.02493">
        <ele>101.9</ele>
        <time>2023-05-31T13:34:57Z</time>
      </trkpt>
      <trkpt lat="49.87577" lon="2.02493">
        <ele>101.9</ele>
        <time>2023-05-31T13:34:58Z</time>
      </trkpt>
      <trkpt lat="49.87577" lon="2.02493">
        <ele>101.9</ele>
        <time>2023-05-31T13:34:59Z</time>
      </trkpt>
      <trkpt lat="49.87577" lon="2.02493">
        <ele>101.9</ele>
        <time>2023-05-31T13:35:00Z</time>
      </trkpt>
      <trkpt lat="49.87577" lon="2.02493">
        <ele>101.9</ele>
        <time>2023-05-31T13:35:01Z</time>
      </trkpt>
      <trkpt lat="49.87577" lon="2.02493">
        <ele>101.9</ele>
        <time>2023-05-31T13:35:02Z</time>
      </trkpt>
      <trkpt lat="49.87577" lon="2.02493">
        <ele>101.9</ele>
        <time>2023-05-31T13:35:03Z</time>
      </trkpt>
      <trkpt lat="49.87577" lon="2.02493">
        <ele>101.9</ele>
        <time>2023-05-31T13:35:04Z</time>
      </trkpt>
      <trkpt lat="49.87577" lon="2.02493">
        <ele>101.9</ele>
        <time>2023-05-31T13:35:05Z</time>
      </trkpt>
      <trkpt lat="49.87577" lon="2.02493">
        <ele>101.9</ele>
        <time>2023-05-31T13:35:06Z</time>
      </trkpt>
      <trkpt lat="49.87577" lon="2.02493">
        <ele>101.9</ele>
        <time>2023-05-31T13:35:07Z</time>
      </trkpt>
      <trkpt lat="49.87577" lon="2.02493">
        <ele>101.9</ele>
        <time>2023-05-31T13:35:08Z</time>
      </trkpt>
      <trkpt lat="49.87577" lon="2.02493">
        <ele>101.9</ele>
        <time>2023-05-31T13:35:09Z</time>
      </trkpt>
      <trkpt lat="49.87577" lon="2.02493">
        <ele>101.9</ele>
        <time>2023-05-31T13:35:10Z</time>
      </trkpt>
      <trkpt lat="49.87577" lon="2.02493">
        <ele>101.9</ele>
        <time>2023-05-31T13:35:11Z</time>
      </trkpt>
      <trkpt lat="49.87577" lon="2.02493">
        <ele>101.9</ele>
        <time>2023-05-31T13:35:12Z</time>
      </trkpt>
      <trkpt lat="49.87577" lon="2.02493">
        <ele>101.9</ele>
        <time>2023-05-31T13:35:13Z</time>
      </trkpt>
      <trkpt lat="49.87577" lon="2.02493">
        <ele>101.9</ele>
        <time>2023-05-31T13:35:14Z</time>
      </trkpt>
      <trkpt lat="49.87577" lon="2.02493">
        <ele>101.9</ele>
        <time>2023-05-31T13:35:15Z</time>
      </trkpt>
      <trkpt lat="49.87577" lon="2.02493">
        <ele>101.9</ele>
        <time>2023-05-31T13:35:16Z</time>
      </trkpt>
      <trkpt lat="49.87577" lon="2.02493">
        <ele>101.9</ele>
        <time>2023-05-31T13:35:17Z</time>
      </trkpt>
      <trkpt lat="49.87577" lon="2.02493">
        <ele>101.9</ele>
        <time>2023-05-31T13:35:18Z</time>
      </trkpt>
      <trkpt lat="49.87577" lon="2.02493">
        <ele>101.9</ele>
        <time>2023-05-31T13:35:19Z</time>
      </trkpt>
      <trkpt lat="49.87577" lon="2.02493">
        <ele>101.9</ele>
        <time>2023-05-31T13:35:20Z</time>
      </trkpt>
      <trkpt lat="49.87577" lon="2.02493">
        <ele>101.9</ele>
        <time>2023-05-31T13:35:21Z</time>
      </trkpt>
      <trkpt lat="49.87577" lon="2.02493">
        <ele>101.9</ele>
        <time>2023-05-31T13:35:22Z</time>
      </trkpt>
      <trkpt lat="49.87577" lon="2.02493">
        <ele>101.9</ele>
        <time>2023-05-31T13:35:23Z</time>
      </trkpt>
      <trkpt lat="49.87577" lon="2.02493">
        <ele>101.9</ele>
        <time>2023-05-31T13:35:24Z</time>
      </trkpt>
      <trkpt lat="49.87577" lon="2.02493">
        <ele>101.9</ele>
        <time>2023-05-31T13:35:25Z</time>
      </trkpt>
      <trkpt lat="49.87577" lon="2.02493">
        <ele>101.9</ele>
        <time>2023-05-31T13:35:26Z</time>
      </trkpt>
      <trkpt lat="49.87577" lon="2.02493">
        <ele>101.9</ele>
        <time>2023-05-31T13:35:27Z</time>
      </trkpt>
      <trkpt lat="49.87577" lon="2.02493">
        <ele>101.9</ele>
        <time>2023-05-31T13:35:28Z</time>
      </trkpt>
      <trkpt lat="49.87577" lon="2.02493">
        <ele>101.9</ele>
        <time>2023-05-31T13:35:29Z</time>
      </trkpt>
      <trkpt lat="49.87577" lon="2.02493">
        <ele>101.9</ele>
        <time>2023-05-31T13:35:30Z</time>
      </trkpt>
      <trkpt lat="49.87577" lon="2.02494">
        <ele>101.9</ele>
        <time>2023-05-31T13:35:31Z</time>
      </trkpt>
      <trkpt lat="49.87577" lon="2.02494">
        <ele>101.9</ele>
        <time>2023-05-31T13:35:32Z</time>
      </trkpt>
      <trkpt lat="49.87577" lon="2.02494">
        <ele>101.9</ele>
        <time>2023-05-31T13:35:33Z</time>
      </trkpt>
      <trkpt lat="49.87577" lon="2.02494">
        <ele>101.9</ele>
        <time>2023-05-31T13:35:34Z</time>
      </trkpt>
      <trkpt lat="49.87577" lon="2.02494">
        <ele>101.9</ele>
        <time>2023-05-31T13:35:35Z</time>
      </trkpt>
      <trkpt lat="49.87576" lon="2.02494">
        <ele>101.9</ele>
        <time>2023-05-31T13:35:37Z</time>
      </trkpt>
      <trkpt lat="49.87576" lon="2.02495">
        <ele>102</ele>
        <time>2023-05-31T13:35:39Z</time>
      </trkpt>
      <trkpt lat="49.87576" lon="2.02495">
        <ele>102</ele>
        <time>2023-05-31T13:35:40Z</time>
      </trkpt>
      <trkpt lat="49.87575" lon="2.02496">
        <ele>102</ele>
        <time>2023-05-31T13:35:41Z</time>
      </trkpt>
      <trkpt lat="49.87574" lon="2.02496">
        <ele>102</ele>
        <time>2023-05-31T13:35:42Z</time>
      </trkpt>
      <trkpt lat="49.87573" lon="2.02497">
        <ele>102</ele>
        <time>2023-05-31T13:35:43Z</time>
      </trkpt>
      <trkpt lat="49.87572" lon="2.02497">
        <ele>102</ele>
        <time>2023-05-31T13:35:44Z</time>
      </trkpt>
      <trkpt lat="49.87571" lon="2.02498">
        <ele>102</ele>
        <time>2023-05-31T13:35:45Z</time>
      </trkpt>
      <trkpt lat="49.8757" lon="2.02498">
        <ele>102</ele>
        <time>2023-05-31T13:35:47Z</time>
      </trkpt>
      <trkpt lat="49.8757" lon="2.02498">
        <ele>102</ele>
        <time>2023-05-31T13:35:48Z</time>
      </trkpt>
      <trkpt lat="49.87569" lon="2.02498">
        <ele>102</ele>
        <time>2023-05-31T13:35:49Z</time>
      </trkpt>
      <trkpt lat="49.87569" lon="2.02499">
        <ele>102.1</ele>
        <time>2023-05-31T13:35:50Z</time>
      </trkpt>
      <trkpt lat="49.87568" lon="2.02499">
        <ele>102.1</ele>
        <time>2023-05-31T13:35:51Z</time>
      </trkpt>
      <trkpt lat="49.87568" lon="2.02499">
        <ele>102.1</ele>
        <time>2023-05-31T13:35:52Z</time>
      </trkpt>
      <trkpt lat="49.87567" lon="2.025">
        <ele>102.1</ele>
        <time>2023-05-31T13:35:54Z</time>
      </trkpt>
      <trkpt lat="49.87566" lon="2.025">
        <ele>102.1</ele>
        <time>2023-05-31T13:35:55Z</time>
      </trkpt>
      <trkpt lat="49.87565" lon="2.02501">
        <ele>102.1</ele>
        <time>2023-05-31T13:35:57Z</time>
      </trkpt>
      <trkpt lat="49.87565" lon="2.02501">
        <ele>102.1</ele>
        <time>2023-05-31T13:35:58Z</time>
      </trkpt>
      <trkpt lat="49.87563" lon="2.02502">
        <ele>102.1</ele>
        <time>2023-05-31T13:35:59Z</time>
      </trkpt>
      <trkpt lat="49.87563" lon="2.02502">
        <ele>102.1</ele>
        <time>2023-05-31T13:36:00Z</time>
      </trkpt>
      <trkpt lat="49.87562" lon="2.02503">
        <ele>102.1</ele>
        <time>2023-05-31T13:36:01Z</time>
      </trkpt>
      <trkpt lat="49.87561" lon="2.02503">
        <ele>102.1</ele>
        <time>2023-05-31T13:36:02Z</time>
      </trkpt>
      <trkpt lat="49.87561" lon="2.02503">
        <ele>102.1</ele>
        <time>2023-05-31T13:36:04Z</time>
      </trkpt>
      <trkpt lat="49.8756" lon="2.02504">
        <ele>102.2</ele>
        <time>2023-05-31T13:36:05Z</time>
      </trkpt>
      <trkpt lat="49.87559" lon="2.02504">
        <ele>102.2</ele>
        <time>2023-05-31T13:36:06Z</time>
      </trkpt>
      <trkpt lat="49.87558" lon="2.02504">
        <ele>102.2</ele>
        <time>2023-05-31T13:36:07Z</time>
      </trkpt>
      <trkpt lat="49.87557" lon="2.02505">
        <ele>102.2</ele>
        <time>2023-05-31T13:36:08Z</time>
      </trkpt>
      <trkpt lat="49.87556" lon="2.02505">
        <ele>102.2</ele>
        <time>2023-05-31T13:36:09Z</time>
      </trkpt>
      <trkpt lat="49.87556" lon="2.02505">
        <ele>102.2</ele>
        <time>2023-05-31T13:36:10Z</time>
      </trkpt>
      <trkpt lat="49.87554" lon="2.02506">
        <ele>102.2</ele>
        <time>2023-05-31T13:36:11Z</time>
      </trkpt>
      <trkpt lat="49.87553" lon="2.02506">
        <ele>102.2</ele>
        <time>2023-05-31T13:36:12Z</time>
      </trkpt>
      <trkpt lat="49.87552" lon="2.02507">
        <ele>102.2</ele>
        <time>2023-05-31T13:36:14Z</time>
      </trkpt>
      <trkpt lat="49.87551" lon="2.02507">
        <ele>102.3</ele>
        <time>2023-05-31T13:36:15Z</time>
      </trkpt>
      <trkpt lat="49.8755" lon="2.02507">
        <ele>102.3</ele>
        <time>2023-05-31T13:36:16Z</time>
      </trkpt>
      <trkpt lat="49.87549" lon="2.02507">
        <ele>102.3</ele>
        <time>2023-05-31T13:36:17Z</time>
      </trkpt>
      <trkpt lat="49.87548" lon="2.02507">
        <ele>102.3</ele>
        <time>2023-05-31T13:36:18Z</time>
      </trkpt>
      <trkpt lat="49.87546" lon="2.02508">
        <ele>102.3</ele>
        <time>2023-05-31T13:36:19Z</time>
      </trkpt>
      <trkpt lat="49.87545" lon="2.02508">
        <ele>102.3</ele>
        <time>2023-05-31T13:36:21Z</time>
      </trkpt>
      <trkpt lat="49.87544" lon="2.02507">
        <ele>102.3</ele>
        <time>2023-05-31T13:36:22Z</time>
      </trkpt>
      <trkpt lat="49.87542" lon="2.02507">
        <ele>102.3</ele>
        <time>2023-05-31T13:36:23Z</time>
      </trkpt>
      <trkpt lat="49.87541" lon="2.02507">
        <ele>102.4</ele>
        <time>2023-05-31T13:36:24Z</time>
      </trkpt>
      <trkpt lat="49.8754" lon="2.02507">
        <ele>102.4</ele>
        <time>2023-05-31T13:36:25Z</time>
      </trkpt>
      <trkpt lat="49.87539" lon="2.02507">
        <ele>102.4</ele>
        <time>2023-05-31T13:36:26Z</time>
      </trkpt>
      <trkpt lat="49.87537" lon="2.02508">
        <ele>102.4</ele>
        <time>2023-05-31T13:36:27Z</time>
      </trkpt>
      <trkpt lat="49.87536" lon="2.02508">
        <ele>102.4</ele>
        <time>2023-05-31T13:36:29Z</time>
      </trkpt>
      <trkpt lat="49.87535" lon="2.02509">
        <ele>102.4</ele>
        <time>2023-05-31T13:36:30Z</time>
      </trkpt>
      <trkpt lat="49.87532" lon="2.0251">
        <ele>102.4</ele>
        <time>2023-05-31T13:36:31Z</time>
      </trkpt>
      <trkpt lat="49.87531" lon="2.0251">
        <ele>102.5</ele>
        <time>2023-05-31T13:36:32Z</time>
      </trkpt>
      <trkpt lat="49.87529" lon="2.0251">
        <ele>102.5</ele>
        <time>2023-05-31T13:36:33Z</time>
      </trkpt>
      <trkpt lat="49.87527" lon="2.02511">
        <ele>102.5</ele>
        <time>2023-05-31T13:36:34Z</time>
      </trkpt>
      <trkpt lat="49.87526" lon="2.02511">
        <ele>102.5</ele>
        <time>2023-05-31T13:36:36Z</time>
      </trkpt>
      <trkpt lat="49.87525" lon="2.02512">
        <ele>102.5</ele>
        <time>2023-05-31T13:36:37Z</time>
      </trkpt>
      <trkpt lat="49.87523" lon="2.02512">
        <ele>102.5</ele>
        <time>2023-05-31T13:36:38Z</time>
      </trkpt>
      <trkpt lat="49.87522" lon="2.02512">
        <ele>102.5</ele>
        <time>2023-05-31T13:36:39Z</time>
      </trkpt>
      <trkpt lat="49.8752" lon="2.02513">
        <ele>102.5</ele>
        <time>2023-05-31T13:36:40Z</time>
      </trkpt>
      <trkpt lat="49.87519" lon="2.02513">
        <ele>102.6</ele>
        <time>2023-05-31T13:36:41Z</time>
      </trkpt>
      <trkpt lat="49.87518" lon="2.02514">
        <ele>102.6</ele>
        <time>2023-05-31T13:36:42Z</time>
      </trkpt>
      <trkpt lat="49.87516" lon="2.02514">
        <ele>102.6</ele>
        <time>2023-05-31T13:36:43Z</time>
      </trkpt>
      <trkpt lat="49.87515" lon="2.02514">
        <ele>102.6</ele>
        <time>2023-05-31T13:36:45Z</time>
      </trkpt>
      <trkpt lat="49.87513" lon="2.02515">
        <ele>102.6</ele>
        <time>2023-05-31T13:36:46Z</time>
      </trkpt>
      <trkpt lat="49.87512" lon="2.02515">
        <ele>102.6</ele>
        <time>2023-05-31T13:36:47Z</time>
      </trkpt>
      <trkpt lat="49.8751" lon="2.02516">
        <ele>102.6</ele>
        <time>2023-05-31T13:36:48Z</time>
      </trkpt>
      <trkpt lat="49.87509" lon="2.02516">
        <ele>102.7</ele>
        <time>2023-05-31T13:36:49Z</time>
      </trkpt>
      <trkpt lat="49.87507" lon="2.02517">
        <ele>102.7</ele>
        <time>2023-05-31T13:36:50Z</time>
      </trkpt>
      <trkpt lat="49.87506" lon="2.02517">
        <ele>102.7</ele>
        <time>2023-05-31T13:36:51Z</time>
      </trkpt>
      <trkpt lat="49.87504" lon="2.02518">
        <ele>102.7</ele>
        <time>2023-05-31T13:36:53Z</time>
      </trkpt>
      <trkpt lat="49.87503" lon="2.02518">
        <ele>102.7</ele>
        <time>2023-05-31T13:36:54Z</time>
      </trkpt>
      <trkpt lat="49.87501" lon="2.02519">
        <ele>102.7</ele>
        <time>2023-05-31T13:36:55Z</time>
      </trkpt>
      <trkpt lat="49.875" lon="2.02519">
        <ele>102.7</ele>
        <time>2023-05-31T13:36:56Z</time>
      </trkpt>
      <trkpt lat="49.87499" lon="2.0252">
        <ele>102.8</ele>
        <time>2023-05-31T13:36:57Z</time>
      </trkpt>
      <trkpt lat="49.87497" lon="2.02521">
        <ele>102.8</ele>
        <time>2023-05-31T13:36:58Z</time>
      </trkpt>
      <trkpt lat="49.87496" lon="2.02522">
        <ele>102.8</ele>
        <time>2023-05-31T13:36:59Z</time>
      </trkpt>
      <trkpt lat="49.87494" lon="2.02523">
        <ele>102.8</ele>
        <time>2023-05-31T13:37:01Z</time>
      </trkpt>
      <trkpt lat="49.87493" lon="2.02524">
        <ele>102.8</ele>
        <time>2023-05-31T13:37:02Z</time>
      </trkpt>
      <trkpt lat="49.87493" lon="2.02524">
        <ele>102.8</ele>
        <time>2023-05-31T13:37:03Z</time>
      </trkpt>
      <trkpt lat="49.87491" lon="2.02526">
        <ele>102.8</ele>
        <time>2023-05-31T13:37:04Z</time>
      </trkpt>
      <trkpt lat="49.8749" lon="2.02526">
        <ele>102.8</ele>
        <time>2023-05-31T13:37:05Z</time>
      </trkpt>
      <trkpt lat="49.87489" lon="2.02527">
        <ele>102.8</ele>
        <time>2023-05-31T13:37:06Z</time>
      </trkpt>
      <trkpt lat="49.87487" lon="2.02528">
        <ele>102.8</ele>
        <time>2023-05-31T13:37:08Z</time>
      </trkpt>
      <trkpt lat="49.87486" lon="2.02529">
        <ele>102.8</ele>
        <time>2023-05-31T13:37:10Z</time>
      </trkpt>
      <trkpt lat="49.87484" lon="2.02529">
        <ele>102.9</ele>
        <time>2023-05-31T13:37:11Z</time>
      </trkpt>
      <trkpt lat="49.87483" lon="2.02529">
        <ele>102.9</ele>
        <time>2023-05-31T13:37:12Z</time>
      </trkpt>
      <trkpt lat="49.87482" lon="2.0253">
        <ele>102.9</ele>
        <time>2023-05-31T13:37:13Z</time>
      </trkpt>
      <trkpt lat="49.8748" lon="2.0253">
        <ele>102.9</ele>
        <time>2023-05-31T13:37:14Z</time>
      </trkpt>
      <trkpt lat="49.87478" lon="2.02531">
        <ele>102.9</ele>
        <time>2023-05-31T13:37:15Z</time>
      </trkpt>
      <trkpt lat="49.87478" lon="2.02531">
        <ele>102.9</ele>
        <time>2023-05-31T13:37:16Z</time>
      </trkpt>
      <trkpt lat="49.87477" lon="2.02532">
        <ele>102.9</ele>
        <time>2023-05-31T13:37:17Z</time>
      </trkpt>
      <trkpt lat="49.87475" lon="2.02533">
        <ele>102.9</ele>
        <time>2023-05-31T13:37:19Z</time>
      </trkpt>
      <trkpt lat="49.87474" lon="2.02533">
        <ele>102.9</ele>
        <time>2023-05-31T13:37:20Z</time>
      </trkpt>
      <trkpt lat="49.87473" lon="2.02533">
        <ele>102.9</ele>
        <time>2023-05-31T13:37:21Z</time>
      </trkpt>
      <trkpt lat="49.87471" lon="2.02534">
        <ele>102.9</ele>
        <time>2023-05-31T13:37:22Z</time>
      </trkpt>
      <trkpt lat="49.8747" lon="2.02535">
        <ele>102.9</ele>
        <time>2023-05-31T13:37:23Z</time>
      </trkpt>
      <trkpt lat="49.87469" lon="2.02535">
        <ele>102.9</ele>
        <time>2023-05-31T13:37:24Z</time>
      </trkpt>
      <trkpt lat="49.87468" lon="2.02536">
        <ele>102.9</ele>
        <time>2023-05-31T13:37:25Z</time>
      </trkpt>
      <trkpt lat="49.87467" lon="2.02536">
        <ele>102.8</ele>
        <time>2023-05-31T13:37:26Z</time>
      </trkpt>
      <trkpt lat="49.87465" lon="2.02536">
        <ele>102.8</ele>
        <time>2023-05-31T13:37:28Z</time>
      </trkpt>
      <trkpt lat="49.87463" lon="2.02537">
        <ele>102.8</ele>
        <time>2023-05-31T13:37:29Z</time>
      </trkpt>
      <trkpt lat="49.87463" lon="2.02537">
        <ele>102.8</ele>
        <time>2023-05-31T13:37:30Z</time>
      </trkpt>
      <trkpt lat="49.87462" lon="2.02538">
        <ele>102.8</ele>
        <time>2023-05-31T13:37:31Z</time>
      </trkpt>
      <trkpt lat="49.8746" lon="2.02538">
        <ele>102.8</ele>
        <time>2023-05-31T13:37:32Z</time>
      </trkpt>
      <trkpt lat="49.87459" lon="2.02539">
        <ele>102.8</ele>
        <time>2023-05-31T13:37:33Z</time>
      </trkpt>
      <trkpt lat="49.87457" lon="2.0254">
        <ele>102.8</ele>
        <time>2023-05-31T13:37:35Z</time>
      </trkpt>
      <trkpt lat="49.87456" lon="2.02541">
        <ele>102.8</ele>
        <time>2023-05-31T13:37:36Z</time>
      </trkpt>
      <trkpt lat="49.87455" lon="2.02541">
        <ele>102.8</ele>
        <time>2023-05-31T13:37:37Z</time>
      </trkpt>
      <trkpt lat="49.87453" lon="2.02542">
        <ele>102.8</ele>
        <time>2023-05-31T13:37:38Z</time>
      </trkpt>
      <trkpt lat="49.87452" lon="2.02542">
        <ele>102.8</ele>
        <time>2023-05-31T13:37:39Z</time>
      </trkpt>
      <trkpt lat="49.87451" lon="2.02543">
        <ele>102.8</ele>
        <time>2023-05-31T13:37:40Z</time>
      </trkpt>
      <trkpt lat="49.87449" lon="2.02544">
        <ele>102.7</ele>
        <time>2023-05-31T13:37:41Z</time>
      </trkpt>
      <trkpt lat="49.87449" lon="2.02544">
        <ele>102.7</ele>
        <time>2023-05-31T13:37:42Z</time>
      </trkpt>
      <trkpt lat="49.87448" lon="2.02544">
        <ele>102.7</ele>
        <time>2023-05-31T13:37:43Z</time>
      </trkpt>
      <trkpt lat="49.87446" lon="2.02545">
        <ele>102.7</ele>
        <time>2023-05-31T13:37:45Z</time>
      </trkpt>
      <trkpt lat="49.87445" lon="2.02545">
        <ele>102.7</ele>
        <time>2023-05-31T13:37:46Z</time>
      </trkpt>
      <trkpt lat="49.87444" lon="2.02545">
        <ele>102.7</ele>
        <time>2023-05-31T13:37:47Z</time>
      </trkpt>
      <trkpt lat="49.87442" lon="2.02545">
        <ele>102.7</ele>
        <time>2023-05-31T13:37:48Z</time>
      </trkpt>
      <trkpt lat="49.87441" lon="2.02545">
        <ele>102.7</ele>
        <time>2023-05-31T13:37:49Z</time>
      </trkpt>
      <trkpt lat="49.8744" lon="2.02545">
        <ele>102.7</ele>
        <time>2023-05-31T13:37:50Z</time>
      </trkpt>
      <trkpt lat="49.87438" lon="2.02546">
        <ele>102.7</ele>
        <time>2023-05-31T13:37:51Z</time>
      </trkpt>
      <trkpt lat="49.87437" lon="2.02546">
        <ele>102.7</ele>
        <time>2023-05-31T13:37:52Z</time>
      </trkpt>
      <trkpt lat="49.87436" lon="2.02546">
        <ele>102.7</ele>
        <time>2023-05-31T13:37:53Z</time>
      </trkpt>
      <trkpt lat="49.87434" lon="2.02547">
        <ele>102.7</ele>
        <time>2023-05-31T13:37:55Z</time>
      </trkpt>
      <trkpt lat="49.87434" lon="2.02547">
        <ele>102.7</ele>
        <time>2023-05-31T13:37:56Z</time>
      </trkpt>
      <trkpt lat="49.87433" lon="2.02548">
        <ele>102.7</ele>
        <time>2023-05-31T13:37:57Z</time>
      </trkpt>
      <trkpt lat="49.87432" lon="2.02548">
        <ele>102.7</ele>
        <time>2023-05-31T13:37:58Z</time>
      </trkpt>
      <trkpt lat="49.8743" lon="2.02548">
        <ele>102.7</ele>
        <time>2023-05-31T13:37:59Z</time>
      </trkpt>
      <trkpt lat="49.87428" lon="2.02549">
        <ele>102.7</ele>
        <time>2023-05-31T13:38:01Z</time>
      </trkpt>
      <trkpt lat="49.87427" lon="2.02549">
        <ele>102.7</ele>
        <time>2023-05-31T13:38:02Z</time>
      </trkpt>
      <trkpt lat="49.87426" lon="2.0255">
        <ele>102.7</ele>
        <time>2023-05-31T13:38:03Z</time>
      </trkpt>
      <trkpt lat="49.87424" lon="2.0255">
        <ele>102.7</ele>
        <time>2023-05-31T13:38:04Z</time>
      </trkpt>
      <trkpt lat="49.87423" lon="2.02551">
        <ele>102.7</ele>
        <time>2023-05-31T13:38:05Z</time>
      </trkpt>
      <trkpt lat="49.87421" lon="2.02551">
        <ele>102.7</ele>
        <time>2023-05-31T13:38:07Z</time>
      </trkpt>
      <trkpt lat="49.8742" lon="2.02552">
        <ele>102.7</ele>
        <time>2023-05-31T13:38:08Z</time>
      </trkpt>
      <trkpt lat="49.87417" lon="2.02552">
        <ele>102.7</ele>
        <time>2023-05-31T13:38:09Z</time>
      </trkpt>
      <trkpt lat="49.87417" lon="2.02553">
        <ele>102.7</ele>
        <time>2023-05-31T13:38:10Z</time>
      </trkpt>
      <trkpt lat="49.87416" lon="2.02553">
        <ele>102.7</ele>
        <time>2023-05-31T13:38:11Z</time>
      </trkpt>
      <trkpt lat="49.87414" lon="2.02553">
        <ele>102.7</ele>
        <time>2023-05-31T13:38:12Z</time>
      </trkpt>
      <trkpt lat="49.87413" lon="2.02553">
        <ele>102.7</ele>
        <time>2023-05-31T13:38:13Z</time>
      </trkpt>
      <trkpt lat="49.87412" lon="2.02554">
        <ele>102.7</ele>
        <time>2023-05-31T13:38:14Z</time>
      </trkpt>
      <trkpt lat="49.87411" lon="2.02553">
        <ele>102.7</ele>
        <time>2023-05-31T13:38:15Z</time>
      </trkpt>
      <trkpt lat="49.87409" lon="2.02553">
        <ele>102.7</ele>
        <time>2023-05-31T13:38:16Z</time>
      </trkpt>
      <trkpt lat="49.87408" lon="2.02554">
        <ele>102.7</ele>
        <time>2023-05-31T13:38:18Z</time>
      </trkpt>
      <trkpt lat="49.87407" lon="2.02554">
        <ele>102.7</ele>
        <time>2023-05-31T13:38:19Z</time>
      </trkpt>
      <trkpt lat="49.87406" lon="2.02554">
        <ele>102.7</ele>
        <time>2023-05-31T13:38:20Z</time>
      </trkpt>
      <trkpt lat="49.87404" lon="2.02555">
        <ele>102.7</ele>
        <time>2023-05-31T13:38:21Z</time>
      </trkpt>
      <trkpt lat="49.87404" lon="2.02556">
        <ele>102.7</ele>
        <time>2023-05-31T13:38:22Z</time>
      </trkpt>
      <trkpt lat="49.87403" lon="2.02556">
        <ele>102.7</ele>
        <time>2023-05-31T13:38:23Z</time>
      </trkpt>
      <trkpt lat="49.87402" lon="2.02556">
        <ele>102.7</ele>
        <time>2023-05-31T13:38:24Z</time>
      </trkpt>
      <trkpt lat="49.87401" lon="2.02557">
        <ele>102.7</ele>
        <time>2023-05-31T13:38:25Z</time>
      </trkpt>
      <trkpt lat="49.874" lon="2.02557">
        <ele>102.7</ele>
        <time>2023-05-31T13:38:26Z</time>
      </trkpt>
      <trkpt lat="49.87399" lon="2.02558">
        <ele>102.7</ele>
        <time>2023-05-31T13:38:28Z</time>
      </trkpt>
      <trkpt lat="49.87399" lon="2.02558">
        <ele>102.7</ele>
        <time>2023-05-31T13:38:29Z</time>
      </trkpt>
      <trkpt lat="49.87398" lon="2.02559">
        <ele>102.7</ele>
        <time>2023-05-31T13:38:30Z</time>
      </trkpt>
      <trkpt lat="49.87398" lon="2.02559">
        <ele>102.7</ele>
        <time>2023-05-31T13:38:31Z</time>
      </trkpt>
      <trkpt lat="49.87397" lon="2.02559">
        <ele>102.7</ele>
        <time>2023-05-31T13:38:32Z</time>
      </trkpt>
      <trkpt lat="49.87396" lon="2.0256">
        <ele>102.7</ele>
        <time>2023-05-31T13:38:33Z</time>
      </trkpt>
      <trkpt lat="49.87395" lon="2.0256">
        <ele>102.7</ele>
        <time>2023-05-31T13:38:34Z</time>
      </trkpt>
      <trkpt lat="49.87394" lon="2.0256">
        <ele>102.7</ele>
        <time>2023-05-31T13:38:35Z</time>
      </trkpt>
      <trkpt lat="49.87394" lon="2.0256">
        <ele>102.7</ele>
        <time>2023-05-31T13:38:36Z</time>
      </trkpt>
      <trkpt lat="49.87392" lon="2.02561">
        <ele>102.7</ele>
        <time>2023-05-31T13:38:37Z</time>
      </trkpt>
      <trkpt lat="49.87391" lon="2.02562">
        <ele>102.7</ele>
        <time>2023-05-31T13:38:39Z</time>
      </trkpt>
      <trkpt lat="49.8739" lon="2.02562">
        <ele>102.7</ele>
        <time>2023-05-31T13:38:40Z</time>
      </trkpt>
      <trkpt lat="49.87387" lon="2.02563">
        <ele>102.7</ele>
        <time>2023-05-31T13:38:41Z</time>
      </trkpt>
      <trkpt lat="49.87386" lon="2.02564">
        <ele>102.6</ele>
        <time>2023-05-31T13:38:43Z</time>
      </trkpt>
      <trkpt lat="49.87385" lon="2.02564">
        <ele>102.6</ele>
        <time>2023-05-31T13:38:44Z</time>
      </trkpt>
      <trkpt lat="49.87384" lon="2.02565">
        <ele>102.6</ele>
        <time>2023-05-31T13:38:45Z</time>
      </trkpt>
      <trkpt lat="49.87383" lon="2.02565">
        <ele>102.6</ele>
        <time>2023-05-31T13:38:46Z</time>
      </trkpt>
      <trkpt lat="49.87381" lon="2.02566">
        <ele>102.6</ele>
        <time>2023-05-31T13:38:47Z</time>
      </trkpt>
      <trkpt lat="49.8738" lon="2.02567">
        <ele>102.6</ele>
        <time>2023-05-31T13:38:48Z</time>
      </trkpt>
      <trkpt lat="49.8738" lon="2.02567">
        <ele>102.5</ele>
        <time>2023-05-31T13:38:49Z</time>
      </trkpt>
      <trkpt lat="49.87378" lon="2.02568">
        <ele>102.5</ele>
        <time>2023-05-31T13:38:50Z</time>
      </trkpt>
      <trkpt lat="49.87377" lon="2.02568">
        <ele>102.5</ele>
        <time>2023-05-31T13:38:51Z</time>
      </trkpt>
      <trkpt lat="49.87376" lon="2.02569">
        <ele>102.5</ele>
        <time>2023-05-31T13:38:52Z</time>
      </trkpt>
      <trkpt lat="49.87374" lon="2.0257">
        <ele>102.5</ele>
        <time>2023-05-31T13:38:54Z</time>
      </trkpt>
      <trkpt lat="49.87373" lon="2.0257">
        <ele>102.4</ele>
        <time>2023-05-31T13:38:55Z</time>
      </trkpt>
      <trkpt lat="49.87371" lon="2.02571">
        <ele>102.4</ele>
        <time>2023-05-31T13:38:56Z</time>
      </trkpt>
      <trkpt lat="49.8737" lon="2.02572">
        <ele>102.4</ele>
        <time>2023-05-31T13:38:57Z</time>
      </trkpt>
      <trkpt lat="49.87368" lon="2.02572">
        <ele>102.4</ele>
        <time>2023-05-31T13:38:58Z</time>
      </trkpt>
      <trkpt lat="49.87366" lon="2.02574">
        <ele>102.3</ele>
        <time>2023-05-31T13:38:59Z</time>
      </trkpt>
      <trkpt lat="49.87365" lon="2.02574">
        <ele>102.3</ele>
        <time>2023-05-31T13:39:00Z</time>
      </trkpt>
      <trkpt lat="49.87365" lon="2.02575">
        <ele>102.3</ele>
        <time>2023-05-31T13:39:01Z</time>
      </trkpt>
      <trkpt lat="49.87363" lon="2.02576">
        <ele>102.3</ele>
        <time>2023-05-31T13:39:03Z</time>
      </trkpt>
      <trkpt lat="49.87362" lon="2.02576">
        <ele>102.3</ele>
        <time>2023-05-31T13:39:04Z</time>
      </trkpt>
      <trkpt lat="49.87361" lon="2.02576">
        <ele>102.3</ele>
        <time>2023-05-31T13:39:05Z</time>
      </trkpt>
      <trkpt lat="49.8736" lon="2.02577">
        <ele>102.3</ele>
        <time>2023-05-31T13:39:06Z</time>
      </trkpt>
      <trkpt lat="49.87358" lon="2.02577">
        <ele>102.2</ele>
        <time>2023-05-31T13:39:07Z</time>
      </trkpt>
      <trkpt lat="49.87357" lon="2.02578">
        <ele>102.2</ele>
        <time>2023-05-31T13:39:08Z</time>
      </trkpt>
      <trkpt lat="49.87356" lon="2.02579">
        <ele>102.2</ele>
        <time>2023-05-31T13:39:09Z</time>
      </trkpt>
      <trkpt lat="49.87354" lon="2.02579">
        <ele>102.2</ele>
        <time>2023-05-31T13:39:10Z</time>
      </trkpt>
      <trkpt lat="49.87353" lon="2.0258">
        <ele>102.2</ele>
        <time>2023-05-31T13:39:11Z</time>
      </trkpt>
      <trkpt lat="49.87349" lon="2.02581">
        <ele>102.2</ele>
        <time>2023-05-31T13:39:13Z</time>
      </trkpt>
      <trkpt lat="49.87348" lon="2.02582">
        <ele>102.1</ele>
        <time>2023-05-31T13:39:15Z</time>
      </trkpt>
      <trkpt lat="49.87346" lon="2.02582">
        <ele>102.1</ele>
        <time>2023-05-31T13:39:16Z</time>
      </trkpt>
      <trkpt lat="49.87345" lon="2.02583">
        <ele>102.1</ele>
        <time>2023-05-31T13:39:17Z</time>
      </trkpt>
      <trkpt lat="49.87344" lon="2.02584">
        <ele>102.1</ele>
        <time>2023-05-31T13:39:18Z</time>
      </trkpt>
      <trkpt lat="49.87341" lon="2.02585">
        <ele>102.1</ele>
        <time>2023-05-31T13:39:19Z</time>
      </trkpt>
      <trkpt lat="49.87341" lon="2.02585">
        <ele>102.1</ele>
        <time>2023-05-31T13:39:21Z</time>
      </trkpt>
      <trkpt lat="49.8734" lon="2.02586">
        <ele>102.1</ele>
        <time>2023-05-31T13:39:22Z</time>
      </trkpt>
      <trkpt lat="49.87339" lon="2.02586">
        <ele>102</ele>
        <time>2023-05-31T13:39:23Z</time>
      </trkpt>
      <trkpt lat="49.87338" lon="2.02587">
        <ele>102</ele>
        <time>2023-05-31T13:39:24Z</time>
      </trkpt>
      <trkpt lat="49.87336" lon="2.02587">
        <ele>102</ele>
        <time>2023-05-31T13:39:25Z</time>
      </trkpt>
      <trkpt lat="49.87335" lon="2.02588">
        <ele>102</ele>
        <time>2023-05-31T13:39:26Z</time>
      </trkpt>
      <trkpt lat="49.87334" lon="2.02588">
        <ele>102</ele>
        <time>2023-05-31T13:39:27Z</time>
      </trkpt>
      <trkpt lat="49.87333" lon="2.02589">
        <ele>102</ele>
        <time>2023-05-31T13:39:29Z</time>
      </trkpt>
      <trkpt lat="49.87332" lon="2.02589">
        <ele>102</ele>
        <time>2023-05-31T13:39:30Z</time>
      </trkpt>
      <trkpt lat="49.87331" lon="2.0259">
        <ele>102</ele>
        <time>2023-05-31T13:39:31Z</time>
      </trkpt>
      <trkpt lat="49.8733" lon="2.0259">
        <ele>102</ele>
        <time>2023-05-31T13:39:32Z</time>
      </trkpt>
      <trkpt lat="49.87329" lon="2.02591">
        <ele>102</ele>
        <time>2023-05-31T13:39:33Z</time>
      </trkpt>
      <trkpt lat="49.87328" lon="2.02592">
        <ele>102</ele>
        <time>2023-05-31T13:39:34Z</time>
      </trkpt>
      <trkpt lat="49.87327" lon="2.02592">
        <ele>102</ele>
        <time>2023-05-31T13:39:35Z</time>
      </trkpt>
      <trkpt lat="49.87325" lon="2.02593">
        <ele>101.9</ele>
        <time>2023-05-31T13:39:37Z</time>
      </trkpt>
      <trkpt lat="49.87324" lon="2.02593">
        <ele>101.9</ele>
        <time>2023-05-31T13:39:38Z</time>
      </trkpt>
      <trkpt lat="49.87323" lon="2.02594">
        <ele>101.9</ele>
        <time>2023-05-31T13:39:39Z</time>
      </trkpt>
      <trkpt lat="49.87322" lon="2.02594">
        <ele>101.9</ele>
        <time>2023-05-31T13:39:40Z</time>
      </trkpt>
      <trkpt lat="49.87321" lon="2.02594">
        <ele>101.9</ele>
        <time>2023-05-31T13:39:42Z</time>
      </trkpt>
      <trkpt lat="49.8732" lon="2.02595">
        <ele>101.9</ele>
        <time>2023-05-31T13:39:43Z</time>
      </trkpt>
      <trkpt lat="49.87319" lon="2.02596">
        <ele>101.9</ele>
        <time>2023-05-31T13:39:44Z</time>
      </trkpt>
      <trkpt lat="49.87318" lon="2.02596">
        <ele>101.9</ele>
        <time>2023-05-31T13:39:45Z</time>
      </trkpt>
      <trkpt lat="49.87317" lon="2.02597">
        <ele>101.9</ele>
        <time>2023-05-31T13:39:46Z</time>
      </trkpt>
      <trkpt lat="49.87316" lon="2.02598">
        <ele>101.9</ele>
        <time>2023-05-31T13:39:47Z</time>
      </trkpt>
      <trkpt lat="49.87315" lon="2.02599">
        <ele>101.9</ele>
        <time>2023-05-31T13:39:48Z</time>
      </trkpt>
      <trkpt lat="49.87314" lon="2.02599">
        <ele>101.9</ele>
        <time>2023-05-31T13:39:49Z</time>
      </trkpt>
      <trkpt lat="49.87313" lon="2.026">
        <ele>101.9</ele>
        <time>2023-05-31T13:39:50Z</time>
      </trkpt>
      <trkpt lat="49.87311" lon="2.02601">
        <ele>101.9</ele>
        <time>2023-05-31T13:39:52Z</time>
      </trkpt>
      <trkpt lat="49.8731" lon="2.02601">
        <ele>101.9</ele>
        <time>2023-05-31T13:39:53Z</time>
      </trkpt>
      <trkpt lat="49.8731" lon="2.02602">
        <ele>101.9</ele>
        <time>2023-05-31T13:39:54Z</time>
      </trkpt>
      <trkpt lat="49.87308" lon="2.02602">
        <ele>101.9</ele>
        <time>2023-05-31T13:39:55Z</time>
      </trkpt>
      <trkpt lat="49.87307" lon="2.02603">
        <ele>101.9</ele>
        <time>2023-05-31T13:39:56Z</time>
      </trkpt>
      <trkpt lat="49.87305" lon="2.02605">
        <ele>101.9</ele>
        <time>2023-05-31T13:39:57Z</time>
      </trkpt>
      <trkpt lat="49.87304" lon="2.02605">
        <ele>101.9</ele>
        <time>2023-05-31T13:39:58Z</time>
      </trkpt>
      <trkpt lat="49.87303" lon="2.02605">
        <ele>101.9</ele>
        <time>2023-05-31T13:39:59Z</time>
      </trkpt>
      <trkpt lat="49.87302" lon="2.02606">
        <ele>101.9</ele>
        <time>2023-05-31T13:40:00Z</time>
      </trkpt>
      <trkpt lat="49.873" lon="2.02607">
        <ele>101.9</ele>
        <time>2023-05-31T13:40:02Z</time>
      </trkpt>
      <trkpt lat="49.87299" lon="2.02608">
        <ele>101.9</ele>
        <time>2023-05-31T13:40:03Z</time>
      </trkpt>
      <trkpt lat="49.87298" lon="2.02608">
        <ele>101.9</ele>
        <time>2023-05-31T13:40:04Z</time>
      </trkpt>
      <trkpt lat="49.87297" lon="2.02609">
        <ele>101.9</ele>
        <time>2023-05-31T13:40:06Z</time>
      </trkpt>
      <trkpt lat="49.87295" lon="2.0261">
        <ele>101.9</ele>
        <time>2023-05-31T13:40:07Z</time>
      </trkpt>
      <trkpt lat="49.87294" lon="2.0261">
        <ele>101.9</ele>
        <time>2023-05-31T13:40:08Z</time>
      </trkpt>
      <trkpt lat="49.87293" lon="2.02611">
        <ele>101.9</ele>
        <time>2023-05-31T13:40:09Z</time>
      </trkpt>
      <trkpt lat="49.87292" lon="2.02611">
        <ele>101.9</ele>
        <time>2023-05-31T13:40:10Z</time>
      </trkpt>
      <trkpt lat="49.8729" lon="2.02612">
        <ele>101.9</ele>
        <time>2023-05-31T13:40:11Z</time>
      </trkpt>
      <trkpt lat="49.87287" lon="2.02613">
        <ele>101.9</ele>
        <time>2023-05-31T13:40:13Z</time>
      </trkpt>
      <trkpt lat="49.87287" lon="2.02613">
        <ele>101.9</ele>
        <time>2023-05-31T13:40:14Z</time>
      </trkpt>
      <trkpt lat="49.87286" lon="2.02613">
        <ele>101.9</ele>
        <time>2023-05-31T13:40:16Z</time>
      </trkpt>
      <trkpt lat="49.87285" lon="2.02614">
        <ele>101.9</ele>
        <time>2023-05-31T13:40:17Z</time>
      </trkpt>
      <trkpt lat="49.87284" lon="2.02615">
        <ele>102</ele>
        <time>2023-05-31T13:40:18Z</time>
      </trkpt>
      <trkpt lat="49.87283" lon="2.02615">
        <ele>102</ele>
        <time>2023-05-31T13:40:19Z</time>
      </trkpt>
      <trkpt lat="49.87281" lon="2.02615">
        <ele>102</ele>
        <time>2023-05-31T13:40:20Z</time>
      </trkpt>
      <trkpt lat="49.8728" lon="2.02616">
        <ele>102</ele>
        <time>2023-05-31T13:40:21Z</time>
      </trkpt>
      <trkpt lat="49.87279" lon="2.02616">
        <ele>102</ele>
        <time>2023-05-31T13:40:22Z</time>
      </trkpt>
      <trkpt lat="49.87278" lon="2.02617">
        <ele>102</ele>
        <time>2023-05-31T13:40:23Z</time>
      </trkpt>
      <trkpt lat="49.87277" lon="2.02617">
        <ele>102</ele>
        <time>2023-05-31T13:40:25Z</time>
      </trkpt>
      <trkpt lat="49.87276" lon="2.02618">
        <ele>102</ele>
        <time>2023-05-31T13:40:26Z</time>
      </trkpt>
      <trkpt lat="49.87275" lon="2.02618">
        <ele>102</ele>
        <time>2023-05-31T13:40:27Z</time>
      </trkpt>
      <trkpt lat="49.87274" lon="2.02619">
        <ele>102</ele>
        <time>2023-05-31T13:40:28Z</time>
      </trkpt>
      <trkpt lat="49.87271" lon="2.0262">
        <ele>102</ele>
        <time>2023-05-31T13:40:29Z</time>
      </trkpt>
      <trkpt lat="49.8727" lon="2.02621">
        <ele>102</ele>
        <time>2023-05-31T13:40:31Z</time>
      </trkpt>
      <trkpt lat="49.87269" lon="2.02621">
        <ele>101.9</ele>
        <time>2023-05-31T13:40:32Z</time>
      </trkpt>
      <trkpt lat="49.87268" lon="2.02622">
        <ele>101.9</ele>
        <time>2023-05-31T13:40:33Z</time>
      </trkpt>
      <trkpt lat="49.87267" lon="2.02622">
        <ele>101.9</ele>
        <time>2023-05-31T13:40:34Z</time>
      </trkpt>
      <trkpt lat="49.87266" lon="2.02623">
        <ele>101.9</ele>
        <time>2023-05-31T13:40:35Z</time>
      </trkpt>
      <trkpt lat="49.87265" lon="2.02624">
        <ele>101.9</ele>
        <time>2023-05-31T13:40:36Z</time>
      </trkpt>
      <trkpt lat="49.87264" lon="2.02624">
        <ele>101.9</ele>
        <time>2023-05-31T13:40:37Z</time>
      </trkpt>
      <trkpt lat="49.87263" lon="2.02625">
        <ele>101.9</ele>
        <time>2023-05-31T13:40:38Z</time>
      </trkpt>
      <trkpt lat="49.87262" lon="2.02626">
        <ele>101.9</ele>
        <time>2023-05-31T13:40:39Z</time>
      </trkpt>
      <trkpt lat="49.8726" lon="2.02627">
        <ele>101.9</ele>
        <time>2023-05-31T13:40:41Z</time>
      </trkpt>
      <trkpt lat="49.87259" lon="2.02627">
        <ele>101.9</ele>
        <time>2023-05-31T13:40:42Z</time>
      </trkpt>
      <trkpt lat="49.87258" lon="2.02627">
        <ele>101.9</ele>
        <time>2023-05-31T13:40:43Z</time>
      </trkpt>
      <trkpt lat="49.87257" lon="2.02628">
        <ele>101.9</ele>
        <time>2023-05-31T13:40:44Z</time>
      </trkpt>
      <trkpt lat="49.87256" lon="2.02628">
        <ele>101.9</ele>
        <time>2023-05-31T13:40:46Z</time>
      </trkpt>
      <trkpt lat="49.87255" lon="2.02629">
        <ele>101.9</ele>
        <time>2023-05-31T13:40:47Z</time>
      </trkpt>
      <trkpt lat="49.87254" lon="2.02629">
        <ele>101.9</ele>
        <time>2023-05-31T13:40:48Z</time>
      </trkpt>
      <trkpt lat="49.87253" lon="2.0263">
        <ele>101.9</ele>
        <time>2023-05-31T13:40:49Z</time>
      </trkpt>
      <trkpt lat="49.87252" lon="2.0263">
        <ele>101.9</ele>
        <time>2023-05-31T13:40:50Z</time>
      </trkpt>
      <trkpt lat="49.87251" lon="2.02631">
        <ele>101.9</ele>
        <time>2023-05-31T13:40:51Z</time>
      </trkpt>
      <trkpt lat="49.8725" lon="2.02632">
        <ele>101.9</ele>
        <time>2023-05-31T13:40:52Z</time>
      </trkpt>
      <trkpt lat="49.87249" lon="2.02633">
        <ele>102</ele>
        <time>2023-05-31T13:40:53Z</time>
      </trkpt>
      <trkpt lat="49.87247" lon="2.02634">
        <ele>102</ele>
        <time>2023-05-31T13:40:54Z</time>
      </trkpt>
      <trkpt lat="49.87246" lon="2.02635">
        <ele>102</ele>
        <time>2023-05-31T13:40:56Z</time>
      </trkpt>
      <trkpt lat="49.87245" lon="2.02635">
        <ele>102</ele>
        <time>2023-05-31T13:40:57Z</time>
      </trkpt>
      <trkpt lat="49.87243" lon="2.02636">
        <ele>102</ele>
        <time>2023-05-31T13:40:58Z</time>
      </trkpt>
      <trkpt lat="49.87242" lon="2.02637">
        <ele>102</ele>
        <time>2023-05-31T13:40:59Z</time>
      </trkpt>
      <trkpt lat="49.8724" lon="2.02638">
        <ele>102.1</ele>
        <time>2023-05-31T13:41:00Z</time>
      </trkpt>
      <trkpt lat="49.87239" lon="2.02638">
        <ele>102.1</ele>
        <time>2023-05-31T13:41:01Z</time>
      </trkpt>
      <trkpt lat="49.87237" lon="2.02639">
        <ele>102.1</ele>
        <time>2023-05-31T13:41:02Z</time>
      </trkpt>
      <trkpt lat="49.87236" lon="2.0264">
        <ele>102.1</ele>
        <time>2023-05-31T13:41:03Z</time>
      </trkpt>
      <trkpt lat="49.87235" lon="2.02641">
        <ele>102.1</ele>
        <time>2023-05-31T13:41:05Z</time>
      </trkpt>
      <trkpt lat="49.87233" lon="2.02642">
        <ele>102.2</ele>
        <time>2023-05-31T13:41:06Z</time>
      </trkpt>
      <trkpt lat="49.87232" lon="2.02643">
        <ele>102.2</ele>
        <time>2023-05-31T13:41:07Z</time>
      </trkpt>
      <trkpt lat="49.8723" lon="2.02644">
        <ele>102.2</ele>
        <time>2023-05-31T13:41:08Z</time>
      </trkpt>
      <trkpt lat="49.87229" lon="2.02645">
        <ele>102.3</ele>
        <time>2023-05-31T13:41:09Z</time>
      </trkpt>
      <trkpt lat="49.87227" lon="2.02646">
        <ele>102.3</ele>
        <time>2023-05-31T13:41:11Z</time>
      </trkpt>
      <trkpt lat="49.87226" lon="2.02647">
        <ele>102.3</ele>
        <time>2023-05-31T13:41:12Z</time>
      </trkpt>
      <trkpt lat="49.87225" lon="2.02648">
        <ele>102.3</ele>
        <time>2023-05-31T13:41:13Z</time>
      </trkpt>
      <trkpt lat="49.87223" lon="2.02649">
        <ele>102.4</ele>
        <time>2023-05-31T13:41:14Z</time>
      </trkpt>
      <trkpt lat="49.87222" lon="2.0265">
        <ele>102.4</ele>
        <time>2023-05-31T13:41:15Z</time>
      </trkpt>
      <trkpt lat="49.8722" lon="2.02651">
        <ele>102.4</ele>
        <time>2023-05-31T13:41:16Z</time>
      </trkpt>
      <trkpt lat="49.87219" lon="2.02652">
        <ele>102.5</ele>
        <time>2023-05-31T13:41:17Z</time>
      </trkpt>
      <trkpt lat="49.87217" lon="2.02653">
        <ele>102.5</ele>
        <time>2023-05-31T13:41:18Z</time>
      </trkpt>
      <trkpt lat="49.87215" lon="2.02653">
        <ele>102.5</ele>
        <time>2023-05-31T13:41:20Z</time>
      </trkpt>
      <trkpt lat="49.87214" lon="2.02654">
        <ele>102.5</ele>
        <time>2023-05-31T13:41:21Z</time>
      </trkpt>
      <trkpt lat="49.87212" lon="2.02654">
        <ele>102.6</ele>
        <time>2023-05-31T13:41:22Z</time>
      </trkpt>
      <trkpt lat="49.87211" lon="2.02655">
        <ele>102.6</ele>
        <time>2023-05-31T13:41:23Z</time>
      </trkpt>
      <trkpt lat="49.8721" lon="2.02656">
        <ele>102.6</ele>
        <time>2023-05-31T13:41:24Z</time>
      </trkpt>
      <trkpt lat="49.87209" lon="2.02657">
        <ele>102.6</ele>
        <time>2023-05-31T13:41:25Z</time>
      </trkpt>
      <trkpt lat="49.87207" lon="2.02657">
        <ele>102.7</ele>
        <time>2023-05-31T13:41:26Z</time>
      </trkpt>
      <trkpt lat="49.87206" lon="2.02658">
        <ele>102.7</ele>
        <time>2023-05-31T13:41:28Z</time>
      </trkpt>
      <trkpt lat="49.87205" lon="2.02659">
        <ele>102.7</ele>
        <time>2023-05-31T13:41:29Z</time>
      </trkpt>
      <trkpt lat="49.87204" lon="2.0266">
        <ele>102.7</ele>
        <time>2023-05-31T13:41:30Z</time>
      </trkpt>
      <trkpt lat="49.87203" lon="2.0266">
        <ele>102.8</ele>
        <time>2023-05-31T13:41:31Z</time>
      </trkpt>
      <trkpt lat="49.87203" lon="2.02661">
        <ele>102.8</ele>
        <time>2023-05-31T13:41:32Z</time>
      </trkpt>
      <trkpt lat="49.87202" lon="2.02661">
        <ele>102.8</ele>
        <time>2023-05-31T13:41:33Z</time>
      </trkpt>
      <trkpt lat="49.87201" lon="2.02662">
        <ele>102.8</ele>
        <time>2023-05-31T13:41:34Z</time>
      </trkpt>
      <trkpt lat="49.872" lon="2.02662">
        <ele>102.8</ele>
        <time>2023-05-31T13:41:35Z</time>
      </trkpt>
      <trkpt lat="49.872" lon="2.02663">
        <ele>102.9</ele>
        <time>2023-05-31T13:41:37Z</time>
      </trkpt>
      <trkpt lat="49.87199" lon="2.02664">
        <ele>102.9</ele>
        <time>2023-05-31T13:41:38Z</time>
      </trkpt>
      <trkpt lat="49.87198" lon="2.02664">
        <ele>102.9</ele>
        <time>2023-05-31T13:41:39Z</time>
      </trkpt>
      <trkpt lat="49.87197" lon="2.02665">
        <ele>102.9</ele>
        <time>2023-05-31T13:41:40Z</time>
      </trkpt>
      <trkpt lat="49.87196" lon="2.02666">
        <ele>103</ele>
        <time>2023-05-31T13:41:41Z</time>
      </trkpt>
      <trkpt lat="49.87195" lon="2.02667">
        <ele>103</ele>
        <time>2023-05-31T13:41:42Z</time>
      </trkpt>
      <trkpt lat="49.87194" lon="2.02668">
        <ele>103</ele>
        <time>2023-05-31T13:41:44Z</time>
      </trkpt>
      <trkpt lat="49.87193" lon="2.02668">
        <ele>103.1</ele>
        <time>2023-05-31T13:41:45Z</time>
      </trkpt>
      <trkpt lat="49.87192" lon="2.02669">
        <ele>103.1</ele>
        <time>2023-05-31T13:41:46Z</time>
      </trkpt>
      <trkpt lat="49.8719" lon="2.0267">
        <ele>103.2</ele>
        <time>2023-05-31T13:41:47Z</time>
      </trkpt>
      <trkpt lat="49.87189" lon="2.0267">
        <ele>103.2</ele>
        <time>2023-05-31T13:41:48Z</time>
      </trkpt>
      <trkpt lat="49.87188" lon="2.02671">
        <ele>103.2</ele>
        <time>2023-05-31T13:41:49Z</time>
      </trkpt>
      <trkpt lat="49.87187" lon="2.02672">
        <ele>103.2</ele>
        <time>2023-05-31T13:41:50Z</time>
      </trkpt>
      <trkpt lat="49.87186" lon="2.02672">
        <ele>103.3</ele>
        <time>2023-05-31T13:41:52Z</time>
      </trkpt>
      <trkpt lat="49.87185" lon="2.02672">
        <ele>103.3</ele>
        <time>2023-05-31T13:41:53Z</time>
      </trkpt>
      <trkpt lat="49.87183" lon="2.02673">
        <ele>103.4</ele>
        <time>2023-05-31T13:41:54Z</time>
      </trkpt>
      <trkpt lat="49.87182" lon="2.02674">
        <ele>103.4</ele>
        <time>2023-05-31T13:41:55Z</time>
      </trkpt>
      <trkpt lat="49.87182" lon="2.02674">
        <ele>103.4</ele>
        <time>2023-05-31T13:41:56Z</time>
      </trkpt>
      <trkpt lat="49.8718" lon="2.02675">
        <ele>103.5</ele>
        <time>2023-05-31T13:41:57Z</time>
      </trkpt>
      <trkpt lat="49.87179" lon="2.02675">
        <ele>103.5</ele>
        <time>2023-05-31T13:41:58Z</time>
      </trkpt>
      <trkpt lat="49.87178" lon="2.02676">
        <ele>103.5</ele>
        <time>2023-05-31T13:42:00Z</time>
      </trkpt>
      <trkpt lat="49.87177" lon="2.02677">
        <ele>103.6</ele>
        <time>2023-05-31T13:42:01Z</time>
      </trkpt>
      <trkpt lat="49.87176" lon="2.02678">
        <ele>103.6</ele>
        <time>2023-05-31T13:42:02Z</time>
      </trkpt>
      <trkpt lat="49.87175" lon="2.02678">
        <ele>103.7</ele>
        <time>2023-05-31T13:42:03Z</time>
      </trkpt>
      <trkpt lat="49.87174" lon="2.02679">
        <ele>103.7</ele>
        <time>2023-05-31T13:42:04Z</time>
      </trkpt>
      <trkpt lat="49.87173" lon="2.0268">
        <ele>103.7</ele>
        <time>2023-05-31T13:42:05Z</time>
      </trkpt>
      <trkpt lat="49.87172" lon="2.0268">
        <ele>103.8</ele>
        <time>2023-05-31T13:42:07Z</time>
      </trkpt>
      <trkpt lat="49.87171" lon="2.02681">
        <ele>103.8</ele>
        <time>2023-05-31T13:42:08Z</time>
      </trkpt>
      <trkpt lat="49.8717" lon="2.02682">
        <ele>103.8</ele>
        <time>2023-05-31T13:42:09Z</time>
      </trkpt>
      <trkpt lat="49.87169" lon="2.02682">
        <ele>103.9</ele>
        <time>2023-05-31T13:42:10Z</time>
      </trkpt>
      <trkpt lat="49.87168" lon="2.02683">
        <ele>103.9</ele>
        <time>2023-05-31T13:42:11Z</time>
      </trkpt>
      <trkpt lat="49.87167" lon="2.02683">
        <ele>104</ele>
        <time>2023-05-31T13:42:12Z</time>
      </trkpt>
      <trkpt lat="49.87166" lon="2.02683">
        <ele>104</ele>
        <time>2023-05-31T13:42:14Z</time>
      </trkpt>
      <trkpt lat="49.87165" lon="2.02684">
        <ele>104.1</ele>
        <time>2023-05-31T13:42:15Z</time>
      </trkpt>
      <trkpt lat="49.87164" lon="2.02685">
        <ele>104.1</ele>
        <time>2023-05-31T13:42:16Z</time>
      </trkpt>
      <trkpt lat="49.87163" lon="2.02685">
        <ele>104.2</ele>
        <time>2023-05-31T13:42:17Z</time>
      </trkpt>
      <trkpt lat="49.87161" lon="2.02686">
        <ele>104.3</ele>
        <time>2023-05-31T13:42:18Z</time>
      </trkpt>
      <trkpt lat="49.8716" lon="2.02687">
        <ele>104.3</ele>
        <time>2023-05-31T13:42:19Z</time>
      </trkpt>
      <trkpt lat="49.87159" lon="2.02687">
        <ele>104.4</ele>
        <time>2023-05-31T13:42:20Z</time>
      </trkpt>
      <trkpt lat="49.87158" lon="2.02687">
        <ele>104.4</ele>
        <time>2023-05-31T13:42:21Z</time>
      </trkpt>
      <trkpt lat="49.87157" lon="2.02688">
        <ele>104.5</ele>
        <time>2023-05-31T13:42:23Z</time>
      </trkpt>
      <trkpt lat="49.87156" lon="2.02688">
        <ele>104.5</ele>
        <time>2023-05-31T13:42:24Z</time>
      </trkpt>
      <trkpt lat="49.87155" lon="2.02689">
        <ele>104.6</ele>
        <time>2023-05-31T13:42:25Z</time>
      </trkpt>
      <trkpt lat="49.87154" lon="2.02689">
        <ele>104.7</ele>
        <time>2023-05-31T13:42:26Z</time>
      </trkpt>
      <trkpt lat="49.87152" lon="2.02689">
        <ele>104.7</ele>
        <time>2023-05-31T13:42:27Z</time>
      </trkpt>
      <trkpt lat="49.87151" lon="2.0269">
        <ele>104.8</ele>
        <time>2023-05-31T13:42:28Z</time>
      </trkpt>
      <trkpt lat="49.8715" lon="2.0269">
        <ele>104.9</ele>
        <time>2023-05-31T13:42:29Z</time>
      </trkpt>
      <trkpt lat="49.87148" lon="2.0269">
        <ele>105</ele>
        <time>2023-05-31T13:42:31Z</time>
      </trkpt>
      <trkpt lat="49.87146" lon="2.0269">
        <ele>105</ele>
        <time>2023-05-31T13:42:33Z</time>
      </trkpt>
      <trkpt lat="49.87145" lon="2.0269">
        <ele>105.1</ele>
        <time>2023-05-31T13:42:34Z</time>
      </trkpt>
      <trkpt lat="49.87143" lon="2.0269">
        <ele>105.2</ele>
        <time>2023-05-31T13:42:35Z</time>
      </trkpt>
      <trkpt lat="49.87142" lon="2.0269">
        <ele>105.3</ele>
        <time>2023-05-31T13:42:36Z</time>
      </trkpt>
      <trkpt lat="49.87142" lon="2.02691">
        <ele>105.3</ele>
        <time>2023-05-31T13:42:37Z</time>
      </trkpt>
      <trkpt lat="49.87141" lon="2.02691">
        <ele>105.3</ele>
        <time>2023-05-31T13:42:38Z</time>
      </trkpt>
      <trkpt lat="49.8714" lon="2.02691">
        <ele>105.4</ele>
        <time>2023-05-31T13:42:39Z</time>
      </trkpt>
      <trkpt lat="49.87139" lon="2.02691">
        <ele>105.4</ele>
        <time>2023-05-31T13:42:41Z</time>
      </trkpt>
      <trkpt lat="49.87137" lon="2.02691">
        <ele>105.5</ele>
        <time>2023-05-31T13:42:42Z</time>
      </trkpt>
      <trkpt lat="49.87136" lon="2.02691">
        <ele>105.6</ele>
        <time>2023-05-31T13:42:44Z</time>
      </trkpt>
      <trkpt lat="49.87135" lon="2.02691">
        <ele>105.6</ele>
        <time>2023-05-31T13:42:45Z</time>
      </trkpt>
      <trkpt lat="49.87134" lon="2.02691">
        <ele>105.6</ele>
        <time>2023-05-31T13:42:46Z</time>
      </trkpt>
      <trkpt lat="49.87134" lon="2.02691">
        <ele>105.7</ele>
        <time>2023-05-31T13:42:47Z</time>
      </trkpt>
      <trkpt lat="49.87133" lon="2.02691">
        <ele>105.7</ele>
        <time>2023-05-31T13:42:48Z</time>
      </trkpt>
      <trkpt lat="49.87132" lon="2.0269">
        <ele>105.8</ele>
        <time>2023-05-31T13:42:49Z</time>
      </trkpt>
      <trkpt lat="49.87131" lon="2.0269">
        <ele>105.8</ele>
        <time>2023-05-31T13:42:51Z</time>
      </trkpt>
      <trkpt lat="49.87131" lon="2.02689">
        <ele>105.8</ele>
        <time>2023-05-31T13:42:52Z</time>
      </trkpt>
      <trkpt lat="49.8713" lon="2.02689">
        <ele>105.9</ele>
        <time>2023-05-31T13:42:53Z</time>
      </trkpt>
      <trkpt lat="49.8713" lon="2.02689">
        <ele>105.9</ele>
        <time>2023-05-31T13:42:54Z</time>
      </trkpt>
      <trkpt lat="49.87129" lon="2.02688">
        <ele>105.9</ele>
        <time>2023-05-31T13:42:56Z</time>
      </trkpt>
      <trkpt lat="49.87129" lon="2.02688">
        <ele>106</ele>
        <time>2023-05-31T13:42:57Z</time>
      </trkpt>
      <trkpt lat="49.87128" lon="2.02688">
        <ele>106</ele>
        <time>2023-05-31T13:42:58Z</time>
      </trkpt>
      <trkpt lat="49.87128" lon="2.02688">
        <ele>106</ele>
        <time>2023-05-31T13:43:00Z</time>
      </trkpt>
      <trkpt lat="49.87128" lon="2.02688">
        <ele>106</ele>
        <time>2023-05-31T13:43:01Z</time>
      </trkpt>
      <trkpt lat="49.87128" lon="2.02688">
        <ele>106</ele>
        <time>2023-05-31T13:43:02Z</time>
      </trkpt>
      <trkpt lat="49.87128" lon="2.02688">
        <ele>106</ele>
        <time>2023-05-31T13:43:03Z</time>
      </trkpt>
      <trkpt lat="49.87128" lon="2.02688">
        <ele>106</ele>
        <time>2023-05-31T13:43:05Z</time>
      </trkpt>
      <trkpt lat="49.87128" lon="2.02688">
        <ele>106</ele>
        <time>2023-05-31T13:43:06Z</time>
      </trkpt>
      <trkpt lat="49.87128" lon="2.02688">
        <ele>106</ele>
        <time>2023-05-31T13:43:07Z</time>
      </trkpt>
      <trkpt lat="49.87128" lon="2.02688">
        <ele>106.1</ele>
        <time>2023-05-31T13:43:08Z</time>
      </trkpt>
      <trkpt lat="49.87128" lon="2.02688">
        <ele>106.1</ele>
        <time>2023-05-31T13:43:10Z</time>
      </trkpt>
      <trkpt lat="49.87128" lon="2.02688">
        <ele>106.1</ele>
        <time>2023-05-31T13:43:11Z</time>
      </trkpt>
      <trkpt lat="49.87128" lon="2.02688">
        <ele>106.1</ele>
        <time>2023-05-31T13:43:12Z</time>
      </trkpt>
      <trkpt lat="49.87128" lon="2.02688">
        <ele>106.1</ele>
        <time>2023-05-31T13:43:13Z</time>
      </trkpt>
      <trkpt lat="49.87128" lon="2.02688">
        <ele>106.1</ele>
        <time>2023-05-31T13:43:14Z</time>
      </trkpt>
      <trkpt lat="49.87128" lon="2.02688">
        <ele>106.1</ele>
        <time>2023-05-31T13:43:15Z</time>
      </trkpt>
      <trkpt lat="49.87128" lon="2.02688">
        <ele>106.1</ele>
        <time>2023-05-31T13:43:16Z</time>
      </trkpt>
      <trkpt lat="49.87128" lon="2.02688">
        <ele>106.1</ele>
        <time>2023-05-31T13:43:17Z</time>
      </trkpt>
      <trkpt lat="49.87128" lon="2.02688">
        <ele>106.1</ele>
        <time>2023-05-31T13:43:18Z</time>
      </trkpt>
      <trkpt lat="49.87129" lon="2.02689">
        <ele>106.2</ele>
        <time>2023-05-31T13:43:19Z</time>
      </trkpt>
      <trkpt lat="49.87129" lon="2.0269">
        <ele>106.3</ele>
        <time>2023-05-31T13:43:20Z</time>
      </trkpt>
      <trkpt lat="49.87129" lon="2.0269">
        <ele>106.3</ele>
        <time>2023-05-31T13:43:21Z</time>
      </trkpt>
      <trkpt lat="49.87128" lon="2.02691">
        <ele>106.3</ele>
        <time>2023-05-31T13:43:22Z</time>
      </trkpt>
      <trkpt lat="49.87127" lon="2.0269">
        <ele>106.5</ele>
        <time>2023-05-31T13:43:23Z</time>
      </trkpt>
      <trkpt lat="49.87127" lon="2.02692">
        <ele>106.6</ele>
        <time>2023-05-31T13:43:25Z</time>
      </trkpt>
      <trkpt lat="49.87126" lon="2.02693">
        <ele>106.7</ele>
        <time>2023-05-31T13:43:27Z</time>
      </trkpt>
      <trkpt lat="49.87126" lon="2.02695">
        <ele>106.7</ele>
        <time>2023-05-31T13:43:28Z</time>
      </trkpt>
      <trkpt lat="49.87126" lon="2.02696">
        <ele>106.8</ele>
        <time>2023-05-31T13:43:29Z</time>
      </trkpt>
      <trkpt lat="49.87125" lon="2.02697">
        <ele>106.9</ele>
        <time>2023-05-31T13:43:30Z</time>
      </trkpt>
      <trkpt lat="49.87125" lon="2.02698">
        <ele>107</ele>
        <time>2023-05-31T13:43:31Z</time>
      </trkpt>
      <trkpt lat="49.87124" lon="2.027">
        <ele>107</ele>
        <time>2023-05-31T13:43:32Z</time>
      </trkpt>
      <trkpt lat="49.87123" lon="2.02703">
        <ele>107.3</ele>
        <time>2023-05-31T13:43:34Z</time>
      </trkpt>
      <trkpt lat="49.87122" lon="2.02704">
        <ele>107.4</ele>
        <time>2023-05-31T13:43:36Z</time>
      </trkpt>
      <trkpt lat="49.87122" lon="2.02705">
        <ele>107.4</ele>
        <time>2023-05-31T13:43:37Z</time>
      </trkpt>
      <trkpt lat="49.87121" lon="2.02707">
        <ele>107.5</ele>
        <time>2023-05-31T13:43:38Z</time>
      </trkpt>
      <trkpt lat="49.87121" lon="2.02708">
        <ele>107.6</ele>
        <time>2023-05-31T13:43:39Z</time>
      </trkpt>
      <trkpt lat="49.8712" lon="2.0271">
        <ele>107.7</ele>
        <time>2023-05-31T13:43:41Z</time>
      </trkpt>
      <trkpt lat="49.87119" lon="2.02711">
        <ele>107.8</ele>
        <time>2023-05-31T13:43:42Z</time>
      </trkpt>
      <trkpt lat="49.87119" lon="2.02712">
        <ele>107.9</ele>
        <time>2023-05-31T13:43:43Z</time>
      </trkpt>
      <trkpt lat="49.87117" lon="2.02714">
        <ele>108.1</ele>
        <time>2023-05-31T13:43:45Z</time>
      </trkpt>
      <trkpt lat="49.87117" lon="2.02716">
        <ele>108.2</ele>
        <time>2023-05-31T13:43:46Z</time>
      </trkpt>
      <trkpt lat="49.87115" lon="2.02718">
        <ele>108.4</ele>
        <time>2023-05-31T13:43:48Z</time>
      </trkpt>
      <trkpt lat="49.87114" lon="2.02719">
        <ele>108.5</ele>
        <time>2023-05-31T13:43:49Z</time>
      </trkpt>
      <trkpt lat="49.87113" lon="2.0272">
        <ele>108.5</ele>
        <time>2023-05-31T13:43:50Z</time>
      </trkpt>
      <trkpt lat="49.87112" lon="2.02721">
        <ele>108.7</ele>
        <time>2023-05-31T13:43:51Z</time>
      </trkpt>
      <trkpt lat="49.87112" lon="2.02722">
        <ele>108.7</ele>
        <time>2023-05-31T13:43:52Z</time>
      </trkpt>
      <trkpt lat="49.87111" lon="2.02723">
        <ele>108.8</ele>
        <time>2023-05-31T13:43:53Z</time>
      </trkpt>
      <trkpt lat="49.8711" lon="2.02725">
        <ele>108.9</ele>
        <time>2023-05-31T13:43:55Z</time>
      </trkpt>
      <trkpt lat="49.87109" lon="2.02726">
        <ele>109</ele>
        <time>2023-05-31T13:43:56Z</time>
      </trkpt>
      <trkpt lat="49.87109" lon="2.02726">
        <ele>109.1</ele>
        <time>2023-05-31T13:43:57Z</time>
      </trkpt>
      <trkpt lat="49.87108" lon="2.02727">
        <ele>109.1</ele>
        <time>2023-05-31T13:43:58Z</time>
      </trkpt>
      <trkpt lat="49.87107" lon="2.02728">
        <ele>109.2</ele>
        <time>2023-05-31T13:43:59Z</time>
      </trkpt>
      <trkpt lat="49.87106" lon="2.02729">
        <ele>109.3</ele>
        <time>2023-05-31T13:44:00Z</time>
      </trkpt>
      <trkpt lat="49.87105" lon="2.0273">
        <ele>109.4</ele>
        <time>2023-05-31T13:44:02Z</time>
      </trkpt>
      <trkpt lat="49.87104" lon="2.02731">
        <ele>109.5</ele>
        <time>2023-05-31T13:44:03Z</time>
      </trkpt>
      <trkpt lat="49.87103" lon="2.02732">
        <ele>109.6</ele>
        <time>2023-05-31T13:44:04Z</time>
      </trkpt>
      <trkpt lat="49.87102" lon="2.02733">
        <ele>109.7</ele>
        <time>2023-05-31T13:44:05Z</time>
      </trkpt>
      <trkpt lat="49.87102" lon="2.02734">
        <ele>109.7</ele>
        <time>2023-05-31T13:44:07Z</time>
      </trkpt>
      <trkpt lat="49.87101" lon="2.02735">
        <ele>109.8</ele>
        <time>2023-05-31T13:44:08Z</time>
      </trkpt>
      <trkpt lat="49.871" lon="2.02736">
        <ele>109.9</ele>
        <time>2023-05-31T13:44:09Z</time>
      </trkpt>
      <trkpt lat="49.87099" lon="2.02737">
        <ele>110</ele>
        <time>2023-05-31T13:44:10Z</time>
      </trkpt>
      <trkpt lat="49.87099" lon="2.02738">
        <ele>110</ele>
        <time>2023-05-31T13:44:11Z</time>
      </trkpt>
      <trkpt lat="49.87098" lon="2.02739">
        <ele>110.1</ele>
        <time>2023-05-31T13:44:12Z</time>
      </trkpt>
      <trkpt lat="49.87097" lon="2.02741">
        <ele>110.2</ele>
        <time>2023-05-31T13:44:14Z</time>
      </trkpt>
      <trkpt lat="49.87096" lon="2.02742">
        <ele>110.3</ele>
        <time>2023-05-31T13:44:16Z</time>
      </trkpt>
      <trkpt lat="49.87095" lon="2.02742">
        <ele>110.4</ele>
        <time>2023-05-31T13:44:17Z</time>
      </trkpt>
      <trkpt lat="49.87095" lon="2.02743">
        <ele>110.4</ele>
        <time>2023-05-31T13:44:18Z</time>
      </trkpt>
      <trkpt lat="49.87094" lon="2.02744">
        <ele>110.5</ele>
        <time>2023-05-31T13:44:19Z</time>
      </trkpt>
      <trkpt lat="49.87093" lon="2.02745">
        <ele>110.6</ele>
        <time>2023-05-31T13:44:20Z</time>
      </trkpt>
      <trkpt lat="49.87092" lon="2.02747">
        <ele>110.7</ele>
        <time>2023-05-31T13:44:22Z</time>
      </trkpt>
      <trkpt lat="49.87091" lon="2.02748">
        <ele>110.8</ele>
        <time>2023-05-31T13:44:23Z</time>
      </trkpt>
      <trkpt lat="49.8709" lon="2.02749">
        <ele>110.9</ele>
        <time>2023-05-31T13:44:25Z</time>
      </trkpt>
      <trkpt lat="49.87089" lon="2.02751">
        <ele>111</ele>
        <time>2023-05-31T13:44:26Z</time>
      </trkpt>
      <trkpt lat="49.87088" lon="2.02752">
        <ele>111</ele>
        <time>2023-05-31T13:44:27Z</time>
      </trkpt>
      <trkpt lat="49.87087" lon="2.02753">
        <ele>111.1</ele>
        <time>2023-05-31T13:44:28Z</time>
      </trkpt>
      <trkpt lat="49.87086" lon="2.02755">
        <ele>111.2</ele>
        <time>2023-05-31T13:44:30Z</time>
      </trkpt>
      <trkpt lat="49.87085" lon="2.02756">
        <ele>111.3</ele>
        <time>2023-05-31T13:44:32Z</time>
      </trkpt>
      <trkpt lat="49.87084" lon="2.02757">
        <ele>111.4</ele>
        <time>2023-05-31T13:44:33Z</time>
      </trkpt>
      <trkpt lat="49.87083" lon="2.02759">
        <ele>111.5</ele>
        <time>2023-05-31T13:44:34Z</time>
      </trkpt>
      <trkpt lat="49.87082" lon="2.02759">
        <ele>111.5</ele>
        <time>2023-05-31T13:44:35Z</time>
      </trkpt>
      <trkpt lat="49.87081" lon="2.02761">
        <ele>111.6</ele>
        <time>2023-05-31T13:44:36Z</time>
      </trkpt>
      <trkpt lat="49.8708" lon="2.02763">
        <ele>111.7</ele>
        <time>2023-05-31T13:44:37Z</time>
      </trkpt>
      <trkpt lat="49.87079" lon="2.02763">
        <ele>111.8</ele>
        <time>2023-05-31T13:44:39Z</time>
      </trkpt>
      <trkpt lat="49.87078" lon="2.02764">
        <ele>111.8</ele>
        <time>2023-05-31T13:44:40Z</time>
      </trkpt>
      <trkpt lat="49.87078" lon="2.02765">
        <ele>111.9</ele>
        <time>2023-05-31T13:44:41Z</time>
      </trkpt>
      <trkpt lat="49.87077" lon="2.02767">
        <ele>112</ele>
        <time>2023-05-31T13:44:42Z</time>
      </trkpt>
      <trkpt lat="49.87075" lon="2.02769">
        <ele>112.1</ele>
        <time>2023-05-31T13:44:44Z</time>
      </trkpt>
      <trkpt lat="49.87075" lon="2.0277">
        <ele>112.2</ele>
        <time>2023-05-31T13:44:46Z</time>
      </trkpt>
      <trkpt lat="49.87074" lon="2.02771">
        <ele>112.2</ele>
        <time>2023-05-31T13:44:47Z</time>
      </trkpt>
      <trkpt lat="49.87073" lon="2.02773">
        <ele>112.3</ele>
        <time>2023-05-31T13:44:48Z</time>
      </trkpt>
      <trkpt lat="49.87073" lon="2.02774">
        <ele>112.3</ele>
        <time>2023-05-31T13:44:49Z</time>
      </trkpt>
      <trkpt lat="49.87072" lon="2.02775">
        <ele>112.4</ele>
        <time>2023-05-31T13:44:50Z</time>
      </trkpt>
      <trkpt lat="49.87071" lon="2.02777">
        <ele>112.5</ele>
        <time>2023-05-31T13:44:51Z</time>
      </trkpt>
      <trkpt lat="49.87071" lon="2.02778">
        <ele>112.6</ele>
        <time>2023-05-31T13:44:53Z</time>
      </trkpt>
      <trkpt lat="49.8707" lon="2.0278">
        <ele>112.6</ele>
        <time>2023-05-31T13:44:54Z</time>
      </trkpt>
      <trkpt lat="49.87069" lon="2.02781">
        <ele>112.7</ele>
        <time>2023-05-31T13:44:55Z</time>
      </trkpt>
      <trkpt lat="49.87069" lon="2.02783">
        <ele>112.8</ele>
        <time>2023-05-31T13:44:56Z</time>
      </trkpt>
      <trkpt lat="49.87067" lon="2.02786">
        <ele>112.9</ele>
        <time>2023-05-31T13:44:57Z</time>
      </trkpt>
      <trkpt lat="49.87067" lon="2.02788">
        <ele>113</ele>
        <time>2023-05-31T13:44:59Z</time>
      </trkpt>
      <trkpt lat="49.87066" lon="2.02789">
        <ele>113.1</ele>
        <time>2023-05-31T13:45:00Z</time>
      </trkpt>
      <trkpt lat="49.87065" lon="2.0279">
        <ele>113.1</ele>
        <time>2023-05-31T13:45:01Z</time>
      </trkpt>
      <trkpt lat="49.87065" lon="2.02792">
        <ele>113.2</ele>
        <time>2023-05-31T13:45:02Z</time>
      </trkpt>
      <trkpt lat="49.87064" lon="2.02793">
        <ele>113.2</ele>
        <time>2023-05-31T13:45:04Z</time>
      </trkpt>
      <trkpt lat="49.87064" lon="2.02794">
        <ele>113.3</ele>
        <time>2023-05-31T13:45:05Z</time>
      </trkpt>
      <trkpt lat="49.87063" lon="2.02796">
        <ele>113.4</ele>
        <time>2023-05-31T13:45:06Z</time>
      </trkpt>
      <trkpt lat="49.87062" lon="2.02797">
        <ele>113.4</ele>
        <time>2023-05-31T13:45:07Z</time>
      </trkpt>
      <trkpt lat="49.87062" lon="2.02798">
        <ele>113.5</ele>
        <time>2023-05-31T13:45:08Z</time>
      </trkpt>
      <trkpt lat="49.87061" lon="2.028">
        <ele>113.6</ele>
        <time>2023-05-31T13:45:09Z</time>
      </trkpt>
      <trkpt lat="49.8706" lon="2.02801">
        <ele>113.6</ele>
        <time>2023-05-31T13:45:10Z</time>
      </trkpt>
      <trkpt lat="49.87059" lon="2.02802">
        <ele>113.7</ele>
        <time>2023-05-31T13:45:12Z</time>
      </trkpt>
      <trkpt lat="49.87058" lon="2.02803">
        <ele>113.7</ele>
        <time>2023-05-31T13:45:13Z</time>
      </trkpt>
      <trkpt lat="49.87057" lon="2.02805">
        <ele>113.8</ele>
        <time>2023-05-31T13:45:14Z</time>
      </trkpt>
      <trkpt lat="49.87056" lon="2.02806">
        <ele>113.9</ele>
        <time>2023-05-31T13:45:15Z</time>
      </trkpt>
      <trkpt lat="49.87056" lon="2.02808">
        <ele>114</ele>
        <time>2023-05-31T13:45:17Z</time>
      </trkpt>
      <trkpt lat="49.87054" lon="2.02809">
        <ele>114</ele>
        <time>2023-05-31T13:45:18Z</time>
      </trkpt>
      <trkpt lat="49.87053" lon="2.0281">
        <ele>114.1</ele>
        <time>2023-05-31T13:45:19Z</time>
      </trkpt>
      <trkpt lat="49.87052" lon="2.02811">
        <ele>114.1</ele>
        <time>2023-05-31T13:45:20Z</time>
      </trkpt>
      <trkpt lat="49.87051" lon="2.02812">
        <ele>114.2</ele>
        <time>2023-05-31T13:45:21Z</time>
      </trkpt>
      <trkpt lat="49.8705" lon="2.02814">
        <ele>114.3</ele>
        <time>2023-05-31T13:45:23Z</time>
      </trkpt>
      <trkpt lat="49.87049" lon="2.02816">
        <ele>114.3</ele>
        <time>2023-05-31T13:45:24Z</time>
      </trkpt>
      <trkpt lat="49.87048" lon="2.02817">
        <ele>114.4</ele>
        <time>2023-05-31T13:45:25Z</time>
      </trkpt>
      <trkpt lat="49.87048" lon="2.02818">
        <ele>114.4</ele>
        <time>2023-05-31T13:45:26Z</time>
      </trkpt>
      <trkpt lat="49.87047" lon="2.02819">
        <ele>114.5</ele>
        <time>2023-05-31T13:45:27Z</time>
      </trkpt>
      <trkpt lat="49.87046" lon="2.02821">
        <ele>114.5</ele>
        <time>2023-05-31T13:45:29Z</time>
      </trkpt>
      <trkpt lat="49.87046" lon="2.02822">
        <ele>114.6</ele>
        <time>2023-05-31T13:45:30Z</time>
      </trkpt>
      <trkpt lat="49.87045" lon="2.02823">
        <ele>114.6</ele>
        <time>2023-05-31T13:45:31Z</time>
      </trkpt>
      <trkpt lat="49.87044" lon="2.02825">
        <ele>114.7</ele>
        <time>2023-05-31T13:45:32Z</time>
      </trkpt>
      <trkpt lat="49.87043" lon="2.02826">
        <ele>114.8</ele>
        <time>2023-05-31T13:45:33Z</time>
      </trkpt>
      <trkpt lat="49.87042" lon="2.02828">
        <ele>114.8</ele>
        <time>2023-05-31T13:45:34Z</time>
      </trkpt>
      <trkpt lat="49.87042" lon="2.0283">
        <ele>114.9</ele>
        <time>2023-05-31T13:45:35Z</time>
      </trkpt>
      <trkpt lat="49.87041" lon="2.02831">
        <ele>114.9</ele>
        <time>2023-05-31T13:45:36Z</time>
      </trkpt>
      <trkpt lat="49.87041" lon="2.02832">
        <ele>115</ele>
        <time>2023-05-31T13:45:38Z</time>
      </trkpt>
      <trkpt lat="49.8704" lon="2.02833">
        <ele>115</ele>
        <time>2023-05-31T13:45:39Z</time>
      </trkpt>
      <trkpt lat="49.87039" lon="2.02835">
        <ele>115.1</ele>
        <time>2023-05-31T13:45:40Z</time>
      </trkpt>
      <trkpt lat="49.87039" lon="2.02836">
        <ele>115.1</ele>
        <time>2023-05-31T13:45:41Z</time>
      </trkpt>
      <trkpt lat="49.87039" lon="2.02837">
        <ele>115.2</ele>
        <time>2023-05-31T13:45:42Z</time>
      </trkpt>
      <trkpt lat="49.87038" lon="2.02838">
        <ele>115.2</ele>
        <time>2023-05-31T13:45:43Z</time>
      </trkpt>
      <trkpt lat="49.87038" lon="2.02839">
        <ele>115.2</ele>
        <time>2023-05-31T13:45:44Z</time>
      </trkpt>
      <trkpt lat="49.87037" lon="2.0284">
        <ele>115.3</ele>
        <time>2023-05-31T13:45:45Z</time>
      </trkpt>
      <trkpt lat="49.87037" lon="2.02842">
        <ele>115.3</ele>
        <time>2023-05-31T13:45:47Z</time>
      </trkpt>
      <trkpt lat="49.87036" lon="2.02842">
        <ele>115.3</ele>
        <time>2023-05-31T13:45:48Z</time>
      </trkpt>
      <trkpt lat="49.87036" lon="2.02844">
        <ele>115.4</ele>
        <time>2023-05-31T13:45:49Z</time>
      </trkpt>
      <trkpt lat="49.87035" lon="2.02845">
        <ele>115.4</ele>
        <time>2023-05-31T13:45:50Z</time>
      </trkpt>
      <trkpt lat="49.87035" lon="2.02846">
        <ele>115.5</ele>
        <time>2023-05-31T13:45:51Z</time>
      </trkpt>
      <trkpt lat="49.87034" lon="2.02847">
        <ele>115.5</ele>
        <time>2023-05-31T13:45:53Z</time>
      </trkpt>
      <trkpt lat="49.87034" lon="2.02849">
        <ele>115.5</ele>
        <time>2023-05-31T13:45:54Z</time>
      </trkpt>
      <trkpt lat="49.87033" lon="2.0285">
        <ele>115.6</ele>
        <time>2023-05-31T13:45:55Z</time>
      </trkpt>
      <trkpt lat="49.87032" lon="2.02851">
        <ele>115.6</ele>
        <time>2023-05-31T13:45:56Z</time>
      </trkpt>
      <trkpt lat="49.87032" lon="2.02853">
        <ele>115.7</ele>
        <time>2023-05-31T13:45:57Z</time>
      </trkpt>
      <trkpt lat="49.87031" lon="2.02855">
        <ele>115.7</ele>
        <time>2023-05-31T13:45:58Z</time>
      </trkpt>
      <trkpt lat="49.87031" lon="2.02856">
        <ele>115.8</ele>
        <time>2023-05-31T13:46:00Z</time>
      </trkpt>
      <trkpt lat="49.87031" lon="2.02857">
        <ele>115.8</ele>
        <time>2023-05-31T13:46:01Z</time>
      </trkpt>
      <trkpt lat="49.8703" lon="2.02859">
        <ele>115.9</ele>
        <time>2023-05-31T13:46:02Z</time>
      </trkpt>
      <trkpt lat="49.8703" lon="2.02861">
        <ele>115.9</ele>
        <time>2023-05-31T13:46:03Z</time>
      </trkpt>
      <trkpt lat="49.87029" lon="2.02862">
        <ele>115.9</ele>
        <time>2023-05-31T13:46:04Z</time>
      </trkpt>
      <trkpt lat="49.87028" lon="2.02864">
        <ele>116</ele>
        <time>2023-05-31T13:46:06Z</time>
      </trkpt>
      <trkpt lat="49.87028" lon="2.02865">
        <ele>116</ele>
        <time>2023-05-31T13:46:07Z</time>
      </trkpt>
      <trkpt lat="49.87027" lon="2.02866">
        <ele>116.1</ele>
        <time>2023-05-31T13:46:08Z</time>
      </trkpt>
      <trkpt lat="49.87027" lon="2.02868">
        <ele>116.1</ele>
        <time>2023-05-31T13:46:09Z</time>
      </trkpt>
      <trkpt lat="49.87026" lon="2.0287">
        <ele>116.2</ele>
        <time>2023-05-31T13:46:10Z</time>
      </trkpt>
      <trkpt lat="49.87025" lon="2.02871">
        <ele>116.2</ele>
        <time>2023-05-31T13:46:11Z</time>
      </trkpt>
      <trkpt lat="49.87024" lon="2.02872">
        <ele>116.2</ele>
        <time>2023-05-31T13:46:12Z</time>
      </trkpt>
      <trkpt lat="49.87024" lon="2.02874">
        <ele>116.3</ele>
        <time>2023-05-31T13:46:13Z</time>
      </trkpt>
      <trkpt lat="49.87023" lon="2.02875">
        <ele>116.3</ele>
        <time>2023-05-31T13:46:14Z</time>
      </trkpt>
      <trkpt lat="49.87022" lon="2.02877">
        <ele>116.4</ele>
        <time>2023-05-31T13:46:15Z</time>
      </trkpt>
      <trkpt lat="49.87021" lon="2.02878">
        <ele>116.4</ele>
        <time>2023-05-31T13:46:17Z</time>
      </trkpt>
      <trkpt lat="49.8702" lon="2.0288">
        <ele>116.5</ele>
        <time>2023-05-31T13:46:18Z</time>
      </trkpt>
      <trkpt lat="49.87019" lon="2.02882">
        <ele>116.5</ele>
        <time>2023-05-31T13:46:19Z</time>
      </trkpt>
      <trkpt lat="49.87019" lon="2.02884">
        <ele>116.6</ele>
        <time>2023-05-31T13:46:20Z</time>
      </trkpt>
      <trkpt lat="49.87018" lon="2.02885">
        <ele>116.6</ele>
        <time>2023-05-31T13:46:21Z</time>
      </trkpt>
      <trkpt lat="49.87017" lon="2.02887">
        <ele>116.7</ele>
        <time>2023-05-31T13:46:22Z</time>
      </trkpt>
      <trkpt lat="49.87016" lon="2.02888">
        <ele>116.7</ele>
        <time>2023-05-31T13:46:24Z</time>
      </trkpt>
      <trkpt lat="49.87016" lon="2.02889">
        <ele>116.7</ele>
        <time>2023-05-31T13:46:25Z</time>
      </trkpt>
      <trkpt lat="49.87014" lon="2.02891">
        <ele>116.8</ele>
        <time>2023-05-31T13:46:26Z</time>
      </trkpt>
      <trkpt lat="49.87014" lon="2.02892">
        <ele>116.8</ele>
        <time>2023-05-31T13:46:27Z</time>
      </trkpt>
      <trkpt lat="49.87013" lon="2.02893">
        <ele>116.8</ele>
        <time>2023-05-31T13:46:28Z</time>
      </trkpt>
      <trkpt lat="49.87012" lon="2.02895">
        <ele>116.9</ele>
        <time>2023-05-31T13:46:29Z</time>
      </trkpt>
      <trkpt lat="49.87011" lon="2.02896">
        <ele>116.9</ele>
        <time>2023-05-31T13:46:30Z</time>
      </trkpt>
      <trkpt lat="49.8701" lon="2.02898">
        <ele>116.9</ele>
        <time>2023-05-31T13:46:32Z</time>
      </trkpt>
      <trkpt lat="49.87009" lon="2.02899">
        <ele>117</ele>
        <time>2023-05-31T13:46:33Z</time>
      </trkpt>
      <trkpt lat="49.87009" lon="2.02901">
        <ele>117</ele>
        <time>2023-05-31T13:46:34Z</time>
      </trkpt>
      <trkpt lat="49.87008" lon="2.02903">
        <ele>117</ele>
        <time>2023-05-31T13:46:35Z</time>
      </trkpt>
      <trkpt lat="49.87007" lon="2.02904">
        <ele>117.1</ele>
        <time>2023-05-31T13:46:36Z</time>
      </trkpt>
      <trkpt lat="49.87005" lon="2.02907">
        <ele>117.1</ele>
        <time>2023-05-31T13:46:37Z</time>
      </trkpt>
      <trkpt lat="49.87004" lon="2.02908">
        <ele>117.2</ele>
        <time>2023-05-31T13:46:39Z</time>
      </trkpt>
      <trkpt lat="49.87003" lon="2.02909">
        <ele>117.2</ele>
        <time>2023-05-31T13:46:40Z</time>
      </trkpt>
      <trkpt lat="49.87002" lon="2.0291">
        <ele>117.2</ele>
        <time>2023-05-31T13:46:41Z</time>
      </trkpt>
      <trkpt lat="49.87002" lon="2.02911">
        <ele>117.2</ele>
        <time>2023-05-31T13:46:42Z</time>
      </trkpt>
      <trkpt lat="49.87" lon="2.02913">
        <ele>117.2</ele>
        <time>2023-05-31T13:46:43Z</time>
      </trkpt>
      <trkpt lat="49.87" lon="2.02914">
        <ele>117.2</ele>
        <time>2023-05-31T13:46:44Z</time>
      </trkpt>
      <trkpt lat="49.86999" lon="2.02915">
        <ele>117.2</ele>
        <time>2023-05-31T13:46:45Z</time>
      </trkpt>
      <trkpt lat="49.86998" lon="2.02918">
        <ele>117.3</ele>
        <time>2023-05-31T13:46:46Z</time>
      </trkpt>
      <trkpt lat="49.86997" lon="2.02919">
        <ele>117.3</ele>
        <time>2023-05-31T13:46:48Z</time>
      </trkpt>
      <trkpt lat="49.86997" lon="2.0292">
        <ele>117.3</ele>
        <time>2023-05-31T13:46:49Z</time>
      </trkpt>
      <trkpt lat="49.86996" lon="2.02922">
        <ele>117.3</ele>
        <time>2023-05-31T13:46:50Z</time>
      </trkpt>
      <trkpt lat="49.86995" lon="2.02923">
        <ele>117.3</ele>
        <time>2023-05-31T13:46:51Z</time>
      </trkpt>
      <trkpt lat="49.86995" lon="2.02925">
        <ele>117.3</ele>
        <time>2023-05-31T13:46:52Z</time>
      </trkpt>
      <trkpt lat="49.86993" lon="2.02927">
        <ele>117.3</ele>
        <time>2023-05-31T13:46:53Z</time>
      </trkpt>
      <trkpt lat="49.86993" lon="2.02928">
        <ele>117.3</ele>
        <time>2023-05-31T13:46:54Z</time>
      </trkpt>
      <trkpt lat="49.86992" lon="2.0293">
        <ele>117.3</ele>
        <time>2023-05-31T13:46:56Z</time>
      </trkpt>
      <trkpt lat="49.86991" lon="2.02931">
        <ele>117.3</ele>
        <time>2023-05-31T13:46:57Z</time>
      </trkpt>
      <trkpt lat="49.86991" lon="2.02932">
        <ele>117.3</ele>
        <time>2023-05-31T13:46:58Z</time>
      </trkpt>
      <trkpt lat="49.8699" lon="2.02933">
        <ele>117.3</ele>
        <time>2023-05-31T13:46:59Z</time>
      </trkpt>
      <trkpt lat="49.86989" lon="2.02936">
        <ele>117.3</ele>
        <time>2023-05-31T13:47:00Z</time>
      </trkpt>
      <trkpt lat="49.86988" lon="2.02937">
        <ele>117.3</ele>
        <time>2023-05-31T13:47:01Z</time>
      </trkpt>
      <trkpt lat="49.86988" lon="2.02938">
        <ele>117.3</ele>
        <time>2023-05-31T13:47:02Z</time>
      </trkpt>
      <trkpt lat="49.86986" lon="2.02941">
        <ele>117.3</ele>
        <time>2023-05-31T13:47:03Z</time>
      </trkpt>
      <trkpt lat="49.86986" lon="2.02942">
        <ele>117.3</ele>
        <time>2023-05-31T13:47:05Z</time>
      </trkpt>
      <trkpt lat="49.86985" lon="2.02943">
        <ele>117.3</ele>
        <time>2023-05-31T13:47:06Z</time>
      </trkpt>
      <trkpt lat="49.86984" lon="2.02945">
        <ele>117.3</ele>
        <time>2023-05-31T13:47:07Z</time>
      </trkpt>
      <trkpt lat="49.86984" lon="2.02946">
        <ele>117.3</ele>
        <time>2023-05-31T13:47:08Z</time>
      </trkpt>
      <trkpt lat="49.86982" lon="2.0295">
        <ele>117.3</ele>
        <time>2023-05-31T13:47:10Z</time>
      </trkpt>
      <trkpt lat="49.86981" lon="2.02951">
        <ele>117.3</ele>
        <time>2023-05-31T13:47:11Z</time>
      </trkpt>
      <trkpt lat="49.8698" lon="2.02954">
        <ele>117.3</ele>
        <time>2023-05-31T13:47:12Z</time>
      </trkpt>
      <trkpt lat="49.8698" lon="2.02955">
        <ele>117.3</ele>
        <time>2023-05-31T13:47:14Z</time>
      </trkpt>
      <trkpt lat="49.86979" lon="2.02956">
        <ele>117.3</ele>
        <time>2023-05-31T13:47:15Z</time>
      </trkpt>
      <trkpt lat="49.86978" lon="2.02959">
        <ele>117.3</ele>
        <time>2023-05-31T13:47:16Z</time>
      </trkpt>
      <trkpt lat="49.86978" lon="2.0296">
        <ele>117.3</ele>
        <time>2023-05-31T13:47:17Z</time>
      </trkpt>
      <trkpt lat="49.86977" lon="2.02962">
        <ele>117.3</ele>
        <time>2023-05-31T13:47:19Z</time>
      </trkpt>
      <trkpt lat="49.86976" lon="2.02964">
        <ele>117.3</ele>
        <time>2023-05-31T13:47:20Z</time>
      </trkpt>
      <trkpt lat="49.86975" lon="2.02966">
        <ele>117.3</ele>
        <time>2023-05-31T13:47:21Z</time>
      </trkpt>
      <trkpt lat="49.86975" lon="2.02968">
        <ele>117.3</ele>
        <time>2023-05-31T13:47:22Z</time>
      </trkpt>
      <trkpt lat="49.86974" lon="2.0297">
        <ele>117.3</ele>
        <time>2023-05-31T13:47:24Z</time>
      </trkpt>
      <trkpt lat="49.86973" lon="2.02972">
        <ele>117.3</ele>
        <time>2023-05-31T13:47:25Z</time>
      </trkpt>
      <trkpt lat="49.86971" lon="2.02975">
        <ele>117.3</ele>
        <time>2023-05-31T13:47:26Z</time>
      </trkpt>
      <trkpt lat="49.86971" lon="2.02976">
        <ele>117.4</ele>
        <time>2023-05-31T13:47:27Z</time>
      </trkpt>
      <trkpt lat="49.8697" lon="2.02977">
        <ele>117.4</ele>
        <time>2023-05-31T13:47:28Z</time>
      </trkpt>
      <trkpt lat="49.86969" lon="2.02978">
        <ele>117.4</ele>
        <time>2023-05-31T13:47:29Z</time>
      </trkpt>
      <trkpt lat="49.86968" lon="2.0298">
        <ele>117.4</ele>
        <time>2023-05-31T13:47:31Z</time>
      </trkpt>
      <trkpt lat="49.86968" lon="2.02982">
        <ele>117.4</ele>
        <time>2023-05-31T13:47:32Z</time>
      </trkpt>
      <trkpt lat="49.86966" lon="2.02983">
        <ele>117.4</ele>
        <time>2023-05-31T13:47:33Z</time>
      </trkpt>
      <trkpt lat="49.86965" lon="2.02985">
        <ele>117.4</ele>
        <time>2023-05-31T13:47:34Z</time>
      </trkpt>
      <trkpt lat="49.86964" lon="2.02987">
        <ele>117.4</ele>
        <time>2023-05-31T13:47:35Z</time>
      </trkpt>
      <trkpt lat="49.86963" lon="2.02988">
        <ele>117.4</ele>
        <time>2023-05-31T13:47:36Z</time>
      </trkpt>
      <trkpt lat="49.86962" lon="2.0299">
        <ele>117.4</ele>
        <time>2023-05-31T13:47:37Z</time>
      </trkpt>
      <trkpt lat="49.86961" lon="2.02991">
        <ele>117.4</ele>
        <time>2023-05-31T13:47:38Z</time>
      </trkpt>
      <trkpt lat="49.8696" lon="2.02993">
        <ele>117.4</ele>
        <time>2023-05-31T13:47:39Z</time>
      </trkpt>
      <trkpt lat="49.86959" lon="2.02994">
        <ele>117.4</ele>
        <time>2023-05-31T13:47:41Z</time>
      </trkpt>
      <trkpt lat="49.86958" lon="2.02996">
        <ele>117.5</ele>
        <time>2023-05-31T13:47:42Z</time>
      </trkpt>
      <trkpt lat="49.86957" lon="2.02997">
        <ele>117.5</ele>
        <time>2023-05-31T13:47:43Z</time>
      </trkpt>
      <trkpt lat="49.86957" lon="2.02998">
        <ele>117.5</ele>
        <time>2023-05-31T13:47:44Z</time>
      </trkpt>
      <trkpt lat="49.86955" lon="2.03">
        <ele>117.5</ele>
        <time>2023-05-31T13:47:45Z</time>
      </trkpt>
      <trkpt lat="49.86955" lon="2.03001">
        <ele>117.5</ele>
        <time>2023-05-31T13:47:46Z</time>
      </trkpt>
      <trkpt lat="49.86954" lon="2.03002">
        <ele>117.5</ele>
        <time>2023-05-31T13:47:47Z</time>
      </trkpt>
      <trkpt lat="49.86953" lon="2.03003">
        <ele>117.5</ele>
        <time>2023-05-31T13:47:48Z</time>
      </trkpt>
      <trkpt lat="49.86952" lon="2.03004">
        <ele>117.5</ele>
        <time>2023-05-31T13:47:49Z</time>
      </trkpt>
      <trkpt lat="49.86952" lon="2.03006">
        <ele>117.5</ele>
        <time>2023-05-31T13:47:51Z</time>
      </trkpt>
      <trkpt lat="49.86951" lon="2.03008">
        <ele>117.5</ele>
        <time>2023-05-31T13:47:52Z</time>
      </trkpt>
      <trkpt lat="49.8695" lon="2.03009">
        <ele>117.5</ele>
        <time>2023-05-31T13:47:53Z</time>
      </trkpt>
      <trkpt lat="49.86949" lon="2.0301">
        <ele>117.5</ele>
        <time>2023-05-31T13:47:54Z</time>
      </trkpt>
      <trkpt lat="49.86948" lon="2.03013">
        <ele>117.5</ele>
        <time>2023-05-31T13:47:55Z</time>
      </trkpt>
      <trkpt lat="49.86947" lon="2.03014">
        <ele>117.5</ele>
        <time>2023-05-31T13:47:56Z</time>
      </trkpt>
      <trkpt lat="49.86947" lon="2.03015">
        <ele>117.5</ele>
        <time>2023-05-31T13:47:57Z</time>
      </trkpt>
      <trkpt lat="49.86946" lon="2.03017">
        <ele>117.5</ele>
        <time>2023-05-31T13:47:59Z</time>
      </trkpt>
      <trkpt lat="49.86945" lon="2.03018">
        <ele>117.5</ele>
        <time>2023-05-31T13:48:00Z</time>
      </trkpt>
      <trkpt lat="49.86945" lon="2.03019">
        <ele>117.6</ele>
        <time>2023-05-31T13:48:01Z</time>
      </trkpt>
      <trkpt lat="49.86944" lon="2.03022">
        <ele>117.6</ele>
        <time>2023-05-31T13:48:02Z</time>
      </trkpt>
      <trkpt lat="49.86943" lon="2.03023">
        <ele>117.6</ele>
        <time>2023-05-31T13:48:03Z</time>
      </trkpt>
      <trkpt lat="49.86943" lon="2.03024">
        <ele>117.6</ele>
        <time>2023-05-31T13:48:04Z</time>
      </trkpt>
      <trkpt lat="49.86942" lon="2.03027">
        <ele>117.6</ele>
        <time>2023-05-31T13:48:05Z</time>
      </trkpt>
      <trkpt lat="49.86941" lon="2.03028">
        <ele>117.6</ele>
        <time>2023-05-31T13:48:06Z</time>
      </trkpt>
      <trkpt lat="49.86941" lon="2.03029">
        <ele>117.6</ele>
        <time>2023-05-31T13:48:07Z</time>
      </trkpt>
      <trkpt lat="49.86939" lon="2.03032">
        <ele>117.6</ele>
        <time>2023-05-31T13:48:09Z</time>
      </trkpt>
      <trkpt lat="49.86939" lon="2.03033">
        <ele>117.6</ele>
        <time>2023-05-31T13:48:10Z</time>
      </trkpt>
      <trkpt lat="49.86938" lon="2.03034">
        <ele>117.6</ele>
        <time>2023-05-31T13:48:11Z</time>
      </trkpt>
      <trkpt lat="49.86937" lon="2.03035">
        <ele>117.6</ele>
        <time>2023-05-31T13:48:12Z</time>
      </trkpt>
      <trkpt lat="49.86937" lon="2.03037">
        <ele>117.6</ele>
        <time>2023-05-31T13:48:13Z</time>
      </trkpt>
      <trkpt lat="49.86936" lon="2.03038">
        <ele>117.6</ele>
        <time>2023-05-31T13:48:15Z</time>
      </trkpt>
      <trkpt lat="49.86934" lon="2.03041">
        <ele>117.6</ele>
        <time>2023-05-31T13:48:16Z</time>
      </trkpt>
      <trkpt lat="49.86934" lon="2.03042">
        <ele>117.6</ele>
        <time>2023-05-31T13:48:17Z</time>
      </trkpt>
      <trkpt lat="49.86933" lon="2.03043">
        <ele>117.6</ele>
        <time>2023-05-31T13:48:18Z</time>
      </trkpt>
      <trkpt lat="49.86932" lon="2.03046">
        <ele>117.6</ele>
        <time>2023-05-31T13:48:19Z</time>
      </trkpt>
      <trkpt lat="49.86932" lon="2.03047">
        <ele>117.6</ele>
        <time>2023-05-31T13:48:20Z</time>
      </trkpt>
      <trkpt lat="49.86931" lon="2.03048">
        <ele>117.6</ele>
        <time>2023-05-31T13:48:21Z</time>
      </trkpt>
      <trkpt lat="49.86931" lon="2.0305">
        <ele>117.7</ele>
        <time>2023-05-31T13:48:22Z</time>
      </trkpt>
      <trkpt lat="49.8693" lon="2.03052">
        <ele>117.7</ele>
        <time>2023-05-31T13:48:24Z</time>
      </trkpt>
      <trkpt lat="49.8693" lon="2.03053">
        <ele>117.7</ele>
        <time>2023-05-31T13:48:25Z</time>
      </trkpt>
      <trkpt lat="49.86929" lon="2.03055">
        <ele>117.7</ele>
        <time>2023-05-31T13:48:26Z</time>
      </trkpt>
      <trkpt lat="49.86929" lon="2.03056">
        <ele>117.7</ele>
        <time>2023-05-31T13:48:27Z</time>
      </trkpt>
      <trkpt lat="49.86928" lon="2.03058">
        <ele>117.7</ele>
        <time>2023-05-31T13:48:28Z</time>
      </trkpt>
      <trkpt lat="49.86926" lon="2.03062">
        <ele>117.7</ele>
        <time>2023-05-31T13:48:30Z</time>
      </trkpt>
      <trkpt lat="49.86926" lon="2.03063">
        <ele>117.7</ele>
        <time>2023-05-31T13:48:31Z</time>
      </trkpt>
      <trkpt lat="49.86924" lon="2.03066">
        <ele>117.7</ele>
        <time>2023-05-31T13:48:32Z</time>
      </trkpt>
      <trkpt lat="49.86924" lon="2.03067">
        <ele>117.7</ele>
        <time>2023-05-31T13:48:34Z</time>
      </trkpt>
      <trkpt lat="49.86923" lon="2.03068">
        <ele>117.7</ele>
        <time>2023-05-31T13:48:35Z</time>
      </trkpt>
      <trkpt lat="49.86922" lon="2.03069">
        <ele>117.8</ele>
        <time>2023-05-31T13:48:36Z</time>
      </trkpt>
      <trkpt lat="49.86921" lon="2.03071">
        <ele>117.8</ele>
        <time>2023-05-31T13:48:37Z</time>
      </trkpt>
      <trkpt lat="49.8692" lon="2.03075">
        <ele>117.8</ele>
        <time>2023-05-31T13:48:38Z</time>
      </trkpt>
      <trkpt lat="49.86919" lon="2.03077">
        <ele>117.8</ele>
        <time>2023-05-31T13:48:40Z</time>
      </trkpt>
      <trkpt lat="49.86918" lon="2.03078">
        <ele>117.8</ele>
        <time>2023-05-31T13:48:42Z</time>
      </trkpt>
      <trkpt lat="49.86917" lon="2.0308">
        <ele>117.8</ele>
        <time>2023-05-31T13:48:43Z</time>
      </trkpt>
      <trkpt lat="49.86917" lon="2.03082">
        <ele>117.8</ele>
        <time>2023-05-31T13:48:44Z</time>
      </trkpt>
      <trkpt lat="49.86916" lon="2.03084">
        <ele>117.8</ele>
        <time>2023-05-31T13:48:45Z</time>
      </trkpt>
      <trkpt lat="49.86915" lon="2.03087">
        <ele>117.8</ele>
        <time>2023-05-31T13:48:46Z</time>
      </trkpt>
      <trkpt lat="49.86915" lon="2.03088">
        <ele>117.8</ele>
        <time>2023-05-31T13:48:47Z</time>
      </trkpt>
      <trkpt lat="49.86914" lon="2.03089">
        <ele>117.8</ele>
        <time>2023-05-31T13:48:48Z</time>
      </trkpt>
      <trkpt lat="49.86914" lon="2.03092">
        <ele>117.8</ele>
        <time>2023-05-31T13:48:49Z</time>
      </trkpt>
      <trkpt lat="49.86913" lon="2.03093">
        <ele>117.8</ele>
        <time>2023-05-31T13:48:50Z</time>
      </trkpt>
      <trkpt lat="49.86913" lon="2.03095">
        <ele>117.9</ele>
        <time>2023-05-31T13:48:51Z</time>
      </trkpt>
      <trkpt lat="49.86912" lon="2.03097">
        <ele>117.9</ele>
        <time>2023-05-31T13:48:53Z</time>
      </trkpt>
      <trkpt lat="49.86911" lon="2.03098">
        <ele>117.9</ele>
        <time>2023-05-31T13:48:54Z</time>
      </trkpt>
      <trkpt lat="49.86911" lon="2.03099">
        <ele>117.9</ele>
        <time>2023-05-31T13:48:55Z</time>
      </trkpt>
      <trkpt lat="49.8691" lon="2.03102">
        <ele>117.9</ele>
        <time>2023-05-31T13:48:56Z</time>
      </trkpt>
      <trkpt lat="49.8691" lon="2.03103">
        <ele>117.9</ele>
        <time>2023-05-31T13:48:57Z</time>
      </trkpt>
      <trkpt lat="49.86909" lon="2.03105">
        <ele>117.9</ele>
        <time>2023-05-31T13:48:58Z</time>
      </trkpt>
      <trkpt lat="49.86909" lon="2.03106">
        <ele>117.9</ele>
        <time>2023-05-31T13:48:59Z</time>
      </trkpt>
      <trkpt lat="49.86908" lon="2.03108">
        <ele>117.9</ele>
        <time>2023-05-31T13:49:00Z</time>
      </trkpt>
      <trkpt lat="49.86908" lon="2.0311">
        <ele>117.9</ele>
        <time>2023-05-31T13:49:02Z</time>
      </trkpt>
      <trkpt lat="49.86906" lon="2.03113">
        <ele>117.9</ele>
        <time>2023-05-31T13:49:03Z</time>
      </trkpt>
      <trkpt lat="49.86906" lon="2.03114">
        <ele>117.9</ele>
        <time>2023-05-31T13:49:04Z</time>
      </trkpt>
      <trkpt lat="49.86905" lon="2.03115">
        <ele>117.9</ele>
        <time>2023-05-31T13:49:05Z</time>
      </trkpt>
      <trkpt lat="49.86904" lon="2.03118">
        <ele>117.9</ele>
        <time>2023-05-31T13:49:06Z</time>
      </trkpt>
      <trkpt lat="49.86904" lon="2.03119">
        <ele>117.9</ele>
        <time>2023-05-31T13:49:07Z</time>
      </trkpt>
      <trkpt lat="49.86903" lon="2.0312">
        <ele>117.9</ele>
        <time>2023-05-31T13:49:08Z</time>
      </trkpt>
      <trkpt lat="49.86902" lon="2.03123">
        <ele>117.9</ele>
        <time>2023-05-31T13:49:09Z</time>
      </trkpt>
      <trkpt lat="49.86901" lon="2.03124">
        <ele>117.9</ele>
        <time>2023-05-31T13:49:11Z</time>
      </trkpt>
      <trkpt lat="49.86901" lon="2.03125">
        <ele>117.8</ele>
        <time>2023-05-31T13:49:12Z</time>
      </trkpt>
      <trkpt lat="49.869" lon="2.03128">
        <ele>117.8</ele>
        <time>2023-05-31T13:49:13Z</time>
      </trkpt>
      <trkpt lat="49.86899" lon="2.03129">
        <ele>117.8</ele>
        <time>2023-05-31T13:49:14Z</time>
      </trkpt>
      <trkpt lat="49.86899" lon="2.0313">
        <ele>117.8</ele>
        <time>2023-05-31T13:49:15Z</time>
      </trkpt>
      <trkpt lat="49.86898" lon="2.03133">
        <ele>117.8</ele>
        <time>2023-05-31T13:49:16Z</time>
      </trkpt>
      <trkpt lat="49.86898" lon="2.03134">
        <ele>117.8</ele>
        <time>2023-05-31T13:49:17Z</time>
      </trkpt>
      <trkpt lat="49.86897" lon="2.03135">
        <ele>117.8</ele>
        <time>2023-05-31T13:49:18Z</time>
      </trkpt>
      <trkpt lat="49.86896" lon="2.03137">
        <ele>117.8</ele>
        <time>2023-05-31T13:49:19Z</time>
      </trkpt>
      <trkpt lat="49.86896" lon="2.03139">
        <ele>117.8</ele>
        <time>2023-05-31T13:49:20Z</time>
      </trkpt>
      <trkpt lat="49.86895" lon="2.03141">
        <ele>117.8</ele>
        <time>2023-05-31T13:49:22Z</time>
      </trkpt>
      <trkpt lat="49.86894" lon="2.03142">
        <ele>117.8</ele>
        <time>2023-05-31T13:49:23Z</time>
      </trkpt>
      <trkpt lat="49.86894" lon="2.03144">
        <ele>117.7</ele>
        <time>2023-05-31T13:49:24Z</time>
      </trkpt>
      <trkpt lat="49.86893" lon="2.03147">
        <ele>117.7</ele>
        <time>2023-05-31T13:49:26Z</time>
      </trkpt>
      <trkpt lat="49.86893" lon="2.0315">
        <ele>117.7</ele>
        <time>2023-05-31T13:49:27Z</time>
      </trkpt>
      <trkpt lat="49.86892" lon="2.03152">
        <ele>117.7</ele>
        <time>2023-05-31T13:49:28Z</time>
      </trkpt>
      <trkpt lat="49.86892" lon="2.03154">
        <ele>117.7</ele>
        <time>2023-05-31T13:49:29Z</time>
      </trkpt>
      <trkpt lat="49.86891" lon="2.03156">
        <ele>117.6</ele>
        <time>2023-05-31T13:49:30Z</time>
      </trkpt>
      <trkpt lat="49.8689" lon="2.0316">
        <ele>117.6</ele>
        <time>2023-05-31T13:49:31Z</time>
      </trkpt>
      <trkpt lat="49.8689" lon="2.03162">
        <ele>117.6</ele>
        <time>2023-05-31T13:49:33Z</time>
      </trkpt>
      <trkpt lat="49.8689" lon="2.03163">
        <ele>117.6</ele>
        <time>2023-05-31T13:49:34Z</time>
      </trkpt>
      <trkpt lat="49.86889" lon="2.03165">
        <ele>117.6</ele>
        <time>2023-05-31T13:49:35Z</time>
      </trkpt>
      <trkpt lat="49.86889" lon="2.03167">
        <ele>117.6</ele>
        <time>2023-05-31T13:49:36Z</time>
      </trkpt>
      <trkpt lat="49.86889" lon="2.03169">
        <ele>117.5</ele>
        <time>2023-05-31T13:49:37Z</time>
      </trkpt>
      <trkpt lat="49.86888" lon="2.03171">
        <ele>117.5</ele>
        <time>2023-05-31T13:49:38Z</time>
      </trkpt>
      <trkpt lat="49.86888" lon="2.03173">
        <ele>117.5</ele>
        <time>2023-05-31T13:49:39Z</time>
      </trkpt>
      <trkpt lat="49.86887" lon="2.03176">
        <ele>117.5</ele>
        <time>2023-05-31T13:49:40Z</time>
      </trkpt>
      <trkpt lat="49.86887" lon="2.03178">
        <ele>117.5</ele>
        <time>2023-05-31T13:49:42Z</time>
      </trkpt>
      <trkpt lat="49.86887" lon="2.0318">
        <ele>117.4</ele>
        <time>2023-05-31T13:49:43Z</time>
      </trkpt>
      <trkpt lat="49.86887" lon="2.03182">
        <ele>117.4</ele>
        <time>2023-05-31T13:49:44Z</time>
      </trkpt>
      <trkpt lat="49.86887" lon="2.03184">
        <ele>117.4</ele>
        <time>2023-05-31T13:49:45Z</time>
      </trkpt>
      <trkpt lat="49.86887" lon="2.03186">
        <ele>117.4</ele>
        <time>2023-05-31T13:49:47Z</time>
      </trkpt>
      <trkpt lat="49.86886" lon="2.03188">
        <ele>117.4</ele>
        <time>2023-05-31T13:49:48Z</time>
      </trkpt>
      <trkpt lat="49.86886" lon="2.0319">
        <ele>117.4</ele>
        <time>2023-05-31T13:49:49Z</time>
      </trkpt>
      <trkpt lat="49.86886" lon="2.03191">
        <ele>117.3</ele>
        <time>2023-05-31T13:49:50Z</time>
      </trkpt>
      <trkpt lat="49.86886" lon="2.03193">
        <ele>117.3</ele>
        <time>2023-05-31T13:49:51Z</time>
      </trkpt>
      <trkpt lat="49.86886" lon="2.03195">
        <ele>117.3</ele>
        <time>2023-05-31T13:49:52Z</time>
      </trkpt>
      <trkpt lat="49.86885" lon="2.03198">
        <ele>117.3</ele>
        <time>2023-05-31T13:49:54Z</time>
      </trkpt>
      <trkpt lat="49.86885" lon="2.03201">
        <ele>117.3</ele>
        <time>2023-05-31T13:49:55Z</time>
      </trkpt>
      <trkpt lat="49.86885" lon="2.03202">
        <ele>117.3</ele>
        <time>2023-05-31T13:49:56Z</time>
      </trkpt>
      <trkpt lat="49.86885" lon="2.03204">
        <ele>117.3</ele>
        <time>2023-05-31T13:49:57Z</time>
      </trkpt>
      <trkpt lat="49.86885" lon="2.03206">
        <ele>117.3</ele>
        <time>2023-05-31T13:49:58Z</time>
      </trkpt>
      <trkpt lat="49.86885" lon="2.03207">
        <ele>117.3</ele>
        <time>2023-05-31T13:49:59Z</time>
      </trkpt>
      <trkpt lat="49.86884" lon="2.03209">
        <ele>117.3</ele>
        <time>2023-05-31T13:50:00Z</time>
      </trkpt>
      <trkpt lat="49.86884" lon="2.03212">
        <ele>117.3</ele>
        <time>2023-05-31T13:50:01Z</time>
      </trkpt>
      <trkpt lat="49.86884" lon="2.03214">
        <ele>117.3</ele>
        <time>2023-05-31T13:50:03Z</time>
      </trkpt>
      <trkpt lat="49.86883" lon="2.03215">
        <ele>117.3</ele>
        <time>2023-05-31T13:50:04Z</time>
      </trkpt>
      <trkpt lat="49.86883" lon="2.03217">
        <ele>117.3</ele>
        <time>2023-05-31T13:50:05Z</time>
      </trkpt>
      <trkpt lat="49.86882" lon="2.03219">
        <ele>117.3</ele>
        <time>2023-05-31T13:50:06Z</time>
      </trkpt>
      <trkpt lat="49.86881" lon="2.03222">
        <ele>117.3</ele>
        <time>2023-05-31T13:50:07Z</time>
      </trkpt>
      <trkpt lat="49.86881" lon="2.03223">
        <ele>117.3</ele>
        <time>2023-05-31T13:50:08Z</time>
      </trkpt>
      <trkpt lat="49.8688" lon="2.03224">
        <ele>117.3</ele>
        <time>2023-05-31T13:50:09Z</time>
      </trkpt>
      <trkpt lat="49.8688" lon="2.03226">
        <ele>117.3</ele>
        <time>2023-05-31T13:50:10Z</time>
      </trkpt>
      <trkpt lat="49.86879" lon="2.03228">
        <ele>117.3</ele>
        <time>2023-05-31T13:50:11Z</time>
      </trkpt>
      <trkpt lat="49.86879" lon="2.03231">
        <ele>117.3</ele>
        <time>2023-05-31T13:50:13Z</time>
      </trkpt>
      <trkpt lat="49.86878" lon="2.03232">
        <ele>117.3</ele>
        <time>2023-05-31T13:50:14Z</time>
      </trkpt>
      <trkpt lat="49.86878" lon="2.03234">
        <ele>117.3</ele>
        <time>2023-05-31T13:50:15Z</time>
      </trkpt>
      <trkpt lat="49.86877" lon="2.03236">
        <ele>117.3</ele>
        <time>2023-05-31T13:50:16Z</time>
      </trkpt>
      <trkpt lat="49.86876" lon="2.03238">
        <ele>117.3</ele>
        <time>2023-05-31T13:50:17Z</time>
      </trkpt>
      <trkpt lat="49.86876" lon="2.0324">
        <ele>117.3</ele>
        <time>2023-05-31T13:50:18Z</time>
      </trkpt>
      <trkpt lat="49.86876" lon="2.03242">
        <ele>117.3</ele>
        <time>2023-05-31T13:50:19Z</time>
      </trkpt>
      <trkpt lat="49.86875" lon="2.03243">
        <ele>117.3</ele>
        <time>2023-05-31T13:50:20Z</time>
      </trkpt>
      <trkpt lat="49.86875" lon="2.03245">
        <ele>117.3</ele>
        <time>2023-05-31T13:50:21Z</time>
      </trkpt>
      <trkpt lat="49.86874" lon="2.03247">
        <ele>117.3</ele>
        <time>2023-05-31T13:50:23Z</time>
      </trkpt>
      <trkpt lat="49.86874" lon="2.03248">
        <ele>117.3</ele>
        <time>2023-05-31T13:50:24Z</time>
      </trkpt>
      <trkpt lat="49.86873" lon="2.0325">
        <ele>117.3</ele>
        <time>2023-05-31T13:50:25Z</time>
      </trkpt>
      <trkpt lat="49.86873" lon="2.03253">
        <ele>117.3</ele>
        <time>2023-05-31T13:50:26Z</time>
      </trkpt>
      <trkpt lat="49.86873" lon="2.03254">
        <ele>117.3</ele>
        <time>2023-05-31T13:50:27Z</time>
      </trkpt>
      <trkpt lat="49.86872" lon="2.03255">
        <ele>117.3</ele>
        <time>2023-05-31T13:50:28Z</time>
      </trkpt>
      <trkpt lat="49.86872" lon="2.03257">
        <ele>117.3</ele>
        <time>2023-05-31T13:50:30Z</time>
      </trkpt>
      <trkpt lat="49.86872" lon="2.03259">
        <ele>117.3</ele>
        <time>2023-05-31T13:50:31Z</time>
      </trkpt>
      <trkpt lat="49.86871" lon="2.0326">
        <ele>117.3</ele>
        <time>2023-05-31T13:50:32Z</time>
      </trkpt>
      <trkpt lat="49.86871" lon="2.03263">
        <ele>117.4</ele>
        <time>2023-05-31T13:50:33Z</time>
      </trkpt>
      <trkpt lat="49.86871" lon="2.03264">
        <ele>117.4</ele>
        <time>2023-05-31T13:50:34Z</time>
      </trkpt>
      <trkpt lat="49.8687" lon="2.03267">
        <ele>117.4</ele>
        <time>2023-05-31T13:50:35Z</time>
      </trkpt>
      <trkpt lat="49.8687" lon="2.03268">
        <ele>117.4</ele>
        <time>2023-05-31T13:50:36Z</time>
      </trkpt>
      <trkpt lat="49.8687" lon="2.0327">
        <ele>117.4</ele>
        <time>2023-05-31T13:50:38Z</time>
      </trkpt>
      <trkpt lat="49.8687" lon="2.03274">
        <ele>117.4</ele>
        <time>2023-05-31T13:50:39Z</time>
      </trkpt>
      <trkpt lat="49.86869" lon="2.03275">
        <ele>117.4</ele>
        <time>2023-05-31T13:50:40Z</time>
      </trkpt>
      <trkpt lat="49.86869" lon="2.03276">
        <ele>117.4</ele>
        <time>2023-05-31T13:50:41Z</time>
      </trkpt>
      <trkpt lat="49.86869" lon="2.03278">
        <ele>117.4</ele>
        <time>2023-05-31T13:50:42Z</time>
      </trkpt>
      <trkpt lat="49.86868" lon="2.03282">
        <ele>117.4</ele>
        <time>2023-05-31T13:50:44Z</time>
      </trkpt>
      <trkpt lat="49.86868" lon="2.03284">
        <ele>117.4</ele>
        <time>2023-05-31T13:50:45Z</time>
      </trkpt>
      <trkpt lat="49.86868" lon="2.03286">
        <ele>117.4</ele>
        <time>2023-05-31T13:50:47Z</time>
      </trkpt>
      <trkpt lat="49.86868" lon="2.03288">
        <ele>117.4</ele>
        <time>2023-05-31T13:50:48Z</time>
      </trkpt>
      <trkpt lat="49.86867" lon="2.03289">
        <ele>117.4</ele>
        <time>2023-05-31T13:50:49Z</time>
      </trkpt>
      <trkpt lat="49.86867" lon="2.03291">
        <ele>117.4</ele>
        <time>2023-05-31T13:50:50Z</time>
      </trkpt>
      <trkpt lat="49.86866" lon="2.03294">
        <ele>117.4</ele>
        <time>2023-05-31T13:50:52Z</time>
      </trkpt>
      <trkpt lat="49.86866" lon="2.03295">
        <ele>117.4</ele>
        <time>2023-05-31T13:50:53Z</time>
      </trkpt>
      <trkpt lat="49.86865" lon="2.03297">
        <ele>117.4</ele>
        <time>2023-05-31T13:50:54Z</time>
      </trkpt>
      <trkpt lat="49.86865" lon="2.03298">
        <ele>117.4</ele>
        <time>2023-05-31T13:50:55Z</time>
      </trkpt>
      <trkpt lat="49.86864" lon="2.033">
        <ele>117.4</ele>
        <time>2023-05-31T13:50:56Z</time>
      </trkpt>
      <trkpt lat="49.86864" lon="2.03303">
        <ele>117.4</ele>
        <time>2023-05-31T13:50:57Z</time>
      </trkpt>
      <trkpt lat="49.86864" lon="2.03304">
        <ele>117.4</ele>
        <time>2023-05-31T13:50:58Z</time>
      </trkpt>
      <trkpt lat="49.86863" lon="2.03305">
        <ele>117.5</ele>
        <time>2023-05-31T13:50:59Z</time>
      </trkpt>
      <trkpt lat="49.86863" lon="2.03307">
        <ele>117.5</ele>
        <time>2023-05-31T13:51:00Z</time>
      </trkpt>
      <trkpt lat="49.86862" lon="2.03309">
        <ele>117.5</ele>
        <time>2023-05-31T13:51:01Z</time>
      </trkpt>
      <trkpt lat="49.86862" lon="2.03311">
        <ele>117.5</ele>
        <time>2023-05-31T13:51:03Z</time>
      </trkpt>
      <trkpt lat="49.86862" lon="2.03313">
        <ele>117.5</ele>
        <time>2023-05-31T13:51:04Z</time>
      </trkpt>
      <trkpt lat="49.86861" lon="2.03314">
        <ele>117.5</ele>
        <time>2023-05-31T13:51:05Z</time>
      </trkpt>
      <trkpt lat="49.86861" lon="2.03316">
        <ele>117.5</ele>
        <time>2023-05-31T13:51:06Z</time>
      </trkpt>
      <trkpt lat="49.8686" lon="2.03318">
        <ele>117.5</ele>
        <time>2023-05-31T13:51:07Z</time>
      </trkpt>
      <trkpt lat="49.8686" lon="2.0332">
        <ele>117.5</ele>
        <time>2023-05-31T13:51:08Z</time>
      </trkpt>
      <trkpt lat="49.8686" lon="2.03321">
        <ele>117.5</ele>
        <time>2023-05-31T13:51:09Z</time>
      </trkpt>
      <trkpt lat="49.86859" lon="2.03325">
        <ele>117.5</ele>
        <time>2023-05-31T13:51:10Z</time>
      </trkpt>
      <trkpt lat="49.86859" lon="2.03326">
        <ele>117.5</ele>
        <time>2023-05-31T13:51:12Z</time>
      </trkpt>
      <trkpt lat="49.86858" lon="2.03328">
        <ele>117.5</ele>
        <time>2023-05-31T13:51:13Z</time>
      </trkpt>
      <trkpt lat="49.86858" lon="2.03329">
        <ele>117.6</ele>
        <time>2023-05-31T13:51:14Z</time>
      </trkpt>
      <trkpt lat="49.86857" lon="2.03331">
        <ele>117.6</ele>
        <time>2023-05-31T13:51:15Z</time>
      </trkpt>
      <trkpt lat="49.86856" lon="2.03333">
        <ele>117.6</ele>
        <time>2023-05-31T13:51:17Z</time>
      </trkpt>
      <trkpt lat="49.86856" lon="2.03335">
        <ele>117.6</ele>
        <time>2023-05-31T13:51:18Z</time>
      </trkpt>
      <trkpt lat="49.86855" lon="2.03338">
        <ele>117.6</ele>
        <time>2023-05-31T13:51:19Z</time>
      </trkpt>
      <trkpt lat="49.86854" lon="2.03339">
        <ele>117.6</ele>
        <time>2023-05-31T13:51:20Z</time>
      </trkpt>
      <trkpt lat="49.86854" lon="2.0334">
        <ele>117.6</ele>
        <time>2023-05-31T13:51:21Z</time>
      </trkpt>
      <trkpt lat="49.86853" lon="2.03342">
        <ele>117.6</ele>
        <time>2023-05-31T13:51:22Z</time>
      </trkpt>
      <trkpt lat="49.86852" lon="2.03344">
        <ele>117.6</ele>
        <time>2023-05-31T13:51:23Z</time>
      </trkpt>
      <trkpt lat="49.86851" lon="2.03346">
        <ele>117.6</ele>
        <time>2023-05-31T13:51:24Z</time>
      </trkpt>
      <trkpt lat="49.86851" lon="2.03347">
        <ele>117.6</ele>
        <time>2023-05-31T13:51:25Z</time>
      </trkpt>
      <trkpt lat="49.8685" lon="2.03349">
        <ele>117.6</ele>
        <time>2023-05-31T13:51:26Z</time>
      </trkpt>
      <trkpt lat="49.86849" lon="2.03351">
        <ele>117.6</ele>
        <time>2023-05-31T13:51:27Z</time>
      </trkpt>
      <trkpt lat="49.86848" lon="2.03353">
        <ele>117.6</ele>
        <time>2023-05-31T13:51:29Z</time>
      </trkpt>
      <trkpt lat="49.86847" lon="2.03356">
        <ele>117.6</ele>
        <time>2023-05-31T13:51:30Z</time>
      </trkpt>
      <trkpt lat="49.86846" lon="2.03357">
        <ele>117.5</ele>
        <time>2023-05-31T13:51:31Z</time>
      </trkpt>
      <trkpt lat="49.86845" lon="2.03359">
        <ele>117.5</ele>
        <time>2023-05-31T13:51:32Z</time>
      </trkpt>
      <trkpt lat="49.86844" lon="2.03361">
        <ele>117.5</ele>
        <time>2023-05-31T13:51:34Z</time>
      </trkpt>
      <trkpt lat="49.86844" lon="2.03364">
        <ele>117.5</ele>
        <time>2023-05-31T13:51:35Z</time>
      </trkpt>
      <trkpt lat="49.86843" lon="2.03366">
        <ele>117.5</ele>
        <time>2023-05-31T13:51:36Z</time>
      </trkpt>
      <trkpt lat="49.86842" lon="2.03367">
        <ele>117.5</ele>
        <time>2023-05-31T13:51:37Z</time>
      </trkpt>
      <trkpt lat="49.86841" lon="2.03369">
        <ele>117.5</ele>
        <time>2023-05-31T13:51:38Z</time>
      </trkpt>
      <trkpt lat="49.8684" lon="2.03371">
        <ele>117.5</ele>
        <time>2023-05-31T13:51:39Z</time>
      </trkpt>
      <trkpt lat="49.86839" lon="2.03374">
        <ele>117.4</ele>
        <time>2023-05-31T13:51:40Z</time>
      </trkpt>
      <trkpt lat="49.86839" lon="2.03375">
        <ele>117.4</ele>
        <time>2023-05-31T13:51:41Z</time>
      </trkpt>
      <trkpt lat="49.86838" lon="2.03376">
        <ele>117.4</ele>
        <time>2023-05-31T13:51:42Z</time>
      </trkpt>
      <trkpt lat="49.86837" lon="2.03379">
        <ele>117.4</ele>
        <time>2023-05-31T13:51:44Z</time>
      </trkpt>
      <trkpt lat="49.86836" lon="2.0338">
        <ele>117.4</ele>
        <time>2023-05-31T13:51:45Z</time>
      </trkpt>
      <trkpt lat="49.86836" lon="2.03381">
        <ele>117.4</ele>
        <time>2023-05-31T13:51:46Z</time>
      </trkpt>
      <trkpt lat="49.86835" lon="2.03382">
        <ele>117.4</ele>
        <time>2023-05-31T13:51:47Z</time>
      </trkpt>
      <trkpt lat="49.86835" lon="2.03384">
        <ele>117.4</ele>
        <time>2023-05-31T13:51:48Z</time>
      </trkpt>
      <trkpt lat="49.86834" lon="2.03385">
        <ele>117.4</ele>
        <time>2023-05-31T13:51:49Z</time>
      </trkpt>
      <trkpt lat="49.86834" lon="2.03387">
        <ele>117.4</ele>
        <time>2023-05-31T13:51:50Z</time>
      </trkpt>
      <trkpt lat="49.86833" lon="2.03388">
        <ele>117.4</ele>
        <time>2023-05-31T13:51:51Z</time>
      </trkpt>
      <trkpt lat="49.86832" lon="2.03389">
        <ele>117.3</ele>
        <time>2023-05-31T13:51:52Z</time>
      </trkpt>
      <trkpt lat="49.86832" lon="2.03391">
        <ele>117.3</ele>
        <time>2023-05-31T13:51:53Z</time>
      </trkpt>
      <trkpt lat="49.86831" lon="2.03393">
        <ele>117.3</ele>
        <time>2023-05-31T13:51:55Z</time>
      </trkpt>
      <trkpt lat="49.86831" lon="2.03394">
        <ele>117.3</ele>
        <time>2023-05-31T13:51:56Z</time>
      </trkpt>
      <trkpt lat="49.86829" lon="2.03398">
        <ele>117.3</ele>
        <time>2023-05-31T13:51:58Z</time>
      </trkpt>
      <trkpt lat="49.86829" lon="2.03399">
        <ele>117.3</ele>
        <time>2023-05-31T13:51:59Z</time>
      </trkpt>
      <trkpt lat="49.86828" lon="2.03401">
        <ele>117.3</ele>
        <time>2023-05-31T13:52:00Z</time>
      </trkpt>
      <trkpt lat="49.86828" lon="2.03402">
        <ele>117.3</ele>
        <time>2023-05-31T13:52:01Z</time>
      </trkpt>
      <trkpt lat="49.86826" lon="2.03406">
        <ele>117.3</ele>
        <time>2023-05-31T13:52:03Z</time>
      </trkpt>
      <trkpt lat="49.86826" lon="2.03408">
        <ele>117.3</ele>
        <time>2023-05-31T13:52:04Z</time>
      </trkpt>
      <trkpt lat="49.86825" lon="2.0341">
        <ele>117.3</ele>
        <time>2023-05-31T13:52:06Z</time>
      </trkpt>
      <trkpt lat="49.86824" lon="2.03413">
        <ele>117.2</ele>
        <time>2023-05-31T13:52:07Z</time>
      </trkpt>
      <trkpt lat="49.86824" lon="2.03414">
        <ele>117.2</ele>
        <time>2023-05-31T13:52:08Z</time>
      </trkpt>
      <trkpt lat="49.86823" lon="2.03415">
        <ele>117.2</ele>
        <time>2023-05-31T13:52:09Z</time>
      </trkpt>
      <trkpt lat="49.86822" lon="2.03418">
        <ele>117.2</ele>
        <time>2023-05-31T13:52:10Z</time>
      </trkpt>
      <trkpt lat="49.86822" lon="2.03419">
        <ele>117.2</ele>
        <time>2023-05-31T13:52:11Z</time>
      </trkpt>
      <trkpt lat="49.86822" lon="2.0342">
        <ele>117.2</ele>
        <time>2023-05-31T13:52:12Z</time>
      </trkpt>
      <trkpt lat="49.8682" lon="2.03425">
        <ele>117.2</ele>
        <time>2023-05-31T13:52:14Z</time>
      </trkpt>
      <trkpt lat="49.8682" lon="2.03425">
        <ele>117.2</ele>
        <time>2023-05-31T13:52:15Z</time>
      </trkpt>
      <trkpt lat="49.86819" lon="2.03427">
        <ele>117.2</ele>
        <time>2023-05-31T13:52:17Z</time>
      </trkpt>
      <trkpt lat="49.86819" lon="2.03428">
        <ele>117.2</ele>
        <time>2023-05-31T13:52:18Z</time>
      </trkpt>
      <trkpt lat="49.86818" lon="2.0343">
        <ele>117.2</ele>
        <time>2023-05-31T13:52:19Z</time>
      </trkpt>
      <trkpt lat="49.86818" lon="2.03431">
        <ele>117.2</ele>
        <time>2023-05-31T13:52:20Z</time>
      </trkpt>
      <trkpt lat="49.86817" lon="2.03434">
        <ele>117.2</ele>
        <time>2023-05-31T13:52:22Z</time>
      </trkpt>
      <trkpt lat="49.86817" lon="2.03435">
        <ele>117.2</ele>
        <time>2023-05-31T13:52:23Z</time>
      </trkpt>
      <trkpt lat="49.86817" lon="2.03437">
        <ele>117.2</ele>
        <time>2023-05-31T13:52:24Z</time>
      </trkpt>
      <trkpt lat="49.86817" lon="2.03438">
        <ele>117.2</ele>
        <time>2023-05-31T13:52:25Z</time>
      </trkpt>
      <trkpt lat="49.86817" lon="2.0344">
        <ele>117.2</ele>
        <time>2023-05-31T13:52:26Z</time>
      </trkpt>
      <trkpt lat="49.86816" lon="2.03442">
        <ele>117.2</ele>
        <time>2023-05-31T13:52:27Z</time>
      </trkpt>
      <trkpt lat="49.86816" lon="2.03443">
        <ele>117.1</ele>
        <time>2023-05-31T13:52:28Z</time>
      </trkpt>
      <trkpt lat="49.86816" lon="2.03445">
        <ele>117.1</ele>
        <time>2023-05-31T13:52:29Z</time>
      </trkpt>
      <trkpt lat="49.86816" lon="2.03447">
        <ele>117.1</ele>
        <time>2023-05-31T13:52:30Z</time>
      </trkpt>
      <trkpt lat="49.86815" lon="2.03448">
        <ele>117.1</ele>
        <time>2023-05-31T13:52:31Z</time>
      </trkpt>
      <trkpt lat="49.86815" lon="2.0345">
        <ele>117.1</ele>
        <time>2023-05-31T13:52:32Z</time>
      </trkpt>
      <trkpt lat="49.86815" lon="2.03452">
        <ele>117.1</ele>
        <time>2023-05-31T13:52:34Z</time>
      </trkpt>
      <trkpt lat="49.86815" lon="2.03453">
        <ele>117.1</ele>
        <time>2023-05-31T13:52:35Z</time>
      </trkpt>
      <trkpt lat="49.86814" lon="2.03456">
        <ele>117.1</ele>
        <time>2023-05-31T13:52:36Z</time>
      </trkpt>
      <trkpt lat="49.86814" lon="2.03458">
        <ele>117.1</ele>
        <time>2023-05-31T13:52:37Z</time>
      </trkpt>
      <trkpt lat="49.86814" lon="2.03459">
        <ele>117.1</ele>
        <time>2023-05-31T13:52:38Z</time>
      </trkpt>
      <trkpt lat="49.86813" lon="2.03462">
        <ele>117.1</ele>
        <time>2023-05-31T13:52:39Z</time>
      </trkpt>
      <trkpt lat="49.86813" lon="2.03463">
        <ele>117.1</ele>
        <time>2023-05-31T13:52:41Z</time>
      </trkpt>
      <trkpt lat="49.86813" lon="2.03465">
        <ele>117.1</ele>
        <time>2023-05-31T13:52:42Z</time>
      </trkpt>
      <trkpt lat="49.86813" lon="2.03467">
        <ele>117.1</ele>
        <time>2023-05-31T13:52:43Z</time>
      </trkpt>
      <trkpt lat="49.86812" lon="2.03469">
        <ele>117.1</ele>
        <time>2023-05-31T13:52:44Z</time>
      </trkpt>
      <trkpt lat="49.86812" lon="2.03471">
        <ele>117.1</ele>
        <time>2023-05-31T13:52:45Z</time>
      </trkpt>
      <trkpt lat="49.86812" lon="2.03473">
        <ele>117.1</ele>
        <time>2023-05-31T13:52:46Z</time>
      </trkpt>
      <trkpt lat="49.86811" lon="2.03477">
        <ele>117.1</ele>
        <time>2023-05-31T13:52:47Z</time>
      </trkpt>
      <trkpt lat="49.86811" lon="2.03478">
        <ele>117.1</ele>
        <time>2023-05-31T13:52:48Z</time>
      </trkpt>
      <trkpt lat="49.86811" lon="2.03479">
        <ele>117.1</ele>
        <time>2023-05-31T13:52:49Z</time>
      </trkpt>
      <trkpt lat="49.86811" lon="2.03483">
        <ele>117.2</ele>
        <time>2023-05-31T13:52:50Z</time>
      </trkpt>
      <trkpt lat="49.86811" lon="2.03484">
        <ele>117.2</ele>
        <time>2023-05-31T13:52:52Z</time>
      </trkpt>
      <trkpt lat="49.86811" lon="2.03485">
        <ele>117.2</ele>
        <time>2023-05-31T13:52:53Z</time>
      </trkpt>
      <trkpt lat="49.86811" lon="2.03488">
        <ele>117.2</ele>
        <time>2023-05-31T13:52:54Z</time>
      </trkpt>
      <trkpt lat="49.86811" lon="2.0349">
        <ele>117.2</ele>
        <time>2023-05-31T13:52:55Z</time>
      </trkpt>
      <trkpt lat="49.86811" lon="2.03492">
        <ele>117.2</ele>
        <time>2023-05-31T13:52:56Z</time>
      </trkpt>
      <trkpt lat="49.86811" lon="2.03494">
        <ele>117.2</ele>
        <time>2023-05-31T13:52:57Z</time>
      </trkpt>
      <trkpt lat="49.86811" lon="2.03496">
        <ele>117.2</ele>
        <time>2023-05-31T13:52:58Z</time>
      </trkpt>
      <trkpt lat="49.86811" lon="2.03498">
        <ele>117.2</ele>
        <time>2023-05-31T13:52:59Z</time>
      </trkpt>
      <trkpt lat="49.86811" lon="2.03501">
        <ele>117.2</ele>
        <time>2023-05-31T13:53:00Z</time>
      </trkpt>
      <trkpt lat="49.86811" lon="2.03503">
        <ele>117.2</ele>
        <time>2023-05-31T13:53:01Z</time>
      </trkpt>
      <trkpt lat="49.86811" lon="2.03505">
        <ele>117.2</ele>
        <time>2023-05-31T13:53:03Z</time>
      </trkpt>
      <trkpt lat="49.8681" lon="2.03508">
        <ele>117.2</ele>
        <time>2023-05-31T13:53:04Z</time>
      </trkpt>
      <trkpt lat="49.8681" lon="2.0351">
        <ele>117.2</ele>
        <time>2023-05-31T13:53:05Z</time>
      </trkpt>
      <trkpt lat="49.8681" lon="2.03513">
        <ele>117.2</ele>
        <time>2023-05-31T13:53:06Z</time>
      </trkpt>
      <trkpt lat="49.8681" lon="2.03515">
        <ele>117.2</ele>
        <time>2023-05-31T13:53:07Z</time>
      </trkpt>
      <trkpt lat="49.8681" lon="2.03517">
        <ele>117.2</ele>
        <time>2023-05-31T13:53:08Z</time>
      </trkpt>
      <trkpt lat="49.8681" lon="2.0352">
        <ele>117.2</ele>
        <time>2023-05-31T13:53:09Z</time>
      </trkpt>
      <trkpt lat="49.8681" lon="2.03521">
        <ele>117.2</ele>
        <time>2023-05-31T13:53:10Z</time>
      </trkpt>
      <trkpt lat="49.8681" lon="2.03523">
        <ele>117.2</ele>
        <time>2023-05-31T13:53:11Z</time>
      </trkpt>
      <trkpt lat="49.8681" lon="2.03525">
        <ele>117.2</ele>
        <time>2023-05-31T13:53:12Z</time>
      </trkpt>
      <trkpt lat="49.8681" lon="2.03526">
        <ele>117.2</ele>
        <time>2023-05-31T13:53:14Z</time>
      </trkpt>
      <trkpt lat="49.8681" lon="2.03528">
        <ele>117.2</ele>
        <time>2023-05-31T13:53:15Z</time>
      </trkpt>
      <trkpt lat="49.8681" lon="2.0353">
        <ele>117.2</ele>
        <time>2023-05-31T13:53:16Z</time>
      </trkpt>
      <trkpt lat="49.8681" lon="2.03532">
        <ele>117.2</ele>
        <time>2023-05-31T13:53:17Z</time>
      </trkpt>
      <trkpt lat="49.86809" lon="2.03534">
        <ele>117.3</ele>
        <time>2023-05-31T13:53:18Z</time>
      </trkpt>
      <trkpt lat="49.86809" lon="2.03535">
        <ele>117.3</ele>
        <time>2023-05-31T13:53:19Z</time>
      </trkpt>
      <trkpt lat="49.86808" lon="2.03537">
        <ele>117.3</ele>
        <time>2023-05-31T13:53:20Z</time>
      </trkpt>
      <trkpt lat="49.86808" lon="2.03539">
        <ele>117.3</ele>
        <time>2023-05-31T13:53:21Z</time>
      </trkpt>
      <trkpt lat="49.86808" lon="2.03541">
        <ele>117.3</ele>
        <time>2023-05-31T13:53:22Z</time>
      </trkpt>
      <trkpt lat="49.86808" lon="2.03543">
        <ele>117.3</ele>
        <time>2023-05-31T13:53:23Z</time>
      </trkpt>
      <trkpt lat="49.86807" lon="2.03545">
        <ele>117.3</ele>
        <time>2023-05-31T13:53:25Z</time>
      </trkpt>
      <trkpt lat="49.86807" lon="2.03548">
        <ele>117.3</ele>
        <time>2023-05-31T13:53:26Z</time>
      </trkpt>
      <trkpt lat="49.86807" lon="2.03549">
        <ele>117.3</ele>
        <time>2023-05-31T13:53:27Z</time>
      </trkpt>
      <trkpt lat="49.86807" lon="2.0355">
        <ele>117.3</ele>
        <time>2023-05-31T13:53:28Z</time>
      </trkpt>
      <trkpt lat="49.86806" lon="2.03553">
        <ele>117.3</ele>
        <time>2023-05-31T13:53:30Z</time>
      </trkpt>
      <trkpt lat="49.86806" lon="2.03555">
        <ele>117.3</ele>
        <time>2023-05-31T13:53:31Z</time>
      </trkpt>
      <trkpt lat="49.86805" lon="2.03558">
        <ele>117.3</ele>
        <time>2023-05-31T13:53:32Z</time>
      </trkpt>
      <trkpt lat="49.86805" lon="2.03559">
        <ele>117.3</ele>
        <time>2023-05-31T13:53:33Z</time>
      </trkpt>
      <trkpt lat="49.86805" lon="2.0356">
        <ele>117.3</ele>
        <time>2023-05-31T13:53:34Z</time>
      </trkpt>
      <trkpt lat="49.86804" lon="2.03563">
        <ele>117.3</ele>
        <time>2023-05-31T13:53:35Z</time>
      </trkpt>
      <trkpt lat="49.86804" lon="2.03565">
        <ele>117.3</ele>
        <time>2023-05-31T13:53:36Z</time>
      </trkpt>
      <trkpt lat="49.86804" lon="2.03566">
        <ele>117.3</ele>
        <time>2023-05-31T13:53:37Z</time>
      </trkpt>
      <trkpt lat="49.86804" lon="2.03569">
        <ele>117.3</ele>
        <time>2023-05-31T13:53:38Z</time>
      </trkpt>
      <trkpt lat="49.86803" lon="2.0357">
        <ele>117.3</ele>
        <time>2023-05-31T13:53:40Z</time>
      </trkpt>
      <trkpt lat="49.86803" lon="2.03572">
        <ele>117.3</ele>
        <time>2023-05-31T13:53:41Z</time>
      </trkpt>
      <trkpt lat="49.86803" lon="2.03575">
        <ele>117.3</ele>
        <time>2023-05-31T13:53:42Z</time>
      </trkpt>
      <trkpt lat="49.86803" lon="2.03576">
        <ele>117.3</ele>
        <time>2023-05-31T13:53:43Z</time>
      </trkpt>
      <trkpt lat="49.86803" lon="2.03577">
        <ele>117.3</ele>
        <time>2023-05-31T13:53:44Z</time>
      </trkpt>
      <trkpt lat="49.86802" lon="2.03581">
        <ele>117.2</ele>
        <time>2023-05-31T13:53:45Z</time>
      </trkpt>
      <trkpt lat="49.86802" lon="2.03582">
        <ele>117.2</ele>
        <time>2023-05-31T13:53:46Z</time>
      </trkpt>
      <trkpt lat="49.86802" lon="2.03583">
        <ele>117.2</ele>
        <time>2023-05-31T13:53:47Z</time>
      </trkpt>
      <trkpt lat="49.86802" lon="2.03587">
        <ele>117.2</ele>
        <time>2023-05-31T13:53:48Z</time>
      </trkpt>
      <trkpt lat="49.86802" lon="2.03588">
        <ele>117.2</ele>
        <time>2023-05-31T13:53:50Z</time>
      </trkpt>
      <trkpt lat="49.86802" lon="2.0359">
        <ele>117.2</ele>
        <time>2023-05-31T13:53:51Z</time>
      </trkpt>
      <trkpt lat="49.86802" lon="2.03593">
        <ele>117.2</ele>
        <time>2023-05-31T13:53:52Z</time>
      </trkpt>
      <trkpt lat="49.86802" lon="2.03594">
        <ele>117.2</ele>
        <time>2023-05-31T13:53:53Z</time>
      </trkpt>
      <trkpt lat="49.86802" lon="2.03596">
        <ele>117.2</ele>
        <time>2023-05-31T13:53:54Z</time>
      </trkpt>
      <trkpt lat="49.86801" lon="2.03599">
        <ele>117.2</ele>
        <time>2023-05-31T13:53:55Z</time>
      </trkpt>
      <trkpt lat="49.86801" lon="2.036">
        <ele>117.2</ele>
        <time>2023-05-31T13:53:57Z</time>
      </trkpt>
      <trkpt lat="49.86801" lon="2.03602">
        <ele>117.2</ele>
        <time>2023-05-31T13:53:58Z</time>
      </trkpt>
      <trkpt lat="49.86801" lon="2.03605">
        <ele>117.3</ele>
        <time>2023-05-31T13:53:59Z</time>
      </trkpt>
      <trkpt lat="49.86801" lon="2.03606">
        <ele>117.3</ele>
        <time>2023-05-31T13:54:00Z</time>
      </trkpt>
      <trkpt lat="49.86801" lon="2.03608">
        <ele>117.3</ele>
        <time>2023-05-31T13:54:01Z</time>
      </trkpt>
      <trkpt lat="49.86801" lon="2.0361">
        <ele>117.3</ele>
        <time>2023-05-31T13:54:02Z</time>
      </trkpt>
      <trkpt lat="49.868" lon="2.03612">
        <ele>117.3</ele>
        <time>2023-05-31T13:54:03Z</time>
      </trkpt>
      <trkpt lat="49.868" lon="2.03615">
        <ele>117.3</ele>
        <time>2023-05-31T13:54:04Z</time>
      </trkpt>
      <trkpt lat="49.868" lon="2.03616">
        <ele>117.3</ele>
        <time>2023-05-31T13:54:06Z</time>
      </trkpt>
      <trkpt lat="49.86799" lon="2.03617">
        <ele>117.3</ele>
        <time>2023-05-31T13:54:07Z</time>
      </trkpt>
      <trkpt lat="49.86798" lon="2.0362">
        <ele>117.3</ele>
        <time>2023-05-31T13:54:08Z</time>
      </trkpt>
      <trkpt lat="49.86798" lon="2.03621">
        <ele>117.3</ele>
        <time>2023-05-31T13:54:09Z</time>
      </trkpt>
      <trkpt lat="49.86798" lon="2.03623">
        <ele>117.3</ele>
        <time>2023-05-31T13:54:10Z</time>
      </trkpt>
      <trkpt lat="49.86796" lon="2.03627">
        <ele>117.4</ele>
        <time>2023-05-31T13:54:12Z</time>
      </trkpt>
      <trkpt lat="49.86796" lon="2.03628">
        <ele>117.4</ele>
        <time>2023-05-31T13:54:13Z</time>
      </trkpt>
      <trkpt lat="49.86795" lon="2.0363">
        <ele>117.4</ele>
        <time>2023-05-31T13:54:15Z</time>
      </trkpt>
      <trkpt lat="49.86794" lon="2.03631">
        <ele>117.4</ele>
        <time>2023-05-31T13:54:16Z</time>
      </trkpt>
      <trkpt lat="49.86794" lon="2.03632">
        <ele>117.4</ele>
        <time>2023-05-31T13:54:17Z</time>
      </trkpt>
      <trkpt lat="49.86793" lon="2.03635">
        <ele>117.4</ele>
        <time>2023-05-31T13:54:18Z</time>
      </trkpt>
      <trkpt lat="49.86792" lon="2.03636">
        <ele>117.4</ele>
        <time>2023-05-31T13:54:19Z</time>
      </trkpt>
      <trkpt lat="49.86792" lon="2.03637">
        <ele>117.4</ele>
        <time>2023-05-31T13:54:20Z</time>
      </trkpt>
      <trkpt lat="49.86791" lon="2.03638">
        <ele>117.4</ele>
        <time>2023-05-31T13:54:21Z</time>
      </trkpt>
      <trkpt lat="49.8679" lon="2.03639">
        <ele>117.5</ele>
        <time>2023-05-31T13:54:23Z</time>
      </trkpt>
      <trkpt lat="49.86789" lon="2.03641">
        <ele>117.5</ele>
        <time>2023-05-31T13:54:24Z</time>
      </trkpt>
      <trkpt lat="49.86788" lon="2.03642">
        <ele>117.5</ele>
        <time>2023-05-31T13:54:25Z</time>
      </trkpt>
      <trkpt lat="49.86788" lon="2.03643">
        <ele>117.5</ele>
        <time>2023-05-31T13:54:26Z</time>
      </trkpt>
      <trkpt lat="49.86786" lon="2.03646">
        <ele>117.5</ele>
        <time>2023-05-31T13:54:28Z</time>
      </trkpt>
      <trkpt lat="49.86785" lon="2.03647">
        <ele>117.5</ele>
        <time>2023-05-31T13:54:30Z</time>
      </trkpt>
      <trkpt lat="49.86784" lon="2.03648">
        <ele>117.5</ele>
        <time>2023-05-31T13:54:31Z</time>
      </trkpt>
      <trkpt lat="49.86782" lon="2.0365">
        <ele>117.5</ele>
        <time>2023-05-31T13:54:32Z</time>
      </trkpt>
      <trkpt lat="49.86782" lon="2.03651">
        <ele>117.5</ele>
        <time>2023-05-31T13:54:33Z</time>
      </trkpt>
      <trkpt lat="49.86781" lon="2.03652">
        <ele>117.5</ele>
        <time>2023-05-31T13:54:34Z</time>
      </trkpt>
      <trkpt lat="49.8678" lon="2.03653">
        <ele>117.5</ele>
        <time>2023-05-31T13:54:36Z</time>
      </trkpt>
      <trkpt lat="49.86779" lon="2.03654">
        <ele>117.5</ele>
        <time>2023-05-31T13:54:38Z</time>
      </trkpt>
      <trkpt lat="49.86779" lon="2.03655">
        <ele>117.5</ele>
        <time>2023-05-31T13:54:39Z</time>
      </trkpt>
      <trkpt lat="49.86778" lon="2.03656">
        <ele>117.5</ele>
        <time>2023-05-31T13:54:40Z</time>
      </trkpt>
      <trkpt lat="49.86778" lon="2.03657">
        <ele>117.5</ele>
        <time>2023-05-31T13:54:41Z</time>
      </trkpt>
      <trkpt lat="49.86777" lon="2.03658">
        <ele>117.6</ele>
        <time>2023-05-31T13:54:42Z</time>
      </trkpt>
      <trkpt lat="49.86777" lon="2.03659">
        <ele>117.6</ele>
        <time>2023-05-31T13:54:44Z</time>
      </trkpt>
      <trkpt lat="49.86776" lon="2.03659">
        <ele>117.6</ele>
        <time>2023-05-31T13:54:46Z</time>
      </trkpt>
      <trkpt lat="49.86776" lon="2.03659">
        <ele>117.6</ele>
        <time>2023-05-31T13:54:47Z</time>
      </trkpt>
      <trkpt lat="49.86776" lon="2.03659">
        <ele>117.6</ele>
        <time>2023-05-31T13:54:48Z</time>
      </trkpt>
      <trkpt lat="49.86775" lon="2.03659">
        <ele>117.6</ele>
        <time>2023-05-31T13:54:50Z</time>
      </trkpt>
      <trkpt lat="49.86775" lon="2.03659">
        <ele>117.6</ele>
        <time>2023-05-31T13:54:51Z</time>
      </trkpt>
      <trkpt lat="49.86775" lon="2.03658">
        <ele>117.6</ele>
        <time>2023-05-31T13:54:52Z</time>
      </trkpt>
      <trkpt lat="49.86775" lon="2.03658">
        <ele>117.6</ele>
        <time>2023-05-31T13:54:54Z</time>
      </trkpt>
      <trkpt lat="49.86775" lon="2.03658">
        <ele>117.6</ele>
        <time>2023-05-31T13:54:55Z</time>
      </trkpt>
      <trkpt lat="49.86775" lon="2.03658">
        <ele>117.6</ele>
        <time>2023-05-31T13:54:57Z</time>
      </trkpt>
      <trkpt lat="49.86775" lon="2.03658">
        <ele>117.6</ele>
        <time>2023-05-31T13:54:58Z</time>
      </trkpt>
      <trkpt lat="49.86775" lon="2.03658">
        <ele>117.6</ele>
        <time>2023-05-31T13:54:59Z</time>
      </trkpt>
      <trkpt lat="49.86775" lon="2.03658">
        <ele>117.6</ele>
        <time>2023-05-31T13:55:01Z</time>
      </trkpt>
      <trkpt lat="49.86775" lon="2.03658">
        <ele>117.6</ele>
        <time>2023-05-31T13:55:02Z</time>
      </trkpt>
      <trkpt lat="49.86776" lon="2.03657">
        <ele>117.6</ele>
        <time>2023-05-31T13:55:03Z</time>
      </trkpt>
      <trkpt lat="49.86776" lon="2.03657">
        <ele>117.6</ele>
        <time>2023-05-31T13:55:04Z</time>
      </trkpt>
      <trkpt lat="49.86776" lon="2.03657">
        <ele>117.6</ele>
        <time>2023-05-31T13:55:05Z</time>
      </trkpt>
      <trkpt lat="49.86776" lon="2.03657">
        <ele>117.6</ele>
        <time>2023-05-31T13:55:06Z</time>
      </trkpt>
      <trkpt lat="49.86776" lon="2.03657">
        <ele>117.6</ele>
        <time>2023-05-31T13:55:07Z</time>
      </trkpt>
      <trkpt lat="49.86776" lon="2.03657">
        <ele>117.6</ele>
        <time>2023-05-31T13:55:08Z</time>
      </trkpt>
      <trkpt lat="49.86776" lon="2.03657">
        <ele>117.6</ele>
        <time>2023-05-31T13:55:09Z</time>
      </trkpt>
      <trkpt lat="49.86776" lon="2.03657">
        <ele>117.6</ele>
        <time>2023-05-31T13:55:10Z</time>
      </trkpt>
      <trkpt lat="49.86776" lon="2.03657">
        <ele>117.6</ele>
        <time>2023-05-31T13:55:11Z</time>
      </trkpt>
      <trkpt lat="49.86776" lon="2.03657">
        <ele>117.6</ele>
        <time>2023-05-31T13:55:12Z</time>
      </trkpt>
      <trkpt lat="49.86776" lon="2.03657">
        <ele>117.6</ele>
        <time>2023-05-31T13:55:13Z</time>
      </trkpt>
      <trkpt lat="49.86776" lon="2.03657">
        <ele>117.6</ele>
        <time>2023-05-31T13:55:14Z</time>
      </trkpt>
      <trkpt lat="49.86776" lon="2.03657">
        <ele>117.6</ele>
        <time>2023-05-31T13:55:15Z</time>
      </trkpt>
      <trkpt lat="49.86776" lon="2.03657">
        <ele>117.6</ele>
        <time>2023-05-31T13:55:16Z</time>
      </trkpt>
      <trkpt lat="49.86776" lon="2.03657">
        <ele>117.6</ele>
        <time>2023-05-31T13:55:17Z</time>
      </trkpt>
      <trkpt lat="49.86776" lon="2.03657">
        <ele>117.6</ele>
        <time>2023-05-31T13:55:18Z</time>
      </trkpt>
      <trkpt lat="49.86776" lon="2.03657">
        <ele>117.6</ele>
        <time>2023-05-31T13:55:19Z</time>
      </trkpt>
      <trkpt lat="49.86776" lon="2.03657">
        <ele>117.6</ele>
        <time>2023-05-31T13:55:20Z</time>
      </trkpt>
      <trkpt lat="49.86776" lon="2.03657">
        <ele>117.6</ele>
        <time>2023-05-31T13:55:21Z</time>
      </trkpt>
      <trkpt lat="49.86776" lon="2.03657">
        <ele>117.6</ele>
        <time>2023-05-31T13:55:22Z</time>
      </trkpt>
      <trkpt lat="49.86776" lon="2.03657">
        <ele>117.6</ele>
        <time>2023-05-31T13:55:23Z</time>
      </trkpt>
      <trkpt lat="49.86776" lon="2.03657">
        <ele>117.6</ele>
        <time>2023-05-31T13:55:24Z</time>
      </trkpt>
      <trkpt lat="49.86776" lon="2.03657">
        <ele>117.6</ele>
        <time>2023-05-31T13:55:25Z</time>
      </trkpt>
      <trkpt lat="49.86776" lon="2.03657">
        <ele>117.6</ele>
        <time>2023-05-31T13:55:26Z</time>
      </trkpt>
      <trkpt lat="49.86776" lon="2.03657">
        <ele>117.6</ele>
        <time>2023-05-31T13:55:27Z</time>
      </trkpt>
      <trkpt lat="49.86776" lon="2.03657">
        <ele>117.6</ele>
        <time>2023-05-31T13:55:28Z</time>
      </trkpt>
      <trkpt lat="49.86776" lon="2.03657">
        <ele>117.6</ele>
        <time>2023-05-31T13:55:29Z</time>
      </trkpt>
      <trkpt lat="49.86776" lon="2.03657">
        <ele>117.6</ele>
        <time>2023-05-31T13:55:30Z</time>
      </trkpt>
      <trkpt lat="49.86776" lon="2.03657">
        <ele>117.6</ele>
        <time>2023-05-31T13:55:31Z</time>
      </trkpt>
      <trkpt lat="49.86776" lon="2.03657">
        <ele>117.6</ele>
        <time>2023-05-31T13:55:32Z</time>
      </trkpt>
      <trkpt lat="49.86776" lon="2.03657">
        <ele>117.6</ele>
        <time>2023-05-31T13:55:33Z</time>
      </trkpt>
      <trkpt lat="49.86776" lon="2.03657">
        <ele>117.6</ele>
        <time>2023-05-31T13:55:34Z</time>
      </trkpt>
      <trkpt lat="49.86776" lon="2.03657">
        <ele>117.6</ele>
        <time>2023-05-31T13:55:35Z</time>
      </trkpt>
      <trkpt lat="49.86776" lon="2.03657">
        <ele>117.6</ele>
        <time>2023-05-31T13:55:36Z</time>
      </trkpt>
      <trkpt lat="49.86776" lon="2.03657">
        <ele>117.6</ele>
        <time>2023-05-31T13:55:37Z</time>
      </trkpt>
      <trkpt lat="49.86776" lon="2.03657">
        <ele>117.6</ele>
        <time>2023-05-31T13:55:38Z</time>
      </trkpt>
      <trkpt lat="49.86776" lon="2.03657">
        <ele>117.6</ele>
        <time>2023-05-31T13:55:39Z</time>
      </trkpt>
      <trkpt lat="49.86776" lon="2.03657">
        <ele>117.6</ele>
        <time>2023-05-31T13:55:40Z</time>
      </trkpt>
      <trkpt lat="49.86776" lon="2.03657">
        <ele>117.6</ele>
        <time>2023-05-31T13:55:41Z</time>
      </trkpt>
      <trkpt lat="49.86776" lon="2.03657">
        <ele>117.6</ele>
        <time>2023-05-31T13:55:42Z</time>
      </trkpt>
      <trkpt lat="49.86776" lon="2.03657">
        <ele>117.6</ele>
        <time>2023-05-31T13:55:43Z</time>
      </trkpt>
      <trkpt lat="49.86776" lon="2.03657">
        <ele>117.6</ele>
        <time>2023-05-31T13:55:44Z</time>
      </trkpt>
      <trkpt lat="49.86776" lon="2.03657">
        <ele>117.6</ele>
        <time>2023-05-31T13:55:45Z</time>
      </trkpt>
      <trkpt lat="49.86776" lon="2.03657">
        <ele>117.6</ele>
        <time>2023-05-31T13:55:46Z</time>
      </trkpt>
      <trkpt lat="49.86776" lon="2.03657">
        <ele>117.6</ele>
        <time>2023-05-31T13:55:47Z</time>
      </trkpt>
      <trkpt lat="49.86776" lon="2.03657">
        <ele>117.6</ele>
        <time>2023-05-31T13:55:48Z</time>
      </trkpt>
      <trkpt lat="49.86776" lon="2.03657">
        <ele>117.6</ele>
        <time>2023-05-31T13:55:49Z</time>
      </trkpt>
      <trkpt lat="49.86776" lon="2.03657">
        <ele>117.6</ele>
        <time>2023-05-31T13:55:50Z</time>
      </trkpt>
      <trkpt lat="49.86776" lon="2.03657">
        <ele>117.6</ele>
        <time>2023-05-31T13:55:51Z</time>
      </trkpt>
      <trkpt lat="49.86776" lon="2.03657">
        <ele>117.6</ele>
        <time>2023-05-31T13:55:52Z</time>
      </trkpt>
      <trkpt lat="49.86776" lon="2.03657">
        <ele>117.6</ele>
        <time>2023-05-31T13:55:53Z</time>
      </trkpt>
      <trkpt lat="49.86776" lon="2.03657">
        <ele>117.6</ele>
        <time>2023-05-31T13:55:54Z</time>
      </trkpt>
      <trkpt lat="49.86776" lon="2.03657">
        <ele>117.6</ele>
        <time>2023-05-31T13:55:55Z</time>
      </trkpt>
      <trkpt lat="49.86776" lon="2.03657">
        <ele>117.6</ele>
        <time>2023-05-31T13:55:56Z</time>
      </trkpt>
      <trkpt lat="49.86776" lon="2.03657">
        <ele>117.6</ele>
        <time>2023-05-31T13:55:57Z</time>
      </trkpt>
      <trkpt lat="49.86777" lon="2.03656">
        <ele>117.6</ele>
        <time>2023-05-31T13:55:58Z</time>
      </trkpt>
      <trkpt lat="49.86779" lon="2.03656">
        <ele>117.6</ele>
        <time>2023-05-31T13:55:59Z</time>
      </trkpt>
      <trkpt lat="49.86779" lon="2.03656">
        <ele>117.6</ele>
        <time>2023-05-31T13:56:00Z</time>
      </trkpt>
      <trkpt lat="49.86779" lon="2.03657">
        <ele>117.6</ele>
        <time>2023-05-31T13:56:01Z</time>
      </trkpt>
      <trkpt lat="49.86779" lon="2.03658">
        <ele>117.6</ele>
        <time>2023-05-31T13:56:02Z</time>
      </trkpt>
      <trkpt lat="49.86779" lon="2.03659">
        <ele>117.6</ele>
        <time>2023-05-31T13:56:03Z</time>
      </trkpt>
      <trkpt lat="49.86779" lon="2.0366">
        <ele>117.6</ele>
        <time>2023-05-31T13:56:04Z</time>
      </trkpt>
      <trkpt lat="49.86779" lon="2.03661">
        <ele>117.6</ele>
        <time>2023-05-31T13:56:05Z</time>
      </trkpt>
      <trkpt lat="49.8678" lon="2.03663">
        <ele>117.6</ele>
        <time>2023-05-31T13:56:06Z</time>
      </trkpt>
      <trkpt lat="49.8678" lon="2.03665">
        <ele>117.5</ele>
        <time>2023-05-31T13:56:08Z</time>
      </trkpt>
      <trkpt lat="49.8678" lon="2.03666">
        <ele>117.5</ele>
        <time>2023-05-31T13:56:09Z</time>
      </trkpt>
      <trkpt lat="49.86781" lon="2.03668">
        <ele>117.5</ele>
        <time>2023-05-31T13:56:10Z</time>
      </trkpt>
      <trkpt lat="49.86782" lon="2.03668">
        <ele>117.5</ele>
        <time>2023-05-31T13:56:11Z</time>
      </trkpt>
      <trkpt lat="49.86784" lon="2.03669">
        <ele>117.5</ele>
        <time>2023-05-31T13:56:13Z</time>
      </trkpt>
      <trkpt lat="49.86784" lon="2.0367">
        <ele>117</ele>
        <time>2023-05-31T13:56:14Z</time>
      </trkpt>
      <trkpt lat="49.86785" lon="2.0367">
        <ele>116.9</ele>
        <time>2023-05-31T13:56:15Z</time>
      </trkpt>
      <trkpt lat="49.86785" lon="2.03671">
        <ele>116.9</ele>
        <time>2023-05-31T13:56:16Z</time>
      </trkpt>
      <trkpt lat="49.86787" lon="2.03671">
        <ele>116.9</ele>
        <time>2023-05-31T13:56:17Z</time>
      </trkpt>
      <trkpt lat="49.86788" lon="2.03672">
        <ele>116.9</ele>
        <time>2023-05-31T13:56:18Z</time>
      </trkpt>
      <trkpt lat="49.8679" lon="2.03672">
        <ele>116.8</ele>
        <time>2023-05-31T13:56:19Z</time>
      </trkpt>
      <trkpt lat="49.86791" lon="2.03672">
        <ele>116.8</ele>
        <time>2023-05-31T13:56:21Z</time>
      </trkpt>
      <trkpt lat="49.86792" lon="2.03672">
        <ele>116.8</ele>
        <time>2023-05-31T13:56:22Z</time>
      </trkpt>
      <trkpt lat="49.86793" lon="2.03672">
        <ele>116.8</ele>
        <time>2023-05-31T13:56:23Z</time>
      </trkpt>
      <trkpt lat="49.86795" lon="2.03673">
        <ele>116.8</ele>
        <time>2023-05-31T13:56:24Z</time>
      </trkpt>
      <trkpt lat="49.86796" lon="2.03673">
        <ele>116.8</ele>
        <time>2023-05-31T13:56:25Z</time>
      </trkpt>
      <trkpt lat="49.86799" lon="2.03672">
        <ele>116.7</ele>
        <time>2023-05-31T13:56:27Z</time>
      </trkpt>
      <trkpt lat="49.86802" lon="2.03672">
        <ele>116.7</ele>
        <time>2023-05-31T13:56:28Z</time>
      </trkpt>
      <trkpt lat="49.86802" lon="2.03672">
        <ele>116.7</ele>
        <time>2023-05-31T13:56:29Z</time>
      </trkpt>
      <trkpt lat="49.86804" lon="2.03672">
        <ele>116.7</ele>
        <time>2023-05-31T13:56:30Z</time>
      </trkpt>
      <trkpt lat="49.86805" lon="2.03672">
        <ele>116.7</ele>
        <time>2023-05-31T13:56:31Z</time>
      </trkpt>
      <trkpt lat="49.86806" lon="2.03672">
        <ele>116.6</ele>
        <time>2023-05-31T13:56:32Z</time>
      </trkpt>
      <trkpt lat="49.86807" lon="2.03672">
        <ele>116.6</ele>
        <time>2023-05-31T13:56:33Z</time>
      </trkpt>
      <trkpt lat="49.86809" lon="2.03672">
        <ele>116.6</ele>
        <time>2023-05-31T13:56:34Z</time>
      </trkpt>
      <trkpt lat="49.86811" lon="2.03672">
        <ele>116.6</ele>
        <time>2023-05-31T13:56:36Z</time>
      </trkpt>
      <trkpt lat="49.86812" lon="2.03672">
        <ele>116.5</ele>
        <time>2023-05-31T13:56:37Z</time>
      </trkpt>
      <trkpt lat="49.86813" lon="2.03671">
        <ele>116.5</ele>
        <time>2023-05-31T13:56:38Z</time>
      </trkpt>
      <trkpt lat="49.86815" lon="2.03671">
        <ele>116.5</ele>
        <time>2023-05-31T13:56:39Z</time>
      </trkpt>
      <trkpt lat="49.86816" lon="2.0367">
        <ele>116.5</ele>
        <time>2023-05-31T13:56:40Z</time>
      </trkpt>
      <trkpt lat="49.86816" lon="2.0367">
        <ele>116.4</ele>
        <time>2023-05-31T13:56:41Z</time>
      </trkpt>
      <trkpt lat="49.86819" lon="2.0367">
        <ele>116.4</ele>
        <time>2023-05-31T13:56:42Z</time>
      </trkpt>
      <trkpt lat="49.86819" lon="2.0367">
        <ele>116.4</ele>
        <time>2023-05-31T13:56:44Z</time>
      </trkpt>
      <trkpt lat="49.8682" lon="2.03669">
        <ele>116.4</ele>
        <time>2023-05-31T13:56:45Z</time>
      </trkpt>
      <trkpt lat="49.86822" lon="2.03669">
        <ele>116.3</ele>
        <time>2023-05-31T13:56:46Z</time>
      </trkpt>
      <trkpt lat="49.86823" lon="2.03668">
        <ele>116.3</ele>
        <time>2023-05-31T13:56:47Z</time>
      </trkpt>
      <trkpt lat="49.86824" lon="2.03668">
        <ele>116.3</ele>
        <time>2023-05-31T13:56:48Z</time>
      </trkpt>
      <trkpt lat="49.86825" lon="2.03668">
        <ele>116.3</ele>
        <time>2023-05-31T13:56:49Z</time>
      </trkpt>
      <trkpt lat="49.86826" lon="2.03668">
        <ele>116.2</ele>
        <time>2023-05-31T13:56:50Z</time>
      </trkpt>
      <trkpt lat="49.86827" lon="2.03668">
        <ele>116.2</ele>
        <time>2023-05-31T13:56:51Z</time>
      </trkpt>
      <trkpt lat="49.86828" lon="2.03668">
        <ele>116.2</ele>
        <time>2023-05-31T13:56:53Z</time>
      </trkpt>
      <trkpt lat="49.86829" lon="2.03668">
        <ele>116.2</ele>
        <time>2023-05-31T13:56:54Z</time>
      </trkpt>
      <trkpt lat="49.8683" lon="2.03667">
        <ele>116.2</ele>
        <time>2023-05-31T13:56:55Z</time>
      </trkpt>
      <trkpt lat="49.86831" lon="2.03667">
        <ele>116.1</ele>
        <time>2023-05-31T13:56:56Z</time>
      </trkpt>
      <trkpt lat="49.86833" lon="2.03666">
        <ele>116.1</ele>
        <time>2023-05-31T13:56:57Z</time>
      </trkpt>
      <trkpt lat="49.86834" lon="2.03666">
        <ele>116.1</ele>
        <time>2023-05-31T13:56:58Z</time>
      </trkpt>
      <trkpt lat="49.86834" lon="2.03666">
        <ele>116.1</ele>
        <time>2023-05-31T13:56:59Z</time>
      </trkpt>
      <trkpt lat="49.86835" lon="2.03666">
        <ele>116</ele>
        <time>2023-05-31T13:57:00Z</time>
      </trkpt>
      <trkpt lat="49.86836" lon="2.03666">
        <ele>116</ele>
        <time>2023-05-31T13:57:01Z</time>
      </trkpt>
      <trkpt lat="49.86837" lon="2.03666">
        <ele>116</ele>
        <time>2023-05-31T13:57:03Z</time>
      </trkpt>
      <trkpt lat="49.86838" lon="2.03666">
        <ele>116</ele>
        <time>2023-05-31T13:57:04Z</time>
      </trkpt>
      <trkpt lat="49.8684" lon="2.03666">
        <ele>115.9</ele>
        <time>2023-05-31T13:57:05Z</time>
      </trkpt>
      <trkpt lat="49.86843" lon="2.03666">
        <ele>115.8</ele>
        <time>2023-05-31T13:57:06Z</time>
      </trkpt>
      <trkpt lat="49.86844" lon="2.03666">
        <ele>115.8</ele>
        <time>2023-05-31T13:57:08Z</time>
      </trkpt>
      <trkpt lat="49.86845" lon="2.03666">
        <ele>115.8</ele>
        <time>2023-05-31T13:57:09Z</time>
      </trkpt>
      <trkpt lat="49.86846" lon="2.03666">
        <ele>115.8</ele>
        <time>2023-05-31T13:57:10Z</time>
      </trkpt>
      <trkpt lat="49.86847" lon="2.03666">
        <ele>115.7</ele>
        <time>2023-05-31T13:57:11Z</time>
      </trkpt>
      <trkpt lat="49.86849" lon="2.03666">
        <ele>115.7</ele>
        <time>2023-05-31T13:57:12Z</time>
      </trkpt>
      <trkpt lat="49.8685" lon="2.03666">
        <ele>115.6</ele>
        <time>2023-05-31T13:57:13Z</time>
      </trkpt>
      <trkpt lat="49.8685" lon="2.03666">
        <ele>115.6</ele>
        <time>2023-05-31T13:57:14Z</time>
      </trkpt>
      <trkpt lat="49.86852" lon="2.03666">
        <ele>115.6</ele>
        <time>2023-05-31T13:57:16Z</time>
      </trkpt>
      <trkpt lat="49.86853" lon="2.03666">
        <ele>115.6</ele>
        <time>2023-05-31T13:57:17Z</time>
      </trkpt>
      <trkpt lat="49.86855" lon="2.03666">
        <ele>115.5</ele>
        <time>2023-05-31T13:57:18Z</time>
      </trkpt>
      <trkpt lat="49.86856" lon="2.03666">
        <ele>115.5</ele>
        <time>2023-05-31T13:57:19Z</time>
      </trkpt>
      <trkpt lat="49.86857" lon="2.03666">
        <ele>115.5</ele>
        <time>2023-05-31T13:57:20Z</time>
      </trkpt>
      <trkpt lat="49.8686" lon="2.03665">
        <ele>115.5</ele>
        <time>2023-05-31T13:57:21Z</time>
      </trkpt>
      <trkpt lat="49.86861" lon="2.03665">
        <ele>115.4</ele>
        <time>2023-05-31T13:57:23Z</time>
      </trkpt>
      <trkpt lat="49.86862" lon="2.03665">
        <ele>115.4</ele>
        <time>2023-05-31T13:57:24Z</time>
      </trkpt>
      <trkpt lat="49.86863" lon="2.03664">
        <ele>115.4</ele>
        <time>2023-05-31T13:57:25Z</time>
      </trkpt>
      <trkpt lat="49.86864" lon="2.03664">
        <ele>115.4</ele>
        <time>2023-05-31T13:57:26Z</time>
      </trkpt>
      <trkpt lat="49.86867" lon="2.03664">
        <ele>115.4</ele>
        <time>2023-05-31T13:57:28Z</time>
      </trkpt>
      <trkpt lat="49.86867" lon="2.03664">
        <ele>115.4</ele>
        <time>2023-05-31T13:57:29Z</time>
      </trkpt>
      <trkpt lat="49.86869" lon="2.03664">
        <ele>115.4</ele>
        <time>2023-05-31T13:57:30Z</time>
      </trkpt>
      <trkpt lat="49.8687" lon="2.03663">
        <ele>115.4</ele>
        <time>2023-05-31T13:57:32Z</time>
      </trkpt>
      <trkpt lat="49.86872" lon="2.03663">
        <ele>115.4</ele>
        <time>2023-05-31T13:57:33Z</time>
      </trkpt>
      <trkpt lat="49.86873" lon="2.03663">
        <ele>115.5</ele>
        <time>2023-05-31T13:57:34Z</time>
      </trkpt>
      <trkpt lat="49.86874" lon="2.03663">
        <ele>115.5</ele>
        <time>2023-05-31T13:57:35Z</time>
      </trkpt>
      <trkpt lat="49.86876" lon="2.03663">
        <ele>115.5</ele>
        <time>2023-05-31T13:57:36Z</time>
      </trkpt>
      <trkpt lat="49.86877" lon="2.03663">
        <ele>115.5</ele>
        <time>2023-05-31T13:57:37Z</time>
      </trkpt>
      <trkpt lat="49.86878" lon="2.03663">
        <ele>115.5</ele>
        <time>2023-05-31T13:57:38Z</time>
      </trkpt>
      <trkpt lat="49.8688" lon="2.03663">
        <ele>115.5</ele>
        <time>2023-05-31T13:57:40Z</time>
      </trkpt>
      <trkpt lat="49.86882" lon="2.03664">
        <ele>115.6</ele>
        <time>2023-05-31T13:57:41Z</time>
      </trkpt>
      <trkpt lat="49.86883" lon="2.03664">
        <ele>115.6</ele>
        <time>2023-05-31T13:57:42Z</time>
      </trkpt>
      <trkpt lat="49.86884" lon="2.03664">
        <ele>115.6</ele>
        <time>2023-05-31T13:57:43Z</time>
      </trkpt>
      <trkpt lat="49.86886" lon="2.03664">
        <ele>115.6</ele>
        <time>2023-05-31T13:57:44Z</time>
      </trkpt>
      <trkpt lat="49.86887" lon="2.03664">
        <ele>115.6</ele>
        <time>2023-05-31T13:57:45Z</time>
      </trkpt>
      <trkpt lat="49.86887" lon="2.03664">
        <ele>115.6</ele>
        <time>2023-05-31T13:57:46Z</time>
      </trkpt>
      <trkpt lat="49.86888" lon="2.03665">
        <ele>115.6</ele>
        <time>2023-05-31T13:57:47Z</time>
      </trkpt>
      <trkpt lat="49.8689" lon="2.03665">
        <ele>115.6</ele>
        <time>2023-05-31T13:57:48Z</time>
      </trkpt>
      <trkpt lat="49.86891" lon="2.03666">
        <ele>115.6</ele>
        <time>2023-05-31T13:57:49Z</time>
      </trkpt>
      <trkpt lat="49.86893" lon="2.03667">
        <ele>115.6</ele>
        <time>2023-05-31T13:57:51Z</time>
      </trkpt>
      <trkpt lat="49.86893" lon="2.03668">
        <ele>115.6</ele>
        <time>2023-05-31T13:57:52Z</time>
      </trkpt>
      <trkpt lat="49.86894" lon="2.03668">
        <ele>115.6</ele>
        <time>2023-05-31T13:57:53Z</time>
      </trkpt>
      <trkpt lat="49.86896" lon="2.03669">
        <ele>115.6</ele>
        <time>2023-05-31T13:57:54Z</time>
      </trkpt>
      <trkpt lat="49.86897" lon="2.03669">
        <ele>115.6</ele>
        <time>2023-05-31T13:57:56Z</time>
      </trkpt>
      <trkpt lat="49.86898" lon="2.0367">
        <ele>115.6</ele>
        <time>2023-05-31T13:57:57Z</time>
      </trkpt>
      <trkpt lat="49.86899" lon="2.0367">
        <ele>115.6</ele>
        <time>2023-05-31T13:57:58Z</time>
      </trkpt>
      <trkpt lat="49.869" lon="2.0367">
        <ele>115.6</ele>
        <time>2023-05-31T13:57:59Z</time>
      </trkpt>
      <trkpt lat="49.86903" lon="2.0367">
        <ele>115.5</ele>
        <time>2023-05-31T13:58:00Z</time>
      </trkpt>
      <trkpt lat="49.86904" lon="2.0367">
        <ele>115.5</ele>
        <time>2023-05-31T13:58:02Z</time>
      </trkpt>
      <trkpt lat="49.86905" lon="2.0367">
        <ele>115.5</ele>
        <time>2023-05-31T13:58:03Z</time>
      </trkpt>
      <trkpt lat="49.86906" lon="2.0367">
        <ele>115.5</ele>
        <time>2023-05-31T13:58:04Z</time>
      </trkpt>
      <trkpt lat="49.86907" lon="2.0367">
        <ele>115.5</ele>
        <time>2023-05-31T13:58:05Z</time>
      </trkpt>
      <trkpt lat="49.86908" lon="2.0367">
        <ele>115.4</ele>
        <time>2023-05-31T13:58:06Z</time>
      </trkpt>
      <trkpt lat="49.86909" lon="2.03671">
        <ele>115.4</ele>
        <time>2023-05-31T13:58:07Z</time>
      </trkpt>
      <trkpt lat="49.8691" lon="2.03671">
        <ele>115.4</ele>
        <time>2023-05-31T13:58:08Z</time>
      </trkpt>
      <trkpt lat="49.86911" lon="2.03671">
        <ele>115.4</ele>
        <time>2023-05-31T13:58:09Z</time>
      </trkpt>
      <trkpt lat="49.86913" lon="2.03671">
        <ele>115.4</ele>
        <time>2023-05-31T13:58:10Z</time>
      </trkpt>
      <trkpt lat="49.86914" lon="2.03672">
        <ele>115.3</ele>
        <time>2023-05-31T13:58:12Z</time>
      </trkpt>
      <trkpt lat="49.86916" lon="2.03672">
        <ele>115.3</ele>
        <time>2023-05-31T13:58:13Z</time>
      </trkpt>
      <trkpt lat="49.86917" lon="2.03672">
        <ele>115.3</ele>
        <time>2023-05-31T13:58:14Z</time>
      </trkpt>
      <trkpt lat="49.86918" lon="2.03672">
        <ele>115.3</ele>
        <time>2023-05-31T13:58:15Z</time>
      </trkpt>
      <trkpt lat="49.8692" lon="2.03672">
        <ele>115.2</ele>
        <time>2023-05-31T13:58:16Z</time>
      </trkpt>
      <trkpt lat="49.86921" lon="2.03672">
        <ele>115.2</ele>
        <time>2023-05-31T13:58:17Z</time>
      </trkpt>
      <trkpt lat="49.86922" lon="2.03672">
        <ele>115.2</ele>
        <time>2023-05-31T13:58:18Z</time>
      </trkpt>
      <trkpt lat="49.86923" lon="2.03672">
        <ele>115.2</ele>
        <time>2023-05-31T13:58:19Z</time>
      </trkpt>
      <trkpt lat="49.86924" lon="2.03672">
        <ele>115.2</ele>
        <time>2023-05-31T13:58:20Z</time>
      </trkpt>
      <trkpt lat="49.86926" lon="2.03672">
        <ele>115.1</ele>
        <time>2023-05-31T13:58:22Z</time>
      </trkpt>
      <trkpt lat="49.86928" lon="2.03672">
        <ele>115.1</ele>
        <time>2023-05-31T13:58:23Z</time>
      </trkpt>
      <trkpt lat="49.86929" lon="2.03672">
        <ele>115.1</ele>
        <time>2023-05-31T13:58:24Z</time>
      </trkpt>
      <trkpt lat="49.8693" lon="2.03672">
        <ele>115.1</ele>
        <time>2023-05-31T13:58:25Z</time>
      </trkpt>
      <trkpt lat="49.86931" lon="2.03673">
        <ele>115.1</ele>
        <time>2023-05-31T13:58:26Z</time>
      </trkpt>
      <trkpt lat="49.86932" lon="2.03673">
        <ele>115.1</ele>
        <time>2023-05-31T13:58:27Z</time>
      </trkpt>
      <trkpt lat="49.86934" lon="2.03673">
        <ele>115</ele>
        <time>2023-05-31T13:58:29Z</time>
      </trkpt>
      <trkpt lat="49.86936" lon="2.03673">
        <ele>115</ele>
        <time>2023-05-31T13:58:30Z</time>
      </trkpt>
      <trkpt lat="49.86937" lon="2.03673">
        <ele>115</ele>
        <time>2023-05-31T13:58:31Z</time>
      </trkpt>
      <trkpt lat="49.86938" lon="2.03673">
        <ele>115</ele>
        <time>2023-05-31T13:58:32Z</time>
      </trkpt>
      <trkpt lat="49.86939" lon="2.03674">
        <ele>115</ele>
        <time>2023-05-31T13:58:33Z</time>
      </trkpt>
      <trkpt lat="49.86941" lon="2.03674">
        <ele>115</ele>
        <time>2023-05-31T13:58:34Z</time>
      </trkpt>
      <trkpt lat="49.86942" lon="2.03674">
        <ele>115</ele>
        <time>2023-05-31T13:58:35Z</time>
      </trkpt>
      <trkpt lat="49.86943" lon="2.03674">
        <ele>115</ele>
        <time>2023-05-31T13:58:36Z</time>
      </trkpt>
      <trkpt lat="49.86945" lon="2.03674">
        <ele>115</ele>
        <time>2023-05-31T13:58:37Z</time>
      </trkpt>
      <trkpt lat="49.86946" lon="2.03674">
        <ele>115</ele>
        <time>2023-05-31T13:58:39Z</time>
      </trkpt>
      <trkpt lat="49.86947" lon="2.03674">
        <ele>115</ele>
        <time>2023-05-31T13:58:40Z</time>
      </trkpt>
      <trkpt lat="49.86948" lon="2.03674">
        <ele>115</ele>
        <time>2023-05-31T13:58:41Z</time>
      </trkpt>
      <trkpt lat="49.86949" lon="2.03674">
        <ele>115</ele>
        <time>2023-05-31T13:58:42Z</time>
      </trkpt>
      <trkpt lat="49.8695" lon="2.03674">
        <ele>115</ele>
        <time>2023-05-31T13:58:43Z</time>
      </trkpt>
      <trkpt lat="49.86952" lon="2.03674">
        <ele>115</ele>
        <time>2023-05-31T13:58:44Z</time>
      </trkpt>
      <trkpt lat="49.86953" lon="2.03675">
        <ele>115</ele>
        <time>2023-05-31T13:58:46Z</time>
      </trkpt>
      <trkpt lat="49.86954" lon="2.03675">
        <ele>115</ele>
        <time>2023-05-31T13:58:47Z</time>
      </trkpt>
      <trkpt lat="49.86955" lon="2.03675">
        <ele>115</ele>
        <time>2023-05-31T13:58:48Z</time>
      </trkpt>
      <trkpt lat="49.86957" lon="2.03675">
        <ele>115.1</ele>
        <time>2023-05-31T13:58:49Z</time>
      </trkpt>
      <trkpt lat="49.86958" lon="2.03675">
        <ele>115.1</ele>
        <time>2023-05-31T13:58:50Z</time>
      </trkpt>
      <trkpt lat="49.86959" lon="2.03675">
        <ele>115.1</ele>
        <time>2023-05-31T13:58:51Z</time>
      </trkpt>
      <trkpt lat="49.8696" lon="2.03676">
        <ele>115.1</ele>
        <time>2023-05-31T13:58:52Z</time>
      </trkpt>
      <trkpt lat="49.86961" lon="2.03676">
        <ele>115.1</ele>
        <time>2023-05-31T13:58:53Z</time>
      </trkpt>
      <trkpt lat="49.86963" lon="2.03677">
        <ele>115.1</ele>
        <time>2023-05-31T13:58:55Z</time>
      </trkpt>
      <trkpt lat="49.86964" lon="2.03677">
        <ele>115.1</ele>
        <time>2023-05-31T13:58:56Z</time>
      </trkpt>
      <trkpt lat="49.86966" lon="2.03678">
        <ele>115.1</ele>
        <time>2023-05-31T13:58:57Z</time>
      </trkpt>
      <trkpt lat="49.86967" lon="2.03678">
        <ele>115.1</ele>
        <time>2023-05-31T13:58:58Z</time>
      </trkpt>
      <trkpt lat="49.86968" lon="2.03678">
        <ele>115.1</ele>
        <time>2023-05-31T13:58:59Z</time>
      </trkpt>
      <trkpt lat="49.86969" lon="2.03678">
        <ele>115.1</ele>
        <time>2023-05-31T13:59:00Z</time>
      </trkpt>
      <trkpt lat="49.8697" lon="2.03678">
        <ele>115.2</ele>
        <time>2023-05-31T13:59:01Z</time>
      </trkpt>
      <trkpt lat="49.86972" lon="2.03678">
        <ele>115.2</ele>
        <time>2023-05-31T13:59:02Z</time>
      </trkpt>
      <trkpt lat="49.86973" lon="2.03678">
        <ele>115.2</ele>
        <time>2023-05-31T13:59:03Z</time>
      </trkpt>
      <trkpt lat="49.86974" lon="2.03679">
        <ele>115.1</ele>
        <time>2023-05-31T13:59:04Z</time>
      </trkpt>
      <trkpt lat="49.86976" lon="2.03679">
        <ele>115.1</ele>
        <time>2023-05-31T13:59:06Z</time>
      </trkpt>
      <trkpt lat="49.86977" lon="2.03679">
        <ele>115.1</ele>
        <time>2023-05-31T13:59:07Z</time>
      </trkpt>
      <trkpt lat="49.86978" lon="2.03679">
        <ele>115.1</ele>
        <time>2023-05-31T13:59:08Z</time>
      </trkpt>
      <trkpt lat="49.8698" lon="2.03679">
        <ele>115.1</ele>
        <time>2023-05-31T13:59:09Z</time>
      </trkpt>
      <trkpt lat="49.86981" lon="2.03679">
        <ele>115.1</ele>
        <time>2023-05-31T13:59:10Z</time>
      </trkpt>
      <trkpt lat="49.86981" lon="2.0368">
        <ele>115.1</ele>
        <time>2023-05-31T13:59:11Z</time>
      </trkpt>
      <trkpt lat="49.86983" lon="2.0368">
        <ele>115.1</ele>
        <time>2023-05-31T13:59:12Z</time>
      </trkpt>
      <trkpt lat="49.86984" lon="2.0368">
        <ele>115</ele>
        <time>2023-05-31T13:59:13Z</time>
      </trkpt>
      <trkpt lat="49.86985" lon="2.0368">
        <ele>115</ele>
        <time>2023-05-31T13:59:14Z</time>
      </trkpt>
      <trkpt lat="49.86987" lon="2.0368">
        <ele>115</ele>
        <time>2023-05-31T13:59:15Z</time>
      </trkpt>
      <trkpt lat="49.86988" lon="2.0368">
        <ele>115</ele>
        <time>2023-05-31T13:59:17Z</time>
      </trkpt>
      <trkpt lat="49.86989" lon="2.0368">
        <ele>115</ele>
        <time>2023-05-31T13:59:18Z</time>
      </trkpt>
      <trkpt lat="49.86991" lon="2.0368">
        <ele>114.9</ele>
        <time>2023-05-31T13:59:19Z</time>
      </trkpt>
      <trkpt lat="49.86993" lon="2.0368">
        <ele>114.9</ele>
        <time>2023-05-31T13:59:21Z</time>
      </trkpt>
      <trkpt lat="49.86994" lon="2.0368">
        <ele>114.9</ele>
        <time>2023-05-31T13:59:22Z</time>
      </trkpt>
      <trkpt lat="49.86995" lon="2.0368">
        <ele>114.9</ele>
        <time>2023-05-31T13:59:23Z</time>
      </trkpt>
      <trkpt lat="49.86996" lon="2.0368">
        <ele>114.9</ele>
        <time>2023-05-31T13:59:24Z</time>
      </trkpt>
      <trkpt lat="49.86998" lon="2.0368">
        <ele>114.8</ele>
        <time>2023-05-31T13:59:25Z</time>
      </trkpt>
      <trkpt lat="49.86999" lon="2.0368">
        <ele>114.8</ele>
        <time>2023-05-31T13:59:26Z</time>
      </trkpt>
      <trkpt lat="49.87" lon="2.0368">
        <ele>114.8</ele>
        <time>2023-05-31T13:59:27Z</time>
      </trkpt>
      <trkpt lat="49.87002" lon="2.03679">
        <ele>114.8</ele>
        <time>2023-05-31T13:59:28Z</time>
      </trkpt>
      <trkpt lat="49.87003" lon="2.03679">
        <ele>114.7</ele>
        <time>2023-05-31T13:59:30Z</time>
      </trkpt>
      <trkpt lat="49.87004" lon="2.03679">
        <ele>114.7</ele>
        <time>2023-05-31T13:59:31Z</time>
      </trkpt>
      <trkpt lat="49.87005" lon="2.03679">
        <ele>114.7</ele>
        <time>2023-05-31T13:59:32Z</time>
      </trkpt>
      <trkpt lat="49.87006" lon="2.03679">
        <ele>114.7</ele>
        <time>2023-05-31T13:59:33Z</time>
      </trkpt>
      <trkpt lat="49.87008" lon="2.03679">
        <ele>114.6</ele>
        <time>2023-05-31T13:59:34Z</time>
      </trkpt>
      <trkpt lat="49.87009" lon="2.03679">
        <ele>114.6</ele>
        <time>2023-05-31T13:59:36Z</time>
      </trkpt>
      <trkpt lat="49.8701" lon="2.0368">
        <ele>114.6</ele>
        <time>2023-05-31T13:59:37Z</time>
      </trkpt>
      <trkpt lat="49.87012" lon="2.0368">
        <ele>114.6</ele>
        <time>2023-05-31T13:59:38Z</time>
      </trkpt>
      <trkpt lat="49.87013" lon="2.0368">
        <ele>114.6</ele>
        <time>2023-05-31T13:59:39Z</time>
      </trkpt>
      <trkpt lat="49.87014" lon="2.0368">
        <ele>114.5</ele>
        <time>2023-05-31T13:59:40Z</time>
      </trkpt>
      <trkpt lat="49.87016" lon="2.0368">
        <ele>114.5</ele>
        <time>2023-05-31T13:59:42Z</time>
      </trkpt>
      <trkpt lat="49.87017" lon="2.0368">
        <ele>114.5</ele>
        <time>2023-05-31T13:59:43Z</time>
      </trkpt>
      <trkpt lat="49.87019" lon="2.03681">
        <ele>114.4</ele>
        <time>2023-05-31T13:59:44Z</time>
      </trkpt>
      <trkpt lat="49.8702" lon="2.03681">
        <ele>114.4</ele>
        <time>2023-05-31T13:59:45Z</time>
      </trkpt>
      <trkpt lat="49.87021" lon="2.03682">
        <ele>114.4</ele>
        <time>2023-05-31T13:59:46Z</time>
      </trkpt>
      <trkpt lat="49.87022" lon="2.03682">
        <ele>114.4</ele>
        <time>2023-05-31T13:59:47Z</time>
      </trkpt>
      <trkpt lat="49.87023" lon="2.03683">
        <ele>114.4</ele>
        <time>2023-05-31T13:59:48Z</time>
      </trkpt>
      <trkpt lat="49.87024" lon="2.03683">
        <ele>114.4</ele>
        <time>2023-05-31T13:59:49Z</time>
      </trkpt>
      <trkpt lat="49.87025" lon="2.03684">
        <ele>114.4</ele>
        <time>2023-05-31T13:59:50Z</time>
      </trkpt>
      <trkpt lat="49.87027" lon="2.03684">
        <ele>114.4</ele>
        <time>2023-05-31T13:59:51Z</time>
      </trkpt>
      <trkpt lat="49.87028" lon="2.03684">
        <ele>114.4</ele>
        <time>2023-05-31T13:59:53Z</time>
      </trkpt>
      <trkpt lat="49.87029" lon="2.03685">
        <ele>114.4</ele>
        <time>2023-05-31T13:59:54Z</time>
      </trkpt>
      <trkpt lat="49.87031" lon="2.03686">
        <ele>114.4</ele>
        <time>2023-05-31T13:59:55Z</time>
      </trkpt>
      <trkpt lat="49.87033" lon="2.03687">
        <ele>114.4</ele>
        <time>2023-05-31T13:59:56Z</time>
      </trkpt>
      <trkpt lat="49.87034" lon="2.03687">
        <ele>114.4</ele>
        <time>2023-05-31T13:59:57Z</time>
      </trkpt>
      <trkpt lat="49.87034" lon="2.03688">
        <ele>114.4</ele>
        <time>2023-05-31T13:59:58Z</time>
      </trkpt>
      <trkpt lat="49.87037" lon="2.03689">
        <ele>114.4</ele>
        <time>2023-05-31T14:00:00Z</time>
      </trkpt>
      <trkpt lat="49.87038" lon="2.03689">
        <ele>114.4</ele>
        <time>2023-05-31T14:00:01Z</time>
      </trkpt>
      <trkpt lat="49.8704" lon="2.0369">
        <ele>114.4</ele>
        <time>2023-05-31T14:00:03Z</time>
      </trkpt>
      <trkpt lat="49.87041" lon="2.03691">
        <ele>114.4</ele>
        <time>2023-05-31T14:00:04Z</time>
      </trkpt>
      <trkpt lat="49.87041" lon="2.03691">
        <ele>114.4</ele>
        <time>2023-05-31T14:00:05Z</time>
      </trkpt>
      <trkpt lat="49.87043" lon="2.03692">
        <ele>114.4</ele>
        <time>2023-05-31T14:00:06Z</time>
      </trkpt>
      <trkpt lat="49.87044" lon="2.03692">
        <ele>114.4</ele>
        <time>2023-05-31T14:00:07Z</time>
      </trkpt>
      <trkpt lat="49.87045" lon="2.03693">
        <ele>114.4</ele>
        <time>2023-05-31T14:00:08Z</time>
      </trkpt>
      <trkpt lat="49.87046" lon="2.03693">
        <ele>114.4</ele>
        <time>2023-05-31T14:00:09Z</time>
      </trkpt>
      <trkpt lat="49.87047" lon="2.03694">
        <ele>114.4</ele>
        <time>2023-05-31T14:00:11Z</time>
      </trkpt>
      <trkpt lat="49.87049" lon="2.03694">
        <ele>114.4</ele>
        <time>2023-05-31T14:00:12Z</time>
      </trkpt>
      <trkpt lat="49.8705" lon="2.03695">
        <ele>114.4</ele>
        <time>2023-05-31T14:00:13Z</time>
      </trkpt>
      <trkpt lat="49.87051" lon="2.03695">
        <ele>114.4</ele>
        <time>2023-05-31T14:00:14Z</time>
      </trkpt>
      <trkpt lat="49.87052" lon="2.03695">
        <ele>114.4</ele>
        <time>2023-05-31T14:00:15Z</time>
      </trkpt>
      <trkpt lat="49.87053" lon="2.03696">
        <ele>114.4</ele>
        <time>2023-05-31T14:00:16Z</time>
      </trkpt>
      <trkpt lat="49.87054" lon="2.03696">
        <ele>114.4</ele>
        <time>2023-05-31T14:00:18Z</time>
      </trkpt>
      <trkpt lat="49.87055" lon="2.03697">
        <ele>114.4</ele>
        <time>2023-05-31T14:00:19Z</time>
      </trkpt>
      <trkpt lat="49.87056" lon="2.03697">
        <ele>114.4</ele>
        <time>2023-05-31T14:00:20Z</time>
      </trkpt>
      <trkpt lat="49.87057" lon="2.03697">
        <ele>114.4</ele>
        <time>2023-05-31T14:00:21Z</time>
      </trkpt>
      <trkpt lat="49.87058" lon="2.03698">
        <ele>114.4</ele>
        <time>2023-05-31T14:00:22Z</time>
      </trkpt>
      <trkpt lat="49.8706" lon="2.03699">
        <ele>114.4</ele>
        <time>2023-05-31T14:00:24Z</time>
      </trkpt>
      <trkpt lat="49.87061" lon="2.037">
        <ele>114.4</ele>
        <time>2023-05-31T14:00:26Z</time>
      </trkpt>
      <trkpt lat="49.87062" lon="2.03701">
        <ele>114.4</ele>
        <time>2023-05-31T14:00:27Z</time>
      </trkpt>
      <trkpt lat="49.87063" lon="2.03702">
        <ele>114.4</ele>
        <time>2023-05-31T14:00:28Z</time>
      </trkpt>
      <trkpt lat="49.87064" lon="2.03703">
        <ele>114.4</ele>
        <time>2023-05-31T14:00:29Z</time>
      </trkpt>
      <trkpt lat="49.87065" lon="2.03703">
        <ele>114.4</ele>
        <time>2023-05-31T14:00:30Z</time>
      </trkpt>
      <trkpt lat="49.87066" lon="2.03704">
        <ele>114.4</ele>
        <time>2023-05-31T14:00:31Z</time>
      </trkpt>
      <trkpt lat="49.87067" lon="2.03705">
        <ele>114.4</ele>
        <time>2023-05-31T14:00:32Z</time>
      </trkpt>
      <trkpt lat="49.87068" lon="2.03706">
        <ele>114.4</ele>
        <time>2023-05-31T14:00:33Z</time>
      </trkpt>
      <trkpt lat="49.87069" lon="2.03706">
        <ele>114.4</ele>
        <time>2023-05-31T14:00:35Z</time>
      </trkpt>
      <trkpt lat="49.8707" lon="2.03706">
        <ele>114.4</ele>
        <time>2023-05-31T14:00:36Z</time>
      </trkpt>
      <trkpt lat="49.87071" lon="2.03707">
        <ele>114.4</ele>
        <time>2023-05-31T14:00:37Z</time>
      </trkpt>
      <trkpt lat="49.87073" lon="2.03707">
        <ele>114.4</ele>
        <time>2023-05-31T14:00:38Z</time>
      </trkpt>
      <trkpt lat="49.87074" lon="2.03707">
        <ele>114.4</ele>
        <time>2023-05-31T14:00:39Z</time>
      </trkpt>
      <trkpt lat="49.87074" lon="2.03708">
        <ele>114.4</ele>
        <time>2023-05-31T14:00:41Z</time>
      </trkpt>
      <trkpt lat="49.87075" lon="2.03709">
        <ele>114.3</ele>
        <time>2023-05-31T14:00:42Z</time>
      </trkpt>
      <trkpt lat="49.87076" lon="2.03709">
        <ele>114.3</ele>
        <time>2023-05-31T14:00:43Z</time>
      </trkpt>
      <trkpt lat="49.87077" lon="2.0371">
        <ele>114.3</ele>
        <time>2023-05-31T14:00:44Z</time>
      </trkpt>
      <trkpt lat="49.87078" lon="2.03711">
        <ele>114.3</ele>
        <time>2023-05-31T14:00:45Z</time>
      </trkpt>
      <trkpt lat="49.87079" lon="2.03712">
        <ele>114.3</ele>
        <time>2023-05-31T14:00:46Z</time>
      </trkpt>
      <trkpt lat="49.8708" lon="2.03713">
        <ele>114.3</ele>
        <time>2023-05-31T14:00:47Z</time>
      </trkpt>
      <trkpt lat="49.87081" lon="2.03715">
        <ele>114.3</ele>
        <time>2023-05-31T14:00:49Z</time>
      </trkpt>
      <trkpt lat="49.87083" lon="2.03716">
        <ele>114.3</ele>
        <time>2023-05-31T14:00:50Z</time>
      </trkpt>
      <trkpt lat="49.87084" lon="2.03717">
        <ele>114.2</ele>
        <time>2023-05-31T14:00:51Z</time>
      </trkpt>
      <trkpt lat="49.87085" lon="2.03717">
        <ele>114.2</ele>
        <time>2023-05-31T14:00:52Z</time>
      </trkpt>
      <trkpt lat="49.87087" lon="2.03718">
        <ele>114.2</ele>
        <time>2023-05-31T14:00:53Z</time>
      </trkpt>
      <trkpt lat="49.87088" lon="2.03719">
        <ele>114.2</ele>
        <time>2023-05-31T14:00:55Z</time>
      </trkpt>
      <trkpt lat="49.8709" lon="2.0372">
        <ele>114.2</ele>
        <time>2023-05-31T14:00:56Z</time>
      </trkpt>
      <trkpt lat="49.87091" lon="2.03721">
        <ele>114.2</ele>
        <time>2023-05-31T14:00:57Z</time>
      </trkpt>
      <trkpt lat="49.87092" lon="2.03722">
        <ele>114.2</ele>
        <time>2023-05-31T14:00:58Z</time>
      </trkpt>
      <trkpt lat="49.87094" lon="2.03722">
        <ele>114.2</ele>
        <time>2023-05-31T14:00:59Z</time>
      </trkpt>
      <trkpt lat="49.87096" lon="2.03724">
        <ele>114.1</ele>
        <time>2023-05-31T14:01:00Z</time>
      </trkpt>
      <trkpt lat="49.87097" lon="2.03725">
        <ele>114.1</ele>
        <time>2023-05-31T14:01:02Z</time>
      </trkpt>
      <trkpt lat="49.87098" lon="2.03726">
        <ele>114.1</ele>
        <time>2023-05-31T14:01:03Z</time>
      </trkpt>
      <trkpt lat="49.87099" lon="2.03726">
        <ele>114.1</ele>
        <time>2023-05-31T14:01:04Z</time>
      </trkpt>
      <trkpt lat="49.87099" lon="2.03727">
        <ele>114.1</ele>
        <time>2023-05-31T14:01:05Z</time>
      </trkpt>
      <trkpt lat="49.87101" lon="2.03729">
        <ele>114.1</ele>
        <time>2023-05-31T14:01:06Z</time>
      </trkpt>
      <trkpt lat="49.87102" lon="2.03729">
        <ele>114.1</ele>
        <time>2023-05-31T14:01:07Z</time>
      </trkpt>
      <trkpt lat="49.87103" lon="2.0373">
        <ele>114.1</ele>
        <time>2023-05-31T14:01:08Z</time>
      </trkpt>
      <trkpt lat="49.87105" lon="2.03732">
        <ele>114.1</ele>
        <time>2023-05-31T14:01:09Z</time>
      </trkpt>
      <trkpt lat="49.87105" lon="2.03732">
        <ele>114.1</ele>
        <time>2023-05-31T14:01:10Z</time>
      </trkpt>
      <trkpt lat="49.87106" lon="2.03733">
        <ele>114.1</ele>
        <time>2023-05-31T14:01:11Z</time>
      </trkpt>
      <trkpt lat="49.87108" lon="2.03735">
        <ele>114.1</ele>
        <time>2023-05-31T14:01:12Z</time>
      </trkpt>
      <trkpt lat="49.87109" lon="2.03736">
        <ele>114.1</ele>
        <time>2023-05-31T14:01:14Z</time>
      </trkpt>
      <trkpt lat="49.8711" lon="2.03736">
        <ele>114.1</ele>
        <time>2023-05-31T14:01:15Z</time>
      </trkpt>
      <trkpt lat="49.87111" lon="2.03737">
        <ele>114.1</ele>
        <time>2023-05-31T14:01:16Z</time>
      </trkpt>
      <trkpt lat="49.87112" lon="2.03738">
        <ele>114.1</ele>
        <time>2023-05-31T14:01:17Z</time>
      </trkpt>
      <trkpt lat="49.87113" lon="2.03739">
        <ele>114.1</ele>
        <time>2023-05-31T14:01:18Z</time>
      </trkpt>
      <trkpt lat="49.87113" lon="2.03741">
        <ele>114.1</ele>
        <time>2023-05-31T14:01:19Z</time>
      </trkpt>
      <trkpt lat="49.87114" lon="2.03742">
        <ele>114.1</ele>
        <time>2023-05-31T14:01:20Z</time>
      </trkpt>
      <trkpt lat="49.87115" lon="2.03743">
        <ele>114.1</ele>
        <time>2023-05-31T14:01:21Z</time>
      </trkpt>
      <trkpt lat="49.87116" lon="2.03744">
        <ele>114.1</ele>
        <time>2023-05-31T14:01:22Z</time>
      </trkpt>
      <trkpt lat="49.87116" lon="2.03745">
        <ele>114.1</ele>
        <time>2023-05-31T14:01:24Z</time>
      </trkpt>
      <trkpt lat="49.87117" lon="2.03746">
        <ele>114.1</ele>
        <time>2023-05-31T14:01:25Z</time>
      </trkpt>
      <trkpt lat="49.87118" lon="2.03747">
        <ele>114.1</ele>
        <time>2023-05-31T14:01:26Z</time>
      </trkpt>
      <trkpt lat="49.87119" lon="2.03748">
        <ele>114.1</ele>
        <time>2023-05-31T14:01:27Z</time>
      </trkpt>
      <trkpt lat="49.87119" lon="2.0375">
        <ele>114.1</ele>
        <time>2023-05-31T14:01:28Z</time>
      </trkpt>
      <trkpt lat="49.8712" lon="2.03751">
        <ele>114.1</ele>
        <time>2023-05-31T14:01:29Z</time>
      </trkpt>
      <trkpt lat="49.87121" lon="2.03752">
        <ele>114.1</ele>
        <time>2023-05-31T14:01:30Z</time>
      </trkpt>
      <trkpt lat="49.87122" lon="2.03754">
        <ele>114.1</ele>
        <time>2023-05-31T14:01:31Z</time>
      </trkpt>
      <trkpt lat="49.87123" lon="2.03755">
        <ele>114.1</ele>
        <time>2023-05-31T14:01:33Z</time>
      </trkpt>
      <trkpt lat="49.87123" lon="2.03756">
        <ele>114.1</ele>
        <time>2023-05-31T14:01:34Z</time>
      </trkpt>
      <trkpt lat="49.87124" lon="2.03757">
        <ele>114.1</ele>
        <time>2023-05-31T14:01:35Z</time>
      </trkpt>
      <trkpt lat="49.87125" lon="2.03759">
        <ele>114.1</ele>
        <time>2023-05-31T14:01:36Z</time>
      </trkpt>
      <trkpt lat="49.87126" lon="2.0376">
        <ele>114</ele>
        <time>2023-05-31T14:01:38Z</time>
      </trkpt>
      <trkpt lat="49.87127" lon="2.03762">
        <ele>114</ele>
        <time>2023-05-31T14:01:39Z</time>
      </trkpt>
      <trkpt lat="49.87128" lon="2.03763">
        <ele>114</ele>
        <time>2023-05-31T14:01:40Z</time>
      </trkpt>
      <trkpt lat="49.87129" lon="2.03764">
        <ele>114</ele>
        <time>2023-05-31T14:01:41Z</time>
      </trkpt>
      <trkpt lat="49.8713" lon="2.03765">
        <ele>114</ele>
        <time>2023-05-31T14:01:42Z</time>
      </trkpt>
      <trkpt lat="49.87131" lon="2.03767">
        <ele>114</ele>
        <time>2023-05-31T14:01:43Z</time>
      </trkpt>
      <trkpt lat="49.87132" lon="2.03769">
        <ele>113.9</ele>
        <time>2023-05-31T14:01:44Z</time>
      </trkpt>
      <trkpt lat="49.87133" lon="2.0377">
        <ele>113.9</ele>
        <time>2023-05-31T14:01:45Z</time>
      </trkpt>
      <trkpt lat="49.87134" lon="2.03771">
        <ele>113.9</ele>
        <time>2023-05-31T14:01:46Z</time>
      </trkpt>
      <trkpt lat="49.87135" lon="2.03772">
        <ele>113.9</ele>
        <time>2023-05-31T14:01:48Z</time>
      </trkpt>
      <trkpt lat="49.87135" lon="2.03773">
        <ele>113.9</ele>
        <time>2023-05-31T14:01:49Z</time>
      </trkpt>
      <trkpt lat="49.87136" lon="2.03774">
        <ele>113.8</ele>
        <time>2023-05-31T14:01:50Z</time>
      </trkpt>
      <trkpt lat="49.87137" lon="2.03775">
        <ele>113.8</ele>
        <time>2023-05-31T14:01:51Z</time>
      </trkpt>
      <trkpt lat="49.87138" lon="2.03777">
        <ele>113.8</ele>
        <time>2023-05-31T14:01:52Z</time>
      </trkpt>
      <trkpt lat="49.87138" lon="2.03778">
        <ele>113.8</ele>
        <time>2023-05-31T14:01:53Z</time>
      </trkpt>
      <trkpt lat="49.8714" lon="2.03781">
        <ele>113.7</ele>
        <time>2023-05-31T14:01:54Z</time>
      </trkpt>
      <trkpt lat="49.8714" lon="2.03782">
        <ele>113.7</ele>
        <time>2023-05-31T14:01:56Z</time>
      </trkpt>
      <trkpt lat="49.87141" lon="2.03783">
        <ele>113.7</ele>
        <time>2023-05-31T14:01:57Z</time>
      </trkpt>
      <trkpt lat="49.87141" lon="2.03784">
        <ele>113.7</ele>
        <time>2023-05-31T14:01:58Z</time>
      </trkpt>
      <trkpt lat="49.87142" lon="2.03786">
        <ele>113.7</ele>
        <time>2023-05-31T14:01:59Z</time>
      </trkpt>
      <trkpt lat="49.87143" lon="2.03787">
        <ele>113.7</ele>
        <time>2023-05-31T14:02:00Z</time>
      </trkpt>
      <trkpt lat="49.87144" lon="2.03788">
        <ele>113.7</ele>
        <time>2023-05-31T14:02:01Z</time>
      </trkpt>
      <trkpt lat="49.87144" lon="2.0379">
        <ele>113.7</ele>
        <time>2023-05-31T14:02:02Z</time>
      </trkpt>
      <trkpt lat="49.87145" lon="2.03791">
        <ele>113.7</ele>
        <time>2023-05-31T14:02:03Z</time>
      </trkpt>
      <trkpt lat="49.87145" lon="2.03792">
        <ele>113.7</ele>
        <time>2023-05-31T14:02:04Z</time>
      </trkpt>
      <trkpt lat="49.87146" lon="2.03793">
        <ele>113.7</ele>
        <time>2023-05-31T14:02:06Z</time>
      </trkpt>
      <trkpt lat="49.87147" lon="2.03794">
        <ele>113.7</ele>
        <time>2023-05-31T14:02:07Z</time>
      </trkpt>
      <trkpt lat="49.87147" lon="2.03795">
        <ele>113.7</ele>
        <time>2023-05-31T14:02:08Z</time>
      </trkpt>
      <trkpt lat="49.87148" lon="2.03797">
        <ele>113.7</ele>
        <time>2023-05-31T14:02:09Z</time>
      </trkpt>
      <trkpt lat="49.87149" lon="2.03798">
        <ele>113.7</ele>
        <time>2023-05-31T14:02:10Z</time>
      </trkpt>
      <trkpt lat="49.87151" lon="2.03801">
        <ele>113.6</ele>
        <time>2023-05-31T14:02:11Z</time>
      </trkpt>
      <trkpt lat="49.87152" lon="2.03803">
        <ele>113.6</ele>
        <time>2023-05-31T14:02:13Z</time>
      </trkpt>
      <trkpt lat="49.87153" lon="2.03804">
        <ele>113.6</ele>
        <time>2023-05-31T14:02:14Z</time>
      </trkpt>
      <trkpt lat="49.87153" lon="2.03805">
        <ele>113.6</ele>
        <time>2023-05-31T14:02:15Z</time>
      </trkpt>
      <trkpt lat="49.87154" lon="2.03806">
        <ele>113.6</ele>
        <time>2023-05-31T14:02:16Z</time>
      </trkpt>
      <trkpt lat="49.87156" lon="2.03808">
        <ele>113.6</ele>
        <time>2023-05-31T14:02:18Z</time>
      </trkpt>
      <trkpt lat="49.87156" lon="2.03809">
        <ele>113.6</ele>
        <time>2023-05-31T14:02:19Z</time>
      </trkpt>
      <trkpt lat="49.87157" lon="2.0381">
        <ele>113.6</ele>
        <time>2023-05-31T14:02:20Z</time>
      </trkpt>
      <trkpt lat="49.87158" lon="2.03812">
        <ele>113.6</ele>
        <time>2023-05-31T14:02:21Z</time>
      </trkpt>
      <trkpt lat="49.87159" lon="2.03813">
        <ele>113.6</ele>
        <time>2023-05-31T14:02:22Z</time>
      </trkpt>
      <trkpt lat="49.8716" lon="2.03814">
        <ele>113.6</ele>
        <time>2023-05-31T14:02:23Z</time>
      </trkpt>
      <trkpt lat="49.87161" lon="2.03815">
        <ele>113.5</ele>
        <time>2023-05-31T14:02:24Z</time>
      </trkpt>
      <trkpt lat="49.87161" lon="2.03816">
        <ele>113.5</ele>
        <time>2023-05-31T14:02:26Z</time>
      </trkpt>
      <trkpt lat="49.87162" lon="2.03817">
        <ele>113.5</ele>
        <time>2023-05-31T14:02:27Z</time>
      </trkpt>
      <trkpt lat="49.87163" lon="2.03818">
        <ele>113.5</ele>
        <time>2023-05-31T14:02:28Z</time>
      </trkpt>
      <trkpt lat="49.87164" lon="2.0382">
        <ele>113.5</ele>
        <time>2023-05-31T14:02:29Z</time>
      </trkpt>
      <trkpt lat="49.87164" lon="2.03821">
        <ele>113.4</ele>
        <time>2023-05-31T14:02:30Z</time>
      </trkpt>
      <trkpt lat="49.87165" lon="2.03822">
        <ele>113.4</ele>
        <time>2023-05-31T14:02:31Z</time>
      </trkpt>
      <trkpt lat="49.87166" lon="2.03823">
        <ele>113.4</ele>
        <time>2023-05-31T14:02:32Z</time>
      </trkpt>
      <trkpt lat="49.87167" lon="2.03826">
        <ele>113.4</ele>
        <time>2023-05-31T14:02:34Z</time>
      </trkpt>
      <trkpt lat="49.87168" lon="2.03828">
        <ele>113.3</ele>
        <time>2023-05-31T14:02:35Z</time>
      </trkpt>
      <trkpt lat="49.87169" lon="2.03829">
        <ele>113.3</ele>
        <time>2023-05-31T14:02:36Z</time>
      </trkpt>
      <trkpt lat="49.8717" lon="2.03831">
        <ele>113.3</ele>
        <time>2023-05-31T14:02:38Z</time>
      </trkpt>
      <trkpt lat="49.8717" lon="2.03832">
        <ele>113.3</ele>
        <time>2023-05-31T14:02:39Z</time>
      </trkpt>
      <trkpt lat="49.87172" lon="2.03834">
        <ele>113.2</ele>
        <time>2023-05-31T14:02:40Z</time>
      </trkpt>
      <trkpt lat="49.87172" lon="2.03835">
        <ele>113.2</ele>
        <time>2023-05-31T14:02:41Z</time>
      </trkpt>
      <trkpt lat="49.87173" lon="2.03836">
        <ele>113.2</ele>
        <time>2023-05-31T14:02:42Z</time>
      </trkpt>
      <trkpt lat="49.87174" lon="2.03838">
        <ele>113.2</ele>
        <time>2023-05-31T14:02:43Z</time>
      </trkpt>
      <trkpt lat="49.87175" lon="2.0384">
        <ele>113.2</ele>
        <time>2023-05-31T14:02:44Z</time>
      </trkpt>
      <trkpt lat="49.87177" lon="2.03842">
        <ele>113.1</ele>
        <time>2023-05-31T14:02:45Z</time>
      </trkpt>
      <trkpt lat="49.87177" lon="2.03843">
        <ele>113.1</ele>
        <time>2023-05-31T14:02:46Z</time>
      </trkpt>
      <trkpt lat="49.87178" lon="2.03844">
        <ele>113.1</ele>
        <time>2023-05-31T14:02:47Z</time>
      </trkpt>
      <trkpt lat="49.87178" lon="2.03845">
        <ele>113.1</ele>
        <time>2023-05-31T14:02:49Z</time>
      </trkpt>
      <trkpt lat="49.87179" lon="2.03847">
        <ele>113.1</ele>
        <time>2023-05-31T14:02:50Z</time>
      </trkpt>
      <trkpt lat="49.87181" lon="2.03849">
        <ele>113.1</ele>
        <time>2023-05-31T14:02:52Z</time>
      </trkpt>
      <trkpt lat="49.87182" lon="2.0385">
        <ele>113.1</ele>
        <time>2023-05-31T14:02:53Z</time>
      </trkpt>
      <trkpt lat="49.87183" lon="2.03851">
        <ele>113.2</ele>
        <time>2023-05-31T14:02:54Z</time>
      </trkpt>
      <trkpt lat="49.87184" lon="2.03853">
        <ele>113.2</ele>
        <time>2023-05-31T14:02:55Z</time>
      </trkpt>
      <trkpt lat="49.87185" lon="2.03854">
        <ele>113.2</ele>
        <time>2023-05-31T14:02:56Z</time>
      </trkpt>
      <trkpt lat="49.87186" lon="2.03855">
        <ele>113.2</ele>
        <time>2023-05-31T14:02:57Z</time>
      </trkpt>
      <trkpt lat="49.87187" lon="2.03856">
        <ele>113.2</ele>
        <time>2023-05-31T14:02:58Z</time>
      </trkpt>
      <trkpt lat="49.87187" lon="2.03857">
        <ele>113.2</ele>
        <time>2023-05-31T14:02:59Z</time>
      </trkpt>
      <trkpt lat="49.87188" lon="2.03858">
        <ele>113.2</ele>
        <time>2023-05-31T14:03:01Z</time>
      </trkpt>
      <trkpt lat="49.87189" lon="2.0386">
        <ele>113.2</ele>
        <time>2023-05-31T14:03:02Z</time>
      </trkpt>
      <trkpt lat="49.8719" lon="2.03861">
        <ele>113.2</ele>
        <time>2023-05-31T14:03:04Z</time>
      </trkpt>
      <trkpt lat="49.8719" lon="2.03862">
        <ele>113.2</ele>
        <time>2023-05-31T14:03:05Z</time>
      </trkpt>
      <trkpt lat="49.87191" lon="2.03863">
        <ele>113.2</ele>
        <time>2023-05-31T14:03:06Z</time>
      </trkpt>
      <trkpt lat="49.87192" lon="2.03865">
        <ele>113.2</ele>
        <time>2023-05-31T14:03:07Z</time>
      </trkpt>
      <trkpt lat="49.87193" lon="2.03866">
        <ele>113.2</ele>
        <time>2023-05-31T14:03:08Z</time>
      </trkpt>
      <trkpt lat="49.87193" lon="2.03867">
        <ele>113.2</ele>
        <time>2023-05-31T14:03:09Z</time>
      </trkpt>
      <trkpt lat="49.87195" lon="2.03869">
        <ele>113.2</ele>
        <time>2023-05-31T14:03:11Z</time>
      </trkpt>
      <trkpt lat="49.87196" lon="2.03871">
        <ele>113.2</ele>
        <time>2023-05-31T14:03:12Z</time>
      </trkpt>
      <trkpt lat="49.87197" lon="2.03872">
        <ele>113.2</ele>
        <time>2023-05-31T14:03:13Z</time>
      </trkpt>
      <trkpt lat="49.87198" lon="2.03873">
        <ele>113.1</ele>
        <time>2023-05-31T14:03:14Z</time>
      </trkpt>
      <trkpt lat="49.87199" lon="2.03874">
        <ele>113.1</ele>
        <time>2023-05-31T14:03:15Z</time>
      </trkpt>
      <trkpt lat="49.872" lon="2.03875">
        <ele>113.1</ele>
        <time>2023-05-31T14:03:17Z</time>
      </trkpt>
      <trkpt lat="49.872" lon="2.03876">
        <ele>113.1</ele>
        <time>2023-05-31T14:03:18Z</time>
      </trkpt>
      <trkpt lat="49.87201" lon="2.03878">
        <ele>113.1</ele>
        <time>2023-05-31T14:03:19Z</time>
      </trkpt>
      <trkpt lat="49.87202" lon="2.0388">
        <ele>113</ele>
        <time>2023-05-31T14:03:20Z</time>
      </trkpt>
      <trkpt lat="49.87203" lon="2.03882">
        <ele>113</ele>
        <time>2023-05-31T14:03:21Z</time>
      </trkpt>
      <trkpt lat="49.87204" lon="2.03883">
        <ele>113</ele>
        <time>2023-05-31T14:03:22Z</time>
      </trkpt>
      <trkpt lat="49.87205" lon="2.03884">
        <ele>113</ele>
        <time>2023-05-31T14:03:23Z</time>
      </trkpt>
      <trkpt lat="49.87206" lon="2.03886">
        <ele>112.9</ele>
        <time>2023-05-31T14:03:24Z</time>
      </trkpt>
      <trkpt lat="49.87207" lon="2.03887">
        <ele>112.9</ele>
        <time>2023-05-31T14:03:26Z</time>
      </trkpt>
      <trkpt lat="49.87208" lon="2.03889">
        <ele>112.9</ele>
        <time>2023-05-31T14:03:27Z</time>
      </trkpt>
      <trkpt lat="49.87209" lon="2.0389">
        <ele>112.9</ele>
        <time>2023-05-31T14:03:28Z</time>
      </trkpt>
      <trkpt lat="49.87209" lon="2.03891">
        <ele>112.9</ele>
        <time>2023-05-31T14:03:29Z</time>
      </trkpt>
      <trkpt lat="49.8721" lon="2.03893">
        <ele>112.9</ele>
        <time>2023-05-31T14:03:30Z</time>
      </trkpt>
      <trkpt lat="49.87211" lon="2.03894">
        <ele>112.9</ele>
        <time>2023-05-31T14:03:31Z</time>
      </trkpt>
      <trkpt lat="49.87212" lon="2.03895">
        <ele>112.9</ele>
        <time>2023-05-31T14:03:32Z</time>
      </trkpt>
      <trkpt lat="49.87213" lon="2.03896">
        <ele>112.9</ele>
        <time>2023-05-31T14:03:33Z</time>
      </trkpt>
      <trkpt lat="49.87213" lon="2.03898">
        <ele>112.9</ele>
        <time>2023-05-31T14:03:34Z</time>
      </trkpt>
      <trkpt lat="49.87214" lon="2.03899">
        <ele>112.8</ele>
        <time>2023-05-31T14:03:36Z</time>
      </trkpt>
      <trkpt lat="49.87215" lon="2.039">
        <ele>112.8</ele>
        <time>2023-05-31T14:03:37Z</time>
      </trkpt>
      <trkpt lat="49.87216" lon="2.03902">
        <ele>112.8</ele>
        <time>2023-05-31T14:03:38Z</time>
      </trkpt>
      <trkpt lat="49.87216" lon="2.03903">
        <ele>112.8</ele>
        <time>2023-05-31T14:03:39Z</time>
      </trkpt>
      <trkpt lat="49.87217" lon="2.03904">
        <ele>112.8</ele>
        <time>2023-05-31T14:03:40Z</time>
      </trkpt>
      <trkpt lat="49.87218" lon="2.03906">
        <ele>112.8</ele>
        <time>2023-05-31T14:03:41Z</time>
      </trkpt>
      <trkpt lat="49.87218" lon="2.03907">
        <ele>112.8</ele>
        <time>2023-05-31T14:03:42Z</time>
      </trkpt>
      <trkpt lat="49.87219" lon="2.03909">
        <ele>112.8</ele>
        <time>2023-05-31T14:03:43Z</time>
      </trkpt>
      <trkpt lat="49.8722" lon="2.03911">
        <ele>112.7</ele>
        <time>2023-05-31T14:03:45Z</time>
      </trkpt>
      <trkpt lat="49.87221" lon="2.03912">
        <ele>112.7</ele>
        <time>2023-05-31T14:03:46Z</time>
      </trkpt>
      <trkpt lat="49.87222" lon="2.03913">
        <ele>112.7</ele>
        <time>2023-05-31T14:03:47Z</time>
      </trkpt>
      <trkpt lat="49.87223" lon="2.03914">
        <ele>112.7</ele>
        <time>2023-05-31T14:03:48Z</time>
      </trkpt>
      <trkpt lat="49.87224" lon="2.03917">
        <ele>112.7</ele>
        <time>2023-05-31T14:03:49Z</time>
      </trkpt>
      <trkpt lat="49.87225" lon="2.03918">
        <ele>112.7</ele>
        <time>2023-05-31T14:03:50Z</time>
      </trkpt>
      <trkpt lat="49.87225" lon="2.03919">
        <ele>112.6</ele>
        <time>2023-05-31T14:03:51Z</time>
      </trkpt>
      <trkpt lat="49.87227" lon="2.03921">
        <ele>112.6</ele>
        <time>2023-05-31T14:03:53Z</time>
      </trkpt>
      <trkpt lat="49.87228" lon="2.03923">
        <ele>112.6</ele>
        <time>2023-05-31T14:03:55Z</time>
      </trkpt>
      <trkpt lat="49.87229" lon="2.03924">
        <ele>112.6</ele>
        <time>2023-05-31T14:03:56Z</time>
      </trkpt>
      <trkpt lat="49.8723" lon="2.03926">
        <ele>112.6</ele>
        <time>2023-05-31T14:03:57Z</time>
      </trkpt>
      <trkpt lat="49.87232" lon="2.03929">
        <ele>112.5</ele>
        <time>2023-05-31T14:03:58Z</time>
      </trkpt>
      <trkpt lat="49.87233" lon="2.0393">
        <ele>112.5</ele>
        <time>2023-05-31T14:03:59Z</time>
      </trkpt>
      <trkpt lat="49.87234" lon="2.03931">
        <ele>112.5</ele>
        <time>2023-05-31T14:04:01Z</time>
      </trkpt>
      <trkpt lat="49.87236" lon="2.03933">
        <ele>112.5</ele>
        <time>2023-05-31T14:04:02Z</time>
      </trkpt>
      <trkpt lat="49.87237" lon="2.03934">
        <ele>112.5</ele>
        <time>2023-05-31T14:04:04Z</time>
      </trkpt>
      <trkpt lat="49.87238" lon="2.03936">
        <ele>112.5</ele>
        <time>2023-05-31T14:04:05Z</time>
      </trkpt>
      <trkpt lat="49.8724" lon="2.03937">
        <ele>112.5</ele>
        <time>2023-05-31T14:04:06Z</time>
      </trkpt>
      <trkpt lat="49.87241" lon="2.03939">
        <ele>112.4</ele>
        <time>2023-05-31T14:04:07Z</time>
      </trkpt>
      <trkpt lat="49.87242" lon="2.0394">
        <ele>112.4</ele>
        <time>2023-05-31T14:04:08Z</time>
      </trkpt>
      <trkpt lat="49.87243" lon="2.03942">
        <ele>112.4</ele>
        <time>2023-05-31T14:04:09Z</time>
      </trkpt>
      <trkpt lat="49.87244" lon="2.03944">
        <ele>112.4</ele>
        <time>2023-05-31T14:04:10Z</time>
      </trkpt>
      <trkpt lat="49.87245" lon="2.03946">
        <ele>112.4</ele>
        <time>2023-05-31T14:04:11Z</time>
      </trkpt>
      <trkpt lat="49.87246" lon="2.03947">
        <ele>112.4</ele>
        <time>2023-05-31T14:04:12Z</time>
      </trkpt>
      <trkpt lat="49.87247" lon="2.03949">
        <ele>112.4</ele>
        <time>2023-05-31T14:04:14Z</time>
      </trkpt>
      <trkpt lat="49.87248" lon="2.03951">
        <ele>112.4</ele>
        <time>2023-05-31T14:04:15Z</time>
      </trkpt>
      <trkpt lat="49.87249" lon="2.03953">
        <ele>112.4</ele>
        <time>2023-05-31T14:04:16Z</time>
      </trkpt>
      <trkpt lat="49.8725" lon="2.03954">
        <ele>112.4</ele>
        <time>2023-05-31T14:04:17Z</time>
      </trkpt>
      <trkpt lat="49.87251" lon="2.03957">
        <ele>112.4</ele>
        <time>2023-05-31T14:04:19Z</time>
      </trkpt>
      <trkpt lat="49.87252" lon="2.03959">
        <ele>112.3</ele>
        <time>2023-05-31T14:04:20Z</time>
      </trkpt>
      <trkpt lat="49.87254" lon="2.03961">
        <ele>112.3</ele>
        <time>2023-05-31T14:04:21Z</time>
      </trkpt>
      <trkpt lat="49.87255" lon="2.03964">
        <ele>112.3</ele>
        <time>2023-05-31T14:04:22Z</time>
      </trkpt>
      <trkpt lat="49.87256" lon="2.03965">
        <ele>112.3</ele>
        <time>2023-05-31T14:04:23Z</time>
      </trkpt>
      <trkpt lat="49.87258" lon="2.03968">
        <ele>112.3</ele>
        <time>2023-05-31T14:04:24Z</time>
      </trkpt>
      <trkpt lat="49.87258" lon="2.0397">
        <ele>112.3</ele>
        <time>2023-05-31T14:04:26Z</time>
      </trkpt>
      <trkpt lat="49.87259" lon="2.03971">
        <ele>112.3</ele>
        <time>2023-05-31T14:04:27Z</time>
      </trkpt>
      <trkpt lat="49.8726" lon="2.03972">
        <ele>112.3</ele>
        <time>2023-05-31T14:04:28Z</time>
      </trkpt>
      <trkpt lat="49.8726" lon="2.03974">
        <ele>112.3</ele>
        <time>2023-05-31T14:04:29Z</time>
      </trkpt>
      <trkpt lat="49.87261" lon="2.03976">
        <ele>112.3</ele>
        <time>2023-05-31T14:04:30Z</time>
      </trkpt>
      <trkpt lat="49.87262" lon="2.03977">
        <ele>112.3</ele>
        <time>2023-05-31T14:04:31Z</time>
      </trkpt>
      <trkpt lat="49.87263" lon="2.03979">
        <ele>112.3</ele>
        <time>2023-05-31T14:04:32Z</time>
      </trkpt>
      <trkpt lat="49.87264" lon="2.03981">
        <ele>112.3</ele>
        <time>2023-05-31T14:04:33Z</time>
      </trkpt>
      <trkpt lat="49.87265" lon="2.03983">
        <ele>112.3</ele>
        <time>2023-05-31T14:04:34Z</time>
      </trkpt>
      <trkpt lat="49.87266" lon="2.03984">
        <ele>112.3</ele>
        <time>2023-05-31T14:04:35Z</time>
      </trkpt>
      <trkpt lat="49.87267" lon="2.03987">
        <ele>112.2</ele>
        <time>2023-05-31T14:04:37Z</time>
      </trkpt>
      <trkpt lat="49.87267" lon="2.03988">
        <ele>112.2</ele>
        <time>2023-05-31T14:04:38Z</time>
      </trkpt>
      <trkpt lat="49.87268" lon="2.03989">
        <ele>112.2</ele>
        <time>2023-05-31T14:04:39Z</time>
      </trkpt>
      <trkpt lat="49.87269" lon="2.03992">
        <ele>112.2</ele>
        <time>2023-05-31T14:04:40Z</time>
      </trkpt>
      <trkpt lat="49.87269" lon="2.03993">
        <ele>112.2</ele>
        <time>2023-05-31T14:04:41Z</time>
      </trkpt>
      <trkpt lat="49.8727" lon="2.03994">
        <ele>112.2</ele>
        <time>2023-05-31T14:04:42Z</time>
      </trkpt>
      <trkpt lat="49.87271" lon="2.03997">
        <ele>112.2</ele>
        <time>2023-05-31T14:04:43Z</time>
      </trkpt>
      <trkpt lat="49.87271" lon="2.03998">
        <ele>112.2</ele>
        <time>2023-05-31T14:04:44Z</time>
      </trkpt>
      <trkpt lat="49.87272" lon="2.03999">
        <ele>112.2</ele>
        <time>2023-05-31T14:04:45Z</time>
      </trkpt>
      <trkpt lat="49.87272" lon="2.04001">
        <ele>112.2</ele>
        <time>2023-05-31T14:04:46Z</time>
      </trkpt>
      <trkpt lat="49.87273" lon="2.04002">
        <ele>112.2</ele>
        <time>2023-05-31T14:04:48Z</time>
      </trkpt>
      <trkpt lat="49.87274" lon="2.04003">
        <ele>112.2</ele>
        <time>2023-05-31T14:04:49Z</time>
      </trkpt>
      <trkpt lat="49.87275" lon="2.04006">
        <ele>112.2</ele>
        <time>2023-05-31T14:04:50Z</time>
      </trkpt>
      <trkpt lat="49.87275" lon="2.04007">
        <ele>112.2</ele>
        <time>2023-05-31T14:04:51Z</time>
      </trkpt>
      <trkpt lat="49.87276" lon="2.04008">
        <ele>112.2</ele>
        <time>2023-05-31T14:04:52Z</time>
      </trkpt>
      <trkpt lat="49.87276" lon="2.0401">
        <ele>112.2</ele>
        <time>2023-05-31T14:04:53Z</time>
      </trkpt>
      <trkpt lat="49.87277" lon="2.04012">
        <ele>112.2</ele>
        <time>2023-05-31T14:04:54Z</time>
      </trkpt>
      <trkpt lat="49.87278" lon="2.04014">
        <ele>112.1</ele>
        <time>2023-05-31T14:04:55Z</time>
      </trkpt>
      <trkpt lat="49.87279" lon="2.04016">
        <ele>112.1</ele>
        <time>2023-05-31T14:04:56Z</time>
      </trkpt>
      <trkpt lat="49.8728" lon="2.04018">
        <ele>112.1</ele>
        <time>2023-05-31T14:04:57Z</time>
      </trkpt>
      <trkpt lat="49.87281" lon="2.04019">
        <ele>112.1</ele>
        <time>2023-05-31T14:04:59Z</time>
      </trkpt>
      <trkpt lat="49.87281" lon="2.0402">
        <ele>112.1</ele>
        <time>2023-05-31T14:05:00Z</time>
      </trkpt>
      <trkpt lat="49.87282" lon="2.04022">
        <ele>112.1</ele>
        <time>2023-05-31T14:05:01Z</time>
      </trkpt>
      <trkpt lat="49.87283" lon="2.04024">
        <ele>112.1</ele>
        <time>2023-05-31T14:05:02Z</time>
      </trkpt>
      <trkpt lat="49.87284" lon="2.04026">
        <ele>112.1</ele>
        <time>2023-05-31T14:05:04Z</time>
      </trkpt>
      <trkpt lat="49.87285" lon="2.04028">
        <ele>112.1</ele>
        <time>2023-05-31T14:05:05Z</time>
      </trkpt>
      <trkpt lat="49.87286" lon="2.04029">
        <ele>112.1</ele>
        <time>2023-05-31T14:05:06Z</time>
      </trkpt>
      <trkpt lat="49.87287" lon="2.04031">
        <ele>112.1</ele>
        <time>2023-05-31T14:05:07Z</time>
      </trkpt>
      <trkpt lat="49.87288" lon="2.04033">
        <ele>112.1</ele>
        <time>2023-05-31T14:05:08Z</time>
      </trkpt>
      <trkpt lat="49.87288" lon="2.04035">
        <ele>112.1</ele>
        <time>2023-05-31T14:05:09Z</time>
      </trkpt>
      <trkpt lat="49.87289" lon="2.04036">
        <ele>112.1</ele>
        <time>2023-05-31T14:05:10Z</time>
      </trkpt>
      <trkpt lat="49.87289" lon="2.04038">
        <ele>112.1</ele>
        <time>2023-05-31T14:05:11Z</time>
      </trkpt>
      <trkpt lat="49.8729" lon="2.0404">
        <ele>112.1</ele>
        <time>2023-05-31T14:05:13Z</time>
      </trkpt>
      <trkpt lat="49.87291" lon="2.04042">
        <ele>112.1</ele>
        <time>2023-05-31T14:05:14Z</time>
      </trkpt>
      <trkpt lat="49.87292" lon="2.04044">
        <ele>112.1</ele>
        <time>2023-05-31T14:05:15Z</time>
      </trkpt>
      <trkpt lat="49.87292" lon="2.04045">
        <ele>112.1</ele>
        <time>2023-05-31T14:05:16Z</time>
      </trkpt>
      <trkpt lat="49.87294" lon="2.04047">
        <ele>112.1</ele>
        <time>2023-05-31T14:05:17Z</time>
      </trkpt>
      <trkpt lat="49.87294" lon="2.04049">
        <ele>112.1</ele>
        <time>2023-05-31T14:05:18Z</time>
      </trkpt>
      <trkpt lat="49.87295" lon="2.0405">
        <ele>112.1</ele>
        <time>2023-05-31T14:05:19Z</time>
      </trkpt>
      <trkpt lat="49.87295" lon="2.04051">
        <ele>112.1</ele>
        <time>2023-05-31T14:05:20Z</time>
      </trkpt>
      <trkpt lat="49.87296" lon="2.04052">
        <ele>112.1</ele>
        <time>2023-05-31T14:05:22Z</time>
      </trkpt>
      <trkpt lat="49.87297" lon="2.04053">
        <ele>112.1</ele>
        <time>2023-05-31T14:05:23Z</time>
      </trkpt>
      <trkpt lat="49.87297" lon="2.04055">
        <ele>112.1</ele>
        <time>2023-05-31T14:05:24Z</time>
      </trkpt>
      <trkpt lat="49.87298" lon="2.04056">
        <ele>112</ele>
        <time>2023-05-31T14:05:25Z</time>
      </trkpt>
      <trkpt lat="49.87299" lon="2.04058">
        <ele>112</ele>
        <time>2023-05-31T14:05:26Z</time>
      </trkpt>
      <trkpt lat="49.873" lon="2.0406">
        <ele>112</ele>
        <time>2023-05-31T14:05:27Z</time>
      </trkpt>
      <trkpt lat="49.87301" lon="2.04061">
        <ele>112</ele>
        <time>2023-05-31T14:05:28Z</time>
      </trkpt>
      <trkpt lat="49.87301" lon="2.04062">
        <ele>112</ele>
        <time>2023-05-31T14:05:29Z</time>
      </trkpt>
      <trkpt lat="49.87302" lon="2.04064">
        <ele>112</ele>
        <time>2023-05-31T14:05:30Z</time>
      </trkpt>
      <trkpt lat="49.87302" lon="2.04066">
        <ele>112</ele>
        <time>2023-05-31T14:05:31Z</time>
      </trkpt>
      <trkpt lat="49.87303" lon="2.04068">
        <ele>112</ele>
        <time>2023-05-31T14:05:33Z</time>
      </trkpt>
      <trkpt lat="49.87304" lon="2.04069">
        <ele>112</ele>
        <time>2023-05-31T14:05:34Z</time>
      </trkpt>
      <trkpt lat="49.87305" lon="2.0407">
        <ele>112</ele>
        <time>2023-05-31T14:05:35Z</time>
      </trkpt>
      <trkpt lat="49.87305" lon="2.04072">
        <ele>112</ele>
        <time>2023-05-31T14:05:36Z</time>
      </trkpt>
      <trkpt lat="49.87307" lon="2.04074">
        <ele>112</ele>
        <time>2023-05-31T14:05:38Z</time>
      </trkpt>
      <trkpt lat="49.87307" lon="2.04075">
        <ele>112</ele>
        <time>2023-05-31T14:05:39Z</time>
      </trkpt>
      <trkpt lat="49.87308" lon="2.04076">
        <ele>112</ele>
        <time>2023-05-31T14:05:40Z</time>
      </trkpt>
      <trkpt lat="49.87309" lon="2.04078">
        <ele>112</ele>
        <time>2023-05-31T14:05:41Z</time>
      </trkpt>
      <trkpt lat="49.87309" lon="2.04079">
        <ele>112</ele>
        <time>2023-05-31T14:05:42Z</time>
      </trkpt>
      <trkpt lat="49.8731" lon="2.04081">
        <ele>111.9</ele>
        <time>2023-05-31T14:05:43Z</time>
      </trkpt>
      <trkpt lat="49.87311" lon="2.04082">
        <ele>111.9</ele>
        <time>2023-05-31T14:05:44Z</time>
      </trkpt>
      <trkpt lat="49.87312" lon="2.04083">
        <ele>111.9</ele>
        <time>2023-05-31T14:05:45Z</time>
      </trkpt>
      <trkpt lat="49.87312" lon="2.04085">
        <ele>111.9</ele>
        <time>2023-05-31T14:05:46Z</time>
      </trkpt>
      <trkpt lat="49.87314" lon="2.04088">
        <ele>111.9</ele>
        <time>2023-05-31T14:05:47Z</time>
      </trkpt>
      <trkpt lat="49.87314" lon="2.04089">
        <ele>111.9</ele>
        <time>2023-05-31T14:05:49Z</time>
      </trkpt>
      <trkpt lat="49.87315" lon="2.0409">
        <ele>111.9</ele>
        <time>2023-05-31T14:05:50Z</time>
      </trkpt>
      <trkpt lat="49.87315" lon="2.04092">
        <ele>111.8</ele>
        <time>2023-05-31T14:05:51Z</time>
      </trkpt>
      <trkpt lat="49.87316" lon="2.04093">
        <ele>111.8</ele>
        <time>2023-05-31T14:05:52Z</time>
      </trkpt>
      <trkpt lat="49.87317" lon="2.04095">
        <ele>111.8</ele>
        <time>2023-05-31T14:05:53Z</time>
      </trkpt>
      <trkpt lat="49.87317" lon="2.04097">
        <ele>111.8</ele>
        <time>2023-05-31T14:05:55Z</time>
      </trkpt>
      <trkpt lat="49.87318" lon="2.04098">
        <ele>111.8</ele>
        <time>2023-05-31T14:05:56Z</time>
      </trkpt>
      <trkpt lat="49.87318" lon="2.04101">
        <ele>111.8</ele>
        <time>2023-05-31T14:05:57Z</time>
      </trkpt>
      <trkpt lat="49.87319" lon="2.04102">
        <ele>111.8</ele>
        <time>2023-05-31T14:05:58Z</time>
      </trkpt>
      <trkpt lat="49.87319" lon="2.04103">
        <ele>111.7</ele>
        <time>2023-05-31T14:05:59Z</time>
      </trkpt>
      <trkpt lat="49.8732" lon="2.04106">
        <ele>111.7</ele>
        <time>2023-05-31T14:06:00Z</time>
      </trkpt>
      <trkpt lat="49.8732" lon="2.04108">
        <ele>111.7</ele>
        <time>2023-05-31T14:06:01Z</time>
      </trkpt>
      <trkpt lat="49.87321" lon="2.0411">
        <ele>111.7</ele>
        <time>2023-05-31T14:06:03Z</time>
      </trkpt>
      <trkpt lat="49.87321" lon="2.04112">
        <ele>111.7</ele>
        <time>2023-05-31T14:06:04Z</time>
      </trkpt>
      <trkpt lat="49.87322" lon="2.04114">
        <ele>111.7</ele>
        <time>2023-05-31T14:06:05Z</time>
      </trkpt>
      <trkpt lat="49.87322" lon="2.04116">
        <ele>111.6</ele>
        <time>2023-05-31T14:06:06Z</time>
      </trkpt>
      <trkpt lat="49.87323" lon="2.04118">
        <ele>111.6</ele>
        <time>2023-05-31T14:06:07Z</time>
      </trkpt>
      <trkpt lat="49.87324" lon="2.04122">
        <ele>111.6</ele>
        <time>2023-05-31T14:06:09Z</time>
      </trkpt>
      <trkpt lat="49.87325" lon="2.04124">
        <ele>111.6</ele>
        <time>2023-05-31T14:06:11Z</time>
      </trkpt>
      <trkpt lat="49.87325" lon="2.04126">
        <ele>111.6</ele>
        <time>2023-05-31T14:06:12Z</time>
      </trkpt>
      <trkpt lat="49.87326" lon="2.04128">
        <ele>111.6</ele>
        <time>2023-05-31T14:06:13Z</time>
      </trkpt>
      <trkpt lat="49.87327" lon="2.04132">
        <ele>111.5</ele>
        <time>2023-05-31T14:06:14Z</time>
      </trkpt>
      <trkpt lat="49.87327" lon="2.04133">
        <ele>111.5</ele>
        <time>2023-05-31T14:06:16Z</time>
      </trkpt>
      <trkpt lat="49.87327" lon="2.04134">
        <ele>111.5</ele>
        <time>2023-05-31T14:06:17Z</time>
      </trkpt>
      <trkpt lat="49.87328" lon="2.04136">
        <ele>111.5</ele>
        <time>2023-05-31T14:06:18Z</time>
      </trkpt>
      <trkpt lat="49.87328" lon="2.04138">
        <ele>111.5</ele>
        <time>2023-05-31T14:06:19Z</time>
      </trkpt>
      <trkpt lat="49.87329" lon="2.0414">
        <ele>111.5</ele>
        <time>2023-05-31T14:06:21Z</time>
      </trkpt>
      <trkpt lat="49.87329" lon="2.04143">
        <ele>111.5</ele>
        <time>2023-05-31T14:06:22Z</time>
      </trkpt>
      <trkpt lat="49.8733" lon="2.04145">
        <ele>111.5</ele>
        <time>2023-05-31T14:06:23Z</time>
      </trkpt>
      <trkpt lat="49.8733" lon="2.04146">
        <ele>111.5</ele>
        <time>2023-05-31T14:06:24Z</time>
      </trkpt>
      <trkpt lat="49.87331" lon="2.04148">
        <ele>111.5</ele>
        <time>2023-05-31T14:06:26Z</time>
      </trkpt>
      <trkpt lat="49.87332" lon="2.04151">
        <ele>111.4</ele>
        <time>2023-05-31T14:06:27Z</time>
      </trkpt>
      <trkpt lat="49.87332" lon="2.04152">
        <ele>111.4</ele>
        <time>2023-05-31T14:06:28Z</time>
      </trkpt>
      <trkpt lat="49.87332" lon="2.04153">
        <ele>111.4</ele>
        <time>2023-05-31T14:06:29Z</time>
      </trkpt>
      <trkpt lat="49.87333" lon="2.04156">
        <ele>111.4</ele>
        <time>2023-05-31T14:06:30Z</time>
      </trkpt>
      <trkpt lat="49.87333" lon="2.04158">
        <ele>111.4</ele>
        <time>2023-05-31T14:06:31Z</time>
      </trkpt>
      <trkpt lat="49.87334" lon="2.04159">
        <ele>111.4</ele>
        <time>2023-05-31T14:06:32Z</time>
      </trkpt>
      <trkpt lat="49.87334" lon="2.0416">
        <ele>111.4</ele>
        <time>2023-05-31T14:06:34Z</time>
      </trkpt>
      <trkpt lat="49.87335" lon="2.04162">
        <ele>111.4</ele>
        <time>2023-05-31T14:06:35Z</time>
      </trkpt>
      <trkpt lat="49.87335" lon="2.04163">
        <ele>111.4</ele>
        <time>2023-05-31T14:06:36Z</time>
      </trkpt>
      <trkpt lat="49.87336" lon="2.04166">
        <ele>111.3</ele>
        <time>2023-05-31T14:06:37Z</time>
      </trkpt>
      <trkpt lat="49.87337" lon="2.04167">
        <ele>111.3</ele>
        <time>2023-05-31T14:06:38Z</time>
      </trkpt>
      <trkpt lat="49.87337" lon="2.04168">
        <ele>111.3</ele>
        <time>2023-05-31T14:06:39Z</time>
      </trkpt>
      <trkpt lat="49.87338" lon="2.0417">
        <ele>111.3</ele>
        <time>2023-05-31T14:06:40Z</time>
      </trkpt>
      <trkpt lat="49.87338" lon="2.04172">
        <ele>111.3</ele>
        <time>2023-05-31T14:06:42Z</time>
      </trkpt>
      <trkpt lat="49.87339" lon="2.04173">
        <ele>111.3</ele>
        <time>2023-05-31T14:06:43Z</time>
      </trkpt>
      <trkpt lat="49.8734" lon="2.04174">
        <ele>111.3</ele>
        <time>2023-05-31T14:06:44Z</time>
      </trkpt>
      <trkpt lat="49.8734" lon="2.04176">
        <ele>111.3</ele>
        <time>2023-05-31T14:06:45Z</time>
      </trkpt>
      <trkpt lat="49.87341" lon="2.04177">
        <ele>111.3</ele>
        <time>2023-05-31T14:06:46Z</time>
      </trkpt>
      <trkpt lat="49.87341" lon="2.04179">
        <ele>111.2</ele>
        <time>2023-05-31T14:06:48Z</time>
      </trkpt>
      <trkpt lat="49.87342" lon="2.0418">
        <ele>111.2</ele>
        <time>2023-05-31T14:06:49Z</time>
      </trkpt>
      <trkpt lat="49.87342" lon="2.04181">
        <ele>111.2</ele>
        <time>2023-05-31T14:06:50Z</time>
      </trkpt>
      <trkpt lat="49.87343" lon="2.04182">
        <ele>111.2</ele>
        <time>2023-05-31T14:06:51Z</time>
      </trkpt>
      <trkpt lat="49.87343" lon="2.04184">
        <ele>111.2</ele>
        <time>2023-05-31T14:06:53Z</time>
      </trkpt>
      <trkpt lat="49.87344" lon="2.04186">
        <ele>111.2</ele>
        <time>2023-05-31T14:06:55Z</time>
      </trkpt>
      <trkpt lat="49.87344" lon="2.04187">
        <ele>111.2</ele>
        <time>2023-05-31T14:06:56Z</time>
      </trkpt>
      <trkpt lat="49.87344" lon="2.04188">
        <ele>111.2</ele>
        <time>2023-05-31T14:06:58Z</time>
      </trkpt>
      <trkpt lat="49.87344" lon="2.04189">
        <ele>111.2</ele>
        <time>2023-05-31T14:06:59Z</time>
      </trkpt>
      <trkpt lat="49.87344" lon="2.04189">
        <ele>111.2</ele>
        <time>2023-05-31T14:07:00Z</time>
      </trkpt>
      <trkpt lat="49.87343" lon="2.0419">
        <ele>111.2</ele>
        <time>2023-05-31T14:07:02Z</time>
      </trkpt>
      <trkpt lat="49.87343" lon="2.0419">
        <ele>111.2</ele>
        <time>2023-05-31T14:07:03Z</time>
      </trkpt>
      <trkpt lat="49.87343" lon="2.0419">
        <ele>111.2</ele>
        <time>2023-05-31T14:07:05Z</time>
      </trkpt>
      <trkpt lat="49.87343" lon="2.0419">
        <ele>111.2</ele>
        <time>2023-05-31T14:07:06Z</time>
      </trkpt>
      <trkpt lat="49.87342" lon="2.0419">
        <ele>111.2</ele>
        <time>2023-05-31T14:07:07Z</time>
      </trkpt>
      <trkpt lat="49.87342" lon="2.04191">
        <ele>111.2</ele>
        <time>2023-05-31T14:07:09Z</time>
      </trkpt>
      <trkpt lat="49.87342" lon="2.04191">
        <ele>111.2</ele>
        <time>2023-05-31T14:07:10Z</time>
      </trkpt>
      <trkpt lat="49.87342" lon="2.04191">
        <ele>111.2</ele>
        <time>2023-05-31T14:07:11Z</time>
      </trkpt>
      <trkpt lat="49.87342" lon="2.04191">
        <ele>111.2</ele>
        <time>2023-05-31T14:07:13Z</time>
      </trkpt>
      <trkpt lat="49.87342" lon="2.04191">
        <ele>111.2</ele>
        <time>2023-05-31T14:07:14Z</time>
      </trkpt>
      <trkpt lat="49.87342" lon="2.04191">
        <ele>111.2</ele>
        <time>2023-05-31T14:07:15Z</time>
      </trkpt>
      <trkpt lat="49.87342" lon="2.0419">
        <ele>111.2</ele>
        <time>2023-05-31T14:07:16Z</time>
      </trkpt>
      <trkpt lat="49.87342" lon="2.0419">
        <ele>111.2</ele>
        <time>2023-05-31T14:07:17Z</time>
      </trkpt>
      <trkpt lat="49.87342" lon="2.0419">
        <ele>111.2</ele>
        <time>2023-05-31T14:07:18Z</time>
      </trkpt>
      <trkpt lat="49.87342" lon="2.0419">
        <ele>111.2</ele>
        <time>2023-05-31T14:07:19Z</time>
      </trkpt>
      <trkpt lat="49.87342" lon="2.04189">
        <ele>111.1</ele>
        <time>2023-05-31T14:07:20Z</time>
      </trkpt>
      <trkpt lat="49.87342" lon="2.04189">
        <ele>111.1</ele>
        <time>2023-05-31T14:07:21Z</time>
      </trkpt>
      <trkpt lat="49.87342" lon="2.04189">
        <ele>111.1</ele>
        <time>2023-05-31T14:07:22Z</time>
      </trkpt>
      <trkpt lat="49.87342" lon="2.04189">
        <ele>111.1</ele>
        <time>2023-05-31T14:07:23Z</time>
      </trkpt>
      <trkpt lat="49.87342" lon="2.04189">
        <ele>111.1</ele>
        <time>2023-05-31T14:07:24Z</time>
      </trkpt>
      <trkpt lat="49.87342" lon="2.04189">
        <ele>111.1</ele>
        <time>2023-05-31T14:07:25Z</time>
      </trkpt>
      <trkpt lat="49.87342" lon="2.04189">
        <ele>111.1</ele>
        <time>2023-05-31T14:07:26Z</time>
      </trkpt>
      <trkpt lat="49.87342" lon="2.04189">
        <ele>111.1</ele>
        <time>2023-05-31T14:07:27Z</time>
      </trkpt>
      <trkpt lat="49.87342" lon="2.04189">
        <ele>111.1</ele>
        <time>2023-05-31T14:07:28Z</time>
      </trkpt>
      <trkpt lat="49.87342" lon="2.04189">
        <ele>111.1</ele>
        <time>2023-05-31T14:07:29Z</time>
      </trkpt>
      <trkpt lat="49.87342" lon="2.04189">
        <ele>111.1</ele>
        <time>2023-05-31T14:07:30Z</time>
      </trkpt>
      <trkpt lat="49.87342" lon="2.04189">
        <ele>111.1</ele>
        <time>2023-05-31T14:07:31Z</time>
      </trkpt>
      <trkpt lat="49.87342" lon="2.04189">
        <ele>111.1</ele>
        <time>2023-05-31T14:07:32Z</time>
      </trkpt>
      <trkpt lat="49.87342" lon="2.04189">
        <ele>111.1</ele>
        <time>2023-05-31T14:07:33Z</time>
      </trkpt>
      <trkpt lat="49.87342" lon="2.04189">
        <ele>111.1</ele>
        <time>2023-05-31T14:07:34Z</time>
      </trkpt>
      <trkpt lat="49.87342" lon="2.04189">
        <ele>111.1</ele>
        <time>2023-05-31T14:07:35Z</time>
      </trkpt>
      <trkpt lat="49.87342" lon="2.04189">
        <ele>111.1</ele>
        <time>2023-05-31T14:07:36Z</time>
      </trkpt>
      <trkpt lat="49.87342" lon="2.04189">
        <ele>111.1</ele>
        <time>2023-05-31T14:07:37Z</time>
      </trkpt>
      <trkpt lat="49.87342" lon="2.04189">
        <ele>111.1</ele>
        <time>2023-05-31T14:07:38Z</time>
      </trkpt>
      <trkpt lat="49.87342" lon="2.04189">
        <ele>111.1</ele>
        <time>2023-05-31T14:07:39Z</time>
      </trkpt>
      <trkpt lat="49.87342" lon="2.04189">
        <ele>111.1</ele>
        <time>2023-05-31T14:07:40Z</time>
      </trkpt>
      <trkpt lat="49.87342" lon="2.04189">
        <ele>111.1</ele>
        <time>2023-05-31T14:07:41Z</time>
      </trkpt>
      <trkpt lat="49.87342" lon="2.04189">
        <ele>111.1</ele>
        <time>2023-05-31T14:07:42Z</time>
      </trkpt>
      <trkpt lat="49.87342" lon="2.04189">
        <ele>111.1</ele>
        <time>2023-05-31T14:07:43Z</time>
      </trkpt>
      <trkpt lat="49.87342" lon="2.04189">
        <ele>111.1</ele>
        <time>2023-05-31T14:07:44Z</time>
      </trkpt>
      <trkpt lat="49.87342" lon="2.04189">
        <ele>111.1</ele>
        <time>2023-05-31T14:07:45Z</time>
      </trkpt>
      <trkpt lat="49.87342" lon="2.04189">
        <ele>111.1</ele>
        <time>2023-05-31T14:07:46Z</time>
      </trkpt>
      <trkpt lat="49.87342" lon="2.04189">
        <ele>111.1</ele>
        <time>2023-05-31T14:07:47Z</time>
      </trkpt>
      <trkpt lat="49.87342" lon="2.04189">
        <ele>111.1</ele>
        <time>2023-05-31T14:07:48Z</time>
      </trkpt>
      <trkpt lat="49.87342" lon="2.04189">
        <ele>111.1</ele>
        <time>2023-05-31T14:07:49Z</time>
      </trkpt>
      <trkpt lat="49.87342" lon="2.04189">
        <ele>111.1</ele>
        <time>2023-05-31T14:07:50Z</time>
      </trkpt>
      <trkpt lat="49.87342" lon="2.04189">
        <ele>111.1</ele>
        <time>2023-05-31T14:07:51Z</time>
      </trkpt>
      <trkpt lat="49.87342" lon="2.04189">
        <ele>111.1</ele>
        <time>2023-05-31T14:07:52Z</time>
      </trkpt>
      <trkpt lat="49.87342" lon="2.04189">
        <ele>111.1</ele>
        <time>2023-05-31T14:07:53Z</time>
      </trkpt>
      <trkpt lat="49.87342" lon="2.04189">
        <ele>111.1</ele>
        <time>2023-05-31T14:07:54Z</time>
      </trkpt>
      <trkpt lat="49.87342" lon="2.04189">
        <ele>111.1</ele>
        <time>2023-05-31T14:07:55Z</time>
      </trkpt>
      <trkpt lat="49.87342" lon="2.04189">
        <ele>111.1</ele>
        <time>2023-05-31T14:07:56Z</time>
      </trkpt>
      <trkpt lat="49.87342" lon="2.04189">
        <ele>111.1</ele>
        <time>2023-05-31T14:07:57Z</time>
      </trkpt>
      <trkpt lat="49.87342" lon="2.04189">
        <ele>111.1</ele>
        <time>2023-05-31T14:07:58Z</time>
      </trkpt>
      <trkpt lat="49.87342" lon="2.04189">
        <ele>111.1</ele>
        <time>2023-05-31T14:07:59Z</time>
      </trkpt>
      <trkpt lat="49.87342" lon="2.04189">
        <ele>111.1</ele>
        <time>2023-05-31T14:08:00Z</time>
      </trkpt>
      <trkpt lat="49.87342" lon="2.04189">
        <ele>111.1</ele>
        <time>2023-05-31T14:08:01Z</time>
      </trkpt>
      <trkpt lat="49.87342" lon="2.04189">
        <ele>111.1</ele>
        <time>2023-05-31T14:08:02Z</time>
      </trkpt>
      <trkpt lat="49.87342" lon="2.04189">
        <ele>111.1</ele>
        <time>2023-05-31T14:08:03Z</time>
      </trkpt>
      <trkpt lat="49.87342" lon="2.04189">
        <ele>111.1</ele>
        <time>2023-05-31T14:08:04Z</time>
      </trkpt>
      <trkpt lat="49.87342" lon="2.04189">
        <ele>111.1</ele>
        <time>2023-05-31T14:08:05Z</time>
      </trkpt>
      <trkpt lat="49.87342" lon="2.04189">
        <ele>111.1</ele>
        <time>2023-05-31T14:08:06Z</time>
      </trkpt>
      <trkpt lat="49.87342" lon="2.04189">
        <ele>111.1</ele>
        <time>2023-05-31T14:08:07Z</time>
      </trkpt>
      <trkpt lat="49.87342" lon="2.04189">
        <ele>111.1</ele>
        <time>2023-05-31T14:08:08Z</time>
      </trkpt>
      <trkpt lat="49.87342" lon="2.04189">
        <ele>111.1</ele>
        <time>2023-05-31T14:08:09Z</time>
      </trkpt>
      <trkpt lat="49.87342" lon="2.04189">
        <ele>111.1</ele>
        <time>2023-05-31T14:08:10Z</time>
      </trkpt>
      <trkpt lat="49.87342" lon="2.04189">
        <ele>111.1</ele>
        <time>2023-05-31T14:08:11Z</time>
      </trkpt>
      <trkpt lat="49.87342" lon="2.04189">
        <ele>111.1</ele>
        <time>2023-05-31T14:08:12Z</time>
      </trkpt>
      <trkpt lat="49.87342" lon="2.04189">
        <ele>111.1</ele>
        <time>2023-05-31T14:08:13Z</time>
      </trkpt>
      <trkpt lat="49.87342" lon="2.04189">
        <ele>111.1</ele>
        <time>2023-05-31T14:08:14Z</time>
      </trkpt>
      <trkpt lat="49.87342" lon="2.04189">
        <ele>111.1</ele>
        <time>2023-05-31T14:08:15Z</time>
      </trkpt>
      <trkpt lat="49.87342" lon="2.04189">
        <ele>111.1</ele>
        <time>2023-05-31T14:08:16Z</time>
      </trkpt>
      <trkpt lat="49.87342" lon="2.04189">
        <ele>111.1</ele>
        <time>2023-05-31T14:08:17Z</time>
      </trkpt>
      <trkpt lat="49.87342" lon="2.04189">
        <ele>111.1</ele>
        <time>2023-05-31T14:08:18Z</time>
      </trkpt>
      <trkpt lat="49.87342" lon="2.04189">
        <ele>111.1</ele>
        <time>2023-05-31T14:08:19Z</time>
      </trkpt>
      <trkpt lat="49.87342" lon="2.04188">
        <ele>111.1</ele>
        <time>2023-05-31T14:08:20Z</time>
      </trkpt>
      <trkpt lat="49.87342" lon="2.04189">
        <ele>111.1</ele>
        <time>2023-05-31T14:08:22Z</time>
      </trkpt>
      <trkpt lat="49.87342" lon="2.04189">
        <ele>111.1</ele>
        <time>2023-05-31T14:08:23Z</time>
      </trkpt>
      <trkpt lat="49.87342" lon="2.04189">
        <ele>111.1</ele>
        <time>2023-05-31T14:08:24Z</time>
      </trkpt>
      <trkpt lat="49.87341" lon="2.0419">
        <ele>111.1</ele>
        <time>2023-05-31T14:08:26Z</time>
      </trkpt>
      <trkpt lat="49.87341" lon="2.0419">
        <ele>111.1</ele>
        <time>2023-05-31T14:08:27Z</time>
      </trkpt>
      <trkpt lat="49.8734" lon="2.04191">
        <ele>111.1</ele>
        <time>2023-05-31T14:08:29Z</time>
      </trkpt>
      <trkpt lat="49.8734" lon="2.04191">
        <ele>111.1</ele>
        <time>2023-05-31T14:08:30Z</time>
      </trkpt>
      <trkpt lat="49.8734" lon="2.04191">
        <ele>111.1</ele>
        <time>2023-05-31T14:08:31Z</time>
      </trkpt>
      <trkpt lat="49.8734" lon="2.04191">
        <ele>111.1</ele>
        <time>2023-05-31T14:08:33Z</time>
      </trkpt>
      <trkpt lat="49.8734" lon="2.04191">
        <ele>111.1</ele>
        <time>2023-05-31T14:08:34Z</time>
      </trkpt>
      <trkpt lat="49.8734" lon="2.04192">
        <ele>111.1</ele>
        <time>2023-05-31T14:08:35Z</time>
      </trkpt>
      <trkpt lat="49.8734" lon="2.04193">
        <ele>111.1</ele>
        <time>2023-05-31T14:08:36Z</time>
      </trkpt>
      <trkpt lat="49.87341" lon="2.04194">
        <ele>111.1</ele>
        <time>2023-05-31T14:08:37Z</time>
      </trkpt>
      <trkpt lat="49.87341" lon="2.04195">
        <ele>111</ele>
        <time>2023-05-31T14:08:39Z</time>
      </trkpt>
      <trkpt lat="49.87343" lon="2.04197">
        <ele>111</ele>
        <time>2023-05-31T14:08:41Z</time>
      </trkpt>
      <trkpt lat="49.87343" lon="2.04199">
        <ele>111</ele>
        <time>2023-05-31T14:08:42Z</time>
      </trkpt>
      <trkpt lat="49.87344" lon="2.04201">
        <ele>110.9</ele>
        <time>2023-05-31T14:08:43Z</time>
      </trkpt>
      <trkpt lat="49.87345" lon="2.04202">
        <ele>110.9</ele>
        <time>2023-05-31T14:08:44Z</time>
      </trkpt>
      <trkpt lat="49.87346" lon="2.04203">
        <ele>110.9</ele>
        <time>2023-05-31T14:08:45Z</time>
      </trkpt>
      <trkpt lat="49.87346" lon="2.04205">
        <ele>110.8</ele>
        <time>2023-05-31T14:08:46Z</time>
      </trkpt>
      <trkpt lat="49.87347" lon="2.04206">
        <ele>110.8</ele>
        <time>2023-05-31T14:08:47Z</time>
      </trkpt>
      <trkpt lat="49.87347" lon="2.04208">
        <ele>110.8</ele>
        <time>2023-05-31T14:08:49Z</time>
      </trkpt>
      <trkpt lat="49.87348" lon="2.04211">
        <ele>110.7</ele>
        <time>2023-05-31T14:08:50Z</time>
      </trkpt>
      <trkpt lat="49.87348" lon="2.04212">
        <ele>110.7</ele>
        <time>2023-05-31T14:08:51Z</time>
      </trkpt>
      <trkpt lat="49.87348" lon="2.04214">
        <ele>110.6</ele>
        <time>2023-05-31T14:08:52Z</time>
      </trkpt>
      <trkpt lat="49.87349" lon="2.04215">
        <ele>110.6</ele>
        <time>2023-05-31T14:08:53Z</time>
      </trkpt>
      <trkpt lat="49.87349" lon="2.04217">
        <ele>110.5</ele>
        <time>2023-05-31T14:08:54Z</time>
      </trkpt>
      <trkpt lat="49.87349" lon="2.04219">
        <ele>110.5</ele>
        <time>2023-05-31T14:08:55Z</time>
      </trkpt>
      <trkpt lat="49.87348" lon="2.04221">
        <ele>110.5</ele>
        <time>2023-05-31T14:08:56Z</time>
      </trkpt>
      <trkpt lat="49.87348" lon="2.04222">
        <ele>110.5</ele>
        <time>2023-05-31T14:08:57Z</time>
      </trkpt>
      <trkpt lat="49.87348" lon="2.04224">
        <ele>110.5</ele>
        <time>2023-05-31T14:08:58Z</time>
      </trkpt>
      <trkpt lat="49.87347" lon="2.04227">
        <ele>110.4</ele>
        <time>2023-05-31T14:09:00Z</time>
      </trkpt>
      <trkpt lat="49.87346" lon="2.04228">
        <ele>110.4</ele>
        <time>2023-05-31T14:09:01Z</time>
      </trkpt>
      <trkpt lat="49.87346" lon="2.04229">
        <ele>110.4</ele>
        <time>2023-05-31T14:09:02Z</time>
      </trkpt>
      <trkpt lat="49.87346" lon="2.04231">
        <ele>110.4</ele>
        <time>2023-05-31T14:09:04Z</time>
      </trkpt>
      <trkpt lat="49.87345" lon="2.04232">
        <ele>110.4</ele>
        <time>2023-05-31T14:09:05Z</time>
      </trkpt>
      <trkpt lat="49.87345" lon="2.04234">
        <ele>110.4</ele>
        <time>2023-05-31T14:09:06Z</time>
      </trkpt>
      <trkpt lat="49.87344" lon="2.04235">
        <ele>110.3</ele>
        <time>2023-05-31T14:09:07Z</time>
      </trkpt>
      <trkpt lat="49.87344" lon="2.04237">
        <ele>110.3</ele>
        <time>2023-05-31T14:09:08Z</time>
      </trkpt>
      <trkpt lat="49.87343" lon="2.04239">
        <ele>110.3</ele>
        <time>2023-05-31T14:09:09Z</time>
      </trkpt>
      <trkpt lat="49.87343" lon="2.0424">
        <ele>110.3</ele>
        <time>2023-05-31T14:09:10Z</time>
      </trkpt>
      <trkpt lat="49.87342" lon="2.04242">
        <ele>110.3</ele>
        <time>2023-05-31T14:09:11Z</time>
      </trkpt>
      <trkpt lat="49.87342" lon="2.04244">
        <ele>110.2</ele>
        <time>2023-05-31T14:09:13Z</time>
      </trkpt>
      <trkpt lat="49.87341" lon="2.04246">
        <ele>110.2</ele>
        <time>2023-05-31T14:09:14Z</time>
      </trkpt>
      <trkpt lat="49.87341" lon="2.04247">
        <ele>110.2</ele>
        <time>2023-05-31T14:09:15Z</time>
      </trkpt>
      <trkpt lat="49.8734" lon="2.04249">
        <ele>110.2</ele>
        <time>2023-05-31T14:09:16Z</time>
      </trkpt>
      <trkpt lat="49.8734" lon="2.04252">
        <ele>110.1</ele>
        <time>2023-05-31T14:09:17Z</time>
      </trkpt>
      <trkpt lat="49.8734" lon="2.04254">
        <ele>110.1</ele>
        <time>2023-05-31T14:09:18Z</time>
      </trkpt>
      <trkpt lat="49.87339" lon="2.04255">
        <ele>110.1</ele>
        <time>2023-05-31T14:09:19Z</time>
      </trkpt>
      <trkpt lat="49.87339" lon="2.04258">
        <ele>110.1</ele>
        <time>2023-05-31T14:09:20Z</time>
      </trkpt>
      <trkpt lat="49.87339" lon="2.04259">
        <ele>110</ele>
        <time>2023-05-31T14:09:22Z</time>
      </trkpt>
      <trkpt lat="49.87339" lon="2.0426">
        <ele>110</ele>
        <time>2023-05-31T14:09:23Z</time>
      </trkpt>
      <trkpt lat="49.87338" lon="2.04263">
        <ele>110</ele>
        <time>2023-05-31T14:09:24Z</time>
      </trkpt>
      <trkpt lat="49.87338" lon="2.04265">
        <ele>110</ele>
        <time>2023-05-31T14:09:25Z</time>
      </trkpt>
      <trkpt lat="49.87338" lon="2.04266">
        <ele>110</ele>
        <time>2023-05-31T14:09:26Z</time>
      </trkpt>
      <trkpt lat="49.87338" lon="2.04269">
        <ele>109.9</ele>
        <time>2023-05-31T14:09:27Z</time>
      </trkpt>
      <trkpt lat="49.87338" lon="2.0427">
        <ele>109.9</ele>
        <time>2023-05-31T14:09:28Z</time>
      </trkpt>
      <trkpt lat="49.87338" lon="2.04272">
        <ele>109.9</ele>
        <time>2023-05-31T14:09:29Z</time>
      </trkpt>
      <trkpt lat="49.87338" lon="2.04274">
        <ele>109.9</ele>
        <time>2023-05-31T14:09:31Z</time>
      </trkpt>
      <trkpt lat="49.87338" lon="2.04275">
        <ele>109.8</ele>
        <time>2023-05-31T14:09:32Z</time>
      </trkpt>
      <trkpt lat="49.87338" lon="2.04277">
        <ele>109.8</ele>
        <time>2023-05-31T14:09:33Z</time>
      </trkpt>
      <trkpt lat="49.87338" lon="2.04281">
        <ele>109.8</ele>
        <time>2023-05-31T14:09:34Z</time>
      </trkpt>
      <trkpt lat="49.87338" lon="2.04282">
        <ele>109.7</ele>
        <time>2023-05-31T14:09:35Z</time>
      </trkpt>
      <trkpt lat="49.87337" lon="2.04283">
        <ele>109.7</ele>
        <time>2023-05-31T14:09:36Z</time>
      </trkpt>
      <trkpt lat="49.87337" lon="2.04286">
        <ele>109.7</ele>
        <time>2023-05-31T14:09:37Z</time>
      </trkpt>
      <trkpt lat="49.87337" lon="2.04288">
        <ele>109.6</ele>
        <time>2023-05-31T14:09:38Z</time>
      </trkpt>
      <trkpt lat="49.87337" lon="2.04289">
        <ele>109.6</ele>
        <time>2023-05-31T14:09:39Z</time>
      </trkpt>
      <trkpt lat="49.87337" lon="2.04291">
        <ele>109.6</ele>
        <time>2023-05-31T14:09:41Z</time>
      </trkpt>
      <trkpt lat="49.87337" lon="2.04292">
        <ele>109.6</ele>
        <time>2023-05-31T14:09:42Z</time>
      </trkpt>
      <trkpt lat="49.87336" lon="2.04294">
        <ele>109.5</ele>
        <time>2023-05-31T14:09:43Z</time>
      </trkpt>
      <trkpt lat="49.87336" lon="2.04296">
        <ele>109.5</ele>
        <time>2023-05-31T14:09:44Z</time>
      </trkpt>
      <trkpt lat="49.87336" lon="2.04297">
        <ele>109.5</ele>
        <time>2023-05-31T14:09:45Z</time>
      </trkpt>
      <trkpt lat="49.87335" lon="2.04299">
        <ele>109.5</ele>
        <time>2023-05-31T14:09:46Z</time>
      </trkpt>
      <trkpt lat="49.87334" lon="2.04302">
        <ele>109.4</ele>
        <time>2023-05-31T14:09:48Z</time>
      </trkpt>
      <trkpt lat="49.87334" lon="2.04303">
        <ele>109.4</ele>
        <time>2023-05-31T14:09:49Z</time>
      </trkpt>
      <trkpt lat="49.87334" lon="2.04304">
        <ele>109.4</ele>
        <time>2023-05-31T14:09:50Z</time>
      </trkpt>
      <trkpt lat="49.87333" lon="2.04306">
        <ele>109.3</ele>
        <time>2023-05-31T14:09:51Z</time>
      </trkpt>
      <trkpt lat="49.87333" lon="2.04308">
        <ele>109.3</ele>
        <time>2023-05-31T14:09:52Z</time>
      </trkpt>
      <trkpt lat="49.87331" lon="2.04313">
        <ele>109.2</ele>
        <time>2023-05-31T14:09:54Z</time>
      </trkpt>
      <trkpt lat="49.87331" lon="2.04313">
        <ele>109.2</ele>
        <time>2023-05-31T14:09:55Z</time>
      </trkpt>
      <trkpt lat="49.8733" lon="2.04317">
        <ele>109.1</ele>
        <time>2023-05-31T14:09:56Z</time>
      </trkpt>
      <trkpt lat="49.87329" lon="2.04318">
        <ele>109.1</ele>
        <time>2023-05-31T14:09:58Z</time>
      </trkpt>
      <trkpt lat="49.87329" lon="2.0432">
        <ele>109</ele>
        <time>2023-05-31T14:09:59Z</time>
      </trkpt>
      <trkpt lat="49.87328" lon="2.04322">
        <ele>109</ele>
        <time>2023-05-31T14:10:00Z</time>
      </trkpt>
      <trkpt lat="49.87328" lon="2.04323">
        <ele>108.9</ele>
        <time>2023-05-31T14:10:01Z</time>
      </trkpt>
      <trkpt lat="49.87327" lon="2.04325">
        <ele>108.9</ele>
        <time>2023-05-31T14:10:03Z</time>
      </trkpt>
      <trkpt lat="49.87326" lon="2.04328">
        <ele>108.8</ele>
        <time>2023-05-31T14:10:04Z</time>
      </trkpt>
      <trkpt lat="49.87326" lon="2.0433">
        <ele>108.8</ele>
        <time>2023-05-31T14:10:05Z</time>
      </trkpt>
      <trkpt lat="49.87325" lon="2.04331">
        <ele>108.8</ele>
        <time>2023-05-31T14:10:06Z</time>
      </trkpt>
      <trkpt lat="49.87324" lon="2.04334">
        <ele>108.7</ele>
        <time>2023-05-31T14:10:08Z</time>
      </trkpt>
      <trkpt lat="49.87324" lon="2.04335">
        <ele>108.7</ele>
        <time>2023-05-31T14:10:09Z</time>
      </trkpt>
      <trkpt lat="49.87324" lon="2.04336">
        <ele>108.7</ele>
        <time>2023-05-31T14:10:10Z</time>
      </trkpt>
      <trkpt lat="49.87323" lon="2.04339">
        <ele>108.6</ele>
        <time>2023-05-31T14:10:11Z</time>
      </trkpt>
      <trkpt lat="49.87323" lon="2.04341">
        <ele>108.6</ele>
        <time>2023-05-31T14:10:12Z</time>
      </trkpt>
      <trkpt lat="49.87323" lon="2.04342">
        <ele>108.6</ele>
        <time>2023-05-31T14:10:13Z</time>
      </trkpt>
      <trkpt lat="49.87322" lon="2.04343">
        <ele>108.5</ele>
        <time>2023-05-31T14:10:14Z</time>
      </trkpt>
      <trkpt lat="49.87322" lon="2.04345">
        <ele>108.5</ele>
        <time>2023-05-31T14:10:15Z</time>
      </trkpt>
      <trkpt lat="49.87321" lon="2.04346">
        <ele>108.5</ele>
        <time>2023-05-31T14:10:16Z</time>
      </trkpt>
      <trkpt lat="49.87321" lon="2.04349">
        <ele>108.4</ele>
        <time>2023-05-31T14:10:17Z</time>
      </trkpt>
      <trkpt lat="49.8732" lon="2.0435">
        <ele>108.4</ele>
        <time>2023-05-31T14:10:19Z</time>
      </trkpt>
      <trkpt lat="49.8732" lon="2.04352">
        <ele>108.3</ele>
        <time>2023-05-31T14:10:20Z</time>
      </trkpt>
      <trkpt lat="49.87319" lon="2.04355">
        <ele>108.3</ele>
        <time>2023-05-31T14:10:21Z</time>
      </trkpt>
      <trkpt lat="49.87319" lon="2.04356">
        <ele>108.2</ele>
        <time>2023-05-31T14:10:22Z</time>
      </trkpt>
      <trkpt lat="49.87319" lon="2.04357">
        <ele>108.2</ele>
        <time>2023-05-31T14:10:23Z</time>
      </trkpt>
      <trkpt lat="49.87318" lon="2.0436">
        <ele>108.1</ele>
        <time>2023-05-31T14:10:25Z</time>
      </trkpt>
      <trkpt lat="49.87318" lon="2.04361">
        <ele>108.1</ele>
        <time>2023-05-31T14:10:26Z</time>
      </trkpt>
      <trkpt lat="49.87318" lon="2.04363">
        <ele>108.1</ele>
        <time>2023-05-31T14:10:27Z</time>
      </trkpt>
      <trkpt lat="49.87317" lon="2.04366">
        <ele>108</ele>
        <time>2023-05-31T14:10:28Z</time>
      </trkpt>
      <trkpt lat="49.87317" lon="2.04367">
        <ele>108</ele>
        <time>2023-05-31T14:10:29Z</time>
      </trkpt>
      <trkpt lat="49.87317" lon="2.04368">
        <ele>108</ele>
        <time>2023-05-31T14:10:30Z</time>
      </trkpt>
      <trkpt lat="49.87317" lon="2.04371">
        <ele>107.9</ele>
        <time>2023-05-31T14:10:31Z</time>
      </trkpt>
      <trkpt lat="49.87316" lon="2.04373">
        <ele>107.9</ele>
        <time>2023-05-31T14:10:33Z</time>
      </trkpt>
      <trkpt lat="49.87316" lon="2.04375">
        <ele>107.8</ele>
        <time>2023-05-31T14:10:34Z</time>
      </trkpt>
      <trkpt lat="49.87316" lon="2.04377">
        <ele>107.8</ele>
        <time>2023-05-31T14:10:35Z</time>
      </trkpt>
      <trkpt lat="49.87316" lon="2.0438">
        <ele>107.7</ele>
        <time>2023-05-31T14:10:37Z</time>
      </trkpt>
      <trkpt lat="49.87317" lon="2.04383">
        <ele>107.6</ele>
        <time>2023-05-31T14:10:38Z</time>
      </trkpt>
      <trkpt lat="49.87317" lon="2.04384">
        <ele>107.6</ele>
        <time>2023-05-31T14:10:39Z</time>
      </trkpt>
      <trkpt lat="49.87317" lon="2.04386">
        <ele>107.6</ele>
        <time>2023-05-31T14:10:40Z</time>
      </trkpt>
      <trkpt lat="49.87317" lon="2.04388">
        <ele>107.5</ele>
        <time>2023-05-31T14:10:41Z</time>
      </trkpt>
      <trkpt lat="49.87317" lon="2.0439">
        <ele>107.5</ele>
        <time>2023-05-31T14:10:42Z</time>
      </trkpt>
      <trkpt lat="49.87317" lon="2.04392">
        <ele>107.4</ele>
        <time>2023-05-31T14:10:43Z</time>
      </trkpt>
      <trkpt lat="49.87316" lon="2.04394">
        <ele>107.4</ele>
        <time>2023-05-31T14:10:44Z</time>
      </trkpt>
      <trkpt lat="49.87316" lon="2.04397">
        <ele>107.3</ele>
        <time>2023-05-31T14:10:45Z</time>
      </trkpt>
      <trkpt lat="49.87316" lon="2.04399">
        <ele>107.3</ele>
        <time>2023-05-31T14:10:47Z</time>
      </trkpt>
      <trkpt lat="49.87316" lon="2.044">
        <ele>107.3</ele>
        <time>2023-05-31T14:10:48Z</time>
      </trkpt>
      <trkpt lat="49.87315" lon="2.04401">
        <ele>107.2</ele>
        <time>2023-05-31T14:10:49Z</time>
      </trkpt>
      <trkpt lat="49.87315" lon="2.04403">
        <ele>107.2</ele>
        <time>2023-05-31T14:10:50Z</time>
      </trkpt>
      <trkpt lat="49.87314" lon="2.04405">
        <ele>107.1</ele>
        <time>2023-05-31T14:10:51Z</time>
      </trkpt>
      <trkpt lat="49.87314" lon="2.04407">
        <ele>107.1</ele>
        <time>2023-05-31T14:10:52Z</time>
      </trkpt>
      <trkpt lat="49.87314" lon="2.04408">
        <ele>107</ele>
        <time>2023-05-31T14:10:53Z</time>
      </trkpt>
      <trkpt lat="49.87313" lon="2.0441">
        <ele>107</ele>
        <time>2023-05-31T14:10:54Z</time>
      </trkpt>
      <trkpt lat="49.87313" lon="2.04412">
        <ele>107</ele>
        <time>2023-05-31T14:10:55Z</time>
      </trkpt>
      <trkpt lat="49.87313" lon="2.04413">
        <ele>106.9</ele>
        <time>2023-05-31T14:10:56Z</time>
      </trkpt>
      <trkpt lat="49.87312" lon="2.04414">
        <ele>106.9</ele>
        <time>2023-05-31T14:10:58Z</time>
      </trkpt>
      <trkpt lat="49.87311" lon="2.04416">
        <ele>106.9</ele>
        <time>2023-05-31T14:10:59Z</time>
      </trkpt>
      <trkpt lat="49.87311" lon="2.04417">
        <ele>106.8</ele>
        <time>2023-05-31T14:11:00Z</time>
      </trkpt>
      <trkpt lat="49.8731" lon="2.04418">
        <ele>106.8</ele>
        <time>2023-05-31T14:11:01Z</time>
      </trkpt>
      <trkpt lat="49.8731" lon="2.04419">
        <ele>106.8</ele>
        <time>2023-05-31T14:11:02Z</time>
      </trkpt>
      <trkpt lat="49.87309" lon="2.0442">
        <ele>106.7</ele>
        <time>2023-05-31T14:11:03Z</time>
      </trkpt>
      <trkpt lat="49.87309" lon="2.04421">
        <ele>106.7</ele>
        <time>2023-05-31T14:11:05Z</time>
      </trkpt>
      <trkpt lat="49.87308" lon="2.04422">
        <ele>106.7</ele>
        <time>2023-05-31T14:11:06Z</time>
      </trkpt>
      <trkpt lat="49.87307" lon="2.04423">
        <ele>106.6</ele>
        <time>2023-05-31T14:11:07Z</time>
      </trkpt>
      <trkpt lat="49.87307" lon="2.04425">
        <ele>106.6</ele>
        <time>2023-05-31T14:11:08Z</time>
      </trkpt>
      <trkpt lat="49.87306" lon="2.04426">
        <ele>106.6</ele>
        <time>2023-05-31T14:11:09Z</time>
      </trkpt>
      <trkpt lat="49.87306" lon="2.04428">
        <ele>106.5</ele>
        <time>2023-05-31T14:11:10Z</time>
      </trkpt>
      <trkpt lat="49.87305" lon="2.04429">
        <ele>106.5</ele>
        <time>2023-05-31T14:11:12Z</time>
      </trkpt>
      <trkpt lat="49.87304" lon="2.0443">
        <ele>106.4</ele>
        <time>2023-05-31T14:11:13Z</time>
      </trkpt>
      <trkpt lat="49.87302" lon="2.04432">
        <ele>106.4</ele>
        <time>2023-05-31T14:11:14Z</time>
      </trkpt>
      <trkpt lat="49.87301" lon="2.04433">
        <ele>106.3</ele>
        <time>2023-05-31T14:11:15Z</time>
      </trkpt>
      <trkpt lat="49.87301" lon="2.04434">
        <ele>106.3</ele>
        <time>2023-05-31T14:11:16Z</time>
      </trkpt>
      <trkpt lat="49.87299" lon="2.04435">
        <ele>106.3</ele>
        <time>2023-05-31T14:11:17Z</time>
      </trkpt>
      <trkpt lat="49.87298" lon="2.04436">
        <ele>106.1</ele>
        <time>2023-05-31T14:11:18Z</time>
      </trkpt>
      <trkpt lat="49.87297" lon="2.04437">
        <ele>106</ele>
        <time>2023-05-31T14:11:19Z</time>
      </trkpt>
      <trkpt lat="49.87296" lon="2.04438">
        <ele>106</ele>
        <time>2023-05-31T14:11:20Z</time>
      </trkpt>
      <trkpt lat="49.87295" lon="2.04439">
        <ele>105.9</ele>
        <time>2023-05-31T14:11:22Z</time>
      </trkpt>
      <trkpt lat="49.87294" lon="2.0444">
        <ele>105.9</ele>
        <time>2023-05-31T14:11:23Z</time>
      </trkpt>
      <trkpt lat="49.87292" lon="2.04441">
        <ele>105.8</ele>
        <time>2023-05-31T14:11:24Z</time>
      </trkpt>
      <trkpt lat="49.8729" lon="2.04442">
        <ele>105.7</ele>
        <time>2023-05-31T14:11:25Z</time>
      </trkpt>
      <trkpt lat="49.87289" lon="2.04443">
        <ele>105.7</ele>
        <time>2023-05-31T14:11:26Z</time>
      </trkpt>
      <trkpt lat="49.87288" lon="2.04443">
        <ele>105.6</ele>
        <time>2023-05-31T14:11:27Z</time>
      </trkpt>
      <trkpt lat="49.87286" lon="2.04444">
        <ele>105.6</ele>
        <time>2023-05-31T14:11:28Z</time>
      </trkpt>
      <trkpt lat="49.87285" lon="2.04446">
        <ele>105.5</ele>
        <time>2023-05-31T14:11:30Z</time>
      </trkpt>
      <trkpt lat="49.87284" lon="2.04446">
        <ele>105.5</ele>
        <time>2023-05-31T14:11:31Z</time>
      </trkpt>
      <trkpt lat="49.87283" lon="2.04447">
        <ele>105.4</ele>
        <time>2023-05-31T14:11:32Z</time>
      </trkpt>
      <trkpt lat="49.87282" lon="2.04447">
        <ele>105.4</ele>
        <time>2023-05-31T14:11:33Z</time>
      </trkpt>
      <trkpt lat="49.87281" lon="2.04447">
        <ele>105.3</ele>
        <time>2023-05-31T14:11:34Z</time>
      </trkpt>
      <trkpt lat="49.8728" lon="2.04448">
        <ele>105.3</ele>
        <time>2023-05-31T14:11:35Z</time>
      </trkpt>
      <trkpt lat="49.87279" lon="2.04448">
        <ele>105.3</ele>
        <time>2023-05-31T14:11:36Z</time>
      </trkpt>
      <trkpt lat="49.87278" lon="2.04448">
        <ele>105.2</ele>
        <time>2023-05-31T14:11:37Z</time>
      </trkpt>
      <trkpt lat="49.87276" lon="2.04449">
        <ele>105.2</ele>
        <time>2023-05-31T14:11:39Z</time>
      </trkpt>
      <trkpt lat="49.87274" lon="2.0445">
        <ele>105.1</ele>
        <time>2023-05-31T14:11:40Z</time>
      </trkpt>
      <trkpt lat="49.87274" lon="2.04451">
        <ele>105.1</ele>
        <time>2023-05-31T14:11:41Z</time>
      </trkpt>
      <trkpt lat="49.87273" lon="2.04451">
        <ele>105</ele>
        <time>2023-05-31T14:11:42Z</time>
      </trkpt>
      <trkpt lat="49.87272" lon="2.04452">
        <ele>105</ele>
        <time>2023-05-31T14:11:43Z</time>
      </trkpt>
      <trkpt lat="49.87271" lon="2.04453">
        <ele>104.9</ele>
        <time>2023-05-31T14:11:44Z</time>
      </trkpt>
      <trkpt lat="49.8727" lon="2.04454">
        <ele>104.9</ele>
        <time>2023-05-31T14:11:45Z</time>
      </trkpt>
      <trkpt lat="49.87269" lon="2.04455">
        <ele>104.8</ele>
        <time>2023-05-31T14:11:46Z</time>
      </trkpt>
      <trkpt lat="49.87267" lon="2.04455">
        <ele>104.8</ele>
        <time>2023-05-31T14:11:48Z</time>
      </trkpt>
      <trkpt lat="49.87266" lon="2.04456">
        <ele>104.8</ele>
        <time>2023-05-31T14:11:49Z</time>
      </trkpt>
      <trkpt lat="49.87264" lon="2.04456">
        <ele>104.7</ele>
        <time>2023-05-31T14:11:50Z</time>
      </trkpt>
      <trkpt lat="49.87263" lon="2.04456">
        <ele>104.7</ele>
        <time>2023-05-31T14:11:51Z</time>
      </trkpt>
      <trkpt lat="49.87263" lon="2.04456">
        <ele>104.6</ele>
        <time>2023-05-31T14:11:52Z</time>
      </trkpt>
      <trkpt lat="49.87261" lon="2.04456">
        <ele>104.6</ele>
        <time>2023-05-31T14:11:53Z</time>
      </trkpt>
      <trkpt lat="49.8726" lon="2.04457">
        <ele>104.5</ele>
        <time>2023-05-31T14:11:54Z</time>
      </trkpt>
      <trkpt lat="49.87259" lon="2.04457">
        <ele>104.5</ele>
        <time>2023-05-31T14:11:55Z</time>
      </trkpt>
      <trkpt lat="49.87258" lon="2.04457">
        <ele>104.5</ele>
        <time>2023-05-31T14:11:57Z</time>
      </trkpt>
      <trkpt lat="49.87257" lon="2.04457">
        <ele>104.4</ele>
        <time>2023-05-31T14:11:58Z</time>
      </trkpt>
      <trkpt lat="49.87256" lon="2.04457">
        <ele>104.4</ele>
        <time>2023-05-31T14:11:59Z</time>
      </trkpt>
      <trkpt lat="49.87253" lon="2.04458">
        <ele>104.3</ele>
        <time>2023-05-31T14:12:00Z</time>
      </trkpt>
      <trkpt lat="49.87252" lon="2.04459">
        <ele>104.3</ele>
        <time>2023-05-31T14:12:01Z</time>
      </trkpt>
      <trkpt lat="49.87251" lon="2.0446">
        <ele>104.2</ele>
        <time>2023-05-31T14:12:03Z</time>
      </trkpt>
      <trkpt lat="49.8725" lon="2.0446">
        <ele>104.2</ele>
        <time>2023-05-31T14:12:05Z</time>
      </trkpt>
      <trkpt lat="49.87249" lon="2.04461">
        <ele>104.1</ele>
        <time>2023-05-31T14:12:06Z</time>
      </trkpt>
      <trkpt lat="49.87248" lon="2.04462">
        <ele>104.1</ele>
        <time>2023-05-31T14:12:07Z</time>
      </trkpt>
      <trkpt lat="49.87246" lon="2.04463">
        <ele>104</ele>
        <time>2023-05-31T14:12:08Z</time>
      </trkpt>
      <trkpt lat="49.87245" lon="2.04464">
        <ele>104</ele>
        <time>2023-05-31T14:12:09Z</time>
      </trkpt>
      <trkpt lat="49.87244" lon="2.04465">
        <ele>103.9</ele>
        <time>2023-05-31T14:12:10Z</time>
      </trkpt>
      <trkpt lat="49.87243" lon="2.04466">
        <ele>103.9</ele>
        <time>2023-05-31T14:12:12Z</time>
      </trkpt>
      <trkpt lat="49.87241" lon="2.04467">
        <ele>103.8</ele>
        <time>2023-05-31T14:12:13Z</time>
      </trkpt>
      <trkpt lat="49.87241" lon="2.04467">
        <ele>103.8</ele>
        <time>2023-05-31T14:12:14Z</time>
      </trkpt>
      <trkpt lat="49.8724" lon="2.04468">
        <ele>103.7</ele>
        <time>2023-05-31T14:12:15Z</time>
      </trkpt>
      <trkpt lat="49.87239" lon="2.04469">
        <ele>103.7</ele>
        <time>2023-05-31T14:12:16Z</time>
      </trkpt>
      <trkpt lat="49.87237" lon="2.0447">
        <ele>103.6</ele>
        <time>2023-05-31T14:12:17Z</time>
      </trkpt>
      <trkpt lat="49.87235" lon="2.04471">
        <ele>103.5</ele>
        <time>2023-05-31T14:12:18Z</time>
      </trkpt>
      <trkpt lat="49.87234" lon="2.04471">
        <ele>103.5</ele>
        <time>2023-05-31T14:12:19Z</time>
      </trkpt>
      <trkpt lat="49.87232" lon="2.04472">
        <ele>103.4</ele>
        <time>2023-05-31T14:12:21Z</time>
      </trkpt>
      <trkpt lat="49.87231" lon="2.04472">
        <ele>103.2</ele>
        <time>2023-05-31T14:12:22Z</time>
      </trkpt>
      <trkpt lat="49.8723" lon="2.04472">
        <ele>103.2</ele>
        <time>2023-05-31T14:12:23Z</time>
      </trkpt>
      <trkpt lat="49.87229" lon="2.04472">
        <ele>103.2</ele>
        <time>2023-05-31T14:12:24Z</time>
      </trkpt>
      <trkpt lat="49.87228" lon="2.04471">
        <ele>103.3</ele>
        <time>2023-05-31T14:12:25Z</time>
      </trkpt>
      <trkpt lat="49.87228" lon="2.04471">
        <ele>103.3</ele>
        <time>2023-05-31T14:12:26Z</time>
      </trkpt>
      <trkpt lat="49.87227" lon="2.04471">
        <ele>103.3</ele>
        <time>2023-05-31T14:12:27Z</time>
      </trkpt>
      <trkpt lat="49.87227" lon="2.04471">
        <ele>103.3</ele>
        <time>2023-05-31T14:12:29Z</time>
      </trkpt>
      <trkpt lat="49.87226" lon="2.04471">
        <ele>103.3</ele>
        <time>2023-05-31T14:12:30Z</time>
      </trkpt>
      <trkpt lat="49.87225" lon="2.04472">
        <ele>103.3</ele>
        <time>2023-05-31T14:12:31Z</time>
      </trkpt>
      <trkpt lat="49.87224" lon="2.04472">
        <ele>103.3</ele>
        <time>2023-05-31T14:12:32Z</time>
      </trkpt>
      <trkpt lat="49.87223" lon="2.04472">
        <ele>103.4</ele>
        <time>2023-05-31T14:12:33Z</time>
      </trkpt>
      <trkpt lat="49.87222" lon="2.04472">
        <ele>103.4</ele>
        <time>2023-05-31T14:12:34Z</time>
      </trkpt>
      <trkpt lat="49.87221" lon="2.04472">
        <ele>103.4</ele>
        <time>2023-05-31T14:12:35Z</time>
      </trkpt>
      <trkpt lat="49.8722" lon="2.04472">
        <ele>103.4</ele>
        <time>2023-05-31T14:12:36Z</time>
      </trkpt>
      <trkpt lat="49.87219" lon="2.04472">
        <ele>103.5</ele>
        <time>2023-05-31T14:12:38Z</time>
      </trkpt>
      <trkpt lat="49.87218" lon="2.04473">
        <ele>103.5</ele>
        <time>2023-05-31T14:12:39Z</time>
      </trkpt>
      <trkpt lat="49.87217" lon="2.04472">
        <ele>103.5</ele>
        <time>2023-05-31T14:12:40Z</time>
      </trkpt>
      <trkpt lat="49.87216" lon="2.04472">
        <ele>103.5</ele>
        <time>2023-05-31T14:12:41Z</time>
      </trkpt>
      <trkpt lat="49.87214" lon="2.04472">
        <ele>103.6</ele>
        <time>2023-05-31T14:12:42Z</time>
      </trkpt>
      <trkpt lat="49.87214" lon="2.04471">
        <ele>103.6</ele>
        <time>2023-05-31T14:12:43Z</time>
      </trkpt>
      <trkpt lat="49.87213" lon="2.0447">
        <ele>103.6</ele>
        <time>2023-05-31T14:12:44Z</time>
      </trkpt>
      <trkpt lat="49.87211" lon="2.04468">
        <ele>103.7</ele>
        <time>2023-05-31T14:12:46Z</time>
      </trkpt>
      <trkpt lat="49.8721" lon="2.04467">
        <ele>103.7</ele>
        <time>2023-05-31T14:12:47Z</time>
      </trkpt>
      <trkpt lat="49.8721" lon="2.04466">
        <ele>103.7</ele>
        <time>2023-05-31T14:12:48Z</time>
      </trkpt>
      <trkpt lat="49.87209" lon="2.04464">
        <ele>103.8</ele>
        <time>2023-05-31T14:12:49Z</time>
      </trkpt>
      <trkpt lat="49.87208" lon="2.04462">
        <ele>103.8</ele>
        <time>2023-05-31T14:12:50Z</time>
      </trkpt>
      <trkpt lat="49.87207" lon="2.04461">
        <ele>103.9</ele>
        <time>2023-05-31T14:12:52Z</time>
      </trkpt>
      <trkpt lat="49.87206" lon="2.04458">
        <ele>103.9</ele>
        <time>2023-05-31T14:12:53Z</time>
      </trkpt>
      <trkpt lat="49.87206" lon="2.04457">
        <ele>104</ele>
        <time>2023-05-31T14:12:54Z</time>
      </trkpt>
      <trkpt lat="49.87205" lon="2.04456">
        <ele>104</ele>
        <time>2023-05-31T14:12:55Z</time>
      </trkpt>
      <trkpt lat="49.87205" lon="2.04454">
        <ele>104</ele>
        <time>2023-05-31T14:12:56Z</time>
      </trkpt>
      <trkpt lat="49.87204" lon="2.04453">
        <ele>104</ele>
        <time>2023-05-31T14:12:57Z</time>
      </trkpt>
      <trkpt lat="49.87204" lon="2.04451">
        <ele>104.1</ele>
        <time>2023-05-31T14:12:58Z</time>
      </trkpt>
      <trkpt lat="49.87203" lon="2.0445">
        <ele>104.1</ele>
        <time>2023-05-31T14:12:59Z</time>
      </trkpt>
      <trkpt lat="49.87203" lon="2.04448">
        <ele>104.2</ele>
        <time>2023-05-31T14:13:01Z</time>
      </trkpt>
      <trkpt lat="49.87202" lon="2.04447">
        <ele>104.2</ele>
        <time>2023-05-31T14:13:02Z</time>
      </trkpt>
      <trkpt lat="49.87201" lon="2.04446">
        <ele>104.3</ele>
        <time>2023-05-31T14:13:03Z</time>
      </trkpt>
      <trkpt lat="49.872" lon="2.04445">
        <ele>104.3</ele>
        <time>2023-05-31T14:13:04Z</time>
      </trkpt>
      <trkpt lat="49.87199" lon="2.04444">
        <ele>104.3</ele>
        <time>2023-05-31T14:13:06Z</time>
      </trkpt>
      <trkpt lat="49.87198" lon="2.04443">
        <ele>104.4</ele>
        <time>2023-05-31T14:13:07Z</time>
      </trkpt>
      <trkpt lat="49.87197" lon="2.04441">
        <ele>104.4</ele>
        <time>2023-05-31T14:13:08Z</time>
      </trkpt>
      <trkpt lat="49.87197" lon="2.0444">
        <ele>104.5</ele>
        <time>2023-05-31T14:13:09Z</time>
      </trkpt>
      <trkpt lat="49.87196" lon="2.04438">
        <ele>104.5</ele>
        <time>2023-05-31T14:13:10Z</time>
      </trkpt>
      <trkpt lat="49.87196" lon="2.04437">
        <ele>104.6</ele>
        <time>2023-05-31T14:13:12Z</time>
      </trkpt>
      <trkpt lat="49.87195" lon="2.04436">
        <ele>104.6</ele>
        <time>2023-05-31T14:13:13Z</time>
      </trkpt>
      <trkpt lat="49.87195" lon="2.04435">
        <ele>104.6</ele>
        <time>2023-05-31T14:13:14Z</time>
      </trkpt>
      <trkpt lat="49.87194" lon="2.04433">
        <ele>104.7</ele>
        <time>2023-05-31T14:13:15Z</time>
      </trkpt>
      <trkpt lat="49.87194" lon="2.04431">
        <ele>104.7</ele>
        <time>2023-05-31T14:13:16Z</time>
      </trkpt>
      <trkpt lat="49.87193" lon="2.0443">
        <ele>104.8</ele>
        <time>2023-05-31T14:13:17Z</time>
      </trkpt>
      <trkpt lat="49.87193" lon="2.04428">
        <ele>104.8</ele>
        <time>2023-05-31T14:13:18Z</time>
      </trkpt>
      <trkpt lat="49.87192" lon="2.04428">
        <ele>104.9</ele>
        <time>2023-05-31T14:13:19Z</time>
      </trkpt>
      <trkpt lat="49.87192" lon="2.04426">
        <ele>104.9</ele>
        <time>2023-05-31T14:13:20Z</time>
      </trkpt>
      <trkpt lat="49.87191" lon="2.04425">
        <ele>105</ele>
        <time>2023-05-31T14:13:22Z</time>
      </trkpt>
      <trkpt lat="49.87191" lon="2.04424">
        <ele>105</ele>
        <time>2023-05-31T14:13:23Z</time>
      </trkpt>
      <trkpt lat="49.8719" lon="2.04422">
        <ele>105</ele>
        <time>2023-05-31T14:13:24Z</time>
      </trkpt>
      <trkpt lat="49.87189" lon="2.04421">
        <ele>105.1</ele>
        <time>2023-05-31T14:13:25Z</time>
      </trkpt>
      <trkpt lat="49.87189" lon="2.0442">
        <ele>105.1</ele>
        <time>2023-05-31T14:13:26Z</time>
      </trkpt>
      <trkpt lat="49.87188" lon="2.04419">
        <ele>105.2</ele>
        <time>2023-05-31T14:13:27Z</time>
      </trkpt>
      <trkpt lat="49.87187" lon="2.04418">
        <ele>105.2</ele>
        <time>2023-05-31T14:13:28Z</time>
      </trkpt>
      <trkpt lat="49.87187" lon="2.04416">
        <ele>105.3</ele>
        <time>2023-05-31T14:13:30Z</time>
      </trkpt>
      <trkpt lat="49.87186" lon="2.04415">
        <ele>105.3</ele>
        <time>2023-05-31T14:13:31Z</time>
      </trkpt>
      <trkpt lat="49.87185" lon="2.04414">
        <ele>105.4</ele>
        <time>2023-05-31T14:13:32Z</time>
      </trkpt>
      <trkpt lat="49.87185" lon="2.04412">
        <ele>105.4</ele>
        <time>2023-05-31T14:13:33Z</time>
      </trkpt>
      <trkpt lat="49.87184" lon="2.04412">
        <ele>105.4</ele>
        <time>2023-05-31T14:13:34Z</time>
      </trkpt>
      <trkpt lat="49.87183" lon="2.0441">
        <ele>105.5</ele>
        <time>2023-05-31T14:13:35Z</time>
      </trkpt>
      <trkpt lat="49.87183" lon="2.04409">
        <ele>105.5</ele>
        <time>2023-05-31T14:13:36Z</time>
      </trkpt>
      <trkpt lat="49.87182" lon="2.04408">
        <ele>105.6</ele>
        <time>2023-05-31T14:13:38Z</time>
      </trkpt>
      <trkpt lat="49.87182" lon="2.04407">
        <ele>105.6</ele>
        <time>2023-05-31T14:13:39Z</time>
      </trkpt>
      <trkpt lat="49.87182" lon="2.04406">
        <ele>105.7</ele>
        <time>2023-05-31T14:13:40Z</time>
      </trkpt>
      <trkpt lat="49.87181" lon="2.04404">
        <ele>105.7</ele>
        <time>2023-05-31T14:13:41Z</time>
      </trkpt>
      <trkpt lat="49.87181" lon="2.04403">
        <ele>105.7</ele>
        <time>2023-05-31T14:13:42Z</time>
      </trkpt>
      <trkpt lat="49.8718" lon="2.04402">
        <ele>105.8</ele>
        <time>2023-05-31T14:13:43Z</time>
      </trkpt>
      <trkpt lat="49.8718" lon="2.04401">
        <ele>105.8</ele>
        <time>2023-05-31T14:13:44Z</time>
      </trkpt>
      <trkpt lat="49.87179" lon="2.04399">
        <ele>105.9</ele>
        <time>2023-05-31T14:13:46Z</time>
      </trkpt>
      <trkpt lat="49.87179" lon="2.04398">
        <ele>105.9</ele>
        <time>2023-05-31T14:13:47Z</time>
      </trkpt>
      <trkpt lat="49.87178" lon="2.04396">
        <ele>106</ele>
        <time>2023-05-31T14:13:48Z</time>
      </trkpt>
      <trkpt lat="49.87178" lon="2.04394">
        <ele>106</ele>
        <time>2023-05-31T14:13:49Z</time>
      </trkpt>
      <trkpt lat="49.87178" lon="2.04393">
        <ele>106.1</ele>
        <time>2023-05-31T14:13:51Z</time>
      </trkpt>
      <trkpt lat="49.87177" lon="2.04391">
        <ele>106.1</ele>
        <time>2023-05-31T14:13:52Z</time>
      </trkpt>
      <trkpt lat="49.87177" lon="2.0439">
        <ele>106.1</ele>
        <time>2023-05-31T14:13:53Z</time>
      </trkpt>
      <trkpt lat="49.87176" lon="2.04389">
        <ele>106.2</ele>
        <time>2023-05-31T14:13:54Z</time>
      </trkpt>
      <trkpt lat="49.87176" lon="2.04386">
        <ele>106.3</ele>
        <time>2023-05-31T14:13:56Z</time>
      </trkpt>
      <trkpt lat="49.87175" lon="2.04385">
        <ele>106.3</ele>
        <time>2023-05-31T14:13:57Z</time>
      </trkpt>
      <trkpt lat="49.87175" lon="2.04384">
        <ele>106.3</ele>
        <time>2023-05-31T14:13:58Z</time>
      </trkpt>
      <trkpt lat="49.87175" lon="2.04383">
        <ele>106.4</ele>
        <time>2023-05-31T14:13:59Z</time>
      </trkpt>
      <trkpt lat="49.87174" lon="2.04382">
        <ele>106.4</ele>
        <time>2023-05-31T14:14:00Z</time>
      </trkpt>
      <trkpt lat="49.87173" lon="2.04382">
        <ele>106.4</ele>
        <time>2023-05-31T14:14:01Z</time>
      </trkpt>
      <trkpt lat="49.87173" lon="2.04381">
        <ele>106.5</ele>
        <time>2023-05-31T14:14:02Z</time>
      </trkpt>
      <trkpt lat="49.87171" lon="2.0438">
        <ele>106.5</ele>
        <time>2023-05-31T14:14:04Z</time>
      </trkpt>
      <trkpt lat="49.87171" lon="2.04379">
        <ele>106.6</ele>
        <time>2023-05-31T14:14:05Z</time>
      </trkpt>
      <trkpt lat="49.8717" lon="2.04379">
        <ele>106.6</ele>
        <time>2023-05-31T14:14:07Z</time>
      </trkpt>
      <trkpt lat="49.87169" lon="2.04378">
        <ele>106.6</ele>
        <time>2023-05-31T14:14:08Z</time>
      </trkpt>
      <trkpt lat="49.87169" lon="2.04377">
        <ele>106.7</ele>
        <time>2023-05-31T14:14:09Z</time>
      </trkpt>
      <trkpt lat="49.87168" lon="2.04376">
        <ele>106.7</ele>
        <time>2023-05-31T14:14:10Z</time>
      </trkpt>
      <trkpt lat="49.87168" lon="2.04374">
        <ele>106.7</ele>
        <time>2023-05-31T14:14:11Z</time>
      </trkpt>
      <trkpt lat="49.87167" lon="2.04372">
        <ele>106.8</ele>
        <time>2023-05-31T14:14:13Z</time>
      </trkpt>
      <trkpt lat="49.87167" lon="2.0437">
        <ele>106.8</ele>
        <time>2023-05-31T14:14:14Z</time>
      </trkpt>
      <trkpt lat="49.87167" lon="2.04368">
        <ele>106.9</ele>
        <time>2023-05-31T14:14:15Z</time>
      </trkpt>
      <trkpt lat="49.87166" lon="2.04365">
        <ele>107</ele>
        <time>2023-05-31T14:14:16Z</time>
      </trkpt>
      <trkpt lat="49.87165" lon="2.04363">
        <ele>107</ele>
        <time>2023-05-31T14:14:17Z</time>
      </trkpt>
      <trkpt lat="49.87165" lon="2.04362">
        <ele>107.1</ele>
        <time>2023-05-31T14:14:18Z</time>
      </trkpt>
      <trkpt lat="49.87164" lon="2.04359">
        <ele>107.1</ele>
        <time>2023-05-31T14:14:19Z</time>
      </trkpt>
      <trkpt lat="49.87164" lon="2.04357">
        <ele>107.2</ele>
        <time>2023-05-31T14:14:21Z</time>
      </trkpt>
      <trkpt lat="49.87163" lon="2.04356">
        <ele>107.2</ele>
        <time>2023-05-31T14:14:22Z</time>
      </trkpt>
      <trkpt lat="49.87163" lon="2.04355">
        <ele>107.3</ele>
        <time>2023-05-31T14:14:23Z</time>
      </trkpt>
      <trkpt lat="49.87162" lon="2.04353">
        <ele>107.3</ele>
        <time>2023-05-31T14:14:24Z</time>
      </trkpt>
      <trkpt lat="49.87162" lon="2.04352">
        <ele>107.4</ele>
        <time>2023-05-31T14:14:25Z</time>
      </trkpt>
      <trkpt lat="49.87161" lon="2.04351">
        <ele>107.4</ele>
        <time>2023-05-31T14:14:27Z</time>
      </trkpt>
      <trkpt lat="49.87161" lon="2.0435">
        <ele>107.4</ele>
        <time>2023-05-31T14:14:28Z</time>
      </trkpt>
      <trkpt lat="49.8716" lon="2.04348">
        <ele>107.5</ele>
        <time>2023-05-31T14:14:29Z</time>
      </trkpt>
      <trkpt lat="49.87159" lon="2.04347">
        <ele>107.5</ele>
        <time>2023-05-31T14:14:30Z</time>
      </trkpt>
      <trkpt lat="49.87159" lon="2.04346">
        <ele>107.5</ele>
        <time>2023-05-31T14:14:31Z</time>
      </trkpt>
      <trkpt lat="49.87158" lon="2.04345">
        <ele>107.6</ele>
        <time>2023-05-31T14:14:33Z</time>
      </trkpt>
      <trkpt lat="49.87157" lon="2.04345">
        <ele>107.6</ele>
        <time>2023-05-31T14:14:34Z</time>
      </trkpt>
      <trkpt lat="49.87156" lon="2.04345">
        <ele>107.7</ele>
        <time>2023-05-31T14:14:35Z</time>
      </trkpt>
      <trkpt lat="49.87154" lon="2.04344">
        <ele>107.7</ele>
        <time>2023-05-31T14:14:36Z</time>
      </trkpt>
      <trkpt lat="49.87153" lon="2.04344">
        <ele>107.8</ele>
        <time>2023-05-31T14:14:37Z</time>
      </trkpt>
      <trkpt lat="49.87152" lon="2.04344">
        <ele>107.8</ele>
        <time>2023-05-31T14:14:38Z</time>
      </trkpt>
      <trkpt lat="49.87151" lon="2.04343">
        <ele>107.8</ele>
        <time>2023-05-31T14:14:40Z</time>
      </trkpt>
      <trkpt lat="49.8715" lon="2.04343">
        <ele>107.9</ele>
        <time>2023-05-31T14:14:41Z</time>
      </trkpt>
      <trkpt lat="49.87149" lon="2.04342">
        <ele>107.9</ele>
        <time>2023-05-31T14:14:42Z</time>
      </trkpt>
      <trkpt lat="49.87148" lon="2.04341">
        <ele>107.9</ele>
        <time>2023-05-31T14:14:43Z</time>
      </trkpt>
      <trkpt lat="49.87148" lon="2.0434">
        <ele>108</ele>
        <time>2023-05-31T14:14:45Z</time>
      </trkpt>
      <trkpt lat="49.87147" lon="2.0434">
        <ele>108</ele>
        <time>2023-05-31T14:14:46Z</time>
      </trkpt>
      <trkpt lat="49.87146" lon="2.04339">
        <ele>108</ele>
        <time>2023-05-31T14:14:47Z</time>
      </trkpt>
      <trkpt lat="49.87146" lon="2.04338">
        <ele>108</ele>
        <time>2023-05-31T14:14:49Z</time>
      </trkpt>
      <trkpt lat="49.87145" lon="2.04337">
        <ele>108.2</ele>
        <time>2023-05-31T14:14:50Z</time>
      </trkpt>
      <trkpt lat="49.87145" lon="2.04337">
        <ele>108.2</ele>
        <time>2023-05-31T14:14:51Z</time>
      </trkpt>
      <trkpt lat="49.87144" lon="2.04335">
        <ele>108.2</ele>
        <time>2023-05-31T14:14:52Z</time>
      </trkpt>
      <trkpt lat="49.87143" lon="2.04334">
        <ele>108.3</ele>
        <time>2023-05-31T14:14:53Z</time>
      </trkpt>
      <trkpt lat="49.87142" lon="2.04334">
        <ele>108.3</ele>
        <time>2023-05-31T14:14:55Z</time>
      </trkpt>
      <trkpt lat="49.87142" lon="2.04333">
        <ele>108.3</ele>
        <time>2023-05-31T14:14:56Z</time>
      </trkpt>
      <trkpt lat="49.87141" lon="2.04332">
        <ele>108.4</ele>
        <time>2023-05-31T14:14:57Z</time>
      </trkpt>
      <trkpt lat="49.87141" lon="2.0433">
        <ele>108.4</ele>
        <time>2023-05-31T14:14:58Z</time>
      </trkpt>
      <trkpt lat="49.8714" lon="2.04329">
        <ele>108.4</ele>
        <time>2023-05-31T14:14:59Z</time>
      </trkpt>
      <trkpt lat="49.8714" lon="2.04328">
        <ele>108.5</ele>
        <time>2023-05-31T14:15:00Z</time>
      </trkpt>
      <trkpt lat="49.87139" lon="2.04326">
        <ele>108.5</ele>
        <time>2023-05-31T14:15:02Z</time>
      </trkpt>
      <trkpt lat="49.87138" lon="2.04324">
        <ele>108.6</ele>
        <time>2023-05-31T14:15:03Z</time>
      </trkpt>
      <trkpt lat="49.87138" lon="2.04322">
        <ele>108.6</ele>
        <time>2023-05-31T14:15:05Z</time>
      </trkpt>
      <trkpt lat="49.87137" lon="2.04321">
        <ele>108.7</ele>
        <time>2023-05-31T14:15:06Z</time>
      </trkpt>
      <trkpt lat="49.87137" lon="2.04319">
        <ele>108.7</ele>
        <time>2023-05-31T14:15:07Z</time>
      </trkpt>
      <trkpt lat="49.87136" lon="2.04317">
        <ele>108.8</ele>
        <time>2023-05-31T14:15:08Z</time>
      </trkpt>
      <trkpt lat="49.87136" lon="2.04316">
        <ele>108.8</ele>
        <time>2023-05-31T14:15:10Z</time>
      </trkpt>
      <trkpt lat="49.87136" lon="2.04314">
        <ele>108.9</ele>
        <time>2023-05-31T14:15:11Z</time>
      </trkpt>
      <trkpt lat="49.87136" lon="2.04313">
        <ele>108.9</ele>
        <time>2023-05-31T14:15:12Z</time>
      </trkpt>
      <trkpt lat="49.87135" lon="2.04311">
        <ele>108.9</ele>
        <time>2023-05-31T14:15:13Z</time>
      </trkpt>
      <trkpt lat="49.87135" lon="2.04309">
        <ele>109</ele>
        <time>2023-05-31T14:15:15Z</time>
      </trkpt>
      <trkpt lat="49.87134" lon="2.04308">
        <ele>109</ele>
        <time>2023-05-31T14:15:16Z</time>
      </trkpt>
      <trkpt lat="49.87133" lon="2.04307">
        <ele>109.1</ele>
        <time>2023-05-31T14:15:18Z</time>
      </trkpt>
      <trkpt lat="49.87133" lon="2.04306">
        <ele>109.1</ele>
        <time>2023-05-31T14:15:19Z</time>
      </trkpt>
      <trkpt lat="49.87132" lon="2.04305">
        <ele>109.1</ele>
        <time>2023-05-31T14:15:20Z</time>
      </trkpt>
      <trkpt lat="49.87132" lon="2.04304">
        <ele>109.2</ele>
        <time>2023-05-31T14:15:21Z</time>
      </trkpt>
      <trkpt lat="49.87131" lon="2.04303">
        <ele>109.2</ele>
        <time>2023-05-31T14:15:22Z</time>
      </trkpt>
      <trkpt lat="49.8713" lon="2.04302">
        <ele>109.2</ele>
        <time>2023-05-31T14:15:23Z</time>
      </trkpt>
      <trkpt lat="49.87129" lon="2.043">
        <ele>109.3</ele>
        <time>2023-05-31T14:15:25Z</time>
      </trkpt>
      <trkpt lat="49.87129" lon="2.043">
        <ele>109.3</ele>
        <time>2023-05-31T14:15:26Z</time>
      </trkpt>
      <trkpt lat="49.87128" lon="2.04299">
        <ele>109.3</ele>
        <time>2023-05-31T14:15:27Z</time>
      </trkpt>
      <trkpt lat="49.87128" lon="2.04297">
        <ele>109.4</ele>
        <time>2023-05-31T14:15:28Z</time>
      </trkpt>
      <trkpt lat="49.87127" lon="2.04296">
        <ele>109.4</ele>
        <time>2023-05-31T14:15:29Z</time>
      </trkpt>
      <trkpt lat="49.87126" lon="2.04295">
        <ele>109.5</ele>
        <time>2023-05-31T14:15:30Z</time>
      </trkpt>
      <trkpt lat="49.87125" lon="2.04293">
        <ele>109.5</ele>
        <time>2023-05-31T14:15:31Z</time>
      </trkpt>
      <trkpt lat="49.87125" lon="2.04292">
        <ele>109.5</ele>
        <time>2023-05-31T14:15:33Z</time>
      </trkpt>
      <trkpt lat="49.87125" lon="2.04291">
        <ele>109.6</ele>
        <time>2023-05-31T14:15:34Z</time>
      </trkpt>
      <trkpt lat="49.87124" lon="2.04289">
        <ele>109.6</ele>
        <time>2023-05-31T14:15:35Z</time>
      </trkpt>
      <trkpt lat="49.87124" lon="2.04288">
        <ele>109.6</ele>
        <time>2023-05-31T14:15:36Z</time>
      </trkpt>
      <trkpt lat="49.87123" lon="2.04286">
        <ele>109.7</ele>
        <time>2023-05-31T14:15:37Z</time>
      </trkpt>
      <trkpt lat="49.87123" lon="2.04284">
        <ele>109.7</ele>
        <time>2023-05-31T14:15:39Z</time>
      </trkpt>
      <trkpt lat="49.87122" lon="2.04283">
        <ele>109.8</ele>
        <time>2023-05-31T14:15:40Z</time>
      </trkpt>
      <trkpt lat="49.87121" lon="2.04281">
        <ele>109.8</ele>
        <time>2023-05-31T14:15:41Z</time>
      </trkpt>
      <trkpt lat="49.87121" lon="2.0428">
        <ele>109.8</ele>
        <time>2023-05-31T14:15:42Z</time>
      </trkpt>
      <trkpt lat="49.8712" lon="2.04279">
        <ele>109.9</ele>
        <time>2023-05-31T14:15:43Z</time>
      </trkpt>
      <trkpt lat="49.8712" lon="2.04278">
        <ele>109.9</ele>
        <time>2023-05-31T14:15:44Z</time>
      </trkpt>
      <trkpt lat="49.87119" lon="2.04277">
        <ele>109.9</ele>
        <time>2023-05-31T14:15:45Z</time>
      </trkpt>
      <trkpt lat="49.87119" lon="2.04276">
        <ele>109.9</ele>
        <time>2023-05-31T14:15:46Z</time>
      </trkpt>
      <trkpt lat="49.87118" lon="2.04275">
        <ele>110</ele>
        <time>2023-05-31T14:15:47Z</time>
      </trkpt>
      <trkpt lat="49.87117" lon="2.04275">
        <ele>110</ele>
        <time>2023-05-31T14:15:49Z</time>
      </trkpt>
      <trkpt lat="49.87117" lon="2.04274">
        <ele>110</ele>
        <time>2023-05-31T14:15:50Z</time>
      </trkpt>
      <trkpt lat="49.87116" lon="2.04274">
        <ele>110</ele>
        <time>2023-05-31T14:15:51Z</time>
      </trkpt>
      <trkpt lat="49.87115" lon="2.04273">
        <ele>110.1</ele>
        <time>2023-05-31T14:15:52Z</time>
      </trkpt>
      <trkpt lat="49.87114" lon="2.04271">
        <ele>110.1</ele>
        <time>2023-05-31T14:15:54Z</time>
      </trkpt>
      <trkpt lat="49.87114" lon="2.0427">
        <ele>110.1</ele>
        <time>2023-05-31T14:15:55Z</time>
      </trkpt>
      <trkpt lat="49.87113" lon="2.04269">
        <ele>110.2</ele>
        <time>2023-05-31T14:15:56Z</time>
      </trkpt>
      <trkpt lat="49.87113" lon="2.04268">
        <ele>110.2</ele>
        <time>2023-05-31T14:15:57Z</time>
      </trkpt>
      <trkpt lat="49.87112" lon="2.04266">
        <ele>110.2</ele>
        <time>2023-05-31T14:15:58Z</time>
      </trkpt>
      <trkpt lat="49.87111" lon="2.04265">
        <ele>110.3</ele>
        <time>2023-05-31T14:15:59Z</time>
      </trkpt>
      <trkpt lat="49.87111" lon="2.04263">
        <ele>110.3</ele>
        <time>2023-05-31T14:16:01Z</time>
      </trkpt>
      <trkpt lat="49.8711" lon="2.04262">
        <ele>110.3</ele>
        <time>2023-05-31T14:16:02Z</time>
      </trkpt>
      <trkpt lat="49.87109" lon="2.0426">
        <ele>110.4</ele>
        <time>2023-05-31T14:16:03Z</time>
      </trkpt>
      <trkpt lat="49.87109" lon="2.04259">
        <ele>110.4</ele>
        <time>2023-05-31T14:16:04Z</time>
      </trkpt>
      <trkpt lat="49.87107" lon="2.04255">
        <ele>110.5</ele>
        <time>2023-05-31T14:16:06Z</time>
      </trkpt>
      <trkpt lat="49.87107" lon="2.04254">
        <ele>110.5</ele>
        <time>2023-05-31T14:16:07Z</time>
      </trkpt>
      <trkpt lat="49.87105" lon="2.04251">
        <ele>110.6</ele>
        <time>2023-05-31T14:16:09Z</time>
      </trkpt>
      <trkpt lat="49.87105" lon="2.0425">
        <ele>110.6</ele>
        <time>2023-05-31T14:16:10Z</time>
      </trkpt>
      <trkpt lat="49.87104" lon="2.04249">
        <ele>110.7</ele>
        <time>2023-05-31T14:16:11Z</time>
      </trkpt>
      <trkpt lat="49.87104" lon="2.04247">
        <ele>110.7</ele>
        <time>2023-05-31T14:16:12Z</time>
      </trkpt>
      <trkpt lat="49.87103" lon="2.04245">
        <ele>110.7</ele>
        <time>2023-05-31T14:16:13Z</time>
      </trkpt>
      <trkpt lat="49.87103" lon="2.04244">
        <ele>110.8</ele>
        <time>2023-05-31T14:16:14Z</time>
      </trkpt>
      <trkpt lat="49.87103" lon="2.04242">
        <ele>110.8</ele>
        <time>2023-05-31T14:16:16Z</time>
      </trkpt>
      <trkpt lat="49.87104" lon="2.0424">
        <ele>110.8</ele>
        <time>2023-05-31T14:16:17Z</time>
      </trkpt>
      <trkpt lat="49.87104" lon="2.04239">
        <ele>110.9</ele>
        <time>2023-05-31T14:16:18Z</time>
      </trkpt>
      <trkpt lat="49.87104" lon="2.04237">
        <ele>110.9</ele>
        <time>2023-05-31T14:16:19Z</time>
      </trkpt>
      <trkpt lat="49.87103" lon="2.04237">
        <ele>110.9</ele>
        <time>2023-05-31T14:16:21Z</time>
      </trkpt>
      <trkpt lat="49.87102" lon="2.04237">
        <ele>110.9</ele>
        <time>2023-05-31T14:16:22Z</time>
      </trkpt>
      <trkpt lat="49.87101" lon="2.04238">
        <ele>111</ele>
        <time>2023-05-31T14:16:23Z</time>
      </trkpt>
      <trkpt lat="49.87101" lon="2.04239">
        <ele>111</ele>
        <time>2023-05-31T14:16:25Z</time>
      </trkpt>
      <trkpt lat="49.87101" lon="2.04239">
        <ele>111</ele>
        <time>2023-05-31T14:16:26Z</time>
      </trkpt>
      <trkpt lat="49.87101" lon="2.04239">
        <ele>111</ele>
        <time>2023-05-31T14:16:27Z</time>
      </trkpt>
      <trkpt lat="49.87101" lon="2.04239">
        <ele>111</ele>
        <time>2023-05-31T14:16:29Z</time>
      </trkpt>
      <trkpt lat="49.871" lon="2.04239">
        <ele>111</ele>
        <time>2023-05-31T14:16:30Z</time>
      </trkpt>
      <trkpt lat="49.871" lon="2.0424">
        <ele>111</ele>
        <time>2023-05-31T14:16:32Z</time>
      </trkpt>
      <trkpt lat="49.871" lon="2.0424">
        <ele>111</ele>
        <time>2023-05-31T14:16:33Z</time>
      </trkpt>
      <trkpt lat="49.871" lon="2.0424">
        <ele>111</ele>
        <time>2023-05-31T14:16:35Z</time>
      </trkpt>
      <trkpt lat="49.871" lon="2.0424">
        <ele>111</ele>
        <time>2023-05-31T14:16:36Z</time>
      </trkpt>
      <trkpt lat="49.871" lon="2.0424">
        <ele>111</ele>
        <time>2023-05-31T14:16:38Z</time>
      </trkpt>
      <trkpt lat="49.871" lon="2.0424">
        <ele>111</ele>
        <time>2023-05-31T14:16:39Z</time>
      </trkpt>
      <trkpt lat="49.87101" lon="2.0424">
        <ele>111</ele>
        <time>2023-05-31T14:16:40Z</time>
      </trkpt>
      <trkpt lat="49.87101" lon="2.0424">
        <ele>111</ele>
        <time>2023-05-31T14:16:41Z</time>
      </trkpt>
      <trkpt lat="49.87101" lon="2.0424">
        <ele>111</ele>
        <time>2023-05-31T14:16:42Z</time>
      </trkpt>
      <trkpt lat="49.87101" lon="2.0424">
        <ele>111</ele>
        <time>2023-05-31T14:16:43Z</time>
      </trkpt>
      <trkpt lat="49.87101" lon="2.0424">
        <ele>111</ele>
        <time>2023-05-31T14:16:44Z</time>
      </trkpt>
      <trkpt lat="49.87101" lon="2.0424">
        <ele>111</ele>
        <time>2023-05-31T14:16:45Z</time>
      </trkpt>
      <trkpt lat="49.87101" lon="2.0424">
        <ele>111</ele>
        <time>2023-05-31T14:16:46Z</time>
      </trkpt>
      <trkpt lat="49.87101" lon="2.0424">
        <ele>111</ele>
        <time>2023-05-31T14:16:47Z</time>
      </trkpt>
      <trkpt lat="49.87101" lon="2.0424">
        <ele>111</ele>
        <time>2023-05-31T14:16:48Z</time>
      </trkpt>
      <trkpt lat="49.87101" lon="2.0424">
        <ele>111</ele>
        <time>2023-05-31T14:16:49Z</time>
      </trkpt>
      <trkpt lat="49.87101" lon="2.0424">
        <ele>111</ele>
        <time>2023-05-31T14:16:50Z</time>
      </trkpt>
      <trkpt lat="49.87101" lon="2.0424">
        <ele>111</ele>
        <time>2023-05-31T14:16:51Z</time>
      </trkpt>
      <trkpt lat="49.87101" lon="2.0424">
        <ele>111</ele>
        <time>2023-05-31T14:16:52Z</time>
      </trkpt>
      <trkpt lat="49.87101" lon="2.0424">
        <ele>111</ele>
        <time>2023-05-31T14:16:53Z</time>
      </trkpt>
      <trkpt lat="49.87101" lon="2.0424">
        <ele>111</ele>
        <time>2023-05-31T14:16:54Z</time>
      </trkpt>
      <trkpt lat="49.87101" lon="2.0424">
        <ele>111</ele>
        <time>2023-05-31T14:16:55Z</time>
      </trkpt>
      <trkpt lat="49.87101" lon="2.0424">
        <ele>111</ele>
        <time>2023-05-31T14:16:56Z</time>
      </trkpt>
      <trkpt lat="49.87101" lon="2.0424">
        <ele>111</ele>
        <time>2023-05-31T14:16:57Z</time>
      </trkpt>
      <trkpt lat="49.87101" lon="2.0424">
        <ele>111</ele>
        <time>2023-05-31T14:16:58Z</time>
      </trkpt>
      <trkpt lat="49.87101" lon="2.0424">
        <ele>111</ele>
        <time>2023-05-31T14:16:59Z</time>
      </trkpt>
      <trkpt lat="49.87101" lon="2.0424">
        <ele>111</ele>
        <time>2023-05-31T14:17:00Z</time>
      </trkpt>
      <trkpt lat="49.87101" lon="2.0424">
        <ele>111</ele>
        <time>2023-05-31T14:17:01Z</time>
      </trkpt>
      <trkpt lat="49.87101" lon="2.0424">
        <ele>111</ele>
        <time>2023-05-31T14:17:02Z</time>
      </trkpt>
      <trkpt lat="49.87101" lon="2.0424">
        <ele>111</ele>
        <time>2023-05-31T14:17:03Z</time>
      </trkpt>
      <trkpt lat="49.87101" lon="2.0424">
        <ele>111</ele>
        <time>2023-05-31T14:17:04Z</time>
      </trkpt>
      <trkpt lat="49.87101" lon="2.0424">
        <ele>111</ele>
        <time>2023-05-31T14:17:05Z</time>
      </trkpt>
      <trkpt lat="49.87101" lon="2.0424">
        <ele>111</ele>
        <time>2023-05-31T14:17:06Z</time>
      </trkpt>
      <trkpt lat="49.87101" lon="2.0424">
        <ele>111</ele>
        <time>2023-05-31T14:17:07Z</time>
      </trkpt>
      <trkpt lat="49.87101" lon="2.0424">
        <ele>111</ele>
        <time>2023-05-31T14:17:08Z</time>
      </trkpt>
      <trkpt lat="49.87101" lon="2.0424">
        <ele>111</ele>
        <time>2023-05-31T14:17:09Z</time>
      </trkpt>
      <trkpt lat="49.87101" lon="2.0424">
        <ele>111</ele>
        <time>2023-05-31T14:17:10Z</time>
      </trkpt>
      <trkpt lat="49.87101" lon="2.0424">
        <ele>111</ele>
        <time>2023-05-31T14:17:11Z</time>
      </trkpt>
      <trkpt lat="49.87101" lon="2.0424">
        <ele>111</ele>
        <time>2023-05-31T14:17:12Z</time>
      </trkpt>
      <trkpt lat="49.87101" lon="2.0424">
        <ele>111</ele>
        <time>2023-05-31T14:17:13Z</time>
      </trkpt>
      <trkpt lat="49.87101" lon="2.0424">
        <ele>111</ele>
        <time>2023-05-31T14:17:14Z</time>
      </trkpt>
      <trkpt lat="49.87101" lon="2.0424">
        <ele>111</ele>
        <time>2023-05-31T14:17:15Z</time>
      </trkpt>
      <trkpt lat="49.87101" lon="2.0424">
        <ele>111</ele>
        <time>2023-05-31T14:17:16Z</time>
      </trkpt>
      <trkpt lat="49.87101" lon="2.0424">
        <ele>111</ele>
        <time>2023-05-31T14:17:17Z</time>
      </trkpt>
      <trkpt lat="49.87101" lon="2.0424">
        <ele>111</ele>
        <time>2023-05-31T14:17:18Z</time>
      </trkpt>
      <trkpt lat="49.87101" lon="2.0424">
        <ele>111</ele>
        <time>2023-05-31T14:17:19Z</time>
      </trkpt>
      <trkpt lat="49.87101" lon="2.0424">
        <ele>111</ele>
        <time>2023-05-31T14:17:20Z</time>
      </trkpt>
      <trkpt lat="49.87101" lon="2.0424">
        <ele>111</ele>
        <time>2023-05-31T14:17:21Z</time>
      </trkpt>
      <trkpt lat="49.87101" lon="2.0424">
        <ele>111</ele>
        <time>2023-05-31T14:17:22Z</time>
      </trkpt>
      <trkpt lat="49.87101" lon="2.0424">
        <ele>111</ele>
        <time>2023-05-31T14:17:23Z</time>
      </trkpt>
      <trkpt lat="49.87101" lon="2.0424">
        <ele>111</ele>
        <time>2023-05-31T14:17:24Z</time>
      </trkpt>
      <trkpt lat="49.87101" lon="2.0424">
        <ele>111</ele>
        <time>2023-05-31T14:17:25Z</time>
      </trkpt>
      <trkpt lat="49.87101" lon="2.0424">
        <ele>111</ele>
        <time>2023-05-31T14:17:26Z</time>
      </trkpt>
      <trkpt lat="49.87101" lon="2.0424">
        <ele>111</ele>
        <time>2023-05-31T14:17:27Z</time>
      </trkpt>
      <trkpt lat="49.87101" lon="2.0424">
        <ele>111</ele>
        <time>2023-05-31T14:17:28Z</time>
      </trkpt>
      <trkpt lat="49.87101" lon="2.0424">
        <ele>111</ele>
        <time>2023-05-31T14:17:29Z</time>
      </trkpt>
      <trkpt lat="49.87101" lon="2.0424">
        <ele>111</ele>
        <time>2023-05-31T14:17:30Z</time>
      </trkpt>
      <trkpt lat="49.87101" lon="2.0424">
        <ele>111</ele>
        <time>2023-05-31T14:17:31Z</time>
      </trkpt>
      <trkpt lat="49.87101" lon="2.0424">
        <ele>111</ele>
        <time>2023-05-31T14:17:32Z</time>
      </trkpt>
      <trkpt lat="49.87101" lon="2.0424">
        <ele>111</ele>
        <time>2023-05-31T14:17:33Z</time>
      </trkpt>
      <trkpt lat="49.87101" lon="2.0424">
        <ele>111</ele>
        <time>2023-05-31T14:17:34Z</time>
      </trkpt>
      <trkpt lat="49.87101" lon="2.0424">
        <ele>111</ele>
        <time>2023-05-31T14:17:35Z</time>
      </trkpt>
      <trkpt lat="49.87101" lon="2.0424">
        <ele>111</ele>
        <time>2023-05-31T14:17:36Z</time>
      </trkpt>
      <trkpt lat="49.87101" lon="2.0424">
        <ele>111</ele>
        <time>2023-05-31T14:17:37Z</time>
      </trkpt>
      <trkpt lat="49.87101" lon="2.0424">
        <ele>111</ele>
        <time>2023-05-31T14:17:38Z</time>
      </trkpt>
      <trkpt lat="49.87101" lon="2.0424">
        <ele>111</ele>
        <time>2023-05-31T14:17:39Z</time>
      </trkpt>
      <trkpt lat="49.87101" lon="2.0424">
        <ele>111</ele>
        <time>2023-05-31T14:17:40Z</time>
      </trkpt>
      <trkpt lat="49.87101" lon="2.0424">
        <ele>111</ele>
        <time>2023-05-31T14:17:41Z</time>
      </trkpt>
      <trkpt lat="49.87101" lon="2.0424">
        <ele>111</ele>
        <time>2023-05-31T14:17:42Z</time>
      </trkpt>
      <trkpt lat="49.87101" lon="2.0424">
        <ele>111</ele>
        <time>2023-05-31T14:17:43Z</time>
      </trkpt>
      <trkpt lat="49.87101" lon="2.0424">
        <ele>111</ele>
        <time>2023-05-31T14:17:44Z</time>
      </trkpt>
      <trkpt lat="49.87101" lon="2.0424">
        <ele>111</ele>
        <time>2023-05-31T14:17:45Z</time>
      </trkpt>
      <trkpt lat="49.87101" lon="2.0424">
        <ele>111</ele>
        <time>2023-05-31T14:17:46Z</time>
      </trkpt>
      <trkpt lat="49.87101" lon="2.0424">
        <ele>111</ele>
        <time>2023-05-31T14:17:47Z</time>
      </trkpt>
      <trkpt lat="49.87101" lon="2.0424">
        <ele>111</ele>
        <time>2023-05-31T14:17:48Z</time>
      </trkpt>
      <trkpt lat="49.87101" lon="2.0424">
        <ele>111</ele>
        <time>2023-05-31T14:17:49Z</time>
      </trkpt>
      <trkpt lat="49.87101" lon="2.0424">
        <ele>111</ele>
        <time>2023-05-31T14:17:50Z</time>
      </trkpt>
      <trkpt lat="49.87101" lon="2.0424">
        <ele>111</ele>
        <time>2023-05-31T14:17:51Z</time>
      </trkpt>
      <trkpt lat="49.87101" lon="2.0424">
        <ele>111</ele>
        <time>2023-05-31T14:17:52Z</time>
      </trkpt>
      <trkpt lat="49.87101" lon="2.0424">
        <ele>111</ele>
        <time>2023-05-31T14:17:53Z</time>
      </trkpt>
      <trkpt lat="49.87101" lon="2.0424">
        <ele>111</ele>
        <time>2023-05-31T14:17:54Z</time>
      </trkpt>
      <trkpt lat="49.87101" lon="2.0424">
        <ele>111</ele>
        <time>2023-05-31T14:17:55Z</time>
      </trkpt>
      <trkpt lat="49.87101" lon="2.0424">
        <ele>111</ele>
        <time>2023-05-31T14:17:56Z</time>
      </trkpt>
      <trkpt lat="49.87101" lon="2.0424">
        <ele>111</ele>
        <time>2023-05-31T14:17:57Z</time>
      </trkpt>
      <trkpt lat="49.87101" lon="2.0424">
        <ele>111</ele>
        <time>2023-05-31T14:17:58Z</time>
      </trkpt>
      <trkpt lat="49.87101" lon="2.0424">
        <ele>111</ele>
        <time>2023-05-31T14:17:59Z</time>
      </trkpt>
      <trkpt lat="49.87101" lon="2.0424">
        <ele>111</ele>
        <time>2023-05-31T14:18:00Z</time>
      </trkpt>
      <trkpt lat="49.87101" lon="2.0424">
        <ele>111</ele>
        <time>2023-05-31T14:18:01Z</time>
      </trkpt>
      <trkpt lat="49.87101" lon="2.0424">
        <ele>111</ele>
        <time>2023-05-31T14:18:02Z</time>
      </trkpt>
      <trkpt lat="49.87101" lon="2.0424">
        <ele>111</ele>
        <time>2023-05-31T14:18:03Z</time>
      </trkpt>
      <trkpt lat="49.87101" lon="2.0424">
        <ele>111</ele>
        <time>2023-05-31T14:18:04Z</time>
      </trkpt>
      <trkpt lat="49.87101" lon="2.0424">
        <ele>111</ele>
        <time>2023-05-31T14:18:05Z</time>
      </trkpt>
      <trkpt lat="49.87101" lon="2.0424">
        <ele>111</ele>
        <time>2023-05-31T14:18:06Z</time>
      </trkpt>
      <trkpt lat="49.87101" lon="2.0424">
        <ele>111</ele>
        <time>2023-05-31T14:18:07Z</time>
      </trkpt>
      <trkpt lat="49.87101" lon="2.0424">
        <ele>111</ele>
        <time>2023-05-31T14:18:08Z</time>
      </trkpt>
      <trkpt lat="49.87101" lon="2.0424">
        <ele>111</ele>
        <time>2023-05-31T14:18:09Z</time>
      </trkpt>
      <trkpt lat="49.87101" lon="2.0424">
        <ele>111</ele>
        <time>2023-05-31T14:18:10Z</time>
      </trkpt>
      <trkpt lat="49.87101" lon="2.0424">
        <ele>111</ele>
        <time>2023-05-31T14:18:11Z</time>
      </trkpt>
      <trkpt lat="49.87101" lon="2.0424">
        <ele>111</ele>
        <time>2023-05-31T14:18:12Z</time>
      </trkpt>
      <trkpt lat="49.87101" lon="2.0424">
        <ele>111</ele>
        <time>2023-05-31T14:18:13Z</time>
      </trkpt>
      <trkpt lat="49.87101" lon="2.0424">
        <ele>111</ele>
        <time>2023-05-31T14:18:14Z</time>
      </trkpt>
      <trkpt lat="49.87101" lon="2.0424">
        <ele>111</ele>
        <time>2023-05-31T14:18:15Z</time>
      </trkpt>
      <trkpt lat="49.87101" lon="2.0424">
        <ele>111</ele>
        <time>2023-05-31T14:18:16Z</time>
      </trkpt>
      <trkpt lat="49.87101" lon="2.0424">
        <ele>111</ele>
        <time>2023-05-31T14:18:17Z</time>
      </trkpt>
      <trkpt lat="49.87101" lon="2.0424">
        <ele>111</ele>
        <time>2023-05-31T14:18:18Z</time>
      </trkpt>
      <trkpt lat="49.87101" lon="2.0424">
        <ele>111</ele>
        <time>2023-05-31T14:18:19Z</time>
      </trkpt>
      <trkpt lat="49.87101" lon="2.0424">
        <ele>111</ele>
        <time>2023-05-31T14:18:20Z</time>
      </trkpt>
      <trkpt lat="49.87101" lon="2.0424">
        <ele>111</ele>
        <time>2023-05-31T14:18:21Z</time>
      </trkpt>
      <trkpt lat="49.87101" lon="2.0424">
        <ele>111</ele>
        <time>2023-05-31T14:18:22Z</time>
      </trkpt>
      <trkpt lat="49.87101" lon="2.0424">
        <ele>111</ele>
        <time>2023-05-31T14:18:23Z</time>
      </trkpt>
      <trkpt lat="49.87101" lon="2.0424">
        <ele>111</ele>
        <time>2023-05-31T14:18:24Z</time>
      </trkpt>
      <trkpt lat="49.87101" lon="2.0424">
        <ele>111</ele>
        <time>2023-05-31T14:18:25Z</time>
      </trkpt>
      <trkpt lat="49.87101" lon="2.0424">
        <ele>111</ele>
        <time>2023-05-31T14:18:26Z</time>
      </trkpt>
      <trkpt lat="49.87101" lon="2.0424">
        <ele>111</ele>
        <time>2023-05-31T14:18:27Z</time>
      </trkpt>
      <trkpt lat="49.87101" lon="2.0424">
        <ele>111</ele>
        <time>2023-05-31T14:18:28Z</time>
      </trkpt>
      <trkpt lat="49.87101" lon="2.0424">
        <ele>111</ele>
        <time>2023-05-31T14:18:29Z</time>
      </trkpt>
      <trkpt lat="49.87101" lon="2.0424">
        <ele>111</ele>
        <time>2023-05-31T14:18:30Z</time>
      </trkpt>
      <trkpt lat="49.87101" lon="2.0424">
        <ele>111</ele>
        <time>2023-05-31T14:18:31Z</time>
      </trkpt>
      <trkpt lat="49.87101" lon="2.0424">
        <ele>111</ele>
        <time>2023-05-31T14:18:32Z</time>
      </trkpt>
      <trkpt lat="49.87101" lon="2.0424">
        <ele>111</ele>
        <time>2023-05-31T14:18:33Z</time>
      </trkpt>
      <trkpt lat="49.87101" lon="2.0424">
        <ele>111</ele>
        <time>2023-05-31T14:18:34Z</time>
      </trkpt>
      <trkpt lat="49.87101" lon="2.0424">
        <ele>111</ele>
        <time>2023-05-31T14:18:35Z</time>
      </trkpt>
      <trkpt lat="49.87101" lon="2.0424">
        <ele>111</ele>
        <time>2023-05-31T14:18:36Z</time>
      </trkpt>
      <trkpt lat="49.87101" lon="2.0424">
        <ele>111</ele>
        <time>2023-05-31T14:18:37Z</time>
      </trkpt>
      <trkpt lat="49.87101" lon="2.0424">
        <ele>111</ele>
        <time>2023-05-31T14:18:38Z</time>
      </trkpt>
      <trkpt lat="49.87101" lon="2.0424">
        <ele>111</ele>
        <time>2023-05-31T14:18:39Z</time>
      </trkpt>
      <trkpt lat="49.87101" lon="2.0424">
        <ele>111</ele>
        <time>2023-05-31T14:18:40Z</time>
      </trkpt>
      <trkpt lat="49.87101" lon="2.0424">
        <ele>111</ele>
        <time>2023-05-31T14:18:41Z</time>
      </trkpt>
      <trkpt lat="49.87101" lon="2.0424">
        <ele>111</ele>
        <time>2023-05-31T14:18:42Z</time>
      </trkpt>
      <trkpt lat="49.87101" lon="2.0424">
        <ele>111</ele>
        <time>2023-05-31T14:18:43Z</time>
      </trkpt>
      <trkpt lat="49.87101" lon="2.0424">
        <ele>111</ele>
        <time>2023-05-31T14:18:44Z</time>
      </trkpt>
      <trkpt lat="49.87101" lon="2.0424">
        <ele>111</ele>
        <time>2023-05-31T14:18:45Z</time>
      </trkpt>
      <trkpt lat="49.87101" lon="2.0424">
        <ele>111</ele>
        <time>2023-05-31T14:18:46Z</time>
      </trkpt>
      <trkpt lat="49.87101" lon="2.0424">
        <ele>111</ele>
        <time>2023-05-31T14:18:47Z</time>
      </trkpt>
      <trkpt lat="49.87101" lon="2.0424">
        <ele>111</ele>
        <time>2023-05-31T14:18:48Z</time>
      </trkpt>
      <trkpt lat="49.87101" lon="2.0424">
        <ele>111</ele>
        <time>2023-05-31T14:18:49Z</time>
      </trkpt>
      <trkpt lat="49.87101" lon="2.0424">
        <ele>111</ele>
        <time>2023-05-31T14:18:50Z</time>
      </trkpt>
      <trkpt lat="49.87101" lon="2.0424">
        <ele>111</ele>
        <time>2023-05-31T14:18:51Z</time>
      </trkpt>
      <trkpt lat="49.87101" lon="2.0424">
        <ele>111</ele>
        <time>2023-05-31T14:18:52Z</time>
      </trkpt>
      <trkpt lat="49.87101" lon="2.0424">
        <ele>111</ele>
        <time>2023-05-31T14:18:53Z</time>
      </trkpt>
      <trkpt lat="49.87101" lon="2.0424">
        <ele>111</ele>
        <time>2023-05-31T14:18:54Z</time>
      </trkpt>
      <trkpt lat="49.87101" lon="2.0424">
        <ele>111</ele>
        <time>2023-05-31T14:18:55Z</time>
      </trkpt>
      <trkpt lat="49.87101" lon="2.0424">
        <ele>111</ele>
        <time>2023-05-31T14:18:56Z</time>
      </trkpt>
      <trkpt lat="49.87101" lon="2.0424">
        <ele>111</ele>
        <time>2023-05-31T14:18:57Z</time>
      </trkpt>
      <trkpt lat="49.87101" lon="2.0424">
        <ele>111</ele>
        <time>2023-05-31T14:18:58Z</time>
      </trkpt>
      <trkpt lat="49.87101" lon="2.0424">
        <ele>111</ele>
        <time>2023-05-31T14:18:59Z</time>
      </trkpt>
      <trkpt lat="49.87101" lon="2.0424">
        <ele>111</ele>
        <time>2023-05-31T14:19:00Z</time>
      </trkpt>
      <trkpt lat="49.87101" lon="2.0424">
        <ele>111</ele>
        <time>2023-05-31T14:19:01Z</time>
      </trkpt>
      <trkpt lat="49.87101" lon="2.0424">
        <ele>111</ele>
        <time>2023-05-31T14:19:02Z</time>
      </trkpt>
      <trkpt lat="49.87101" lon="2.0424">
        <ele>111</ele>
        <time>2023-05-31T14:19:03Z</time>
      </trkpt>
      <trkpt lat="49.87101" lon="2.0424">
        <ele>111</ele>
        <time>2023-05-31T14:19:04Z</time>
      </trkpt>
      <trkpt lat="49.87101" lon="2.0424">
        <ele>111</ele>
        <time>2023-05-31T14:19:05Z</time>
      </trkpt>
      <trkpt lat="49.87101" lon="2.0424">
        <ele>111</ele>
        <time>2023-05-31T14:19:06Z</time>
      </trkpt>
      <trkpt lat="49.87101" lon="2.0424">
        <ele>111</ele>
        <time>2023-05-31T14:19:07Z</time>
      </trkpt>
      <trkpt lat="49.87101" lon="2.0424">
        <ele>111</ele>
        <time>2023-05-31T14:19:08Z</time>
      </trkpt>
      <trkpt lat="49.87101" lon="2.0424">
        <ele>111</ele>
        <time>2023-05-31T14:19:09Z</time>
      </trkpt>
      <trkpt lat="49.87101" lon="2.0424">
        <ele>111</ele>
        <time>2023-05-31T14:19:10Z</time>
      </trkpt>
      <trkpt lat="49.87101" lon="2.0424">
        <ele>111</ele>
        <time>2023-05-31T14:19:11Z</time>
      </trkpt>
      <trkpt lat="49.87101" lon="2.0424">
        <ele>111</ele>
        <time>2023-05-31T14:19:12Z</time>
      </trkpt>
      <trkpt lat="49.87101" lon="2.0424">
        <ele>111</ele>
        <time>2023-05-31T14:19:13Z</time>
      </trkpt>
      <trkpt lat="49.87101" lon="2.0424">
        <ele>111</ele>
        <time>2023-05-31T14:19:14Z</time>
      </trkpt>
      <trkpt lat="49.87101" lon="2.0424">
        <ele>111</ele>
        <time>2023-05-31T14:19:15Z</time>
      </trkpt>
      <trkpt lat="49.87101" lon="2.0424">
        <ele>111</ele>
        <time>2023-05-31T14:19:16Z</time>
      </trkpt>
      <trkpt lat="49.87101" lon="2.0424">
        <ele>111</ele>
        <time>2023-05-31T14:19:17Z</time>
      </trkpt>
      <trkpt lat="49.87101" lon="2.0424">
        <ele>111</ele>
        <time>2023-05-31T14:19:18Z</time>
      </trkpt>
      <trkpt lat="49.87101" lon="2.0424">
        <ele>111</ele>
        <time>2023-05-31T14:19:19Z</time>
      </trkpt>
      <trkpt lat="49.87101" lon="2.0424">
        <ele>111</ele>
        <time>2023-05-31T14:19:20Z</time>
      </trkpt>
      <trkpt lat="49.87101" lon="2.0424">
        <ele>111</ele>
        <time>2023-05-31T14:19:21Z</time>
      </trkpt>
      <trkpt lat="49.87101" lon="2.0424">
        <ele>111</ele>
        <time>2023-05-31T14:19:22Z</time>
      </trkpt>
      <trkpt lat="49.87101" lon="2.0424">
        <ele>111</ele>
        <time>2023-05-31T14:19:23Z</time>
      </trkpt>
      <trkpt lat="49.87101" lon="2.0424">
        <ele>111</ele>
        <time>2023-05-31T14:19:24Z</time>
      </trkpt>
      <trkpt lat="49.87101" lon="2.0424">
        <ele>111</ele>
        <time>2023-05-31T14:19:25Z</time>
      </trkpt>
      <trkpt lat="49.87101" lon="2.0424">
        <ele>111</ele>
        <time>2023-05-31T14:19:26Z</time>
      </trkpt>
      <trkpt lat="49.87101" lon="2.0424">
        <ele>111</ele>
        <time>2023-05-31T14:19:27Z</time>
      </trkpt>
      <trkpt lat="49.87101" lon="2.0424">
        <ele>111</ele>
        <time>2023-05-31T14:19:28Z</time>
      </trkpt>
      <trkpt lat="49.87101" lon="2.0424">
        <ele>111</ele>
        <time>2023-05-31T14:19:29Z</time>
      </trkpt>
      <trkpt lat="49.87101" lon="2.0424">
        <ele>111</ele>
        <time>2023-05-31T14:19:30Z</time>
      </trkpt>
      <trkpt lat="49.87101" lon="2.0424">
        <ele>111</ele>
        <time>2023-05-31T14:19:31Z</time>
      </trkpt>
      <trkpt lat="49.87101" lon="2.0424">
        <ele>111</ele>
        <time>2023-05-31T14:19:32Z</time>
      </trkpt>
      <trkpt lat="49.87101" lon="2.0424">
        <ele>111</ele>
        <time>2023-05-31T14:19:33Z</time>
      </trkpt>
      <trkpt lat="49.87101" lon="2.0424">
        <ele>111</ele>
        <time>2023-05-31T14:19:34Z</time>
      </trkpt>
      <trkpt lat="49.87101" lon="2.0424">
        <ele>111</ele>
        <time>2023-05-31T14:19:35Z</time>
      </trkpt>
      <trkpt lat="49.87101" lon="2.0424">
        <ele>111</ele>
        <time>2023-05-31T14:19:36Z</time>
      </trkpt>
      <trkpt lat="49.87101" lon="2.0424">
        <ele>111</ele>
        <time>2023-05-31T14:19:37Z</time>
      </trkpt>
      <trkpt lat="49.87101" lon="2.0424">
        <ele>111</ele>
        <time>2023-05-31T14:19:38Z</time>
      </trkpt>
      <trkpt lat="49.87101" lon="2.0424">
        <ele>111</ele>
        <time>2023-05-31T14:19:39Z</time>
      </trkpt>
      <trkpt lat="49.87101" lon="2.0424">
        <ele>111</ele>
        <time>2023-05-31T14:19:40Z</time>
      </trkpt>
      <trkpt lat="49.87101" lon="2.0424">
        <ele>111</ele>
        <time>2023-05-31T14:19:41Z</time>
      </trkpt>
      <trkpt lat="49.87101" lon="2.0424">
        <ele>111</ele>
        <time>2023-05-31T14:19:42Z</time>
      </trkpt>
      <trkpt lat="49.87101" lon="2.0424">
        <ele>111</ele>
        <time>2023-05-31T14:19:43Z</time>
      </trkpt>
      <trkpt lat="49.87101" lon="2.0424">
        <ele>111</ele>
        <time>2023-05-31T14:19:44Z</time>
      </trkpt>
      <trkpt lat="49.87101" lon="2.0424">
        <ele>111</ele>
        <time>2023-05-31T14:19:45Z</time>
      </trkpt>
      <trkpt lat="49.87101" lon="2.0424">
        <ele>111</ele>
        <time>2023-05-31T14:19:46Z</time>
      </trkpt>
      <trkpt lat="49.87101" lon="2.0424">
        <ele>111</ele>
        <time>2023-05-31T14:19:47Z</time>
      </trkpt>
      <trkpt lat="49.87101" lon="2.0424">
        <ele>111</ele>
        <time>2023-05-31T14:19:48Z</time>
      </trkpt>
      <trkpt lat="49.87101" lon="2.0424">
        <ele>111</ele>
        <time>2023-05-31T14:19:49Z</time>
      </trkpt>
      <trkpt lat="49.87101" lon="2.0424">
        <ele>111</ele>
        <time>2023-05-31T14:19:50Z</time>
      </trkpt>
      <trkpt lat="49.87101" lon="2.0424">
        <ele>111</ele>
        <time>2023-05-31T14:19:51Z</time>
      </trkpt>
      <trkpt lat="49.87101" lon="2.0424">
        <ele>111</ele>
        <time>2023-05-31T14:19:52Z</time>
      </trkpt>
      <trkpt lat="49.87101" lon="2.0424">
        <ele>111</ele>
        <time>2023-05-31T14:19:53Z</time>
      </trkpt>
      <trkpt lat="49.87101" lon="2.0424">
        <ele>111</ele>
        <time>2023-05-31T14:19:54Z</time>
      </trkpt>
      <trkpt lat="49.87101" lon="2.0424">
        <ele>111</ele>
        <time>2023-05-31T14:19:55Z</time>
      </trkpt>
      <trkpt lat="49.87101" lon="2.0424">
        <ele>111</ele>
        <time>2023-05-31T14:19:56Z</time>
      </trkpt>
      <trkpt lat="49.87101" lon="2.0424">
        <ele>111</ele>
        <time>2023-05-31T14:19:57Z</time>
      </trkpt>
      <trkpt lat="49.87101" lon="2.0424">
        <ele>111</ele>
        <time>2023-05-31T14:19:58Z</time>
      </trkpt>
      <trkpt lat="49.87101" lon="2.0424">
        <ele>111</ele>
        <time>2023-05-31T14:19:59Z</time>
      </trkpt>
      <trkpt lat="49.87101" lon="2.0424">
        <ele>111</ele>
        <time>2023-05-31T14:20:00Z</time>
      </trkpt>
      <trkpt lat="49.87101" lon="2.0424">
        <ele>111</ele>
        <time>2023-05-31T14:20:01Z</time>
      </trkpt>
      <trkpt lat="49.87101" lon="2.0424">
        <ele>111</ele>
        <time>2023-05-31T14:20:02Z</time>
      </trkpt>
      <trkpt lat="49.87101" lon="2.0424">
        <ele>111</ele>
        <time>2023-05-31T14:20:03Z</time>
      </trkpt>
      <trkpt lat="49.87101" lon="2.0424">
        <ele>111</ele>
        <time>2023-05-31T14:20:04Z</time>
      </trkpt>
      <trkpt lat="49.87101" lon="2.0424">
        <ele>111</ele>
        <time>2023-05-31T14:20:05Z</time>
      </trkpt>
      <trkpt lat="49.87101" lon="2.0424">
        <ele>111</ele>
        <time>2023-05-31T14:20:06Z</time>
      </trkpt>
      <trkpt lat="49.87101" lon="2.0424">
        <ele>111</ele>
        <time>2023-05-31T14:20:07Z</time>
      </trkpt>
      <trkpt lat="49.87101" lon="2.0424">
        <ele>111</ele>
        <time>2023-05-31T14:20:08Z</time>
      </trkpt>
      <trkpt lat="49.87101" lon="2.0424">
        <ele>111</ele>
        <time>2023-05-31T14:20:09Z</time>
      </trkpt>
      <trkpt lat="49.87101" lon="2.0424">
        <ele>111</ele>
        <time>2023-05-31T14:20:10Z</time>
      </trkpt>
      <trkpt lat="49.87101" lon="2.0424">
        <ele>111</ele>
        <time>2023-05-31T14:20:11Z</time>
      </trkpt>
      <trkpt lat="49.87101" lon="2.0424">
        <ele>111</ele>
        <time>2023-05-31T14:20:12Z</time>
      </trkpt>
      <trkpt lat="49.87101" lon="2.0424">
        <ele>111</ele>
        <time>2023-05-31T14:20:13Z</time>
      </trkpt>
      <trkpt lat="49.87101" lon="2.0424">
        <ele>111</ele>
        <time>2023-05-31T14:20:14Z</time>
      </trkpt>
      <trkpt lat="49.87101" lon="2.0424">
        <ele>111</ele>
        <time>2023-05-31T14:20:15Z</time>
      </trkpt>
      <trkpt lat="49.87101" lon="2.0424">
        <ele>111</ele>
        <time>2023-05-31T14:20:16Z</time>
      </trkpt>
      <trkpt lat="49.87101" lon="2.0424">
        <ele>111</ele>
        <time>2023-05-31T14:20:17Z</time>
      </trkpt>
      <trkpt lat="49.87101" lon="2.0424">
        <ele>111</ele>
        <time>2023-05-31T14:20:18Z</time>
      </trkpt>
      <trkpt lat="49.87101" lon="2.0424">
        <ele>111</ele>
        <time>2023-05-31T14:20:19Z</time>
      </trkpt>
      <trkpt lat="49.87101" lon="2.0424">
        <ele>111</ele>
        <time>2023-05-31T14:20:20Z</time>
      </trkpt>
      <trkpt lat="49.87101" lon="2.0424">
        <ele>111</ele>
        <time>2023-05-31T14:20:21Z</time>
      </trkpt>
      <trkpt lat="49.87101" lon="2.0424">
        <ele>111</ele>
        <time>2023-05-31T14:20:22Z</time>
      </trkpt>
      <trkpt lat="49.87101" lon="2.0424">
        <ele>111</ele>
        <time>2023-05-31T14:20:23Z</time>
      </trkpt>
      <trkpt lat="49.87101" lon="2.0424">
        <ele>111</ele>
        <time>2023-05-31T14:20:24Z</time>
      </trkpt>
      <trkpt lat="49.87101" lon="2.0424">
        <ele>111</ele>
        <time>2023-05-31T14:20:25Z</time>
      </trkpt>
      <trkpt lat="49.87101" lon="2.0424">
        <ele>111</ele>
        <time>2023-05-31T14:20:26Z</time>
      </trkpt>
      <trkpt lat="49.87101" lon="2.0424">
        <ele>111</ele>
        <time>2023-05-31T14:20:27Z</time>
      </trkpt>
      <trkpt lat="49.87101" lon="2.0424">
        <ele>111</ele>
        <time>2023-05-31T14:20:28Z</time>
      </trkpt>
      <trkpt lat="49.87101" lon="2.0424">
        <ele>111</ele>
        <time>2023-05-31T14:20:29Z</time>
      </trkpt>
      <trkpt lat="49.87101" lon="2.0424">
        <ele>111</ele>
        <time>2023-05-31T14:20:30Z</time>
      </trkpt>
      <trkpt lat="49.87101" lon="2.0424">
        <ele>111</ele>
        <time>2023-05-31T14:20:31Z</time>
      </trkpt>
      <trkpt lat="49.87101" lon="2.0424">
        <ele>111</ele>
        <time>2023-05-31T14:20:32Z</time>
      </trkpt>
      <trkpt lat="49.87101" lon="2.0424">
        <ele>111</ele>
        <time>2023-05-31T14:20:33Z</time>
      </trkpt>
      <trkpt lat="49.87101" lon="2.0424">
        <ele>111</ele>
        <time>2023-05-31T14:20:34Z</time>
      </trkpt>
      <trkpt lat="49.87101" lon="2.0424">
        <ele>111</ele>
        <time>2023-05-31T14:20:35Z</time>
      </trkpt>
      <trkpt lat="49.87101" lon="2.0424">
        <ele>111</ele>
        <time>2023-05-31T14:20:36Z</time>
      </trkpt>
      <trkpt lat="49.87101" lon="2.0424">
        <ele>111.1</ele>
        <time>2023-05-31T14:20:37Z</time>
      </trkpt>
      <trkpt lat="49.87101" lon="2.0424">
        <ele>111.1</ele>
        <time>2023-05-31T14:20:38Z</time>
      </trkpt>
      <trkpt lat="49.87101" lon="2.0424">
        <ele>111.1</ele>
        <time>2023-05-31T14:20:39Z</time>
      </trkpt>
      <trkpt lat="49.87101" lon="2.0424">
        <ele>111.1</ele>
        <time>2023-05-31T14:20:40Z</time>
      </trkpt>
      <trkpt lat="49.871" lon="2.04239">
        <ele>111.1</ele>
        <time>2023-05-31T14:20:41Z</time>
      </trkpt>
      <trkpt lat="49.871" lon="2.04238">
        <ele>111.1</ele>
        <time>2023-05-31T14:20:42Z</time>
      </trkpt>
      <trkpt lat="49.871" lon="2.04237">
        <ele>111.1</ele>
        <time>2023-05-31T14:20:43Z</time>
      </trkpt>
      <trkpt lat="49.871" lon="2.04235">
        <ele>111.2</ele>
        <time>2023-05-31T14:20:45Z</time>
      </trkpt>
      <trkpt lat="49.87099" lon="2.04234">
        <ele>111.2</ele>
        <time>2023-05-31T14:20:46Z</time>
      </trkpt>
      <trkpt lat="49.87098" lon="2.04233">
        <ele>111.2</ele>
        <time>2023-05-31T14:20:47Z</time>
      </trkpt>
      <trkpt lat="49.87098" lon="2.04233">
        <ele>111.2</ele>
        <time>2023-05-31T14:20:48Z</time>
      </trkpt>
      <trkpt lat="49.87098" lon="2.04233">
        <ele>111.2</ele>
        <time>2023-05-31T14:20:50Z</time>
      </trkpt>
      <trkpt lat="49.87098" lon="2.04233">
        <ele>111.2</ele>
        <time>2023-05-31T14:20:51Z</time>
      </trkpt>
      <trkpt lat="49.87098" lon="2.04233">
        <ele>111.2</ele>
        <time>2023-05-31T14:20:52Z</time>
      </trkpt>
      <trkpt lat="49.87098" lon="2.04233">
        <ele>111.2</ele>
        <time>2023-05-31T14:20:54Z</time>
      </trkpt>
      <trkpt lat="49.87098" lon="2.04233">
        <ele>111.2</ele>
        <time>2023-05-31T14:20:55Z</time>
      </trkpt>
      <trkpt lat="49.87098" lon="2.04233">
        <ele>111.2</ele>
        <time>2023-05-31T14:20:56Z</time>
      </trkpt>
      <trkpt lat="49.87098" lon="2.04233">
        <ele>111.2</ele>
        <time>2023-05-31T14:20:58Z</time>
      </trkpt>
      <trkpt lat="49.87098" lon="2.04233">
        <ele>111.2</ele>
        <time>2023-05-31T14:21:00Z</time>
      </trkpt>
      <trkpt lat="49.87098" lon="2.04233">
        <ele>111.2</ele>
        <time>2023-05-31T14:21:01Z</time>
      </trkpt>
      <trkpt lat="49.87098" lon="2.04233">
        <ele>111.2</ele>
        <time>2023-05-31T14:21:02Z</time>
      </trkpt>
      <trkpt lat="49.87098" lon="2.04233">
        <ele>111.2</ele>
        <time>2023-05-31T14:21:03Z</time>
      </trkpt>
      <trkpt lat="49.87098" lon="2.04233">
        <ele>111.2</ele>
        <time>2023-05-31T14:21:05Z</time>
      </trkpt>
      <trkpt lat="49.87098" lon="2.04233">
        <ele>111.2</ele>
        <time>2023-05-31T14:21:06Z</time>
      </trkpt>
      <trkpt lat="49.87098" lon="2.04233">
        <ele>111.2</ele>
        <time>2023-05-31T14:21:07Z</time>
      </trkpt>
      <trkpt lat="49.87098" lon="2.04233">
        <ele>111.2</ele>
        <time>2023-05-31T14:21:09Z</time>
      </trkpt>
      <trkpt lat="49.87098" lon="2.04233">
        <ele>111.2</ele>
        <time>2023-05-31T14:21:10Z</time>
      </trkpt>
      <trkpt lat="49.87098" lon="2.04233">
        <ele>111.2</ele>
        <time>2023-05-31T14:21:11Z</time>
      </trkpt>
      <trkpt lat="49.87098" lon="2.04233">
        <ele>111.2</ele>
        <time>2023-05-31T14:21:13Z</time>
      </trkpt>
      <trkpt lat="49.87098" lon="2.04233">
        <ele>111.2</ele>
        <time>2023-05-31T14:21:14Z</time>
      </trkpt>
      <trkpt lat="49.87098" lon="2.04233">
        <ele>111.2</ele>
        <time>2023-05-31T14:21:15Z</time>
      </trkpt>
      <trkpt lat="49.87098" lon="2.04233">
        <ele>111.2</ele>
        <time>2023-05-31T14:21:16Z</time>
      </trkpt>
      <trkpt lat="49.87098" lon="2.04233">
        <ele>111.2</ele>
        <time>2023-05-31T14:21:17Z</time>
      </trkpt>
      <trkpt lat="49.87098" lon="2.04233">
        <ele>111.2</ele>
        <time>2023-05-31T14:21:18Z</time>
      </trkpt>
      <trkpt lat="49.87098" lon="2.04233">
        <ele>111.2</ele>
        <time>2023-05-31T14:21:19Z</time>
      </trkpt>
      <trkpt lat="49.87098" lon="2.04233">
        <ele>111.2</ele>
        <time>2023-05-31T14:21:20Z</time>
      </trkpt>
      <trkpt lat="49.87098" lon="2.04233">
        <ele>111.2</ele>
        <time>2023-05-31T14:21:21Z</time>
      </trkpt>
      <trkpt lat="49.87097" lon="2.04233">
        <ele>111.2</ele>
        <time>2023-05-31T14:21:22Z</time>
      </trkpt>
      <trkpt lat="49.87097" lon="2.04233">
        <ele>111.2</ele>
        <time>2023-05-31T14:21:23Z</time>
      </trkpt>
      <trkpt lat="49.87097" lon="2.04233">
        <ele>111.2</ele>
        <time>2023-05-31T14:21:24Z</time>
      </trkpt>
      <trkpt lat="49.87097" lon="2.04233">
        <ele>111.2</ele>
        <time>2023-05-31T14:21:25Z</time>
      </trkpt>
      <trkpt lat="49.87097" lon="2.04233">
        <ele>111.2</ele>
        <time>2023-05-31T14:21:26Z</time>
      </trkpt>
      <trkpt lat="49.87097" lon="2.04233">
        <ele>111.2</ele>
        <time>2023-05-31T14:21:27Z</time>
      </trkpt>
      <trkpt lat="49.87097" lon="2.04233">
        <ele>111.2</ele>
        <time>2023-05-31T14:21:28Z</time>
      </trkpt>
      <trkpt lat="49.87097" lon="2.04233">
        <ele>111.2</ele>
        <time>2023-05-31T14:21:29Z</time>
      </trkpt>
      <trkpt lat="49.87097" lon="2.04233">
        <ele>111.2</ele>
        <time>2023-05-31T14:21:30Z</time>
      </trkpt>
      <trkpt lat="49.87097" lon="2.04233">
        <ele>111.2</ele>
        <time>2023-05-31T14:21:31Z</time>
      </trkpt>
      <trkpt lat="49.87097" lon="2.04233">
        <ele>111.2</ele>
        <time>2023-05-31T14:21:32Z</time>
      </trkpt>
      <trkpt lat="49.87097" lon="2.04233">
        <ele>111.2</ele>
        <time>2023-05-31T14:21:33Z</time>
      </trkpt>
      <trkpt lat="49.87097" lon="2.04233">
        <ele>111.2</ele>
        <time>2023-05-31T14:21:34Z</time>
      </trkpt>
      <trkpt lat="49.87097" lon="2.04233">
        <ele>111.2</ele>
        <time>2023-05-31T14:21:35Z</time>
      </trkpt>
      <trkpt lat="49.87097" lon="2.04233">
        <ele>111.2</ele>
        <time>2023-05-31T14:21:36Z</time>
      </trkpt>
      <trkpt lat="49.87097" lon="2.04233">
        <ele>111.2</ele>
        <time>2023-05-31T14:21:37Z</time>
      </trkpt>
      <trkpt lat="49.87097" lon="2.04233">
        <ele>111.2</ele>
        <time>2023-05-31T14:21:38Z</time>
      </trkpt>
      <trkpt lat="49.87097" lon="2.04233">
        <ele>111.2</ele>
        <time>2023-05-31T14:21:39Z</time>
      </trkpt>
      <trkpt lat="49.87097" lon="2.04233">
        <ele>111.2</ele>
        <time>2023-05-31T14:21:40Z</time>
      </trkpt>
      <trkpt lat="49.87097" lon="2.04233">
        <ele>111.2</ele>
        <time>2023-05-31T14:21:41Z</time>
      </trkpt>
      <trkpt lat="49.87097" lon="2.04233">
        <ele>111.2</ele>
        <time>2023-05-31T14:21:42Z</time>
      </trkpt>
      <trkpt lat="49.87097" lon="2.04233">
        <ele>111.2</ele>
        <time>2023-05-31T14:21:43Z</time>
      </trkpt>
      <trkpt lat="49.87097" lon="2.04233">
        <ele>111.2</ele>
        <time>2023-05-31T14:21:44Z</time>
      </trkpt>
      <trkpt lat="49.87097" lon="2.04233">
        <ele>111.2</ele>
        <time>2023-05-31T14:21:45Z</time>
      </trkpt>
      <trkpt lat="49.87097" lon="2.04233">
        <ele>111.2</ele>
        <time>2023-05-31T14:21:46Z</time>
      </trkpt>
      <trkpt lat="49.87097" lon="2.04233">
        <ele>111.2</ele>
        <time>2023-05-31T14:21:47Z</time>
      </trkpt>
      <trkpt lat="49.87097" lon="2.04233">
        <ele>111.2</ele>
        <time>2023-05-31T14:21:48Z</time>
      </trkpt>
      <trkpt lat="49.87097" lon="2.04233">
        <ele>111.2</ele>
        <time>2023-05-31T14:21:49Z</time>
      </trkpt>
      <trkpt lat="49.87097" lon="2.04233">
        <ele>111.2</ele>
        <time>2023-05-31T14:21:50Z</time>
      </trkpt>
      <trkpt lat="49.87097" lon="2.04233">
        <ele>111.3</ele>
        <time>2023-05-31T14:21:51Z</time>
      </trkpt>
      <trkpt lat="49.87097" lon="2.04233">
        <ele>111.3</ele>
        <time>2023-05-31T14:21:52Z</time>
      </trkpt>
      <trkpt lat="49.87097" lon="2.04233">
        <ele>111.3</ele>
        <time>2023-05-31T14:21:53Z</time>
      </trkpt>
      <trkpt lat="49.87097" lon="2.04233">
        <ele>111.3</ele>
        <time>2023-05-31T14:21:54Z</time>
      </trkpt>
      <trkpt lat="49.87097" lon="2.04233">
        <ele>111.3</ele>
        <time>2023-05-31T14:21:55Z</time>
      </trkpt>
      <trkpt lat="49.87097" lon="2.04233">
        <ele>111.3</ele>
        <time>2023-05-31T14:21:56Z</time>
      </trkpt>
      <trkpt lat="49.87097" lon="2.04233">
        <ele>111.3</ele>
        <time>2023-05-31T14:21:57Z</time>
      </trkpt>
      <trkpt lat="49.87097" lon="2.04233">
        <ele>111.3</ele>
        <time>2023-05-31T14:21:58Z</time>
      </trkpt>
      <trkpt lat="49.87097" lon="2.04233">
        <ele>111.3</ele>
        <time>2023-05-31T14:21:59Z</time>
      </trkpt>
      <trkpt lat="49.87097" lon="2.04233">
        <ele>111.3</ele>
        <time>2023-05-31T14:22:00Z</time>
      </trkpt>
      <trkpt lat="49.87097" lon="2.04233">
        <ele>111.3</ele>
        <time>2023-05-31T14:22:01Z</time>
      </trkpt>
      <trkpt lat="49.87097" lon="2.04233">
        <ele>111.3</ele>
        <time>2023-05-31T14:22:02Z</time>
      </trkpt>
      <trkpt lat="49.87097" lon="2.04233">
        <ele>111.3</ele>
        <time>2023-05-31T14:22:03Z</time>
      </trkpt>
      <trkpt lat="49.87097" lon="2.04233">
        <ele>111.3</ele>
        <time>2023-05-31T14:22:04Z</time>
      </trkpt>
      <trkpt lat="49.87097" lon="2.04233">
        <ele>111.3</ele>
        <time>2023-05-31T14:22:05Z</time>
      </trkpt>
      <trkpt lat="49.87097" lon="2.04233">
        <ele>111.3</ele>
        <time>2023-05-31T14:22:06Z</time>
      </trkpt>
      <trkpt lat="49.87097" lon="2.04233">
        <ele>111.3</ele>
        <time>2023-05-31T14:22:07Z</time>
      </trkpt>
      <trkpt lat="49.87097" lon="2.04233">
        <ele>111.3</ele>
        <time>2023-05-31T14:22:08Z</time>
      </trkpt>
      <trkpt lat="49.87097" lon="2.04233">
        <ele>111.3</ele>
        <time>2023-05-31T14:22:09Z</time>
      </trkpt>
      <trkpt lat="49.87097" lon="2.04233">
        <ele>111.3</ele>
        <time>2023-05-31T14:22:10Z</time>
      </trkpt>
      <trkpt lat="49.87097" lon="2.04233">
        <ele>111.3</ele>
        <time>2023-05-31T14:22:11Z</time>
      </trkpt>
      <trkpt lat="49.87097" lon="2.04233">
        <ele>111.3</ele>
        <time>2023-05-31T14:22:12Z</time>
      </trkpt>
      <trkpt lat="49.87097" lon="2.04233">
        <ele>111.3</ele>
        <time>2023-05-31T14:22:13Z</time>
      </trkpt>
      <trkpt lat="49.87097" lon="2.04233">
        <ele>111.3</ele>
        <time>2023-05-31T14:22:14Z</time>
      </trkpt>
      <trkpt lat="49.87097" lon="2.04233">
        <ele>111.3</ele>
        <time>2023-05-31T14:22:15Z</time>
      </trkpt>
      <trkpt lat="49.87097" lon="2.04233">
        <ele>111.3</ele>
        <time>2023-05-31T14:22:16Z</time>
      </trkpt>
      <trkpt lat="49.87097" lon="2.04233">
        <ele>111.3</ele>
        <time>2023-05-31T14:22:17Z</time>
      </trkpt>
      <trkpt lat="49.87097" lon="2.04233">
        <ele>111.3</ele>
        <time>2023-05-31T14:22:18Z</time>
      </trkpt>
      <trkpt lat="49.87097" lon="2.04233">
        <ele>111.3</ele>
        <time>2023-05-31T14:22:19Z</time>
      </trkpt>
      <trkpt lat="49.87097" lon="2.04233">
        <ele>111.3</ele>
        <time>2023-05-31T14:22:20Z</time>
      </trkpt>
      <trkpt lat="49.87097" lon="2.04233">
        <ele>111.3</ele>
        <time>2023-05-31T14:22:21Z</time>
      </trkpt>
      <trkpt lat="49.87097" lon="2.04233">
        <ele>111.3</ele>
        <time>2023-05-31T14:22:22Z</time>
      </trkpt>
      <trkpt lat="49.87097" lon="2.04233">
        <ele>111.3</ele>
        <time>2023-05-31T14:22:23Z</time>
      </trkpt>
      <trkpt lat="49.87097" lon="2.04233">
        <ele>111.3</ele>
        <time>2023-05-31T14:22:24Z</time>
      </trkpt>
      <trkpt lat="49.87097" lon="2.04233">
        <ele>111.3</ele>
        <time>2023-05-31T14:22:25Z</time>
      </trkpt>
      <trkpt lat="49.87097" lon="2.04233">
        <ele>111.3</ele>
        <time>2023-05-31T14:22:26Z</time>
      </trkpt>
      <trkpt lat="49.87097" lon="2.04233">
        <ele>111.3</ele>
        <time>2023-05-31T14:22:27Z</time>
      </trkpt>
      <trkpt lat="49.87097" lon="2.04233">
        <ele>111.3</ele>
        <time>2023-05-31T14:22:28Z</time>
      </trkpt>
      <trkpt lat="49.87097" lon="2.04233">
        <ele>111.3</ele>
        <time>2023-05-31T14:22:29Z</time>
      </trkpt>
      <trkpt lat="49.87097" lon="2.04232">
        <ele>111.3</ele>
        <time>2023-05-31T14:22:30Z</time>
      </trkpt>
      <trkpt lat="49.87097" lon="2.04232">
        <ele>111.3</ele>
        <time>2023-05-31T14:22:31Z</time>
      </trkpt>
      <trkpt lat="49.87097" lon="2.04232">
        <ele>111.3</ele>
        <time>2023-05-31T14:22:32Z</time>
      </trkpt>
      <trkpt lat="49.87097" lon="2.04232">
        <ele>111.3</ele>
        <time>2023-05-31T14:22:33Z</time>
      </trkpt>
      <trkpt lat="49.87097" lon="2.04232">
        <ele>111.3</ele>
        <time>2023-05-31T14:22:34Z</time>
      </trkpt>
      <trkpt lat="49.87096" lon="2.04232">
        <ele>111.3</ele>
        <time>2023-05-31T14:22:35Z</time>
      </trkpt>
      <trkpt lat="49.87096" lon="2.04232">
        <ele>111.3</ele>
        <time>2023-05-31T14:22:36Z</time>
      </trkpt>
      <trkpt lat="49.87096" lon="2.04232">
        <ele>111.3</ele>
        <time>2023-05-31T14:22:37Z</time>
      </trkpt>
      <trkpt lat="49.87096" lon="2.04232">
        <ele>111.3</ele>
        <time>2023-05-31T14:22:38Z</time>
      </trkpt>
      <trkpt lat="49.87096" lon="2.04232">
        <ele>111.3</ele>
        <time>2023-05-31T14:22:39Z</time>
      </trkpt>
      <trkpt lat="49.87096" lon="2.04232">
        <ele>111.3</ele>
        <time>2023-05-31T14:22:40Z</time>
      </trkpt>
      <trkpt lat="49.87096" lon="2.04232">
        <ele>111.3</ele>
        <time>2023-05-31T14:22:41Z</time>
      </trkpt>
      <trkpt lat="49.87096" lon="2.04232">
        <ele>111.3</ele>
        <time>2023-05-31T14:22:42Z</time>
      </trkpt>
      <trkpt lat="49.87096" lon="2.04232">
        <ele>111.3</ele>
        <time>2023-05-31T14:22:43Z</time>
      </trkpt>
      <trkpt lat="49.87096" lon="2.04232">
        <ele>111.3</ele>
        <time>2023-05-31T14:22:44Z</time>
      </trkpt>
      <trkpt lat="49.87096" lon="2.04232">
        <ele>111.3</ele>
        <time>2023-05-31T14:22:45Z</time>
      </trkpt>
      <trkpt lat="49.87096" lon="2.04232">
        <ele>111.3</ele>
        <time>2023-05-31T14:22:46Z</time>
      </trkpt>
      <trkpt lat="49.87096" lon="2.04232">
        <ele>111.3</ele>
        <time>2023-05-31T14:22:47Z</time>
      </trkpt>
      <trkpt lat="49.87096" lon="2.04232">
        <ele>111.3</ele>
        <time>2023-05-31T14:22:48Z</time>
      </trkpt>
      <trkpt lat="49.87096" lon="2.04232">
        <ele>111.3</ele>
        <time>2023-05-31T14:22:49Z</time>
      </trkpt>
      <trkpt lat="49.87096" lon="2.04232">
        <ele>111.3</ele>
        <time>2023-05-31T14:22:50Z</time>
      </trkpt>
      <trkpt lat="49.87096" lon="2.04232">
        <ele>111.3</ele>
        <time>2023-05-31T14:22:51Z</time>
      </trkpt>
      <trkpt lat="49.87096" lon="2.04232">
        <ele>111.3</ele>
        <time>2023-05-31T14:22:52Z</time>
      </trkpt>
      <trkpt lat="49.87096" lon="2.04232">
        <ele>111.3</ele>
        <time>2023-05-31T14:22:53Z</time>
      </trkpt>
      <trkpt lat="49.87096" lon="2.04232">
        <ele>111.3</ele>
        <time>2023-05-31T14:22:54Z</time>
      </trkpt>
      <trkpt lat="49.87096" lon="2.04232">
        <ele>111.3</ele>
        <time>2023-05-31T14:22:55Z</time>
      </trkpt>
      <trkpt lat="49.87096" lon="2.04232">
        <ele>111.3</ele>
        <time>2023-05-31T14:22:56Z</time>
      </trkpt>
      <trkpt lat="49.87096" lon="2.04232">
        <ele>111.3</ele>
        <time>2023-05-31T14:22:57Z</time>
      </trkpt>
      <trkpt lat="49.87096" lon="2.04232">
        <ele>111.3</ele>
        <time>2023-05-31T14:22:58Z</time>
      </trkpt>
      <trkpt lat="49.87096" lon="2.04232">
        <ele>111.3</ele>
        <time>2023-05-31T14:22:59Z</time>
      </trkpt>
      <trkpt lat="49.87096" lon="2.04232">
        <ele>111.3</ele>
        <time>2023-05-31T14:23:00Z</time>
      </trkpt>
      <trkpt lat="49.87096" lon="2.04232">
        <ele>111.3</ele>
        <time>2023-05-31T14:23:01Z</time>
      </trkpt>
      <trkpt lat="49.87096" lon="2.04232">
        <ele>111.3</ele>
        <time>2023-05-31T14:23:02Z</time>
      </trkpt>
      <trkpt lat="49.87096" lon="2.04232">
        <ele>111.3</ele>
        <time>2023-05-31T14:23:03Z</time>
      </trkpt>
      <trkpt lat="49.87096" lon="2.04232">
        <ele>111.3</ele>
        <time>2023-05-31T14:23:04Z</time>
      </trkpt>
      <trkpt lat="49.87096" lon="2.04232">
        <ele>111.3</ele>
        <time>2023-05-31T14:23:05Z</time>
      </trkpt>
      <trkpt lat="49.87096" lon="2.04232">
        <ele>111.3</ele>
        <time>2023-05-31T14:23:06Z</time>
      </trkpt>
      <trkpt lat="49.87096" lon="2.04232">
        <ele>111.3</ele>
        <time>2023-05-31T14:23:07Z</time>
      </trkpt>
      <trkpt lat="49.87096" lon="2.04232">
        <ele>111.3</ele>
        <time>2023-05-31T14:23:08Z</time>
      </trkpt>
      <trkpt lat="49.87096" lon="2.04232">
        <ele>111.3</ele>
        <time>2023-05-31T14:23:09Z</time>
      </trkpt>
      <trkpt lat="49.87096" lon="2.04232">
        <ele>111.3</ele>
        <time>2023-05-31T14:23:10Z</time>
      </trkpt>
      <trkpt lat="49.87096" lon="2.04232">
        <ele>111.3</ele>
        <time>2023-05-31T14:23:11Z</time>
      </trkpt>
      <trkpt lat="49.87096" lon="2.04232">
        <ele>111.3</ele>
        <time>2023-05-31T14:23:12Z</time>
      </trkpt>
      <trkpt lat="49.87096" lon="2.04232">
        <ele>111.3</ele>
        <time>2023-05-31T14:23:13Z</time>
      </trkpt>
      <trkpt lat="49.87096" lon="2.04232">
        <ele>111.3</ele>
        <time>2023-05-31T14:23:14Z</time>
      </trkpt>
      <trkpt lat="49.87096" lon="2.04232">
        <ele>111.3</ele>
        <time>2023-05-31T14:23:15Z</time>
      </trkpt>
      <trkpt lat="49.87096" lon="2.04232">
        <ele>111.3</ele>
        <time>2023-05-31T14:23:16Z</time>
      </trkpt>
      <trkpt lat="49.87096" lon="2.04232">
        <ele>111.3</ele>
        <time>2023-05-31T14:23:17Z</time>
      </trkpt>
      <trkpt lat="49.87096" lon="2.04232">
        <ele>111.3</ele>
        <time>2023-05-31T14:23:18Z</time>
      </trkpt>
      <trkpt lat="49.87096" lon="2.04232">
        <ele>111.3</ele>
        <time>2023-05-31T14:23:19Z</time>
      </trkpt>
      <trkpt lat="49.87096" lon="2.04232">
        <ele>111.3</ele>
        <time>2023-05-31T14:23:20Z</time>
      </trkpt>
      <trkpt lat="49.87096" lon="2.04232">
        <ele>111.3</ele>
        <time>2023-05-31T14:23:21Z</time>
      </trkpt>
      <trkpt lat="49.87096" lon="2.04232">
        <ele>111.3</ele>
        <time>2023-05-31T14:23:22Z</time>
      </trkpt>
      <trkpt lat="49.87096" lon="2.04232">
        <ele>111.3</ele>
        <time>2023-05-31T14:23:23Z</time>
      </trkpt>
      <trkpt lat="49.87096" lon="2.04232">
        <ele>111.3</ele>
        <time>2023-05-31T14:23:24Z</time>
      </trkpt>
      <trkpt lat="49.87096" lon="2.04232">
        <ele>111.3</ele>
        <time>2023-05-31T14:23:25Z</time>
      </trkpt>
      <trkpt lat="49.87096" lon="2.04232">
        <ele>111.3</ele>
        <time>2023-05-31T14:23:26Z</time>
      </trkpt>
      <trkpt lat="49.87096" lon="2.04232">
        <ele>111.3</ele>
        <time>2023-05-31T14:23:27Z</time>
      </trkpt>
      <trkpt lat="49.87096" lon="2.04232">
        <ele>111.3</ele>
        <time>2023-05-31T14:23:28Z</time>
      </trkpt>
      <trkpt lat="49.87096" lon="2.04232">
        <ele>111.3</ele>
        <time>2023-05-31T14:23:29Z</time>
      </trkpt>
      <trkpt lat="49.87096" lon="2.04232">
        <ele>111.3</ele>
        <time>2023-05-31T14:23:30Z</time>
      </trkpt>
      <trkpt lat="49.87096" lon="2.04232">
        <ele>111.3</ele>
        <time>2023-05-31T14:23:31Z</time>
      </trkpt>
      <trkpt lat="49.87096" lon="2.04232">
        <ele>111.3</ele>
        <time>2023-05-31T14:23:32Z</time>
      </trkpt>
      <trkpt lat="49.87096" lon="2.04232">
        <ele>111.3</ele>
        <time>2023-05-31T14:23:33Z</time>
      </trkpt>
      <trkpt lat="49.87096" lon="2.04232">
        <ele>111.3</ele>
        <time>2023-05-31T14:23:34Z</time>
      </trkpt>
      <trkpt lat="49.87096" lon="2.04232">
        <ele>111.3</ele>
        <time>2023-05-31T14:23:35Z</time>
      </trkpt>
      <trkpt lat="49.87096" lon="2.04232">
        <ele>111.3</ele>
        <time>2023-05-31T14:23:36Z</time>
      </trkpt>
      <trkpt lat="49.87096" lon="2.04232">
        <ele>111.3</ele>
        <time>2023-05-31T14:23:37Z</time>
      </trkpt>
      <trkpt lat="49.87096" lon="2.04232">
        <ele>111.3</ele>
        <time>2023-05-31T14:23:38Z</time>
      </trkpt>
      <trkpt lat="49.87096" lon="2.04232">
        <ele>111.3</ele>
        <time>2023-05-31T14:23:39Z</time>
      </trkpt>
      <trkpt lat="49.87096" lon="2.04232">
        <ele>111.3</ele>
        <time>2023-05-31T14:23:40Z</time>
      </trkpt>
      <trkpt lat="49.87096" lon="2.04232">
        <ele>111.3</ele>
        <time>2023-05-31T14:23:41Z</time>
      </trkpt>
      <trkpt lat="49.87096" lon="2.04232">
        <ele>111.3</ele>
        <time>2023-05-31T14:23:42Z</time>
      </trkpt>
      <trkpt lat="49.87096" lon="2.04232">
        <ele>111.3</ele>
        <time>2023-05-31T14:23:43Z</time>
      </trkpt>
      <trkpt lat="49.87096" lon="2.04232">
        <ele>111.3</ele>
        <time>2023-05-31T14:23:44Z</time>
      </trkpt>
      <trkpt lat="49.87096" lon="2.04232">
        <ele>111.3</ele>
        <time>2023-05-31T14:23:45Z</time>
      </trkpt>
      <trkpt lat="49.87096" lon="2.04232">
        <ele>111.3</ele>
        <time>2023-05-31T14:23:46Z</time>
      </trkpt>
      <trkpt lat="49.87095" lon="2.04232">
        <ele>111.3</ele>
        <time>2023-05-31T14:23:47Z</time>
      </trkpt>
      <trkpt lat="49.87095" lon="2.04232">
        <ele>111.3</ele>
        <time>2023-05-31T14:23:48Z</time>
      </trkpt>
      <trkpt lat="49.87095" lon="2.04232">
        <ele>111.3</ele>
        <time>2023-05-31T14:23:49Z</time>
      </trkpt>
      <trkpt lat="49.87095" lon="2.04232">
        <ele>111.3</ele>
        <time>2023-05-31T14:23:50Z</time>
      </trkpt>
      <trkpt lat="49.87095" lon="2.04232">
        <ele>111.3</ele>
        <time>2023-05-31T14:23:51Z</time>
      </trkpt>
      <trkpt lat="49.87095" lon="2.04232">
        <ele>111.3</ele>
        <time>2023-05-31T14:23:52Z</time>
      </trkpt>
      <trkpt lat="49.87095" lon="2.04232">
        <ele>111.3</ele>
        <time>2023-05-31T14:23:53Z</time>
      </trkpt>
      <trkpt lat="49.87095" lon="2.04232">
        <ele>111.3</ele>
        <time>2023-05-31T14:23:54Z</time>
      </trkpt>
      <trkpt lat="49.87095" lon="2.04232">
        <ele>111.3</ele>
        <time>2023-05-31T14:23:55Z</time>
      </trkpt>
      <trkpt lat="49.87095" lon="2.04232">
        <ele>111.3</ele>
        <time>2023-05-31T14:23:56Z</time>
      </trkpt>
      <trkpt lat="49.87095" lon="2.04232">
        <ele>111.3</ele>
        <time>2023-05-31T14:23:57Z</time>
      </trkpt>
      <trkpt lat="49.87095" lon="2.04232">
        <ele>111.3</ele>
        <time>2023-05-31T14:23:58Z</time>
      </trkpt>
      <trkpt lat="49.87095" lon="2.04232">
        <ele>111.3</ele>
        <time>2023-05-31T14:23:59Z</time>
      </trkpt>
      <trkpt lat="49.87095" lon="2.04232">
        <ele>111.3</ele>
        <time>2023-05-31T14:24:00Z</time>
      </trkpt>
      <trkpt lat="49.87095" lon="2.04232">
        <ele>111.3</ele>
        <time>2023-05-31T14:24:01Z</time>
      </trkpt>
      <trkpt lat="49.87095" lon="2.04232">
        <ele>111.3</ele>
        <time>2023-05-31T14:24:02Z</time>
      </trkpt>
      <trkpt lat="49.87095" lon="2.04232">
        <ele>111.3</ele>
        <time>2023-05-31T14:24:03Z</time>
      </trkpt>
      <trkpt lat="49.87095" lon="2.04232">
        <ele>111.3</ele>
        <time>2023-05-31T14:24:04Z</time>
      </trkpt>
      <trkpt lat="49.87095" lon="2.04232">
        <ele>111.3</ele>
        <time>2023-05-31T14:24:05Z</time>
      </trkpt>
      <trkpt lat="49.87095" lon="2.04232">
        <ele>111.3</ele>
        <time>2023-05-31T14:24:06Z</time>
      </trkpt>
      <trkpt lat="49.87095" lon="2.04232">
        <ele>111.3</ele>
        <time>2023-05-31T14:24:07Z</time>
      </trkpt>
      <trkpt lat="49.87095" lon="2.04232">
        <ele>111.3</ele>
        <time>2023-05-31T14:24:08Z</time>
      </trkpt>
      <trkpt lat="49.87095" lon="2.04232">
        <ele>111.3</ele>
        <time>2023-05-31T14:24:09Z</time>
      </trkpt>
      <trkpt lat="49.87095" lon="2.04232">
        <ele>111.3</ele>
        <time>2023-05-31T14:24:10Z</time>
      </trkpt>
      <trkpt lat="49.87095" lon="2.04232">
        <ele>111.3</ele>
        <time>2023-05-31T14:24:11Z</time>
      </trkpt>
      <trkpt lat="49.87095" lon="2.04232">
        <ele>111.3</ele>
        <time>2023-05-31T14:24:12Z</time>
      </trkpt>
      <trkpt lat="49.87095" lon="2.04231">
        <ele>111.3</ele>
        <time>2023-05-31T14:24:13Z</time>
      </trkpt>
      <trkpt lat="49.87095" lon="2.04231">
        <ele>111.3</ele>
        <time>2023-05-31T14:24:14Z</time>
      </trkpt>
      <trkpt lat="49.87095" lon="2.04231">
        <ele>111.3</ele>
        <time>2023-05-31T14:24:15Z</time>
      </trkpt>
      <trkpt lat="49.87095" lon="2.04231">
        <ele>111.3</ele>
        <time>2023-05-31T14:24:16Z</time>
      </trkpt>
      <trkpt lat="49.87095" lon="2.04231">
        <ele>111.3</ele>
        <time>2023-05-31T14:24:17Z</time>
      </trkpt>
      <trkpt lat="49.87095" lon="2.04231">
        <ele>111.3</ele>
        <time>2023-05-31T14:24:18Z</time>
      </trkpt>
      <trkpt lat="49.87095" lon="2.04231">
        <ele>111.3</ele>
        <time>2023-05-31T14:24:19Z</time>
      </trkpt>
      <trkpt lat="49.87095" lon="2.04231">
        <ele>111.3</ele>
        <time>2023-05-31T14:24:20Z</time>
      </trkpt>
      <trkpt lat="49.87095" lon="2.04231">
        <ele>111.3</ele>
        <time>2023-05-31T14:24:21Z</time>
      </trkpt>
      <trkpt lat="49.87095" lon="2.04231">
        <ele>111.3</ele>
        <time>2023-05-31T14:24:22Z</time>
      </trkpt>
      <trkpt lat="49.87095" lon="2.04231">
        <ele>111.3</ele>
        <time>2023-05-31T14:24:23Z</time>
      </trkpt>
      <trkpt lat="49.87095" lon="2.04231">
        <ele>111.3</ele>
        <time>2023-05-31T14:24:24Z</time>
      </trkpt>
      <trkpt lat="49.87095" lon="2.04231">
        <ele>111.3</ele>
        <time>2023-05-31T14:24:25Z</time>
      </trkpt>
      <trkpt lat="49.87095" lon="2.04231">
        <ele>111.3</ele>
        <time>2023-05-31T14:24:26Z</time>
      </trkpt>
      <trkpt lat="49.87095" lon="2.04231">
        <ele>111.3</ele>
        <time>2023-05-31T14:24:27Z</time>
      </trkpt>
      <trkpt lat="49.87095" lon="2.04231">
        <ele>111.3</ele>
        <time>2023-05-31T14:24:28Z</time>
      </trkpt>
      <trkpt lat="49.87095" lon="2.04231">
        <ele>111.3</ele>
        <time>2023-05-31T14:24:29Z</time>
      </trkpt>
      <trkpt lat="49.87095" lon="2.04231">
        <ele>111.3</ele>
        <time>2023-05-31T14:24:30Z</time>
      </trkpt>
      <trkpt lat="49.87095" lon="2.04231">
        <ele>111.3</ele>
        <time>2023-05-31T14:24:31Z</time>
      </trkpt>
      <trkpt lat="49.87095" lon="2.04231">
        <ele>111.3</ele>
        <time>2023-05-31T14:24:32Z</time>
      </trkpt>
      <trkpt lat="49.87095" lon="2.04231">
        <ele>111.3</ele>
        <time>2023-05-31T14:24:33Z</time>
      </trkpt>
      <trkpt lat="49.87095" lon="2.04231">
        <ele>111.3</ele>
        <time>2023-05-31T14:24:34Z</time>
      </trkpt>
      <trkpt lat="49.87095" lon="2.04231">
        <ele>111.3</ele>
        <time>2023-05-31T14:24:35Z</time>
      </trkpt>
      <trkpt lat="49.87095" lon="2.04231">
        <ele>111.3</ele>
        <time>2023-05-31T14:24:36Z</time>
      </trkpt>
      <trkpt lat="49.87095" lon="2.04231">
        <ele>111.3</ele>
        <time>2023-05-31T14:24:37Z</time>
      </trkpt>
      <trkpt lat="49.87095" lon="2.04231">
        <ele>111.3</ele>
        <time>2023-05-31T14:24:38Z</time>
      </trkpt>
      <trkpt lat="49.87095" lon="2.04231">
        <ele>111.3</ele>
        <time>2023-05-31T14:24:39Z</time>
      </trkpt>
      <trkpt lat="49.87095" lon="2.04231">
        <ele>111.3</ele>
        <time>2023-05-31T14:24:40Z</time>
      </trkpt>
      <trkpt lat="49.87095" lon="2.04231">
        <ele>111.3</ele>
        <time>2023-05-31T14:24:41Z</time>
      </trkpt>
      <trkpt lat="49.87095" lon="2.04231">
        <ele>111.3</ele>
        <time>2023-05-31T14:24:42Z</time>
      </trkpt>
      <trkpt lat="49.87095" lon="2.04231">
        <ele>111.3</ele>
        <time>2023-05-31T14:24:43Z</time>
      </trkpt>
      <trkpt lat="49.87095" lon="2.04231">
        <ele>111.3</ele>
        <time>2023-05-31T14:24:44Z</time>
      </trkpt>
      <trkpt lat="49.87095" lon="2.04231">
        <ele>111.3</ele>
        <time>2023-05-31T14:24:45Z</time>
      </trkpt>
      <trkpt lat="49.87095" lon="2.04231">
        <ele>111.3</ele>
        <time>2023-05-31T14:24:46Z</time>
      </trkpt>
      <trkpt lat="49.87095" lon="2.04231">
        <ele>111.3</ele>
        <time>2023-05-31T14:24:47Z</time>
      </trkpt>
      <trkpt lat="49.87095" lon="2.04231">
        <ele>111.3</ele>
        <time>2023-05-31T14:24:48Z</time>
      </trkpt>
      <trkpt lat="49.87095" lon="2.04231">
        <ele>111.3</ele>
        <time>2023-05-31T14:24:49Z</time>
      </trkpt>
      <trkpt lat="49.87095" lon="2.04231">
        <ele>111.3</ele>
        <time>2023-05-31T14:24:50Z</time>
      </trkpt>
      <trkpt lat="49.87095" lon="2.04231">
        <ele>111.3</ele>
        <time>2023-05-31T14:24:51Z</time>
      </trkpt>
      <trkpt lat="49.87095" lon="2.04231">
        <ele>111.3</ele>
        <time>2023-05-31T14:24:52Z</time>
      </trkpt>
      <trkpt lat="49.87095" lon="2.04231">
        <ele>111.3</ele>
        <time>2023-05-31T14:24:53Z</time>
      </trkpt>
      <trkpt lat="49.87095" lon="2.04231">
        <ele>111.3</ele>
        <time>2023-05-31T14:24:54Z</time>
      </trkpt>
      <trkpt lat="49.87095" lon="2.04231">
        <ele>111.3</ele>
        <time>2023-05-31T14:24:55Z</time>
      </trkpt>
      <trkpt lat="49.87095" lon="2.04231">
        <ele>111.3</ele>
        <time>2023-05-31T14:24:56Z</time>
      </trkpt>
      <trkpt lat="49.87095" lon="2.04231">
        <ele>111.3</ele>
        <time>2023-05-31T14:24:57Z</time>
      </trkpt>
      <trkpt lat="49.87095" lon="2.04231">
        <ele>111.3</ele>
        <time>2023-05-31T14:24:58Z</time>
      </trkpt>
      <trkpt lat="49.87095" lon="2.04231">
        <ele>111.3</ele>
        <time>2023-05-31T14:24:59Z</time>
      </trkpt>
      <trkpt lat="49.87094" lon="2.04231">
        <ele>111.3</ele>
        <time>2023-05-31T14:25:00Z</time>
      </trkpt>
      <trkpt lat="49.87094" lon="2.04231">
        <ele>111.3</ele>
        <time>2023-05-31T14:25:01Z</time>
      </trkpt>
      <trkpt lat="49.87094" lon="2.04231">
        <ele>111.3</ele>
        <time>2023-05-31T14:25:02Z</time>
      </trkpt>
      <trkpt lat="49.87094" lon="2.04231">
        <ele>111.3</ele>
        <time>2023-05-31T14:25:03Z</time>
      </trkpt>
      <trkpt lat="49.87094" lon="2.04231">
        <ele>111.3</ele>
        <time>2023-05-31T14:25:04Z</time>
      </trkpt>
      <trkpt lat="49.87094" lon="2.04231">
        <ele>111.3</ele>
        <time>2023-05-31T14:25:05Z</time>
      </trkpt>
      <trkpt lat="49.87094" lon="2.04231">
        <ele>111.3</ele>
        <time>2023-05-31T14:25:06Z</time>
      </trkpt>
      <trkpt lat="49.87094" lon="2.04231">
        <ele>111.3</ele>
        <time>2023-05-31T14:25:07Z</time>
      </trkpt>
      <trkpt lat="49.87094" lon="2.04231">
        <ele>111.3</ele>
        <time>2023-05-31T14:25:08Z</time>
      </trkpt>
      <trkpt lat="49.87094" lon="2.04231">
        <ele>111.3</ele>
        <time>2023-05-31T14:25:09Z</time>
      </trkpt>
      <trkpt lat="49.87094" lon="2.04231">
        <ele>111.3</ele>
        <time>2023-05-31T14:25:10Z</time>
      </trkpt>
      <trkpt lat="49.87094" lon="2.04231">
        <ele>111.3</ele>
        <time>2023-05-31T14:25:11Z</time>
      </trkpt>
      <trkpt lat="49.87094" lon="2.04231">
        <ele>111.3</ele>
        <time>2023-05-31T14:25:12Z</time>
      </trkpt>
      <trkpt lat="49.87094" lon="2.04231">
        <ele>111.3</ele>
        <time>2023-05-31T14:25:13Z</time>
      </trkpt>
      <trkpt lat="49.87094" lon="2.04231">
        <ele>111.3</ele>
        <time>2023-05-31T14:25:14Z</time>
      </trkpt>
      <trkpt lat="49.87094" lon="2.04231">
        <ele>111.3</ele>
        <time>2023-05-31T14:25:15Z</time>
      </trkpt>
      <trkpt lat="49.87094" lon="2.04231">
        <ele>111.3</ele>
        <time>2023-05-31T14:25:16Z</time>
      </trkpt>
      <trkpt lat="49.87094" lon="2.04231">
        <ele>111.3</ele>
        <time>2023-05-31T14:25:17Z</time>
      </trkpt>
      <trkpt lat="49.87094" lon="2.04231">
        <ele>111.3</ele>
        <time>2023-05-31T14:25:18Z</time>
      </trkpt>
      <trkpt lat="49.87094" lon="2.04231">
        <ele>111.3</ele>
        <time>2023-05-31T14:25:19Z</time>
      </trkpt>
      <trkpt lat="49.87094" lon="2.04231">
        <ele>111.3</ele>
        <time>2023-05-31T14:25:20Z</time>
      </trkpt>
      <trkpt lat="49.87094" lon="2.04231">
        <ele>111.3</ele>
        <time>2023-05-31T14:25:21Z</time>
      </trkpt>
      <trkpt lat="49.87094" lon="2.04231">
        <ele>111.4</ele>
        <time>2023-05-31T14:25:22Z</time>
      </trkpt>
      <trkpt lat="49.87094" lon="2.04231">
        <ele>111.4</ele>
        <time>2023-05-31T14:25:23Z</time>
      </trkpt>
      <trkpt lat="49.87094" lon="2.04231">
        <ele>111.4</ele>
        <time>2023-05-31T14:25:24Z</time>
      </trkpt>
      <trkpt lat="49.87094" lon="2.04231">
        <ele>111.4</ele>
        <time>2023-05-31T14:25:25Z</time>
      </trkpt>
      <trkpt lat="49.87094" lon="2.04231">
        <ele>111.4</ele>
        <time>2023-05-31T14:25:26Z</time>
      </trkpt>
      <trkpt lat="49.87094" lon="2.04231">
        <ele>111.4</ele>
        <time>2023-05-31T14:25:27Z</time>
      </trkpt>
      <trkpt lat="49.87094" lon="2.04231">
        <ele>111.4</ele>
        <time>2023-05-31T14:25:28Z</time>
      </trkpt>
      <trkpt lat="49.87094" lon="2.04231">
        <ele>111.4</ele>
        <time>2023-05-31T14:25:29Z</time>
      </trkpt>
      <trkpt lat="49.87094" lon="2.04231">
        <ele>111.4</ele>
        <time>2023-05-31T14:25:30Z</time>
      </trkpt>
      <trkpt lat="49.87094" lon="2.04231">
        <ele>111.4</ele>
        <time>2023-05-31T14:25:31Z</time>
      </trkpt>
      <trkpt lat="49.87094" lon="2.04231">
        <ele>111.4</ele>
        <time>2023-05-31T14:25:32Z</time>
      </trkpt>
      <trkpt lat="49.87094" lon="2.04231">
        <ele>111.4</ele>
        <time>2023-05-31T14:25:33Z</time>
      </trkpt>
      <trkpt lat="49.87094" lon="2.04231">
        <ele>111.4</ele>
        <time>2023-05-31T14:25:34Z</time>
      </trkpt>
      <trkpt lat="49.87094" lon="2.04231">
        <ele>111.4</ele>
        <time>2023-05-31T14:25:35Z</time>
      </trkpt>
      <trkpt lat="49.87094" lon="2.04231">
        <ele>111.4</ele>
        <time>2023-05-31T14:25:36Z</time>
      </trkpt>
      <trkpt lat="49.87094" lon="2.04231">
        <ele>111.4</ele>
        <time>2023-05-31T14:25:37Z</time>
      </trkpt>
      <trkpt lat="49.87094" lon="2.04231">
        <ele>111.4</ele>
        <time>2023-05-31T14:25:38Z</time>
      </trkpt>
      <trkpt lat="49.87094" lon="2.04231">
        <ele>111.4</ele>
        <time>2023-05-31T14:25:39Z</time>
      </trkpt>
      <trkpt lat="49.87094" lon="2.04231">
        <ele>111.4</ele>
        <time>2023-05-31T14:25:40Z</time>
      </trkpt>
      <trkpt lat="49.87094" lon="2.04231">
        <ele>111.4</ele>
        <time>2023-05-31T14:25:41Z</time>
      </trkpt>
      <trkpt lat="49.87094" lon="2.04231">
        <ele>111.4</ele>
        <time>2023-05-31T14:25:42Z</time>
      </trkpt>
      <trkpt lat="49.87094" lon="2.04231">
        <ele>111.4</ele>
        <time>2023-05-31T14:25:43Z</time>
      </trkpt>
      <trkpt lat="49.87094" lon="2.04231">
        <ele>111.4</ele>
        <time>2023-05-31T14:25:44Z</time>
      </trkpt>
      <trkpt lat="49.87094" lon="2.04231">
        <ele>111.4</ele>
        <time>2023-05-31T14:25:45Z</time>
      </trkpt>
      <trkpt lat="49.87094" lon="2.04231">
        <ele>111.4</ele>
        <time>2023-05-31T14:25:46Z</time>
      </trkpt>
      <trkpt lat="49.87094" lon="2.04231">
        <ele>111.4</ele>
        <time>2023-05-31T14:25:47Z</time>
      </trkpt>
      <trkpt lat="49.87094" lon="2.04231">
        <ele>111.4</ele>
        <time>2023-05-31T14:25:48Z</time>
      </trkpt>
      <trkpt lat="49.87094" lon="2.04231">
        <ele>111.4</ele>
        <time>2023-05-31T14:25:49Z</time>
      </trkpt>
      <trkpt lat="49.87094" lon="2.04231">
        <ele>111.4</ele>
        <time>2023-05-31T14:25:50Z</time>
      </trkpt>
      <trkpt lat="49.87094" lon="2.04231">
        <ele>111.4</ele>
        <time>2023-05-31T14:25:51Z</time>
      </trkpt>
      <trkpt lat="49.87094" lon="2.04231">
        <ele>111.4</ele>
        <time>2023-05-31T14:25:52Z</time>
      </trkpt>
      <trkpt lat="49.87094" lon="2.04231">
        <ele>111.4</ele>
        <time>2023-05-31T14:25:53Z</time>
      </trkpt>
      <trkpt lat="49.87094" lon="2.04231">
        <ele>111.4</ele>
        <time>2023-05-31T14:25:54Z</time>
      </trkpt>
      <trkpt lat="49.87094" lon="2.04231">
        <ele>111.4</ele>
        <time>2023-05-31T14:25:55Z</time>
      </trkpt>
      <trkpt lat="49.87094" lon="2.0423">
        <ele>111.4</ele>
        <time>2023-05-31T14:25:56Z</time>
      </trkpt>
      <trkpt lat="49.87094" lon="2.0423">
        <ele>111.4</ele>
        <time>2023-05-31T14:25:57Z</time>
      </trkpt>
      <trkpt lat="49.87094" lon="2.0423">
        <ele>111.4</ele>
        <time>2023-05-31T14:25:58Z</time>
      </trkpt>
      <trkpt lat="49.87094" lon="2.0423">
        <ele>111.4</ele>
        <time>2023-05-31T14:25:59Z</time>
      </trkpt>
      <trkpt lat="49.87094" lon="2.0423">
        <ele>111.4</ele>
        <time>2023-05-31T14:26:00Z</time>
      </trkpt>
      <trkpt lat="49.87094" lon="2.0423">
        <ele>111.4</ele>
        <time>2023-05-31T14:26:01Z</time>
      </trkpt>
      <trkpt lat="49.87094" lon="2.0423">
        <ele>111.4</ele>
        <time>2023-05-31T14:26:02Z</time>
      </trkpt>
      <trkpt lat="49.87094" lon="2.0423">
        <ele>111.4</ele>
        <time>2023-05-31T14:26:03Z</time>
      </trkpt>
      <trkpt lat="49.87094" lon="2.0423">
        <ele>111.4</ele>
        <time>2023-05-31T14:26:04Z</time>
      </trkpt>
      <trkpt lat="49.87094" lon="2.0423">
        <ele>111.4</ele>
        <time>2023-05-31T14:26:05Z</time>
      </trkpt>
      <trkpt lat="49.87094" lon="2.0423">
        <ele>111.4</ele>
        <time>2023-05-31T14:26:06Z</time>
      </trkpt>
      <trkpt lat="49.87094" lon="2.0423">
        <ele>111.4</ele>
        <time>2023-05-31T14:26:07Z</time>
      </trkpt>
      <trkpt lat="49.87094" lon="2.0423">
        <ele>111.4</ele>
        <time>2023-05-31T14:26:08Z</time>
      </trkpt>
      <trkpt lat="49.87094" lon="2.0423">
        <ele>111.4</ele>
        <time>2023-05-31T14:26:09Z</time>
      </trkpt>
      <trkpt lat="49.87094" lon="2.0423">
        <ele>111.4</ele>
        <time>2023-05-31T14:26:10Z</time>
      </trkpt>
      <trkpt lat="49.87094" lon="2.0423">
        <ele>111.4</ele>
        <time>2023-05-31T14:26:11Z</time>
      </trkpt>
      <trkpt lat="49.87093" lon="2.0423">
        <ele>111.4</ele>
        <time>2023-05-31T14:26:12Z</time>
      </trkpt>
      <trkpt lat="49.87093" lon="2.0423">
        <ele>111.4</ele>
        <time>2023-05-31T14:26:13Z</time>
      </trkpt>
      <trkpt lat="49.87093" lon="2.0423">
        <ele>111.4</ele>
        <time>2023-05-31T14:26:14Z</time>
      </trkpt>
      <trkpt lat="49.87093" lon="2.0423">
        <ele>111.4</ele>
        <time>2023-05-31T14:26:15Z</time>
      </trkpt>
      <trkpt lat="49.87093" lon="2.0423">
        <ele>111.4</ele>
        <time>2023-05-31T14:26:16Z</time>
      </trkpt>
      <trkpt lat="49.87093" lon="2.0423">
        <ele>111.4</ele>
        <time>2023-05-31T14:26:17Z</time>
      </trkpt>
      <trkpt lat="49.87093" lon="2.0423">
        <ele>111.4</ele>
        <time>2023-05-31T14:26:18Z</time>
      </trkpt>
      <trkpt lat="49.87093" lon="2.0423">
        <ele>111.4</ele>
        <time>2023-05-31T14:26:19Z</time>
      </trkpt>
      <trkpt lat="49.87093" lon="2.0423">
        <ele>111.4</ele>
        <time>2023-05-31T14:26:20Z</time>
      </trkpt>
      <trkpt lat="49.87093" lon="2.0423">
        <ele>111.4</ele>
        <time>2023-05-31T14:26:21Z</time>
      </trkpt>
      <trkpt lat="49.87093" lon="2.0423">
        <ele>111.4</ele>
        <time>2023-05-31T14:26:22Z</time>
      </trkpt>
      <trkpt lat="49.87093" lon="2.0423">
        <ele>111.4</ele>
        <time>2023-05-31T14:26:23Z</time>
      </trkpt>
      <trkpt lat="49.87093" lon="2.0423">
        <ele>111.4</ele>
        <time>2023-05-31T14:26:24Z</time>
      </trkpt>
      <trkpt lat="49.87093" lon="2.0423">
        <ele>111.4</ele>
        <time>2023-05-31T14:26:25Z</time>
      </trkpt>
      <trkpt lat="49.87093" lon="2.0423">
        <ele>111.4</ele>
        <time>2023-05-31T14:26:26Z</time>
      </trkpt>
      <trkpt lat="49.87093" lon="2.0423">
        <ele>111.4</ele>
        <time>2023-05-31T14:26:27Z</time>
      </trkpt>
      <trkpt lat="49.87093" lon="2.0423">
        <ele>111.4</ele>
        <time>2023-05-31T14:26:28Z</time>
      </trkpt>
      <trkpt lat="49.87093" lon="2.0423">
        <ele>111.4</ele>
        <time>2023-05-31T14:26:29Z</time>
      </trkpt>
      <trkpt lat="49.87093" lon="2.0423">
        <ele>111.4</ele>
        <time>2023-05-31T14:26:30Z</time>
      </trkpt>
      <trkpt lat="49.87093" lon="2.0423">
        <ele>111.4</ele>
        <time>2023-05-31T14:26:31Z</time>
      </trkpt>
      <trkpt lat="49.87093" lon="2.0423">
        <ele>111.4</ele>
        <time>2023-05-31T14:26:32Z</time>
      </trkpt>
      <trkpt lat="49.87093" lon="2.0423">
        <ele>111.4</ele>
        <time>2023-05-31T14:26:33Z</time>
      </trkpt>
      <trkpt lat="49.87093" lon="2.0423">
        <ele>111.4</ele>
        <time>2023-05-31T14:26:34Z</time>
      </trkpt>
      <trkpt lat="49.87093" lon="2.0423">
        <ele>111.4</ele>
        <time>2023-05-31T14:26:35Z</time>
      </trkpt>
      <trkpt lat="49.87093" lon="2.0423">
        <ele>111.4</ele>
        <time>2023-05-31T14:26:36Z</time>
      </trkpt>
      <trkpt lat="49.87093" lon="2.0423">
        <ele>111.4</ele>
        <time>2023-05-31T14:26:37Z</time>
      </trkpt>
      <trkpt lat="49.87093" lon="2.0423">
        <ele>111.4</ele>
        <time>2023-05-31T14:26:38Z</time>
      </trkpt>
      <trkpt lat="49.87093" lon="2.0423">
        <ele>111.4</ele>
        <time>2023-05-31T14:26:39Z</time>
      </trkpt>
      <trkpt lat="49.87093" lon="2.0423">
        <ele>111.4</ele>
        <time>2023-05-31T14:26:40Z</time>
      </trkpt>
      <trkpt lat="49.87093" lon="2.0423">
        <ele>111.4</ele>
        <time>2023-05-31T14:26:41Z</time>
      </trkpt>
      <trkpt lat="49.87093" lon="2.0423">
        <ele>111.4</ele>
        <time>2023-05-31T14:26:42Z</time>
      </trkpt>
      <trkpt lat="49.87093" lon="2.0423">
        <ele>111.4</ele>
        <time>2023-05-31T14:26:43Z</time>
      </trkpt>
      <trkpt lat="49.87093" lon="2.0423">
        <ele>111.4</ele>
        <time>2023-05-31T14:26:44Z</time>
      </trkpt>
      <trkpt lat="49.87093" lon="2.0423">
        <ele>111.4</ele>
        <time>2023-05-31T14:26:45Z</time>
      </trkpt>
      <trkpt lat="49.87093" lon="2.0423">
        <ele>111.4</ele>
        <time>2023-05-31T14:26:46Z</time>
      </trkpt>
      <trkpt lat="49.87093" lon="2.0423">
        <ele>111.4</ele>
        <time>2023-05-31T14:26:47Z</time>
      </trkpt>
      <trkpt lat="49.87092" lon="2.0423">
        <ele>111.4</ele>
        <time>2023-05-31T14:26:48Z</time>
      </trkpt>
      <trkpt lat="49.87092" lon="2.0423">
        <ele>111.4</ele>
        <time>2023-05-31T14:26:49Z</time>
      </trkpt>
      <trkpt lat="49.87092" lon="2.0423">
        <ele>111.4</ele>
        <time>2023-05-31T14:26:50Z</time>
      </trkpt>
      <trkpt lat="49.87092" lon="2.0423">
        <ele>111.4</ele>
        <time>2023-05-31T14:26:51Z</time>
      </trkpt>
      <trkpt lat="49.87092" lon="2.0423">
        <ele>111.4</ele>
        <time>2023-05-31T14:26:52Z</time>
      </trkpt>
      <trkpt lat="49.87092" lon="2.0423">
        <ele>111.4</ele>
        <time>2023-05-31T14:26:53Z</time>
      </trkpt>
      <trkpt lat="49.87092" lon="2.0423">
        <ele>111.4</ele>
        <time>2023-05-31T14:26:54Z</time>
      </trkpt>
      <trkpt lat="49.87092" lon="2.0423">
        <ele>111.4</ele>
        <time>2023-05-31T14:26:55Z</time>
      </trkpt>
      <trkpt lat="49.87092" lon="2.0423">
        <ele>111.4</ele>
        <time>2023-05-31T14:26:56Z</time>
      </trkpt>
      <trkpt lat="49.87092" lon="2.0423">
        <ele>111.4</ele>
        <time>2023-05-31T14:26:57Z</time>
      </trkpt>
      <trkpt lat="49.87092" lon="2.0423">
        <ele>111.4</ele>
        <time>2023-05-31T14:26:58Z</time>
      </trkpt>
      <trkpt lat="49.87092" lon="2.0423">
        <ele>111.4</ele>
        <time>2023-05-31T14:26:59Z</time>
      </trkpt>
      <trkpt lat="49.87092" lon="2.0423">
        <ele>111.4</ele>
        <time>2023-05-31T14:27:00Z</time>
      </trkpt>
      <trkpt lat="49.87092" lon="2.0423">
        <ele>111.4</ele>
        <time>2023-05-31T14:27:01Z</time>
      </trkpt>
      <trkpt lat="49.87092" lon="2.0423">
        <ele>111.4</ele>
        <time>2023-05-31T14:27:02Z</time>
      </trkpt>
      <trkpt lat="49.87092" lon="2.0423">
        <ele>111.4</ele>
        <time>2023-05-31T14:27:03Z</time>
      </trkpt>
      <trkpt lat="49.87092" lon="2.0423">
        <ele>111.4</ele>
        <time>2023-05-31T14:27:04Z</time>
      </trkpt>
      <trkpt lat="49.87092" lon="2.0423">
        <ele>111.4</ele>
        <time>2023-05-31T14:27:05Z</time>
      </trkpt>
      <trkpt lat="49.87092" lon="2.0423">
        <ele>111.4</ele>
        <time>2023-05-31T14:27:06Z</time>
      </trkpt>
      <trkpt lat="49.87092" lon="2.0423">
        <ele>111.4</ele>
        <time>2023-05-31T14:27:07Z</time>
      </trkpt>
      <trkpt lat="49.87092" lon="2.0423">
        <ele>111.4</ele>
        <time>2023-05-31T14:27:08Z</time>
      </trkpt>
      <trkpt lat="49.87092" lon="2.0423">
        <ele>111.4</ele>
        <time>2023-05-31T14:27:09Z</time>
      </trkpt>
      <trkpt lat="49.87092" lon="2.0423">
        <ele>111.4</ele>
        <time>2023-05-31T14:27:10Z</time>
      </trkpt>
      <trkpt lat="49.87092" lon="2.0423">
        <ele>111.4</ele>
        <time>2023-05-31T14:27:11Z</time>
      </trkpt>
      <trkpt lat="49.87092" lon="2.0423">
        <ele>111.4</ele>
        <time>2023-05-31T14:27:12Z</time>
      </trkpt>
      <trkpt lat="49.87092" lon="2.0423">
        <ele>111.4</ele>
        <time>2023-05-31T14:27:13Z</time>
      </trkpt>
      <trkpt lat="49.87092" lon="2.0423">
        <ele>111.4</ele>
        <time>2023-05-31T14:27:14Z</time>
      </trkpt>
      <trkpt lat="49.87092" lon="2.0423">
        <ele>111.4</ele>
        <time>2023-05-31T14:27:15Z</time>
      </trkpt>
      <trkpt lat="49.87092" lon="2.0423">
        <ele>111.4</ele>
        <time>2023-05-31T14:27:16Z</time>
      </trkpt>
      <trkpt lat="49.87092" lon="2.0423">
        <ele>111.4</ele>
        <time>2023-05-31T14:27:17Z</time>
      </trkpt>
      <trkpt lat="49.87092" lon="2.0423">
        <ele>111.4</ele>
        <time>2023-05-31T14:27:18Z</time>
      </trkpt>
      <trkpt lat="49.87092" lon="2.0423">
        <ele>111.4</ele>
        <time>2023-05-31T14:27:19Z</time>
      </trkpt>
      <trkpt lat="49.87092" lon="2.0423">
        <ele>111.4</ele>
        <time>2023-05-31T14:27:20Z</time>
      </trkpt>
      <trkpt lat="49.87092" lon="2.0423">
        <ele>111.4</ele>
        <time>2023-05-31T14:27:21Z</time>
      </trkpt>
      <trkpt lat="49.87092" lon="2.0423">
        <ele>111.4</ele>
        <time>2023-05-31T14:27:22Z</time>
      </trkpt>
      <trkpt lat="49.87092" lon="2.0423">
        <ele>111.4</ele>
        <time>2023-05-31T14:27:23Z</time>
      </trkpt>
      <trkpt lat="49.87092" lon="2.0423">
        <ele>111.4</ele>
        <time>2023-05-31T14:27:24Z</time>
      </trkpt>
      <trkpt lat="49.87092" lon="2.0423">
        <ele>111.4</ele>
        <time>2023-05-31T14:27:25Z</time>
      </trkpt>
      <trkpt lat="49.87092" lon="2.0423">
        <ele>111.4</ele>
        <time>2023-05-31T14:27:26Z</time>
      </trkpt>
      <trkpt lat="49.87092" lon="2.0423">
        <ele>111.4</ele>
        <time>2023-05-31T14:27:27Z</time>
      </trkpt>
      <trkpt lat="49.87092" lon="2.0423">
        <ele>111.4</ele>
        <time>2023-05-31T14:27:28Z</time>
      </trkpt>
      <trkpt lat="49.87092" lon="2.0423">
        <ele>111.4</ele>
        <time>2023-05-31T14:27:29Z</time>
      </trkpt>
      <trkpt lat="49.87092" lon="2.0423">
        <ele>111.4</ele>
        <time>2023-05-31T14:27:30Z</time>
      </trkpt>
      <trkpt lat="49.87092" lon="2.0423">
        <ele>111.4</ele>
        <time>2023-05-31T14:27:31Z</time>
      </trkpt>
      <trkpt lat="49.87092" lon="2.0423">
        <ele>111.4</ele>
        <time>2023-05-31T14:27:32Z</time>
      </trkpt>
      <trkpt lat="49.87092" lon="2.0423">
        <ele>111.4</ele>
        <time>2023-05-31T14:27:33Z</time>
      </trkpt>
      <trkpt lat="49.87092" lon="2.0423">
        <ele>111.4</ele>
        <time>2023-05-31T14:27:34Z</time>
      </trkpt>
      <trkpt lat="49.87092" lon="2.0423">
        <ele>111.4</ele>
        <time>2023-05-31T14:27:35Z</time>
      </trkpt>
      <trkpt lat="49.87092" lon="2.0423">
        <ele>111.4</ele>
        <time>2023-05-31T14:27:36Z</time>
      </trkpt>
      <trkpt lat="49.87092" lon="2.0423">
        <ele>111.4</ele>
        <time>2023-05-31T14:27:37Z</time>
      </trkpt>
      <trkpt lat="49.87092" lon="2.0423">
        <ele>111.4</ele>
        <time>2023-05-31T14:27:38Z</time>
      </trkpt>
      <trkpt lat="49.87092" lon="2.0423">
        <ele>111.4</ele>
        <time>2023-05-31T14:27:39Z</time>
      </trkpt>
      <trkpt lat="49.87092" lon="2.0423">
        <ele>111.4</ele>
        <time>2023-05-31T14:27:40Z</time>
      </trkpt>
      <trkpt lat="49.87092" lon="2.0423">
        <ele>111.4</ele>
        <time>2023-05-31T14:27:41Z</time>
      </trkpt>
      <trkpt lat="49.87092" lon="2.0423">
        <ele>111.4</ele>
        <time>2023-05-31T14:27:42Z</time>
      </trkpt>
      <trkpt lat="49.87092" lon="2.0423">
        <ele>111.4</ele>
        <time>2023-05-31T14:27:43Z</time>
      </trkpt>
      <trkpt lat="49.87092" lon="2.0423">
        <ele>111.4</ele>
        <time>2023-05-31T14:27:44Z</time>
      </trkpt>
      <trkpt lat="49.87092" lon="2.0423">
        <ele>111.4</ele>
        <time>2023-05-31T14:27:45Z</time>
      </trkpt>
      <trkpt lat="49.87092" lon="2.0423">
        <ele>111.4</ele>
        <time>2023-05-31T14:27:46Z</time>
      </trkpt>
      <trkpt lat="49.87092" lon="2.0423">
        <ele>111.4</ele>
        <time>2023-05-31T14:27:47Z</time>
      </trkpt>
      <trkpt lat="49.87092" lon="2.0423">
        <ele>111.4</ele>
        <time>2023-05-31T14:27:48Z</time>
      </trkpt>
      <trkpt lat="49.87092" lon="2.0423">
        <ele>111.4</ele>
        <time>2023-05-31T14:27:49Z</time>
      </trkpt>
      <trkpt lat="49.87092" lon="2.0423">
        <ele>111.4</ele>
        <time>2023-05-31T14:27:50Z</time>
      </trkpt>
      <trkpt lat="49.87092" lon="2.0423">
        <ele>111.4</ele>
        <time>2023-05-31T14:27:51Z</time>
      </trkpt>
      <trkpt lat="49.87092" lon="2.0423">
        <ele>111.4</ele>
        <time>2023-05-31T14:27:52Z</time>
      </trkpt>
      <trkpt lat="49.87092" lon="2.0423">
        <ele>111.4</ele>
        <time>2023-05-31T14:27:53Z</time>
      </trkpt>
      <trkpt lat="49.87092" lon="2.04229">
        <ele>111.4</ele>
        <time>2023-05-31T14:27:54Z</time>
      </trkpt>
      <trkpt lat="49.87092" lon="2.04229">
        <ele>111.4</ele>
        <time>2023-05-31T14:27:55Z</time>
      </trkpt>
      <trkpt lat="49.87092" lon="2.04228">
        <ele>111.4</ele>
        <time>2023-05-31T14:27:56Z</time>
      </trkpt>
      <trkpt lat="49.87092" lon="2.04229">
        <ele>111.5</ele>
        <time>2023-05-31T14:27:57Z</time>
      </trkpt>
      <trkpt lat="49.87092" lon="2.04229">
        <ele>111.5</ele>
        <time>2023-05-31T14:27:59Z</time>
      </trkpt>
      <trkpt lat="49.87092" lon="2.04229">
        <ele>111.5</ele>
        <time>2023-05-31T14:28:00Z</time>
      </trkpt>
      <trkpt lat="49.87092" lon="2.04229">
        <ele>111.5</ele>
        <time>2023-05-31T14:28:01Z</time>
      </trkpt>
      <trkpt lat="49.87092" lon="2.04229">
        <ele>111.5</ele>
        <time>2023-05-31T14:28:02Z</time>
      </trkpt>
      <trkpt lat="49.87092" lon="2.04228">
        <ele>111.5</ele>
        <time>2023-05-31T14:28:03Z</time>
      </trkpt>
      <trkpt lat="49.87092" lon="2.04228">
        <ele>111.5</ele>
        <time>2023-05-31T14:28:05Z</time>
      </trkpt>
      <trkpt lat="49.87092" lon="2.04228">
        <ele>111.5</ele>
        <time>2023-05-31T14:28:06Z</time>
      </trkpt>
      <trkpt lat="49.87092" lon="2.04228">
        <ele>111.5</ele>
        <time>2023-05-31T14:28:08Z</time>
      </trkpt>
      <trkpt lat="49.87092" lon="2.04228">
        <ele>111.5</ele>
        <time>2023-05-31T14:28:09Z</time>
      </trkpt>
      <trkpt lat="49.87092" lon="2.04228">
        <ele>111.5</ele>
        <time>2023-05-31T14:28:10Z</time>
      </trkpt>
      <trkpt lat="49.87092" lon="2.04228">
        <ele>111.5</ele>
        <time>2023-05-31T14:28:12Z</time>
      </trkpt>
      <trkpt lat="49.87092" lon="2.04228">
        <ele>111.5</ele>
        <time>2023-05-31T14:28:13Z</time>
      </trkpt>
      <trkpt lat="49.87092" lon="2.04228">
        <ele>111.5</ele>
        <time>2023-05-31T14:28:15Z</time>
      </trkpt>
      <trkpt lat="49.87092" lon="2.04228">
        <ele>111.5</ele>
        <time>2023-05-31T14:28:16Z</time>
      </trkpt>
      <trkpt lat="49.87092" lon="2.04228">
        <ele>111.5</ele>
        <time>2023-05-31T14:28:17Z</time>
      </trkpt>
      <trkpt lat="49.87092" lon="2.04228">
        <ele>111.5</ele>
        <time>2023-05-31T14:28:18Z</time>
      </trkpt>
      <trkpt lat="49.87092" lon="2.04228">
        <ele>111.5</ele>
        <time>2023-05-31T14:28:20Z</time>
      </trkpt>
      <trkpt lat="49.87092" lon="2.04228">
        <ele>111.5</ele>
        <time>2023-05-31T14:28:21Z</time>
      </trkpt>
      <trkpt lat="49.87093" lon="2.04229">
        <ele>111.5</ele>
        <time>2023-05-31T14:28:22Z</time>
      </trkpt>
      <trkpt lat="49.87093" lon="2.04229">
        <ele>111.5</ele>
        <time>2023-05-31T14:28:23Z</time>
      </trkpt>
      <trkpt lat="49.87093" lon="2.04229">
        <ele>111.5</ele>
        <time>2023-05-31T14:28:24Z</time>
      </trkpt>
      <trkpt lat="49.87092" lon="2.04228">
        <ele>111.6</ele>
        <time>2023-05-31T14:28:25Z</time>
      </trkpt>
      <trkpt lat="49.87093" lon="2.04229">
        <ele>111.6</ele>
        <time>2023-05-31T14:28:26Z</time>
      </trkpt>
      <trkpt lat="49.87093" lon="2.04229">
        <ele>111.6</ele>
        <time>2023-05-31T14:28:27Z</time>
      </trkpt>
      <trkpt lat="49.87093" lon="2.04229">
        <ele>111.6</ele>
        <time>2023-05-31T14:28:28Z</time>
      </trkpt>
      <trkpt lat="49.87093" lon="2.04229">
        <ele>111.6</ele>
        <time>2023-05-31T14:28:29Z</time>
      </trkpt>
      <trkpt lat="49.87093" lon="2.04229">
        <ele>111.6</ele>
        <time>2023-05-31T14:28:30Z</time>
      </trkpt>
      <trkpt lat="49.87093" lon="2.04229">
        <ele>111.6</ele>
        <time>2023-05-31T14:28:31Z</time>
      </trkpt>
    </trkseg>
  </trk>
</gpx>